
Distance (Route):
Temperature : 18.2°C
Humidity : 56.0%
Pressure : 991.9hPa| Receiver | Frames | First received | Last received |
|---|---|---|---|
| DO2SHX-10 | 748 | 2026-09-05 10:56:54 | 2026-09-05 13:06:27 |
| DL1XH-west | 734 | 2026-09-05 10:48:03 | 2026-09-05 13:05:44 |
| DF8AY | 721 | 2026-09-05 10:49:19 | 2026-09-05 13:10:31 |
| AA1-15 | 648 | 2026-09-05 10:51:28 | 2026-09-05 13:09:18 |
| DL1XH1-15 | 587 | 2026-09-05 10:48:25 | 2026-09-05 13:05:34 |
| DM0DOS-11 | 542 | 2026-09-05 10:47:22 | 2026-09-05 13:08:44 |
| DL1XH-15 | 511 | 2026-09-05 10:48:09 | 2026-09-05 13:00:53 |
| DB0DAN | 387 | 2026-09-05 10:45:55 | 2026-09-05 13:15:40 |
| HSKMA3-T | 375 | 2026-09-05 11:33:46 | 2026-09-05 13:04:48 |
| DL1NUX | 231 | 2026-09-05 11:35:08 | 2026-09-05 12:54:13 |
| GOEST3-10 | 212 | 2026-09-05 10:59:15 | 2026-09-05 12:52:28 |
| DD8BA-10 | 188 | 2026-09-05 10:51:27 | 2026-09-05 12:55:01 |
| BIOWL1-15 | 150 | 2026-09-05 10:50:26 | 2026-09-05 11:28:44 |
| DF8AY-15 | 95 | 2026-09-05 10:54:32 | 2026-09-05 13:09:33 |
| AM1SDL-15 | 85 | 2026-09-05 10:50:48 | 2026-09-05 13:16:33 |
| DF7ER-10 | 70 | 2026-09-05 11:00:51 | 2026-09-05 12:58:11 |
| DO3MHA-11 | 70 | 2026-09-05 11:43:14 | 2026-09-05 12:45:43 |
| SONDE2-11 | 61 | 2026-09-05 11:01:02 | 2026-09-05 13:17:09 |
| TFSTFS | 61 | 2026-09-05 11:17:11 | 2026-09-05 13:12:42 |
| EDDB2-11 | 55 | 2026-09-05 11:11:57 | 2026-09-05 13:16:08 |
| DL4XJ-10 | 52 | 2026-09-05 10:48:01 | 2026-09-05 12:59:17 |
| DB0NH | 50 | 2026-09-05 11:10:44 | 2026-09-05 13:05:14 |
| S3001 | 47 | 2026-09-05 10:56:23 | 2026-09-05 13:07:20 |
| DB0UT-7 | 45 | 2026-09-05 11:13:07 | 2026-09-05 12:58:49 |
| SO1NDE-10 | 44 | 2026-09-05 11:35:06 | 2026-09-05 12:53:17 |
| DJ2DS-15 | 42 | 2026-09-05 10:50:55 | 2026-09-05 13:03:44 |
| DC4HF-4 | 40 | 2026-09-05 10:48:27 | 2026-09-05 13:08:30 |
| EDDB2-12 | 40 | 2026-09-05 11:12:22 | 2026-09-05 13:17:04 |
| DL1ZP-14 | 34 | 2026-09-05 11:10:17 | 2026-09-05 12:54:23 |
| DL4BBY-15 | 32 | 2026-09-05 10:52:00 | 2026-09-05 12:45:38 |
| SMARD9-15 | 27 | 2026-09-05 10:54:54 | 2026-09-05 12:37:53 |
| SONCRA | 26 | 2026-09-05 10:55:31 | 2026-09-05 13:12:14 |
| BUE01 | 22 | 2026-09-05 11:17:46 | 2026-09-05 12:46:16 |
| DL3AQ-11 | 19 | 2026-09-05 10:56:46 | 2026-09-05 11:14:57 |
| DL2RXE-15 | 18 | 2026-09-05 11:06:19 | 2026-09-05 13:16:38 |
| SMARD9-10 | 17 | 2026-09-05 10:48:26 | 2026-09-05 12:45:33 |
| NBG1-10 | 15 | 2026-09-05 11:16:55 | 2026-09-05 12:43:46 |
| DJ8HS-15 | 15 | 2026-09-05 12:04:43 | 2026-09-05 12:40:32 |
| DL1LOL-11 | 14 | 2026-09-05 10:52:04 | 2026-09-05 12:38:01 |
| SP3WXH-11 | 14 | 2026-09-05 12:07:40 | 2026-09-05 12:53:43 |
| DC6BW-12 | 14 | 2026-09-05 12:11:42 | 2026-09-05 12:37:12 |
| BIOWL9-15 | 11 | 2026-09-05 10:52:40 | 2026-09-05 11:33:02 |
| HARRO8 | 11 | 2026-09-05 11:31:22 | 2026-09-05 12:31:56 |
| DB0ND-19 | 11 | 2026-09-05 12:27:45 | 2026-09-05 13:00:51 |
| DL1CLM-18 | 10 | 2026-09-05 12:27:42 | 2026-09-05 12:47:08 |
| DL8OAI-8 | 8 | 2026-09-05 10:54:14 | 2026-09-05 11:07:58 |
| HTAHTA | 8 | 2026-09-05 11:37:00 | 2026-09-05 12:42:44 |
| DO9LL-15 | 8 | 2026-09-05 11:54:46 | 2026-09-05 12:44:47 |
| MECKS9 | 7 | 2026-09-05 12:15:05 | 2026-09-05 12:36:29 |
| OE5DRO-10 | 6 | 2026-09-05 12:22:47 | 2026-09-05 12:35:55 |
| BIOWL7-15 | 5 | 2026-09-05 10:52:01 | 2026-09-05 11:21:03 |
| DH5RUM-10 | 5 | 2026-09-05 12:52:38 | 2026-09-05 13:11:21 |
| DH0BRO-15 | 4 | 2026-09-05 11:52:36 | 2026-09-05 13:14:59 |
| 13BRC | 4 | 2026-09-05 12:44:35 | 2026-09-05 13:01:13 |
| AP2371 | 3 | 2026-09-05 12:12:36 | 2026-09-05 12:23:24 |
| DD1CC8 | 2 | 2026-09-05 12:47:36 | 2026-09-05 12:48:07 |
| DO2LYB-13 | 1 | 2026-09-05 11:01:39 | 2026-09-05 11:01:39 |
| DK1YY | 1 | 2026-09-05 11:44:47 | 2026-09-05 11:44:47 |
| DJTTGO | 1 | 2026-09-05 11:51:44 | 2026-09-05 11:51:44 |
| PG1ADW-2 | 1 | 2026-09-05 12:34:31 | 2026-09-05 12:34:31 |
| OE3JTB-15 | 1 | 2026-09-05 12:45:34 | 2026-09-05 12:45:34 |
| Receiver | Date | Latitude | Longitude | Direction | Speed | Altitude | Climb | Temperature | Humidity | Pressure | Voltage | Killtimer | Uptime | BKT | XDATA |
|---|---|---|---|---|---|---|---|---|---|---|---|---|---|---|---|
| SONDE2-11 | 2026-09-05 13:17:09 | 52.10031 | 12.75353 | 96° | 31km/h | 246m | -6.0m/s | 18.2°C | 56.0% | 991.9hPa | 2.7V | 00:00:00 | 00:00:00 | 00:00:00 | |
| EDDB2-12 | 2026-09-05 13:17:04 | 52.10031 | 12.75353 | 96° | 31km/h | 246m | -6.0m/s | 18.2°C | 56.0% | 991.9hPa | 2.7V | 00:00:00 | 00:00:00 | 00:00:00 | |
| DL2RXE-15 | 2026-09-05 13:16:38 | 52.10026 | 12.75085 | 90° | 46km/h | 343m | -6.4m/s | 17.2°C | 59.4% | 981.3hPa | 2.7V | 00:00:00 | 00:00:00 | 00:00:00 | |
| SONDE2-11 | 2026-09-05 13:16:38 | 52.10026 | 12.75066 | 89° | 44km/h | 349m | -6.6m/s | 17.0°C | 59.8% | 980.3hPa | 2.7V | 00:00:00 | 00:00:00 | 00:00:00 | |
| AM1SDL-15 | 2026-09-05 13:16:33 | 52.10023 | 12.74970 | 84° | 49km/h | 386m | -8.5m/s | 16.5°C | 60.9% | 976.1hPa | 2.7V | 02:30:00 | 03:25:55 | 00:00:00 | |
| AM1SDL-15 | 2026-09-05 13:16:31 | 52.10020 | 12.74929 | 82° | 51km/h | 403m | -8.4m/s | 16.2°C | 60.6% | 974.1hPa | 2.7V | 00:00:00 | 03:25:53 | 00:00:00 | |
| AM1SDL-15 | 2026-09-05 13:16:29 | 52.10015 | 12.74886 | 80° | 53km/h | 417m | -6.3m/s | 16.1°C | 60.5% | 972.1hPa | 2.7V | 00:00:00 | 03:25:51 | 00:00:00 | |
| AM1SDL-15 | 2026-09-05 13:16:22 | 52.10000 | 12.74737 | 84° | 58km/h | 459m | -6.3m/s | 15.7°C | 61.9% | 967.3hPa | 2.7V | 02:30:00 | 03:25:44 | 00:00:00 | |
| AM1SDL-15 | 2026-09-05 13:16:15 | 52.09980 | 12.74573 | 78° | 57km/h | 499m | -5.7m/s | 15.3°C | 64.5% | 962.6hPa | 2.7V | 00:00:00 | 03:25:37 | 00:00:00 | |
| AM1SDL-15 | 2026-09-05 13:16:13 | 52.09974 | 12.74527 | 80° | 57km/h | 511m | -5.6m/s | 15.3°C | 62.9% | 961.3hPa | 2.7V | 00:00:00 | 03:25:35 | 00:00:00 | |
| AM1SDL-15 | 2026-09-05 13:16:11 | 52.09969 | 12.74481 | 79° | 57km/h | 523m | -6.3m/s | 15.3°C | 61.1% | 960.0hPa | 2.7V | 02:30:00 | 03:25:33 | 00:00:00 | |
| AM1SDL-15 | 2026-09-05 13:16:09 | 52.09963 | 12.74436 | 78° | 57km/h | 536m | -6.2m/s | 15.1°C | 62.5% | 958.4hPa | 2.7V | 00:00:00 | 03:25:31 | 00:00:00 | |
| EDDB2-11 | 2026-09-05 13:16:08 | 52.09956 | 12.74391 | 76° | 57km/h | 548m | -6.9m/s | 15.1°C | 61.6% | 957.3hPa | 2.7V | 00:00:00 | 00:00:00 | 00:00:00 | |
| SONDE2-11 | 2026-09-05 13:16:07 | 52.09956 | 12.74391 | 76° | 57km/h | 548m | -6.9m/s | 15.1°C | 61.6% | 957.3hPa | 2.7V | 00:00:00 | 00:00:00 | 00:00:00 | |
| AM1SDL-15 | 2026-09-05 13:16:07 | 52.09956 | 12.74390 | 77° | 57km/h | 548m | -6.8m/s | 15.0°C | 61.8% | 957.3hPa | 2.7V | 00:00:00 | 03:25:29 | 00:00:00 | |
| AM1SDL-15 | 2026-09-05 13:16:05 | 52.09949 | 12.74345 | 77° | 58km/h | 561m | -6.2m/s | 14.9°C | 62.0% | 955.9hPa | 2.7V | 02:31:00 | 03:25:27 | 00:00:00 | |
| AM1SDL-15 | 2026-09-05 13:16:03 | 52.09942 | 12.74298 | 78° | 58km/h | 573m | -6.1m/s | 14.8°C | 62.4% | 954.3hPa | 2.6V | 00:00:00 | 03:25:25 | 00:00:00 | |
| AM1SDL-15 | 2026-09-05 13:16:01 | 52.09936 | 12.74251 | 78° | 58km/h | 585m | -6.4m/s | 14.7°C | 62.8% | 953.1hPa | 2.6V | 00:00:00 | 03:25:23 | 00:00:00 | |
| AM1SDL-15 | 2026-09-05 13:15:59 | 52.09930 | 12.74206 | 79° | 57km/h | 598m | -8.0m/s | 14.6°C | 63.2% | 951.6hPa | 2.6V | 02:31:00 | 03:25:21 | 00:00:00 | |
| AM1SDL-15 | 2026-09-05 13:15:57 | 52.09925 | 12.74160 | 79° | 57km/h | 613m | -8.7m/s | 14.4°C | 63.6% | 949.9hPa | 2.7V | 00:00:00 | 03:25:19 | 00:00:00 | |
| AM1SDL-15 | 2026-09-05 13:15:55 | 52.09919 | 12.74114 | 78° | 57km/h | 631m | -7.7m/s | 14.3°C | 64.0% | 948.2hPa | 2.7V | 00:00:00 | 03:25:17 | 00:00:00 | |
| AM1SDL-15 | 2026-09-05 13:15:53 | 52.09912 | 12.74068 | 79° | 58km/h | 645m | -6.8m/s | 14.1°C | 64.4% | 946.4hPa | 2.7V | 02:31:00 | 03:25:15 | 00:00:00 | |
| DL2RXE-15 | 2026-09-05 13:15:51 | 52.09910 | 12.74045 | 80° | 58km/h | 652m | -7.2m/s | 14.1°C | 64.3% | 945.7hPa | 2.7V | 00:00:00 | 00:00:00 | 00:00:00 | |
| AM1SDL-15 | 2026-09-05 13:15:49 | 52.09902 | 12.73974 | 81° | 58km/h | 671m | -7.3m/s | 13.9°C | 65.3% | 943.5hPa | 2.7V | 00:00:00 | 03:25:11 | 00:00:00 | |
| AM1SDL-15 | 2026-09-05 13:15:47 | 52.09897 | 12.73927 | 81° | 58km/h | 683m | -7.0m/s | 13.8°C | 65.6% | 941.9hPa | 2.7V | 02:31:00 | 03:25:09 | 00:00:00 | |
| AM1SDL-15 | 2026-09-05 13:15:45 | 52.09892 | 12.73879 | 79° | 60km/h | 697m | -6.7m/s | 13.7°C | 66.0% | 940.6hPa | 2.6V | 00:00:00 | 03:25:07 | 00:00:00 | |
| DB0DAN | 2026-09-05 13:15:40 | 52.09877 | 12.73755 | 78° | 58km/h | 732m | -7.4m/s | 13.4°C | 66.7% | 936.59hPa | 2.6V | 00:00:00 | 00:00:00 | 00:00:00 | |
| EDDB2-11 | 2026-09-05 13:15:37 | 52.09865 | 12.73658 | 79° | 58km/h | 759m | -7.0m/s | 13.2°C | 67.5% | 933.7hPa | 2.6V | 00:00:00 | 00:00:00 | 00:00:00 | |
| SONDE2-11 | 2026-09-05 13:15:36 | 52.09865 | 12.73658 | 79° | 58km/h | 759m | -7.0m/s | 13.2°C | 67.5% | 933.7hPa | 2.6V | 00:00:00 | 00:00:00 | 00:00:00 | |
| EDDB2-12 | 2026-09-05 13:15:31 | 52.09850 | 12.73537 | 78° | 58km/h | 793m | -6.0m/s | 12.8°C | 68.8% | 930.0hPa | 2.6V | 00:00:00 | 00:00:00 | 00:00:00 | |
| AM1SDL-15 | 2026-09-05 13:15:29 | 52.09844 | 12.73488 | 78° | 62km/h | 805m | -5.8m/s | 12.7°C | 69.7% | 928.6hPa | 2.6V | 02:31:00 | 03:24:51 | 00:00:00 | |
| DB0DAN | 2026-09-05 13:15:25 | 52.09831 | 12.73390 | 78° | 58km/h | 828m | -5.8m/s | 12.5°C | 70.2% | 925.95hPa | 2.7V | 00:00:00 | 00:00:00 | 00:00:00 | |
| AM1SDL-15 | 2026-09-05 13:15:17 | 52.09806 | 12.73187 | 79° | 66km/h | 880m | -9.7m/s | 11.9°C | 72.3% | 920.4hPa | 2.7V | 00:00:00 | 03:24:39 | 00:00:00 | |
| DB0DAN | 2026-09-05 13:15:10 | 52.09786 | 12.73005 | 79° | 62km/h | 936m | -8.4m/s | 11.4°C | 74% | 914hPa | 2.7V | 00:00:00 | 00:00:00 | 00:00:00 | |
| EDDB2-11 | 2026-09-05 13:15:06 | 52.09770 | 12.72869 | 78° | 68km/h | 973m | -7.3m/s | 11.2°C | 74.8% | 910.0hPa | 2.7V | 00:00:00 | 00:00:00 | 00:00:00 | |
| SONDE2-11 | 2026-09-05 13:15:05 | 52.09770 | 12.72869 | 78° | 68km/h | 973m | -7.3m/s | 11.2°C | 74.8% | 910.0hPa | 2.7V | 00:00:00 | 00:00:00 | 00:00:00 | |
| AM1SDL-15 | 2026-09-05 13:15:05 | 52.09770 | 12.72869 | 79° | 68km/h | 973m | -7.3m/s | 11.1°C | 75.3% | 910.0hPa | 2.7V | 00:00:00 | 03:24:27 | 00:00:00 | |
| DL2RXE-15 | 2026-09-05 13:15:04 | 52.09770 | 12.72869 | 80° | 68km/h | 973m | -7.3m/s | 11.2°C | 74.8% | 910.0hPa | 2.7V | 00:00:00 | 00:00:00 | 00:00:00 | |
| DH0BRO-15 | 2026-09-05 13:14:59 | 52.09754 | 12.72732 | 80° | 69km/h | 1011m | -7.5m/s | 10.8°C | 76.1% | 906.0hPa | 2.7V | 00:00:00 | 00:00:00 | 00:00:00 | |
| DB0DAN | 2026-09-05 13:14:55 | 52.09739 | 12.72594 | 81° | 64km/h | 1049m | -8m/s | 10.4°C | 77.5% | 901.94hPa | 2.7V | 00:00:00 | 00:00:00 | 00:00:00 | |
| AM1SDL-15 | 2026-09-05 13:14:53 | 52.09734 | 12.72539 | 81° | 66km/h | 1065m | -8.1m/s | 10.2°C | 78.7% | 900.4hPa | 2.6V | 02:32:00 | 03:24:15 | 00:00:00 | |
| DB0DAN | 2026-09-05 13:14:40 | 52.09699 | 12.72195 | 81° | 62km/h | 1159m | -7.1m/s | 9.4°C | 81.6% | 890.39hPa | 2.7V | 00:00:00 | 00:00:00 | 00:00:00 | |
| EDDB2-11 | 2026-09-05 13:14:35 | 52.09684 | 12.72035 | 81° | 66km/h | 1198m | -6.4m/s | 9.1°C | 82.8% | 886.2hPa | 2.7V | 00:00:00 | 00:00:00 | 00:00:00 | |
| SONDE2-11 | 2026-09-05 13:14:34 | 52.09684 | 12.72035 | 81° | 66km/h | 1198m | -6.4m/s | 9.1°C | 82.8% | 886.2hPa | 2.7V | 00:00:00 | 00:00:00 | 00:00:00 | |
| AM1SDL-15 | 2026-09-05 13:14:29 | 52.09669 | 12.71875 | 83° | 66km/h | 1235m | -6.1m/s | 8.7°C | 84.7% | 882.0hPa | 2.7V | 00:00:00 | 03:23:50 | 00:00:00 | |
| DB0DAN | 2026-09-05 13:14:25 | 52.09663 | 12.71795 | 84° | 62km/h | 1254m | -6.4m/s | 8.6°C | 84.5% | 880.35hPa | 2.7V | 00:00:00 | 00:00:00 | 00:00:00 | |
| DL2RXE-15 | 2026-09-05 13:14:17 | 52.09651 | 12.71607 | 85° | 68km/h | 1296m | -6.1m/s | 8.3°C | 85.0% | 875.8hPa | 2.7V | 00:00:00 | 00:00:00 | 00:00:00 | |
| AM1SDL-15 | 2026-09-05 13:14:17 | 52.09649 | 12.71580 | 84° | 69km/h | 1302m | -5.6m/s | 8.2°C | 86.1% | 875.1hPa | 2.7V | 02:32:00 | 03:23:39 | 00:00:00 | |
| DB0DAN | 2026-09-05 13:14:10 | 52.09638 | 12.71380 | 85° | 68km/h | 1344m | -6.8m/s | 7.8°C | 87.5% | 870.7hPa | 2.7V | 00:00:00 | 00:00:00 | 00:00:00 | |
| AM1SDL-15 | 2026-09-05 13:14:05 | 52.09633 | 12.71235 | 88° | 69km/h | 1373m | -6.0m/s | 7.4°C | 90.4% | 867.4hPa | 2.7V | 00:00:00 | 03:23:27 | 00:00:00 | |
| EDDB2-11 | 2026-09-05 13:14:04 | 52.09630 | 12.71176 | 86° | 69km/h | 1384m | -6.6m/s | 7.4°C | 89.9% | 866.5hPa | 2.7V | 00:00:00 | 00:00:00 | 00:00:00 | |
| SONDE2-11 | 2026-09-05 13:14:03 | 52.09630 | 12.71176 | 86° | 69km/h | 1384m | -6.6m/s | 7.4°C | 89.9% | 866.5hPa | 2.7V | 00:00:00 | 00:00:00 | 00:00:00 | |
| EDDB2-12 | 2026-09-05 13:13:58 | 52.09627 | 12.71031 | 87° | 69km/h | 1413m | -5.9m/s | 7.1°C | 91.2% | 863.3hPa | 2.7V | 00:00:00 | 00:00:00 | 00:00:00 | |
| DB0DAN | 2026-09-05 13:13:55 | 52.09624 | 12.70945 | 88° | 66km/h | 1431m | -6.2m/s | 6.9°C | 91.7% | 861.54hPa | 2.7V | 00:00:00 | 00:00:00 | 00:00:00 | |
| AM1SDL-15 | 2026-09-05 13:13:53 | 52.09623 | 12.70888 | 88° | 73km/h | 1444m | -6.4m/s | 6.9°C | 90.8% | 860.0hPa | 2.6V | 00:00:00 | 03:23:15 | 00:00:00 | |
| DB0DAN | 2026-09-05 13:13:40 | 52.09616 | 12.70499 | 87° | 69km/h | 1521m | -6.4m/s | 6.6°C | 87.5% | 852.31hPa | 2.6V | 00:00:00 | 00:00:00 | 00:00:00 | |
| EDDB2-11 | 2026-09-05 13:13:33 | 52.09609 | 12.70261 | 87° | 71km/h | 1573m | -6.7m/s | 6.2°C | 87.4% | 846.8hPa | 2.7V | 00:00:00 | 00:00:00 | 00:00:00 | |
| SONDE2-11 | 2026-09-05 13:13:32 | 52.09609 | 12.70261 | 87° | 71km/h | 1573m | -6.7m/s | 6.2°C | 87.4% | 846.8hPa | 2.7V | 00:00:00 | 00:00:00 | 00:00:00 | |
| DL2RXE-15 | 2026-09-05 13:13:30 | 52.09608 | 12.70232 | 88° | 71km/h | 1580m | -6.5m/s | 6.2°C | 87.1% | 846.2hPa | 2.7V | 00:00:00 | 00:00:00 | 00:00:00 | |
| AM1SDL-15 | 2026-09-05 13:13:29 | 52.09608 | 12.70173 | 90° | 75km/h | 1593m | -5.3m/s | 6.0°C | 88.9% | 844.7hPa | 2.7V | 00:00:00 | 03:22:51 | 00:00:00 | |
| EDDB2-12 | 2026-09-05 13:13:27 | 52.09608 | 12.70114 | 91° | 73km/h | 1604m | -6.0m/s | 6.0°C | 87.6% | 843.6hPa | 2.7V | 00:00:00 | 00:00:00 | 00:00:00 | |
| DB0DAN | 2026-09-05 13:13:25 | 52.09609 | 12.70052 | 92° | 73km/h | 1617m | -6.3m/s | 5.9°C | 87.9% | 842.23hPa | 2.7V | 00:00:00 | 00:00:00 | 00:00:00 | |
| AM1SDL-15 | 2026-09-05 13:13:17 | 52.09611 | 12.69802 | 92° | 75km/h | 1667m | -5.9m/s | 5.8°C | 81.6% | 836.8hPa | 2.7V | 00:00:00 | 03:22:39 | 00:00:00 | |
| DB0DAN | 2026-09-05 13:13:10 | 52.09619 | 12.69588 | 95° | 71km/h | 1712m | -7.8m/s | 5.5°C | 82.3% | 832.54hPa | 2.7V | 00:00:00 | 00:00:00 | 00:00:00 | |
| AM1SDL-15 | 2026-09-05 13:13:05 | 52.09629 | 12.69433 | 98° | 73km/h | 1745m | -6.0m/s | 5.0°C | 86.4% | 828.9hPa | 2.6V | 02:34:00 | 03:22:27 | 00:00:00 | |
| EDDB2-11 | 2026-09-05 13:13:01 | 52.09639 | 12.69313 | 98° | 73km/h | 1771m | -6.7m/s | 4.7°C | 90.8% | 826.3hPa | 2.7V | 00:00:00 | 00:00:00 | 00:00:00 | |
| SONDE2-11 | 2026-09-05 13:13:01 | 52.09639 | 12.69313 | 98° | 73km/h | 1771m | -6.7m/s | 4.7°C | 90.8% | 826.3hPa | 2.7V | 00:00:00 | 00:00:00 | 00:00:00 | |
| EDDB2-12 | 2026-09-05 13:12:56 | 52.09654 | 12.69165 | 100° | 71km/h | 1807m | -7.8m/s | 4.9°C | 81.5% | 822.7hPa | 2.7V | 00:00:00 | 00:00:00 | 00:00:00 | |
| DB0DAN | 2026-09-05 13:12:55 | 52.09657 | 12.69136 | 100° | 69km/h | 1815m | -7.3m/s | 4.8°C | 81.1% | 821.92hPa | 2.7V | 00:00:00 | 00:00:00 | 00:00:00 | |
| AM1SDL-15 | 2026-09-05 13:12:53 | 52.09664 | 12.69077 | 100° | 75km/h | 1830m | -7.7m/s | 4.7°C | 81.7% | 820.3hPa | 2.7V | 00:00:00 | 03:22:15 | 00:00:00 | |
| DL2RXE-15 | 2026-09-05 13:12:43 | 52.09688 | 12.68804 | 99° | 75km/h | 1897m | -8.1m/s | 4.1°C | 83.4% | 813.8hPa | 2.7V | 02:35:00 | 00:00:00 | 00:00:00 | |
| TFSTFS | 2026-09-05 13:12:42 | 52.09690 | 12.68774 | 99° | 73km/h | 1905m | -7.4m/s | 4.0°C | 84.0% | 813.0hPa | 2.7V | 00:00:00 | 00:00:00 | 00:00:00 | |
| DB0DAN | 2026-09-05 13:12:40 | 52.09699 | 12.68685 | 99° | 69km/h | 1927m | -7.5m/s | 3.9°C | 84.6% | 810.78hPa | 2.7V | 00:00:00 | 00:00:00 | 00:00:00 | |
| EDDB2-11 | 2026-09-05 13:12:30 | 52.09729 | 12.68384 | 98° | 73km/h | 1998m | -6.4m/s | 3.2°C | 87.3% | 803.6hPa | 2.7V | 00:00:00 | 00:00:00 | 00:00:00 | |
| SONDE2-11 | 2026-09-05 13:12:30 | 52.09729 | 12.68384 | 98° | 73km/h | 1998m | -6.4m/s | 3.2°C | 87.3% | 803.6hPa | 2.7V | 00:00:00 | 00:00:00 | 00:00:00 | |
| AM1SDL-15 | 2026-09-05 13:12:29 | 52.09732 | 12.68354 | 99° | 73km/h | 2005m | -7.0m/s | 3.1°C | 87.6% | 802.9hPa | 2.7V | 02:34:00 | 03:21:51 | 00:00:00 | |
| DB0DAN | 2026-09-05 13:12:25 | 52.09744 | 12.68234 | 100° | 71km/h | 2032m | -7m/s | 2.9°C | 87.5% | 799.9hPa | 2.6V | 00:00:00 | 00:00:00 | 00:00:00 | |
| AM1SDL-15 | 2026-09-05 13:12:16 | 52.09775 | 12.67967 | 103° | 71km/h | 2097m | -7.2m/s | 2.3°C | 92.2% | 793.5hPa | 2.6V | 00:00:00 | 03:21:38 | 00:00:00 | |
| SONCRA | 2026-09-05 13:12:14 | 52.09783 | 12.67908 | 102° | 73km/h | 2113m | -7.5m/s | 2.2°C | 92.4% | 792.1hPa | 2.6V | 00:00:00 | 00:00:00 | 00:00:00 | |
| DB0DAN | 2026-09-05 13:12:10 | 52.09800 | 12.67791 | 104° | 68km/h | 2147m | -11.2m/s | 2.2°C | 87.6% | 789.08hPa | 2.6V | 00:00:00 | 00:00:00 | 00:00:00 | |
| AM1SDL-15 | 2026-09-05 13:12:04 | 52.09825 | 12.67619 | 103° | 71km/h | 2198m | -9.1m/s | 1.9°C | 86.6% | 783.9hPa | 2.7V | 00:00:00 | 03:21:26 | 00:00:00 | |
| SONDE2-11 | 2026-09-05 13:11:59 | 52.09850 | 12.67446 | 102° | 71km/h | 2245m | -7.4m/s | 1.7°C | 86.8% | 779.6hPa | 2.7V | 00:00:00 | 00:00:00 | 00:00:00 | |
| DB0DAN | 2026-09-05 13:11:55 | 52.09862 | 12.67359 | 103° | 69km/h | 2264m | -6.8m/s | 1.5°C | 87.6% | 777.56hPa | 2.7V | 00:00:00 | 00:00:00 | 00:00:00 | |
| EDDB2-12 | 2026-09-05 13:11:54 | 52.09866 | 12.67330 | 103° | 71km/h | 2271m | -7.1m/s | 1.4°C | 88.1% | 776.9hPa | 2.7V | 00:00:00 | 00:00:00 | 00:00:00 | |
| AM1SDL-15 | 2026-09-05 13:11:52 | 52.09875 | 12.67273 | 104° | 69km/h | 2285m | -7.1m/s | 1.3°C | 89.1% | 775.4hPa | 2.7V | 02:35:00 | 03:21:14 | 00:00:00 | |
| TFSTFS | 2026-09-05 13:11:50 | 52.09879 | 12.67244 | 105° | 71km/h | 2292m | -7.5m/s | 1.3°C | 87.9% | 774.9hPa | 2.7V | 00:00:00 | 00:00:00 | 00:00:00 | |
| DB0DAN | 2026-09-05 13:11:40 | 52.09926 | 12.66937 | 105° | 66km/h | 2374m | -7.3m/s | 0.8°C | 79.2% | 766.76hPa | 2.7V | 00:00:00 | 00:00:00 | 00:00:00 | |
| SONDE2-11 | 2026-09-05 13:11:28 | 52.09984 | 12.66576 | 103° | 69km/h | 2479m | -9.3m/s | 0.3°C | 71.0% | 756.8hPa | 2.7V | 00:00:00 | 00:00:00 | 00:00:00 | |
| DB0DAN | 2026-09-05 13:11:25 | 52.09993 | 12.66520 | 105° | 68km/h | 2496m | -8.7m/s | 0.3°C | 66.9% | 755.17hPa | 2.7V | 00:00:00 | 00:00:00 | 00:00:00 | |
| EDDB2-12 | 2026-09-05 13:11:23 | 52.10002 | 12.66464 | 104° | 69km/h | 2512m | -8.7m/s | 0.2°C | 66.4% | 753.8hPa | 2.6V | 00:00:00 | 00:00:00 | 00:00:00 | |
| DH5RUM-10 | 2026-09-05 13:11:21 | 52.10007 | 12.66437 | 107° | 69km/h | 2521m | -9.2m/s | 0.1°C | 0% | 0hPa | 2.6V | 00:00:00 | 00:00:00 | 00:00:00 | |
| AM1SDL-15 | 2026-09-05 13:11:16 | 52.10037 | 12.66271 | 106° | 68km/h | 2577m | -11.5m/s | -0.2°C | 64.8% | 747.8hPa | 2.6V | 02:35:00 | 03:20:38 | 00:00:00 | |
| SONCRA | 2026-09-05 13:11:12 | 52.10057 | 12.66162 | 106° | 68km/h | 2614m | -11.0m/s | -0.6°C | 66.3% | 744.2hPa | 2.6V | 00:00:00 | 00:00:00 | 00:00:00 | |
| DB0DAN | 2026-09-05 13:11:10 | 52.10067 | 12.66108 | 106° | 64km/h | 2636m | -11.8m/s | -0.8°C | 66.7% | 742.29hPa | 2.6V | 00:00:00 | 00:00:00 | 00:00:00 | |
| DL2RXE-15 | 2026-09-05 13:11:08 | 52.10072 | 12.66082 | 108° | 68km/h | 2647m | -11.5m/s | -0.9°C | 67.0% | 741.3hPa | 2.6V | 02:36:00 | 00:00:00 | 00:00:00 | |
| AM1SDL-15 | 2026-09-05 13:11:04 | 52.10097 | 12.65954 | 107° | 64km/h | 2698m | -10.8m/s | -1.1°C | 68.0% | 736.4hPa | 2.6V | 00:00:00 | 03:20:26 | 00:00:00 | |
| SONDE2-11 | 2026-09-05 13:10:57 | 52.10136 | 12.65751 | 107° | 62km/h | 2786m | -12.1m/s | -2.0°C | 70.3% | 728.7hPa | 2.6V | 00:00:00 | 00:00:00 | 00:00:00 | |
| DB0DAN | 2026-09-05 13:10:55 | 52.10140 | 12.65726 | 107° | 60km/h | 2797m | -11m/s | -2°C | 71.4% | 727.4hPa | 2.6V | 00:00:00 | 00:00:00 | 00:00:00 | |
| EDDB2-12 | 2026-09-05 13:10:52 | 52.10162 | 12.65626 | 110° | 64km/h | 2841m | -11.2m/s | -2.3°C | 71.6% | 723.3hPa | 2.6V | 00:00:00 | 00:00:00 | 00:00:00 | |
| DH5RUM-10 | 2026-09-05 13:10:41 | 52.10218 | 12.65398 | 112° | 68km/h | 2927m | -10.5m/s | -2.3°C | 0% | 0hPa | 2.6V | 00:00:00 | 00:00:00 | 00:00:00 | |
| DB0DAN | 2026-09-05 13:10:40 | 52.10231 | 12.65346 | 112° | 64km/h | 2947m | -10.3m/s | -2.4°C | 63.7% | 713.71hPa | 2.6V | 00:00:00 | 00:00:00 | 00:00:00 | |
| DF8AY | 2026-09-05 13:10:31 | 52.10293 | 12.65119 | 113° | 68km/h | 3039m | -10.3m/s | -2.5°C | 66.2% | 705.7hPa | 2.6V | 02:36:47 | 03:19:53 | 00:00:00 | |
| AM1SDL-15 | 2026-09-05 13:10:29 | 52.10314 | 12.65044 | 114° | 66km/h | 3071m | -11.8m/s | -2.6°C | 54.0% | 702.9hPa | 2.6V | 00:00:00 | 03:19:50 | 00:00:00 | |
| DB0DAN | 2026-09-05 13:10:25 | 52.10335 | 12.64970 | 115° | 62km/h | 3103m | -11.8m/s | -2.9°C | 53.3% | 699.94hPa | 2.6V | 00:00:00 | 00:00:00 | 00:00:00 | |
| DF8AY | 2026-09-05 13:10:17 | 52.10394 | 12.64779 | 116° | 66km/h | 3187m | -12.8m/s | -3.7°C | 66.6% | 692.5hPa | 2.6V | 02:37:38 | 03:19:39 | 00:00:00 | |
| AM1SDL-15 | 2026-09-05 13:10:16 | 52.10402 | 12.64754 | 115° | 68km/h | 3200m | -13.0m/s | -3.8°C | 60.8% | 691.4hPa | 2.6V | 00:00:00 | 03:19:38 | 00:00:00 | |
| DB0DAN | 2026-09-05 13:10:10 | 52.10448 | 12.64611 | 119° | 64km/h | 3272m | -12.4m/s | -4°C | 63.5% | 685.11hPa | 2.6V | 00:00:00 | 00:00:00 | 00:00:00 | |
| DF8AY | 2026-09-05 13:10:07 | 52.10474 | 12.64538 | 120° | 68km/h | 3309m | -13.2m/s | -4.2°C | 65.9% | 682.1hPa | 2.5V | 02:37:38 | 03:19:29 | 00:00:00 | |
| DF8AY | 2026-09-05 13:09:56 | 52.10579 | 12.64258 | 122° | 77km/h | 3445m | -12.7m/s | -4.9°C | 59.7% | 670.2hPa | 2.5V | 02:37:38 | 03:19:18 | 00:00:00 | |
| SONDE2-11 | 2026-09-05 13:09:56 | 52.10600 | 12.64206 | 122° | 75km/h | 3470m | -13.2m/s | -5.0°C | 52.4% | 668.1hPa | 2.6V | 00:00:00 | 00:00:00 | 00:00:00 | |
| DB0DAN | 2026-09-05 13:09:55 | 52.10590 | 12.64232 | 123° | 71km/h | 3457m | -13m/s | -5°C | 53.1% | 669.11hPa | 2.6V | 00:00:00 | 00:00:00 | 00:00:00 | |
| DF8AY | 2026-09-05 13:09:46 | 52.10682 | 12.63995 | 121° | 77km/h | 3571m | -13.1m/s | -5.5°C | 48.6% | 659.5hPa | 2.6V | 02:37:38 | 03:19:08 | 00:00:00 | |
| DB0DAN | 2026-09-05 13:09:40 | 52.10742 | 12.63832 | 120° | 75km/h | 3645m | -12.7m/s | -5.6°C | 37.9% | 653.43hPa | 2.6V | 00:00:00 | 00:00:00 | 00:00:00 | |
| DF8AY | 2026-09-05 13:09:35 | 52.10793 | 12.63690 | 120° | 78km/h | 3706m | -12.3m/s | -5.8°C | 68.5% | 648.3hPa | 2.6V | 02:37:38 | 03:18:57 | 00:00:00 | |
| DF8AY-15 | 2026-09-05 13:09:33 | 52.10813 | 12.63634 | 120° | 80km/h | 3729m | -11.8m/s | -5.6°C | 48.3% | 646.3hPa | 2.6V | 00:00:00 | 03:18:55 | 00:00:00 | |
| DB0DAN | 2026-09-05 13:09:25 | 52.10893 | 12.63401 | 120° | 78km/h | 3826m | -13.7m/s | -5.8°C | 22.8% | 638.38hPa | 2.6V | 00:00:00 | 00:00:00 | 00:00:00 | |
| DF8AY | 2026-09-05 13:09:25 | 52.10893 | 12.63401 | 120° | 82km/h | 3826m | -13.7m/s | -5.8°C | 28.2% | 638.4hPa | 2.6V | 02:38:29 | 03:18:47 | 00:00:00 | |
| AA1-15 | 2026-09-05 13:09:18 | 52.10967 | 12.63197 | 120° | 82km/h | 3916m | -13.5m/s | -6.3°C | 22.4% | 631.1hPa | 2.6V | 02:38:29 | 03:18:40 | 00:00:00 | |
| DF8AY | 2026-09-05 13:09:15 | 52.11008 | 12.63081 | 118° | 80km/h | 3966m | -12.4m/s | -6.8°C | 22.3% | 626.9hPa | 2.6V | 02:38:29 | 03:18:36 | 00:00:00 | |
| AM1SDL-15 | 2026-09-05 13:09:14 | 52.11008 | 12.63081 | 119° | 82km/h | 3966m | -12.3m/s | -6.7°C | 18.4% | 626.8hPa | 2.6V | 00:00:00 | 03:18:36 | 00:00:00 | |
| DF8AY-15 | 2026-09-05 13:09:13 | 52.11018 | 12.63051 | 120° | 82km/h | 3979m | -12.3m/s | -6.8°C | 17.7% | 626.0hPa | 2.6V | 00:00:00 | 03:18:35 | 00:00:00 | |
| DB0DAN | 2026-09-05 13:09:10 | 52.11047 | 12.62962 | 118° | 78km/h | 4015m | -13.1m/s | -7.2°C | 16.3% | 623.01hPa | 2.6V | 00:00:00 | 00:00:00 | 00:00:00 | |
| AA1-15 | 2026-09-05 13:09:07 | 52.11077 | 12.62872 | 117° | 82km/h | 4051m | -12m/s | -7.5°C | 18.6% | 620hPa | 2.6V | 02:38:29 | 03:18:29 | 00:00:00 | |
| DF8AY | 2026-09-05 13:09:03 | 52.11115 | 12.62752 | 116° | 82km/h | 4099m | -12.9m/s | -7.8°C | 23.2% | 616.3hPa | 2.6V | 02:38:29 | 03:18:25 | 00:00:00 | |
| AA1-15 | 2026-09-05 13:08:57 | 52.11167 | 12.62567 | 114° | 84km/h | 4172m | -12.8m/s | -8.5°C | 29.5% | 610.6hPa | 2.6V | 02:38:29 | 03:18:19 | 00:00:00 | |
| DB0DAN | 2026-09-05 13:08:55 | 52.11184 | 12.62503 | 112° | 80km/h | 4196m | -13.1m/s | -8.6°C | 23% | 608.55hPa | 2.6V | 00:00:00 | 00:00:00 | 00:00:00 | |
| DF8AY | 2026-09-05 13:08:53 | 52.11201 | 12.62439 | 112° | 84km/h | 4221m | -12.9m/s | -8.7°C | 26.5% | 606.8hPa | 2.6V | 02:38:29 | 03:18:15 | 00:00:00 | |
| AA1-15 | 2026-09-05 13:08:46 | 52.11255 | 12.62210 | 110° | 84km/h | 4308m | -12.5m/s | -9.4°C | 22.7% | 599.9hPa | 2.6V | 02:38:29 | 03:18:08 | 00:00:00 | |
| TFSTFS | 2026-09-05 13:08:45 | 52.11255 | 12.62210 | 111° | 84km/h | 4308m | -12.5m/s | -9.3°C | 18.1% | 599.9hPa | 2.5V | 00:00:00 | 00:00:00 | 00:00:00 | |
| DM0DOS-11 | 2026-09-05 13:08:44 | 52.11308 | 12.61981 | 110° | 84km/h | 4393m | -12m/s | -10°C | 22.8% | 593.3hPa | 2.5V | 02:38:31 | 03:18:01 | 00:00:00 | |
| DF8AY | 2026-09-05 13:08:43 | 52.11277 | 12.62113 | 110° | 84km/h | 4345m | -12.5m/s | -9.6°C | 22% | 597.1hPa | 2.6V | 02:38:29 | 03:18:05 | 00:00:00 | |
| DB0DAN | 2026-09-05 13:08:40 | 52.11300 | 12.62014 | 110° | 82km/h | 4381m | -12.6m/s | -9.9°C | 18.8% | 594.25hPa | 2.5V | 00:00:00 | 00:00:00 | 00:00:00 | |
| DM0DOS-11 | 2026-09-05 13:08:39 | 52.11347 | 12.61818 | 110° | 84km/h | 4454m | -13.1m/s | -10.5°C | 29.1% | 588.8hPa | 2.6V | 02:38:36 | 03:17:56 | 00:00:00 | |
| AA1-15 | 2026-09-05 13:08:35 | 52.11339 | 12.61851 | 111° | 88km/h | 4442m | -12.9m/s | -10.4°C | 34.3% | 589.6hPa | 2.5V | 02:39:20 | 03:17:57 | 00:00:00 | |
| DM0DOS-11 | 2026-09-05 13:08:34 | 52.11386 | 12.61654 | 111° | 86km/h | 4515m | -11.9m/s | -11°C | 33.3% | 583.9hPa | 2.6V | 02:38:41 | 03:17:51 | 00:00:00 | |
| DF8AY | 2026-09-05 13:08:32 | 52.11362 | 12.61753 | 111° | 86km/h | 4479m | -13.3m/s | -10.7°C | 37.7% | 586.8hPa | 2.6V | 02:39:20 | 03:17:54 | 00:00:00 | |
| DC4HF-4 | 2026-09-05 13:08:30 | 52.11378 | 12.61687 | 110° | 86km/h | 4504m | -12.5m/s | -10.9°C | 32.2% | 584.9hPa | 2.6V | 00:00:00 | 00:00:00 | 00:00:00 | |
| DM0DOS-11 | 2026-09-05 13:08:29 | 52.11426 | 12.61488 | 111° | 86km/h | 4576m | -12.7m/s | -11.6°C | 33.2% | 579.4hPa | 2.6V | 02:38:46 | 03:17:46 | 00:00:00 | |
| DB0DAN | 2026-09-05 13:08:25 | 52.11418 | 12.61521 | 112° | 82km/h | 4563m | -13.3m/s | -11.4°C | 30.9% | 580.44hPa | 2.6V | 00:00:00 | 00:00:00 | 00:00:00 | |
| AA1-15 | 2026-09-05 13:08:24 | 52.11426 | 12.61488 | 112° | 86km/h | 4576m | -12.7m/s | -11.6°C | 39.4% | 579.4hPa | 2.6V | 02:39:20 | 03:17:46 | 00:00:00 | |
| DF8AY | 2026-09-05 13:08:22 | 52.11442 | 12.61422 | 111° | 86km/h | 4600m | -12.4m/s | -11.8°C | 46.3% | 577.5hPa | 2.6V | 02:39:20 | 03:17:44 | 00:00:00 | |
| SONDE2-11 | 2026-09-05 13:08:21 | 52.11450 | 12.61389 | 111° | 88km/h | 4611m | -12.4m/s | -11.9°C | 39.3% | 576.8hPa | 2.6V | 00:00:00 | 00:00:00 | 00:00:00 | |
| DM0DOS-11 | 2026-09-05 13:08:19 | 52.11504 | 12.61156 | 111° | 88km/h | 4692m | -12.7m/s | -12.7°C | 41.6% | 570.5hPa | 2.6V | 02:38:56 | 03:17:36 | 00:00:00 | |
| AA1-15 | 2026-09-05 13:08:14 | 52.11504 | 12.61156 | 111° | 88km/h | 4692m | -12.7m/s | -12.7°C | 47.9% | 570.5hPa | 2.6V | 02:39:20 | 03:17:36 | 00:00:00 | |
| DF8AY | 2026-09-05 13:08:11 | 52.11528 | 12.61054 | 110° | 88km/h | 4728m | -12.2m/s | -13°C | 48.9% | 568hPa | 2.6V | 02:39:20 | 03:17:33 | 00:00:00 | |
| DB0DAN | 2026-09-05 13:08:10 | 52.11536 | 12.61021 | 110° | 82km/h | 4740m | -12.1m/s | -13.1°C | 41.6% | 567.06hPa | 2.5V | 00:00:00 | 00:00:00 | 00:00:00 | |
| DM0DOS-11 | 2026-09-05 13:08:09 | 52.11581 | 12.60814 | 109° | 91km/h | 4811m | -12.4m/s | -13.8°C | 43.2% | 561.8hPa | 2.6V | 02:39:06 | 03:17:26 | 00:00:00 | |
| DF8AY | 2026-09-05 13:08:05 | 52.11611 | 12.60673 | 110° | 89km/h | 4858m | -12.1m/s | -14.2°C | 51.6% | 558.3hPa | 2.5V | 02:39:20 | 03:17:22 | 00:00:00 | |
| AA1-15 | 2026-09-05 13:08:03 | 52.11589 | 12.60778 | 109° | 91km/h | 4823m | -12.4m/s | -13.9°C | 49.8% | 560.8hPa | 2.6V | 02:39:20 | 03:17:25 | 00:00:00 | |
| AM1SDL-15 | 2026-09-05 13:08:00 | 52.11611 | 12.60673 | 110° | 93km/h | 4858m | -12.1m/s | -14.2°C | 45.9% | 558.3hPa | 2.6V | 00:00:00 | 03:17:22 | 00:00:00 | |
| DL2RXE-15 | 2026-09-05 13:07:57 | 52.11626 | 12.60602 | 110° | 91km/h | 4882m | -12.5m/s | -14.4°C | 42.4% | 556.6hPa | 2.6V | 00:00:00 | 00:00:00 | 00:00:00 | |
| DB0DAN | 2026-09-05 13:07:55 | 52.11649 | 12.60494 | 108° | 89km/h | 4917m | -12.6m/s | -14.6°C | 40.1% | 554hPa | 2.6V | 00:00:00 | 00:00:00 | 00:00:00 | |
| AA1-15 | 2026-09-05 13:07:53 | 52.11664 | 12.60420 | 109° | 93km/h | 4941m | -12.6m/s | -14.8°C | 46.3% | 552.3hPa | 2.6V | 02:39:20 | 03:17:15 | 00:00:00 | |
| DF8AY | 2026-09-05 13:07:49 | 52.11695 | 12.60272 | 109° | 95km/h | 4989m | -12.2m/s | -15.2°C | 43.7% | 548.7hPa | 2.6V | 02:40:11 | 03:17:11 | 00:00:00 | |
| AM1SDL-15 | 2026-09-05 13:07:48 | 52.11703 | 12.60235 | 109° | 97km/h | 5001m | -12.2m/s | -15.3°C | 38.6% | 547.8hPa | 2.5V | 00:00:00 | 03:17:10 | 00:00:00 | |
| DM0DOS-11 | 2026-09-05 13:07:48 | 52.11741 | 12.60049 | 108° | 97km/h | 5060m | -13.1m/s | -15.9°C | 41.5% | 543.5hPa | 2.5V | 02:39:27 | 03:17:05 | 00:00:00 | |
| EDDB2-12 | 2026-09-05 13:07:46 | 52.11726 | 12.60124 | 108° | 93km/h | 5036m | -11.9m/s | -15.7°C | 38.8% | 545.4hPa | 2.5V | 00:00:00 | 00:00:00 | 00:00:00 | |
| AA1-15 | 2026-09-05 13:07:43 | 52.11741 | 12.60049 | 108° | 97km/h | 5060m | -13.1m/s | -15.9°C | 46.9% | 543.5hPa | 2.5V | 02:40:11 | 03:17:05 | 00:00:00 | |
| DB0DAN | 2026-09-05 13:07:40 | 52.11765 | 12.59936 | 108° | 91km/h | 5096m | -12.9m/s | -16.3°C | 41.2% | 541.03hPa | 2.6V | 00:00:00 | 00:00:00 | 00:00:00 | |
| DF8AY | 2026-09-05 13:07:38 | 52.11780 | 12.59861 | 108° | 97km/h | 5120m | -12.5m/s | -16.5°C | 48.4% | 539.3hPa | 2.5V | 02:40:11 | 03:17:00 | 00:00:00 | |
| AA1-15 | 2026-09-05 13:07:33 | 52.11820 | 12.59671 | 108° | 97km/h | 5181m | -12.5m/s | -17.1°C | 50.2% | 535hPa | 2.6V | 02:40:11 | 03:16:55 | 00:00:00 | |
| DF8AY | 2026-09-05 13:07:28 | 52.11859 | 12.59480 | 108° | 99km/h | 5241m | -12.2m/s | -17.7°C | 51.5% | 530.7hPa | 2.6V | 02:40:11 | 03:16:50 | 00:00:00 | |
| DM0DOS-11 | 2026-09-05 13:07:28 | 52.11898 | 12.59286 | 109° | 102km/h | 5301m | -13.1m/s | -18.2°C | 48.7% | 526.4hPa | 2.5V | 02:39:47 | 03:16:45 | 00:00:00 | |
| DB0DAN | 2026-09-05 13:07:25 | 52.11882 | 12.59363 | 108° | 93km/h | 5277m | -13.3m/s | -18°C | 47.2% | 528.15hPa | 2.5V | 00:00:00 | 00:00:00 | 00:00:00 | |
| AA1-15 | 2026-09-05 13:07:23 | 52.11898 | 12.59286 | 109° | 102km/h | 5301m | -13.1m/s | -18.3°C | 52.3% | 526.4hPa | 2.5V | 02:40:11 | 03:16:45 | 00:00:00 | |
| S3001 | 2026-09-05 13:07:20 | 52.11931 | 12.59122 | 108° | 106km/h | 5351m | -13.1m/s | -18.6°C | 41.4% | 522.9hPa | 2.6V | 00:00:00 | 00:00:00 | 00:00:00 | |
| SONDE2-11 | 2026-09-05 13:07:19 | 52.11931 | 12.59122 | 108° | 106km/h | 5351m | -13.1m/s | -18.6°C | 41.4% | 522.9hPa | 2.6V | 00:00:00 | 00:00:00 | 00:00:00 | |
| DM0DOS-11 | 2026-09-05 13:07:18 | 52.11981 | 12.58867 | 107° | 111km/h | 5422m | -12.5m/s | -18.4°C | 20.8% | 517.9hPa | 2.6V | 02:39:57 | 03:16:35 | 00:00:00 | |
| DF8AY | 2026-09-05 13:07:17 | 52.11948 | 12.59038 | 108° | 108km/h | 5375m | -11.6m/s | -18.7°C | 42.5% | 521.2hPa | 2.5V | 02:40:11 | 03:16:39 | 00:00:00 | |
| AA1-15 | 2026-09-05 13:07:12 | 52.11989 | 12.58823 | 106° | 111km/h | 5435m | -13.4m/s | -18.5°C | 22.8% | 517hPa | 2.6V | 02:40:11 | 03:16:34 | 00:00:00 | |
| DB0DAN | 2026-09-05 13:07:10 | 52.12004 | 12.58736 | 106° | 104km/h | 5461m | -13.5m/s | -18.5°C | 15.9% | 515.27hPa | 2.5V | 00:00:00 | 00:00:00 | 00:00:00 | |
| DL2RXE-15 | 2026-09-05 13:07:09 | 52.12004 | 12.58736 | 107° | 110km/h | 5461m | -13.5m/s | -18.5°C | 15.9% | 515.3hPa | 2.5V | 00:00:00 | 00:00:00 | 00:00:00 | |
| DM0DOS-11 | 2026-09-05 13:07:08 | 52.12054 | 12.58428 | 104° | 110km/h | 5554m | -13.9m/s | -19.3°C | 16.1% | 508.9hPa | 2.5V | 02:40:07 | 03:16:25 | 00:00:00 | |
| DF8AY | 2026-09-05 13:07:06 | 52.12032 | 12.58560 | 105° | 110km/h | 5514m | -13.3m/s | -18.9°C | 17.8% | 511.6hPa | 2.6V | 02:40:11 | 03:16:28 | 00:00:00 | |
| AA1-15 | 2026-09-05 13:06:59 | 52.12082 | 12.58251 | 105° | 111km/h | 5608m | -13.5m/s | -19.9°C | 19.3% | 505.2hPa | 2.6V | 02:40:11 | 03:16:21 | 00:00:00 | |
| DM0DOS-11 | 2026-09-05 13:06:58 | 52.12124 | 12.57983 | 104° | 113km/h | 5685m | -12.9m/s | -20.5°C | 14.9% | 500.1hPa | 2.5V | 02:40:17 | 03:16:15 | 00:00:00 | |
| DF8AY | 2026-09-05 13:06:55 | 52.12110 | 12.58073 | 104° | 111km/h | 5660m | -12.9m/s | -20.3°C | 18.4% | 501.8hPa | 2.6V | 02:41:02 | 03:16:17 | 00:00:00 | |
| DB0DAN | 2026-09-05 13:06:55 | 52.12110 | 12.58073 | 104° | 106km/h | 5660m | -12.9m/s | -20.3°C | 14.9% | 501.77hPa | 2.6V | 00:00:00 | 00:00:00 | 00:00:00 | |
| AA1-15 | 2026-09-05 13:06:49 | 52.12151 | 12.57804 | 103° | 111km/h | 5734m | -13.2m/s | -20.9°C | 15.9% | 496.7hPa | 2.6V | 02:41:02 | 03:16:11 | 00:00:00 | |
| S3001 | 2026-09-05 13:06:49 | 52.12158 | 12.57759 | 103° | 110km/h | 5747m | -12.8m/s | -20.9°C | 12.3% | 495.9hPa | 2.6V | 00:00:00 | 00:00:00 | 00:00:00 | |
| DM0DOS-11 | 2026-09-05 13:06:48 | 52.12191 | 12.57533 | 103° | 113km/h | 5809m | -11.6m/s | -21.5°C | 12.9% | 491.6hPa | 2.6V | 02:40:27 | 03:16:05 | 00:00:00 | |
| DF8AY | 2026-09-05 13:06:45 | 52.12178 | 12.57623 | 103° | 113km/h | 5785m | -13.3m/s | -21.3°C | 15.1% | 493.2hPa | 2.6V | 02:41:02 | 03:16:07 | 00:00:00 | |
| EDDB2-12 | 2026-09-05 13:06:43 | 52.12191 | 12.57533 | 103° | 111km/h | 5809m | -11.6m/s | -21.5°C | 12.1% | 491.6hPa | 2.5V | 00:00:00 | 00:00:00 | 00:00:00 | |
| DC4HF-4 | 2026-09-05 13:06:42 | 52.12198 | 12.57487 | 103° | 113km/h | 5820m | -12.5m/s | -21.6°C | 12.0% | 490.9hPa | 2.5V | 00:00:00 | 00:00:00 | 00:00:00 | |
| DB0DAN | 2026-09-05 13:06:40 | 52.12211 | 12.57394 | 103° | 111km/h | 5845m | -12.2m/s | -21.7°C | 11.2% | 489.23hPa | 2.5V | 00:00:00 | 00:00:00 | 00:00:00 | |
| DM0DOS-11 | 2026-09-05 13:06:38 | 52.12255 | 12.57064 | 103° | 119km/h | 5931m | -12.8m/s | -21.9°C | 7.8% | 483.6hPa | 2.5V | 02:40:37 | 03:15:55 | 00:00:00 | |
| DF8AY | 2026-09-05 13:06:34 | 52.12249 | 12.57112 | 103° | 119km/h | 5919m | -13m/s | -21.9°C | 8.9% | 484.5hPa | 2.5V | 02:41:02 | 03:15:56 | 00:00:00 | |
| AA1-15 | 2026-09-05 13:06:33 | 52.12255 | 12.57064 | 103° | 119km/h | 5931m | -12.8m/s | -21.9°C | 8.5% | 483.6hPa | 2.5V | 02:41:02 | 03:15:55 | 00:00:00 | |
| DF8AY-15 | 2026-09-05 13:06:33 | 52.12255 | 12.57064 | 104° | 122km/h | 5931m | -12.8m/s | -21.9°C | 7.8% | 483.6hPa | 2.5V | 00:00:00 | 03:15:55 | 00:00:00 | |
| SONCRA | 2026-09-05 13:06:32 | 52.12262 | 12.57016 | 102° | 119km/h | 5944m | -13.1m/s | -22.0°C | 7.0% | 482.8hPa | 2.5V | 00:00:00 | 00:00:00 | 00:00:00 | |
| DM0DOS-11 | 2026-09-05 13:06:28 | 52.12331 | 12.56587 | 105° | 120km/h | 6057m | -13m/s | -23°C | 7.3% | 475.3hPa | 2.5V | 02:40:47 | 03:15:45 | 00:00:00 | |
| DO2SHX-10 | 2026-09-05 13:06:27 | 52.12298 | 12.56778 | 105° | 120km/h | 6007m | -12.9m/s | -22.5°C | 7.1% | 478.7hPa | 2.6V | 00:00:00 | 03:15:49 | 00:00:00 | |
| DB0DAN | 2026-09-05 13:06:25 | 52.12314 | 12.56683 | 106° | 117km/h | 6032m | -13.1m/s | -22.8°C | 6.4% | 477.1hPa | 2.6V | 00:00:00 | 00:00:00 | 00:00:00 | |
| DF8AY | 2026-09-05 13:06:24 | 52.12323 | 12.56635 | 105° | 120km/h | 6044m | -13.2m/s | -22.9°C | 7.5% | 476.1hPa | 2.6V | 02:41:02 | 03:15:46 | 00:00:00 | |
| AA1-15 | 2026-09-05 13:06:22 | 52.12339 | 12.56539 | 106° | 122km/h | 6069m | -12.7m/s | -23.1°C | 8% | 474.6hPa | 2.5V | 02:41:02 | 03:15:44 | 00:00:00 | |
| DO2SHX-10 | 2026-09-05 13:06:21 | 52.12347 | 12.56491 | 107° | 124km/h | 6082m | -12.7m/s | -23.0°C | 7.9% | 473.6hPa | 2.5V | 02:40:00 | 03:15:43 | 00:00:00 | |
| DM0DOS-11 | 2026-09-05 13:06:18 | 52.12421 | 12.56096 | 107° | 126km/h | 6185m | -13.2m/s | -23.7°C | 8.3% | 467.1hPa | 2.6V | 02:40:57 | 03:15:35 | 00:00:00 | |
| DF8AY | 2026-09-05 13:06:13 | 52.12421 | 12.56096 | 108° | 126km/h | 6185m | -13.2m/s | -23.7°C | 9.1% | 467.1hPa | 2.6V | 02:41:02 | 03:15:35 | 00:00:00 | |
| AA1-15 | 2026-09-05 13:06:11 | 52.12440 | 12.55996 | 108° | 128km/h | 6210m | -13.9m/s | -23.9°C | 9.1% | 465.4hPa | 2.6V | 02:41:02 | 03:15:33 | 00:00:00 | |
| DB0DAN | 2026-09-05 13:06:10 | 52.12450 | 12.55947 | 108° | 120km/h | 6223m | -14m/s | -24°C | 7.5% | 464.66hPa | 2.5V | 00:00:00 | 00:00:00 | 00:00:00 | |
| DM0DOS-11 | 2026-09-05 13:06:08 | 52.12524 | 12.55596 | 108° | 130km/h | 6311m | -13.4m/s | -24.4°C | 7.1% | 459.1hPa | 2.5V | 02:41:07 | 03:15:25 | 00:00:00 | |
| DF8AY | 2026-09-05 13:06:03 | 52.12524 | 12.55596 | 109° | 130km/h | 6311m | -13.4m/s | -24.4°C | 7.5% | 459.1hPa | 2.5V | 02:41:53 | 03:15:25 | 00:00:00 | |
| AA1-15 | 2026-09-05 13:06:02 | 52.12546 | 12.55495 | 110° | 131km/h | 6336m | -13.3m/s | -24.7°C | 7.6% | 457.5hPa | 2.6V | 02:41:53 | 03:15:23 | 00:00:00 | |
| AM1SDL-15 | 2026-09-05 13:06:00 | 52.12558 | 12.55443 | 110° | 135km/h | 6349m | -13.8m/s | -24.7°C | 7.3% | 456.6hPa | 2.5V | 00:00:00 | 03:15:22 | 00:00:00 | |
| DM0DOS-11 | 2026-09-05 13:05:58 | 52.12638 | 12.55078 | 109° | 137km/h | 6437m | -13.2m/s | -25.1°C | 6.8% | 451.1hPa | 2.5V | 02:41:17 | 03:15:15 | 00:00:00 | |
| TFSTFS | 2026-09-05 13:05:57 | 52.12580 | 12.55340 | 111° | 133km/h | 6375m | -12.9m/s | -25.0°C | 6.4% | 455.0hPa | 2.6V | 02:41:00 | 00:00:00 | 00:00:00 | |
| DB0DAN | 2026-09-05 13:05:55 | 52.12615 | 12.55184 | 109° | 130km/h | 6412m | -13.5m/s | -25°C | 6.2% | 452.74hPa | 2.6V | 00:00:00 | 00:00:00 | 00:00:00 | |
| DF8AY | 2026-09-05 13:05:52 | 52.12649 | 12.55025 | 110° | 139km/h | 6450m | -12.9m/s | -25.1°C | 6.8% | 450.3hPa | 2.5V | 02:41:53 | 03:15:14 | 00:00:00 | |
| AA1-15 | 2026-09-05 13:05:51 | 52.12661 | 12.54971 | 109° | 141km/h | 6462m | -13m/s | -25.1°C | 6.7% | 449.5hPa | 2.6V | 02:41:53 | 03:15:13 | 00:00:00 | |
| DO2SHX-10 | 2026-09-05 13:05:49 | 52.12685 | 12.54865 | 111° | 141km/h | 6487m | -12.7m/s | -25.2°C | 6.7% | 447.9hPa | 2.6V | 02:41:00 | 03:15:11 | 00:00:00 | |
| DM0DOS-11 | 2026-09-05 13:05:48 | 52.12760 | 12.54542 | 110° | 141km/h | 6561m | -12.7m/s | -25.6°C | 7.1% | 443.5hPa | 2.5V | 02:41:27 | 03:15:05 | 00:00:00 | |
| DL1XH-west | 2026-09-05 13:05:44 | 52.12747 | 12.54596 | 111° | 141km/h | 6549m | -12.7m/s | -25.5°C | 7.3% | 444.3hPa | 2.6V | 02:42:44 | 03:15:06 | 00:00:00 | |
| DF8AY | 2026-09-05 13:05:42 | 52.12785 | 12.54433 | 111° | 142km/h | 6586m | -12.6m/s | -25.6°C | 7% | 442hPa | 2.5V | 02:41:53 | 03:15:03 | 00:00:00 | |
| DB0DAN | 2026-09-05 13:05:40 | 52.12798 | 12.54379 | 111° | 135km/h | 6597m | -12.5m/s | -25.6°C | 6.1% | 441.21hPa | 2.6V | 00:00:00 | 00:00:00 | 00:00:00 | |
| AA1-15 | 2026-09-05 13:05:40 | 52.12798 | 12.54379 | 111° | 142km/h | 6597m | -12.5m/s | -25.6°C | 7% | 441.2hPa | 2.6V | 02:41:53 | 03:15:02 | 00:00:00 | |
| DO2SHX-10 | 2026-09-05 13:05:39 | 52.12812 | 12.54324 | 112° | 144km/h | 6609m | -12.6m/s | -25.6°C | 7.0% | 440.4hPa | 2.6V | 00:00:00 | 03:15:01 | 00:00:00 | |
| DM0DOS-11 | 2026-09-05 13:05:38 | 52.12893 | 12.53989 | 111° | 148km/h | 6685m | -12.8m/s | -26.1°C | 7.9% | 436hPa | 2.6V | 02:41:37 | 03:14:55 | 00:00:00 | |
| DO2SHX-10 | 2026-09-05 13:05:36 | 52.12852 | 12.54158 | 112° | 146km/h | 6647m | -13.4m/s | -25.8°C | 7.5% | 438.2hPa | 2.5V | 02:41:00 | 03:14:58 | 00:00:00 | |
| DL1XH1-15 | 2026-09-05 13:05:34 | 52.12948 | 12.53761 | 111° | 150km/h | 6735m | -12.8m/s | -26.4°C | 7.5% | 432.9hPa | 2.6V | 02:41:41 | 03:14:51 | 00:00:00 | |
| DL1XH-west | 2026-09-05 13:05:34 | 52.12879 | 12.54045 | 112° | 146km/h | 6673m | -13.4m/s | -26°C | 8.3% | 436.7hPa | 2.6V | 02:42:44 | 03:14:56 | 00:00:00 | |
| DF8AY | 2026-09-05 13:05:31 | 52.12920 | 12.53875 | 111° | 150km/h | 6710m | -13.3m/s | -26.2°C | 8.3% | 434.4hPa | 2.5V | 02:41:53 | 03:14:53 | 00:00:00 | |
| AA1-15 | 2026-09-05 13:05:29 | 52.12948 | 12.53761 | 112° | 150km/h | 6735m | -12.8m/s | -26.4°C | 8% | 432.9hPa | 2.6V | 02:41:53 | 03:14:51 | 00:00:00 | |
| DM0DOS-11 | 2026-09-05 13:05:28 | 52.13036 | 12.53414 | 113° | 153km/h | 6808m | -13.2m/s | -26.2°C | 6.6% | 428.6hPa | 2.6V | 02:41:47 | 03:14:45 | 00:00:00 | |
| DB0DAN | 2026-09-05 13:05:25 | 52.13006 | 12.53530 | 112° | 146km/h | 6784m | -12.9m/s | -26.2°C | 5.7% | 430.01hPa | 2.5V | 00:00:00 | 00:00:00 | 00:00:00 | |
| DL1XH-west | 2026-09-05 13:05:24 | 52.13021 | 12.53472 | 113° | 151km/h | 6796m | -12.3m/s | -26.2°C | 6.8% | 429.3hPa | 2.6V | 02:42:44 | 03:14:46 | 00:00:00 | |
| DF8AY | 2026-09-05 13:05:22 | 52.13067 | 12.53297 | 114° | 153km/h | 6833m | -13.2m/s | -26.3°C | 7.4% | 427.1hPa | 2.6V | 02:41:53 | 03:14:43 | 00:00:00 | |
| AA1-15 | 2026-09-05 13:05:18 | 52.13114 | 12.53123 | 114° | 153km/h | 6870m | -13m/s | -26.5°C | 8.1% | 424.9hPa | 2.6V | 02:41:53 | 03:14:40 | 00:00:00 | |
| DM0DOS-11 | 2026-09-05 13:05:18 | 52.13197 | 12.52835 | 115° | 153km/h | 6932m | -12.4m/s | -27°C | 8.2% | 421.3hPa | 2.6V | 02:41:57 | 03:14:35 | 00:00:00 | |
| DF8AY | 2026-09-05 13:05:15 | 52.13248 | 12.52664 | 116° | 153km/h | 6968m | -12.1m/s | -27.3°C | 9.5% | 419.2hPa | 2.5V | 02:42:44 | 03:14:32 | 00:00:00 | |
| DL1XH-west | 2026-09-05 13:05:14 | 52.13180 | 12.52892 | 115° | 153km/h | 6920m | -13.2m/s | -26.9°C | 9.2% | 422hPa | 2.6V | 02:42:44 | 03:14:36 | 00:00:00 | |
| DB0NH | 2026-09-05 13:05:14 | 52.13180 | 12.52892 | 116° | 155km/h | 6920m | -13.1m/s | -26.9°C | 8.2% | 421.9hPa | 2.6V | 00:00:00 | 03:14:36 | 00:00:00 | |
| DF8AY-15 | 2026-09-05 13:05:13 | 52.13197 | 12.52835 | 116° | 155km/h | 6932m | -12.4m/s | -26.9°C | 8.2% | 421.2hPa | 2.6V | 00:00:00 | 03:14:35 | 00:00:00 | |
| AM1SDL-15 | 2026-09-05 13:05:12 | 52.13214 | 12.52778 | 116° | 153km/h | 6944m | -12.6m/s | -27.0°C | 8.3% | 420.5hPa | 2.6V | 02:41:00 | 03:14:34 | 00:00:00 | |
| DB0DAN | 2026-09-05 13:05:10 | 52.13248 | 12.52664 | 116° | 146km/h | 6968m | -12.1m/s | -27.3°C | 7.6% | 419.2hPa | 2.5V | 00:00:00 | 00:00:00 | 00:00:00 | |
| AA1-15 | 2026-09-05 13:05:08 | 52.13282 | 12.52551 | 116° | 153km/h | 6992m | -12.4m/s | -27.5°C | 9.8% | 417.9hPa | 2.6V | 02:42:44 | 03:14:30 | 00:00:00 | |
| DF8AY | 2026-09-05 13:05:00 | 52.13422 | 12.52098 | 117° | 157km/h | 7088m | -12.8m/s | -28.2°C | 10.3% | 412.3hPa | 2.5V | 02:42:44 | 03:14:22 | 00:00:00 | |
| DL1XH-west | 2026-09-05 13:04:59 | 52.13440 | 12.52040 | 117° | 155km/h | 7100m | -12.9m/s | -28.3°C | 10.2% | 411.7hPa | 2.5V | 02:42:44 | 03:14:21 | 00:00:00 | |
| AA1-15 | 2026-09-05 13:04:59 | 52.13458 | 12.51984 | 118° | 155km/h | 7112m | -12.5m/s | -28.3°C | 10.2% | 410.9hPa | 2.5V | 02:42:44 | 03:14:20 | 00:00:00 | |
| DM0DOS-11 | 2026-09-05 13:04:59 | 52.13548 | 12.51699 | 117° | 157km/h | 7170m | -12.2m/s | -28.6°C | 8.7% | 407.5hPa | 2.5V | 02:42:17 | 03:14:15 | 00:00:00 | |
| DO2SHX-10 | 2026-09-05 13:04:57 | 52.13476 | 12.51927 | 118° | 155km/h | 7124m | -12.7m/s | -28.4°C | 9.0% | 410.2hPa | 2.6V | 02:42:00 | 03:14:19 | 00:00:00 | |
| DB0DAN | 2026-09-05 13:04:55 | 52.13512 | 12.51813 | 117° | 148km/h | 7148m | -12.3m/s | -28.6°C | 8% | 408.86hPa | 2.6V | 00:00:00 | 00:00:00 | 00:00:00 | |
| DF8AY | 2026-09-05 13:04:50 | 52.13604 | 12.51525 | 118° | 159km/h | 7205m | -12.3m/s | -28.9°C | 9.8% | 405.5hPa | 2.6V | 02:42:44 | 03:14:12 | 00:00:00 | |
| HSKMA3-T | 2026-09-05 13:04:48 | 52.13642 | 12.51409 | 118° | 161km/h | 7229m | -12.6m/s | -29.1°C | 10% | 404.3hPa | 2.5V | 02:47:50 | 03:14:10 | 00:00:00 | |
| AA1-15 | 2026-09-05 13:04:47 | 52.13661 | 12.51352 | 118° | 159km/h | 7241m | -12.4m/s | -29.1°C | 10.1% | 403.6hPa | 2.5V | 02:42:44 | 03:14:09 | 00:00:00 | |
| EDDB2-11 | 2026-09-05 13:04:45 | 52.13720 | 12.51178 | 118° | 161km/h | 7277m | -12.8m/s | -29.4°C | 8.3% | 401.6hPa | 2.6V | 00:00:00 | 00:00:00 | 00:00:00 | |
| SONDE2-11 | 2026-09-05 13:04:44 | 52.13720 | 12.51178 | 118° | 161km/h | 7277m | -12.8m/s | -29.4°C | 8.3% | 401.6hPa | 2.6V | 00:00:00 | 00:00:00 | 00:00:00 | |
| DF8AY | 2026-09-05 13:04:40 | 52.13800 | 12.50944 | 119° | 166km/h | 7326m | -13m/s | -29.7°C | 11.7% | 398.9hPa | 2.6V | 02:42:44 | 03:14:02 | 00:00:00 | |
| DB0DAN | 2026-09-05 13:04:40 | 52.13800 | 12.50944 | 119° | 159km/h | 7325m | -13m/s | -29.7°C | 9.1% | 398.91hPa | 2.6V | 00:00:00 | 00:00:00 | 00:00:00 | |
| DO2SHX-10 | 2026-09-05 13:04:39 | 52.13821 | 12.50884 | 120° | 166km/h | 7338m | -12.4m/s | -29.7°C | 10.4% | 398.2hPa | 2.6V | 02:42:00 | 03:14:01 | 00:00:00 | |
| DM0DOS-11 | 2026-09-05 13:04:38 | 52.13945 | 12.50527 | 119° | 166km/h | 7406m | -12m/s | -30.3°C | 11.6% | 394.4hPa | 2.5V | 02:42:37 | 03:13:55 | 00:00:00 | |
| DL1XH-west | 2026-09-05 13:04:38 | 52.13841 | 12.50825 | 120° | 166km/h | 7349m | -11.7m/s | -29.9°C | 12.2% | 397.6hPa | 2.6V | 02:42:44 | 03:14:00 | 00:00:00 | |
| AA1-15 | 2026-09-05 13:04:36 | 52.13883 | 12.50706 | 120° | 168km/h | 7371m | -12.1m/s | -30°C | 12.8% | 396.3hPa | 2.5V | 02:42:44 | 03:13:58 | 00:00:00 | |
| DF8AY | 2026-09-05 13:04:29 | 52.14029 | 12.50286 | 119° | 170km/h | 7453m | -11.8m/s | -30.7°C | 14.4% | 391.8hPa | 2.6V | 02:42:44 | 03:13:51 | 00:00:00 | |
| DM0DOS-11 | 2026-09-05 13:04:28 | 52.14157 | 12.49918 | 119° | 173km/h | 7523m | -12.2m/s | -31.1°C | 12.2% | 388hPa | 2.6V | 02:42:47 | 03:13:45 | 00:00:00 | |
| DL1XH-west | 2026-09-05 13:04:28 | 52.14072 | 12.50164 | 119° | 170km/h | 7476m | -12.1m/s | -30.8°C | 14.5% | 390.5hPa | 2.5V | 02:42:44 | 03:13:49 | 00:00:00 | |
| AA1-15 | 2026-09-05 13:04:26 | 52.14093 | 12.50102 | 119° | 170km/h | 7488m | -12.3m/s | -30.9°C | 14.5% | 389.9hPa | 2.5V | 02:42:44 | 03:13:48 | 00:00:00 | |
| DL1XH1-15 | 2026-09-05 13:04:25 | 52.14178 | 12.49856 | 119° | 173km/h | 7534m | -11.7m/s | -31.1°C | 12% | 387.3hPa | 2.5V | 02:42:48 | 03:13:44 | 00:00:00 | |
| DB0DAN | 2026-09-05 13:04:25 | 52.14114 | 12.50041 | 119° | 162km/h | 7499m | -12.2m/s | -31°C | 11.2% | 389.24hPa | 2.6V | 00:00:00 | 00:00:00 | 00:00:00 | |
| DF8AY | 2026-09-05 13:04:20 | 52.14243 | 12.49669 | 120° | 175km/h | 7568m | -12.2m/s | -31.4°C | 12.4% | 385.5hPa | 2.6V | 02:43:35 | 03:13:41 | 00:00:00 | |
| DM0DOS-11 | 2026-09-05 13:04:18 | 52.14376 | 12.49293 | 120° | 177km/h | 7636m | -12.3m/s | -31.5°C | 7.1% | 381.8hPa | 2.6V | 02:42:57 | 03:13:35 | 00:00:00 | |
| DL1XH-west | 2026-09-05 13:04:16 | 52.14309 | 12.49481 | 120° | 175km/h | 7602m | -12.1m/s | -31.5°C | 9% | 383.7hPa | 2.5V | 02:43:35 | 03:13:38 | 00:00:00 | |
| AA1-15 | 2026-09-05 13:04:15 | 52.14331 | 12.49418 | 120° | 175km/h | 7613m | -11.7m/s | -31.5°C | 7.9% | 383hPa | 2.5V | 02:43:35 | 03:13:37 | 00:00:00 | |
| DO2SHX-10 | 2026-09-05 13:04:15 | 52.14331 | 12.49418 | 121° | 177km/h | 7614m | -11.7m/s | -31.5°C | 7.5% | 383.0hPa | 2.6V | 00:00:00 | 03:13:37 | 00:00:00 | |
| DB0NH | 2026-09-05 13:04:14 | 52.14353 | 12.49356 | 121° | 186km/h | 7625m | -12.3m/s | -31.5°C | 7.2% | 382.4hPa | 2.6V | 02:42:00 | 03:13:36 | 00:00:00 | |
| DL1XH1-15 | 2026-09-05 13:04:13 | 52.14399 | 12.49230 | 120° | 177km/h | 7648m | -12m/s | -31.6°C | 7.1% | 381.1hPa | 2.5V | 02:42:58 | 03:13:34 | 00:00:00 | |
| DF8AY-15 | 2026-09-05 13:04:13 | 52.14376 | 12.49293 | 121° | 184km/h | 7637m | -12.3m/s | -31.5°C | 7.1% | 381.7hPa | 2.5V | 00:00:00 | 03:13:35 | 00:00:00 | |
| DO2SHX-10 | 2026-09-05 13:04:12 | 52.14398 | 12.49230 | 121° | 181km/h | 7648m | -12.0m/s | -31.5°C | 7.1% | 381.1hPa | 2.5V | 02:42:00 | 03:13:34 | 00:00:00 | |
| DB0DAN | 2026-09-05 13:04:10 | 52.14445 | 12.49103 | 120° | 173km/h | 7671m | -12.4m/s | -31.7°C | 6.1% | 379.91hPa | 2.6V | 00:00:00 | 00:00:00 | 00:00:00 | |
| DF8AY | 2026-09-05 13:04:08 | 52.14492 | 12.48975 | 121° | 183km/h | 7694m | -12.1m/s | -31.8°C | 7.4% | 378.7hPa | 2.5V | 02:43:35 | 03:13:30 | 00:00:00 | |
| DL1XH-west | 2026-09-05 13:04:05 | 52.14563 | 12.48782 | 121° | 183km/h | 7728m | -12.1m/s | -32°C | 7.7% | 376.9hPa | 2.6V | 02:43:35 | 03:13:27 | 00:00:00 | |
| AA1-15 | 2026-09-05 13:04:04 | 52.14587 | 12.48717 | 121° | 184km/h | 7739m | -12.6m/s | -32°C | 7.8% | 376.3hPa | 2.6V | 02:43:35 | 03:13:26 | 00:00:00 | |
| DL1XH1-15 | 2026-09-05 13:04:03 | 52.14636 | 12.48587 | 120° | 188km/h | 7764m | -13.1m/s | -32°C | 7.6% | 375hPa | 2.5V | 02:43:08 | 03:13:24 | 00:00:00 | |
| DF8AY | 2026-09-05 13:03:58 | 52.14733 | 12.48324 | 121° | 186km/h | 7811m | -11.8m/s | -32.2°C | 9% | 372.5hPa | 2.6V | 02:43:35 | 03:13:20 | 00:00:00 | |
| DO2SHX-10 | 2026-09-05 13:03:57 | 52.14758 | 12.48259 | 122° | 188km/h | 7823m | -12.0m/s | -32.3°C | 8.3% | 371.8hPa | 2.6V | 00:00:00 | 03:13:19 | 00:00:00 | |
| DM0DOS-11 | 2026-09-05 13:03:56 | 52.14855 | 12.47995 | 120° | 186km/h | 7868m | -12.5m/s | -32.6°C | 8.6% | 369.4hPa | 2.6V | 02:43:17 | 03:13:15 | 00:00:00 | |
| DL1XH-west | 2026-09-05 13:03:55 | 52.14807 | 12.48128 | 121° | 188km/h | 7846m | -12m/s | -32.5°C | 9.4% | 370.6hPa | 2.5V | 02:43:35 | 03:13:17 | 00:00:00 | |
| DB0DAN | 2026-09-05 13:03:55 | 52.14807 | 12.48128 | 121° | 179km/h | 7846m | -12m/s | -32.5°C | 7.3% | 370.63hPa | 2.5V | 00:00:00 | 00:00:00 | 00:00:00 | |
| AA1-15 | 2026-09-05 13:03:54 | 52.14831 | 12.48061 | 120° | 188km/h | 7857m | -12.2m/s | -32.6°C | 9.5% | 370hPa | 2.6V | 02:43:35 | 03:13:16 | 00:00:00 | |
| DO2SHX-10 | 2026-09-05 13:03:54 | 52.14831 | 12.48061 | 121° | 186km/h | 7857m | -12.2m/s | -32.5°C | 8.5% | 370.0hPa | 2.6V | 02:43:00 | 03:13:16 | 00:00:00 | |
| DF8AY-15 | 2026-09-05 13:03:53 | 52.14855 | 12.47994 | 121° | 193km/h | 7868m | -12.5m/s | -32.6°C | 8.6% | 369.4hPa | 2.6V | 02:43:00 | 03:13:15 | 00:00:00 | |
| DO2SHX-10 | 2026-09-05 13:03:51 | 52.14903 | 12.47863 | 121° | 188km/h | 7892m | -12.2m/s | -32.8°C | 8.6% | 368.1hPa | 2.6V | 00:00:00 | 03:13:13 | 00:00:00 | |
| DM0DOS-11 | 2026-09-05 13:03:48 | 52.15099 | 12.47322 | 120° | 193km/h | 7985m | -12m/s | -33.3°C | 9.1% | 363.3hPa | 2.6V | 02:43:27 | 03:13:05 | 00:00:00 | |
| DF8AY | 2026-09-05 13:03:47 | 52.15000 | 12.47595 | 120° | 192km/h | 7939m | -12.7m/s | -33°C | 10% | 365.7hPa | 2.6V | 02:43:35 | 03:13:09 | 00:00:00 | |
| DL1XH-west | 2026-09-05 13:03:45 | 52.15049 | 12.47459 | 121° | 193km/h | 7963m | -12.2m/s | -33.2°C | 10.2% | 364.5hPa | 2.5V | 02:43:35 | 03:13:07 | 00:00:00 | |
| DJ2DS-15 | 2026-09-05 13:03:44 | 52.15074 | 12.47391 | 120° | 192km/h | 7974m | -11.9m/s | -33.3°C | 7.9% | 363.9hPa | 2.6V | 00:00:00 | 00:00:00 | 00:00:00 | |
| AA1-15 | 2026-09-05 13:03:43 | 52.15099 | 12.47322 | 120° | 193km/h | 7985m | -12m/s | -33.3°C | 10.3% | 363.3hPa | 2.6V | 02:43:35 | 03:13:05 | 00:00:00 | |
| DL1XH1-15 | 2026-09-05 13:03:43 | 52.15123 | 12.47254 | 120° | 193km/h | 7997m | -12.8m/s | -33.4°C | 9.2% | 362.7hPa | 2.6V | 02:43:28 | 03:13:04 | 00:00:00 | |
| EDDB2-11 | 2026-09-05 13:03:43 | 52.15123 | 12.47254 | 120° | 192km/h | 7997m | -12.8m/s | -33.4°C | 7.9% | 362.7hPa | 2.5V | 00:00:00 | 00:00:00 | 00:00:00 | |
| DO2SHX-10 | 2026-09-05 13:03:42 | 52.15123 | 12.47254 | 121° | 195km/h | 7997m | -12.8m/s | -33.3°C | 9.2% | 362.6hPa | 2.5V | 00:00:00 | 03:13:04 | 00:00:00 | |
| DB0DAN | 2026-09-05 13:03:40 | 52.15173 | 12.47116 | 121° | 188km/h | 8021m | -12.2m/s | -33.5°C | 8% | 361.45hPa | 2.5V | 00:00:00 | 00:00:00 | 00:00:00 | |
| DF8AY | 2026-09-05 13:03:36 | 52.15273 | 12.46836 | 121° | 197km/h | 8070m | -13.2m/s | -33.7°C | 11.1% | 359hPa | 2.5V | 02:43:35 | 03:12:58 | 00:00:00 | |
| DO2SHX-10 | 2026-09-05 13:03:36 | 52.15273 | 12.46836 | 121° | 197km/h | 8070m | -13.2m/s | -33.7°C | 9.7% | 359.0hPa | 2.5V | 02:43:00 | 03:12:58 | 00:00:00 | |
| DH0BRO-15 | 2026-09-05 13:03:34 | 52.15299 | 12.46766 | 122° | 197km/h | 8082m | -12.0m/s | -33.8°C | 8.6% | 358.4hPa | 2.5V | 02:43:00 | 00:00:00 | 00:00:00 | |
| DL1XH-west | 2026-09-05 13:03:34 | 52.15324 | 12.46696 | 121° | 195km/h | 8094m | -13m/s | -33.9°C | 11.7% | 357.8hPa | 2.6V | 02:44:26 | 03:12:56 | 00:00:00 | |
| DM0DOS-11 | 2026-09-05 13:03:33 | 52.15350 | 12.46628 | 121° | 195km/h | 8106m | -13.2m/s | -34°C | 10.3% | 357.2hPa | 2.5V | 02:43:37 | 03:12:55 | 00:00:00 | |
| DL1XH1-15 | 2026-09-05 13:03:33 | 52.15375 | 12.46558 | 121° | 199km/h | 8118m | -12.7m/s | -34.1°C | 10.5% | 356.5hPa | 2.5V | 02:43:38 | 03:12:54 | 00:00:00 | |
| AA1-15 | 2026-09-05 13:03:32 | 52.15375 | 12.46558 | 121° | 199km/h | 8118m | -12.7m/s | -34.1°C | 12.2% | 356.5hPa | 2.5V | 02:44:26 | 03:12:54 | 00:00:00 | |
| TFSTFS | 2026-09-05 13:03:31 | 52.15375 | 12.46558 | 122° | 199km/h | 8119m | -12.7m/s | -34.1°C | 9.2% | 356.5hPa | 2.6V | 00:00:00 | 00:00:00 | 00:00:00 | |
| DO2SHX-10 | 2026-09-05 13:03:30 | 52.15428 | 12.46418 | 122° | 201km/h | 8143m | -13.3m/s | -34.2°C | 10.9% | 355.2hPa | 2.6V | 00:00:00 | 03:12:52 | 00:00:00 | |
| DM0DOS-11 | 2026-09-05 13:03:28 | 52.15610 | 12.45926 | 120° | 201km/h | 8230m | -12.5m/s | -34.9°C | 10.4% | 350.9hPa | 2.6V | 02:43:47 | 03:12:45 | 00:00:00 | |
| DF8AY | 2026-09-05 13:03:25 | 52.15558 | 12.46068 | 121° | 201km/h | 8205m | -13.3m/s | -34.7°C | 12.2% | 352.1hPa | 2.6V | 02:44:26 | 03:12:47 | 00:00:00 | |
| DB0DAN | 2026-09-05 13:03:25 | 52.15558 | 12.46068 | 121° | 192km/h | 8205m | -13.3m/s | -34.7°C | 9.2% | 352.15hPa | 2.6V | 00:00:00 | 00:00:00 | 00:00:00 | |
| DL1XH-west | 2026-09-05 13:03:23 | 52.15610 | 12.45926 | 121° | 201km/h | 8230m | -12.5m/s | -34.9°C | 11.8% | 350.9hPa | 2.6V | 02:44:26 | 03:12:45 | 00:00:00 | |
| DL1XH1-15 | 2026-09-05 13:03:23 | 52.15636 | 12.45854 | 120° | 201km/h | 8242m | -13m/s | -35°C | 10.4% | 350.3hPa | 2.5V | 02:43:48 | 03:12:44 | 00:00:00 | |
| AA1-15 | 2026-09-05 13:03:22 | 52.15636 | 12.45854 | 121° | 201km/h | 8242m | -13m/s | -35°C | 11.8% | 350.3hPa | 2.5V | 02:44:26 | 03:12:44 | 00:00:00 | |
| DM0DOS-11 | 2026-09-05 13:03:18 | 52.15871 | 12.45210 | 120° | 203km/h | 8351m | -12.7m/s | -35.7°C | 13.7% | 344.9hPa | 2.6V | 02:43:57 | 03:12:35 | 00:00:00 | |
| DO2SHX-10 | 2026-09-05 13:03:18 | 52.15740 | 12.45570 | 121° | 204km/h | 8291m | -12.2m/s | -35.3°C | 11.6% | 347.8hPa | 2.6V | 02:43:00 | 03:12:40 | 00:00:00 | |
| DL1XH1-15 | 2026-09-05 13:03:17 | 52.15897 | 12.45138 | 120° | 204km/h | 8364m | -13.3m/s | -35.7°C | 13.7% | 344.3hPa | 2.6V | 02:43:58 | 03:12:34 | 00:00:00 | |
| DF8AY | 2026-09-05 13:03:15 | 52.15818 | 12.45354 | 121° | 204km/h | 8327m | -13.2m/s | -35.6°C | 15.5% | 346.1hPa | 2.5V | 02:44:26 | 03:12:37 | 00:00:00 | |
| AA1-15 | 2026-09-05 13:03:12 | 52.15897 | 12.45138 | 121° | 204km/h | 8364m | -13.3m/s | -35.7°C | 16.1% | 344.3hPa | 2.6V | 02:44:26 | 03:12:34 | 00:00:00 | |
| DO2SHX-10 | 2026-09-05 13:03:12 | 52.15897 | 12.45138 | 121° | 204km/h | 8364m | -13.2m/s | -35.7°C | 13.7% | 344.3hPa | 2.5V | 00:00:00 | 03:12:34 | 00:00:00 | |
| DB0DAN | 2026-09-05 13:03:10 | 52.15950 | 12.44994 | 121° | 195km/h | 8389m | -12.8m/s | -35.9°C | 12.7% | 343.08hPa | 2.5V | 00:00:00 | 00:00:00 | 00:00:00 | |
| DO2SHX-10 | 2026-09-05 13:03:09 | 52.15976 | 12.44922 | 121° | 204km/h | 8401m | -13.2m/s | -35.9°C | 14.9% | 342.4hPa | 2.5V | 02:44:00 | 03:12:31 | 00:00:00 | |
| DM0DOS-11 | 2026-09-05 13:03:08 | 52.16138 | 12.44494 | 122° | 204km/h | 8474m | -12.4m/s | -36.4°C | 14.2% | 338.9hPa | 2.5V | 02:44:07 | 03:12:25 | 00:00:00 | |
| DF8AY | 2026-09-05 13:03:04 | 52.16111 | 12.44565 | 122° | 204km/h | 8462m | -12.2m/s | -36.3°C | 17% | 339.4hPa | 2.5V | 02:44:26 | 03:12:26 | 00:00:00 | |
| DL1XH1-15 | 2026-09-05 13:03:03 | 52.16166 | 12.44422 | 121° | 206km/h | 8486m | -13m/s | -36.5°C | 14.2% | 338.4hPa | 2.5V | 02:44:08 | 03:12:24 | 00:00:00 | |
| AA1-15 | 2026-09-05 13:03:02 | 52.16166 | 12.44422 | 122° | 206km/h | 8486m | -13m/s | -36.5°C | 16.6% | 338.4hPa | 2.5V | 02:44:26 | 03:12:24 | 00:00:00 | |
| DL2RXE-15 | 2026-09-05 13:03:02 | 52.16166 | 12.44422 | 123° | 206km/h | 8486m | -13.0m/s | -36.5°C | 12.4% | 338.4hPa | 2.6V | 00:00:00 | 00:00:00 | 00:00:00 | |
| DO2SHX-10 | 2026-09-05 13:03:00 | 52.16221 | 12.44280 | 123° | 204km/h | 8509m | -12.3m/s | -36.6°C | 14.5% | 337.1hPa | 2.6V | 02:44:00 | 03:12:22 | 00:00:00 | |
| DM0DOS-11 | 2026-09-05 13:02:58 | 52.16418 | 12.43786 | 122° | 206km/h | 8594m | -12.9m/s | -37.2°C | 16.1% | 333.2hPa | 2.6V | 02:44:17 | 03:12:15 | 00:00:00 | |
| DO2SHX-10 | 2026-09-05 13:02:57 | 52.16305 | 12.44068 | 124° | 204km/h | 8546m | -12.5m/s | -36.9°C | 15.6% | 335.4hPa | 2.6V | 00:00:00 | 03:12:19 | 00:00:00 | |
| DB0DAN | 2026-09-05 13:02:55 | 52.16361 | 12.43927 | 123° | 195km/h | 8570m | -11.9m/s | -37.1°C | 14.1% | 334.2hPa | 2.6V | 00:00:00 | 00:00:00 | 00:00:00 | |
| DF8AY | 2026-09-05 13:02:54 | 52.16390 | 12.43857 | 123° | 204km/h | 8582m | -12.1m/s | -37.2°C | 18.7% | 333.7hPa | 2.6V | 02:44:26 | 03:12:16 | 00:00:00 | |
| DL1XH1-15 | 2026-09-05 13:02:54 | 52.16446 | 12.43714 | 123° | 206km/h | 8606m | -13.3m/s | -37.3°C | 15.9% | 332.7hPa | 2.5V | 02:44:18 | 03:12:14 | 00:00:00 | |
| DL1XH-west | 2026-09-05 13:02:51 | 52.16475 | 12.43643 | 123° | 206km/h | 8619m | -13.3m/s | -37.4°C | 18.6% | 332.1hPa | 2.5V | 02:44:26 | 03:12:13 | 00:00:00 | |
| DO2SHX-10 | 2026-09-05 13:02:51 | 52.16475 | 12.43643 | 124° | 206km/h | 8619m | -13.2m/s | -37.3°C | 15.9% | 332.0hPa | 2.5V | 02:44:00 | 03:12:13 | 00:00:00 | |
| DM0DOS-11 | 2026-09-05 13:02:48 | 52.16703 | 12.43071 | 122° | 206km/h | 8721m | -12.8m/s | -38°C | 15.6% | 327.2hPa | 2.6V | 02:44:27 | 03:12:05 | 00:00:00 | |
| DF8AY | 2026-09-05 13:02:44 | 52.16675 | 12.43143 | 123° | 206km/h | 8709m | -12.2m/s | -37.9°C | 18.3% | 327.9hPa | 2.6V | 02:44:26 | 03:12:06 | 00:00:00 | |
| DB0NH | 2026-09-05 13:02:44 | 52.16675 | 12.43142 | 123° | 208km/h | 8709m | -12.2m/s | -37.9°C | 15.7% | 327.9hPa | 2.6V | 02:44:00 | 03:12:06 | 00:00:00 | |
| DL1XH1-15 | 2026-09-05 13:02:43 | 52.16731 | 12.42998 | 122° | 210km/h | 8733m | -11.6m/s | -38.1°C | 15.7% | 326.7hPa | 2.6V | 02:44:28 | 03:12:04 | 00:00:00 | |
| DL1XH-west | 2026-09-05 13:02:40 | 52.16788 | 12.42854 | 123° | 208km/h | 8757m | -11.2m/s | -38.3°C | 18.6% | 325.6hPa | 2.5V | 02:45:17 | 03:12:02 | 00:00:00 | |
| DB0DAN | 2026-09-05 13:02:40 | 52.16788 | 12.42854 | 123° | 197km/h | 8757m | -11.2m/s | -38.3°C | 13.9% | 325.56hPa | 2.5V | 00:00:00 | 00:00:00 | 00:00:00 | |
| AA1-15 | 2026-09-05 13:02:39 | 52.16816 | 12.42782 | 123° | 210km/h | 8768m | -11.4m/s | -38.4°C | 18.6% | 325.1hPa | 2.5V | 02:45:17 | 03:12:01 | 00:00:00 | |
| DO2SHX-10 | 2026-09-05 13:02:39 | 52.16816 | 12.42782 | 123° | 208km/h | 8768m | -11.3m/s | -38.3°C | 15.9% | 325.0hPa | 2.5V | 00:00:00 | 03:12:01 | 00:00:00 | |
| DM0DOS-11 | 2026-09-05 13:02:38 | 52.16989 | 12.42350 | 123° | 208km/h | 8831m | -7.9m/s | -38.9°C | 16.9% | 322hPa | 2.5V | 02:44:37 | 03:11:55 | 00:00:00 | |
| TFSTFS | 2026-09-05 13:02:38 | 52.16845 | 12.42710 | 124° | 208km/h | 8779m | -10.9m/s | -38.5°C | 13.9% | 324.5hPa | 2.6V | 02:45:00 | 00:00:00 | 00:00:00 | |
| DL1XH1-15 | 2026-09-05 13:02:37 | 52.17018 | 12.42278 | 123° | 208km/h | 8839m | -6.9m/s | -39°C | 17% | 321.6hPa | 2.6V | 02:44:38 | 03:11:54 | 00:00:00 | |
| DF8AY | 2026-09-05 13:02:33 | 52.16989 | 12.42350 | 123° | 208km/h | 8831m | -7.9m/s | -38.9°C | 19.1% | 322hPa | 2.5V | 02:45:17 | 03:11:55 | 00:00:00 | |
| AA1-15 | 2026-09-05 13:02:29 | 52.17105 | 12.42063 | 123° | 208km/h | 8862m | -7.7m/s | -39.2°C | 19.4% | 320.5hPa | 2.6V | 02:45:17 | 03:11:51 | 00:00:00 | |
| DL1XH1-15 | 2026-09-05 13:02:27 | 52.17307 | 12.41561 | 123° | 208km/h | 8913m | -8.2m/s | -39.6°C | 17% | 318.3hPa | 2.6V | 02:44:48 | 03:11:44 | 00:00:00 | |
| DO2SHX-10 | 2026-09-05 13:02:27 | 52.17162 | 12.41919 | 124° | 208km/h | 8877m | -7.0m/s | -39.3°C | 17.0% | 319.8hPa | 2.6V | 00:00:00 | 03:11:49 | 00:00:00 | |
| DB0DAN | 2026-09-05 13:02:25 | 52.17220 | 12.41776 | 123° | 199km/h | 8891m | -7.1m/s | -39.5°C | 14.8% | 319.18hPa | 2.6V | 00:00:00 | 00:00:00 | 00:00:00 | |
| DF8AY | 2026-09-05 13:02:23 | 52.17307 | 12.41561 | 123° | 208km/h | 8913m | -8.2m/s | -39.6°C | 19.2% | 318.3hPa | 2.6V | 02:45:17 | 03:11:44 | 00:00:00 | |
| AA1-15 | 2026-09-05 13:02:18 | 52.17422 | 12.41273 | 123° | 208km/h | 8942m | -6.7m/s | -39.8°C | 18.9% | 316.8hPa | 2.6V | 02:45:17 | 03:11:40 | 00:00:00 | |
| DF8AY | 2026-09-05 13:02:12 | 52.17593 | 12.40838 | 123° | 212km/h | 8982m | -6.6m/s | -40.1°C | 19.6% | 315hPa | 2.6V | 02:45:17 | 03:11:34 | 00:00:00 | |
| DO2SHX-10 | 2026-09-05 13:02:12 | 52.17593 | 12.40838 | 123° | 212km/h | 8982m | -6.6m/s | -40.0°C | 17.7% | 314.9hPa | 2.5V | 00:00:00 | 03:11:34 | 00:00:00 | |
| DB0DAN | 2026-09-05 13:02:10 | 52.17651 | 12.40692 | 123° | 203km/h | 8996m | -6.5m/s | -40.2°C | 15.7% | 314.3hPa | 2.5V | 00:00:00 | 00:00:00 | 00:00:00 | |
| DL1XH-west | 2026-09-05 13:02:08 | 52.17709 | 12.40545 | 123° | 212km/h | 9009m | -6.6m/s | -40.4°C | 20.5% | 313.7hPa | 2.6V | 02:45:17 | 03:11:30 | 00:00:00 | |
| AA1-15 | 2026-09-05 13:02:07 | 52.17738 | 12.40471 | 123° | 214km/h | 9015m | -6.7m/s | -40.4°C | 20.7% | 313.4hPa | 2.6V | 02:45:17 | 03:11:29 | 00:00:00 | |
| DF8AY | 2026-09-05 13:02:01 | 52.17914 | 12.40026 | 123° | 215km/h | 9056m | -6.9m/s | -40.6°C | 22.2% | 311.6hPa | 2.6V | 02:45:17 | 03:11:23 | 00:00:00 | |
| DL1XH-west | 2026-09-05 13:01:57 | 52.18033 | 12.39729 | 123° | 217km/h | 9083m | -6.9m/s | -40.7°C | 22.5% | 310.3hPa | 2.6V | 02:45:17 | 03:11:19 | 00:00:00 | |
| AA1-15 | 2026-09-05 13:01:56 | 52.18063 | 12.39654 | 123° | 217km/h | 9090m | -7.1m/s | -40.8°C | 22.6% | 310.1hPa | 2.6V | 02:45:17 | 03:11:18 | 00:00:00 | |
| DL1XH1-15 | 2026-09-05 13:01:56 | 52.18216 | 12.39282 | 123° | 219km/h | 9125m | -7.1m/s | -40.9°C | 21.4% | 308.4hPa | 2.6V | 02:45:19 | 03:11:13 | 00:00:00 | |
| DB0DAN | 2026-09-05 13:01:55 | 52.18094 | 12.39580 | 124° | 206km/h | 9097m | -6.8m/s | -40.8°C | 18.2% | 309.71hPa | 2.6V | 00:00:00 | 00:00:00 | 00:00:00 | |
| DF8AY | 2026-09-05 13:01:50 | 52.18246 | 12.39207 | 124° | 217km/h | 9132m | -7m/s | -41°C | 23.8% | 308.1hPa | 2.6V | 02:46:08 | 03:11:12 | 00:00:00 | |
| DL1XH-west | 2026-09-05 13:01:47 | 52.18338 | 12.38983 | 124° | 219km/h | 9156m | -9.8m/s | -41.2°C | 23.8% | 307.1hPa | 2.6V | 02:46:08 | 03:11:09 | 00:00:00 | |
| DL1XH1-15 | 2026-09-05 13:01:46 | 52.18527 | 12.38537 | 125° | 219km/h | 9201m | -7m/s | -41.5°C | 21.5% | 305hPa | 2.6V | 02:45:29 | 03:11:03 | 00:00:00 | |
| AA1-15 | 2026-09-05 13:01:45 | 52.18400 | 12.38834 | 124° | 219km/h | 9173m | -7.7m/s | -41.4°C | 23.9% | 306.3hPa | 2.5V | 02:46:08 | 03:11:07 | 00:00:00 | |
| DB0NH | 2026-09-05 13:01:44 | 52.18432 | 12.38760 | 125° | 221km/h | 9180m | -6.8m/s | -41.4°C | 21.6% | 305.9hPa | 2.5V | 00:00:00 | 03:11:06 | 00:00:00 | |
| DO2SHX-10 | 2026-09-05 13:01:43 | 52.18463 | 12.38685 | 125° | 219km/h | 9187m | -7.1m/s | -41.4°C | 21.5% | 305.6hPa | 2.5V | 00:00:00 | 03:11:05 | 00:00:00 | |
| DB0DAN | 2026-09-05 13:01:40 | 52.18559 | 12.38463 | 125° | 208km/h | 9208m | -6.5m/s | -41.6°C | 18.9% | 304.64hPa | 2.5V | 00:00:00 | 00:00:00 | 00:00:00 | |
| DF8AY | 2026-09-05 13:01:40 | 52.18559 | 12.38463 | 125° | 219km/h | 9208m | -6.5m/s | -41.6°C | 24% | 304.6hPa | 2.5V | 02:46:08 | 03:11:02 | 00:00:00 | |
| DO2SHX-10 | 2026-09-05 13:01:40 | 52.18558 | 12.38463 | 126° | 219km/h | 9208m | -6.5m/s | -41.6°C | 21.5% | 304.6hPa | 2.6V | 00:00:00 | 03:11:02 | 00:00:00 | |
| SONDE2-11 | 2026-09-05 13:01:38 | 52.18655 | 12.38244 | 125° | 217km/h | 9228m | -6.5m/s | -41.8°C | 18.9% | 303.8hPa | 2.6V | 00:00:00 | 00:00:00 | 00:00:00 | |
| DM0DOS-11 | 2026-09-05 13:01:37 | 52.18783 | 12.37951 | 125° | 219km/h | 9255m | -7.8m/s | -42°C | 20.8% | 302.6hPa | 2.6V | 02:45:37 | 03:10:55 | 00:00:00 | |
| DL1XH-west | 2026-09-05 13:01:37 | 52.18655 | 12.38244 | 126° | 217km/h | 9228m | -6.5m/s | -41.8°C | 24.2% | 303.8hPa | 2.6V | 02:46:08 | 03:10:59 | 00:00:00 | |
| DL1XH1-15 | 2026-09-05 13:01:36 | 52.18847 | 12.37805 | 125° | 219km/h | 9270m | -6.7m/s | -42.1°C | 21.1% | 301.9hPa | 2.6V | 02:45:39 | 03:10:53 | 00:00:00 | |
| AA1-15 | 2026-09-05 13:01:34 | 52.18751 | 12.38025 | 125° | 219km/h | 9248m | -6.7m/s | -41.9°C | 23.9% | 302.9hPa | 2.6V | 02:46:08 | 03:10:56 | 00:00:00 | |
| DF8AY | 2026-09-05 13:01:29 | 52.18910 | 12.37658 | 125° | 219km/h | 9284m | -6.9m/s | -42.1°C | 23.5% | 301.3hPa | 2.6V | 02:46:08 | 03:10:51 | 00:00:00 | |
| DO2SHX-10 | 2026-09-05 13:01:28 | 52.18942 | 12.37584 | 125° | 221km/h | 9291m | -7.3m/s | -42.1°C | 21.3% | 300.9hPa | 2.6V | 02:45:00 | 03:10:50 | 00:00:00 | |
| DM0DOS-11 | 2026-09-05 13:01:27 | 52.19099 | 12.37207 | 123° | 223km/h | 9327m | -7.1m/s | -42.2°C | 20.5% | 299.4hPa | 2.6V | 02:45:47 | 03:10:45 | 00:00:00 | |
| DL1XH-west | 2026-09-05 13:01:27 | 52.18973 | 12.37509 | 124° | 219km/h | 9298m | -7.1m/s | -42.2°C | 23.5% | 300.7hPa | 2.6V | 02:46:08 | 03:10:49 | 00:00:00 | |
| AA1-15 | 2026-09-05 13:01:23 | 52.19099 | 12.37207 | 124° | 223km/h | 9327m | -7.1m/s | -42.2°C | 22.7% | 299.4hPa | 2.6V | 02:46:08 | 03:10:45 | 00:00:00 | |
| DF8AY | 2026-09-05 13:01:19 | 52.19224 | 12.36900 | 123° | 224km/h | 9357m | -7.5m/s | -42.3°C | 21.7% | 298.1hPa | 2.6V | 02:46:08 | 03:10:41 | 00:00:00 | |
| DO2SHX-10 | 2026-09-05 13:01:19 | 52.19224 | 12.36900 | 124° | 224km/h | 9358m | -7.5m/s | -42.3°C | 19.5% | 298.0hPa | 2.6V | 02:45:00 | 03:10:41 | 00:00:00 | |
| DC4HF-4 | 2026-09-05 13:01:18 | 52.19286 | 12.36746 | 123° | 223km/h | 9373m | -7.7m/s | -42.5°C | 16.6% | 297.4hPa | 2.6V | 00:00:00 | 00:00:00 | 00:00:00 | |
| DM0DOS-11 | 2026-09-05 13:01:17 | 52.19410 | 12.36438 | 122° | 224km/h | 9405m | -8.1m/s | -42.7°C | 18% | 296hPa | 2.6V | 02:45:57 | 03:10:35 | 00:00:00 | |
| DL1XH-west | 2026-09-05 13:01:16 | 52.19317 | 12.36669 | 123° | 224km/h | 9381m | -8.1m/s | -42.5°C | 21% | 297.1hPa | 2.6V | 02:46:08 | 03:10:38 | 00:00:00 | |
| DO2SHX-10 | 2026-09-05 13:01:16 | 52.19317 | 12.36669 | 124° | 224km/h | 9381m | -8.0m/s | -42.5°C | 18.9% | 297.0hPa | 2.6V | 00:00:00 | 03:10:38 | 00:00:00 | |
| DB0NH | 2026-09-05 13:01:14 | 52.19379 | 12.36515 | 124° | 226km/h | 9397m | -8.1m/s | -42.6°C | 18.3% | 296.3hPa | 2.6V | 02:45:00 | 03:10:36 | 00:00:00 | |
| 13BRC | 2026-09-05 13:01:13 | 52.19379 | 12.36515 | 124° | 224km/h | 9397m | -8.2m/s | -42.6°C | 15.8% | 296.4hPa | 2.6V | 02:46:00 | 00:00:00 | 00:00:00 | |
| AM1SDL-15 | 2026-09-05 13:01:12 | 52.19441 | 12.36360 | 123° | 224km/h | 9413m | -7.9m/s | -42.7°C | 17.7% | 295.6hPa | 2.6V | 00:00:00 | 03:10:34 | 00:00:00 | |
| AA1-15 | 2026-09-05 13:01:12 | 52.19441 | 12.36360 | 122° | 223km/h | 9413m | -7.9m/s | -42.7°C | 19.5% | 295.6hPa | 2.6V | 02:46:08 | 03:10:34 | 00:00:00 | |
| DB0DAN | 2026-09-05 13:01:10 | 52.19501 | 12.36205 | 122° | 214km/h | 9428m | -7.4m/s | -42.7°C | 14.4% | 294.96hPa | 2.6V | 00:00:00 | 00:00:00 | 00:00:00 | |
| DF8AY | 2026-09-05 13:01:08 | 52.19561 | 12.36048 | 122° | 224km/h | 9444m | -7.8m/s | -42.7°C | 17.4% | 294.3hPa | 2.6V | 02:46:08 | 03:10:30 | 00:00:00 | |
| DL1XH-west | 2026-09-05 13:01:05 | 52.19650 | 12.35812 | 121° | 224km/h | 9465m | -6.9m/s | -42.7°C | 16.2% | 293.3hPa | 2.6V | 02:46:08 | 03:10:27 | 00:00:00 | |
| AA1-15 | 2026-09-05 13:01:02 | 52.19739 | 12.35575 | 121° | 226km/h | 9488m | -7.6m/s | -42.5°C | 15.5% | 292.4hPa | 2.6V | 02:46:08 | 03:10:24 | 00:00:00 | |
| DF8AY | 2026-09-05 13:00:58 | 52.19858 | 12.35256 | 121° | 228km/h | 9519m | -9.7m/s | -42.7°C | 16.6% | 291.1hPa | 2.6V | 02:46:59 | 03:10:20 | 00:00:00 | |
| DL1XH-west | 2026-09-05 13:00:55 | 52.19947 | 12.35015 | 121° | 228km/h | 9543m | -7.3m/s | -42.8°C | 17.8% | 289.9hPa | 2.6V | 02:46:59 | 03:10:17 | 00:00:00 | |
| DO2SHX-10 | 2026-09-05 13:00:55 | 52.19947 | 12.35015 | 122° | 228km/h | 9543m | -7.3m/s | -42.8°C | 16.0% | 289.9hPa | 2.6V | 00:00:00 | 03:10:17 | 00:00:00 | |
| DB0DAN | 2026-09-05 13:00:55 | 52.19947 | 12.35015 | 121° | 217km/h | 9543m | -7.3m/s | -42.8°C | 13.6% | 289.94hPa | 2.6V | 00:00:00 | 00:00:00 | 00:00:00 | |
| DL1XH-15 | 2026-09-05 13:00:53 | 52.20158 | 12.34457 | 121° | 226km/h | 9594m | -6.9m/s | -43.2°C | 16% | 287.8hPa | 2.6V | 02:46:22 | 03:10:10 | 00:00:00 | |
| DB0ND-19 | 2026-09-05 13:00:51 | 52.20098 | 12.34616 | 121° | 226km/h | 9580m | -7.5m/s | -43.1°C | 13.0% | 288.4hPa | 2.6V | 00:00:00 | 00:00:00 | 00:00:00 | |
| DO2SHX-10 | 2026-09-05 13:00:49 | 52.20127 | 12.34536 | 122° | 226km/h | 9587m | -6.8m/s | -43.1°C | 15.6% | 288.0hPa | 2.6V | 00:00:00 | 03:10:11 | 00:00:00 | |
| DM0DOS-11 | 2026-09-05 13:00:48 | 52.20308 | 12.34060 | 121° | 226km/h | 9629m | -7.1m/s | -43.5°C | 17.8% | 286.2hPa | 2.6V | 02:46:27 | 03:10:05 | 00:00:00 | |
| DF8AY | 2026-09-05 13:00:47 | 52.20188 | 12.34377 | 122° | 226km/h | 9601m | -7m/s | -43.2°C | 18.4% | 287.4hPa | 2.6V | 02:46:59 | 03:10:09 | 00:00:00 | |
| DL1XH-west | 2026-09-05 13:00:45 | 52.20248 | 12.34219 | 122° | 226km/h | 9615m | -6.7m/s | -43.4°C | 19.1% | 286.8hPa | 2.6V | 02:46:59 | 03:10:07 | 00:00:00 | |
| DB0NH | 2026-09-05 13:00:44 | 52.20278 | 12.34139 | 122° | 224km/h | 9622m | -7.0m/s | -43.3°C | 17.3% | 286.5hPa | 2.6V | 00:00:00 | 03:10:06 | 00:00:00 | |
| DL1XH-15 | 2026-09-05 13:00:42 | 52.20489 | 12.33586 | 122° | 226km/h | 9672m | -7m/s | -43.6°C | 19.6% | 284.5hPa | 2.6V | 02:46:33 | 03:09:59 | 00:00:00 | |
| DO2SHX-10 | 2026-09-05 13:00:42 | 52.20338 | 12.33981 | 122° | 226km/h | 9637m | -7.0m/s | -43.4°C | 18.3% | 285.9hPa | 2.6V | 02:46:00 | 03:10:04 | 00:00:00 | |
| DH5RUM-10 | 2026-09-05 13:00:41 | 52.20338 | 12.33981 | 123° | 226km/h | 9637m | -7.1m/s | 0°C | 0% | 0hPa | 2.6V | 00:00:00 | 00:00:00 | 00:00:00 | |
| DB0DAN | 2026-09-05 13:00:40 | 52.20398 | 12.33823 | 122° | 215km/h | 9650m | -7.2m/s | -43.6°C | 16.7% | 285.37hPa | 2.6V | 00:00:00 | 00:00:00 | 00:00:00 | |
| DO2SHX-10 | 2026-09-05 13:00:39 | 52.20428 | 12.33744 | 122° | 226km/h | 9658m | -7.1m/s | -43.5°C | 19.4% | 285.1hPa | 2.6V | 00:00:00 | 03:10:01 | 00:00:00 | |
| DM0DOS-11 | 2026-09-05 13:00:38 | 52.20610 | 12.33273 | 122° | 224km/h | 9700m | -7.1m/s | -43.7°C | 20.1% | 283.2hPa | 2.6V | 02:46:37 | 03:09:55 | 00:00:00 | |
| DF8AY | 2026-09-05 13:00:37 | 52.20489 | 12.33586 | 122° | 226km/h | 9672m | -7m/s | -43.6°C | 22% | 284.5hPa | 2.6V | 02:46:59 | 03:09:59 | 00:00:00 | |
| DL1XH1-15 | 2026-09-05 13:00:36 | 52.20671 | 12.33117 | 122° | 224km/h | 9714m | -6.9m/s | -43.8°C | 20.3% | 282.6hPa | 2.6V | 02:46:39 | 03:09:53 | 00:00:00 | |
| DL1XH-west | 2026-09-05 13:00:35 | 52.20549 | 12.33429 | 122° | 224km/h | 9686m | -7.1m/s | -43.7°C | 22.3% | 283.8hPa | 2.6V | 02:46:59 | 03:09:57 | 00:00:00 | |
| DO2SHX-10 | 2026-09-05 13:00:33 | 52.20610 | 12.33273 | 123° | 224km/h | 9700m | -7.1m/s | -43.7°C | 20.1% | 283.1hPa | 2.6V | 02:46:00 | 03:09:55 | 00:00:00 | |
| TFSTFS | 2026-09-05 13:00:32 | 52.20610 | 12.33273 | 123° | 224km/h | 9700m | -7.1m/s | -43.7°C | 17.3% | 283.2hPa | 2.6V | 02:46:00 | 00:00:00 | 00:00:00 | |
| EDDB2-12 | 2026-09-05 13:00:31 | 52.20671 | 12.33117 | 122° | 223km/h | 9714m | -6.9m/s | -43.8°C | 17.5% | 282.6hPa | 2.6V | 00:00:00 | 00:00:00 | 00:00:00 | |
| DO2SHX-10 | 2026-09-05 13:00:30 | 52.20702 | 12.33039 | 123° | 224km/h | 9722m | -7.0m/s | -43.9°C | 20.4% | 282.3hPa | 2.6V | 00:00:00 | 03:09:52 | 00:00:00 | |
| DM0DOS-11 | 2026-09-05 13:00:28 | 52.20916 | 12.32493 | 122° | 224km/h | 9772m | -7m/s | -44.3°C | 20.9% | 280.2hPa | 2.6V | 02:46:47 | 03:09:45 | 00:00:00 | |
| DF8AY | 2026-09-05 13:00:26 | 52.20824 | 12.32728 | 122° | 224km/h | 9750m | -7.1m/s | -44.1°C | 23.2% | 281.1hPa | 2.6V | 02:46:59 | 03:09:48 | 00:00:00 | |
| DB0DAN | 2026-09-05 13:00:25 | 52.20855 | 12.32650 | 122° | 214km/h | 9757m | -7.2m/s | -44.1°C | 18% | 280.82hPa | 2.6V | 00:00:00 | 00:00:00 | 00:00:00 | |
| DL1XH-west | 2026-09-05 13:00:25 | 52.20855 | 12.32650 | 122° | 224km/h | 9757m | -7.2m/s | -44.1°C | 23.3% | 280.8hPa | 2.6V | 02:46:59 | 03:09:47 | 00:00:00 | |
| HSKMA3-T | 2026-09-05 13:00:20 | 52.21007 | 12.32258 | 122° | 226km/h | 9793m | -7.2m/s | -44.4°C | 23.5% | 279.4hPa | 2.6V | 02:47:50 | 03:09:42 | 00:00:00 | |
| DO2SHX-10 | 2026-09-05 13:00:20 | 52.21068 | 12.32101 | 123° | 224km/h | 9807m | -7.0m/s | -44.4°C | 21.3% | 278.8hPa | 2.6V | 00:00:00 | 03:09:40 | 00:00:00 | |
| DM0DOS-11 | 2026-09-05 13:00:19 | 52.21220 | 12.31712 | 122° | 224km/h | 9843m | -6.9m/s | -44.8°C | 21.7% | 277.3hPa | 2.6V | 02:46:57 | 03:09:35 | 00:00:00 | |
| DF8AY | 2026-09-05 13:00:17 | 52.21129 | 12.31945 | 123° | 224km/h | 9822m | -7.1m/s | -44.6°C | 24.1% | 278.2hPa | 2.6V | 02:46:59 | 03:09:38 | 00:00:00 | |
| DL1XH-west | 2026-09-05 13:00:14 | 52.21190 | 12.31790 | 122° | 224km/h | 9836m | -7.1m/s | -44.7°C | 24.2% | 277.6hPa | 2.6V | 02:46:59 | 03:09:36 | 00:00:00 | |
| DB0NH | 2026-09-05 13:00:14 | 52.21190 | 12.31790 | 123° | 228km/h | 9836m | -7.0m/s | -44.7°C | 21.6% | 277.5hPa | 2.6V | 00:00:00 | 03:09:36 | 00:00:00 | |
| DF8AY-15 | 2026-09-05 13:00:13 | 52.21220 | 12.31712 | 123° | 226km/h | 9843m | -6.9m/s | -44.7°C | 21.7% | 277.3hPa | 2.6V | 00:00:00 | 03:09:35 | 00:00:00 | |
| DL1XH-15 | 2026-09-05 13:00:12 | 52.21401 | 12.31241 | 121° | 226km/h | 9886m | -7m/s | -45°C | 21.4% | 275.5hPa | 2.6V | 02:47:03 | 03:09:29 | 00:00:00 | |
| DO2SHX-10 | 2026-09-05 13:00:12 | 52.21250 | 12.31634 | 123° | 224km/h | 9851m | -7.0m/s | -44.8°C | 21.9% | 276.9hPa | 2.6V | 00:00:00 | 03:09:34 | 00:00:00 | |
| DB0DAN | 2026-09-05 13:00:10 | 52.21311 | 12.31478 | 122° | 214km/h | 9865m | -7.1m/s | -44.9°C | 18.7% | 276.42hPa | 2.6V | 00:00:00 | 00:00:00 | 00:00:00 | |
| TFSTFS | 2026-09-05 13:00:09 | 52.21341 | 12.31399 | 123° | 226km/h | 9872m | -7.3m/s | -45.0°C | 18.6% | 276.2hPa | 2.6V | 02:47:00 | 00:00:00 | 00:00:00 | |
| DM0DOS-11 | 2026-09-05 13:00:08 | 52.21523 | 12.30924 | 121° | 228km/h | 9915m | -7.3m/s | -45.2°C | 20.9% | 274.3hPa | 2.6V | 02:47:07 | 03:09:25 | 00:00:00 | |
| DJ2DS-15 | 2026-09-05 13:00:08 | 52.21401 | 12.31241 | 121° | 226km/h | 9886m | -7.0m/s | -45.0°C | 18.4% | 275.5hPa | 2.6V | 00:00:00 | 00:00:00 | 00:00:00 | |
| DL1XH1-15 | 2026-09-05 13:00:06 | 52.21584 | 12.30764 | 122° | 228km/h | 9929m | -7.2m/s | -45.4°C | 20.6% | 273.7hPa | 2.6V | 02:47:09 | 03:09:23 | 00:00:00 | |
| DF8AY | 2026-09-05 13:00:05 | 52.21462 | 12.31083 | 122° | 226km/h | 9901m | -7.2m/s | -45.1°C | 23.7% | 274.9hPa | 2.6V | 02:47:50 | 03:09:27 | 00:00:00 | |
| DL1XH-west | 2026-09-05 13:00:04 | 52.21492 | 12.31003 | 122° | 228km/h | 9908m | -7m/s | -45.2°C | 23.5% | 274.6hPa | 2.6V | 02:47:50 | 03:09:26 | 00:00:00 | |
| AA1-15 | 2026-09-05 13:00:01 | 52.21584 | 12.30764 | 122° | 228km/h | 9929m | -7.2m/s | -45.4°C | 23.1% | 273.8hPa | 2.6V | 02:47:50 | 03:09:23 | 00:00:00 | |
| DL1XH-15 | 2026-09-05 13:00:00 | 52.21708 | 12.30446 | 122° | 228km/h | 9959m | -7.3m/s | -45.3°C | 19.3% | 272.5hPa | 2.6V | 02:47:13 | 03:09:19 | 00:00:00 | |
| DO2SHX-10 | 2026-09-05 13:00:00 | 52.21614 | 12.30685 | 123° | 228km/h | 9937m | -7.1m/s | -45.3°C | 20.5% | 273.4hPa | 2.6V | 00:00:00 | 03:09:22 | 00:00:00 | |
| DH5RUM-10 | 2026-09-05 12:59:59 | 52.21614 | 12.30685 | 123° | 228km/h | 9937m | -7.2m/s | 0°C | 0% | 0hPa | 2.6V | 00:00:00 | 00:00:00 | 00:00:00 | |
| DM0DOS-11 | 2026-09-05 12:59:58 | 52.21832 | 12.30128 | 122° | 228km/h | 9988m | -7.4m/s | -45.4°C | 18.8% | 271.3hPa | 2.6V | 02:47:17 | 03:09:15 | 00:00:00 | |
| DF8AY | 2026-09-05 12:59:56 | 52.21770 | 12.30287 | 123° | 228km/h | 9973m | -7.2m/s | -45.3°C | 21.5% | 271.9hPa | 2.6V | 02:47:50 | 03:09:17 | 00:00:00 | |
| DL1XH1-15 | 2026-09-05 12:59:56 | 52.21894 | 12.29969 | 122° | 230km/h | 10003m | -7.3m/s | -45.5°C | 18.7% | 270.7hPa | 2.6V | 02:47:19 | 03:09:13 | 00:00:00 | |
| DB0DAN | 2026-09-05 12:59:55 | 52.21770 | 12.30287 | 123° | 217km/h | 9973m | -7.2m/s | -45.3°C | 16% | 271.95hPa | 2.6V | 00:00:00 | 00:00:00 | 00:00:00 | |
| DL1XH-west | 2026-09-05 12:59:53 | 52.21832 | 12.30128 | 123° | 228km/h | 9988m | -7.4m/s | -45.4°C | 21.5% | 271.3hPa | 2.6V | 02:47:50 | 03:09:15 | 00:00:00 | |
| AA1-15 | 2026-09-05 12:59:50 | 52.21925 | 12.29890 | 123° | 230km/h | 10010m | -7.1m/s | -45.6°C | 21.5% | 270.5hPa | 2.6V | 02:47:50 | 03:09:12 | 00:00:00 | |
| DB0ND-19 | 2026-09-05 12:59:49 | 52.21988 | 12.29731 | 122° | 228km/h | 10025m | -7.7m/s | -45.7°C | 15.8% | 269.9hPa | 2.6V | 00:00:00 | 00:00:00 | 00:00:00 | |
| DM0DOS-11 | 2026-09-05 12:59:48 | 52.22148 | 12.29335 | 123° | 230km/h | 10062m | -7.2m/s | -46°C | 19% | 268.4hPa | 2.6V | 02:47:27 | 03:09:05 | 00:00:00 | |
| DO2SHX-10 | 2026-09-05 12:59:48 | 52.21988 | 12.29731 | 123° | 230km/h | 10025m | -7.6m/s | -45.7°C | 18.6% | 269.8hPa | 2.6V | 02:47:00 | 03:09:10 | 00:00:00 | |
| DL1XH1-15 | 2026-09-05 12:59:46 | 52.22212 | 12.29179 | 124° | 230km/h | 10077m | -7.5m/s | -46.1°C | 19.1% | 267.8hPa | 2.6V | 02:47:29 | 03:09:03 | 00:00:00 | |
| DF8AY | 2026-09-05 12:59:44 | 52.22115 | 12.29414 | 124° | 230km/h | 10054m | -7.5m/s | -45.9°C | 21.3% | 268.7hPa | 2.6V | 02:47:50 | 03:09:06 | 00:00:00 | |
| DL1XH-west | 2026-09-05 12:59:42 | 52.22180 | 12.29257 | 124° | 230km/h | 10069m | -7.5m/s | -46°C | 21.5% | 268.1hPa | 2.6V | 02:47:50 | 03:09:04 | 00:00:00 | |
| DL1XH-15 | 2026-09-05 12:59:40 | 52.22342 | 12.28866 | 124° | 228km/h | 10107m | -7.7m/s | -46.3°C | 19.3% | 266.6hPa | 2.6V | 02:47:33 | 03:08:59 | 00:00:00 | |
| DB0DAN | 2026-09-05 12:59:40 | 52.22245 | 12.29100 | 124° | 219km/h | 10084m | -7.5m/s | -46.1°C | 16.2% | 267.46hPa | 2.6V | 00:00:00 | 00:00:00 | 00:00:00 | |
| AA1-15 | 2026-09-05 12:59:39 | 52.22277 | 12.29022 | 124° | 230km/h | 10092m | -7.5m/s | -46.2°C | 21.5% | 267.2hPa | 2.6V | 02:47:50 | 03:09:01 | 00:00:00 | |
| DO2SHX-10 | 2026-09-05 12:59:39 | 52.22277 | 12.29022 | 125° | 228km/h | 10092m | -7.4m/s | -46.1°C | 19.2% | 267.1hPa | 2.6V | 02:47:00 | 03:09:01 | 00:00:00 | |
| DL1XH1-15 | 2026-09-05 12:59:36 | 52.22537 | 12.28398 | 124° | 228km/h | 10152m | -7.5m/s | -46.7°C | 19.6% | 264.8hPa | 2.6V | 02:47:39 | 03:08:53 | 00:00:00 | |
| DL1XH-west | 2026-09-05 12:59:31 | 52.22537 | 12.28398 | 124° | 228km/h | 10152m | -7.5m/s | -46.7°C | 22% | 264.8hPa | 2.6V | 02:47:50 | 03:08:53 | 00:00:00 | |
| DL1XH-15 | 2026-09-05 12:59:30 | 52.22666 | 12.28091 | 124° | 224km/h | 10183m | -7.7m/s | -46.9°C | 19.9% | 263.6hPa | 2.6V | 02:47:43 | 03:08:49 | 00:00:00 | |
| AA1-15 | 2026-09-05 12:59:28 | 52.22634 | 12.28167 | 124° | 224km/h | 10175m | -7.7m/s | -46.8°C | 22.2% | 263.8hPa | 2.6V | 02:47:50 | 03:08:50 | 00:00:00 | |
| DO2SHX-10 | 2026-09-05 12:59:27 | 52.22666 | 12.28091 | 125° | 224km/h | 10183m | -7.7m/s | -46.8°C | 19.9% | 263.5hPa | 2.6V | 00:00:00 | 03:08:49 | 00:00:00 | |
| DL1XH1-15 | 2026-09-05 12:59:26 | 52.22861 | 12.27636 | 125° | 224km/h | 10229m | -7.7m/s | -47.2°C | 20.8% | 261.7hPa | 2.6V | 02:47:49 | 03:08:43 | 00:00:00 | |
| DF8AY | 2026-09-05 12:59:24 | 52.22960 | 12.27411 | 126° | 224km/h | 10252m | -7.7m/s | -47.3°C | 22.7% | 260.9hPa | 2.6V | 02:48:41 | 03:08:40 | 00:00:00 | |
| DO2SHX-10 | 2026-09-05 12:59:24 | 52.22762 | 12.27863 | 125° | 224km/h | 10206m | -7.5m/s | -47.0°C | 20.6% | 262.6hPa | 2.6V | 00:00:00 | 03:08:46 | 00:00:00 | |
| DO2SHX-10 | 2026-09-05 12:59:21 | 52.22860 | 12.27636 | 126° | 224km/h | 10229m | -7.6m/s | -47.1°C | 20.8% | 261.7hPa | 2.6V | 02:47:00 | 03:08:43 | 00:00:00 | |
| DL1XH-15 | 2026-09-05 12:59:20 | 52.22993 | 12.27335 | 126° | 226km/h | 10260m | -7.4m/s | -47.4°C | 20.5% | 260.5hPa | 2.5V | 02:47:53 | 03:08:39 | 00:00:00 | |
| DL1XH-west | 2026-09-05 12:59:20 | 52.22894 | 12.27561 | 126° | 224km/h | 10237m | -7.5m/s | -47.2°C | 22.7% | 261.5hPa | 2.6V | 02:47:50 | 03:08:42 | 00:00:00 | |
| HSKMA3-T | 2026-09-05 12:59:19 | 52.22927 | 12.27486 | 126° | 224km/h | 10244m | -7.5m/s | -47.3°C | 22.7% | 261.2hPa | 2.6V | 02:52:05 | 03:08:41 | 00:00:00 | |
| DM0DOS-11 | 2026-09-05 12:59:18 | 52.23129 | 12.27036 | 126° | 224km/h | 10290m | -7.6m/s | -47.5°C | 20.3% | 259.3hPa | 2.6V | 02:47:57 | 03:08:35 | 00:00:00 | |
| AA1-15 | 2026-09-05 12:59:17 | 52.22994 | 12.27335 | 126° | 226km/h | 10260m | -7.4m/s | -47.4°C | 22.6% | 260.5hPa | 2.5V | 02:48:41 | 03:08:39 | 00:00:00 | |
| DL4XJ-10 | 2026-09-05 12:59:17 | 52.22993 | 12.27335 | 127° | 223km/h | 10260m | -7.3m/s | -47.5°C | 0% | 0hPa | 2.6V | 00:00:00 | 00:00:00 | 00:00:00 | |
| DL1XH1-15 | 2026-09-05 12:59:16 | 52.23196 | 12.26886 | 126° | 224km/h | 10305m | -7.2m/s | -47.6°C | 20.2% | 258.8hPa | 2.6V | 02:47:59 | 03:08:33 | 00:00:00 | |
| DO2SHX-10 | 2026-09-05 12:59:15 | 52.23061 | 12.27185 | 127° | 226km/h | 10275m | -7.3m/s | -47.4°C | 20.4% | 259.9hPa | 2.6V | 00:00:00 | 03:08:37 | 00:00:00 | |
| DB0NH | 2026-09-05 12:59:14 | 52.23095 | 12.27110 | 127° | 219km/h | 10283m | -7.5m/s | -47.5°C | 20.4% | 259.6hPa | 2.6V | 00:00:00 | 03:08:36 | 00:00:00 | |
| DF8AY-15 | 2026-09-05 12:59:13 | 52.23129 | 12.27036 | 127° | 221km/h | 10290m | -7.5m/s | -47.5°C | 20.3% | 259.3hPa | 2.6V | 00:00:00 | 03:08:35 | 00:00:00 | |
| DO2SHX-10 | 2026-09-05 12:59:12 | 52.23162 | 12.26961 | 127° | 224km/h | 10298m | -7.6m/s | -47.6°C | 20.3% | 259.0hPa | 2.6V | 02:47:00 | 03:08:34 | 00:00:00 | |
| DB0DAN | 2026-09-05 12:59:10 | 52.23230 | 12.26812 | 126° | 214km/h | 10313m | -7.5m/s | -47.7°C | 16.9% | 258.42hPa | 2.6V | 00:00:00 | 00:00:00 | 00:00:00 | |
| DL1XH-west | 2026-09-05 12:59:09 | 52.23263 | 12.26738 | 126° | 223km/h | 10320m | -7.7m/s | -47.7°C | 21.8% | 258.2hPa | 2.6V | 02:48:41 | 03:08:31 | 00:00:00 | |
| DM0DOS-11 | 2026-09-05 12:59:08 | 52.23462 | 12.26295 | 126° | 221km/h | 10366m | -7.9m/s | -47.8°C | 19.4% | 256.4hPa | 2.6V | 02:48:07 | 03:08:25 | 00:00:00 | |
| HSKMA3-T | 2026-09-05 12:59:08 | 52.23296 | 12.26664 | 126° | 223km/h | 10328m | -7.5m/s | -47.7°C | 21.6% | 257.9hPa | 2.6V | 02:52:05 | 03:08:30 | 00:00:00 | |
| DF8AY | 2026-09-05 12:59:07 | 52.23329 | 12.26590 | 126° | 223km/h | 10335m | -7.4m/s | -47.7°C | 21.5% | 257.5hPa | 2.6V | 02:48:41 | 03:08:29 | 00:00:00 | |
| DL1XH1-15 | 2026-09-05 12:59:06 | 52.23528 | 12.26149 | 126° | 219km/h | 10381m | -7.5m/s | -47.8°C | 19.2% | 255.8hPa | 2.6V | 02:48:09 | 03:08:23 | 00:00:00 | |
| AA1-15 | 2026-09-05 12:59:02 | 52.23495 | 12.26222 | 127° | 221km/h | 10374m | -7.7m/s | -47.8°C | 21% | 256.1hPa | 2.6V | 02:48:41 | 03:08:24 | 00:00:00 | |
| DL1XH-west | 2026-09-05 12:58:59 | 52.23595 | 12.26005 | 127° | 217km/h | 10397m | -7.4m/s | -47.7°C | 20.7% | 255.2hPa | 2.6V | 02:48:41 | 03:08:21 | 00:00:00 | |
| DF8AY | 2026-09-05 12:58:56 | 52.23694 | 12.25791 | 127° | 215km/h | 10420m | -7.6m/s | -47.8°C | 20.4% | 254.3hPa | 2.6V | 02:48:41 | 03:08:18 | 00:00:00 | |
| DJ2DS-15 | 2026-09-05 12:58:56 | 52.23727 | 12.25720 | 127° | 215km/h | 10427m | -7.7m/s | -47.8°C | 15.5% | 254.1hPa | 2.6V | 00:00:00 | 00:00:00 | 00:00:00 | |
| DB0DAN | 2026-09-05 12:58:55 | 52.23727 | 12.25720 | 127° | 206km/h | 10427m | -7.7m/s | -47.8°C | 15.5% | 254.07hPa | 2.6V | 00:00:00 | 00:00:00 | 00:00:00 | |
| DC4HF-4 | 2026-09-05 12:58:54 | 52.23793 | 12.25579 | 126° | 214km/h | 10443m | -7.9m/s | -47.9°C | 15.1% | 253.5hPa | 2.6V | 00:00:00 | 00:00:00 | 00:00:00 | |
| DF8AY-15 | 2026-09-05 12:58:53 | 52.23793 | 12.25579 | 127° | 214km/h | 10443m | -7.9m/s | -47.8°C | 18.2% | 253.4hPa | 2.6V | 02:48:00 | 03:08:15 | 00:00:00 | |
| DO2SHX-10 | 2026-09-05 12:58:51 | 52.23858 | 12.25438 | 127° | 214km/h | 10459m | -7.8m/s | -47.9°C | 17.8% | 252.8hPa | 2.6V | 00:00:00 | 03:08:13 | 00:00:00 | |
| AA1-15 | 2026-09-05 12:58:51 | 52.23858 | 12.25438 | 127° | 214km/h | 10458m | -7.8m/s | -47.9°C | 19.9% | 252.9hPa | 2.6V | 02:48:41 | 03:08:13 | 00:00:00 | |
| DB0UT-7 | 2026-09-05 12:58:49 | 52.23922 | 12.25296 | 127° | 215km/h | 10474m | -7.9m/s | -48.0°C | 17.6% | 252.2hPa | 2.6V | 02:48:00 | 00:00:00 | 00:00:00 | |
| DM0DOS-11 | 2026-09-05 12:58:48 | 52.24113 | 12.24873 | 126° | 212km/h | 10521m | -7.7m/s | -48.1°C | 17.5% | 250.4hPa | 2.6V | 02:48:27 | 03:08:05 | 00:00:00 | |
| DL1XH-west | 2026-09-05 12:58:48 | 52.23954 | 12.25225 | 127° | 214km/h | 10482m | -7.5m/s | -48°C | 19.3% | 252hPa | 2.6V | 02:48:41 | 03:08:10 | 00:00:00 | |
| DF8AY | 2026-09-05 12:58:46 | 52.24018 | 12.25084 | 126° | 212km/h | 10498m | -8m/s | -48.1°C | 19.1% | 251.4hPa | 2.6V | 02:48:41 | 03:08:08 | 00:00:00 | |
| AA1-15 | 2026-09-05 12:58:41 | 52.24177 | 12.24733 | 126° | 214km/h | 10536m | -7.9m/s | -48.2°C | 19.5% | 249.9hPa | 2.6V | 02:48:41 | 03:08:03 | 00:00:00 | |
| DB0DAN | 2026-09-05 12:58:40 | 52.24209 | 12.24662 | 126° | 203km/h | 10544m | -7.7m/s | -48.2°C | 14.4% | 249.57hPa | 2.6V | 00:00:00 | 00:00:00 | 00:00:00 | |
| DO2SHX-10 | 2026-09-05 12:58:39 | 52.24240 | 12.24591 | 127° | 214km/h | 10552m | -7.9m/s | -48.2°C | 17.5% | 249.2hPa | 2.6V | 00:00:00 | 03:08:01 | 00:00:00 | |
| DM0DOS-11 | 2026-09-05 12:58:38 | 52.24428 | 12.24163 | 124° | 214km/h | 10600m | -8.1m/s | -48.5°C | 18% | 247.4hPa | 2.6V | 02:48:37 | 03:07:55 | 00:00:00 | |
| DL1XH-west | 2026-09-05 12:58:38 | 52.24303 | 12.24449 | 126° | 214km/h | 10568m | -8m/s | -48.3°C | 19.6% | 248.6hPa | 2.6V | 02:48:41 | 03:07:59 | 00:00:00 | |
| DL1XH1-15 | 2026-09-05 12:58:36 | 52.24489 | 12.24018 | 124° | 214km/h | 10616m | -8m/s | -48.6°C | 18.3% | 246.8hPa | 2.6V | 02:48:39 | 03:07:53 | 00:00:00 | |
| DF8AY | 2026-09-05 12:58:35 | 52.24366 | 12.24306 | 125° | 214km/h | 10584m | -8.2m/s | -48.4°C | 19.9% | 248hPa | 2.6V | 02:48:41 | 03:07:57 | 00:00:00 | |
| AA1-15 | 2026-09-05 12:58:31 | 52.24489 | 12.24018 | 125° | 214km/h | 10616m | -8m/s | -48.6°C | 20.5% | 246.8hPa | 2.6V | 02:48:41 | 03:07:53 | 00:00:00 | |
| DL1XH-15 | 2026-09-05 12:58:30 | 52.24612 | 12.23725 | 124° | 217km/h | 10648m | -8m/s | -48.8°C | 18.5% | 245.6hPa | 2.6V | 02:48:43 | 03:07:49 | 00:00:00 | |
| DO2SHX-10 | 2026-09-05 12:58:30 | 52.24520 | 12.23945 | 125° | 215km/h | 10624m | -8.3m/s | -48.6°C | 18.3% | 246.5hPa | 2.6V | 00:00:00 | 03:07:52 | 00:00:00 | |
| DM0DOS-11 | 2026-09-05 12:58:27 | 52.24735 | 12.23427 | 123° | 217km/h | 10681m | -8m/s | -49.1°C | 19% | 244.4hPa | 2.6V | 02:48:47 | 03:07:45 | 00:00:00 | |
| DL1XH-west | 2026-09-05 12:58:26 | 52.24643 | 12.23650 | 124° | 217km/h | 10657m | -8.4m/s | -48.8°C | 21.1% | 245.4hPa | 2.6V | 02:49:32 | 03:07:48 | 00:00:00 | |
| DB0DAN | 2026-09-05 12:58:25 | 52.24673 | 12.23576 | 124° | 208km/h | 10665m | -8m/s | -48.9°C | 15.4% | 245hPa | 2.6V | 00:00:00 | 00:00:00 | 00:00:00 | |
| DF8AY | 2026-09-05 12:58:25 | 52.24673 | 12.23576 | 124° | 217km/h | 10665m | -8m/s | -48.9°C | 21.1% | 245hPa | 2.6V | 02:49:32 | 03:07:47 | 00:00:00 | |
| AA1-15 | 2026-09-05 12:58:21 | 52.24797 | 12.23278 | 124° | 219km/h | 10696m | -8.1m/s | -49.2°C | 21.7% | 243.8hPa | 2.6V | 02:49:32 | 03:07:43 | 00:00:00 | |
| DO2SHX-10 | 2026-09-05 12:58:21 | 52.24797 | 12.23278 | 124° | 219km/h | 10697m | -8.1m/s | -49.1°C | 19.4% | 243.7hPa | 2.6V | 00:00:00 | 03:07:43 | 00:00:00 | |
| DL1XH-15 | 2026-09-05 12:58:20 | 52.24921 | 12.22979 | 124° | 219km/h | 10728m | -8m/s | -49.2°C | 19.9% | 242.7hPa | 2.6V | 02:48:53 | 03:07:39 | 00:00:00 | |
| DJ2DS-15 | 2026-09-05 12:58:20 | 52.24859 | 12.23128 | 124° | 219km/h | 10712m | -8.0m/s | -49.2°C | 16.4% | 243.2hPa | 2.6V | 00:00:00 | 00:00:00 | 00:00:00 | |
| DB0UT-7 | 2026-09-05 12:58:19 | 52.24859 | 12.23128 | 125° | 221km/h | 10713m | -8.0m/s | -49.1°C | 19.8% | 243.2hPa | 2.6V | 00:00:00 | 03:07:41 | 00:00:00 | |
| DO2SHX-10 | 2026-09-05 12:58:18 | 52.24890 | 12.23053 | 125° | 219km/h | 10720m | -8.0m/s | -49.1°C | 19.8% | 242.9hPa | 2.6V | 02:48:00 | 03:07:40 | 00:00:00 | |
| DM0DOS-11 | 2026-09-05 12:58:17 | 52.25046 | 12.22678 | 124° | 221km/h | 10760m | -8m/s | -49.5°C | 20.2% | 241.4hPa | 2.6V | 02:48:57 | 03:07:35 | 00:00:00 | |
| DL1XH-west | 2026-09-05 12:58:16 | 52.24952 | 12.22904 | 124° | 219km/h | 10736m | -7.8m/s | -49.3°C | 22.4% | 242.3hPa | 2.6V | 02:49:32 | 03:07:38 | 00:00:00 | |
| DF8AY | 2026-09-05 12:58:14 | 52.25014 | 12.22754 | 124° | 221km/h | 10752m | -8.2m/s | -49.4°C | 22.6% | 241.8hPa | 2.6V | 02:49:32 | 03:07:36 | 00:00:00 | |
| DB0NH | 2026-09-05 12:58:14 | 52.25014 | 12.22754 | 125° | 219km/h | 10752m | -8.2m/s | -49.4°C | 20.1% | 241.7hPa | 2.6V | 02:48:00 | 03:07:36 | 00:00:00 | |
| DF8AY-15 | 2026-09-05 12:58:13 | 52.25046 | 12.22678 | 125° | 221km/h | 10760m | -8.0m/s | -49.5°C | 20.2% | 241.4hPa | 2.6V | 00:00:00 | 03:07:35 | 00:00:00 | |
| DO2SHX-10 | 2026-09-05 12:58:12 | 52.25077 | 12.22603 | 125° | 221km/h | 10768m | -7.8m/s | -49.5°C | 20.3% | 241.1hPa | 2.6V | 00:00:00 | 03:07:34 | 00:00:00 | |
| DF7ER-10 | 2026-09-05 12:58:11 | 52.25077 | 12.22603 | 125° | 221km/h | 10768m | -7.9m/s | -49.6°C | 16.9% | 241.1hPa | 2.6V | 00:00:00 | 00:00:00 | 00:00:00 | |
| DL1XH-15 | 2026-09-05 12:58:10 | 52.25234 | 12.22227 | 124° | 221km/h | 10809m | -8.2m/s | -49.8°C | 20.9% | 239.7hPa | 2.6V | 02:49:03 | 03:07:29 | 00:00:00 | |
| DB0DAN | 2026-09-05 12:58:10 | 52.25140 | 12.22453 | 124° | 210km/h | 10784m | -7.9m/s | -49.7°C | 16.8% | 240.63hPa | 2.6V | 00:00:00 | 00:00:00 | 00:00:00 | |
| AA1-15 | 2026-09-05 12:58:10 | 52.25140 | 12.22453 | 124° | 221km/h | 10784m | -7.9m/s | -49.7°C | 22.9% | 240.6hPa | 2.6V | 02:49:32 | 03:07:32 | 00:00:00 | |
| DO2SHX-10 | 2026-09-05 12:58:09 | 52.25171 | 12.22377 | 125° | 221km/h | 10792m | -7.9m/s | -49.8°C | 20.7% | 240.3hPa | 2.6V | 02:49:00 | 03:07:31 | 00:00:00 | |
| DM0DOS-11 | 2026-09-05 12:58:08 | 52.25362 | 12.21926 | 125° | 223km/h | 10841m | -8.3m/s | -50.1°C | 21.1% | 238.5hPa | 2.6V | 02:49:07 | 03:07:25 | 00:00:00 | |
| AM1SDL-15 | 2026-09-05 12:58:07 | 52.25234 | 12.22227 | 125° | 219km/h | 10809m | -8.2m/s | -49.8°C | 20.9% | 239.7hPa | 2.6V | 00:00:00 | 03:07:29 | 00:00:00 | |
| DL1XH1-15 | 2026-09-05 12:58:06 | 52.25427 | 12.21776 | 125° | 221km/h | 10858m | -8m/s | -50.2°C | 21.1% | 237.9hPa | 2.6V | 02:49:09 | 03:07:23 | 00:00:00 | |
| DL1XH-west | 2026-09-05 12:58:05 | 52.25298 | 12.22076 | 125° | 223km/h | 10825m | -8.3m/s | -50°C | 23.1% | 239.1hPa | 2.6V | 02:49:32 | 03:07:27 | 00:00:00 | |
| DF8AY | 2026-09-05 12:58:04 | 52.25362 | 12.21926 | 125° | 223km/h | 10841m | -8.3m/s | -50.1°C | 23.2% | 238.5hPa | 2.6V | 02:49:32 | 03:07:25 | 00:00:00 | |
| AA1-15 | 2026-09-05 12:57:59 | 52.25492 | 12.21627 | 125° | 221km/h | 10874m | -7.9m/s | -50.3°C | 22.9% | 237.3hPa | 2.6V | 02:49:32 | 03:07:21 | 00:00:00 | |
| DO2SHX-10 | 2026-09-05 12:57:57 | 52.25556 | 12.21480 | 126° | 219km/h | 10890m | -8.1m/s | -50.4°C | 20.4% | 236.7hPa | 2.6V | 00:00:00 | 03:07:19 | 00:00:00 | |
| DM0DOS-11 | 2026-09-05 12:57:56 | 52.25684 | 12.21187 | 125° | 219km/h | 10923m | -7.9m/s | -50.6°C | 20.3% | 235.5hPa | 2.6V | 02:49:17 | 03:07:15 | 00:00:00 | |
| DL1XH1-15 | 2026-09-05 12:57:56 | 52.25748 | 12.21040 | 125° | 217km/h | 10939m | -7.9m/s | -50.7°C | 20.1% | 235hPa | 2.6V | 02:49:19 | 03:07:13 | 00:00:00 | |
| DL1XH-west | 2026-09-05 12:57:55 | 52.25620 | 12.21333 | 126° | 217km/h | 10907m | -8m/s | -50.6°C | 22.3% | 236.2hPa | 2.6V | 02:49:32 | 03:07:17 | 00:00:00 | |
| DB0DAN | 2026-09-05 12:57:55 | 52.25620 | 12.21333 | 125° | 208km/h | 10907m | -8m/s | -50.6°C | 16.7% | 236.17hPa | 2.6V | 00:00:00 | 00:00:00 | 00:00:00 | |
| DF8AY | 2026-09-05 12:57:52 | 52.25716 | 12.21113 | 125° | 219km/h | 10931m | -8.5m/s | -50.7°C | 21.8% | 235.3hPa | 2.6V | 02:49:32 | 03:07:14 | 00:00:00 | |
| TFSTFS | 2026-09-05 12:57:51 | 52.25748 | 12.21040 | 126° | 217km/h | 10939m | -7.9m/s | -50.7°C | 16.5% | 235.0hPa | 2.6V | 00:00:00 | 00:00:00 | 00:00:00 | |
| DL1XH-15 | 2026-09-05 12:57:50 | 52.25875 | 12.20746 | 125° | 217km/h | 10972m | -8.4m/s | -50.8°C | 19.6% | 233.8hPa | 2.6V | 02:49:23 | 03:07:09 | 00:00:00 | |
| AA1-15 | 2026-09-05 12:57:49 | 52.25811 | 12.20893 | 125° | 217km/h | 10956m | -8.2m/s | -50.7°C | 21.2% | 234.4hPa | 2.6V | 02:49:32 | 03:07:11 | 00:00:00 | |
| HSKMA3-T | 2026-09-05 12:57:48 | 52.25843 | 12.20819 | 125° | 217km/h | 10964m | -8m/s | -50.8°C | 21.1% | 234.1hPa | 2.6V | 02:52:05 | 03:07:10 | 00:00:00 | |
| DL1XH-west | 2026-09-05 12:57:44 | 52.25970 | 12.20529 | 126° | 215km/h | 10997m | -8.4m/s | -50.8°C | 20.1% | 232.9hPa | 2.6V | 02:49:32 | 03:07:06 | 00:00:00 | |
| DJ2DS-15 | 2026-09-05 12:57:44 | 52.26002 | 12.20457 | 125° | 214km/h | 11005m | -8.3m/s | -50.8°C | 14.7% | 232.6hPa | 2.6V | 00:00:00 | 00:00:00 | 00:00:00 | |
| DL1XH-15 | 2026-09-05 12:57:42 | 52.26191 | 12.20029 | 125° | 212km/h | 11054m | -8.1m/s | -51.1°C | 16.4% | 230.8hPa | 2.6V | 02:49:33 | 03:06:59 | 00:00:00 | |
| DF8AY | 2026-09-05 12:57:41 | 52.26065 | 12.20314 | 126° | 214km/h | 11021m | -7.9m/s | -51°C | 19.2% | 232hPa | 2.6V | 02:49:32 | 03:07:03 | 00:00:00 | |
| DB0DAN | 2026-09-05 12:57:40 | 52.26097 | 12.20243 | 126° | 203km/h | 11029m | -8m/s | -51°C | 13.9% | 231.78hPa | 2.6V | 00:00:00 | 00:00:00 | 00:00:00 | |
| AA1-15 | 2026-09-05 12:57:38 | 52.26160 | 12.20100 | 126° | 214km/h | 11046m | -8.2m/s | -51.1°C | 18.2% | 231.2hPa | 2.6V | 02:49:32 | 03:07:00 | 00:00:00 | |
| DL1XH1-15 | 2026-09-05 12:57:36 | 52.26379 | 12.19609 | 126° | 208km/h | 11103m | -8.2m/s | -51.2°C | 14.9% | 229.1hPa | 2.6V | 02:49:39 | 03:06:53 | 00:00:00 | |
| DL1XH-west | 2026-09-05 12:57:34 | 52.26285 | 12.19818 | 126° | 210km/h | 11078m | -8.3m/s | -51.1°C | 16.7% | 230hPa | 2.6V | 02:50:23 | 03:06:56 | 00:00:00 | |
| DF8AY | 2026-09-05 12:57:30 | 52.26410 | 12.19539 | 126° | 208km/h | 11112m | -8.6m/s | -51.4°C | 15.5% | 228.9hPa | 2.6V | 02:50:23 | 03:06:52 | 00:00:00 | |
| DL1XH-15 | 2026-09-05 12:57:30 | 52.26503 | 12.19331 | 126° | 208km/h | 11137m | -8.4m/s | -51.5°C | 14% | 227.9hPa | 2.6V | 02:49:43 | 03:06:49 | 00:00:00 | |
| AA1-15 | 2026-09-05 12:57:27 | 52.26503 | 12.19331 | 126° | 208km/h | 11137m | -8.4m/s | -51.5°C | 14.4% | 227.9hPa | 2.6V | 02:50:23 | 03:06:49 | 00:00:00 | |
| DO2SHX-10 | 2026-09-05 12:57:27 | 52.26503 | 12.19331 | 127° | 208km/h | 11137m | -8.3m/s | -51.4°C | 14.0% | 227.9hPa | 2.6V | 00:00:00 | 03:06:49 | 00:00:00 | |
| DL1XH1-15 | 2026-09-05 12:57:26 | 52.26686 | 12.18917 | 125° | 206km/h | 11189m | -8.2m/s | -51.5°C | 12.3% | 226.1hPa | 2.6V | 02:49:49 | 03:06:43 | 00:00:00 | |
| HSKMA3-T | 2026-09-05 12:57:25 | 52.26564 | 12.19193 | 126° | 206km/h | 11154m | -8.8m/s | -51.4°C | 13.4% | 227.3hPa | 2.6V | 02:52:05 | 03:06:47 | 00:00:00 | |
| DB0DAN | 2026-09-05 12:57:25 | 52.26564 | 12.19193 | 126° | 197km/h | 11154m | -8.8m/s | -51.4°C | 10% | 227.34hPa | 2.6V | 00:00:00 | 00:00:00 | 00:00:00 | |
| DL1XH-west | 2026-09-05 12:57:23 | 52.26626 | 12.19056 | 126° | 206km/h | 11172m | -9.1m/s | -51.5°C | 12.8% | 226.8hPa | 2.6V | 02:50:23 | 03:06:45 | 00:00:00 | |
| DO2SHX-10 | 2026-09-05 12:57:21 | 52.26686 | 12.18917 | 126° | 206km/h | 11189m | -8.2m/s | -51.4°C | 12.3% | 226.0hPa | 2.6V | 00:00:00 | 03:06:43 | 00:00:00 | |
| DL1XH-15 | 2026-09-05 12:57:20 | 52.26805 | 12.18639 | 124° | 204km/h | 11222m | -8.5m/s | -51.6°C | 11.7% | 224.9hPa | 2.6V | 02:49:53 | 03:06:39 | 00:00:00 | |
| DF8AY | 2026-09-05 12:57:19 | 52.26746 | 12.18779 | 125° | 206km/h | 11206m | -8.6m/s | -51.6°C | 11.7% | 225.6hPa | 2.6V | 02:50:23 | 03:06:41 | 00:00:00 | |
| AA1-15 | 2026-09-05 12:57:17 | 52.26805 | 12.18639 | 124° | 204km/h | 11222m | -8.5m/s | -51.6°C | 11.3% | 224.9hPa | 2.6V | 02:50:23 | 03:06:39 | 00:00:00 | |
| DM0DOS-11 | 2026-09-05 12:57:16 | 52.26920 | 12.18362 | 123° | 201km/h | 11257m | -8.5m/s | -51.7°C | 11.3% | 223.8hPa | 2.6V | 02:49:57 | 03:06:35 | 00:00:00 | |
| DL1XH1-15 | 2026-09-05 12:57:16 | 52.26975 | 12.18224 | 123° | 199km/h | 11273m | -8.3m/s | -51.9°C | 11% | 223.2hPa | 2.6V | 02:49:59 | 03:06:33 | 00:00:00 | |
| HSKMA3-T | 2026-09-05 12:57:13 | 52.26919 | 12.18362 | 124° | 201km/h | 11257m | -8.5m/s | -51.7°C | 10.6% | 223.8hPa | 2.6V | 02:52:05 | 03:06:35 | 00:00:00 | |
| DF8AY-15 | 2026-09-05 12:57:13 | 52.26919 | 12.18362 | 124° | 195km/h | 11257m | -8.4m/s | -51.6°C | 11.3% | 223.7hPa | 2.6V | 00:00:00 | 03:06:35 | 00:00:00 | |
| DO2SHX-10 | 2026-09-05 12:57:12 | 52.26947 | 12.18293 | 124° | 199km/h | 11265m | -8.2m/s | -51.7°C | 11.1% | 223.4hPa | 2.6V | 00:00:00 | 03:06:34 | 00:00:00 | |
| DB0DAN | 2026-09-05 12:57:10 | 52.27002 | 12.18155 | 123° | 188km/h | 11282m | -8.4m/s | -51.9°C | 7.7% | 222.94hPa | 2.6V | 00:00:00 | 00:00:00 | 00:00:00 | |
| DF8AY | 2026-09-05 12:57:09 | 52.27029 | 12.18087 | 123° | 197km/h | 11290m | -8.9m/s | -51.9°C | 9.6% | 222.6hPa | 2.6V | 02:50:23 | 03:06:31 | 00:00:00 | |
| AA1-15 | 2026-09-05 12:57:07 | 52.27082 | 12.17949 | 122° | 195km/h | 11307m | -8.4m/s | -52°C | 9.1% | 222hPa | 2.6V | 02:50:23 | 03:06:29 | 00:00:00 | |
| DL1XH1-15 | 2026-09-05 12:57:06 | 52.27232 | 12.17535 | 119° | 195km/h | 11359m | -8.6m/s | -51.6°C | 9.2% | 220.3hPa | 2.6V | 02:50:09 | 03:06:23 | 00:00:00 | |
| DL1XH-west | 2026-09-05 12:57:03 | 52.27183 | 12.17674 | 121° | 193km/h | 11342m | -9m/s | -51.8°C | 8.2% | 220.9hPa | 2.6V | 02:50:23 | 03:06:25 | 00:00:00 | |
| HSKMA3-T | 2026-09-05 12:57:02 | 52.27208 | 12.17604 | 120° | 195km/h | 11350m | -8.5m/s | -51.7°C | 8% | 220.5hPa | 2.6V | 02:52:05 | 03:06:24 | 00:00:00 | |
| DF8AY | 2026-09-05 12:56:58 | 52.27305 | 12.17324 | 119° | 195km/h | 11384m | -8.8m/s | -51.3°C | 7.1% | 219.4hPa | 2.6V | 02:50:23 | 03:06:20 | 00:00:00 | |
| DO2SHX-10 | 2026-09-05 12:56:57 | 52.27328 | 12.17254 | 119° | 195km/h | 11393m | -8.7m/s | -51.2°C | 8.5% | 219.1hPa | 2.6V | 02:50:00 | 03:06:19 | 00:00:00 | |
| DM0DOS-11 | 2026-09-05 12:56:56 | 52.27419 | 12.16968 | 116° | 195km/h | 11428m | -8.6m/s | -50.2°C | 7.5% | 217.9hPa | 2.6V | 02:50:17 | 03:06:15 | 00:00:00 | |
| AA1-15 | 2026-09-05 12:56:56 | 52.27351 | 12.17183 | 118° | 195km/h | 11402m | -8.8m/s | -51.1°C | 6.8% | 218.8hPa | 2.6V | 02:50:23 | 03:06:18 | 00:00:00 | |
| DB0DAN | 2026-09-05 12:56:55 | 52.27374 | 12.17111 | 117° | 186km/h | 11411m | -8.9m/s | -50.7°C | 5.4% | 218.48hPa | 2.6V | 00:00:00 | 00:00:00 | 00:00:00 | |
| DL1XH-west | 2026-09-05 12:56:52 | 52.27442 | 12.16896 | 117° | 195km/h | 11437m | -8.7m/s | -50.2°C | 6.4% | 217.6hPa | 2.6V | 02:50:23 | 03:06:14 | 00:00:00 | |
| HSKMA3-T | 2026-09-05 12:56:51 | 52.27464 | 12.16824 | 117° | 195km/h | 11446m | -9m/s | -50.2°C | 6.5% | 217.3hPa | 2.6V | 02:52:05 | 03:06:13 | 00:00:00 | |
| DF8AY | 2026-09-05 12:56:48 | 52.27555 | 12.16536 | 118° | 197km/h | 11482m | -8.8m/s | -50.1°C | 6.5% | 216.1hPa | 2.6V | 02:50:23 | 03:06:09 | 00:00:00 | |
| DO2SHX-10 | 2026-09-05 12:56:48 | 52.27532 | 12.16608 | 118° | 197km/h | 11473m | -8.9m/s | -50.0°C | 7.5% | 216.4hPa | 2.7V | 02:50:00 | 03:06:10 | 00:00:00 | |
| DF7ER-10 | 2026-09-05 12:56:47 | 52.27532 | 12.16608 | 118° | 197km/h | 11473m | -9.0m/s | -50.1°C | 5.0% | 216.4hPa | 2.6V | 00:00:00 | 00:00:00 | 00:00:00 | |
| DM0DOS-11 | 2026-09-05 12:56:46 | 52.27649 | 12.16249 | 118° | 197km/h | 11517m | -8.5m/s | -50.1°C | 7.6% | 214.9hPa | 2.6V | 02:50:27 | 03:06:05 | 00:00:00 | |
| AA1-15 | 2026-09-05 12:56:46 | 52.27578 | 12.16464 | 118° | 197km/h | 11491m | -9.4m/s | -50.1°C | 6.6% | 215.8hPa | 2.6V | 02:51:14 | 03:06:08 | 00:00:00 | |
| DL1XH-west | 2026-09-05 12:56:42 | 52.27672 | 12.16177 | 119° | 197km/h | 11526m | -8.8m/s | -50.2°C | 6.8% | 214.7hPa | 2.7V | 02:51:14 | 03:06:04 | 00:00:00 | |
| HSKMA3-T | 2026-09-05 12:56:41 | 52.27696 | 12.16106 | 119° | 199km/h | 11535m | -8.6m/s | -50.3°C | 6.8% | 214.4hPa | 2.6V | 02:52:05 | 03:06:03 | 00:00:00 | |
| DB0DAN | 2026-09-05 12:56:40 | 52.27721 | 12.16034 | 119° | 190km/h | 11544m | -8.7m/s | -50.3°C | 5.1% | 214.11hPa | 2.6V | 00:00:00 | 00:00:00 | 00:00:00 | |
| TFSTFS | 2026-09-05 12:56:40 | 52.27721 | 12.16034 | 120° | 199km/h | 11544m | -8.7m/s | -50.3°C | 5.1% | 214.1hPa | 2.6V | 00:00:00 | 00:00:00 | 00:00:00 | |
| DO2SHX-10 | 2026-09-05 12:56:39 | 52.27746 | 12.15963 | 120° | 201km/h | 11553m | -8.6m/s | -50.3°C | 7.6% | 213.8hPa | 2.6V | 02:50:00 | 03:06:01 | 00:00:00 | |
| AM1SDL-15 | 2026-09-05 12:56:37 | 52.27796 | 12.15819 | 120° | 204km/h | 11570m | -9.0m/s | -50.4°C | 7.5% | 213.2hPa | 2.6V | 02:50:00 | 03:05:59 | 00:00:00 | |
| DM0DOS-11 | 2026-09-05 12:56:36 | 52.27898 | 12.15529 | 119° | 203km/h | 11606m | -8.8m/s | -50.5°C | 7.3% | 212.1hPa | 2.6V | 02:50:37 | 03:05:55 | 00:00:00 | |
| DF8AY | 2026-09-05 12:56:36 | 52.27821 | 12.15747 | 120° | 203km/h | 11579m | -8.7m/s | -50.4°C | 6.6% | 212.9hPa | 2.7V | 02:51:14 | 03:05:58 | 00:00:00 | |
| AA1-15 | 2026-09-05 12:56:35 | 52.27847 | 12.15674 | 120° | 203km/h | 11588m | -8.8m/s | -50.4°C | 6.6% | 212.7hPa | 2.7V | 02:51:14 | 03:05:57 | 00:00:00 | |
| DL1XH-west | 2026-09-05 12:56:31 | 52.27949 | 12.15382 | 120° | 204km/h | 11624m | -9.1m/s | -50.6°C | 6.6% | 211.6hPa | 2.6V | 02:51:14 | 03:05:53 | 00:00:00 | |
| DO2SHX-10 | 2026-09-05 12:56:30 | 52.27974 | 12.15309 | 120° | 204km/h | 11632m | -8.9m/s | -50.5°C | 7.5% | 211.2hPa | 2.7V | 02:50:00 | 03:05:52 | 00:00:00 | |
| DC4HF-4 | 2026-09-05 12:56:29 | 52.28000 | 12.15236 | 119° | 204km/h | 11641m | -8.7m/s | -50.6°C | 5.0% | 211.0hPa | 2.7V | 00:00:00 | 00:00:00 | 00:00:00 | |
| S3001 | 2026-09-05 12:56:28 | 52.28051 | 12.15089 | 119° | 204km/h | 11659m | -9.0m/s | -50.7°C | 5.1% | 210.3hPa | 2.7V | 00:00:00 | 00:00:00 | 00:00:00 | |
| DO2SHX-10 | 2026-09-05 12:56:27 | 52.28051 | 12.15088 | 120° | 206km/h | 11660m | -9.0m/s | -50.6°C | 7.6% | 210.3hPa | 2.7V | 00:00:00 | 03:05:49 | 00:00:00 | |
| DM0DOS-11 | 2026-09-05 12:56:26 | 52.28153 | 12.14791 | 119° | 208km/h | 11695m | -8.8m/s | -50.9°C | 7.9% | 209.2hPa | 2.7V | 02:50:47 | 03:05:45 | 00:00:00 | |
| DF8AY | 2026-09-05 12:56:25 | 52.28102 | 12.14940 | 119° | 206km/h | 11677m | -9.1m/s | -50.8°C | 6.8% | 209.8hPa | 2.6V | 02:51:14 | 03:05:47 | 00:00:00 | |
| AA1-15 | 2026-09-05 12:56:24 | 52.28128 | 12.14866 | 119° | 208km/h | 11686m | -9m/s | -50.9°C | 6.9% | 209.6hPa | 2.7V | 02:51:14 | 03:05:46 | 00:00:00 | |
| DL1XH-west | 2026-09-05 12:56:21 | 52.28205 | 12.14641 | 119° | 210km/h | 11713m | -9.1m/s | -50.9°C | 7% | 208.7hPa | 2.6V | 02:51:14 | 03:05:43 | 00:00:00 | |
| DO2SHX-10 | 2026-09-05 12:56:21 | 52.28205 | 12.14641 | 120° | 210km/h | 11713m | -9.0m/s | -50.9°C | 8.0% | 208.6hPa | 2.6V | 02:50:00 | 03:05:43 | 00:00:00 | |
| DL1XH-15 | 2026-09-05 12:56:20 | 52.28308 | 12.14336 | 119° | 212km/h | 11749m | -8.7m/s | -51.3°C | 8.4% | 207.4hPa | 2.6V | 02:50:53 | 03:05:39 | 00:00:00 | |
| HSKMA3-T | 2026-09-05 12:56:20 | 52.28231 | 12.14565 | 119° | 210km/h | 11723m | -9.2m/s | -51°C | 7.1% | 208.4hPa | 2.6V | 02:52:05 | 03:05:42 | 00:00:00 | |
| DB0UT-7 | 2026-09-05 12:56:19 | 52.28256 | 12.14489 | 119° | 208km/h | 11732m | -9.1m/s | -51.0°C | 8.2% | 208.0hPa | 2.6V | 00:00:00 | 03:05:41 | 00:00:00 | |
| DO2SHX-10 | 2026-09-05 12:56:18 | 52.28282 | 12.14413 | 119° | 212km/h | 11741m | -8.9m/s | -51.1°C | 8.4% | 207.7hPa | 2.6V | 00:00:00 | 03:05:40 | 00:00:00 | |
| DL1XH1-15 | 2026-09-05 12:56:16 | 52.28467 | 12.13879 | 120° | 214km/h | 11803m | -9.1m/s | -51.8°C | 8.5% | 205.8hPa | 2.6V | 02:50:59 | 03:05:33 | 00:00:00 | |
| DM0DOS-11 | 2026-09-05 12:56:15 | 52.28413 | 12.14031 | 119° | 212km/h | 11785m | -9m/s | -51.6°C | 8.5% | 206.3hPa | 2.6V | 02:50:57 | 03:05:35 | 00:00:00 | |
| DF8AY | 2026-09-05 12:56:15 | 52.28360 | 12.14184 | 119° | 212km/h | 11767m | -8.8m/s | -51.4°C | 7.3% | 206.9hPa | 2.6V | 02:51:14 | 03:05:37 | 00:00:00 | |
| AA1-15 | 2026-09-05 12:56:13 | 52.28413 | 12.14031 | 120° | 212km/h | 11785m | -9m/s | -51.6°C | 7.3% | 206.3hPa | 2.6V | 02:51:14 | 03:05:35 | 00:00:00 | |
| DF8AY-15 | 2026-09-05 12:56:13 | 52.28413 | 12.14031 | 120° | 210km/h | 11785m | -9.0m/s | -51.6°C | 8.5% | 206.3hPa | 2.6V | 00:00:00 | 03:05:35 | 00:00:00 | |
| DL1XH-15 | 2026-09-05 12:56:12 | 52.28575 | 12.13576 | 120° | 212km/h | 11840m | -9.4m/s | -51.9°C | 8.3% | 204.6hPa | 2.6V | 02:51:03 | 03:05:29 | 00:00:00 | |
| DL1XH-west | 2026-09-05 12:56:11 | 52.28467 | 12.13879 | 120° | 214km/h | 11803m | -9.1m/s | -51.8°C | 7.2% | 205.8hPa | 2.6V | 02:51:14 | 03:05:33 | 00:00:00 | |
| DB0DAN | 2026-09-05 12:56:10 | 52.28494 | 12.13803 | 120° | 203km/h | 11812m | -9m/s | -51.9°C | 5.7% | 205.46hPa | 2.6V | 00:00:00 | 00:00:00 | 00:00:00 | |
| DO2SHX-10 | 2026-09-05 12:56:09 | 52.28521 | 12.13727 | 121° | 212km/h | 11822m | -9.4m/s | -51.8°C | 8.4% | 205.2hPa | 2.6V | 00:00:00 | 03:05:31 | 00:00:00 | |
| DM0DOS-11 | 2026-09-05 12:56:08 | 52.28684 | 12.13277 | 120° | 210km/h | 11876m | -9.3m/s | -51.6°C | 7.8% | 203.5hPa | 2.6V | 02:51:07 | 03:05:25 | 00:00:00 | |
| DL1XH1-15 | 2026-09-05 12:56:06 | 52.28739 | 12.13129 | 121° | 210km/h | 11895m | -9m/s | -51.4°C | 7.4% | 202.9hPa | 2.6V | 02:51:09 | 03:05:23 | 00:00:00 | |
| DF8AY | 2026-09-05 12:56:05 | 52.28629 | 12.13426 | 121° | 212km/h | 11859m | -9.1m/s | -51.8°C | 6.6% | 204.1hPa | 2.6V | 02:51:14 | 03:05:27 | 00:00:00 | |
| HSKMA3-T | 2026-09-05 12:56:04 | 52.28657 | 12.13351 | 121° | 210km/h | 11867m | -8.7m/s | -51.7°C | 6.5% | 203.7hPa | 2.6V | 02:52:05 | 03:05:26 | 00:00:00 | |
| AA1-15 | 2026-09-05 12:56:02 | 52.28711 | 12.13203 | 121° | 210km/h | 11886m | -9m/s | -51.4°C | 6.2% | 203.2hPa | 2.7V | 02:51:14 | 03:05:24 | 00:00:00 | |
| DL1XH-west | 2026-09-05 12:56:00 | 52.28767 | 12.13055 | 122° | 208km/h | 11904m | -8.9m/s | -51.3°C | 5.9% | 202.7hPa | 2.6V | 02:51:14 | 03:05:22 | 00:00:00 | |
| DO2SHX-10 | 2026-09-05 12:56:00 | 52.28767 | 12.13055 | 122° | 208km/h | 11904m | -8.9m/s | -51.3°C | 7.3% | 202.6hPa | 2.6V | 00:00:00 | 03:05:22 | 00:00:00 | |
| DM0DOS-11 | 2026-09-05 12:55:58 | 52.28962 | 12.12556 | 123° | 203km/h | 11967m | -9.1m/s | -51.2°C | 6.4% | 200.6hPa | 2.6V | 02:51:17 | 03:05:15 | 00:00:00 | |
| DO2SHX-10 | 2026-09-05 12:55:57 | 52.28850 | 12.12839 | 123° | 204km/h | 11931m | -9.3m/s | -51.0°C | 6.8% | 201.8hPa | 2.7V | 00:00:00 | 03:05:19 | 00:00:00 | |
| DL1XH1-15 | 2026-09-05 12:55:56 | 52.29018 | 12.12417 | 123° | 201km/h | 11986m | -9.2m/s | -51.4°C | 6.2% | 200.1hPa | 2.7V | 02:51:19 | 03:05:13 | 00:00:00 | |
| DB0DAN | 2026-09-05 12:55:55 | 52.28906 | 12.12697 | 123° | 195km/h | 11949m | -9.1m/s | -51°C | 4.1% | 201.23hPa | 2.6V | 00:00:00 | 00:00:00 | 00:00:00 | |
| DF8AY | 2026-09-05 12:55:54 | 52.29100 | 12.12213 | 124° | 197km/h | 12013m | -8.7m/s | -51.2°C | 3.9% | 199.2hPa | 2.6V | 02:52:05 | 03:05:10 | 00:00:00 | |
| AA1-15 | 2026-09-05 12:55:52 | 52.28990 | 12.12487 | 123° | 201km/h | 11977m | -9.2m/s | -51.3°C | 4.7% | 200.4hPa | 2.6V | 02:52:05 | 03:05:14 | 00:00:00 | |
| DL1XH-west | 2026-09-05 12:55:50 | 52.29045 | 12.12349 | 123° | 199km/h | 11995m | -9.1m/s | -51.2°C | 4.2% | 199.8hPa | 2.7V | 02:52:05 | 03:05:12 | 00:00:00 | |
| TFSTFS | 2026-09-05 12:55:49 | 52.29073 | 12.12280 | 124° | 197km/h | 12004m | -8.9m/s | -51.3°C | 3.5% | 199.5hPa | 2.6V | 02:52:00 | 00:00:00 | 00:00:00 | |
| DO2SHX-10 | 2026-09-05 12:55:48 | 52.29100 | 12.12212 | 124° | 197km/h | 12013m | -8.7m/s | -51.2°C | 5.7% | 199.2hPa | 2.6V | 00:00:00 | 03:05:10 | 00:00:00 | |
| DL1XH1-15 | 2026-09-05 12:55:46 | 52.29291 | 12.11744 | 123° | 192km/h | 12078m | -9.2m/s | -51.6°C | 5.2% | 197.3hPa | 2.6V | 02:51:29 | 03:05:03 | 00:00:00 | |
| DF8AY | 2026-09-05 12:55:43 | 52.29237 | 12.11877 | 124° | 193km/h | 12059m | -9.2m/s | -51.6°C | 3.3% | 197.8hPa | 2.7V | 02:52:05 | 03:05:05 | 00:00:00 | |
| AA1-15 | 2026-09-05 12:55:41 | 52.29291 | 12.11744 | 123° | 192km/h | 12078m | -9.2m/s | -51.7°C | 3.1% | 197.3hPa | 2.6V | 02:52:05 | 03:05:03 | 00:00:00 | |
| DB0ND-19 | 2026-09-05 12:55:41 | 52.29317 | 12.11678 | 122° | 192km/h | 12087m | -9.2m/s | -51.7°C | 2.9% | 197.0hPa | 2.7V | 00:00:00 | 00:00:00 | 00:00:00 | |
| DL1XH-15 | 2026-09-05 12:55:40 | 52.29396 | 12.11478 | 122° | 192km/h | 12114m | -9.2m/s | -52°C | 5.2% | 196.2hPa | 2.7V | 02:51:33 | 03:04:59 | 00:00:00 | |
| HSKMA3-T | 2026-09-05 12:55:40 | 52.29317 | 12.11678 | 123° | 192km/h | 12087m | -9.2m/s | -51.7°C | 3% | 197hPa | 2.6V | 02:52:05 | 03:05:02 | 00:00:00 | |
| DL1XH-west | 2026-09-05 12:55:39 | 52.29344 | 12.11611 | 123° | 192km/h | 12096m | -8.8m/s | -51.8°C | 3% | 196.8hPa | 2.7V | 02:52:05 | 03:05:01 | 00:00:00 | |
| DO2SHX-10 | 2026-09-05 12:55:39 | 52.29343 | 12.11611 | 123° | 192km/h | 12096m | -8.7m/s | -51.8°C | 5.3% | 196.7hPa | 2.7V | 00:00:00 | 03:05:01 | 00:00:00 | |
| DM0DOS-11 | 2026-09-05 12:55:38 | 52.29498 | 12.11211 | 121° | 188km/h | 12151m | -9.2m/s | -52°C | 5.1% | 195hPa | 2.7V | 02:51:37 | 03:04:55 | 00:00:00 | |
| DL1XH1-15 | 2026-09-05 12:55:36 | 52.29548 | 12.11079 | 121° | 186km/h | 12170m | -9.7m/s | -52°C | 5.2% | 194.4hPa | 2.7V | 02:51:39 | 03:04:53 | 00:00:00 | |
| DF8AY | 2026-09-05 12:55:32 | 52.29647 | 12.10818 | 122° | 186km/h | 12208m | -9.6m/s | -52.2°C | 2.5% | 193.3hPa | 2.7V | 02:52:05 | 03:04:49 | 00:00:00 | |
| DL1XH-15 | 2026-09-05 12:55:32 | 52.29647 | 12.10818 | 122° | 186km/h | 12208m | -9.6m/s | -52.2°C | 5.1% | 193.3hPa | 2.7V | 02:51:43 | 03:04:49 | 00:00:00 | |
| AA1-15 | 2026-09-05 12:55:31 | 52.29547 | 12.11079 | 122° | 186km/h | 12170m | -9.7m/s | -52°C | 2.6% | 194.5hPa | 2.7V | 02:52:05 | 03:04:53 | 00:00:00 | |
| HSKMA3-T | 2026-09-05 12:55:29 | 52.29597 | 12.10948 | 122° | 186km/h | 12189m | -10m/s | -52.1°C | 2.6% | 193.9hPa | 2.6V | 02:52:05 | 03:04:51 | 00:00:00 | |
| DM0DOS-11 | 2026-09-05 12:55:28 | 52.29749 | 12.10559 | 122° | 186km/h | 12245m | -9.5m/s | -52.4°C | 4.9% | 192.2hPa | 2.6V | 02:51:47 | 03:04:45 | 00:00:00 | |
| DL1XH1-15 | 2026-09-05 12:55:27 | 52.29799 | 12.10430 | 122° | 184km/h | 12263m | -9.3m/s | -52.4°C | 4.8% | 191.7hPa | 2.7V | 02:51:49 | 03:04:43 | 00:00:00 | |
| DF8AY | 2026-09-05 12:55:22 | 52.29774 | 12.10495 | 123° | 184km/h | 12254m | -8.8m/s | -52.4°C | 2.2% | 191.9hPa | 2.6V | 02:52:05 | 03:04:44 | 00:00:00 | |
| AA1-15 | 2026-09-05 12:55:20 | 52.29824 | 12.10366 | 123° | 184km/h | 12272m | -9.2m/s | -52.5°C | 2.1% | 191.4hPa | 2.7V | 02:52:05 | 03:04:42 | 00:00:00 | |
| DL1XH-west | 2026-09-05 12:55:19 | 52.29850 | 12.10302 | 123° | 184km/h | 12282m | -9.1m/s | -52.5°C | 2% | 191.2hPa | 2.6V | 02:52:05 | 03:04:41 | 00:00:00 | |
| HSKMA3-T | 2026-09-05 12:55:18 | 52.29875 | 12.10238 | 123° | 184km/h | 12291m | -9.5m/s | -52.5°C | 2% | 190.9hPa | 2.6V | 02:52:05 | 03:04:40 | 00:00:00 | |
| DC4HF-4 | 2026-09-05 12:55:17 | 52.29900 | 12.10174 | 122° | 181km/h | 12300m | -9.2m/s | -52.3°C | 2.3% | 190.6hPa | 2.6V | 00:00:00 | 00:00:00 | 00:00:00 | |
| DL1XH1-15 | 2026-09-05 12:55:16 | 52.30048 | 12.09802 | 122° | 177km/h | 12355m | -9.3m/s | -52.2°C | 4.6% | 189hPa | 2.6V | 02:51:59 | 03:04:33 | 00:00:00 | |
| DF8AY | 2026-09-05 12:55:12 | 52.30023 | 12.09863 | 123° | 177km/h | 12346m | -9.3m/s | -52.2°C | 1.8% | 189.2hPa | 2.6V | 02:52:05 | 03:04:34 | 00:00:00 | |
| AA1-15 | 2026-09-05 12:55:09 | 52.30096 | 12.09680 | 123° | 175km/h | 12373m | -9.2m/s | -52.4°C | 1.7% | 188.5hPa | 2.7V | 02:52:05 | 03:04:31 | 00:00:00 | |
| HSKMA3-T | 2026-09-05 12:55:08 | 52.30120 | 12.09619 | 123° | 173km/h | 12383m | -9.1m/s | -52.4°C | 1.7% | 188.2hPa | 2.7V | 02:52:05 | 03:04:30 | 00:00:00 | |
| DL1XH1-15 | 2026-09-05 12:55:06 | 52.30285 | 12.09207 | 123° | 168km/h | 12447m | -9.3m/s | -52.6°C | 4.3% | 186.4hPa | 2.7V | 02:52:09 | 03:04:23 | 00:00:00 | |
| DF8AY | 2026-09-05 12:55:01 | 52.30285 | 12.09207 | 124° | 168km/h | 12447m | -9.3m/s | -52.6°C | 1.4% | 186.4hPa | 2.7V | 02:52:56 | 03:04:23 | 00:00:00 | |
| DD8BA-10 | 2026-09-05 12:55:01 | 52.30285 | 12.09206 | 124° | 166km/h | 12447m | -9.3m/s | -52.5°C | 4.3% | 186.3hPa | 2.7V | 02:52:00 | 00:00:00 | 00:00:00 | |
| DL1XH-15 | 2026-09-05 12:55:00 | 52.30377 | 12.08976 | 122° | 166km/h | 12484m | -9.1m/s | -52.5°C | 4.2% | 185.2hPa | 2.7V | 02:52:13 | 03:04:19 | 00:00:00 | |
| AA1-15 | 2026-09-05 12:54:59 | 52.30331 | 12.09091 | 123° | 166km/h | 12465m | -9.5m/s | -52.6°C | 1.3% | 185.8hPa | 2.6V | 02:52:56 | 03:04:21 | 00:00:00 | |
| DM0DOS-11 | 2026-09-05 12:54:58 | 52.30465 | 12.08745 | 121° | 164km/h | 12521m | -9.2m/s | -52.4°C | 4.3% | 184.2hPa | 2.6V | 02:52:17 | 03:04:15 | 00:00:00 | |
| HSKMA3-T | 2026-09-05 12:54:58 | 52.30354 | 12.09034 | 123° | 166km/h | 12475m | -9.5m/s | -52.6°C | 1.3% | 185.6hPa | 2.6V | 02:52:56 | 03:04:20 | 00:00:00 | |
| DL1XH-west | 2026-09-05 12:54:57 | 52.30377 | 12.08976 | 123° | 166km/h | 12484m | -9.1m/s | -52.5°C | 1.2% | 185.2hPa | 2.7V | 02:52:56 | 03:04:19 | 00:00:00 | |
| DO2SHX-10 | 2026-09-05 12:54:57 | 52.30377 | 12.08976 | 123° | 166km/h | 12484m | -9.0m/s | -52.4°C | 4.2% | 185.2hPa | 2.7V | 00:00:00 | 03:04:19 | 00:00:00 | |
| DL1XH1-15 | 2026-09-05 12:54:56 | 52.30508 | 12.08630 | 121° | 162km/h | 12539m | -9.1m/s | -52.5°C | 4.3% | 183.7hPa | 2.7V | 02:52:19 | 03:04:13 | 00:00:00 | |
| EDDB2-11 | 2026-09-05 12:54:55 | 52.30422 | 12.08861 | 121° | 164km/h | 12503m | -9.4m/s | -52.4°C | 1.9% | 184.7hPa | 2.6V | 00:00:00 | 00:00:00 | 00:00:00 | |
| DB0DAN | 2026-09-05 12:54:55 | 52.30422 | 12.08861 | 122° | 157km/h | 12503m | -9.4m/s | -52.4°C | 1.9% | 184.73hPa | 2.7V | 00:00:00 | 00:00:00 | 00:00:00 | |
| DO2SHX-10 | 2026-09-05 12:54:54 | 52.30444 | 12.08803 | 122° | 164km/h | 12512m | -9.3m/s | -52.4°C | 4.2% | 184.4hPa | 2.6V | 00:00:00 | 03:04:16 | 00:00:00 | |
| DF8AY-15 | 2026-09-05 12:54:53 | 52.30465 | 12.08745 | 122° | 159km/h | 12521m | -9.2m/s | -52.4°C | 4.3% | 184.2hPa | 2.6V | 02:52:00 | 03:04:15 | 00:00:00 | |
| DL1XH-15 | 2026-09-05 12:54:52 | 52.30592 | 12.08401 | 121° | 161km/h | 12577m | -9.3m/s | -52.3°C | 4.2% | 182.6hPa | 2.6V | 02:52:23 | 03:04:09 | 00:00:00 | |
| DF8AY | 2026-09-05 12:54:51 | 52.30508 | 12.08630 | 121° | 162km/h | 12539m | -9.1m/s | -52.5°C | 1.2% | 183.7hPa | 2.7V | 02:52:56 | 03:04:13 | 00:00:00 | |
| AA1-15 | 2026-09-05 12:54:48 | 52.30571 | 12.08458 | 121° | 161km/h | 12567m | -9.6m/s | -52.3°C | 1.2% | 182.8hPa | 2.6V | 02:52:56 | 03:04:10 | 00:00:00 | |
| DL1XH-west | 2026-09-05 12:54:47 | 52.30592 | 12.08401 | 121° | 161km/h | 12577m | -9.3m/s | -52.3°C | 1.1% | 182.6hPa | 2.6V | 02:52:56 | 03:04:09 | 00:00:00 | |
| DO2SHX-10 | 2026-09-05 12:54:45 | 52.30634 | 12.08288 | 122° | 159km/h | 12596m | -9.5m/s | -52.3°C | 4.1% | 182.1hPa | 2.6V | 00:00:00 | 03:04:07 | 00:00:00 | |
| TFSTFS | 2026-09-05 12:54:44 | 52.30634 | 12.08288 | 122° | 161km/h | 12596m | -9.6m/s | -52.3°C | 1.8% | 182.1hPa | 2.6V | 02:52:00 | 00:00:00 | 00:00:00 | |
| DJ2DS-15 | 2026-09-05 12:54:43 | 52.30675 | 12.08176 | 121° | 157km/h | 12614m | -9.3m/s | -52.2°C | 1.8% | 181.6hPa | 2.6V | 00:00:00 | 00:00:00 | 00:00:00 | |
| DO2SHX-10 | 2026-09-05 12:54:42 | 52.30696 | 12.08120 | 122° | 157km/h | 12624m | -9.6m/s | -52.1°C | 4.0% | 181.3hPa | 2.6V | 02:52:00 | 03:04:04 | 00:00:00 | |
| DD8BA-10 | 2026-09-05 12:54:41 | 52.30717 | 12.08065 | 122° | 153km/h | 12634m | -9.4m/s | -52.2°C | 4.0% | 181.0hPa | 2.7V | 00:00:00 | 00:00:00 | 00:00:00 | |
| DL1XH-15 | 2026-09-05 12:54:40 | 52.30797 | 12.07843 | 120° | 155km/h | 12671m | -9.7m/s | -52.2°C | 4% | 180hPa | 2.7V | 02:52:33 | 03:03:59 | 00:00:00 | |
| DF8AY | 2026-09-05 12:54:40 | 52.30737 | 12.08009 | 121° | 157km/h | 12643m | -9.7m/s | -52.2°C | 0.8% | 180.8hPa | 2.6V | 02:52:56 | 03:04:02 | 00:00:00 | |
| AA1-15 | 2026-09-05 12:54:38 | 52.30778 | 12.07899 | 121° | 155km/h | 12662m | -9.2m/s | -52.2°C | 1% | 180.3hPa | 2.7V | 02:52:56 | 03:04:00 | 00:00:00 | |
| DL1XH-west | 2026-09-05 12:54:36 | 52.30817 | 12.07788 | 120° | 153km/h | 12681m | -9.6m/s | -52.2°C | 1% | 179.7hPa | 2.6V | 02:52:56 | 03:03:58 | 00:00:00 | |
| AM1SDL-15 | 2026-09-05 12:54:35 | 52.30836 | 12.07733 | 120° | 151km/h | 12691m | -9.3m/s | -52.1°C | 4.2% | 179.4hPa | 2.7V | 00:00:00 | 03:03:57 | 00:00:00 | |
| DO2SHX-10 | 2026-09-05 12:54:33 | 52.30874 | 12.07623 | 120° | 151km/h | 12709m | -9.1m/s | -52.3°C | 4.2% | 178.9hPa | 2.7V | 02:52:00 | 03:03:55 | 00:00:00 | |
| DL1XH-15 | 2026-09-05 12:54:32 | 52.30987 | 12.07297 | 119° | 150km/h | 12765m | -9.8m/s | -52.2°C | 4.1% | 177.4hPa | 2.7V | 02:52:43 | 03:03:49 | 00:00:00 | |
| DF8AY | 2026-09-05 12:54:30 | 52.30930 | 12.07459 | 120° | 151km/h | 12736m | -9m/s | -52.4°C | 1.2% | 178.2hPa | 2.6V | 02:52:56 | 03:03:52 | 00:00:00 | |
| DO2SHX-10 | 2026-09-05 12:54:30 | 52.30930 | 12.07459 | 120° | 151km/h | 12736m | -8.9m/s | -52.4°C | 4.3% | 178.1hPa | 2.6V | 00:00:00 | 03:03:52 | 00:00:00 | |
| DM0DOS-11 | 2026-09-05 12:54:27 | 52.31061 | 12.07083 | 118° | 148km/h | 12802m | -9.2m/s | -52.1°C | 3.9% | 176.3hPa | 2.6V | 02:52:47 | 03:03:45 | 00:00:00 | |
| AA1-15 | 2026-09-05 12:54:27 | 52.30987 | 12.07297 | 120° | 150km/h | 12765m | -9.8m/s | -52.2°C | 0.9% | 177.4hPa | 2.7V | 02:52:56 | 03:03:49 | 00:00:00 | |
| HSKMA3-T | 2026-09-05 12:54:26 | 52.31006 | 12.07244 | 120° | 150km/h | 12774m | -9.3m/s | -52.2°C | 0.9% | 177.2hPa | 2.7V | 02:52:56 | 03:03:48 | 00:00:00 | |
| DL1XH1-15 | 2026-09-05 12:54:26 | 52.31096 | 12.06977 | 118° | 146km/h | 12820m | -9m/s | -51.9°C | 3.8% | 175.9hPa | 2.7V | 02:52:49 | 03:03:43 | 00:00:00 | |
| DL1XH-west | 2026-09-05 12:54:25 | 52.31024 | 12.07190 | 120° | 150km/h | 12784m | -9.2m/s | -52.2°C | 0.8% | 176.9hPa | 2.7V | 02:52:56 | 03:03:47 | 00:00:00 | |
| DB0DAN | 2026-09-05 12:54:25 | 52.31024 | 12.07190 | 120° | 142km/h | 12784m | -9.2m/s | -52.2°C | 1.6% | 176.88hPa | 2.7V | 00:00:00 | 00:00:00 | 00:00:00 | |
| DL1ZP-14 | 2026-09-05 12:54:23 | 52.31079 | 12.07030 | 118° | 146km/h | 12811m | -9.4m/s | -52.1°C | 1.6% | 176.1hPa | 2.6V | 00:00:00 | 00:00:00 | 00:00:00 | |
| DO2SHX-10 | 2026-09-05 12:54:21 | 52.31096 | 12.06976 | 119° | 146km/h | 12820m | -9.0m/s | -51.9°C | 3.8% | 175.8hPa | 2.6V | 00:00:00 | 03:03:43 | 00:00:00 | |
| DL1XH-15 | 2026-09-05 12:54:20 | 52.31165 | 12.06764 | 117° | 144km/h | 12857m | -9.1m/s | -51.6°C | 3.6% | 174.9hPa | 2.6V | 02:52:53 | 03:03:39 | 00:00:00 | |
| DF8AY | 2026-09-05 12:54:19 | 52.31131 | 12.06870 | 118° | 146km/h | 12838m | -9.1m/s | -51.8°C | 0.4% | 175.3hPa | 2.7V | 02:52:56 | 03:03:41 | 00:00:00 | |
| DB0UT-7 | 2026-09-05 12:54:19 | 52.31131 | 12.06870 | 118° | 137km/h | 12838m | -9.1m/s | -51.7°C | 3.7% | 175.3hPa | 2.7V | 02:52:00 | 03:03:41 | 00:00:00 | |
| DO2SHX-10 | 2026-09-05 12:54:18 | 52.31148 | 12.06817 | 118° | 144km/h | 12848m | -9.2m/s | -51.6°C | 3.7% | 175.1hPa | 2.7V | 00:00:00 | 03:03:40 | 00:00:00 | |
| DM0DOS-11 | 2026-09-05 12:54:17 | 52.31229 | 12.06556 | 116° | 139km/h | 12894m | -9.4m/s | -51.4°C | 3.6% | 173.9hPa | 2.7V | 02:52:57 | 03:03:35 | 00:00:00 | |
| AA1-15 | 2026-09-05 12:54:17 | 52.31165 | 12.06764 | 117° | 144km/h | 12857m | -9.1m/s | -51.6°C | 0.3% | 174.9hPa | 2.6V | 02:52:56 | 03:03:39 | 00:00:00 | |
| DL1XH-west | 2026-09-05 12:54:15 | 52.31198 | 12.06659 | 117° | 142km/h | 12875m | -9.3m/s | -51.6°C | 0.3% | 174.4hPa | 2.7V | 02:52:56 | 03:03:37 | 00:00:00 | |
| DO2SHX-10 | 2026-09-05 12:54:15 | 52.31197 | 12.06659 | 117° | 141km/h | 12875m | -9.2m/s | -51.5°C | 3.6% | 174.3hPa | 2.7V | 02:52:00 | 03:03:37 | 00:00:00 | |
| DL1NUX | 2026-09-05 12:54:13 | 52.31308 | 12.06302 | 117° | 137km/h | 12940m | -9.1m/s | -51.3°C | 3.5% | 172.6hPa | 2.7V | 02:53:02 | 03:03:30 | 00:00:00 | |
| DF8AY-15 | 2026-09-05 12:54:13 | 52.31229 | 12.06556 | 117° | 135km/h | 12894m | -9.4m/s | -51.3°C | 3.6% | 173.8hPa | 2.7V | 00:00:00 | 03:03:35 | 00:00:00 | |
| DB0NH | 2026-09-05 12:54:12 | 52.31245 | 12.06504 | 117° | 133km/h | 12903m | -9.2m/s | -51.2°C | 3.5% | 173.6hPa | 2.7V | 00:00:00 | 03:03:34 | 00:00:00 | |
| DD8BA-10 | 2026-09-05 12:54:11 | 52.31261 | 12.06453 | 117° | 137km/h | 12912m | -9.5m/s | -51.2°C | 3.5% | 173.3hPa | 2.7V | 00:00:00 | 00:00:00 | 00:00:00 | |
| DL1XH-15 | 2026-09-05 12:54:10 | 52.31324 | 12.06252 | 117° | 137km/h | 12949m | -9.1m/s | -51.3°C | 3.5% | 172.4hPa | 2.7V | 02:53:03 | 03:03:29 | 00:00:00 | |
| DF8AY | 2026-09-05 12:54:09 | 52.31292 | 12.06352 | 117° | 137km/h | 12930m | -9.5m/s | -51.3°C | 0.2% | 172.9hPa | 2.7V | 02:53:47 | 03:03:31 | 00:00:00 | |
| AA1-15 | 2026-09-05 12:54:06 | 52.31340 | 12.06202 | 118° | 137km/h | 12958m | -9.5m/s | -51.3°C | 0.1% | 172.2hPa | 2.6V | 02:53:47 | 03:03:28 | 00:00:00 | |
| DL1XH-west | 2026-09-05 12:54:04 | 52.31372 | 12.06102 | 117° | 137km/h | 12977m | -9.2m/s | -51.4°C | 0.1% | 171.7hPa | 2.6V | 02:53:47 | 03:03:26 | 00:00:00 | |
| DO2SHX-10 | 2026-09-05 12:54:03 | 52.31388 | 12.06052 | 118° | 137km/h | 12986m | -9.2m/s | -51.3°C | 3.4% | 171.4hPa | 2.7V | 00:00:00 | 03:03:25 | 00:00:00 | |
| TFSTFS | 2026-09-05 12:54:01 | 52.31420 | 12.05953 | 119° | 135km/h | 13004m | -9.2m/s | -51.2°C | 1.2% | 171.0hPa | 2.7V | 00:00:00 | 00:00:00 | 00:00:00 | |
| DL1XH-15 | 2026-09-05 12:54:00 | 52.31483 | 12.05756 | 118° | 133km/h | 13042m | -9.2m/s | -50.7°C | 3.2% | 170hPa | 2.7V | 02:53:13 | 03:03:19 | 00:00:00 | |
| DF8AY | 2026-09-05 12:53:58 | 52.31468 | 12.05805 | 118° | 135km/h | 13032m | -9.6m/s | -50.8°C | 0% | 170.2hPa | 2.6V | 02:53:47 | 03:03:20 | 00:00:00 | |
| DM0DOS-11 | 2026-09-05 12:53:58 | 52.31548 | 12.05564 | 118° | 131km/h | 13079m | -9.3m/s | -50.8°C | 3.2% | 169hPa | 2.6V | 02:53:17 | 03:03:15 | 00:00:00 | |
| DO2SHX-10 | 2026-09-05 12:53:57 | 52.31484 | 12.05756 | 119° | 133km/h | 13042m | -9.2m/s | -50.7°C | 3.2% | 170.0hPa | 2.7V | 02:53:00 | 03:03:19 | 00:00:00 | |
| DL1XH1-15 | 2026-09-05 12:53:56 | 52.31579 | 12.05469 | 118° | 130km/h | 13098m | -9.6m/s | -50.8°C | 3.3% | 168.5hPa | 2.7V | 02:53:19 | 03:03:13 | 00:00:00 | |
| AA1-15 | 2026-09-05 12:53:55 | 52.31516 | 12.05659 | 118° | 133km/h | 13060m | -9.3m/s | -50.7°C | 0% | 169.5hPa | 2.7V | 02:53:47 | 03:03:17 | 00:00:00 | |
| HSKMA3-T | 2026-09-05 12:53:54 | 52.31532 | 12.05611 | 119° | 131km/h | 13070m | -9.3m/s | -50.7°C | 0% | 169.2hPa | 2.6V | 02:55:29 | 03:03:16 | 00:00:00 | |
| DL1XH-west | 2026-09-05 12:53:53 | 52.31547 | 12.05564 | 119° | 131km/h | 13079m | -9.4m/s | -50.8°C | 0% | 169hPa | 2.6V | 02:53:47 | 03:03:15 | 00:00:00 | |
| EDDB2-11 | 2026-09-05 12:53:53 | 52.31563 | 12.05516 | 118° | 130km/h | 13088m | -9.5m/s | -50.8°C | 1.1% | 168.8hPa | 2.7V | 00:00:00 | 00:00:00 | 00:00:00 | |
| DL1ZP-14 | 2026-09-05 12:53:52 | 52.31579 | 12.05469 | 118° | 130km/h | 13098m | -9.6m/s | -50.8°C | 1.1% | 168.5hPa | 2.7V | 00:00:00 | 00:00:00 | 00:00:00 | |
| DO2SHX-10 | 2026-09-05 12:53:51 | 52.31579 | 12.05469 | 119° | 130km/h | 13098m | -9.6m/s | -50.7°C | 3.3% | 168.5hPa | 2.6V | 00:00:00 | 03:03:13 | 00:00:00 | |
| DL1XH-15 | 2026-09-05 12:53:50 | 52.31642 | 12.05280 | 118° | 131km/h | 13135m | -9.6m/s | -50.7°C | 3.2% | 167.6hPa | 2.6V | 02:53:23 | 03:03:09 | 00:00:00 | |
| DF8AY | 2026-09-05 12:53:47 | 52.31642 | 12.05280 | 119° | 131km/h | 13135m | -9.6m/s | -50.7°C | 0% | 167.6hPa | 2.6V | 02:53:47 | 03:03:09 | 00:00:00 | |
| DL1XH1-15 | 2026-09-05 12:53:46 | 52.31737 | 12.04989 | 117° | 135km/h | 13192m | -9.7m/s | -50.5°C | 3.1% | 166.1hPa | 2.6V | 02:53:29 | 03:03:03 | 00:00:00 | |
| DO2SHX-10 | 2026-09-05 12:53:45 | 52.31674 | 12.05184 | 119° | 133km/h | 13155m | -9.3m/s | -50.5°C | 3.2% | 167.0hPa | 2.7V | 00:00:00 | 03:03:07 | 00:00:00 | |
| AA1-15 | 2026-09-05 12:53:45 | 52.31674 | 12.05184 | 118° | 131km/h | 13154m | -9.3m/s | -50.6°C | 0% | 167hPa | 2.7V | 02:53:47 | 03:03:07 | 00:00:00 | |
| DM0DOS-11 | 2026-09-05 12:53:44 | 52.31706 | 12.05087 | 118° | 133km/h | 13173m | -9.3m/s | -50.5°C | 3.1% | 166.6hPa | 2.7V | 02:53:27 | 03:03:05 | 00:00:00 | |
| DL1XH-west | 2026-09-05 12:53:43 | 52.31706 | 12.05087 | 118° | 133km/h | 13173m | -9.3m/s | -50.5°C | 0% | 166.6hPa | 2.7V | 02:53:47 | 03:03:05 | 00:00:00 | |
| SP3WXH-11 | 2026-09-05 12:53:43 | 52.31722 | 12.05039 | 117° | 133km/h | 13183m | -9.5m/s | -50.5°C | 1.1% | 166.3hPa | 2.7V | 00:00:00 | 00:00:00 | 00:00:00 | |
| DO2SHX-10 | 2026-09-05 12:53:42 | 52.31721 | 12.05038 | 118° | 135km/h | 13183m | -9.5m/s | -50.4°C | 3.1% | 166.2hPa | 2.7V | 00:00:00 | 03:03:04 | 00:00:00 | |
| DL4XJ-10 | 2026-09-05 12:53:41 | 52.31737 | 12.04989 | 118° | 139km/h | 13193m | -9.7m/s | -50.6°C | 0% | 0hPa | 2.7V | 00:00:00 | 00:00:00 | 00:00:00 | |
| DL1XH-15 | 2026-09-05 12:53:40 | 52.31798 | 12.04787 | 115° | 137km/h | 13230m | -9.5m/s | -50.4°C | 3.2% | 165.2hPa | 2.7V | 02:53:33 | 03:02:59 | 00:00:00 | |
| DB0DAN | 2026-09-05 12:53:40 | 52.31753 | 12.04939 | 117° | 130km/h | 13201m | -9.5m/s | -50.5°C | 1% | 165.87hPa | 2.6V | 00:00:00 | 00:00:00 | 00:00:00 | |
| DF8AY | 2026-09-05 12:53:36 | 52.31813 | 12.04736 | 115° | 137km/h | 13240m | -9.3m/s | -50.4°C | 0% | 164.9hPa | 2.6V | 02:53:47 | 03:02:58 | 00:00:00 | |
| DO2SHX-10 | 2026-09-05 12:53:36 | 52.31813 | 12.04736 | 116° | 137km/h | 13240m | -9.2m/s | -50.3°C | 3.2% | 164.8hPa | 2.7V | 00:00:00 | 03:02:58 | 00:00:00 | |
| 13BRC | 2026-09-05 12:53:35 | 52.31813 | 12.04736 | 116° | 137km/h | 13240m | -9.3m/s | -50.4°C | 1.1% | 164.9hPa | 2.7V | 02:53:00 | 00:00:00 | 00:00:00 | |
| DM0DOS-11 | 2026-09-05 12:53:34 | 52.31857 | 12.04581 | 114° | 137km/h | 13267m | -9.5m/s | -50.5°C | 3.3% | 164.2hPa | 2.7V | 02:53:37 | 03:02:55 | 00:00:00 | |
| AA1-15 | 2026-09-05 12:53:34 | 52.31842 | 12.04633 | 115° | 137km/h | 13258m | -9.3m/s | -50.5°C | 0% | 164.4hPa | 2.6V | 02:53:47 | 03:02:56 | 00:00:00 | |
| DL2RXE-15 | 2026-09-05 12:53:34 | 52.31842 | 12.04633 | 116° | 137km/h | 13258m | -9.3m/s | -50.5°C | 1.1% | 164.5hPa | 2.6V | 00:00:00 | 00:00:00 | 00:00:00 | |
| DO2SHX-10 | 2026-09-05 12:53:33 | 52.31857 | 12.04581 | 115° | 137km/h | 13268m | -9.5m/s | -50.5°C | 3.3% | 164.1hPa | 2.6V | 00:00:00 | 03:02:55 | 00:00:00 | |
| DD8BA-10 | 2026-09-05 12:53:32 | 52.31872 | 12.04530 | 116° | 139km/h | 13277m | -9.0m/s | -50.6°C | 3.3% | 163.9hPa | 2.6V | 00:00:00 | 00:00:00 | 00:00:00 | |
| DL1XH-west | 2026-09-05 12:53:32 | 52.31872 | 12.04530 | 115° | 137km/h | 13277m | -9m/s | -50.6°C | 0% | 163.9hPa | 2.7V | 02:53:47 | 03:02:54 | 00:00:00 | |
| DJ2DS-15 | 2026-09-05 12:53:31 | 52.31887 | 12.04478 | 115° | 137km/h | 13286m | -9.2m/s | -50.7°C | 1.2% | 163.8hPa | 2.6V | 00:00:00 | 00:00:00 | 00:00:00 | |
| DO2SHX-10 | 2026-09-05 12:53:30 | 52.31901 | 12.04427 | 116° | 139km/h | 13296m | -9.6m/s | -50.7°C | 3.4% | 163.4hPa | 2.6V | 02:53:00 | 03:02:52 | 00:00:00 | |
| DC4HF-4 | 2026-09-05 12:53:29 | 52.31916 | 12.04375 | 115° | 137km/h | 13305m | -9.6m/s | -50.8°C | 1.1% | 163.3hPa | 2.6V | 00:00:00 | 00:00:00 | 00:00:00 | |
| DM0DOS-11 | 2026-09-05 12:53:28 | 52.32009 | 12.04063 | 116° | 139km/h | 13362m | -9.8m/s | -50.7°C | 3.2% | 161.8hPa | 2.6V | 02:53:47 | 03:02:45 | 00:00:00 | |
| DF8AY | 2026-09-05 12:53:26 | 52.31962 | 12.04219 | 116° | 141km/h | 13333m | -9.3m/s | -51°C | 0% | 162.5hPa | 2.7V | 02:53:47 | 03:02:48 | 00:00:00 | |
| DL1XH1-15 | 2026-09-05 12:53:26 | 52.32040 | 12.03961 | 116° | 137km/h | 13381m | -9.4m/s | -50.6°C | 3.2% | 161.4hPa | 2.7V | 02:53:49 | 03:02:43 | 00:00:00 | |
| DB0DAN | 2026-09-05 12:53:25 | 52.31978 | 12.04167 | 116° | 135km/h | 13343m | -9.6m/s | -50.9°C | 1.1% | 162.32hPa | 2.7V | 00:00:00 | 00:00:00 | 00:00:00 | |
| AA1-15 | 2026-09-05 12:53:24 | 52.31993 | 12.04115 | 117° | 141km/h | 13352m | -9.5m/s | -50.7°C | 0% | 162hPa | 2.6V | 02:53:47 | 03:02:46 | 00:00:00 | |
| DL1XH-west | 2026-09-05 12:53:22 | 52.32025 | 12.04012 | 117° | 139km/h | 13372m | -9.2m/s | -50.7°C | 0% | 161.6hPa | 2.6V | 02:54:38 | 03:02:44 | 00:00:00 | |
| EDDB2-11 | 2026-09-05 12:53:22 | 52.32025 | 12.04012 | 116° | 137km/h | 13372m | -9.2m/s | -50.7°C | 1.1% | 161.6hPa | 2.7V | 00:00:00 | 00:00:00 | 00:00:00 | |
| DL1ZP-14 | 2026-09-05 12:53:21 | 52.32056 | 12.03911 | 116° | 135km/h | 13390m | -9.3m/s | -50.5°C | 1.1% | 161.1hPa | 2.7V | 00:00:00 | 00:00:00 | 00:00:00 | |
| DL1XH-15 | 2026-09-05 12:53:20 | 52.32102 | 12.03761 | 116° | 135km/h | 13418m | -9.4m/s | -50.6°C | 3.2% | 160.4hPa | 2.6V | 02:53:53 | 03:02:39 | 00:00:00 | |
| DB0UT-7 | 2026-09-05 12:53:19 | 52.32071 | 12.03861 | 117° | 130km/h | 13400m | -9.3m/s | -50.5°C | 3.1% | 160.8hPa | 2.6V | 00:00:00 | 03:02:41 | 00:00:00 | |
| DO2SHX-10 | 2026-09-05 12:53:18 | 52.32086 | 12.03811 | 117° | 135km/h | 13409m | -9.3m/s | -50.5°C | 3.2% | 160.6hPa | 2.6V | 00:00:00 | 03:02:40 | 00:00:00 | |
| SO1NDE-10 | 2026-09-05 12:53:17 | 52.32102 | 12.03761 | 117° | 128km/h | 13418m | -9.4m/s | -50.6°C | 3.2% | 160.4hPa | 2.6V | 02:53:00 | 03:02:39 | 00:00:00 | |
| DL1XH1-15 | 2026-09-05 12:53:16 | 52.32194 | 12.03464 | 117° | 133km/h | 13475m | -9.7m/s | -50.6°C | 3.2% | 159.1hPa | 2.6V | 02:53:59 | 03:02:33 | 00:00:00 | |
| DF8AY | 2026-09-05 12:53:15 | 52.32132 | 12.03662 | 117° | 135km/h | 13437m | -9.6m/s | -50.6°C | 0% | 160hPa | 2.7V | 02:54:38 | 03:02:37 | 00:00:00 | |
| DM0DOS-11 | 2026-09-05 12:53:15 | 52.32163 | 12.03563 | 116° | 135km/h | 13456m | -9.3m/s | -50.6°C | 3.1% | 159.5hPa | 2.7V | 02:53:57 | 03:02:35 | 00:00:00 | |
| AA1-15 | 2026-09-05 12:53:13 | 52.32163 | 12.03563 | 117° | 135km/h | 13456m | -9.3m/s | -50.6°C | 0% | 159.5hPa | 2.7V | 02:54:38 | 03:02:35 | 00:00:00 | |
| DL1XH-west | 2026-09-05 12:53:11 | 52.32194 | 12.03464 | 117° | 133km/h | 13475m | -9.7m/s | -50.6°C | 0% | 159.1hPa | 2.6V | 02:54:38 | 03:02:33 | 00:00:00 | |
| DD8BA-10 | 2026-09-05 12:53:11 | 52.32194 | 12.03464 | 118° | 130km/h | 13475m | -9.6m/s | -50.6°C | 3.2% | 159.0hPa | 2.7V | 00:00:00 | 00:00:00 | 00:00:00 | |
| DO2SHX-10 | 2026-09-05 12:53:09 | 52.32224 | 12.03367 | 117° | 130km/h | 13495m | -10.0m/s | -50.6°C | 3.2% | 158.6hPa | 2.7V | 00:00:00 | 03:02:31 | 00:00:00 | |
| AM1SDL-15 | 2026-09-05 12:53:07 | 52.32253 | 12.03271 | 116° | 128km/h | 13515m | -9.7m/s | -50.6°C | 3.2% | 158.0hPa | 2.7V | 00:00:00 | 03:02:29 | 00:00:00 | |
| DM0DOS-11 | 2026-09-05 12:53:06 | 52.32306 | 12.03080 | 114° | 128km/h | 13556m | -10.7m/s | -50.8°C | 3.4% | 157.1hPa | 2.7V | 02:54:07 | 03:02:25 | 00:00:00 | |
| DL1XH1-15 | 2026-09-05 12:53:06 | 52.32333 | 12.02984 | 114° | 128km/h | 13577m | -10.1m/s | -50.7°C | 3.4% | 156.6hPa | 2.7V | 02:54:09 | 03:02:23 | 00:00:00 | |
| DF8AY | 2026-09-05 12:53:04 | 52.32293 | 12.03128 | 114° | 126km/h | 13546m | -9.6m/s | -50.8°C | 0% | 157.3hPa | 2.6V | 02:54:38 | 03:02:26 | 00:00:00 | |
| AA1-15 | 2026-09-05 12:53:02 | 52.32319 | 12.03032 | 114° | 128km/h | 13567m | -10.1m/s | -50.8°C | 0% | 156.8hPa | 2.7V | 02:54:38 | 03:02:24 | 00:00:00 | |
| DL1XH-west | 2026-09-05 12:53:00 | 52.32346 | 12.02936 | 114° | 130km/h | 13587m | -10.4m/s | -50.6°C | 0% | 156.4hPa | 2.6V | 02:54:38 | 03:02:22 | 00:00:00 | |
| DL1XH-15 | 2026-09-05 12:53:00 | 52.32387 | 12.02790 | 115° | 130km/h | 13618m | -10.7m/s | -50.6°C | 3.2% | 155.7hPa | 2.7V | 02:54:13 | 03:02:19 | 00:00:00 | |
| DO2SHX-10 | 2026-09-05 12:53:00 | 52.32346 | 12.02936 | 115° | 130km/h | 13587m | -10.4m/s | -50.5°C | 3.3% | 156.3hPa | 2.6V | 00:00:00 | 03:02:22 | 00:00:00 | |
| DO2SHX-10 | 2026-09-05 12:52:57 | 52.32387 | 12.02790 | 116° | 128km/h | 13618m | -10.6m/s | -50.6°C | 3.2% | 155.6hPa | 2.6V | 00:00:00 | 03:02:19 | 00:00:00 | |
| DM0DOS-11 | 2026-09-05 12:52:56 | 52.32444 | 12.02601 | 117° | 126km/h | 13658m | -9.7m/s | -50.6°C | 3.2% | 154.7hPa | 2.6V | 02:54:17 | 03:02:15 | 00:00:00 | |
| DL1XH1-15 | 2026-09-05 12:52:56 | 52.32474 | 12.02509 | 118° | 128km/h | 13677m | -9.7m/s | -50.2°C | 3.1% | 154.2hPa | 2.7V | 02:54:19 | 03:02:13 | 00:00:00 | |
| DB0DAN | 2026-09-05 12:52:55 | 52.32415 | 12.02695 | 116° | 122km/h | 13638m | -9.8m/s | -50.7°C | 1% | 155.09hPa | 2.7V | 00:00:00 | 00:00:00 | 00:00:00 | |
| DF8AY | 2026-09-05 12:52:53 | 52.32444 | 12.02601 | 117° | 126km/h | 13658m | -9.7m/s | -50.6°C | 0% | 154.7hPa | 2.6V | 02:54:38 | 03:02:15 | 00:00:00 | |
| AA1-15 | 2026-09-05 12:52:51 | 52.32474 | 12.02509 | 118° | 128km/h | 13677m | -9.7m/s | -50.2°C | 0% | 154.2hPa | 2.7V | 02:54:38 | 03:02:13 | 00:00:00 | |
| DL1XH-15 | 2026-09-05 12:52:50 | 52.32537 | 12.02324 | 119° | 130km/h | 13717m | -9.7m/s | -50.2°C | 3.1% | 153.2hPa | 2.6V | 02:54:23 | 03:02:09 | 00:00:00 | |
| DL1XH-west | 2026-09-05 12:52:49 | 52.32505 | 12.02417 | 119° | 130km/h | 13697m | -10.3m/s | -50.2°C | 0% | 153.7hPa | 2.7V | 02:54:38 | 03:02:11 | 00:00:00 | |
| DB0UT-7 | 2026-09-05 12:52:49 | 52.32505 | 12.02417 | 120° | 120km/h | 13697m | -10.2m/s | -50.2°C | 3.1% | 153.7hPa | 2.7V | 02:54:00 | 00:00:00 | 00:00:00 | |
| DO2SHX-10 | 2026-09-05 12:52:48 | 52.32521 | 12.02370 | 120° | 130km/h | 13707m | -9.8m/s | -50.1°C | 3.0% | 153.4hPa | 2.7V | 00:00:00 | 03:02:10 | 00:00:00 | |
| DM0DOS-11 | 2026-09-05 12:52:46 | 52.32604 | 12.02140 | 121° | 130km/h | 13756m | -9.5m/s | -50.2°C | 3.1% | 152.3hPa | 2.7V | 02:54:27 | 03:02:05 | 00:00:00 | |
| DL1XH1-15 | 2026-09-05 12:52:46 | 52.32639 | 12.02050 | 122° | 128km/h | 13776m | -10.3m/s | -49.9°C | 3% | 151.9hPa | 2.6V | 02:54:29 | 03:02:03 | 00:00:00 | |
| EDDB2-12 | 2026-09-05 12:52:45 | 52.32570 | 12.02231 | 120° | 130km/h | 13737m | -9.9m/s | -50.2°C | 0.9% | 152.8hPa | 2.6V | 00:00:00 | 00:00:00 | 00:00:00 | |
| DF8AY | 2026-09-05 12:52:42 | 52.32622 | 12.02095 | 122° | 128km/h | 13766m | -9.9m/s | -50.2°C | 0% | 152.1hPa | 2.6V | 02:54:38 | 03:02:04 | 00:00:00 | |
| DO2SHX-10 | 2026-09-05 12:52:42 | 52.32621 | 12.02095 | 123° | 128km/h | 13766m | -9.8m/s | -50.1°C | 3.0% | 152.1hPa | 2.6V | 00:00:00 | 03:02:04 | 00:00:00 | |
| DL1NUX | 2026-09-05 12:52:41 | 52.32726 | 12.01836 | 123° | 120km/h | 13825m | -9.4m/s | -50.1°C | 3% | 150.7hPa | 2.6V | 02:54:34 | 03:01:58 | 00:00:00 | |
| DL1XH-15 | 2026-09-05 12:52:40 | 52.32709 | 12.01878 | 123° | 122km/h | 13815m | -9.3m/s | -50°C | 3% | 151hPa | 2.7V | 02:54:33 | 03:01:59 | 00:00:00 | |
| AA1-15 | 2026-09-05 12:52:40 | 52.32656 | 12.02006 | 123° | 126km/h | 13786m | -9.7m/s | -50°C | 0% | 151.6hPa | 2.6V | 02:54:38 | 03:02:02 | 00:00:00 | |
| DB0DAN | 2026-09-05 12:52:40 | 52.32656 | 12.02006 | 123° | 120km/h | 13786m | -9.7m/s | -50°C | 0.9% | 151.62hPa | 2.6V | 00:00:00 | 00:00:00 | 00:00:00 | |
| SO1NDE-10 | 2026-09-05 12:52:39 | 52.32674 | 12.01963 | 124° | 115km/h | 13796m | -9.9m/s | -50.0°C | 3.0% | 151.4hPa | 2.7V | 00:00:00 | 03:02:01 | 00:00:00 | |
| DL1XH-west | 2026-09-05 12:52:39 | 52.32674 | 12.01963 | 124° | 124km/h | 13796m | -10m/s | -50°C | 0% | 151.4hPa | 2.7V | 02:54:38 | 03:02:01 | 00:00:00 | |
| DH5RUM-10 | 2026-09-05 12:52:38 | 52.32692 | 12.01920 | 125° | 124km/h | 13806m | -9.6m/s | 0°C | 0% | 0hPa | 2.7V | 00:00:00 | 00:00:00 | 00:00:00 | |
| DM0DOS-11 | 2026-09-05 12:52:36 | 52.32776 | 12.01714 | 124° | 117km/h | 13853m | -9.7m/s | -50.3°C | 3.1% | 150.1hPa | 2.7V | 02:54:37 | 03:01:55 | 00:00:00 | |
| DL1XH1-15 | 2026-09-05 12:52:36 | 52.32809 | 12.01634 | 124° | 117km/h | 13872m | -9.2m/s | -50.4°C | 3.1% | 149.7hPa | 2.7V | 02:54:39 | 03:01:53 | 00:00:00 | |
| DF8AY | 2026-09-05 12:52:32 | 52.32793 | 12.01674 | 124° | 117km/h | 13863m | -9.8m/s | -50.3°C | 0% | 149.9hPa | 2.7V | 02:54:38 | 03:01:54 | 00:00:00 | |
| AA1-15 | 2026-09-05 12:52:30 | 52.32826 | 12.01595 | 124° | 115km/h | 13882m | -10.1m/s | -50.4°C | 0% | 149.4hPa | 2.6V | 02:55:29 | 03:01:52 | 00:00:00 | |
| DL1XH-west | 2026-09-05 12:52:28 | 52.32858 | 12.01516 | 124° | 115km/h | 13903m | -10.3m/s | -50.5°C | 0% | 149hPa | 2.6V | 02:55:29 | 03:01:50 | 00:00:00 | |
| GOEST3-10 | 2026-09-05 12:52:28 | 52.32858 | 12.01516 | 124° | 113km/h | 13903m | -10.3m/s | -50.4°C | 3.2% | 148.9hPa | 2.6V | 02:54:00 | 00:00:00 | 00:00:00 | |
| DO2SHX-10 | 2026-09-05 12:52:27 | 52.32874 | 12.01477 | 124° | 113km/h | 13913m | -10.1m/s | -50.4°C | 3.2% | 148.7hPa | 2.7V | 02:54:00 | 03:01:49 | 00:00:00 | |
| DL1XH1-15 | 2026-09-05 12:52:26 | 52.32965 | 12.01240 | 120° | 113km/h | 13970m | -9.9m/s | -50.2°C | 3.1% | 147.5hPa | 2.7V | 02:54:49 | 03:01:43 | 00:00:00 | |
| DM0DOS-11 | 2026-09-05 12:52:26 | 52.32936 | 12.01320 | 121° | 113km/h | 13951m | -9.6m/s | -50°C | 3% | 147.9hPa | 2.6V | 02:54:47 | 03:01:45 | 00:00:00 | |
| DB0DAN | 2026-09-05 12:52:25 | 52.32906 | 12.01398 | 122° | 108km/h | 13932m | -9.5m/s | -50.1°C | 1% | 148.29hPa | 2.7V | 00:00:00 | 00:00:00 | 00:00:00 | |
| DF8AY | 2026-09-05 12:52:22 | 52.32951 | 12.01280 | 121° | 113km/h | 13960m | -9.5m/s | -50.1°C | 0% | 147.7hPa | 2.6V | 02:55:29 | 03:01:44 | 00:00:00 | |
| DO2SHX-10 | 2026-09-05 12:52:21 | 52.32965 | 12.01240 | 121° | 113km/h | 13970m | -9.8m/s | -50.1°C | 3.1% | 147.4hPa | 2.6V | 00:00:00 | 03:01:43 | 00:00:00 | |
| DL1XH-15 | 2026-09-05 12:52:20 | 52.33024 | 12.01077 | 120° | 115km/h | 14009m | -9.6m/s | -50.4°C | 3.1% | 146.6hPa | 2.6V | 02:54:53 | 03:01:39 | 00:00:00 | |
| AA1-15 | 2026-09-05 12:52:19 | 52.32995 | 12.01159 | 120° | 115km/h | 13990m | -9.5m/s | -50.3°C | 0% | 147hPa | 2.7V | 02:55:29 | 03:01:41 | 00:00:00 | |
| DL1XH-west | 2026-09-05 12:52:18 | 52.33009 | 12.01118 | 121° | 115km/h | 13999m | -9.6m/s | -50.3°C | 0% | 146.8hPa | 2.6V | 02:55:29 | 03:01:40 | 00:00:00 | |
| DF8AY | 2026-09-05 12:52:11 | 52.33116 | 12.00840 | 123° | 110km/h | 14066m | -9.5m/s | -50.1°C | 0% | 145.3hPa | 2.6V | 02:55:29 | 03:01:33 | 00:00:00 | |
| DL1NUX | 2026-09-05 12:52:11 | 52.33190 | 12.00658 | 123° | 102km/h | 14113m | -9.8m/s | -49.8°C | 3% | 144.2hPa | 2.6V | 02:55:04 | 03:01:28 | 00:00:00 | |
| DD8BA-10 | 2026-09-05 12:52:11 | 52.33116 | 12.00840 | 124° | 102km/h | 14067m | -9.4m/s | -50.0°C | 3.2% | 145.3hPa | 2.7V | 00:00:00 | 00:00:00 | 00:00:00 | |
| DL1XH-15 | 2026-09-05 12:52:10 | 52.33175 | 12.00693 | 123° | 104km/h | 14103m | -9.6m/s | -49.9°C | 3% | 144.4hPa | 2.7V | 02:55:03 | 03:01:29 | 00:00:00 | |
| HSKMA3-T | 2026-09-05 12:52:10 | 52.33131 | 12.00803 | 124° | 108km/h | 14076m | -9.4m/s | -50°C | 0% | 145.1hPa | 2.6V | 02:55:29 | 03:01:32 | 00:00:00 | |
| DB0DAN | 2026-09-05 12:52:10 | 52.33131 | 12.00803 | 124° | 104km/h | 14076m | -9.4m/s | -50°C | 1% | 145.06hPa | 2.6V | 00:00:00 | 00:00:00 | 00:00:00 | |
| DL1XH-west | 2026-09-05 12:52:08 | 52.33161 | 12.00729 | 124° | 106km/h | 14094m | -9.2m/s | -50°C | 0% | 144.7hPa | 2.7V | 02:55:29 | 03:01:30 | 00:00:00 | |
| DL1XH1-15 | 2026-09-05 12:52:06 | 52.33260 | 12.00489 | 124° | 97km/h | 14162m | -8.9m/s | -49.6°C | 2.9% | 143.1hPa | 2.7V | 02:55:09 | 03:01:23 | 00:00:00 | |
| DO2SHX-10 | 2026-09-05 12:52:06 | 52.33190 | 12.00658 | 124° | 100km/h | 14113m | -9.8m/s | -49.7°C | 3.0% | 144.2hPa | 2.7V | 00:00:00 | 03:01:28 | 00:00:00 | |
| SONCRA | 2026-09-05 12:52:04 | 52.33232 | 12.00555 | 123° | 97km/h | 14143m | -9.9m/s | -49.6°C | 0.9% | 143.6hPa | 2.7V | 00:00:00 | 00:00:00 | 00:00:00 | |
| DO2SHX-10 | 2026-09-05 12:52:03 | 52.33232 | 12.00555 | 124° | 97km/h | 14143m | -9.9m/s | -49.5°C | 2.9% | 143.6hPa | 2.7V | 00:00:00 | 03:01:25 | 00:00:00 | |
| DL1NUX | 2026-09-05 12:52:01 | 52.33328 | 12.00328 | 124° | 93km/h | 14211m | -9.7m/s | -49.5°C | 3% | 142.1hPa | 2.7V | 02:55:14 | 03:01:18 | 00:00:00 | |
| DD8BA-10 | 2026-09-05 12:52:01 | 52.33260 | 12.00489 | 125° | 93km/h | 14163m | -8.8m/s | -49.5°C | 2.9% | 143.1hPa | 2.7V | 00:00:00 | 00:00:00 | 00:00:00 | |
| DL1XH-15 | 2026-09-05 12:52:00 | 52.33315 | 12.00360 | 125° | 93km/h | 14201m | -10.2m/s | -49.5°C | 2.9% | 142.4hPa | 2.7V | 02:55:13 | 03:01:19 | 00:00:00 | |
| HSKMA3-T | 2026-09-05 12:52:00 | 52.33273 | 12.00456 | 124° | 97km/h | 14172m | -9.6m/s | -49.6°C | 0% | 143hPa | 2.6V | 02:55:29 | 03:01:22 | 00:00:00 | |
| DL1XH-west | 2026-09-05 12:51:57 | 52.33315 | 12.00360 | 125° | 93km/h | 14201m | -10.2m/s | -49.5°C | 0% | 142.4hPa | 2.7V | 02:55:29 | 03:01:19 | 00:00:00 | |
| TFSTFS | 2026-09-05 12:51:57 | 52.33315 | 12.00360 | 126° | 93km/h | 14201m | -10.2m/s | -49.5°C | 0.9% | 142.4hPa | 2.6V | 00:00:00 | 00:00:00 | 00:00:00 | |
| DM0DOS-11 | 2026-09-05 12:51:56 | 52.33367 | 12.00234 | 122° | 89km/h | 14240m | -9.8m/s | -49.6°C | 3% | 141.4hPa | 2.6V | 02:55:17 | 03:01:15 | 00:00:00 | |
| DL1XH1-15 | 2026-09-05 12:51:56 | 52.33391 | 12.00172 | 121° | 89km/h | 14260m | -10.1m/s | -49.8°C | 3.1% | 141.1hPa | 2.7V | 02:55:19 | 03:01:13 | 00:00:00 | |
| AA1-15 | 2026-09-05 12:51:55 | 52.33342 | 12.00296 | 125° | 91km/h | 14220m | -9.3m/s | -49.5°C | 0% | 141.8hPa | 2.7V | 02:55:29 | 03:01:17 | 00:00:00 | |
| DO2SHX-10 | 2026-09-05 12:51:54 | 52.33355 | 12.00265 | 124° | 89km/h | 14230m | -9.6m/s | -49.5°C | 3.0% | 141.6hPa | 2.6V | 00:00:00 | 03:01:16 | 00:00:00 | |
| DF8AY-15 | 2026-09-05 12:51:53 | 52.33367 | 12.00234 | 123° | 86km/h | 14240m | -9.7m/s | -49.6°C | 3.0% | 141.4hPa | 2.6V | 02:55:00 | 03:01:15 | 00:00:00 | |
| AM1SDL-15 | 2026-09-05 12:51:52 | 52.33391 | 12.00171 | 122° | 89km/h | 14260m | -10.0m/s | -49.7°C | 3.1% | 141.0hPa | 2.6V | 00:00:00 | 03:01:13 | 00:00:00 | |
| DL1NUX | 2026-09-05 12:51:51 | 52.33446 | 12.00011 | 117° | 89km/h | 14309m | -9.8m/s | -49.9°C | 3.1% | 139.9hPa | 2.6V | 02:55:24 | 03:01:08 | 00:00:00 | |
| DO2SHX-10 | 2026-09-05 12:51:51 | 52.33391 | 12.00171 | 122° | 89km/h | 14260m | -10.0m/s | -49.7°C | 3.1% | 141.0hPa | 2.7V | 02:55:00 | 03:01:13 | 00:00:00 | |
| DL1XH-15 | 2026-09-05 12:51:50 | 52.33435 | 12.00044 | 118° | 89km/h | 14299m | -9.7m/s | -49.9°C | 3.1% | 140.2hPa | 2.6V | 02:55:23 | 03:01:09 | 00:00:00 | |
| HSKMA3-T | 2026-09-05 12:51:49 | 52.33414 | 12.00108 | 120° | 89km/h | 14280m | -9.8m/s | -49.9°C | 0% | 140.6hPa | 2.7V | 02:55:29 | 03:01:11 | 00:00:00 | |
| DL1XH-west | 2026-09-05 12:51:47 | 52.33435 | 12.00044 | 118° | 89km/h | 14299m | -9.7m/s | -49.9°C | 0% | 140.2hPa | 2.6V | 02:55:29 | 03:01:09 | 00:00:00 | |
| AA1-15 | 2026-09-05 12:51:44 | 52.33467 | 11.99946 | 118° | 89km/h | 14328m | -9.6m/s | -50.1°C | 0% | 139.5hPa | 2.7V | 02:55:29 | 03:01:06 | 00:00:00 | |
| DJ2DS-15 | 2026-09-05 12:51:43 | 52.33477 | 11.99914 | 117° | 88km/h | 14338m | -9.8m/s | -50.1°C | 1.0% | 139.4hPa | 2.6V | 00:00:00 | 00:00:00 | 00:00:00 | |
| DO2SHX-10 | 2026-09-05 12:51:42 | 52.33487 | 11.99882 | 118° | 86km/h | 14348m | -10.2m/s | -49.8°C | 3.2% | 139.1hPa | 2.6V | 02:55:00 | 03:01:04 | 00:00:00 | |
| DL1NUX | 2026-09-05 12:51:41 | 52.33546 | 11.99696 | 116° | 80km/h | 14407m | -9.5m/s | -49.4°C | 3.1% | 137.9hPa | 2.6V | 02:55:34 | 03:00:58 | 00:00:00 | |
| DF8AY | 2026-09-05 12:51:39 | 52.33517 | 11.99787 | 117° | 84km/h | 14378m | -9.7m/s | -49.5°C | 0% | 138.5hPa | 2.7V | 02:56:20 | 03:01:01 | 00:00:00 | |
| DL1XH-15 | 2026-09-05 12:51:39 | 52.33537 | 11.99726 | 117° | 82km/h | 14397m | -9.5m/s | -49.4°C | 3.1% | 138.1hPa | 2.7V | 02:55:33 | 03:00:59 | 00:00:00 | |
| HSKMA3-T | 2026-09-05 12:51:38 | 52.33527 | 11.99756 | 117° | 84km/h | 14387m | -9.8m/s | -49.4°C | 0% | 138.3hPa | 2.7V | 02:56:20 | 03:01:00 | 00:00:00 | |
| DL1XH-west | 2026-09-05 12:51:36 | 52.33546 | 11.99696 | 117° | 82km/h | 14407m | -9.5m/s | -49.4°C | 0% | 137.9hPa | 2.6V | 02:56:20 | 03:00:58 | 00:00:00 | |
| DL1XH1-15 | 2026-09-05 12:51:36 | 52.33591 | 11.99550 | 115° | 77km/h | 14456m | -9.6m/s | -49.1°C | 2.9% | 136.8hPa | 2.7V | 02:55:39 | 03:00:53 | 00:00:00 | |
| AA1-15 | 2026-09-05 12:51:33 | 52.33573 | 11.99608 | 116° | 78km/h | 14436m | -10.2m/s | -49.2°C | 0% | 137.3hPa | 2.7V | 02:56:20 | 03:00:55 | 00:00:00 | |
| DO2SHX-10 | 2026-09-05 12:51:33 | 52.33573 | 11.99608 | 117° | 77km/h | 14436m | -10.2m/s | -49.2°C | 2.9% | 137.2hPa | 2.7V | 02:55:00 | 03:00:55 | 00:00:00 | |
| DL1NUX | 2026-09-05 12:51:32 | 52.33629 | 11.99410 | 111° | 73km/h | 14506m | -10m/s | -49°C | 2.9% | 135.8hPa | 2.7V | 02:55:44 | 03:00:48 | 00:00:00 | |
| DD8BA-10 | 2026-09-05 12:51:31 | 52.33590 | 11.99550 | 116° | 73km/h | 14456m | -9.6m/s | -49.0°C | 2.9% | 136.8hPa | 2.7V | 00:00:00 | 00:00:00 | 00:00:00 | |
| DL1XH-15 | 2026-09-05 12:51:30 | 52.33622 | 11.99438 | 112° | 73km/h | 14496m | -10.2m/s | -49.1°C | 2.9% | 136hPa | 2.7V | 02:55:43 | 03:00:49 | 00:00:00 | |
| DF8AY | 2026-09-05 12:51:28 | 52.33615 | 11.99466 | 114° | 75km/h | 14486m | -10.5m/s | -49.1°C | 0% | 136.2hPa | 2.6V | 02:56:20 | 03:00:50 | 00:00:00 | |
| HSKMA3-T | 2026-09-05 12:51:27 | 52.33622 | 11.99438 | 113° | 73km/h | 14496m | -10.2m/s | -49.1°C | 0% | 136hPa | 2.7V | 02:56:20 | 03:00:49 | 00:00:00 | |
| DL1XH1-15 | 2026-09-05 12:51:26 | 52.33661 | 11.99271 | 109° | 71km/h | 14558m | -10.5m/s | -49.2°C | 2.9% | 134.8hPa | 2.7V | 02:55:49 | 03:00:43 | 00:00:00 | |
| DL1XH-west | 2026-09-05 12:51:25 | 52.33636 | 11.99382 | 111° | 73km/h | 14517m | -10.1m/s | -49°C | 0% | 135.6hPa | 2.7V | 02:56:20 | 03:00:47 | 00:00:00 | |
| AA1-15 | 2026-09-05 12:51:23 | 52.33649 | 11.99326 | 110° | 71km/h | 14537m | -10.4m/s | -49.2°C | 0% | 135.2hPa | 2.6V | 02:56:20 | 03:00:45 | 00:00:00 | |
| GOEST3-10 | 2026-09-05 12:51:23 | 52.33649 | 11.99326 | 111° | 71km/h | 14537m | -10.3m/s | -49.1°C | 2.9% | 135.2hPa | 2.6V | 02:55:00 | 00:00:00 | 00:00:00 | |
| DL1XH-15 | 2026-09-05 12:51:22 | 52.33684 | 11.99159 | 108° | 73km/h | 14601m | -11.6m/s | -49.4°C | 2.9% | 133.9hPa | 2.6V | 02:55:53 | 03:00:39 | 00:00:00 | |
| DO2SHX-10 | 2026-09-05 12:51:21 | 52.33661 | 11.99271 | 110° | 71km/h | 14558m | -10.4m/s | -49.2°C | 2.9% | 134.7hPa | 2.7V | 00:00:00 | 03:00:43 | 00:00:00 | |
| DL1NUX | 2026-09-05 12:51:20 | 52.33695 | 11.99101 | 107° | 73km/h | 14624m | -11.6m/s | -49.7°C | 2.9% | 133.4hPa | 2.7V | 02:55:55 | 03:00:37 | 00:00:00 | |
| DF8AY | 2026-09-05 12:51:18 | 52.33678 | 11.99187 | 108° | 71km/h | 14590m | -10.9m/s | -49.3°C | 0% | 134.1hPa | 2.6V | 02:56:20 | 03:00:40 | 00:00:00 | |
| HSKMA3-T | 2026-09-05 12:51:17 | 52.33684 | 11.99159 | 108° | 73km/h | 14601m | -11.6m/s | -49.4°C | 0% | 133.9hPa | 2.6V | 02:56:20 | 03:00:39 | 00:00:00 | |
| SONDE2-11 | 2026-09-05 12:51:17 | 52.33689 | 11.99130 | 106° | 73km/h | 14613m | -11.8m/s | -49.6°C | 0.9% | 133.7hPa | 2.6V | 00:00:00 | 00:00:00 | 00:00:00 | |
| DL1XH1-15 | 2026-09-05 12:51:16 | 52.33717 | 11.98986 | 107° | 73km/h | 14667m | -10.7m/s | -50.1°C | 2.9% | 132.5hPa | 2.6V | 02:55:59 | 03:00:33 | 00:00:00 | |
| DM0DOS-11 | 2026-09-05 12:51:16 | 52.33706 | 11.99043 | 108° | 75km/h | 14646m | -10.5m/s | -49.9°C | 3% | 132.9hPa | 2.7V | 02:55:57 | 03:00:35 | 00:00:00 | |
| DL1XH-west | 2026-09-05 12:51:14 | 52.33700 | 11.99072 | 107° | 73km/h | 14636m | -10.7m/s | -49.8°C | 0% | 133.2hPa | 2.7V | 02:56:20 | 03:00:36 | 00:00:00 | |
| AA1-15 | 2026-09-05 12:51:12 | 52.33712 | 11.99014 | 108° | 73km/h | 14657m | -10.7m/s | -50°C | 0% | 132.7hPa | 2.6V | 02:56:20 | 03:00:34 | 00:00:00 | |
| DO2SHX-10 | 2026-09-05 12:51:12 | 52.33712 | 11.99014 | 108° | 73km/h | 14657m | -10.7m/s | -49.9°C | 3.0% | 132.7hPa | 2.7V | 00:00:00 | 03:00:34 | 00:00:00 | |
| DD8BA-10 | 2026-09-05 12:51:11 | 52.33717 | 11.98986 | 108° | 73km/h | 14668m | -10.7m/s | -50.0°C | 2.9% | 132.5hPa | 2.7V | 00:00:00 | 00:00:00 | 00:00:00 | |
| DL1XH-15 | 2026-09-05 12:51:10 | 52.33738 | 11.98871 | 104° | 73km/h | 14713m | -11.6m/s | -50.4°C | 3.1% | 131.6hPa | 2.7V | 02:56:03 | 03:00:29 | 00:00:00 | |
| DB0DAN | 2026-09-05 12:51:10 | 52.33723 | 11.98957 | 107° | 69km/h | 14678m | -10.9m/s | -50.2°C | 0.9% | 132.29hPa | 2.6V | 00:00:00 | 00:00:00 | 00:00:00 | |
| DO2SHX-10 | 2026-09-05 12:51:09 | 52.33728 | 11.98929 | 107° | 73km/h | 14690m | -11.6m/s | -50.2°C | 3.0% | 132.0hPa | 2.7V | 00:00:00 | 03:00:31 | 00:00:00 | |
| DM0DOS-11 | 2026-09-05 12:51:08 | 52.33755 | 11.98752 | 101° | 75km/h | 14757m | -10.7m/s | -50.8°C | 3.3% | 130.7hPa | 2.7V | 02:56:07 | 03:00:25 | 00:00:00 | |
| HSKMA3-T | 2026-09-05 12:51:07 | 52.33738 | 11.98871 | 105° | 73km/h | 14713m | -11.6m/s | -50.4°C | 0% | 131.7hPa | 2.7V | 02:56:20 | 03:00:29 | 00:00:00 | |
| DL1XH-west | 2026-09-05 12:51:03 | 52.33755 | 11.98752 | 102° | 75km/h | 14757m | -10.7m/s | -50.8°C | 0% | 130.7hPa | 2.7V | 02:56:20 | 03:00:25 | 00:00:00 | |
| AA1-15 | 2026-09-05 12:51:01 | 52.33767 | 11.98659 | 103° | 78km/h | 14790m | -11.1m/s | -51°C | 0% | 130.1hPa | 2.6V | 02:56:20 | 03:00:22 | 00:00:00 | |
| DF8AY | 2026-09-05 12:50:56 | 52.33787 | 11.98531 | 105° | 80km/h | 14832m | -10.7m/s | -51.3°C | 0% | 129.3hPa | 2.7V | 02:56:20 | 03:00:18 | 00:00:00 | |
| DM0DOS-11 | 2026-09-05 12:50:56 | 52.33804 | 11.98436 | 105° | 78km/h | 14864m | -11m/s | -51.5°C | 3.3% | 128.6hPa | 2.6V | 02:56:17 | 03:00:15 | 00:00:00 | |
| DL1XH1-15 | 2026-09-05 12:50:56 | 52.33815 | 11.98374 | 106° | 78km/h | 14887m | -12.1m/s | -51.4°C | 3.2% | 128.2hPa | 2.7V | 02:56:19 | 03:00:13 | 00:00:00 | |
| DB0DAN | 2026-09-05 12:50:55 | 52.33793 | 11.98500 | 106° | 77km/h | 14843m | -10.7m/s | -51.4°C | 1% | 129.02hPa | 2.7V | 00:00:00 | 00:00:00 | 00:00:00 | |
| HSKMA3-T | 2026-09-05 12:50:52 | 52.33809 | 11.98405 | 106° | 78km/h | 14876m | -11.2m/s | -51.6°C | 0% | 128.3hPa | 2.6V | 02:56:20 | 03:00:14 | 00:00:00 | |
| DO2SHX-10 | 2026-09-05 12:50:51 | 52.33815 | 11.98374 | 107° | 77km/h | 14887m | -12.1m/s | -51.4°C | 3.2% | 128.1hPa | 2.7V | 00:00:00 | 03:00:13 | 00:00:00 | |
| DL1NUX | 2026-09-05 12:50:50 | 52.33847 | 11.98194 | 106° | 75km/h | 14957m | -11.8m/s | -50.9°C | 3.1% | 126.8hPa | 2.7V | 02:56:25 | 03:00:07 | 00:00:00 | |
| AA1-15 | 2026-09-05 12:50:49 | 52.33826 | 11.98313 | 106° | 77km/h | 14910m | -11.5m/s | -51°C | 0% | 127.7hPa | 2.7V | 02:57:11 | 03:00:11 | 00:00:00 | |
| DM0DOS-11 | 2026-09-05 12:50:48 | 52.33858 | 11.98135 | 107° | 75km/h | 14980m | -11.4m/s | -51.1°C | 3.2% | 126.3hPa | 2.7V | 02:56:27 | 03:00:05 | 00:00:00 | |
| EDDB2-11 | 2026-09-05 12:50:47 | 52.33842 | 11.98223 | 106° | 73km/h | 14946m | -11.4m/s | -50.9°C | 0.9% | 127.1hPa | 2.6V | 00:00:00 | 00:00:00 | 00:00:00 | |
| DL1XH1-15 | 2026-09-05 12:50:46 | 52.33870 | 11.98075 | 108° | 77km/h | 15003m | -11.7m/s | -51.1°C | 3.2% | 125.9hPa | 2.6V | 02:56:29 | 03:00:03 | 00:00:00 | |
| DF8AY | 2026-09-05 12:50:45 | 52.33847 | 11.98194 | 107° | 75km/h | 14957m | -11.8m/s | -50.9°C | 0% | 126.8hPa | 2.7V | 02:57:11 | 03:00:07 | 00:00:00 | |
| DL1XH-west | 2026-09-05 12:50:42 | 52.33864 | 11.98105 | 108° | 75km/h | 14991m | -11m/s | -51.1°C | 0% | 126.1hPa | 2.6V | 02:57:11 | 03:00:04 | 00:00:00 | |
| HSKMA3-T | 2026-09-05 12:50:41 | 52.33870 | 11.98075 | 108° | 77km/h | 15003m | -11.7m/s | -51.2°C | 0% | 125.9hPa | 2.6V | 02:57:11 | 03:00:03 | 00:00:00 | |
| AA1-15 | 2026-09-05 12:50:39 | 52.33882 | 11.98015 | 109° | 77km/h | 15026m | -12.2m/s | -51.1°C | 0% | 125.4hPa | 2.7V | 02:57:11 | 03:00:01 | 00:00:00 | |
| DO2SHX-10 | 2026-09-05 12:50:39 | 52.33882 | 11.98015 | 109° | 77km/h | 15026m | -12.1m/s | -51.1°C | 3.2% | 125.4hPa | 2.7V | 02:56:00 | 03:00:01 | 00:00:00 | |
| GOEST3-10 | 2026-09-05 12:50:38 | 52.33889 | 11.97985 | 109° | 75km/h | 15038m | -11.1m/s | -51.0°C | 3.2% | 125.2hPa | 2.7V | 00:00:00 | 00:00:00 | 00:00:00 | |
| DL1XH1-15 | 2026-09-05 12:50:36 | 52.33925 | 11.97777 | 101° | 73km/h | 15115m | -11.3m/s | -51.4°C | 3.2% | 123.7hPa | 2.7V | 02:56:39 | 02:59:53 | 00:00:00 | |
| DM0DOS-11 | 2026-09-05 12:50:36 | 52.33917 | 11.97837 | 104° | 75km/h | 15093m | -11.1m/s | -51.1°C | 3.2% | 124.2hPa | 2.7V | 02:56:37 | 02:59:55 | 00:00:00 | |
| DF8AY | 2026-09-05 12:50:34 | 52.33912 | 11.97866 | 106° | 75km/h | 15082m | -11.1m/s | -51°C | 0% | 124.3hPa | 2.6V | 02:57:11 | 02:59:56 | 00:00:00 | |
| DL1XH-west | 2026-09-05 12:50:31 | 52.33925 | 11.97777 | 102° | 73km/h | 15116m | -11.4m/s | -51.4°C | 0% | 123.7hPa | 2.7V | 02:57:11 | 02:59:53 | 00:00:00 | |
| HSKMA3-T | 2026-09-05 12:50:30 | 52.33929 | 11.97747 | 101° | 73km/h | 15127m | -11.7m/s | -51.4°C | 0% | 123.5hPa | 2.6V | 02:57:11 | 02:59:52 | 00:00:00 | |
| AA1-15 | 2026-09-05 12:50:29 | 52.33935 | 11.97688 | 99° | 73km/h | 15150m | -11m/s | -51.4°C | 0% | 123.1hPa | 2.7V | 02:57:11 | 02:59:50 | 00:00:00 | |
| DM0DOS-11 | 2026-09-05 12:50:27 | 52.33953 | 11.97540 | 102° | 75km/h | 15209m | -11.6m/s | -51.3°C | 3.3% | 122hPa | 2.7V | 02:56:47 | 02:59:45 | 00:00:00 | |
| DO2SHX-10 | 2026-09-05 12:50:27 | 52.33938 | 11.97658 | 100° | 73km/h | 15161m | -11.3m/s | -51.2°C | 3.2% | 122.8hPa | 2.6V | 00:00:00 | 02:59:49 | 00:00:00 | |
| DL1XH1-15 | 2026-09-05 12:50:26 | 52.33961 | 11.97480 | 103° | 75km/h | 15231m | -11.3m/s | -51.2°C | 3.2% | 121.5hPa | 2.6V | 02:56:49 | 02:59:43 | 00:00:00 | |
| DB0DAN | 2026-09-05 12:50:25 | 52.33945 | 11.97599 | 101° | 69km/h | 15185m | -12.1m/s | -51.2°C | 0.9% | 122.38hPa | 2.6V | 00:00:00 | 00:00:00 | 00:00:00 | |
| DF8AY | 2026-09-05 12:50:23 | 52.33953 | 11.97540 | 102° | 75km/h | 15209m | -11.6m/s | -51.3°C | 0% | 122hPa | 2.7V | 02:57:11 | 02:59:45 | 00:00:00 | |
| DL1XH-west | 2026-09-05 12:50:21 | 52.33961 | 11.97480 | 103° | 75km/h | 15231m | -11.4m/s | -51.2°C | 0% | 121.5hPa | 2.6V | 02:57:11 | 02:59:43 | 00:00:00 | |
| HSKMA3-T | 2026-09-05 12:50:20 | 52.33966 | 11.97450 | 104° | 73km/h | 15243m | -11.7m/s | -51.2°C | 0% | 121.3hPa | 2.7V | 02:57:11 | 02:59:42 | 00:00:00 | |
| AA1-15 | 2026-09-05 12:50:19 | 52.33970 | 11.97421 | 104° | 73km/h | 15255m | -12m/s | -51.2°C | 0% | 121.1hPa | 2.7V | 02:57:11 | 02:59:41 | 00:00:00 | |
| DF8AY | 2026-09-05 12:50:17 | 52.34000 | 11.97227 | 104° | 66km/h | 15339m | -12.7m/s | -51.1°C | 0% | 119.5hPa | 2.7V | 02:57:11 | 02:59:34 | 00:00:00 | |
| DL1XH1-15 | 2026-09-05 12:50:16 | 52.34003 | 11.97201 | 103° | 66km/h | 15351m | -12.4m/s | -51.2°C | 3.2% | 119.4hPa | 2.7V | 02:56:59 | 02:59:33 | 00:00:00 | |
| DL1XH-west | 2026-09-05 12:50:11 | 52.34003 | 11.97201 | 104° | 66km/h | 15351m | -12.4m/s | -51.2°C | 0% | 119.4hPa | 2.7V | 02:57:11 | 02:59:33 | 00:00:00 | |
| HSKMA3-T | 2026-09-05 12:50:09 | 52.34011 | 11.97149 | 104° | 64km/h | 15375m | -11.9m/s | -51.2°C | 0% | 118.9hPa | 2.6V | 02:57:11 | 02:59:31 | 00:00:00 | |
| AA1-15 | 2026-09-05 12:50:08 | 52.34015 | 11.97123 | 104° | 64km/h | 15387m | -12.6m/s | -51.1°C | 0% | 118.7hPa | 2.6V | 02:57:11 | 02:59:30 | 00:00:00 | |
| DL1XH1-15 | 2026-09-05 12:50:06 | 52.34041 | 11.96942 | 100° | 62km/h | 15473m | -11.6m/s | -51°C | 3.1% | 117hPa | 2.6V | 02:57:09 | 02:59:23 | 00:00:00 | |
| DM0DOS-11 | 2026-09-05 12:50:05 | 52.34035 | 11.96993 | 102° | 64km/h | 15449m | -12.8m/s | -50.9°C | 3.2% | 117.6hPa | 2.6V | 02:57:07 | 02:59:25 | 00:00:00 | |
| DL1XH-west | 2026-09-05 12:50:01 | 52.34041 | 11.96942 | 100° | 62km/h | 15473m | -11.6m/s | -51.1°C | 0% | 117.1hPa | 2.6V | 02:57:11 | 02:59:23 | 00:00:00 | |
| HSKMA3-T | 2026-09-05 12:49:59 | 52.34046 | 11.96891 | 97° | 62km/h | 15495m | -11m/s | -51.1°C | 0% | 116.7hPa | 2.7V | 02:57:11 | 02:59:21 | 00:00:00 | |
| SONCRA | 2026-09-05 12:49:59 | 52.34047 | 11.96866 | 95° | 60km/h | 15507m | -12.0m/s | -51.1°C | 0.9% | 116.5hPa | 2.6V | 00:00:00 | 00:00:00 | 00:00:00 | |
| DL4XJ-10 | 2026-09-05 12:49:58 | 52.34047 | 11.96866 | 96° | 66km/h | 15507m | -11.9m/s | -51.3°C | 0% | 0hPa | 2.6V | 00:00:00 | 00:00:00 | 00:00:00 | |
| DO2SHX-10 | 2026-09-05 12:49:57 | 52.34049 | 11.96842 | 95° | 60km/h | 15519m | -12.2m/s | -51.2°C | 3.1% | 116.2hPa | 2.6V | 00:00:00 | 02:59:19 | 00:00:00 | |
| AA1-15 | 2026-09-05 12:49:57 | 52.34049 | 11.96842 | 94° | 60km/h | 15519m | -12.2m/s | -51.2°C | 0% | 116.3hPa | 2.6V | 02:58:02 | 02:59:19 | 00:00:00 | |
| DL1XH1-15 | 2026-09-05 12:49:56 | 52.34051 | 11.96691 | 90° | 64km/h | 15588m | -11.4m/s | -51.4°C | 3.1% | 115hPa | 2.6V | 02:57:19 | 02:59:13 | 00:00:00 | |
| DM0DOS-11 | 2026-09-05 12:49:55 | 52.34051 | 11.96742 | 90° | 62km/h | 15565m | -11.4m/s | -51.3°C | 3.1% | 115.5hPa | 2.7V | 02:57:17 | 02:59:15 | 00:00:00 | |
| DB0DAN | 2026-09-05 12:49:55 | 52.34051 | 11.96792 | 92° | 57km/h | 15542m | -11.3m/s | -51.5°C | 0.9% | 115.88hPa | 2.6V | 00:00:00 | 00:00:00 | 00:00:00 | |
| DL1XH-west | 2026-09-05 12:49:51 | 52.34051 | 11.96691 | 90° | 64km/h | 15588m | -11.5m/s | -51.4°C | 0% | 115hPa | 2.6V | 02:58:02 | 02:59:13 | 00:00:00 | |
| DF8AY | 2026-09-05 12:49:50 | 52.34051 | 11.96665 | 90° | 64km/h | 15600m | -11.5m/s | -51.4°C | 0% | 114.8hPa | 2.6V | 02:58:02 | 02:59:12 | 00:00:00 | |
| DL1XH-15 | 2026-09-05 12:49:50 | 52.34052 | 11.96586 | 91° | 64km/h | 15633m | -11.1m/s | -51.6°C | 3.1% | 114.3hPa | 2.7V | 02:57:23 | 02:59:09 | 00:00:00 | |
| HSKMA3-T | 2026-09-05 12:49:49 | 52.34051 | 11.96638 | 91° | 64km/h | 15611m | -11.3m/s | -51.4°C | 0% | 114.6hPa | 2.6V | 02:58:02 | 02:59:11 | 00:00:00 | |
| AA1-15 | 2026-09-05 12:49:46 | 52.34052 | 11.96559 | 91° | 64km/h | 15645m | -12.1m/s | -51.7°C | 0% | 114.1hPa | 2.7V | 02:58:02 | 02:59:08 | 00:00:00 | |
| DM0DOS-11 | 2026-09-05 12:49:45 | 52.34053 | 11.96478 | 90° | 68km/h | 15682m | -12.2m/s | -52°C | 3.2% | 113.4hPa | 2.6V | 02:57:27 | 02:59:05 | 00:00:00 | |
| EDDB2-11 | 2026-09-05 12:49:44 | 52.34053 | 11.96505 | 90° | 66km/h | 15670m | -11.8m/s | -51.9°C | 0.9% | 113.6hPa | 2.7V | 00:00:00 | 00:00:00 | 00:00:00 | |
| DL1XH-west | 2026-09-05 12:49:41 | 52.34053 | 11.96421 | 90° | 69km/h | 15706m | -11.9m/s | -52.1°C | 0% | 113hPa | 2.7V | 02:58:02 | 02:59:03 | 00:00:00 | |
| DL1XH-15 | 2026-09-05 12:49:40 | 52.34053 | 11.96305 | 88° | 71km/h | 15753m | -11.6m/s | -52.4°C | 3.4% | 112.1hPa | 2.7V | 02:57:33 | 02:58:59 | 00:00:00 | |
| DB0DAN | 2026-09-05 12:49:40 | 52.34054 | 11.96393 | 90° | 68km/h | 15718m | -11.9m/s | -52.1°C | 0.9% | 112.75hPa | 2.7V | 00:00:00 | 00:00:00 | 00:00:00 | |
| DF8AY | 2026-09-05 12:49:39 | 52.34053 | 11.96364 | 90° | 71km/h | 15730m | -12m/s | -52.2°C | 0% | 112.6hPa | 2.6V | 02:58:02 | 02:59:01 | 00:00:00 | |
| HSKMA3-T | 2026-09-05 12:49:38 | 52.34053 | 11.96334 | 89° | 71km/h | 15741m | -11.8m/s | -52.3°C | 0% | 112.4hPa | 2.6V | 02:58:02 | 02:59:00 | 00:00:00 | |
| AA1-15 | 2026-09-05 12:49:36 | 52.34053 | 11.96276 | 89° | 71km/h | 15765m | -11.5m/s | -52.5°C | 0% | 112hPa | 2.7V | 02:58:02 | 02:58:58 | 00:00:00 | |
| DO2SHX-10 | 2026-09-05 12:49:36 | 52.34053 | 11.96275 | 90° | 71km/h | 15765m | -11.5m/s | -52.4°C | 3.4% | 111.9hPa | 2.7V | 02:57:00 | 02:58:58 | 00:00:00 | |
| DM0DOS-11 | 2026-09-05 12:49:35 | 52.34052 | 11.96188 | 90° | 71km/h | 15799m | -11.6m/s | -52.7°C | 3.5% | 111.4hPa | 2.7V | 02:57:37 | 02:58:55 | 00:00:00 | |
| DL1XH-west | 2026-09-05 12:49:30 | 52.34052 | 11.96096 | 89° | 75km/h | 15833m | -11.6m/s | -52.6°C | 0.1% | 110.8hPa | 2.6V | 02:58:02 | 02:58:52 | 00:00:00 | |
| DL1XH-15 | 2026-09-05 12:49:30 | 52.34050 | 11.96001 | 87° | 78km/h | 15868m | -10.5m/s | -52.7°C | 3.5% | 110.2hPa | 2.6V | 02:57:43 | 02:58:49 | 00:00:00 | |
| DL1NUX | 2026-09-05 12:49:30 | 52.34049 | 11.95937 | 87° | 78km/h | 15891m | -12m/s | -52.8°C | 3.5% | 109.8hPa | 2.7V | 02:57:45 | 02:58:47 | 00:00:00 | |
| DF8AY | 2026-09-05 12:49:29 | 52.34052 | 11.96065 | 88° | 77km/h | 15845m | -12.8m/s | -52.6°C | 0% | 110.5hPa | 2.7V | 02:58:02 | 02:58:51 | 00:00:00 | |
| HSKMA3-T | 2026-09-05 12:49:28 | 52.34051 | 11.96033 | 88° | 78km/h | 15857m | -11.6m/s | -52.6°C | 0% | 110.4hPa | 2.7V | 02:58:02 | 02:58:50 | 00:00:00 | |
| SONCRA | 2026-09-05 12:49:28 | 52.34050 | 11.96001 | 87° | 77km/h | 15868m | -10.5m/s | -52.7°C | 1.0% | 110.2hPa | 2.6V | 00:00:00 | 00:00:00 | 00:00:00 | |
| DO2SHX-10 | 2026-09-05 12:49:27 | 52.34050 | 11.96001 | 88° | 78km/h | 15868m | -10.5m/s | -52.6°C | 3.5% | 110.1hPa | 2.6V | 02:57:00 | 02:58:49 | 00:00:00 | |
| DL1XH1-15 | 2026-09-05 12:49:26 | 52.34045 | 11.95807 | 87° | 78km/h | 15938m | -12.8m/s | -53°C | 3.4% | 109hPa | 2.6V | 02:57:49 | 02:58:43 | 00:00:00 | |
| AA1-15 | 2026-09-05 12:49:25 | 52.34049 | 11.95937 | 88° | 78km/h | 15891m | -12m/s | -52.8°C | 0% | 109.8hPa | 2.7V | 02:58:02 | 02:58:47 | 00:00:00 | |
| GOEST3-10 | 2026-09-05 12:49:25 | 52.34049 | 11.95936 | 88° | 78km/h | 15892m | -11.9m/s | -52.7°C | 3.5% | 109.8hPa | 2.7V | 00:00:00 | 00:00:00 | 00:00:00 | |
| DB0DAN | 2026-09-05 12:49:25 | 52.34049 | 11.95937 | 88° | 75km/h | 15891m | -12m/s | -52.8°C | 1% | 109.83hPa | 2.7V | 00:00:00 | 00:00:00 | 00:00:00 | |
| DO2SHX-10 | 2026-09-05 12:49:24 | 52.34048 | 11.95904 | 88° | 78km/h | 15903m | -10.9m/s | -52.8°C | 3.5% | 109.5hPa | 2.7V | 00:00:00 | 02:58:46 | 00:00:00 | |
| AM1SDL-15 | 2026-09-05 12:49:23 | 52.34047 | 11.95871 | 88° | 77km/h | 15914m | -11.0m/s | -52.8°C | 3.5% | 109.4hPa | 2.7V | 00:00:00 | 02:58:45 | 00:00:00 | |
| DF7ER-10 | 2026-09-05 12:49:22 | 52.34047 | 11.95839 | 88° | 78km/h | 15925m | -11.9m/s | -53.0°C | 1.0% | 109.2hPa | 2.7V | 02:58:00 | 00:00:00 | 00:00:00 | |
| DL1XH-15 | 2026-09-05 12:49:21 | 52.34040 | 11.95682 | 85° | 75km/h | 15984m | -11.3m/s | -52.3°C | 3.2% | 108.2hPa | 2.7V | 02:57:53 | 02:58:39 | 00:00:00 | |
| DL1NUX | 2026-09-05 12:49:20 | 52.34037 | 11.95621 | 84° | 75km/h | 16006m | -11m/s | -52.5°C | 3.2% | 107.8hPa | 2.6V | 02:57:55 | 02:58:37 | 00:00:00 | |
| DL1XH-west | 2026-09-05 12:49:19 | 52.34043 | 11.95744 | 86° | 77km/h | 15961m | -11.6m/s | -52.6°C | 0% | 108.6hPa | 2.7V | 02:58:02 | 02:58:41 | 00:00:00 | |
| HSKMA3-T | 2026-09-05 12:49:18 | 52.34042 | 11.95713 | 86° | 75km/h | 15973m | -11.3m/s | -52.4°C | 0% | 108.5hPa | 2.7V | 02:58:02 | 02:58:40 | 00:00:00 | |
| AA1-15 | 2026-09-05 12:49:15 | 52.34037 | 11.95621 | 85° | 75km/h | 16006m | -11m/s | -52.5°C | 0% | 107.9hPa | 2.6V | 02:58:02 | 02:58:37 | 00:00:00 | |
| DO2SHX-10 | 2026-09-05 12:49:15 | 52.34037 | 11.95621 | 85° | 75km/h | 16006m | -10.9m/s | -52.4°C | 3.2% | 107.8hPa | 2.7V | 00:00:00 | 02:58:37 | 00:00:00 | |
| S3001 | 2026-09-05 12:49:13 | 52.34032 | 11.95528 | 86° | 75km/h | 16039m | -10.9m/s | -52.7°C | 0.9% | 107.3hPa | 2.7V | 00:00:00 | 00:00:00 | 00:00:00 | |
| DO2SHX-10 | 2026-09-05 12:49:12 | 52.34032 | 11.95527 | 87° | 77km/h | 16039m | -10.9m/s | -52.6°C | 3.3% | 107.3hPa | 2.7V | 00:00:00 | 02:58:34 | 00:00:00 | |
| DF7ER-10 | 2026-09-05 12:49:11 | 52.34031 | 11.95496 | 88° | 77km/h | 16050m | -11.2m/s | -52.7°C | 0.9% | 107.1hPa | 2.7V | 02:58:00 | 00:00:00 | 00:00:00 | |
| DL1XH-15 | 2026-09-05 12:49:10 | 52.34029 | 11.95370 | 89° | 75km/h | 16094m | -11.2m/s | -53°C | 3.4% | 106.4hPa | 2.7V | 02:58:03 | 02:58:29 | 00:00:00 | |
| DL1NUX | 2026-09-05 12:49:10 | 52.34029 | 11.95309 | 90° | 73km/h | 16116m | -10.6m/s | -53.1°C | 3.5% | 106hPa | 2.7V | 02:58:05 | 02:58:27 | 00:00:00 | |
| DB0DAN | 2026-09-05 12:49:10 | 52.34030 | 11.95465 | 88° | 73km/h | 16061m | -11m/s | -52.8°C | 0.9% | 106.95hPa | 2.6V | 00:00:00 | 00:00:00 | 00:00:00 | |
| DL1XH-west | 2026-09-05 12:49:08 | 52.34029 | 11.95401 | 90° | 77km/h | 16083m | -10.7m/s | -52.9°C | 0% | 106.6hPa | 2.6V | 02:58:02 | 02:58:30 | 00:00:00 | |
| DF8AY | 2026-09-05 12:49:07 | 52.34029 | 11.95370 | 90° | 75km/h | 16094m | -11.2m/s | -53°C | 0% | 106.4hPa | 2.7V | 02:58:53 | 02:58:29 | 00:00:00 | |
| HSKMA3-T | 2026-09-05 12:49:06 | 52.34029 | 11.95339 | 90° | 75km/h | 16105m | -10.7m/s | -53.1°C | 0% | 106.2hPa | 2.7V | 03:00:35 | 02:58:28 | 00:00:00 | |
| AA1-15 | 2026-09-05 12:49:04 | 52.34029 | 11.95280 | 90° | 71km/h | 16126m | -10.8m/s | -53.2°C | 0% | 105.9hPa | 2.6V | 02:58:53 | 02:58:26 | 00:00:00 | |
| DO2SHX-10 | 2026-09-05 12:49:03 | 52.34029 | 11.95251 | 90° | 69km/h | 16137m | -11.4m/s | -53.3°C | 3.5% | 105.7hPa | 2.7V | 00:00:00 | 02:58:25 | 00:00:00 | |
| DD8BA-10 | 2026-09-05 12:49:01 | 52.34029 | 11.95194 | 91° | 66km/h | 16160m | -11.1m/s | -53.6°C | 3.6% | 105.3hPa | 2.7V | 00:00:00 | 00:00:00 | 00:00:00 | |
| DL1XH-15 | 2026-09-05 12:49:00 | 52.34029 | 11.95085 | 89° | 64km/h | 16205m | -11.1m/s | -53.9°C | 3.7% | 104.6hPa | 2.7V | 02:58:13 | 02:58:19 | 00:00:00 | |
| DL1NUX | 2026-09-05 12:49:00 | 52.34029 | 11.95032 | 91° | 66km/h | 16228m | -11.3m/s | -54°C | 3.8% | 104.2hPa | 2.6V | 02:58:15 | 02:58:17 | 00:00:00 | |
| DF8AY | 2026-09-05 12:48:57 | 52.34029 | 11.95085 | 90° | 64km/h | 16205m | -11.1m/s | -53.9°C | 0.1% | 104.6hPa | 2.7V | 02:58:53 | 02:58:19 | 00:00:00 | |
| HSKMA3-T | 2026-09-05 12:48:55 | 52.34029 | 11.95032 | 91° | 66km/h | 16228m | -11.3m/s | -54°C | 0.2% | 104.2hPa | 2.6V | 03:00:35 | 02:58:17 | 00:00:00 | |
| DB0DAN | 2026-09-05 12:48:55 | 52.34029 | 11.95032 | 91° | 62km/h | 16228m | -11.3m/s | -54°C | 1.1% | 104.22hPa | 2.6V | 00:00:00 | 00:00:00 | 00:00:00 | |
| AA1-15 | 2026-09-05 12:48:54 | 52.34029 | 11.95005 | 92° | 64km/h | 16239m | -12.6m/s | -54°C | 0.1% | 104hPa | 2.6V | 02:58:53 | 02:58:16 | 00:00:00 | |
| DO2SHX-10 | 2026-09-05 12:48:54 | 52.34029 | 11.95005 | 92° | 66km/h | 16239m | -12.5m/s | -54.0°C | 3.8% | 104.0hPa | 2.6V | 00:00:00 | 02:58:16 | 00:00:00 | |
| DF8AY-15 | 2026-09-05 12:48:53 | 52.34030 | 11.94978 | 93° | 71km/h | 16251m | -11.6m/s | -54.1°C | 3.8% | 103.8hPa | 2.6V | 02:58:00 | 02:58:15 | 00:00:00 | |
| DO2SHX-10 | 2026-09-05 12:48:51 | 52.34032 | 11.94925 | 95° | 66km/h | 16275m | -12.1m/s | -54.4°C | 3.9% | 103.4hPa | 2.7V | 02:58:00 | 02:58:13 | 00:00:00 | |
| DL1XH-15 | 2026-09-05 12:48:50 | 52.34039 | 11.94817 | 98° | 68km/h | 16323m | -11.4m/s | -54.3°C | 3.9% | 102.7hPa | 2.6V | 02:58:23 | 02:58:09 | 00:00:00 | |
| DL1NUX | 2026-09-05 12:48:50 | 52.34044 | 11.94761 | 98° | 69km/h | 16347m | -12.2m/s | -54°C | 3.9% | 102.3hPa | 2.7V | 02:58:25 | 02:58:07 | 00:00:00 | |
| DF8AY | 2026-09-05 12:48:48 | 52.34039 | 11.94817 | 98° | 68km/h | 16323m | -11.4m/s | -54.3°C | 0.2% | 102.7hPa | 2.6V | 02:58:53 | 02:58:09 | 00:00:00 | |
| DL1XH-west | 2026-09-05 12:48:46 | 52.34042 | 11.94789 | 99° | 69km/h | 16335m | -12.3m/s | -54.1°C | 0.1% | 102.5hPa | 2.7V | 02:58:53 | 02:58:08 | 00:00:00 | |
| DO2SHX-10 | 2026-09-05 12:48:45 | 52.34044 | 11.94761 | 99° | 71km/h | 16347m | -12.2m/s | -54.0°C | 3.9% | 102.3hPa | 2.6V | 00:00:00 | 02:58:07 | 00:00:00 | |
| HSKMA3-T | 2026-09-05 12:48:45 | 52.34044 | 11.94761 | 99° | 69km/h | 16347m | -12.3m/s | -54°C | 0.2% | 102.3hPa | 2.7V | 03:00:35 | 02:58:07 | 00:00:00 | |
| DM0DOS-11 | 2026-09-05 12:48:44 | 52.34050 | 11.94703 | 101° | 71km/h | 16371m | -12.2m/s | -53.6°C | 3.8% | 101.9hPa | 2.6V | 02:58:27 | 02:58:05 | 00:00:00 | |
| AA1-15 | 2026-09-05 12:48:44 | 52.34047 | 11.94732 | 99° | 71km/h | 16359m | -12.1m/s | -53.9°C | 0.1% | 102.1hPa | 2.7V | 02:58:53 | 02:58:06 | 00:00:00 | |
| DJ2DS-15 | 2026-09-05 12:48:43 | 52.34054 | 11.94674 | 101° | 73km/h | 16383m | -12.1m/s | -53.1°C | 1.0% | 101.8hPa | 2.6V | 00:00:00 | 00:00:00 | 00:00:00 | |
| S3001 | 2026-09-05 12:48:42 | 52.34058 | 11.94645 | 103° | 73km/h | 16395m | -12.0m/s | -52.9°C | 0.9% | 101.5hPa | 2.6V | 00:00:00 | 00:00:00 | 00:00:00 | |
| DD8BA-10 | 2026-09-05 12:48:41 | 52.34058 | 11.94645 | 104° | 78km/h | 16395m | -12.0m/s | -52.8°C | 3.5% | 101.5hPa | 2.6V | 00:00:00 | 00:00:00 | 00:00:00 | |
| DL1XH-15 | 2026-09-05 12:48:40 | 52.34079 | 11.94523 | 107° | 78km/h | 16444m | -12.9m/s | -52.6°C | 3.5% | 100.8hPa | 2.6V | 02:58:33 | 02:57:59 | 00:00:00 | |
| DL1NUX | 2026-09-05 12:48:40 | 52.34091 | 11.94461 | 107° | 78km/h | 16468m | -11.2m/s | -52.7°C | 3.5% | 100.4hPa | 2.7V | 02:58:35 | 02:57:57 | 00:00:00 | |
| DF8AY | 2026-09-05 12:48:37 | 52.34079 | 11.94523 | 107° | 78km/h | 16444m | -12.9m/s | -52.6°C | 0% | 100.8hPa | 2.6V | 02:58:53 | 02:57:59 | 00:00:00 | |
| EDDB2-12 | 2026-09-05 12:48:37 | 52.34085 | 11.94492 | 107° | 78km/h | 16457m | -11.8m/s | -52.7°C | 0.9% | 100.6hPa | 2.7V | 00:00:00 | 00:00:00 | 00:00:00 | |
| DL1XH1-15 | 2026-09-05 12:48:36 | 52.34113 | 11.94337 | 105° | 77km/h | 16517m | -12.2m/s | -52.8°C | 3.5% | 99.7hPa | 2.7V | 02:58:39 | 02:57:53 | 00:00:00 | |
| HSKMA3-T | 2026-09-05 12:48:35 | 52.34091 | 11.94461 | 107° | 78km/h | 16468m | -11.2m/s | -52.7°C | 0% | 100.4hPa | 2.7V | 03:00:35 | 02:57:57 | 00:00:00 | |
| DM0DOS-11 | 2026-09-05 12:48:34 | 52.34102 | 11.94399 | 106° | 78km/h | 16493m | -13m/s | -52.8°C | 3.5% | 100hPa | 2.6V | 02:58:37 | 02:57:55 | 00:00:00 | |
| AA1-15 | 2026-09-05 12:48:34 | 52.34097 | 11.94430 | 106° | 78km/h | 16480m | -12.5m/s | -52.7°C | 0% | 100.2hPa | 2.7V | 02:58:53 | 02:57:56 | 00:00:00 | |
| DO2SHX-10 | 2026-09-05 12:48:33 | 52.34102 | 11.94399 | 107° | 78km/h | 16493m | -12.9m/s | -52.8°C | 3.5% | 100.0hPa | 2.6V | 02:58:00 | 02:57:55 | 00:00:00 | |
| SP3WXH-11 | 2026-09-05 12:48:32 | 52.34108 | 11.94368 | 105° | 78km/h | 16505m | -11.8m/s | -52.9°C | 1.0% | 99.8hPa | 2.7V | 00:00:00 | 00:00:00 | 00:00:00 | |
| DD8BA-10 | 2026-09-05 12:48:31 | 52.34113 | 11.94336 | 106° | 71km/h | 16517m | -12.1m/s | -52.8°C | 3.5% | 99.6hPa | 2.7V | 00:00:00 | 00:00:00 | 00:00:00 | |
| DL1NUX | 2026-09-05 12:48:30 | 52.34140 | 11.94158 | 101° | 69km/h | 16589m | -12.5m/s | -52°C | 3.3% | 98.5hPa | 2.7V | 02:58:45 | 02:57:47 | 00:00:00 | |
| DO2SHX-10 | 2026-09-05 12:48:30 | 52.34118 | 11.94306 | 105° | 75km/h | 16529m | -11.1m/s | -52.7°C | 3.5% | 99.4hPa | 2.7V | 00:00:00 | 02:57:52 | 00:00:00 | |
| AM1SDL-15 | 2026-09-05 12:48:29 | 52.34123 | 11.94275 | 105° | 75km/h | 16541m | -12.4m/s | -52.6°C | 3.5% | 99.3hPa | 2.7V | 02:58:00 | 02:57:51 | 00:00:00 | |
| DM0DOS-11 | 2026-09-05 12:48:28 | 52.34146 | 11.94103 | 97° | 68km/h | 16614m | -12.5m/s | -51.9°C | 3.2% | 98.2hPa | 2.7V | 02:58:47 | 02:57:45 | 00:00:00 | |
| DF8AY | 2026-09-05 12:48:26 | 52.34136 | 11.94187 | 103° | 71km/h | 16577m | -12.6m/s | -52°C | 0% | 98.8hPa | 2.6V | 02:58:53 | 02:57:48 | 00:00:00 | |
| DL1XH1-15 | 2026-09-05 12:48:26 | 52.34150 | 11.94049 | 95° | 66km/h | 16640m | -12.1m/s | -51.9°C | 3.2% | 97.8hPa | 2.6V | 02:58:49 | 02:57:43 | 00:00:00 | |
| DL1XH-west | 2026-09-05 12:48:25 | 52.34140 | 11.94158 | 102° | 69km/h | 16589m | -12.5m/s | -52.1°C | 0% | 98.5hPa | 2.7V | 02:58:53 | 02:57:47 | 00:00:00 | |
| DB0DAN | 2026-09-05 12:48:25 | 52.34140 | 11.94158 | 101° | 66km/h | 16589m | -12.5m/s | -52.1°C | 0.9% | 98.54hPa | 2.7V | 00:00:00 | 00:00:00 | 00:00:00 | |
| AA1-15 | 2026-09-05 12:48:24 | 52.34143 | 11.94131 | 100° | 68km/h | 16602m | -12.1m/s | -52°C | 0% | 98.4hPa | 2.7V | 02:58:53 | 02:57:46 | 00:00:00 | |
| HSKMA3-T | 2026-09-05 12:48:22 | 52.34148 | 11.94076 | 97° | 66km/h | 16627m | -13.3m/s | -51.9°C | 0% | 98hPa | 2.6V | 03:00:35 | 02:57:44 | 00:00:00 | |
| DL1XH-15 | 2026-09-05 12:48:21 | 52.34155 | 11.93942 | 94° | 66km/h | 16687m | -12.5m/s | -51.8°C | 3.1% | 97hPa | 2.7V | 02:58:53 | 02:57:39 | 00:00:00 | |
| DL1NUX | 2026-09-05 12:48:20 | 52.34158 | 11.93887 | 94° | 66km/h | 16713m | -12.7m/s | -51.8°C | 3.1% | 96.7hPa | 2.6V | 02:58:55 | 02:57:37 | 00:00:00 | |
| DM0DOS-11 | 2026-09-05 12:48:18 | 52.34160 | 11.93832 | 92° | 68km/h | 16740m | -12.9m/s | -52°C | 3.2% | 96.3hPa | 2.7V | 02:58:57 | 02:57:35 | 00:00:00 | |
| DO2SHX-10 | 2026-09-05 12:48:18 | 52.34154 | 11.93969 | 95° | 66km/h | 16676m | -11.8m/s | -51.7°C | 3.1% | 97.2hPa | 2.6V | 00:00:00 | 02:57:40 | 00:00:00 | |
| DL1XH1-15 | 2026-09-05 12:48:16 | 52.34161 | 11.93776 | 90° | 69km/h | 16765m | -12.1m/s | -52.1°C | 3.3% | 95.9hPa | 2.6V | 02:58:59 | 02:57:33 | 00:00:00 | |
| DF8AY | 2026-09-05 12:48:15 | 52.34161 | 11.93748 | 90° | 69km/h | 16778m | -12.8m/s | -52.2°C | 0% | 95.7hPa | 2.7V | 02:59:44 | 02:57:32 | 00:00:00 | |
| DL1XH-west | 2026-09-05 12:48:14 | 52.34159 | 11.93860 | 93° | 68km/h | 16726m | -13.9m/s | -51.9°C | 0% | 96.5hPa | 2.7V | 02:59:44 | 02:57:36 | 00:00:00 | |
| AA1-15 | 2026-09-05 12:48:13 | 52.34160 | 11.93832 | 93° | 68km/h | 16740m | -12.9m/s | -52°C | 0% | 96.3hPa | 2.7V | 02:59:44 | 02:57:35 | 00:00:00 | |
| HSKMA3-T | 2026-09-05 12:48:11 | 52.34161 | 11.93776 | 91° | 69km/h | 16765m | -12.1m/s | -52.1°C | 0% | 95.9hPa | 2.6V | 03:00:35 | 02:57:33 | 00:00:00 | |
| S3001 | 2026-09-05 12:48:11 | 52.34161 | 11.93748 | 89° | 68km/h | 16778m | -12.8m/s | -52.2°C | 0.9% | 95.7hPa | 2.6V | 00:00:00 | 00:00:00 | 00:00:00 | |
| DL1XH-15 | 2026-09-05 12:48:10 | 52.34160 | 11.93660 | 89° | 73km/h | 16817m | -13.5m/s | -52.5°C | 3.4% | 95.2hPa | 2.6V | 02:59:03 | 02:57:29 | 00:00:00 | |
| DB0DAN | 2026-09-05 12:48:10 | 52.34161 | 11.93748 | 89° | 66km/h | 16778m | -12.8m/s | -52.2°C | 0.9% | 95.72hPa | 2.7V | 00:00:00 | 00:00:00 | 00:00:00 | |
| DL1NUX | 2026-09-05 12:48:10 | 52.34160 | 11.93600 | 89° | 73km/h | 16844m | -13.2m/s | -52.7°C | 3.5% | 94.8hPa | 2.6V | 02:59:05 | 02:57:27 | 00:00:00 | |
| DO2SHX-10 | 2026-09-05 12:48:09 | 52.34160 | 11.93719 | 89° | 71km/h | 16791m | -12.8m/s | -52.3°C | 3.4% | 95.5hPa | 2.7V | 00:00:00 | 02:57:31 | 00:00:00 | |
| DM0DOS-11 | 2026-09-05 12:48:07 | 52.34160 | 11.93539 | 90° | 75km/h | 16870m | -13m/s | -52.9°C | 3.5% | 94.4hPa | 2.7V | 02:59:07 | 02:57:25 | 00:00:00 | |
| DD1CC8 | 2026-09-05 12:48:07 | 52.34160 | 11.93630 | 89° | 71km/h | 16830m | -13.5m/s | -52.6°C | 0.9% | 95.0hPa | 2.6V | 00:00:00 | 00:00:00 | 00:00:00 | |
| DL1XH1-15 | 2026-09-05 12:48:06 | 52.34161 | 11.93478 | 92° | 73km/h | 16897m | -13m/s | -52.6°C | 3.4% | 94hPa | 2.6V | 02:59:09 | 02:57:23 | 00:00:00 | |
| DL1XH-west | 2026-09-05 12:48:04 | 52.34160 | 11.93569 | 90° | 75km/h | 16857m | -13m/s | -52.8°C | 0% | 94.6hPa | 2.7V | 02:59:44 | 02:57:26 | 00:00:00 | |
| AA1-15 | 2026-09-05 12:48:03 | 52.34160 | 11.93539 | 91° | 75km/h | 16870m | -13m/s | -52.9°C | 0% | 94.4hPa | 2.7V | 02:59:44 | 02:57:25 | 00:00:00 | |
| DF8AY | 2026-09-05 12:48:00 | 52.34162 | 11.93448 | 94° | 73km/h | 16910m | -13.4m/s | -52.4°C | 0% | 93.8hPa | 2.6V | 02:59:44 | 02:57:22 | 00:00:00 | |
| DL1XH-15 | 2026-09-05 12:48:00 | 52.34167 | 11.93359 | 96° | 71km/h | 16949m | -12.7m/s | -52.3°C | 3.2% | 93.2hPa | 2.7V | 02:59:13 | 02:57:19 | 00:00:00 | |
| DO2SHX-10 | 2026-09-05 12:48:00 | 52.34162 | 11.93448 | 94° | 73km/h | 16910m | -13.4m/s | -52.4°C | 3.3% | 93.8hPa | 2.7V | 00:00:00 | 02:57:22 | 00:00:00 | |
| DL4XJ-10 | 2026-09-05 12:47:58 | 52.34166 | 11.93388 | 96° | 66km/h | 16937m | -13.1m/s | -52.3°C | 0% | 0hPa | 2.7V | 00:00:00 | 00:00:00 | 00:00:00 | |
| DO2SHX-10 | 2026-09-05 12:47:57 | 52.34167 | 11.93359 | 97° | 71km/h | 16950m | -12.6m/s | -52.2°C | 3.2% | 93.2hPa | 2.7V | 02:59:00 | 02:57:19 | 00:00:00 | |
| DM0DOS-11 | 2026-09-05 12:47:56 | 52.34177 | 11.93243 | 99° | 71km/h | 17001m | -13.2m/s | -52.4°C | 3.3% | 92.5hPa | 2.7V | 02:59:17 | 02:57:15 | 00:00:00 | |
| DB0DAN | 2026-09-05 12:47:55 | 52.34172 | 11.93301 | 98° | 68km/h | 16975m | -12.6m/s | -52.4°C | 0.9% | 92.88hPa | 2.6V | 00:00:00 | 00:00:00 | 00:00:00 | |
| DL1XH1-15 | 2026-09-05 12:47:54 | 52.34184 | 11.93184 | 101° | 73km/h | 17028m | -13.6m/s | -52.5°C | 3.3% | 92.1hPa | 2.6V | 02:59:19 | 02:57:13 | 00:00:00 | |
| HSKMA3-T | 2026-09-05 12:47:54 | 52.34175 | 11.93272 | 99° | 71km/h | 16988m | -13.3m/s | -52.4°C | 0% | 92.7hPa | 2.6V | 03:00:35 | 02:57:16 | 00:00:00 | |
| AA1-15 | 2026-09-05 12:47:53 | 52.34178 | 11.93243 | 100° | 71km/h | 17001m | -13.2m/s | -52.4°C | 0% | 92.5hPa | 2.7V | 02:59:44 | 02:57:15 | 00:00:00 | |
| DF8AY | 2026-09-05 12:47:50 | 52.34188 | 11.93155 | 103° | 73km/h | 17042m | -14m/s | -52.6°C | 0% | 91.9hPa | 2.6V | 02:59:44 | 02:57:12 | 00:00:00 | |
| TFSTFS | 2026-09-05 12:47:50 | 52.34188 | 11.93155 | 104° | 73km/h | 17042m | -14.0m/s | -52.6°C | 0.9% | 91.9hPa | 2.7V | 02:59:00 | 00:00:00 | 00:00:00 | |
| DB0UT-7 | 2026-09-05 12:47:48 | 52.34198 | 11.93097 | 106° | 73km/h | 17068m | -12.0m/s | -52.6°C | 3.4% | 91.5hPa | 2.7V | 00:00:00 | 00:00:00 | 00:00:00 | |
| DH0BRO-15 | 2026-09-05 12:47:47 | 52.34197 | 11.93097 | 107° | 73km/h | 17068m | -12.1m/s | -52.6°C | 0.9% | 91.5hPa | 2.7V | 00:00:00 | 00:00:00 | 00:00:00 | |
| DM0DOS-11 | 2026-09-05 12:47:46 | 52.34223 | 11.92954 | 103° | 73km/h | 17133m | -13.1m/s | -53.1°C | 3.5% | 90.5hPa | 2.7V | 02:59:27 | 02:57:05 | 00:00:00 | |
| DL1NUX | 2026-09-05 12:47:46 | 52.34213 | 11.93012 | 106° | 71km/h | 17107m | -13.1m/s | -52.9°C | 3.4% | 91hPa | 2.6V | 02:59:25 | 02:57:07 | 00:00:00 | |
| DF7ER-10 | 2026-09-05 12:47:45 | 52.34213 | 11.93012 | 107° | 71km/h | 17108m | -13.1m/s | -52.9°C | 0.9% | 91.0hPa | 2.7V | 02:59:00 | 00:00:00 | 00:00:00 | |
| DL1XH1-15 | 2026-09-05 12:47:44 | 52.34231 | 11.92896 | 102° | 73km/h | 17159m | -12.5m/s | -53.1°C | 3.5% | 90.2hPa | 2.7V | 02:59:29 | 02:57:03 | 00:00:00 | |
| HSKMA3-T | 2026-09-05 12:47:43 | 52.34223 | 11.92954 | 104° | 73km/h | 17133m | -13.1m/s | -53.1°C | 0% | 90.5hPa | 2.7V | 03:00:35 | 02:57:05 | 00:00:00 | |
| AA1-15 | 2026-09-05 12:47:42 | 52.34227 | 11.92925 | 103° | 73km/h | 17147m | -13.2m/s | -53.2°C | 0% | 90.5hPa | 2.7V | 02:59:44 | 02:57:04 | 00:00:00 | |
| DO2SHX-10 | 2026-09-05 12:47:42 | 52.34227 | 11.92925 | 103° | 73km/h | 17147m | -13.1m/s | -53.1°C | 3.5% | 90.4hPa | 2.6V | 00:00:00 | 02:57:04 | 00:00:00 | |
| DB0DAN | 2026-09-05 12:47:40 | 52.34235 | 11.92866 | 100° | 71km/h | 17172m | -13.4m/s | -53.1°C | 0.9% | 90.11hPa | 2.6V | 00:00:00 | 00:00:00 | 00:00:00 | |
| DF8AY | 2026-09-05 12:47:39 | 52.34238 | 11.92835 | 99° | 75km/h | 17186m | -13.4m/s | -53°C | 0% | 89.9hPa | 2.6V | 02:59:44 | 02:57:01 | 00:00:00 | |
| AM1SDL-15 | 2026-09-05 12:47:39 | 52.34240 | 11.92804 | 99° | 75km/h | 17199m | -13.0m/s | -52.7°C | 3.3% | 89.7hPa | 2.7V | 00:00:00 | 02:57:00 | 00:00:00 | |
| DL1NUX | 2026-09-05 12:47:36 | 52.34248 | 11.92710 | 98° | 77km/h | 17238m | -13.2m/s | -52.9°C | 3.4% | 89.2hPa | 2.7V | 02:59:35 | 02:56:57 | 00:00:00 | |
| DD1CC8 | 2026-09-05 12:47:36 | 52.34248 | 11.92710 | 98° | 77km/h | 17238m | -13.2m/s | -52.9°C | 0.9% | 89.2hPa | 2.7V | 00:00:00 | 00:00:00 | 00:00:00 | |
| EDDB2-12 | 2026-09-05 12:47:35 | 52.34251 | 11.92679 | 98° | 77km/h | 17251m | -12.7m/s | -53.0°C | 0.9% | 89.0hPa | 2.7V | 00:00:00 | 00:00:00 | 00:00:00 | |
| DL1XH1-15 | 2026-09-05 12:47:34 | 52.34261 | 11.92584 | 100° | 77km/h | 17290m | -13.2m/s | -53.2°C | 3.5% | 88.4hPa | 2.7V | 02:59:39 | 02:56:53 | 00:00:00 | |
| HSKMA3-T | 2026-09-05 12:47:33 | 52.34254 | 11.92647 | 100° | 78km/h | 17264m | -13.7m/s | -53°C | 0% | 88.8hPa | 2.6V | 03:00:35 | 02:56:55 | 00:00:00 | |
| AA1-15 | 2026-09-05 12:47:32 | 52.34258 | 11.92615 | 100° | 77km/h | 17277m | -13.2m/s | -53.2°C | 0% | 88.6hPa | 2.7V | 02:59:44 | 02:56:54 | 00:00:00 | |
| DL1XH-west | 2026-09-05 12:47:31 | 52.34261 | 11.92584 | 101° | 77km/h | 17291m | -13.2m/s | -53.2°C | 0% | 88.4hPa | 2.7V | 02:59:44 | 02:56:53 | 00:00:00 | |
| DD8BA-10 | 2026-09-05 12:47:31 | 52.34261 | 11.92584 | 101° | 73km/h | 17291m | -13.2m/s | -53.2°C | 3.5% | 88.4hPa | 2.7V | 00:00:00 | 00:00:00 | 00:00:00 | |
| DL1NUX | 2026-09-05 12:47:30 | 52.34283 | 11.92404 | 101° | 71km/h | 17370m | -13.6m/s | -52.9°C | 3.4% | 87.3hPa | 2.7V | 02:59:45 | 02:56:47 | 00:00:00 | |
| DF8AY | 2026-09-05 12:47:28 | 52.34272 | 11.92492 | 101° | 73km/h | 17330m | -13.5m/s | -53.4°C | 0% | 87.9hPa | 2.6V | 02:59:44 | 02:56:50 | 00:00:00 | |
| TFSTFS | 2026-09-05 12:47:28 | 52.34272 | 11.92492 | 102° | 75km/h | 17331m | -13.5m/s | -53.4°C | 0.9% | 87.9hPa | 2.6V | 02:59:00 | 00:00:00 | 00:00:00 | |
| DO2SHX-10 | 2026-09-05 12:47:27 | 52.34275 | 11.92462 | 102° | 73km/h | 17344m | -13.5m/s | -53.2°C | 3.5% | 87.7hPa | 2.6V | 00:00:00 | 02:56:49 | 00:00:00 | |
| DM0DOS-11 | 2026-09-05 12:47:26 | 52.34291 | 11.92348 | 103° | 69km/h | 17398m | -13.6m/s | -52.9°C | 3.4% | 87hPa | 2.6V | 02:59:47 | 02:56:45 | 00:00:00 | |
| DL1XH1-15 | 2026-09-05 12:47:25 | 52.34300 | 11.92292 | 105° | 69km/h | 17425m | -13.8m/s | -53°C | 3.4% | 86.6hPa | 2.6V | 02:59:49 | 02:56:43 | 00:00:00 | |
| HSKMA3-T | 2026-09-05 12:47:23 | 52.34291 | 11.92348 | 103° | 69km/h | 17398m | -13.6m/s | -52.9°C | 0% | 87hPa | 2.6V | 03:00:35 | 02:56:45 | 00:00:00 | |
| DL1XH-15 | 2026-09-05 12:47:22 | 52.34320 | 11.92184 | 109° | 66km/h | 17478m | -13.4m/s | -52.8°C | 3.4% | 85.9hPa | 2.6V | 02:59:53 | 02:56:39 | 00:00:00 | |
| AA1-15 | 2026-09-05 12:47:21 | 52.34300 | 11.92292 | 105° | 69km/h | 17425m | -13.8m/s | -53°C | 0% | 86.6hPa | 2.6V | 03:00:35 | 02:56:43 | 00:00:00 | |
| DL1XH-west | 2026-09-05 12:47:20 | 52.34304 | 11.92265 | 106° | 69km/h | 17439m | -13.5m/s | -52.9°C | 0% | 86.4hPa | 2.7V | 03:00:35 | 02:56:42 | 00:00:00 | |
| DF8AY | 2026-09-05 12:47:17 | 52.34320 | 11.92184 | 109° | 66km/h | 17478m | -13.5m/s | -52.8°C | 0% | 85.9hPa | 2.6V | 03:00:35 | 02:56:39 | 00:00:00 | |
| DM0DOS-11 | 2026-09-05 12:47:16 | 52.34346 | 11.92086 | 116° | 64km/h | 17534m | -14.2m/s | -52.6°C | 3.4% | 85.2hPa | 2.6V | 02:59:57 | 02:56:35 | 00:00:00 | |
| DO2SHX-10 | 2026-09-05 12:47:15 | 52.34332 | 11.92134 | 114° | 64km/h | 17506m | -14.0m/s | -52.7°C | 3.4% | 85.5hPa | 2.7V | 00:00:00 | 02:56:37 | 00:00:00 | |
| DL1XH1-15 | 2026-09-05 12:47:14 | 52.34361 | 11.92041 | 119° | 62km/h | 17561m | -13.6m/s | -52.6°C | 3.3% | 84.8hPa | 2.7V | 02:59:59 | 02:56:33 | 00:00:00 | |
| HSKMA3-T | 2026-09-05 12:47:12 | 52.34353 | 11.92063 | 119° | 62km/h | 17548m | -13.4m/s | -52.6°C | 0% | 85hPa | 2.6V | 03:00:35 | 02:56:34 | 00:00:00 | |
| AA1-15 | 2026-09-05 12:47:11 | 52.34361 | 11.92041 | 120° | 62km/h | 17561m | -13.6m/s | -52.6°C | 0% | 84.8hPa | 2.7V | 03:00:35 | 02:56:33 | 00:00:00 | |
| DD8BA-10 | 2026-09-05 12:47:11 | 52.34361 | 11.92041 | 120° | 58km/h | 17561m | -13.6m/s | -52.5°C | 3.3% | 84.8hPa | 2.7V | 00:00:00 | 00:00:00 | 00:00:00 | |
| GOEST3-10 | 2026-09-05 12:47:10 | 52.34369 | 11.92019 | 121° | 58km/h | 17575m | -13.9m/s | -52.6°C | 3.3% | 84.6hPa | 2.7V | 03:00:00 | 00:00:00 | 00:00:00 | |
| DL1XH-west | 2026-09-05 12:47:10 | 52.34369 | 11.92020 | 120° | 60km/h | 17575m | -13.9m/s | -52.6°C | 0% | 84.7hPa | 2.7V | 03:00:35 | 02:56:32 | 00:00:00 | |
| DO2SHX-10 | 2026-09-05 12:47:09 | 52.34376 | 11.91998 | 121° | 58km/h | 17589m | -13.5m/s | -52.6°C | 3.3% | 84.4hPa | 2.7V | 00:00:00 | 02:56:31 | 00:00:00 | |
| DL1CLM-18 | 2026-09-05 12:47:08 | 52.34384 | 11.91977 | 122° | 58km/h | 17603m | -14.3m/s | -52.7°C | 0.8% | 84.3hPa | 2.7V | 00:00:00 | 00:00:00 | 00:00:00 | |
| DM0DOS-11 | 2026-09-05 12:47:07 | 52.34418 | 11.91874 | 115° | 57km/h | 17672m | -13.7m/s | -52.8°C | 3.4% | 83.4hPa | 2.7V | 03:00:07 | 02:56:25 | 00:00:00 | |
| DF8AY | 2026-09-05 12:47:07 | 52.34399 | 11.91936 | 120° | 57km/h | 17631m | -14m/s | -52.8°C | 0% | 83.9hPa | 2.6V | 03:00:35 | 02:56:28 | 00:00:00 | |
| HSKMA3-T | 2026-09-05 12:47:02 | 52.34425 | 11.91853 | 114° | 55km/h | 17686m | -13.9m/s | -52.8°C | 0% | 83.2hPa | 2.6V | 03:00:35 | 02:56:24 | 00:00:00 | |
| AA1-15 | 2026-09-05 12:47:00 | 52.34435 | 11.91811 | 110° | 57km/h | 17714m | -13.8m/s | -52.7°C | 0% | 82.8hPa | 2.7V | 03:00:35 | 02:56:22 | 00:00:00 | |
| DL1XH-west | 2026-09-05 12:46:59 | 52.34440 | 11.91789 | 108° | 57km/h | 17728m | -14m/s | -52.7°C | 0% | 82.7hPa | 2.7V | 03:00:35 | 02:56:21 | 00:00:00 | |
| DF8AY | 2026-09-05 12:46:56 | 52.34452 | 11.91718 | 103° | 60km/h | 17769m | -14m/s | -52.9°C | 0% | 82.2hPa | 2.7V | 03:00:35 | 02:56:18 | 00:00:00 | |
| DM0DOS-11 | 2026-09-05 12:46:56 | 52.34460 | 11.91643 | 98° | 62km/h | 17811m | -14.2m/s | -53.1°C | 3.7% | 81.6hPa | 2.6V | 03:00:17 | 02:56:15 | 00:00:00 | |
| TFSTFS | 2026-09-05 12:46:55 | 52.34455 | 11.91693 | 102° | 62km/h | 17783m | -14.2m/s | -53.0°C | 0.9% | 82.0hPa | 2.6V | 03:00:00 | 00:00:00 | 00:00:00 | |
| DB0DAN | 2026-09-05 12:46:55 | 52.34455 | 11.91693 | 101° | 58km/h | 17783m | -14.2m/s | -53°C | 0.9% | 81.96hPa | 2.7V | 00:00:00 | 00:00:00 | 00:00:00 | |
| DL1XH1-15 | 2026-09-05 12:46:54 | 52.34464 | 11.91591 | 97° | 64km/h | 17840m | -14.3m/s | -53.1°C | 3.7% | 81.3hPa | 2.6V | 03:00:19 | 02:56:13 | 00:00:00 | |
| HSKMA3-T | 2026-09-05 12:46:51 | 52.34464 | 11.91591 | 97° | 64km/h | 17840m | -14.3m/s | -53.1°C | 0.1% | 81.3hPa | 2.6V | 03:00:35 | 02:56:13 | 00:00:00 | |
| DL1XH-west | 2026-09-05 12:46:49 | 52.34468 | 11.91540 | 98° | 62km/h | 17868m | -14.4m/s | -53.2°C | 0.1% | 80.9hPa | 2.7V | 03:00:35 | 02:56:11 | 00:00:00 | |
| DL1NUX | 2026-09-05 12:46:48 | 52.34477 | 11.91443 | 100° | 58km/h | 17924m | -14.9m/s | -52.3°C | 3.5% | 80.2hPa | 2.7V | 03:00:25 | 02:56:07 | 00:00:00 | |
| DF8AY | 2026-09-05 12:46:45 | 52.34477 | 11.91443 | 100° | 58km/h | 17924m | -14.9m/s | -52.3°C | 0% | 80.2hPa | 2.7V | 03:00:35 | 02:56:07 | 00:00:00 | |
| DO2SHX-10 | 2026-09-05 12:46:45 | 52.34477 | 11.91443 | 101° | 58km/h | 17925m | -14.8m/s | -52.2°C | 3.5% | 80.2hPa | 2.7V | 00:00:00 | 02:56:07 | 00:00:00 | |
| DL1XH1-15 | 2026-09-05 12:46:44 | 52.34488 | 11.91346 | 100° | 62km/h | 17981m | -13.9m/s | -52°C | 3.4% | 79.5hPa | 2.7V | 03:00:29 | 02:56:03 | 00:00:00 | |
| HSKMA3-T | 2026-09-05 12:46:41 | 52.34488 | 11.91346 | 100° | 62km/h | 17981m | -13.9m/s | -52°C | 0% | 79.5hPa | 2.7V | 03:00:35 | 02:56:03 | 00:00:00 | |
| DL1XH-15 | 2026-09-05 12:46:40 | 52.34501 | 11.91238 | 101° | 69km/h | 18037m | -14.2m/s | -52.2°C | 3.4% | 78.8hPa | 2.6V | 03:00:33 | 02:55:59 | 00:00:00 | |
| DL1XH-west | 2026-09-05 12:46:39 | 52.34494 | 11.91293 | 100° | 66km/h | 18009m | -13.8m/s | -52.1°C | 0% | 79.2hPa | 2.7V | 03:00:35 | 02:56:01 | 00:00:00 | |
| AA1-15 | 2026-09-05 12:46:38 | 52.34497 | 11.91266 | 101° | 68km/h | 18023m | -14.5m/s | -52.2°C | 0% | 79hPa | 2.6V | 03:00:35 | 02:56:00 | 00:00:00 | |
| DL1NUX | 2026-09-05 12:46:38 | 52.34508 | 11.91181 | 103° | 71km/h | 18065m | -14.3m/s | -52.2°C | 3.4% | 78.5hPa | 2.7V | 03:00:35 | 02:55:57 | 00:00:00 | |
| DF8AY | 2026-09-05 12:46:34 | 52.34512 | 11.91153 | 104° | 71km/h | 18080m | -14.2m/s | -52°C | 0% | 78.3hPa | 2.7V | 03:01:26 | 02:55:56 | 00:00:00 | |
| DL1XH1-15 | 2026-09-05 12:46:34 | 52.34525 | 11.91067 | 102° | 69km/h | 18123m | -14.7m/s | -51.3°C | 3.3% | 77.8hPa | 2.6V | 03:00:39 | 02:55:53 | 00:00:00 | |
| HSKMA3-T | 2026-09-05 12:46:31 | 52.34525 | 11.91067 | 102° | 69km/h | 18123m | -14.7m/s | -51.3°C | 0% | 77.8hPa | 2.6V | 03:01:26 | 02:55:53 | 00:00:00 | |
| DD8BA-10 | 2026-09-05 12:46:31 | 52.34525 | 11.91067 | 103° | 68km/h | 18123m | -14.7m/s | -51.2°C | 3.3% | 77.7hPa | 2.6V | 00:00:00 | 00:00:00 | 00:00:00 | |
| DL1XH-15 | 2026-09-05 12:46:30 | 52.34537 | 11.90955 | 96° | 68km/h | 18180m | -13.9m/s | -51.1°C | 3.4% | 77.1hPa | 2.6V | 03:00:43 | 02:55:49 | 00:00:00 | |
| DL1XH-west | 2026-09-05 12:46:28 | 52.34535 | 11.90983 | 98° | 69km/h | 18166m | -14.5m/s | -51.2°C | 0% | 77.2hPa | 2.6V | 03:01:26 | 02:55:50 | 00:00:00 | |
| DL1NUX | 2026-09-05 12:46:28 | 52.34540 | 11.90900 | 94° | 66km/h | 18208m | -13.7m/s | -51.1°C | 3.4% | 76.7hPa | 2.7V | 03:00:45 | 02:55:47 | 00:00:00 | |
| AA1-15 | 2026-09-05 12:46:27 | 52.34537 | 11.90955 | 96° | 68km/h | 18180m | -13.9m/s | -51.1°C | 0% | 77.1hPa | 2.6V | 03:01:26 | 02:55:49 | 00:00:00 | |
| DM0DOS-11 | 2026-09-05 12:46:25 | 52.34542 | 11.90846 | 94° | 64km/h | 18236m | -14m/s | -51°C | 3.4% | 76.5hPa | 2.6V | 03:00:47 | 02:55:45 | 00:00:00 | |
| GOEST3-10 | 2026-09-05 12:46:25 | 52.34540 | 11.90900 | 95° | 64km/h | 18209m | -13.7m/s | -51.0°C | 3.4% | 76.7hPa | 2.7V | 00:00:00 | 02:55:47 | 00:00:00 | |
| DL1XH1-15 | 2026-09-05 12:46:24 | 52.34545 | 11.90796 | 95° | 60km/h | 18264m | -14.7m/s | -50.9°C | 3.3% | 76.1hPa | 2.6V | 03:00:49 | 02:55:43 | 00:00:00 | |
| DF8AY | 2026-09-05 12:46:23 | 52.34542 | 11.90846 | 94° | 64km/h | 18236m | -14m/s | -51°C | 0% | 76.5hPa | 2.6V | 03:01:26 | 02:55:45 | 00:00:00 | |
| HSKMA3-T | 2026-09-05 12:46:20 | 52.34546 | 11.90771 | 96° | 58km/h | 18279m | -14.3m/s | -50.7°C | 0% | 75.9hPa | 2.7V | 03:01:26 | 02:55:42 | 00:00:00 | |
| DL1XH-15 | 2026-09-05 12:46:19 | 52.34553 | 11.90703 | 101° | 55km/h | 18323m | -14.7m/s | -50.3°C | 3% | 75.4hPa | 2.6V | 03:00:53 | 02:55:39 | 00:00:00 | |
| DL1XH-west | 2026-09-05 12:46:17 | 52.34553 | 11.90703 | 102° | 55km/h | 18323m | -14.7m/s | -50.3°C | 0% | 75.5hPa | 2.6V | 03:01:26 | 02:55:39 | 00:00:00 | |
| AA1-15 | 2026-09-05 12:46:16 | 52.34556 | 11.90681 | 104° | 53km/h | 18337m | -13.2m/s | -50.3°C | 0% | 75.2hPa | 2.6V | 03:01:26 | 02:55:38 | 00:00:00 | |
| BUE01 | 2026-09-05 12:46:16 | 52.34559 | 11.90661 | 106° | 49km/h | 18350m | -14.4m/s | -50.2°C | 0.7% | 75.1hPa | 2.7V | 00:00:00 | 00:00:00 | 00:00:00 | |
| DM0DOS-11 | 2026-09-05 12:46:15 | 52.34566 | 11.90623 | 107° | 46km/h | 18379m | -14.1m/s | -50.1°C | 3% | 74.7hPa | 2.7V | 03:00:57 | 02:55:35 | 00:00:00 | |
| DO2SHX-10 | 2026-09-05 12:46:15 | 52.34559 | 11.90661 | 107° | 47km/h | 18351m | -14.4m/s | -50.2°C | 3.0% | 75.0hPa | 2.6V | 00:00:00 | 02:55:37 | 00:00:00 | |
| DL1XH1-15 | 2026-09-05 12:46:14 | 52.34573 | 11.90589 | 107° | 40km/h | 18408m | -14.1m/s | -50.1°C | 3% | 74.4hPa | 2.6V | 03:00:59 | 02:55:33 | 00:00:00 | |
| DF8AY | 2026-09-05 12:46:12 | 52.34570 | 11.90606 | 108° | 44km/h | 18393m | -14.6m/s | -50°C | 0% | 74.6hPa | 2.6V | 03:01:26 | 02:55:34 | 00:00:00 | |
| HSKMA3-T | 2026-09-05 12:46:10 | 52.34576 | 11.90574 | 108° | 38km/h | 18422m | -14.2m/s | -49.9°C | 0% | 74.3hPa | 2.6V | 03:01:26 | 02:55:32 | 00:00:00 | |
| GOEST3-10 | 2026-09-05 12:46:10 | 52.34576 | 11.90574 | 108° | 33km/h | 18422m | -14.1m/s | -49.9°C | 3.0% | 74.2hPa | 2.6V | 03:01:00 | 00:00:00 | 00:00:00 | |
| DL1XH-15 | 2026-09-05 12:46:09 | 52.34584 | 11.90533 | 105° | 31km/h | 18466m | -14.2m/s | -49.9°C | 2.9% | 73.8hPa | 2.7V | 03:01:03 | 02:55:29 | 00:00:00 | |
| SO1NDE-10 | 2026-09-05 12:46:09 | 52.34579 | 11.90559 | 108° | 26km/h | 18436m | -14.8m/s | -49.9°C | 3.0% | 74.1hPa | 2.7V | 00:00:00 | 02:55:31 | 00:00:00 | |
| DM0DOS-11 | 2026-09-05 12:46:07 | 52.34591 | 11.90489 | 99° | 26km/h | 18525m | -14.6m/s | -49.8°C | 2.9% | 73.1hPa | 2.7V | 03:01:07 | 02:55:25 | 00:00:00 | |
| AA1-15 | 2026-09-05 12:46:06 | 52.34586 | 11.90521 | 105° | 29km/h | 18480m | -14.6m/s | -49.8°C | 0% | 73.6hPa | 2.6V | 03:01:26 | 02:55:28 | 00:00:00 | |
| DF8AY | 2026-09-05 12:46:00 | 52.34593 | 11.90460 | 91° | 20km/h | 18569m | -14m/s | -49.8°C | 0% | 72.7hPa | 2.7V | 03:01:26 | 02:55:22 | 00:00:00 | |
| DF7ER-10 | 2026-09-05 12:46:00 | 52.34592 | 11.90460 | 92° | 20km/h | 18569m | -14.0m/s | -49.8°C | 0.7% | 72.7hPa | 2.6V | 03:01:00 | 00:00:00 | 00:00:00 | |
| DL1XH-15 | 2026-09-05 12:45:59 | 52.34590 | 11.90435 | 73° | 22km/h | 18613m | -14.2m/s | -50°C | 2.9% | 72.2hPa | 2.6V | 03:01:13 | 02:55:19 | 00:00:00 | |
| HSKMA3-T | 2026-09-05 12:45:59 | 52.34592 | 11.90452 | 82° | 20km/h | 18584m | -15.1m/s | -49.9°C | 0% | 72.5hPa | 2.7V | 03:01:26 | 02:55:21 | 00:00:00 | |
| AM1SDL-15 | 2026-09-05 12:45:58 | 52.34591 | 11.90443 | 79° | 24km/h | 18599m | -14.4m/s | -49.9°C | 2.9% | 72.3hPa | 2.7V | 03:01:00 | 02:55:20 | 00:00:00 | |
| 13BRC | 2026-09-05 12:45:57 | 52.34590 | 11.90435 | 75° | 22km/h | 18613m | -14.2m/s | -50.0°C | 0.7% | 72.2hPa | 2.7V | 03:01:00 | 00:00:00 | 00:00:00 | |
| DM0DOS-11 | 2026-09-05 12:45:56 | 52.34583 | 11.90400 | 68° | 22km/h | 18668m | -14.6m/s | -50.1°C | 2.9% | 71.5hPa | 2.7V | 03:01:17 | 02:55:15 | 00:00:00 | |
| DL1XH-west | 2026-09-05 12:45:56 | 52.34588 | 11.90427 | 73° | 22km/h | 18627m | -13.9m/s | -50°C | 0% | 72hPa | 2.6V | 03:01:26 | 02:55:18 | 00:00:00 | |
| GOEST3-10 | 2026-09-05 12:45:55 | 52.34586 | 11.90418 | 71° | 24km/h | 18641m | -13.9m/s | -50.0°C | 3.0% | 71.8hPa | 2.6V | 00:00:00 | 02:55:17 | 00:00:00 | |
| DL1XH1-15 | 2026-09-05 12:45:54 | 52.34578 | 11.90382 | 70° | 24km/h | 18698m | -15.3m/s | -50.2°C | 3% | 71.2hPa | 2.6V | 03:01:19 | 02:55:13 | 00:00:00 | |
| DF8AY | 2026-09-05 12:45:49 | 52.34575 | 11.90364 | 74° | 24km/h | 18727m | -14.7m/s | -50.2°C | 0% | 70.9hPa | 2.7V | 03:01:26 | 02:55:11 | 00:00:00 | |
| DL1XH-15 | 2026-09-05 12:45:49 | 52.34571 | 11.90344 | 79° | 26km/h | 18756m | -14.5m/s | -50.3°C | 2.9% | 70.6hPa | 2.7V | 03:01:23 | 02:55:09 | 00:00:00 | |
| HSKMA3-T | 2026-09-05 12:45:48 | 52.34573 | 11.90354 | 76° | 24km/h | 18742m | -14.6m/s | -50.3°C | 0% | 70.7hPa | 2.7V | 03:01:26 | 02:55:10 | 00:00:00 | |
| DB0UT-7 | 2026-09-05 12:45:48 | 52.34573 | 11.90354 | 76° | 40km/h | 18742m | -14.6m/s | -50.3°C | 2.9% | 70.7hPa | 2.7V | 00:00:00 | 00:00:00 | 00:00:00 | |
| TFSTFS | 2026-09-05 12:45:47 | 52.34573 | 11.90354 | 77° | 24km/h | 18742m | -14.6m/s | -50.3°C | 0.7% | 70.7hPa | 2.7V | 00:00:00 | 00:00:00 | 00:00:00 | |
| DM0DOS-11 | 2026-09-05 12:45:46 | 52.34569 | 11.90298 | 86° | 31km/h | 18814m | -15m/s | -50.6°C | 3% | 70hPa | 2.7V | 03:01:27 | 02:55:05 | 00:00:00 | |
| DL1XH-west | 2026-09-05 12:45:45 | 52.34570 | 11.90322 | 85° | 27km/h | 18785m | -14.7m/s | -50.6°C | 0% | 70.3hPa | 2.6V | 03:01:26 | 02:55:07 | 00:00:00 | |
| BUE01 | 2026-09-05 12:45:45 | 52.34569 | 11.90298 | 86° | 29km/h | 18815m | -15.0m/s | -50.6°C | 0.7% | 70.0hPa | 2.7V | 00:00:00 | 00:00:00 | 00:00:00 | |
| DL1XH1-15 | 2026-09-05 12:45:44 | 52.34567 | 11.90272 | 85° | 33km/h | 18845m | -14.8m/s | -51°C | 3.1% | 69.6hPa | 2.7V | 03:01:29 | 02:55:03 | 00:00:00 | |
| DO3MHA-11 | 2026-09-05 12:45:43 | 52.34569 | 11.90298 | 87° | 37km/h | 18815m | -15.0m/s | -50.6°C | 3.0% | 69.9hPa | 2.7V | 03:01:00 | 02:55:05 | 00:00:00 | |
| DO2SHX-10 | 2026-09-05 12:45:42 | 52.34568 | 11.90286 | 86° | 33km/h | 18830m | -15.0m/s | -50.7°C | 3.0% | 69.8hPa | 2.7V | 03:01:00 | 02:55:04 | 00:00:00 | |
| DL1CLM-18 | 2026-09-05 12:45:41 | 52.34568 | 11.90286 | 86° | 31km/h | 18830m | -15.1m/s | -50.8°C | 0.7% | 69.8hPa | 2.6V | 03:02:00 | 00:00:00 | 00:00:00 | |
| DB0DAN | 2026-09-05 12:45:40 | 52.34566 | 11.90258 | 83° | 33km/h | 18860m | -15.3m/s | -51°C | 0.7% | 69.51hPa | 2.6V | 00:00:00 | 00:00:00 | 00:00:00 | |
| DF8AY | 2026-09-05 12:45:39 | 52.34565 | 11.90244 | 84° | 35km/h | 18875m | -14.8m/s | -51°C | 0% | 69.3hPa | 2.6V | 03:02:17 | 02:55:01 | 00:00:00 | |
| DL1XH-15 | 2026-09-05 12:45:39 | 52.34563 | 11.90214 | 84° | 38km/h | 18904m | -13.9m/s | -51.2°C | 3.1% | 69hPa | 2.7V | 03:01:33 | 02:54:59 | 00:00:00 | |
| HSKMA3-T | 2026-09-05 12:45:38 | 52.34565 | 11.90229 | 84° | 37km/h | 18890m | -14.7m/s | -51.1°C | 0% | 69.2hPa | 2.7V | 03:02:17 | 02:55:00 | 00:00:00 | |
| DL4BBY-15 | 2026-09-05 12:45:38 | 52.34564 | 11.90229 | 84° | 46km/h | 18890m | -14.7m/s | -51.3°C | 0% | 0hPa | 2.6V | 00:00:00 | 00:00:00 | 00:00:00 | |
| DL1NUX | 2026-09-05 12:45:36 | 52.34562 | 11.90182 | 88° | 40km/h | 18933m | -14.9m/s | -51.5°C | 3.2% | 68.7hPa | 2.6V | 03:01:35 | 02:54:57 | 00:00:00 | |
| DL1XH-west | 2026-09-05 12:45:34 | 52.34562 | 11.90165 | 91° | 40km/h | 18949m | -15.8m/s | -51.5°C | 0% | 68.5hPa | 2.6V | 03:02:17 | 02:54:56 | 00:00:00 | |
| DL1XH1-15 | 2026-09-05 12:45:34 | 52.34565 | 11.90114 | 99° | 42km/h | 18994m | -14.9m/s | -51.8°C | 3.2% | 68.1hPa | 2.7V | 03:01:39 | 02:54:53 | 00:00:00 | |
| OE3JTB-15 | 2026-09-05 12:45:34 | 52.34562 | 11.90165 | 92° | 40km/h | 18949m | -15.8m/s | -51.5°C | 3.1% | 68.5hPa | 2.7V | 00:00:00 | 00:00:00 | 00:00:00 | |
| SMARD9-10 | 2026-09-05 12:45:33 | 52.34562 | 11.90148 | 94° | 42km/h | 18964m | -15.4m/s | -51.6°C | 0.8% | 68.4hPa | 2.7V | 00:00:00 | 00:00:00 | 00:00:00 | |
| DD8BA-10 | 2026-09-05 12:45:31 | 52.34565 | 11.90114 | 100° | 46km/h | 18995m | -14.9m/s | -51.8°C | 3.2% | 68.0hPa | 2.7V | 00:00:00 | 00:00:00 | 00:00:00 | |
| DL1XH-15 | 2026-09-05 12:45:30 | 52.34576 | 11.90047 | 109° | 44km/h | 19055m | -15.2m/s | -52°C | 3.3% | 67.5hPa | 2.7V | 03:01:43 | 02:54:49 | 00:00:00 | |
| DF8AY | 2026-09-05 12:45:29 | 52.34569 | 11.90081 | 104° | 42km/h | 19024m | -14.8m/s | -52°C | 0% | 67.8hPa | 2.6V | 03:02:17 | 02:54:51 | 00:00:00 | |
| HSKMA3-T | 2026-09-05 12:45:28 | 52.34572 | 11.90064 | 108° | 42km/h | 19040m | -15.8m/s | -52°C | 0% | 67.6hPa | 2.6V | 03:02:17 | 02:54:50 | 00:00:00 | |
| DO2SHX-10 | 2026-09-05 12:45:27 | 52.34576 | 11.90047 | 110° | 46km/h | 19055m | -15.1m/s | -51.9°C | 3.3% | 67.4hPa | 2.7V | 00:00:00 | 02:54:49 | 00:00:00 | |
| DL1NUX | 2026-09-05 12:45:26 | 52.34584 | 11.90012 | 112° | 47km/h | 19085m | -13.5m/s | -51.8°C | 3.3% | 67.1hPa | 2.7V | 03:01:45 | 02:54:47 | 00:00:00 | |
| DB0DAN | 2026-09-05 12:45:25 | 52.34584 | 11.90012 | 112° | 46km/h | 19085m | -13.5m/s | -51.8°C | 0.8% | 67.08hPa | 2.7V | 00:00:00 | 00:00:00 | 00:00:00 | |
| DL1XH1-15 | 2026-09-05 12:45:24 | 52.34605 | 11.89933 | 113° | 53km/h | 19142m | -14.8m/s | -52°C | 3.3% | 66.5hPa | 2.7V | 03:01:49 | 02:54:43 | 00:00:00 | |
| DL1XH-west | 2026-09-05 12:45:23 | 52.34594 | 11.89974 | 114° | 53km/h | 19113m | -14.1m/s | -52.1°C | 0% | 66.8hPa | 2.6V | 03:02:17 | 02:54:45 | 00:00:00 | |
| AM1SDL-15 | 2026-09-05 12:45:22 | 52.34599 | 11.89953 | 113° | 51km/h | 19127m | -14.2m/s | -51.9°C | 3.3% | 66.6hPa | 2.6V | 00:00:00 | 02:54:44 | 00:00:00 | |
| DL1XH-15 | 2026-09-05 12:45:20 | 52.34628 | 11.89852 | 115° | 53km/h | 19202m | -16.3m/s | -52.3°C | 3.3% | 65.9hPa | 2.6V | 03:01:53 | 02:54:39 | 00:00:00 | |
| DL1NUX | 2026-09-05 12:45:20 | 52.34639 | 11.89813 | 115° | 53km/h | 19234m | -15.2m/s | -52.3°C | 3.3% | 65.6hPa | 2.7V | 03:01:55 | 02:54:37 | 00:00:00 | |
| DF8AY | 2026-09-05 12:45:18 | 52.34622 | 11.89872 | 114° | 55km/h | 19187m | -15m/s | -52.2°C | 0% | 66.1hPa | 2.6V | 03:02:17 | 02:54:40 | 00:00:00 | |
| HSKMA3-T | 2026-09-05 12:45:17 | 52.34627 | 11.89852 | 115° | 53km/h | 19202m | -16.3m/s | -52.3°C | 0% | 65.9hPa | 2.6V | 03:02:17 | 02:54:39 | 00:00:00 | |
| DO2SHX-10 | 2026-09-05 12:45:15 | 52.34639 | 11.89813 | 116° | 51km/h | 19234m | -15.2m/s | -52.3°C | 3.3% | 65.5hPa | 2.7V | 00:00:00 | 02:54:37 | 00:00:00 | |
| DL1XH1-15 | 2026-09-05 12:45:14 | 52.34660 | 11.89741 | 116° | 44km/h | 19295m | -15.6m/s | -52.4°C | 3.3% | 65hPa | 2.6V | 03:01:59 | 02:54:33 | 00:00:00 | |
| DL1XH-west | 2026-09-05 12:45:13 | 52.34649 | 11.89775 | 115° | 49km/h | 19264m | -15.3m/s | -52.4°C | 0% | 65.3hPa | 2.6V | 03:02:17 | 02:54:35 | 00:00:00 | |
| DF8AY | 2026-09-05 12:45:08 | 52.34688 | 11.89646 | 113° | 31km/h | 19400m | -15.5m/s | -52.4°C | 0% | 63.9hPa | 2.7V | 03:02:17 | 02:54:26 | 00:00:00 | |
| HSKMA3-T | 2026-09-05 12:45:07 | 52.34677 | 11.89683 | 116° | 35km/h | 19354m | -14.9m/s | -52.4°C | 0% | 64.3hPa | 2.6V | 03:02:17 | 02:54:29 | 00:00:00 | |
| DL1NUX | 2026-09-05 12:45:06 | 52.34685 | 11.89658 | 114° | 33km/h | 19384m | -15.2m/s | -52.3°C | 3.4% | 64.1hPa | 2.7V | 03:02:05 | 02:54:27 | 00:00:00 | |
| DF7ER-10 | 2026-09-05 12:45:06 | 52.34681 | 11.89670 | 116° | 35km/h | 19369m | -15.4m/s | -52.3°C | 0.8% | 64.2hPa | 2.6V | 03:02:00 | 00:00:00 | 00:00:00 | |
| DL4BBY-15 | 2026-09-05 12:45:05 | 52.34684 | 11.89658 | 115° | 26km/h | 19384m | -15.1m/s | -52.4°C | 0% | 0hPa | 2.6V | 00:00:00 | 00:00:00 | 00:00:00 | |
| DL1XH1-15 | 2026-09-05 12:45:04 | 52.34697 | 11.89612 | 114° | 29km/h | 19444m | -15.1m/s | -52.6°C | 3.5% | 63.5hPa | 2.6V | 03:02:09 | 02:54:23 | 00:00:00 | |
| DL1XH-west | 2026-09-05 12:45:02 | 52.34694 | 11.89623 | 115° | 29km/h | 19429m | -14.9m/s | -52.5°C | 0% | 63.6hPa | 2.6V | 03:02:17 | 02:54:24 | 00:00:00 | |
| DD8BA-10 | 2026-09-05 12:45:01 | 52.34697 | 11.89612 | 115° | 31km/h | 19444m | -15.0m/s | -52.5°C | 3.5% | 63.4hPa | 2.6V | 03:02:00 | 00:00:00 | 00:00:00 | |
| DL1NUX | 2026-09-05 12:45:00 | 52.34716 | 11.89546 | 116° | 31km/h | 19536m | -15.8m/s | -52.4°C | 3.3% | 62.6hPa | 2.6V | 03:02:15 | 02:54:17 | 00:00:00 | |
| DF8AY | 2026-09-05 12:44:58 | 52.34706 | 11.89579 | 114° | 29km/h | 19490m | -14.9m/s | -52.6°C | 0% | 63hPa | 2.7V | 03:02:17 | 02:54:20 | 00:00:00 | |
| HSKMA3-T | 2026-09-05 12:44:57 | 52.34709 | 11.89568 | 115° | 29km/h | 19506m | -15.5m/s | -52.4°C | 0% | 62.9hPa | 2.7V | 03:02:17 | 02:54:19 | 00:00:00 | |
| DO2SHX-10 | 2026-09-05 12:44:57 | 52.34709 | 11.89568 | 115° | 29km/h | 19506m | -15.5m/s | -52.4°C | 3.3% | 62.8hPa | 2.7V | 00:00:00 | 02:54:19 | 00:00:00 | |
| DM0DOS-11 | 2026-09-05 12:44:55 | 52.34723 | 11.89523 | 119° | 33km/h | 19568m | -16.1m/s | -52.2°C | 3.2% | 62.3hPa | 2.6V | 03:02:17 | 02:54:15 | 00:00:00 | |
| DL1XH-west | 2026-09-05 12:44:52 | 52.34727 | 11.89511 | 120° | 33km/h | 19585m | -16.4m/s | -52.2°C | 0% | 62.1hPa | 2.7V | 03:03:08 | 02:54:14 | 00:00:00 | |
| AA1-15 | 2026-09-05 12:44:51 | 52.34732 | 11.89499 | 121° | 35km/h | 19601m | -16.2m/s | -52.2°C | 0% | 62hPa | 2.7V | 03:03:08 | 02:54:13 | 00:00:00 | |
| DO2SHX-10 | 2026-09-05 12:44:51 | 52.34732 | 11.89499 | 122° | 35km/h | 19601m | -16.1m/s | -52.2°C | 3.3% | 61.9hPa | 2.7V | 00:00:00 | 02:54:13 | 00:00:00 | |
| DL1XH-15 | 2026-09-05 12:44:50 | 52.34751 | 11.89447 | 121° | 38km/h | 19664m | -15.5m/s | -52.4°C | 3.4% | 61.4hPa | 2.7V | 03:02:23 | 02:54:09 | 00:00:00 | |
| DF8AY | 2026-09-05 12:44:47 | 52.34751 | 11.89448 | 122° | 38km/h | 19664m | -15.5m/s | -52.4°C | 0% | 61.4hPa | 2.7V | 03:03:08 | 02:54:09 | 00:00:00 | |
| DO9LL-15 | 2026-09-05 12:44:47 | 52.34751 | 11.89447 | 122° | 29km/h | 19665m | -15.5m/s | -52.3°C | 3.4% | 61.3hPa | 2.6V | 00:00:00 | 02:54:09 | 00:00:00 | |
| DM0DOS-11 | 2026-09-05 12:44:46 | 52.34771 | 11.89396 | 124° | 37km/h | 19729m | -16.1m/s | -53°C | 3.5% | 60.8hPa | 2.6V | 03:02:27 | 02:54:05 | 00:00:00 | |
| HSKMA3-T | 2026-09-05 12:44:46 | 52.34756 | 11.89434 | 122° | 37km/h | 19680m | -15.9m/s | -52.5°C | 0% | 61.2hPa | 2.7V | 03:03:08 | 02:54:08 | 00:00:00 | |
| DL1NUX | 2026-09-05 12:44:46 | 52.34761 | 11.89421 | 122° | 37km/h | 19696m | -17.1m/s | -52.7°C | 3.4% | 61.1hPa | 2.7V | 03:02:25 | 02:54:07 | 00:00:00 | |
| DL1XH-west | 2026-09-05 12:44:42 | 52.34776 | 11.89383 | 126° | 37km/h | 19746m | -17.4m/s | -53°C | 0% | 60.6hPa | 2.6V | 03:03:08 | 02:54:04 | 00:00:00 | |
| AA1-15 | 2026-09-05 12:44:41 | 52.34782 | 11.89372 | 127° | 35km/h | 19763m | -16.2m/s | -53.1°C | 0% | 60.5hPa | 2.7V | 03:03:08 | 02:54:03 | 00:00:00 | |
| DD8BA-10 | 2026-09-05 12:44:41 | 52.34782 | 11.89371 | 128° | 31km/h | 19763m | -16.2m/s | -53.0°C | 3.4% | 60.4hPa | 2.7V | 00:00:00 | 00:00:00 | 00:00:00 | |
| DL1NUX | 2026-09-05 12:44:40 | 52.34811 | 11.89305 | 117° | 29km/h | 19861m | -17.4m/s | -53.3°C | 3.6% | 59.5hPa | 2.7V | 03:02:35 | 02:53:57 | 00:00:00 | |
| DF8AY | 2026-09-05 12:44:36 | 52.34807 | 11.89316 | 121° | 31km/h | 19844m | -16.7m/s | -53.2°C | 0% | 59.7hPa | 2.7V | 03:03:08 | 02:53:58 | 00:00:00 | |
| HSKMA3-T | 2026-09-05 12:44:35 | 52.34811 | 11.89305 | 118° | 29km/h | 19861m | -17.4m/s | -53.3°C | 0% | 59.5hPa | 2.7V | 03:03:08 | 02:53:57 | 00:00:00 | |
| 13BRC | 2026-09-05 12:44:35 | 52.34810 | 11.89305 | 119° | 29km/h | 19861m | -17.4m/s | 0°C | 0% | 0hPa | 2.6V | 00:00:00 | 00:00:00 | 00:00:00 | |
| DM0DOS-11 | 2026-09-05 12:44:34 | 52.34817 | 11.89284 | 111° | 27km/h | 19896m | -17.8m/s | -53.3°C | 3.7% | 59.2hPa | 2.6V | 03:02:37 | 02:53:55 | 00:00:00 | |
| AA1-15 | 2026-09-05 12:44:31 | 52.34822 | 11.89254 | 100° | 24km/h | 19946m | -16.6m/s | -52.9°C | 0% | 58.8hPa | 2.7V | 03:03:08 | 02:53:52 | 00:00:00 | |
| DL1XH-15 | 2026-09-05 12:44:30 | 52.34822 | 11.89228 | 82° | 20km/h | 19997m | -15.7m/s | -53°C | 3.6% | 58.3hPa | 2.7V | 03:02:43 | 02:53:49 | 00:00:00 | |
| EDDB2-12 | 2026-09-05 12:44:30 | 52.34823 | 11.89236 | 88° | 20km/h | 19981m | -17.2m/s | -53.0°C | 0.8% | 58.5hPa | 2.7V | 00:00:00 | 00:00:00 | 00:00:00 | |
| DM0DOS-11 | 2026-09-05 12:44:29 | 52.34817 | 11.89196 | 66° | 22km/h | 20060m | -15.4m/s | -53.3°C | 3.7% | 57.7hPa | 2.7V | 03:02:47 | 02:53:45 | 00:00:00 | |
| DC4HF-4 | 2026-09-05 12:44:28 | 52.34823 | 11.89236 | 88° | 20km/h | 19981m | -17.2m/s | -53.0°C | 0.8% | 58.5hPa | 2.7V | 00:00:00 | 00:00:00 | 00:00:00 | |
| DL1CLM-18 | 2026-09-05 12:44:27 | 52.34822 | 11.89228 | 83° | 20km/h | 19997m | -15.7m/s | -53.0°C | 0.8% | 58.3hPa | 2.7V | 00:00:00 | 00:00:00 | 00:00:00 | |
| DL1XH1-15 | 2026-09-05 12:44:25 | 52.34811 | 11.89179 | 59° | 26km/h | 20093m | -16.7m/s | -53.1°C | 3.6% | 57.5hPa | 2.7V | 03:02:49 | 02:53:43 | 00:00:00 | |
| HSKMA3-T | 2026-09-05 12:44:25 | 52.34820 | 11.89212 | 73° | 20km/h | 20029m | -16.2m/s | -53.2°C | 0.1% | 58hPa | 2.6V | 03:03:08 | 02:53:47 | 00:00:00 | |
| DL1XH-west | 2026-09-05 12:44:21 | 52.34811 | 11.89179 | 60° | 26km/h | 20093m | -16.7m/s | -53.1°C | 0.1% | 57.5hPa | 2.7V | 03:03:08 | 02:53:43 | 00:00:00 | |
| AA1-15 | 2026-09-05 12:44:20 | 52.34808 | 11.89170 | 58° | 27km/h | 20110m | -16.4m/s | -52.9°C | 0.1% | 57.3hPa | 2.6V | 03:03:08 | 02:53:42 | 00:00:00 | |
| GOEST3-10 | 2026-09-05 12:44:20 | 52.34808 | 11.89170 | 58° | 31km/h | 20110m | -16.3m/s | -52.9°C | 3.6% | 57.2hPa | 2.7V | 00:00:00 | 00:00:00 | 00:00:00 | |
| DL1XH-15 | 2026-09-05 12:44:19 | 52.34795 | 11.89139 | 53° | 35km/h | 20159m | -16m/s | -52.4°C | 3.5% | 56.9hPa | 2.7V | 03:02:53 | 02:53:39 | 00:00:00 | |
| DO3MHA-11 | 2026-09-05 12:44:19 | 52.34804 | 11.89160 | 57° | 37km/h | 20127m | -16.8m/s | -52.6°C | 3.6% | 57.1hPa | 2.6V | 03:02:00 | 02:53:41 | 00:00:00 | |
| DM0DOS-11 | 2026-09-05 12:44:18 | 52.34771 | 11.89090 | 49° | 40km/h | 20228m | -17.2m/s | -51.9°C | 3.4% | 56.2hPa | 2.6V | 03:02:57 | 02:53:35 | 00:00:00 | |
| DF8AY | 2026-09-05 12:44:16 | 52.34784 | 11.89115 | 50° | 38km/h | 20194m | -18.3m/s | -52°C | 0% | 56.5hPa | 2.6V | 03:03:08 | 02:53:37 | 00:00:00 | |
| DL1XH1-15 | 2026-09-05 12:44:15 | 52.34758 | 11.89065 | 49° | 40km/h | 20262m | -16.7m/s | -52°C | 3.5% | 56hPa | 2.7V | 03:02:59 | 02:53:33 | 00:00:00 | |
| HSKMA3-T | 2026-09-05 12:44:14 | 52.34778 | 11.89103 | 50° | 40km/h | 20212m | -17m/s | -51.9°C | 0% | 56.4hPa | 2.6V | 03:03:08 | 02:53:36 | 00:00:00 | |
| AA1-15 | 2026-09-05 12:44:09 | 52.34746 | 11.89041 | 51° | 37km/h | 20295m | -17m/s | -52.2°C | 0% | 55.7hPa | 2.7V | 03:03:08 | 02:53:31 | 00:00:00 | |
| DL1XH-15 | 2026-09-05 12:44:09 | 52.34735 | 11.89018 | 54° | 35km/h | 20329m | -16.3m/s | -52.5°C | 3.6% | 55.4hPa | 2.6V | 03:03:03 | 02:53:29 | 00:00:00 | |
| DO3MHA-11 | 2026-09-05 12:44:09 | 52.34745 | 11.89041 | 52° | 35km/h | 20295m | -17.0m/s | -52.1°C | 3.5% | 55.6hPa | 2.7V | 00:00:00 | 02:53:31 | 00:00:00 | |
| DM0DOS-11 | 2026-09-05 12:44:08 | 52.34717 | 11.88966 | 66° | 40km/h | 20397m | -17m/s | -51.9°C | 3.5% | 54.8hPa | 2.7V | 03:03:07 | 02:53:25 | 00:00:00 | |
| DL1NUX | 2026-09-05 12:44:06 | 52.34726 | 11.88994 | 60° | 37km/h | 20362m | -16.7m/s | -52.5°C | 3.8% | 55.1hPa | 2.7V | 03:03:05 | 02:53:27 | 00:00:00 | |
| DO2SHX-10 | 2026-09-05 12:44:06 | 52.34730 | 11.89006 | 58° | 37km/h | 20346m | -16.9m/s | -52.4°C | 3.7% | 55.2hPa | 2.6V | 03:03:00 | 02:53:28 | 00:00:00 | |
| DL1XH1-15 | 2026-09-05 12:44:05 | 52.34710 | 11.88934 | 68° | 44km/h | 20432m | -17.4m/s | -51.4°C | 3.3% | 54.5hPa | 2.6V | 03:03:09 | 02:53:23 | 00:00:00 | |
| HSKMA3-T | 2026-09-05 12:44:03 | 52.34717 | 11.88966 | 67° | 40km/h | 20397m | -17m/s | -51.9°C | 0% | 54.8hPa | 2.7V | 03:03:08 | 02:53:25 | 00:00:00 | |
| DL1XH-west | 2026-09-05 12:44:00 | 52.34705 | 11.88918 | 69° | 44km/h | 20449m | -17.4m/s | -51.1°C | 0% | 54.4hPa | 2.7V | 03:03:59 | 02:53:22 | 00:00:00 | |
| AA1-15 | 2026-09-05 12:43:59 | 52.34701 | 11.88900 | 70° | 46km/h | 20466m | -16.2m/s | -50.8°C | 0% | 54.2hPa | 2.7V | 03:03:59 | 02:53:21 | 00:00:00 | |
| DO3MHA-11 | 2026-09-05 12:43:59 | 52.34701 | 11.88900 | 70° | 47km/h | 20466m | -16.2m/s | -50.8°C | 3.1% | 54.2hPa | 2.7V | 00:00:00 | 02:53:21 | 00:00:00 | |
| DM0DOS-11 | 2026-09-05 12:43:58 | 52.34678 | 11.88791 | 72° | 47km/h | 20569m | -16.9m/s | -50.9°C | 3.2% | 53.4hPa | 2.7V | 03:03:17 | 02:53:15 | 00:00:00 | |
| DL1XH1-15 | 2026-09-05 12:43:55 | 52.34671 | 11.88754 | 76° | 46km/h | 20604m | -18.1m/s | -50.9°C | 3.2% | 53.1hPa | 2.7V | 03:03:19 | 02:53:13 | 00:00:00 | |
| DB0DAN | 2026-09-05 12:43:55 | 52.34685 | 11.88828 | 70° | 46km/h | 20534m | -17.6m/s | -50.9°C | 0.7% | 53.69hPa | 2.6V | 00:00:00 | 00:00:00 | 00:00:00 | |
| HSKMA3-T | 2026-09-05 12:43:52 | 52.34674 | 11.88772 | 75° | 46km/h | 20586m | -18m/s | -50.9°C | 0% | 53.2hPa | 2.7V | 03:03:59 | 02:53:14 | 00:00:00 | |
| DL1XH-west | 2026-09-05 12:43:50 | 52.34669 | 11.88736 | 78° | 44km/h | 20622m | -17.9m/s | -50.9°C | 0% | 53hPa | 2.6V | 03:03:59 | 02:53:12 | 00:00:00 | |
| AA1-15 | 2026-09-05 12:43:48 | 52.34665 | 11.88700 | 84° | 42km/h | 20657m | -17.8m/s | -50.8°C | 0% | 52.7hPa | 2.6V | 03:03:59 | 02:53:10 | 00:00:00 | |
| DO2SHX-10 | 2026-09-05 12:43:48 | 52.34665 | 11.88700 | 84° | 40km/h | 20657m | -17.8m/s | -50.7°C | 3.1% | 52.6hPa | 2.6V | 00:00:00 | 02:53:10 | 00:00:00 | |
| SMARD9-10 | 2026-09-05 12:43:47 | 52.34664 | 11.88683 | 86° | 42km/h | 20675m | -19.4m/s | -50.7°C | 0.7% | 52.5hPa | 2.6V | 03:03:00 | 00:00:00 | 00:00:00 | |
| NBG1-10 | 2026-09-05 12:43:46 | 52.34664 | 11.88667 | 90° | 27km/h | 20694m | -18.4m/s | -50.4°C | 3.1% | 52.3hPa | 2.6V | 00:00:00 | 02:53:08 | 00:00:00 | |
| DL1NUX | 2026-09-05 12:43:46 | 52.34664 | 11.88651 | 92° | 37km/h | 20712m | -19m/s | -50.2°C | 3% | 52.2hPa | 2.7V | 03:03:25 | 02:53:07 | 00:00:00 | |
| DL1XH1-15 | 2026-09-05 12:43:45 | 52.34669 | 11.88600 | 108° | 26km/h | 20789m | -19.1m/s | -50.3°C | 2.9% | 51.6hPa | 2.6V | 03:03:29 | 02:53:03 | 00:00:00 | |
| HSKMA3-T | 2026-09-05 12:43:41 | 52.34669 | 11.88600 | 108° | 26km/h | 20789m | -19.1m/s | -50.3°C | 0% | 51.7hPa | 2.6V | 03:03:59 | 02:53:03 | 00:00:00 | |
| DD8BA-10 | 2026-09-05 12:43:41 | 52.34669 | 11.88600 | 109° | 26km/h | 20789m | -19.1m/s | -50.3°C | 2.9% | 51.6hPa | 2.7V | 03:03:00 | 00:00:00 | 00:00:00 | |
| DL1NUX | 2026-09-05 12:43:40 | 52.34684 | 11.88545 | 113° | 26km/h | 20899m | -18.6m/s | -50.8°C | 3% | 50.8hPa | 2.7V | 03:03:35 | 02:52:57 | 00:00:00 | |
| DL1XH-west | 2026-09-05 12:43:39 | 52.34674 | 11.88581 | 114° | 24km/h | 20825m | -17.7m/s | -50.5°C | 0% | 51.3hPa | 2.7V | 03:03:59 | 02:53:01 | 00:00:00 | |
| AA1-15 | 2026-09-05 12:43:38 | 52.34676 | 11.88573 | 115° | 24km/h | 20844m | -19m/s | -50.6°C | 0% | 51.2hPa | 2.7V | 03:03:59 | 02:53:00 | 00:00:00 | |
| DL1XH1-15 | 2026-09-05 12:43:35 | 52.34692 | 11.88499 | 102° | 31km/h | 20977m | -20m/s | -50.7°C | 2.9% | 50.2hPa | 2.6V | 03:03:39 | 02:52:53 | 00:00:00 | |
| DF8AY | 2026-09-05 12:43:31 | 52.34693 | 11.88499 | 103° | 33km/h | 20977m | -20m/s | -50.7°C | 0% | 50.2hPa | 2.6V | 03:03:59 | 02:52:53 | 00:00:00 | |
| HSKMA3-T | 2026-09-05 12:43:30 | 52.34694 | 11.88486 | 101° | 33km/h | 20997m | -20.8m/s | -50.7°C | 0% | 50hPa | 2.6V | 03:03:59 | 02:52:52 | 00:00:00 | |
| DF7ER-10 | 2026-09-05 12:43:30 | 52.34694 | 11.88486 | 102° | 33km/h | 20998m | -20.8m/s | -50.7°C | 0.7% | 50.0hPa | 2.7V | 03:03:00 | 00:00:00 | 00:00:00 | |
| DL1XH-15 | 2026-09-05 12:43:29 | 52.34698 | 11.88444 | 95° | 35km/h | 21056m | -20.3m/s | -51°C | 3% | 49.6hPa | 2.7V | 03:03:43 | 02:52:49 | 00:00:00 | |
| DL1XH-west | 2026-09-05 12:43:28 | 52.34698 | 11.88429 | 92° | 37km/h | 21076m | -20.2m/s | -51.1°C | 0% | 49.5hPa | 2.7V | 03:03:59 | 02:52:48 | 00:00:00 | |
| AA1-15 | 2026-09-05 12:43:28 | 52.34698 | 11.88444 | 96° | 35km/h | 21056m | -20.3m/s | -51°C | 0% | 49.6hPa | 2.7V | 03:03:59 | 02:52:49 | 00:00:00 | |
| DF8AY | 2026-09-05 12:43:21 | 52.34702 | 11.88347 | 97° | 44km/h | 21173m | -19.3m/s | -51.9°C | 0% | 48.7hPa | 2.7V | 03:03:59 | 02:52:43 | 00:00:00 | |
| HSKMA3-T | 2026-09-05 12:43:20 | 52.34703 | 11.88330 | 99° | 44km/h | 21192m | -17.9m/s | -52.2°C | 0% | 48.5hPa | 2.7V | 03:03:59 | 02:52:42 | 00:00:00 | |
| GOEST3-10 | 2026-09-05 12:43:20 | 52.34703 | 11.88330 | 99° | 44km/h | 21192m | -17.9m/s | -52.1°C | 3.4% | 48.5hPa | 2.7V | 00:00:00 | 00:00:00 | 00:00:00 | |
| DL1XH-15 | 2026-09-05 12:43:19 | 52.34711 | 11.88276 | 105° | 44km/h | 21245m | -18.1m/s | -52.6°C | 3.5% | 48.1hPa | 2.7V | 03:03:53 | 02:52:39 | 00:00:00 | |
| DL1XH-west | 2026-09-05 12:43:17 | 52.34711 | 11.88276 | 106° | 44km/h | 21245m | -18.1m/s | -52.6°C | 0% | 48.1hPa | 2.7V | 03:03:59 | 02:52:39 | 00:00:00 | |
| AA1-15 | 2026-09-05 12:43:16 | 52.34714 | 11.88259 | 109° | 44km/h | 21263m | -18.1m/s | -52.7°C | 0% | 48hPa | 2.7V | 03:03:59 | 02:52:38 | 00:00:00 | |
| DM0DOS-11 | 2026-09-05 12:43:16 | 52.34725 | 11.88211 | 113° | 37km/h | 21319m | -19.2m/s | -52.6°C | 3.6% | 47.6hPa | 2.6V | 03:03:57 | 02:52:35 | 00:00:00 | |
| DF8AY | 2026-09-05 12:43:10 | 52.34736 | 11.88175 | 118° | 27km/h | 21378m | -18.2m/s | -52.6°C | 0% | 47.1hPa | 2.7V | 03:04:50 | 02:52:32 | 00:00:00 | |
| BUE01 | 2026-09-05 12:43:10 | 52.34739 | 11.88165 | 119° | 24km/h | 21396m | -19.1m/s | -52.7°C | 0.8% | 47.0hPa | 2.6V | 00:00:00 | 00:00:00 | 00:00:00 | |
| DL1XH-15 | 2026-09-05 12:43:09 | 52.34745 | 11.88149 | 118° | 20km/h | 21434m | -18.9m/s | -52.6°C | 3.6% | 46.8hPa | 2.6V | 03:04:03 | 02:52:29 | 00:00:00 | |
| HSKMA3-T | 2026-09-05 12:43:09 | 52.34739 | 11.88165 | 120° | 24km/h | 21396m | -19.1m/s | -52.7°C | 0.1% | 47hPa | 2.6V | 03:07:23 | 02:52:31 | 00:00:00 | |
| DL1XH-west | 2026-09-05 12:43:07 | 52.34745 | 11.88149 | 118° | 20km/h | 21434m | -18.9m/s | -52.6°C | 0.1% | 46.8hPa | 2.6V | 03:04:50 | 02:52:29 | 00:00:00 | |
| DM0DOS-11 | 2026-09-05 12:43:06 | 52.34752 | 11.88124 | 113° | 16km/h | 21509m | -18.9m/s | -51.6°C | 3.3% | 46.2hPa | 2.7V | 03:04:07 | 02:52:25 | 00:00:00 | |
| DL1NUX | 2026-09-05 12:43:06 | 52.34749 | 11.88136 | 117° | 16km/h | 21471m | -18.6m/s | -51.9°C | 3.4% | 46.5hPa | 2.7V | 03:04:05 | 02:52:27 | 00:00:00 | |
| AA1-15 | 2026-09-05 12:43:05 | 52.34749 | 11.88136 | 118° | 16km/h | 21471m | -18.6m/s | -51.9°C | 0% | 46.5hPa | 2.7V | 03:04:50 | 02:52:27 | 00:00:00 | |
| DL1XH1-15 | 2026-09-05 12:43:05 | 52.34756 | 11.88112 | 113° | 16km/h | 21545m | -19.6m/s | -51.5°C | 3.2% | 45.9hPa | 2.6V | 03:04:09 | 02:52:23 | 00:00:00 | |
| GOEST3-10 | 2026-09-05 12:43:05 | 52.34749 | 11.88136 | 118° | 16km/h | 21471m | -18.6m/s | -51.9°C | 3.4% | 46.4hPa | 2.7V | 00:00:00 | 02:52:27 | 00:00:00 | |
| DO2SHX-10 | 2026-09-05 12:43:03 | 52.34752 | 11.88124 | 114° | 16km/h | 21509m | -18.9m/s | -51.6°C | 3.3% | 46.2hPa | 2.7V | 00:00:00 | 02:52:25 | 00:00:00 | |
| DL1XH-15 | 2026-09-05 12:43:02 | 52.34761 | 11.88089 | 114° | 15km/h | 21628m | -21.5m/s | -51.4°C | 3.2% | 45.4hPa | 2.7V | 03:04:13 | 02:52:19 | 00:00:00 | |
| DD8BA-10 | 2026-09-05 12:43:01 | 52.34756 | 11.88112 | 114° | 15km/h | 21546m | -19.6m/s | -51.4°C | 3.2% | 45.9hPa | 2.6V | 03:04:00 | 00:00:00 | 00:00:00 | |
| DL1NUX | 2026-09-05 12:43:00 | 52.34764 | 11.88079 | 113° | 15km/h | 21671m | -21m/s | -51.4°C | 3.2% | 45.1hPa | 2.6V | 03:04:15 | 02:52:17 | 00:00:00 | |
| HSKMA3-T | 2026-09-05 12:42:59 | 52.34759 | 11.88101 | 110° | 15km/h | 21587m | -20.8m/s | -51.4°C | 0% | 45.7hPa | 2.7V | 03:07:23 | 02:52:21 | 00:00:00 | |
| DO3MHA-11 | 2026-09-05 12:42:59 | 52.34758 | 11.88101 | 111° | 15km/h | 21587m | -20.7m/s | -51.3°C | 3.2% | 45.6hPa | 2.7V | 03:04:00 | 02:52:21 | 00:00:00 | |
| NBG1-10 | 2026-09-05 12:42:58 | 52.34760 | 11.88095 | 116° | 16km/h | 21608m | -21.1m/s | -51.3°C | 3.2% | 45.5hPa | 2.7V | 00:00:00 | 02:52:20 | 00:00:00 | |
| DO2SHX-10 | 2026-09-05 12:42:57 | 52.34762 | 11.88089 | 115° | 15km/h | 21629m | -21.5m/s | -51.4°C | 3.2% | 45.4hPa | 2.6V | 00:00:00 | 02:52:19 | 00:00:00 | |
| DM0DOS-11 | 2026-09-05 12:42:56 | 52.34767 | 11.88068 | 111° | 13km/h | 21712m | -21m/s | -51.7°C | 3.3% | 44.8hPa | 2.6V | 03:04:17 | 02:52:15 | 00:00:00 | |
| DL1XH-west | 2026-09-05 12:42:56 | 52.34763 | 11.88084 | 114° | 15km/h | 21650m | -21.8m/s | -51.4°C | 0% | 45.2hPa | 2.7V | 03:04:50 | 02:52:18 | 00:00:00 | |
| AA1-15 | 2026-09-05 12:42:55 | 52.34765 | 11.88079 | 114° | 15km/h | 21671m | -21m/s | -51.4°C | 0% | 45.1hPa | 2.6V | 03:04:50 | 02:52:17 | 00:00:00 | |
| DL1XH1-15 | 2026-09-05 12:42:55 | 52.34769 | 11.88058 | 104° | 13km/h | 21752m | -19.9m/s | -51.9°C | 3.3% | 44.5hPa | 2.7V | 03:04:19 | 02:52:13 | 00:00:00 | |
| DB0DAN | 2026-09-05 12:42:55 | 52.34765 | 11.88079 | 113° | 13km/h | 21671m | -21m/s | -51.4°C | 0.7% | 45.1hPa | 2.6V | 00:00:00 | 00:00:00 | 00:00:00 | |
| SP3WXH-11 | 2026-09-05 12:42:51 | 52.34770 | 11.88053 | 100° | 13km/h | 21772m | -19.5m/s | -51.9°C | 0.7% | 44.4hPa | 2.6V | 00:00:00 | 00:00:00 | 00:00:00 | |
| GOEST3-10 | 2026-09-05 12:42:50 | 52.34770 | 11.88053 | 101° | 16km/h | 21772m | -19.5m/s | -51.9°C | 3.4% | 44.3hPa | 2.6V | 03:04:00 | 00:00:00 | 00:00:00 | |
| DL1XH-15 | 2026-09-05 12:42:49 | 52.34772 | 11.88034 | 94° | 16km/h | 21832m | -19.7m/s | -51.8°C | 3.4% | 44hPa | 2.6V | 03:04:23 | 02:52:09 | 00:00:00 | |
| HSKMA3-T | 2026-09-05 12:42:48 | 52.34772 | 11.88040 | 99° | 16km/h | 21812m | -20m/s | -52°C | 0% | 44.1hPa | 2.6V | 03:07:23 | 02:52:10 | 00:00:00 | |
| DF7ER-10 | 2026-09-05 12:42:48 | 52.34771 | 11.88040 | 100° | 16km/h | 21813m | -20.0m/s | -52.0°C | 0.8% | 44.1hPa | 2.7V | 03:04:00 | 00:00:00 | 00:00:00 | |
| DL1NUX | 2026-09-05 12:42:46 | 52.34772 | 11.88019 | 96° | 18km/h | 21870m | -19.1m/s | -51.7°C | 3.3% | 43.7hPa | 2.7V | 03:04:25 | 02:52:07 | 00:00:00 | |
| DO9LL-15 | 2026-09-05 12:42:46 | 52.34772 | 11.88026 | 93° | 18km/h | 21851m | -18.5m/s | -51.7°C | 3.3% | 43.8hPa | 2.6V | 00:00:00 | 02:52:08 | 00:00:00 | |
| DL1XH1-15 | 2026-09-05 12:42:45 | 52.34777 | 11.87988 | 111° | 20km/h | 21954m | -20.9m/s | -51.3°C | 3.2% | 43.2hPa | 2.6V | 03:04:29 | 02:52:03 | 00:00:00 | |
| AA1-15 | 2026-09-05 12:42:45 | 52.34773 | 11.88011 | 100° | 18km/h | 21890m | -20.2m/s | -51.6°C | 0% | 43.6hPa | 2.7V | 03:04:50 | 02:52:06 | 00:00:00 | |
| DO2SHX-10 | 2026-09-05 12:42:45 | 52.34773 | 11.88019 | 97° | 18km/h | 21870m | -19.1m/s | -51.6°C | 3.3% | 43.7hPa | 2.7V | 00:00:00 | 02:52:07 | 00:00:00 | |
| HTAHTA | 2026-09-05 12:42:44 | 52.34777 | 11.87987 | 111° | 20km/h | 21954m | -21.0m/s | 0°C | -1.0% | -1.0hPa | 2.7V | 00:00:00 | 00:00:00 | 00:00:00 | |
| DL1XH-15 | 2026-09-05 12:42:42 | 52.34789 | 11.87957 | 128° | 22km/h | 22030m | -18.2m/s | -51.3°C | 3.2% | 42.7hPa | 2.7V | 03:04:33 | 02:51:59 | 00:00:00 | |
| DO2SHX-10 | 2026-09-05 12:42:42 | 52.34775 | 11.87995 | 106° | 20km/h | 21932m | -21.5m/s | -51.3°C | 3.2% | 43.3hPa | 2.7V | 03:04:00 | 02:52:04 | 00:00:00 | |
| DD8BA-10 | 2026-09-05 12:42:41 | 52.34777 | 11.87987 | 112° | 20km/h | 21954m | -20.9m/s | -51.3°C | 3.2% | 43.2hPa | 2.7V | 00:00:00 | 00:00:00 | 00:00:00 | |
| DL1NUX | 2026-09-05 12:42:40 | 52.34796 | 11.87943 | 135° | 22km/h | 22069m | -19.9m/s | -51.4°C | 3.2% | 42.4hPa | 2.7V | 03:04:35 | 02:51:57 | 00:00:00 | |
| HSKMA3-T | 2026-09-05 12:42:38 | 52.34785 | 11.87964 | 124° | 22km/h | 22011m | -18.6m/s | -51.4°C | 0% | 42.8hPa | 2.7V | 03:07:23 | 02:52:00 | 00:00:00 | |
| AM1SDL-15 | 2026-09-05 12:42:37 | 52.34788 | 11.87957 | 129° | 18km/h | 22030m | -18.1m/s | -51.3°C | 3.2% | 42.6hPa | 2.6V | 00:00:00 | 02:51:59 | 00:00:00 | |
| DM0DOS-11 | 2026-09-05 12:42:36 | 52.34803 | 11.87931 | 130° | 20km/h | 22109m | -19.9m/s | -51.4°C | 3.2% | 42.2hPa | 2.6V | 03:04:37 | 02:51:55 | 00:00:00 | |
| DL1XH-west | 2026-09-05 12:42:33 | 52.34803 | 11.87931 | 131° | 20km/h | 22109m | -19.9m/s | -51.4°C | 0% | 42.2hPa | 2.6V | 03:04:50 | 02:51:55 | 00:00:00 | |
| HSKMA3-T | 2026-09-05 12:42:27 | 52.34812 | 11.87894 | 91° | 18km/h | 22227m | -18.6m/s | -51.5°C | 0% | 41.4hPa | 2.6V | 03:07:23 | 02:51:49 | 00:00:00 | |
| DO2SHX-10 | 2026-09-05 12:42:27 | 52.34812 | 11.87894 | 91° | 18km/h | 22227m | -18.6m/s | -51.5°C | 3.3% | 41.3hPa | 2.6V | 00:00:00 | 02:51:49 | 00:00:00 | |
| DL1NUX | 2026-09-05 12:42:26 | 52.34812 | 11.87879 | 89° | 18km/h | 22266m | -20.9m/s | -51.8°C | 3.4% | 41.1hPa | 2.6V | 03:04:45 | 02:51:47 | 00:00:00 | |
| DM0DOS-11 | 2026-09-05 12:42:26 | 52.34812 | 11.87864 | 90° | 18km/h | 22307m | -20.4m/s | -52.1°C | 3.5% | 40.9hPa | 2.7V | 03:04:47 | 02:51:45 | 00:00:00 | |
| DL1XH1-15 | 2026-09-05 12:42:25 | 52.34812 | 11.87848 | 90° | 18km/h | 22349m | -21.4m/s | -52.3°C | 3.6% | 40.6hPa | 2.7V | 03:04:49 | 02:51:43 | 00:00:00 | |
| AA1-15 | 2026-09-05 12:42:23 | 52.34812 | 11.87864 | 91° | 18km/h | 22307m | -20.4m/s | -52.1°C | 0% | 40.9hPa | 2.7V | 03:04:50 | 02:51:45 | 00:00:00 | |
| DL1XH-west | 2026-09-05 12:42:22 | 52.34812 | 11.87856 | 90° | 18km/h | 22328m | -21m/s | -52.2°C | 0.1% | 40.8hPa | 2.7V | 03:04:50 | 02:51:44 | 00:00:00 | |
| DD8BA-10 | 2026-09-05 12:42:21 | 52.34812 | 11.87848 | 91° | 20km/h | 22349m | -21.3m/s | -52.3°C | 3.6% | 40.6hPa | 2.7V | 03:04:00 | 00:00:00 | 00:00:00 | |
| DL1NUX | 2026-09-05 12:42:20 | 52.34813 | 11.87800 | 90° | 22km/h | 22472m | -20.5m/s | -51.3°C | 3.3% | 39.9hPa | 2.7V | 03:04:55 | 02:51:37 | 00:00:00 | |
| TFSTFS | 2026-09-05 12:42:20 | 52.34812 | 11.87840 | 93° | 18km/h | 22371m | -21.3m/s | -52.4°C | 0.8% | 40.5hPa | 2.6V | 03:04:00 | 00:00:00 | 00:00:00 | |
| DO3MHA-11 | 2026-09-05 12:42:19 | 52.34812 | 11.87832 | 93° | 22km/h | 22392m | -20.5m/s | -52.1°C | 3.6% | 40.3hPa | 2.6V | 03:04:00 | 02:51:41 | 00:00:00 | |
| DM0DOS-11 | 2026-09-05 12:42:18 | 52.34813 | 11.87781 | 93° | 24km/h | 22512m | -18.8m/s | -51°C | 3.2% | 39.6hPa | 2.6V | 03:04:57 | 02:51:35 | 00:00:00 | |
| DF8AY | 2026-09-05 12:42:15 | 52.34812 | 11.87800 | 90° | 22km/h | 22472m | -20.5m/s | -51.3°C | 0% | 39.9hPa | 2.7V | 03:05:41 | 02:51:37 | 00:00:00 | |
| DL1XH1-15 | 2026-09-05 12:42:15 | 52.34814 | 11.87762 | 99° | 22km/h | 22552m | -20.9m/s | -50.9°C | 3.2% | 39.4hPa | 2.6V | 03:04:59 | 02:51:33 | 00:00:00 | |
| HSKMA3-T | 2026-09-05 12:42:13 | 52.34813 | 11.87781 | 94° | 24km/h | 22512m | -18.8m/s | -51.1°C | 0% | 39.6hPa | 2.6V | 03:07:23 | 02:51:35 | 00:00:00 | |
| AA1-15 | 2026-09-05 12:42:12 | 52.34813 | 11.87772 | 98° | 24km/h | 22531m | -21m/s | -50.9°C | 0% | 39.5hPa | 2.6V | 03:05:41 | 02:51:34 | 00:00:00 | |
| DL1XH-west | 2026-09-05 12:42:11 | 52.34814 | 11.87762 | 100° | 24km/h | 22552m | -20.9m/s | -50.9°C | 0% | 39.4hPa | 2.6V | 03:05:41 | 02:51:33 | 00:00:00 | |
| DD8BA-10 | 2026-09-05 12:42:11 | 52.34814 | 11.87762 | 100° | 20km/h | 22552m | -20.8m/s | -50.9°C | 3.2% | 39.3hPa | 2.6V | 00:00:00 | 00:00:00 | 00:00:00 | |
| DL1NUX | 2026-09-05 12:42:10 | 52.34827 | 11.87715 | 131° | 18km/h | 22682m | -22.4m/s | -50.8°C | 3% | 38.6hPa | 2.6V | 03:05:05 | 02:51:27 | 00:00:00 | |
| DF8AY | 2026-09-05 12:42:05 | 52.34830 | 11.87710 | 133° | 18km/h | 22705m | -22m/s | -50.8°C | 0% | 38.5hPa | 2.6V | 03:05:41 | 02:51:26 | 00:00:00 | |
| DM0DOS-11 | 2026-09-05 12:42:05 | 52.34833 | 11.87704 | 140° | 18km/h | 22726m | -21.6m/s | -50.7°C | 3% | 38.3hPa | 2.7V | 03:05:07 | 02:51:25 | 00:00:00 | |
| DL1XH1-15 | 2026-09-05 12:42:05 | 52.34840 | 11.87695 | 140° | 16km/h | 22767m | -20.6m/s | -50.7°C | 3% | 38.1hPa | 2.7V | 03:05:09 | 02:51:23 | 00:00:00 | |
| HSKMA3-T | 2026-09-05 12:42:02 | 52.34837 | 11.87700 | 139° | 16km/h | 22747m | -19.9m/s | -50.7°C | 0% | 38.2hPa | 2.7V | 03:07:23 | 02:51:24 | 00:00:00 | |
| DL1XH-west | 2026-09-05 12:42:01 | 52.34840 | 11.87695 | 141° | 16km/h | 22767m | -20.6m/s | -50.7°C | 0% | 38.1hPa | 2.7V | 03:05:41 | 02:51:23 | 00:00:00 | |
| EDDB2-11 | 2026-09-05 12:41:59 | 52.34848 | 11.87683 | 128° | 13km/h | 22828m | -20.1m/s | -50.9°C | 0.6% | 37.7hPa | 2.7V | 00:00:00 | 00:00:00 | 00:00:00 | |
| SONDE2-11 | 2026-09-05 12:41:58 | 52.34851 | 11.87679 | 131° | 11km/h | 22848m | -19.8m/s | -51.0°C | 0.7% | 37.6hPa | 2.7V | 00:00:00 | 00:00:00 | 00:00:00 | |
| DO2SHX-10 | 2026-09-05 12:41:57 | 52.34851 | 11.87679 | 132° | 11km/h | 22848m | -19.7m/s | -50.9°C | 3.0% | 37.6hPa | 2.7V | 00:00:00 | 02:51:19 | 00:00:00 | |
| DF7ER-10 | 2026-09-05 12:41:56 | 52.34853 | 11.87675 | 127° | 11km/h | 22868m | -21.4m/s | -51.0°C | 0.7% | 37.5hPa | 2.7V | 03:05:00 | 00:00:00 | 00:00:00 | |
| DL1XH1-15 | 2026-09-05 12:41:55 | 52.34854 | 11.87659 | 65° | 9km/h | 22974m | -21m/s | -51.6°C | 3.2% | 36.9hPa | 2.7V | 03:05:19 | 02:51:13 | 00:00:00 | |
| DB0DAN | 2026-09-05 12:41:55 | 52.34854 | 11.87672 | 109° | 7km/h | 22890m | -21.6m/s | -51.1°C | 0.7% | 37.45hPa | 2.7V | 00:00:00 | 00:00:00 | 00:00:00 | |
| DF8AY | 2026-09-05 12:41:54 | 52.34854 | 11.87669 | 96° | 7km/h | 22911m | -20.7m/s | -51.2°C | 0% | 37.3hPa | 2.6V | 03:05:41 | 02:51:16 | 00:00:00 | |
| DM0DOS-11 | 2026-09-05 12:41:54 | 52.34855 | 11.87666 | 104° | 7km/h | 22932m | -21.3m/s | -51.3°C | 3.1% | 37.2hPa | 2.6V | 03:05:17 | 02:51:15 | 00:00:00 | |
| HSKMA3-T | 2026-09-05 12:41:51 | 52.34854 | 11.87659 | 66° | 9km/h | 22975m | -21m/s | -51.6°C | 0% | 36.9hPa | 2.7V | 03:07:23 | 02:51:13 | 00:00:00 | |
| DL1XH-west | 2026-09-05 12:41:50 | 52.34853 | 11.87655 | 61° | 11km/h | 22995m | -20.3m/s | -51.7°C | 0% | 36.8hPa | 2.7V | 03:05:41 | 02:51:12 | 00:00:00 | |
| GOEST3-10 | 2026-09-05 12:41:50 | 52.34853 | 11.87655 | 62° | 15km/h | 22995m | -20.2m/s | -51.7°C | 3.2% | 36.7hPa | 2.6V | 03:05:00 | 00:00:00 | 00:00:00 | |
| DL1XH-15 | 2026-09-05 12:41:49 | 52.34846 | 11.87641 | 53° | 16km/h | 23058m | -21.1m/s | -52.2°C | 3.3% | 36.5hPa | 2.6V | 03:05:23 | 02:51:09 | 00:00:00 | |
| SP3WXH-11 | 2026-09-05 12:41:49 | 52.34849 | 11.87646 | 54° | 15km/h | 23037m | -21.3m/s | -52.0°C | 0.8% | 36.5hPa | 2.6V | 00:00:00 | 00:00:00 | 00:00:00 | |
| DB0UT-7 | 2026-09-05 12:41:48 | 52.34849 | 11.87646 | 55° | 24km/h | 23037m | -21.2m/s | -52.0°C | 3.4% | 36.5hPa | 2.6V | 00:00:00 | 00:00:00 | 00:00:00 | |
| DF7ER-10 | 2026-09-05 12:41:46 | 52.34844 | 11.87635 | 56° | 20km/h | 23079m | -20.1m/s | -52.3°C | 0.8% | 36.3hPa | 2.6V | 03:05:00 | 00:00:00 | 00:00:00 | |
| DM0DOS-11 | 2026-09-05 12:41:46 | 52.34836 | 11.87611 | 67° | 24km/h | 23144m | -22.9m/s | -52.6°C | 3.4% | 36hPa | 2.7V | 03:05:27 | 02:51:05 | 00:00:00 | |
| DL1XH1-15 | 2026-09-05 12:41:45 | 52.34832 | 11.87590 | 75° | 27km/h | 23188m | -20.9m/s | -52.7°C | 3.5% | 35.7hPa | 2.6V | 03:05:29 | 02:51:03 | 00:00:00 | |
| DF8AY | 2026-09-05 12:41:44 | 52.34839 | 11.87620 | 63° | 24km/h | 23122m | -22.2m/s | -52.5°C | 0% | 36.1hPa | 2.7V | 03:05:41 | 02:51:06 | 00:00:00 | |
| HSKMA3-T | 2026-09-05 12:41:41 | 52.34832 | 11.87590 | 76° | 27km/h | 23188m | -20.9m/s | -52.7°C | 0% | 35.7hPa | 2.6V | 03:07:23 | 02:51:03 | 00:00:00 | |
| DB0DAN | 2026-09-05 12:41:40 | 52.34831 | 11.87579 | 83° | 27km/h | 23208m | -20.9m/s | -52.6°C | 0.7% | 35.6hPa | 2.6V | 00:00:00 | 00:00:00 | 00:00:00 | |
| DL1XH-west | 2026-09-05 12:41:40 | 52.34831 | 11.87579 | 83° | 27km/h | 23208m | -20.9m/s | -52.6°C | 0% | 35.6hPa | 2.6V | 03:05:41 | 02:51:02 | 00:00:00 | |
| AA1-15 | 2026-09-05 12:41:40 | 52.34830 | 11.87568 | 89° | 27km/h | 23230m | -22.4m/s | -52.4°C | 0% | 35.5hPa | 2.7V | 03:05:41 | 02:51:01 | 00:00:00 | |
| DL1XH-15 | 2026-09-05 12:41:39 | 52.34832 | 11.87545 | 103° | 27km/h | 23275m | -21.8m/s | -52.3°C | 3.4% | 35.3hPa | 2.7V | 03:05:33 | 02:50:59 | 00:00:00 | |
| DO2SHX-10 | 2026-09-05 12:41:39 | 52.34830 | 11.87568 | 90° | 27km/h | 23230m | -22.4m/s | -52.3°C | 3.4% | 35.4hPa | 2.7V | 00:00:00 | 02:51:01 | 00:00:00 | |
| SMARD9-10 | 2026-09-05 12:41:38 | 52.34830 | 11.87568 | 90° | 27km/h | 23230m | -22.4m/s | -52.4°C | 0.7% | 35.5hPa | 2.6V | 00:00:00 | 00:00:00 | 00:00:00 | |
| DO2SHX-10 | 2026-09-05 12:41:36 | 52.34834 | 11.87535 | 114° | 26km/h | 23297m | -21.8m/s | -52.2°C | 3.4% | 35.1hPa | 2.6V | 00:00:00 | 02:50:58 | 00:00:00 | |
| DM0DOS-11 | 2026-09-05 12:41:35 | 52.34845 | 11.87509 | 135° | 26km/h | 23362m | -21m/s | -52.4°C | 3.5% | 34.8hPa | 2.6V | 03:05:37 | 02:50:55 | 00:00:00 | |
| DL1XH1-15 | 2026-09-05 12:41:35 | 52.34855 | 11.87495 | 141° | 24km/h | 23402m | -21.2m/s | -52.7°C | 3.5% | 34.5hPa | 2.7V | 03:05:39 | 02:50:53 | 00:00:00 | |
| DF8AY | 2026-09-05 12:41:33 | 52.34845 | 11.87509 | 135° | 26km/h | 23362m | -21m/s | -52.4°C | 0% | 34.8hPa | 2.6V | 03:05:41 | 02:50:55 | 00:00:00 | |
| DL1XH-west | 2026-09-05 12:41:30 | 52.34860 | 11.87489 | 142° | 24km/h | 23423m | -20m/s | -52.8°C | 0.1% | 34.4hPa | 2.7V | 03:05:41 | 02:50:52 | 00:00:00 | |
| AA1-15 | 2026-09-05 12:41:29 | 52.34864 | 11.87482 | 133° | 26km/h | 23443m | -20.5m/s | -52.8°C | 0.1% | 34.3hPa | 2.6V | 03:05:41 | 02:50:51 | 00:00:00 | |
| DO3MHA-11 | 2026-09-05 12:41:29 | 52.34864 | 11.87482 | 134° | 22km/h | 23443m | -20.5m/s | -52.8°C | 3.7% | 34.3hPa | 2.6V | 00:00:00 | 02:50:51 | 00:00:00 | |
| DM0DOS-11 | 2026-09-05 12:41:28 | 52.34883 | 11.87432 | 119° | 22km/h | 23572m | -22.8m/s | -52.5°C | 3.5% | 33.7hPa | 2.6V | 03:05:47 | 02:50:45 | 00:00:00 | |
| DC4HF-4 | 2026-09-05 12:41:28 | 52.34872 | 11.87467 | 118° | 24km/h | 23486m | -23.1m/s | -52.8°C | 0.8% | 34.1hPa | 2.6V | 00:00:00 | 00:00:00 | 00:00:00 | |
| SONDE2-11 | 2026-09-05 12:41:27 | 52.34875 | 11.87458 | 116° | 24km/h | 23509m | -22.1m/s | -52.8°C | 0.8% | 34.0hPa | 2.6V | 00:00:00 | 00:00:00 | 00:00:00 | |
| DL1XH1-15 | 2026-09-05 12:41:26 | 52.34890 | 11.87418 | 128° | 20km/h | 23617m | -23.5m/s | -52.3°C | 3.5% | 33.4hPa | 2.6V | 03:05:49 | 02:50:43 | 00:00:00 | |
| DB0DAN | 2026-09-05 12:41:25 | 52.34878 | 11.87449 | 116° | 22km/h | 23529m | -19.8m/s | -52.7°C | 0.8% | 33.86hPa | 2.7V | 00:00:00 | 00:00:00 | 00:00:00 | |
| DF8AY | 2026-09-05 12:41:22 | 52.34886 | 11.87425 | 125° | 22km/h | 23594m | -22.1m/s | -52.5°C | 0% | 33.6hPa | 2.6V | 03:06:32 | 02:50:44 | 00:00:00 | |
| DL1XH-west | 2026-09-05 12:41:19 | 52.34896 | 11.87409 | 153° | 15km/h | 23665m | -24.1m/s | -51.9°C | 0% | 33.2hPa | 2.7V | 03:06:32 | 02:50:41 | 00:00:00 | |
| AA1-15 | 2026-09-05 12:41:18 | 52.34900 | 11.87406 | 161° | 13km/h | 23688m | -23.5m/s | -51.7°C | 0% | 33.1hPa | 2.7V | 03:06:32 | 02:50:40 | 00:00:00 | |
| SP3WXH-11 | 2026-09-05 12:41:18 | 52.34903 | 11.87405 | 170° | 9km/h | 23711m | -21.6m/s | -51.7°C | 0.7% | 32.9hPa | 2.6V | 00:00:00 | 00:00:00 | 00:00:00 | |
| DL1XH1-15 | 2026-09-05 12:41:16 | 52.34911 | 11.87409 | 211° | 2km/h | 23840m | -20.3m/s | -51.8°C | 3.4% | 32.3hPa | 2.6V | 03:05:59 | 02:50:33 | 00:00:00 | |
| DF8AY | 2026-09-05 12:41:11 | 52.34911 | 11.87410 | 211° | 2km/h | 23840m | -20.3m/s | -51.8°C | 0% | 32.3hPa | 2.6V | 03:06:32 | 02:50:33 | 00:00:00 | |
| SONCRA | 2026-09-05 12:41:11 | 52.34911 | 11.87409 | 121° | 2km/h | 23861m | -21.3m/s | -51.9°C | 0.7% | 32.2hPa | 2.7V | 00:00:00 | 00:00:00 | 00:00:00 | |
| DL1NUX | 2026-09-05 12:41:10 | 52.34917 | 11.87397 | 134° | 11km/h | 23971m | -21.1m/s | -51.7°C | 3.5% | 31.7hPa | 2.7V | 03:06:05 | 02:50:27 | 00:00:00 | |
| DL1XH-west | 2026-09-05 12:41:09 | 52.34912 | 11.87408 | 114° | 4km/h | 23883m | -22.7m/s | -52°C | 0% | 32.1hPa | 2.7V | 03:06:32 | 02:50:31 | 00:00:00 | |
| AA1-15 | 2026-09-05 12:41:08 | 52.34913 | 11.87406 | 125° | 7km/h | 23905m | -22.5m/s | -52.1°C | 0.1% | 32hPa | 2.7V | 03:06:32 | 02:50:30 | 00:00:00 | |
| TFSTFS | 2026-09-05 12:41:07 | 52.34914 | 11.87403 | 128° | 11km/h | 23928m | -21.8m/s | -52.0°C | 0.7% | 31.9hPa | 2.6V | 00:00:00 | 00:00:00 | 00:00:00 | |
| DL1XH1-15 | 2026-09-05 12:41:06 | 52.34926 | 11.87388 | 167° | 7km/h | 24063m | -23.3m/s | -51.3°C | 3.4% | 31.2hPa | 2.6V | 03:06:09 | 02:50:23 | 00:00:00 | |
| DO2SHX-10 | 2026-09-05 12:41:06 | 52.34916 | 11.87400 | 131° | 11km/h | 23950m | -22.1m/s | -51.8°C | 3.5% | 31.7hPa | 2.7V | 03:06:00 | 02:50:28 | 00:00:00 | |
| GOEST3-10 | 2026-09-05 12:41:05 | 52.34918 | 11.87397 | 135° | 9km/h | 23972m | -21.0m/s | -51.6°C | 3.5% | 31.6hPa | 2.7V | 00:00:00 | 02:50:27 | 00:00:00 | |
| DO2SHX-10 | 2026-09-05 12:41:03 | 52.34922 | 11.87391 | 143° | 9km/h | 24017m | -24.4m/s | -51.5°C | 3.5% | 31.4hPa | 2.7V | 00:00:00 | 02:50:25 | 00:00:00 | |
| DL1XH-15 | 2026-09-05 12:41:02 | 52.34929 | 11.87387 | 284° | 2km/h | 24157m | -22.2m/s | -51.1°C | 3.3% | 30.8hPa | 2.7V | 03:06:13 | 02:50:19 | 00:00:00 | |
| DF8AY | 2026-09-05 12:41:01 | 52.34926 | 11.87388 | 168° | 7km/h | 24064m | -23.3m/s | -51.3°C | 0% | 31.2hPa | 2.6V | 03:06:32 | 02:50:23 | 00:00:00 | |
| DD8BA-10 | 2026-09-05 12:41:01 | 52.34926 | 11.87388 | 168° | 4km/h | 24064m | -23.3m/s | -51.2°C | 3.4% | 31.2hPa | 2.6V | 03:06:00 | 00:00:00 | 00:00:00 | |
| DL1NUX | 2026-09-05 12:41:00 | 52.34929 | 11.87387 | 12° | 4km/h | 24203m | -22.7m/s | -51°C | 3.2% | 30.5hPa | 2.6V | 03:06:15 | 02:50:17 | 00:00:00 | |
| DL1XH-west | 2026-09-05 12:40:59 | 52.34929 | 11.87387 | 159° | 2km/h | 24111m | -23.2m/s | -51.2°C | 0% | 31hPa | 2.6V | 03:06:32 | 02:50:21 | 00:00:00 | |
| HSKMA3-T | 2026-09-05 12:40:58 | 52.34929 | 11.87387 | 292° | 0km/h | 24134m | -22.9m/s | -51.2°C | 0% | 30.9hPa | 2.7V | 03:07:23 | 02:50:20 | 00:00:00 | |
| AA1-15 | 2026-09-05 12:40:58 | 52.34929 | 11.87387 | 284° | 2km/h | 24157m | -22.2m/s | -51.1°C | 0% | 30.8hPa | 2.7V | 03:06:32 | 02:50:19 | 00:00:00 | |
| EDDB2-11 | 2026-09-05 12:40:57 | 52.34929 | 11.87387 | 42° | 2km/h | 24180m | -23.3m/s | -51.0°C | 0.7% | 30.7hPa | 2.7V | 00:00:00 | 00:00:00 | 00:00:00 | |
| SONDE2-11 | 2026-09-05 12:40:56 | 52.34928 | 11.87387 | 12° | 2km/h | 24203m | -22.7m/s | -51.0°C | 0.7% | 30.5hPa | 2.7V | 00:00:00 | 00:00:00 | 00:00:00 | |
| DL1XH1-15 | 2026-09-05 12:40:55 | 52.34930 | 11.87387 | 188° | 4km/h | 24293m | -22.4m/s | -50.6°C | 3.1% | 30.2hPa | 2.7V | 03:06:19 | 02:50:13 | 00:00:00 | |
| DB0DAN | 2026-09-05 12:40:55 | 52.34928 | 11.87387 | 13° | 4km/h | 24203m | -22.7m/s | -51°C | 0.7% | 30.54hPa | 2.6V | 00:00:00 | 00:00:00 | 00:00:00 | |
| DF8AY | 2026-09-05 12:40:51 | 52.34930 | 11.87387 | 189° | 4km/h | 24293m | -22.4m/s | -50.6°C | 0% | 30.2hPa | 2.7V | 03:06:32 | 02:50:13 | 00:00:00 | |
| DO2SHX-10 | 2026-09-05 12:40:51 | 52.34930 | 11.87387 | 189° | 5km/h | 24293m | -22.4m/s | -50.5°C | 3.1% | 30.1hPa | 2.7V | 00:00:00 | 02:50:13 | 00:00:00 | |
| TFSTFS | 2026-09-05 12:40:50 | 52.34931 | 11.87387 | 188° | 5km/h | 24315m | -20.9m/s | -50.6°C | 0.6% | 30.1hPa | 2.7V | 03:06:00 | 00:00:00 | 00:00:00 | |
| DL1XH-15 | 2026-09-05 12:40:49 | 52.34935 | 11.87388 | 169° | 4km/h | 24378m | -21.6m/s | -50.6°C | 3.3% | 29.8hPa | 2.7V | 03:06:23 | 02:50:09 | 00:00:00 | |
| DL1XH-west | 2026-09-05 12:40:48 | 52.34934 | 11.87388 | 192° | 4km/h | 24357m | -21.1m/s | -50.6°C | 0% | 29.9hPa | 2.7V | 03:06:32 | 02:50:10 | 00:00:00 | |
| AA1-15 | 2026-09-05 12:40:47 | 52.34935 | 11.87388 | 170° | 4km/h | 24378m | -21.6m/s | -50.6°C | 0% | 29.8hPa | 2.7V | 03:06:32 | 02:50:09 | 00:00:00 | |
| DL1XH1-15 | 2026-09-05 12:40:46 | 52.34927 | 11.87368 | 59° | 22km/h | 24516m | -23.7m/s | -50.3°C | 3.3% | 29.1hPa | 2.7V | 03:06:29 | 02:50:03 | 00:00:00 | |
| DO9LL-15 | 2026-09-05 12:40:46 | 52.34935 | 11.87388 | 86° | 18km/h | 24399m | -21.8m/s | -50.4°C | 3.3% | 29.6hPa | 2.6V | 00:00:00 | 02:50:08 | 00:00:00 | |
| DO2SHX-10 | 2026-09-05 12:40:45 | 52.34935 | 11.87386 | 89° | 9km/h | 24421m | -22.8m/s | -50.4°C | 3.2% | 29.5hPa | 2.6V | 00:00:00 | 02:50:07 | 00:00:00 | |
| GOEST3-10 | 2026-09-05 12:40:44 | 52.34934 | 11.87384 | 57° | 18km/h | 24445m | -25.0m/s | -50.3°C | 3.2% | 29.4hPa | 2.6V | 00:00:00 | 02:50:06 | 00:00:00 | |
| DL1XH-15 | 2026-09-05 12:40:42 | 52.34913 | 11.87333 | 61° | 26km/h | 24610m | -24.5m/s | -50.4°C | 3.2% | 28.7hPa | 2.6V | 03:06:33 | 02:49:59 | 00:00:00 | |
| HSKMA3-T | 2026-09-05 12:40:40 | 52.34923 | 11.87360 | 53° | 26km/h | 24540m | -23.6m/s | -50.4°C | 0% | 29hPa | 2.7V | 03:07:23 | 02:50:02 | 00:00:00 | |
| SONCRA | 2026-09-05 12:40:40 | 52.34919 | 11.87352 | 53° | 26km/h | 24563m | -23.0m/s | -50.5°C | 0.7% | 28.9hPa | 2.7V | 00:00:00 | 00:00:00 | 00:00:00 | |
| DO2SHX-10 | 2026-09-05 12:40:39 | 52.34919 | 11.87351 | 54° | 26km/h | 24563m | -23.0m/s | -50.4°C | 3.3% | 28.9hPa | 2.7V | 00:00:00 | 02:50:01 | 00:00:00 | |
| DL1NUX | 2026-09-05 12:40:38 | 52.34908 | 11.87316 | 65° | 20km/h | 24659m | -24.3m/s | -50.3°C | 3.3% | 28.5hPa | 2.7V | 03:06:35 | 02:49:57 | 00:00:00 | |
| DL1XH-west | 2026-09-05 12:40:38 | 52.34916 | 11.87343 | 60° | 26km/h | 24586m | -23.8m/s | -50.5°C | 0% | 28.8hPa | 2.6V | 03:06:32 | 02:50:00 | 00:00:00 | |
| AA1-15 | 2026-09-05 12:40:37 | 52.34913 | 11.87333 | 61° | 26km/h | 24610m | -24.5m/s | -50.4°C | 0% | 28.7hPa | 2.6V | 03:07:23 | 02:49:59 | 00:00:00 | |
| DO2SHX-10 | 2026-09-05 12:40:36 | 52.34910 | 11.87324 | 70° | 20km/h | 24635m | -24.4m/s | -50.3°C | 3.2% | 28.6hPa | 2.7V | 00:00:00 | 02:49:58 | 00:00:00 | |
| DM0DOS-11 | 2026-09-05 12:40:33 | 52.34904 | 11.87303 | 75° | 11km/h | 24709m | -26.1m/s | -50.1°C | 3.2% | 28.3hPa | 2.6V | 03:06:37 | 02:49:55 | 00:00:00 | |
| DO2SHX-10 | 2026-09-05 12:40:33 | 52.34905 | 11.87303 | 76° | 9km/h | 24710m | -26.0m/s | -50.1°C | 3.2% | 28.3hPa | 2.6V | 00:00:00 | 02:49:55 | 00:00:00 | |
| DJ8HS-15 | 2026-09-05 12:40:32 | 52.34904 | 11.87299 | 74° | 16km/h | 24735m | -24.6m/s | -49.8°C | 3.2% | 28.1hPa | 2.6V | 03:06:00 | 02:49:54 | 00:00:00 | |
| DF7ER-10 | 2026-09-05 12:40:31 | 52.34904 | 11.87299 | 75° | 7km/h | 24735m | -24.7m/s | -49.9°C | 0.7% | 28.2hPa | 2.6V | 03:07:00 | 00:00:00 | 00:00:00 | |
| DO2SHX-10 | 2026-09-05 12:40:30 | 52.34903 | 11.87295 | 90° | 4km/h | 24783m | -24.1m/s | -49.6°C | 3.1% | 27.9hPa | 2.6V | 03:06:00 | 02:49:52 | 00:00:00 | |
| DL1XH-15 | 2026-09-05 12:40:29 | 52.34902 | 11.87291 | 51° | 4km/h | 24855m | -23.4m/s | -49.4°C | 3.1% | 27.6hPa | 2.6V | 03:06:43 | 02:49:49 | 00:00:00 | |
| DF8AY | 2026-09-05 12:40:29 | 52.34903 | 11.87293 | 60° | 4km/h | 24807m | -24.9m/s | -49.6°C | 0% | 27.9hPa | 2.7V | 03:08:14 | 02:49:51 | 00:00:00 | |
| DO3MHA-11 | 2026-09-05 12:40:29 | 52.34903 | 11.87293 | 61° | 11km/h | 24808m | -24.9m/s | -49.6°C | 3.1% | 27.8hPa | 2.7V | 00:00:00 | 02:49:51 | 00:00:00 | |
| DL1NUX | 2026-09-05 12:40:28 | 52.34901 | 11.87286 | 60° | 11km/h | 24902m | -24.3m/s | -49°C | 3% | 27.4hPa | 2.7V | 03:06:45 | 02:49:47 | 00:00:00 | |
| HSKMA3-T | 2026-09-05 12:40:27 | 52.34902 | 11.87291 | 51° | 4km/h | 24855m | -23.4m/s | -49.4°C | 0% | 27.7hPa | 2.6V | 03:07:23 | 02:49:49 | 00:00:00 | |
| DO2SHX-10 | 2026-09-05 12:40:27 | 52.34902 | 11.87290 | 52° | 7km/h | 24856m | -23.3m/s | -49.4°C | 3.1% | 27.6hPa | 2.6V | 00:00:00 | 02:49:49 | 00:00:00 | |
| DM0DOS-11 | 2026-09-05 12:40:26 | 52.34896 | 11.87276 | 58° | 18km/h | 24954m | -26.7m/s | -49°C | 3% | 27.3hPa | 2.6V | 03:06:47 | 02:49:45 | 00:00:00 | |
| AA1-15 | 2026-09-05 12:40:26 | 52.34902 | 11.87289 | 53° | 7km/h | 24878m | -23.3m/s | -49.2°C | 0% | 27.6hPa | 2.7V | 03:07:23 | 02:49:48 | 00:00:00 | |
| EDDB2-11 | 2026-09-05 12:40:26 | 52.34901 | 11.87286 | 60° | 11km/h | 24902m | -24.3m/s | -49.0°C | 0.6% | 27.4hPa | 2.6V | 00:00:00 | 00:00:00 | 00:00:00 | |
| DL4BBY-15 | 2026-09-05 12:40:25 | 52.34901 | 11.87286 | 61° | 16km/h | 24902m | -24.3m/s | -49.2°C | 0% | 0hPa | 2.6V | 00:00:00 | 00:00:00 | 00:00:00 | |
| DO2SHX-10 | 2026-09-05 12:40:24 | 52.34899 | 11.87282 | 53° | 18km/h | 24927m | -27.5m/s | -48.9°C | 2.9% | 27.3hPa | 2.6V | 00:00:00 | 02:49:46 | 00:00:00 | |
| DL1XH-15 | 2026-09-05 12:40:22 | 52.34878 | 11.87223 | 57° | 27km/h | 25100m | -24.9m/s | -48.8°C | 2.9% | 26.6hPa | 2.6V | 03:06:53 | 02:49:39 | 00:00:00 | |
| DF8AY | 2026-09-05 12:40:18 | 52.34882 | 11.87233 | 60° | 29km/h | 25076m | -24.5m/s | -48.9°C | 0% | 26.7hPa | 2.6V | 03:08:14 | 02:49:40 | 00:00:00 | |
| DJ2DS-15 | 2026-09-05 12:40:18 | 52.34878 | 11.87223 | 57° | 27km/h | 25101m | -24.9m/s | -48.8°C | 0.6% | 26.6hPa | 2.7V | 00:00:00 | 00:00:00 | 00:00:00 | |
| DL1NUX | 2026-09-05 12:40:17 | 52.34870 | 11.87203 | 57° | 27km/h | 25150m | -25.9m/s | -48.6°C | 2.9% | 26.5hPa | 2.7V | 03:06:55 | 02:49:37 | 00:00:00 | |
| DL1XH-west | 2026-09-05 12:40:16 | 52.34874 | 11.87213 | 56° | 31km/h | 25125m | -25m/s | -48.7°C | 0% | 26.6hPa | 2.7V | 03:07:23 | 02:49:38 | 00:00:00 | |
| DM0DOS-11 | 2026-09-05 12:40:16 | 52.34864 | 11.87185 | 60° | 27km/h | 25203m | -27.1m/s | -48.6°C | 2.9% | 26.2hPa | 2.6V | 03:06:57 | 02:49:35 | 00:00:00 | |
| AA1-15 | 2026-09-05 12:40:15 | 52.34870 | 11.87203 | 57° | 27km/h | 25151m | -25.9m/s | -48.6°C | 0% | 26.5hPa | 2.7V | 03:07:23 | 02:49:37 | 00:00:00 | |
| TFSTFS | 2026-09-05 12:40:15 | 52.34870 | 11.87203 | 58° | 27km/h | 25151m | -25.9m/s | -48.6°C | 0.5% | 26.5hPa | 2.7V | 00:00:00 | 00:00:00 | 00:00:00 | |
| GOEST3-10 | 2026-09-05 12:40:14 | 52.34867 | 11.87194 | 59° | 24km/h | 25177m | -26.1m/s | -48.5°C | 2.9% | 26.3hPa | 2.7V | 00:00:00 | 02:49:36 | 00:00:00 | |
| DF8AY-15 | 2026-09-05 12:40:13 | 52.34864 | 11.87185 | 61° | 16km/h | 25203m | -27.0m/s | -48.5°C | 2.9% | 26.2hPa | 2.7V | 00:00:00 | 02:49:35 | 00:00:00 | |
| DL1XH1-15 | 2026-09-05 12:40:12 | 52.34858 | 11.87168 | 65° | 20km/h | 25256m | -26.4m/s | -48.6°C | 2.9% | 26.1hPa | 2.7V | 03:06:59 | 02:49:33 | 00:00:00 | |
| DO2SHX-10 | 2026-09-05 12:40:12 | 52.34860 | 11.87176 | 62° | 22km/h | 25230m | -27.8m/s | -48.6°C | 2.9% | 26.1hPa | 2.7V | 00:00:00 | 02:49:34 | 00:00:00 | |
| DF7ER-10 | 2026-09-05 12:40:11 | 52.34858 | 11.87168 | 67° | 20km/h | 25257m | -26.4m/s | -48.6°C | 0.6% | 26.1hPa | 2.7V | 03:07:00 | 00:00:00 | 00:00:00 | |
| DL1NUX | 2026-09-05 12:40:10 | 52.34861 | 11.87116 | 114° | 18km/h | 25437m | -26m/s | -49°C | 3.1% | 25.3hPa | 2.7V | 03:07:06 | 02:49:26 | 00:00:00 | |
| DD8BA-10 | 2026-09-05 12:40:10 | 52.34856 | 11.87160 | 76° | 18km/h | 25283m | -27.0m/s | -48.5°C | 2.9% | 25.9hPa | 2.6V | 00:00:00 | 00:00:00 | 00:00:00 | |
| DL1XH-15 | 2026-09-05 12:40:09 | 52.34856 | 11.87137 | 100° | 20km/h | 25361m | -25.4m/s | -48.9°C | 3% | 25.6hPa | 2.6V | 03:07:03 | 02:49:29 | 00:00:00 | |
| DF8AY | 2026-09-05 12:40:08 | 52.34855 | 11.87145 | 98° | 18km/h | 25336m | -26m/s | -48.8°C | 0% | 25.7hPa | 2.6V | 03:08:14 | 02:49:30 | 00:00:00 | |
| DM0DOS-11 | 2026-09-05 12:40:06 | 52.34863 | 11.87109 | 120° | 16km/h | 25463m | -26.6m/s | -49°C | 3.1% | 25.2hPa | 2.6V | 03:07:07 | 02:49:25 | 00:00:00 | |
| DL1XH-west | 2026-09-05 12:40:06 | 52.34861 | 11.87116 | 114° | 18km/h | 25437m | -26m/s | -49°C | 0% | 25.3hPa | 2.7V | 03:07:23 | 02:49:26 | 00:00:00 | |
| AA1-15 | 2026-09-05 12:40:05 | 52.34859 | 11.87122 | 112° | 18km/h | 25412m | -25.2m/s | -48.9°C | 0% | 25.4hPa | 2.7V | 03:07:23 | 02:49:27 | 00:00:00 | |
| GOEST3-10 | 2026-09-05 12:40:05 | 52.34861 | 11.87116 | 115° | 15km/h | 25437m | -25.9m/s | -48.9°C | 3.1% | 25.3hPa | 2.7V | 00:00:00 | 02:49:26 | 00:00:00 | |
| DO2SHX-10 | 2026-09-05 12:40:03 | 52.34863 | 11.87109 | 121° | 15km/h | 25463m | -26.6m/s | -48.9°C | 3.1% | 25.1hPa | 2.7V | 00:00:00 | 02:49:25 | 00:00:00 | |
| DL1XH1-15 | 2026-09-05 12:40:02 | 52.34867 | 11.87100 | 137° | 13km/h | 25514m | -24.9m/s | -48.8°C | 3% | 25.1hPa | 2.7V | 03:07:09 | 02:49:23 | 00:00:00 | |
| NBG1-10 | 2026-09-05 12:40:02 | 52.34865 | 11.87104 | 132° | 7km/h | 25489m | -25.2m/s | -48.9°C | 3.1% | 25.1hPa | 2.6V | 03:07:00 | 02:49:24 | 00:00:00 | |
| DF7ER-10 | 2026-09-05 12:40:00 | 52.34870 | 11.87096 | 131° | 13km/h | 25539m | -25.2m/s | -48.6°C | 0.6% | 24.9hPa | 2.6V | 03:07:00 | 00:00:00 | 00:00:00 | |
| DL1XH-15 | 2026-09-05 12:39:59 | 52.34876 | 11.87085 | 123° | 11km/h | 25615m | -26.6m/s | -48.1°C | 2.8% | 24.7hPa | 2.6V | 03:07:13 | 02:49:19 | 00:00:00 | |
| DF8AY | 2026-09-05 12:39:58 | 52.34874 | 11.87088 | 127° | 11km/h | 25589m | -25.4m/s | -48.2°C | 0% | 24.7hPa | 2.6V | 03:08:14 | 02:49:20 | 00:00:00 | |
| DM0DOS-11 | 2026-09-05 12:39:58 | 52.34881 | 11.87073 | 124° | 9km/h | 25723m | -26.6m/s | -48°C | 2.8% | 24.2hPa | 2.6V | 03:07:17 | 02:49:15 | 00:00:00 | |
| DL1NUX | 2026-09-05 12:39:57 | 52.34879 | 11.87078 | 122° | 9km/h | 25669m | -27.1m/s | -48.1°C | 2.9% | 24.4hPa | 2.7V | 03:07:15 | 02:49:17 | 00:00:00 | |
| DL1XH-west | 2026-09-05 12:39:54 | 52.34881 | 11.87073 | 125° | 9km/h | 25723m | -26.6m/s | -48°C | 0% | 24.3hPa | 2.6V | 03:07:23 | 02:49:15 | 00:00:00 | |
| AA1-15 | 2026-09-05 12:39:54 | 52.34880 | 11.87075 | 122° | 7km/h | 25696m | -27.2m/s | -48°C | 0% | 24.4hPa | 2.7V | 03:07:23 | 02:49:16 | 00:00:00 | |
| S3001 | 2026-09-05 12:39:54 | 52.34881 | 11.87073 | 124° | 7km/h | 25723m | -26.6m/s | -48.0°C | 0.5% | 24.3hPa | 2.6V | 00:00:00 | 00:00:00 | 00:00:00 | |
| DF8AY-15 | 2026-09-05 12:39:53 | 52.34881 | 11.87073 | 125° | 7km/h | 25723m | -26.5m/s | -47.9°C | 2.8% | 24.2hPa | 2.6V | 00:00:00 | 02:49:15 | 00:00:00 | |
| DL1XH1-15 | 2026-09-05 12:39:52 | 52.34884 | 11.87067 | 131° | 7km/h | 25777m | -28.1m/s | -47.7°C | 2.8% | 24.1hPa | 2.7V | 03:07:19 | 02:49:13 | 00:00:00 | |
| DJ8HS-15 | 2026-09-05 12:39:52 | 52.34882 | 11.87070 | 126° | 7km/h | 25750m | -28.0m/s | -47.8°C | 2.8% | 24.1hPa | 2.7V | 00:00:00 | 02:49:14 | 00:00:00 | |
| DO2SHX-10 | 2026-09-05 12:39:51 | 52.34884 | 11.87067 | 132° | 7km/h | 25778m | -28.1m/s | -47.7°C | 2.8% | 24.0hPa | 2.7V | 00:00:00 | 02:49:13 | 00:00:00 | |
| DD8BA-10 | 2026-09-05 12:39:50 | 52.34885 | 11.87065 | 153° | 9km/h | 25806m | -27.9m/s | -47.6°C | 2.7% | 23.9hPa | 2.7V | 00:00:00 | 00:00:00 | 00:00:00 | |
| DL1NUX | 2026-09-05 12:39:50 | 52.34897 | 11.87059 | 165° | 11km/h | 25944m | -27.9m/s | -47.3°C | 2.6% | 23.5hPa | 2.7V | 03:07:25 | 02:49:07 | 00:00:00 | |
| DL1XH-15 | 2026-09-05 12:39:49 | 52.34892 | 11.87061 | 165° | 7km/h | 25888m | -27.1m/s | -47.2°C | 2.6% | 23.6hPa | 2.6V | 03:07:23 | 02:49:09 | 00:00:00 | |
| TFSTFS | 2026-09-05 12:39:49 | 52.34888 | 11.87064 | 164° | 9km/h | 25834m | -28.4m/s | -47.5°C | 0.5% | 23.9hPa | 2.6V | 00:00:00 | 00:00:00 | 00:00:00 | |
| DO2SHX-10 | 2026-09-05 12:39:48 | 52.34890 | 11.87062 | 154° | 9km/h | 25862m | -28.2m/s | -47.3°C | 2.6% | 23.7hPa | 2.6V | 00:00:00 | 02:49:10 | 00:00:00 | |
| DM0DOS-11 | 2026-09-05 12:39:47 | 52.34901 | 11.87055 | 148° | 9km/h | 25999m | -27.4m/s | -47.4°C | 2.6% | 23.3hPa | 2.6V | 03:07:27 | 02:49:05 | 00:00:00 | |
| DF8AY | 2026-09-05 12:39:47 | 52.34894 | 11.87060 | 159° | 11km/h | 25916m | -28m/s | -47.3°C | 0% | 23.5hPa | 2.7V | 03:08:14 | 02:49:08 | 00:00:00 | |
| SP3WXH-11 | 2026-09-05 12:39:45 | 52.34899 | 11.87057 | 154° | 9km/h | 25972m | -27.6m/s | -47.3°C | 0.5% | 23.4hPa | 2.6V | 00:00:00 | 00:00:00 | 00:00:00 | |
| AA1-15 | 2026-09-05 12:39:43 | 52.34901 | 11.87055 | 149° | 9km/h | 25999m | -27.4m/s | -47.4°C | 0% | 23.3hPa | 2.6V | 03:08:14 | 02:49:05 | 00:00:00 | |
| HSKMA3-T | 2026-09-05 12:39:42 | 52.34903 | 11.87054 | 152° | 7km/h | 26027m | -27.2m/s | -47.4°C | 0% | 23.2hPa | 2.6V | 03:08:14 | 02:49:04 | 00:00:00 | |
| DJ2DS-15 | 2026-09-05 12:39:42 | 52.34905 | 11.87052 | 140° | 7km/h | 26054m | -28.7m/s | -47.4°C | 0.5% | 23.1hPa | 2.6V | 00:00:00 | 00:00:00 | 00:00:00 | |
| DD8BA-10 | 2026-09-05 12:39:40 | 52.34906 | 11.87051 | 151° | 7km/h | 26083m | -28.6m/s | -47.5°C | 2.6% | 22.9hPa | 2.6V | 03:07:00 | 00:00:00 | 00:00:00 | |
| DL1XH-15 | 2026-09-05 12:39:39 | 52.34911 | 11.87045 | 145° | 5km/h | 26164m | -24.9m/s | -47.6°C | 2.7% | 22.7hPa | 2.6V | 03:07:33 | 02:48:59 | 00:00:00 | |
| DF7ER-10 | 2026-09-05 12:39:39 | 52.34908 | 11.87049 | 142° | 7km/h | 26111m | -28.2m/s | -47.6°C | 0.5% | 22.9hPa | 2.7V | 03:08:00 | 00:00:00 | 00:00:00 | |
| SONCRA | 2026-09-05 12:39:38 | 52.34911 | 11.87045 | 145° | 5km/h | 26164m | -24.9m/s | -47.7°C | 0.5% | 22.7hPa | 2.7V | 00:00:00 | 00:00:00 | 00:00:00 | |
| DL1NUX | 2026-09-05 12:39:37 | 52.34914 | 11.87042 | 135° | 7km/h | 26217m | -26m/s | -47.9°C | 2.7% | 22.5hPa | 2.7V | 03:07:35 | 02:48:57 | 00:00:00 | |
| DM0DOS-11 | 2026-09-05 12:39:36 | 52.34917 | 11.87039 | 155° | 5km/h | 26269m | -28.1m/s | -48°C | 2.8% | 22.3hPa | 2.6V | 03:07:37 | 02:48:55 | 00:00:00 | |
| DF8AY | 2026-09-05 12:39:36 | 52.34912 | 11.87044 | 141° | 7km/h | 26190m | -28.3m/s | -47.8°C | 0% | 22.6hPa | 2.7V | 03:08:14 | 02:48:58 | 00:00:00 | |
| DL1XH1-15 | 2026-09-05 12:39:36 | 52.34921 | 11.87039 | 184° | 7km/h | 26322m | -26.5m/s | -48.1°C | 2.8% | 22.1hPa | 2.7V | 03:07:39 | 02:48:53 | 00:00:00 | |
| DL1XH-west | 2026-09-05 12:39:33 | 52.34917 | 11.87039 | 156° | 7km/h | 26269m | -28.1m/s | -48°C | 0% | 22.3hPa | 2.6V | 03:08:14 | 02:48:55 | 00:00:00 | |
| HSKMA3-T | 2026-09-05 12:39:32 | 52.34919 | 11.87039 | 175° | 7km/h | 26296m | -26.4m/s | -48.1°C | 0% | 22.2hPa | 2.6V | 03:08:14 | 02:48:54 | 00:00:00 | |
| DJ8HS-15 | 2026-09-05 12:39:32 | 52.34919 | 11.87039 | 176° | 7km/h | 26296m | -26.4m/s | -48.0°C | 2.8% | 22.2hPa | 2.7V | 00:00:00 | 02:48:54 | 00:00:00 | |
| DL1NUX | 2026-09-05 12:39:30 | 52.34929 | 11.87039 | 114° | 5km/h | 26478m | -26.2m/s | -48.1°C | 2.8% | 21.6hPa | 2.7V | 03:07:45 | 02:48:47 | 00:00:00 | |
| DD8BA-10 | 2026-09-05 12:39:30 | 52.34923 | 11.87039 | 193° | 7km/h | 26349m | -27.3m/s | -48.0°C | 2.8% | 22.0hPa | 2.6V | 00:00:00 | 00:00:00 | 00:00:00 | |
| GOEST3-10 | 2026-09-05 12:39:29 | 52.34924 | 11.87040 | 192° | 5km/h | 26376m | -26.5m/s | -48.0°C | 2.8% | 21.9hPa | 2.6V | 03:07:00 | 00:00:00 | 00:00:00 | |
| DF7ER-10 | 2026-09-05 12:39:28 | 52.34926 | 11.87040 | 225° | 4km/h | 26402m | -25.2m/s | -48.1°C | 0.6% | 21.8hPa | 2.6V | 03:08:00 | 00:00:00 | 00:00:00 | |
| TFSTFS | 2026-09-05 12:39:27 | 52.34927 | 11.87041 | 179° | 5km/h | 26427m | -25.8m/s | -48.1°C | 0.5% | 21.8hPa | 2.6V | 00:00:00 | 00:00:00 | 00:00:00 | |
| DM0DOS-11 | 2026-09-05 12:39:26 | 52.34930 | 11.87034 | 82° | 7km/h | 26529m | -25.6m/s | -48.1°C | 2.8% | 21.4hPa | 2.6V | 03:07:47 | 02:48:45 | 00:00:00 | |
| DL1XH1-15 | 2026-09-05 12:39:26 | 52.34929 | 11.87026 | 66° | 7km/h | 26579m | -25m/s | -48.1°C | 2.8% | 21.3hPa | 2.7V | 03:07:49 | 02:48:43 | 00:00:00 | |
| DF8AY | 2026-09-05 12:39:25 | 52.34929 | 11.87039 | 114° | 5km/h | 26478m | -26.2m/s | -48.1°C | 0% | 21.6hPa | 2.7V | 03:08:14 | 02:48:47 | 00:00:00 | |
| AA1-15 | 2026-09-05 12:39:22 | 52.34930 | 11.87030 | 81° | 9km/h | 26554m | -25.2m/s | -48.1°C | 0% | 21.4hPa | 2.6V | 03:08:14 | 02:48:44 | 00:00:00 | |
| DL1ZP-14 | 2026-09-05 12:39:22 | 52.34929 | 11.87026 | 66° | 7km/h | 26579m | -25.0m/s | -48.1°C | 0.5% | 21.3hPa | 2.7V | 00:00:00 | 00:00:00 | 00:00:00 | |
| DO2SHX-10 | 2026-09-05 12:39:21 | 52.34929 | 11.87026 | 67° | 7km/h | 26579m | -25.0m/s | -48.1°C | 2.8% | 21.2hPa | 2.7V | 00:00:00 | 02:48:43 | 00:00:00 | |
| DD8BA-10 | 2026-09-05 12:39:20 | 52.34928 | 11.87023 | 62° | 9km/h | 26604m | -25.1m/s | -48.0°C | 2.8% | 21.2hPa | 2.7V | 00:00:00 | 00:00:00 | 00:00:00 | |
| GOEST3-10 | 2026-09-05 12:39:19 | 52.34928 | 11.87021 | 47° | 7km/h | 26629m | -24.5m/s | -48.0°C | 2.8% | 21.1hPa | 2.7V | 00:00:00 | 00:00:00 | 00:00:00 | |
| DO2SHX-10 | 2026-09-05 12:39:18 | 52.34927 | 11.87021 | 12° | 7km/h | 26654m | -25.2m/s | -48.0°C | 2.8% | 21.0hPa | 2.7V | 03:07:00 | 02:48:40 | 00:00:00 | |
| DL1NUX | 2026-09-05 12:39:17 | 52.34922 | 11.87025 | 332° | 7km/h | 26729m | -25.3m/s | -47.7°C | 2.6% | 20.8hPa | 2.7V | 03:07:55 | 02:48:37 | 00:00:00 | |
| DM0DOS-11 | 2026-09-05 12:39:16 | 52.34918 | 11.87028 | 346° | 9km/h | 26783m | -27.4m/s | -47.9°C | 2.7% | 20.7hPa | 2.6V | 03:07:57 | 02:48:35 | 00:00:00 | |
| DL1XH1-15 | 2026-09-05 12:39:16 | 52.34913 | 11.87028 | 13° | 11km/h | 26836m | -27.2m/s | -48°C | 2.7% | 20.5hPa | 2.7V | 03:07:59 | 02:48:33 | 00:00:00 | |
| DF8AY | 2026-09-05 12:39:14 | 52.34920 | 11.87026 | 339° | 11km/h | 26755m | -27.3m/s | -47.7°C | 0% | 20.8hPa | 2.7V | 03:08:14 | 02:48:36 | 00:00:00 | |
| DL1XH-west | 2026-09-05 12:39:11 | 52.34911 | 11.87027 | 29° | 11km/h | 26863m | -27.9m/s | -48.2°C | 0% | 20.5hPa | 2.7V | 03:08:14 | 02:48:32 | 00:00:00 | |
| HSKMA3-T | 2026-09-05 12:39:11 | 52.34913 | 11.87028 | 13° | 11km/h | 26836m | -27.2m/s | -48°C | 0% | 20.5hPa | 2.7V | 03:08:14 | 02:48:33 | 00:00:00 | |
| DD8BA-10 | 2026-09-05 12:39:10 | 52.34910 | 11.87027 | 30° | 15km/h | 26864m | -27.8m/s | -48.1°C | 2.7% | 20.4hPa | 2.7V | 00:00:00 | 00:00:00 | 00:00:00 | |
| DO2SHX-10 | 2026-09-05 12:39:09 | 52.34908 | 11.87023 | 53° | 16km/h | 26892m | -29.1m/s | -48.2°C | 2.8% | 20.3hPa | 2.7V | 00:00:00 | 02:48:31 | 00:00:00 | |
| DB0NH | 2026-09-05 12:39:08 | 52.34906 | 11.87018 | 60° | 20km/h | 26920m | -28.7m/s | -48.1°C | 2.7% | 20.2hPa | 2.7V | 00:00:00 | 02:48:30 | 00:00:00 | |
| DB0ND-19 | 2026-09-05 12:39:07 | 52.34905 | 11.87013 | 65° | 16km/h | 26948m | -28.0m/s | -48.2°C | 0.5% | 20.1hPa | 2.7V | 00:00:00 | 00:00:00 | 00:00:00 | |
| DL1XH1-15 | 2026-09-05 12:39:06 | 52.34894 | 11.86978 | 47° | 15km/h | 27108m | -26.7m/s | -48.6°C | 2.9% | 19.6hPa | 2.7V | 03:08:09 | 02:48:23 | 00:00:00 | |
| DF8AY | 2026-09-05 12:39:04 | 52.34899 | 11.86993 | 63° | 16km/h | 27029m | -27m/s | -48.5°C | 0% | 19.9hPa | 2.7V | 03:08:14 | 02:48:26 | 00:00:00 | |
| DM0DOS-11 | 2026-09-05 12:39:04 | 52.34898 | 11.86987 | 61° | 15km/h | 27055m | -25.4m/s | -48.5°C | 2.9% | 19.8hPa | 2.6V | 03:08:07 | 02:48:25 | 00:00:00 | |
| AA1-15 | 2026-09-05 12:39:01 | 52.34894 | 11.86978 | 48° | 15km/h | 27108m | -26.7m/s | -48.6°C | 0% | 19.6hPa | 2.7V | 03:08:14 | 02:48:23 | 00:00:00 | |
| DL1XH-west | 2026-09-05 12:39:00 | 52.34891 | 11.86974 | 36° | 15km/h | 27135m | -28.1m/s | -48.5°C | 0% | 19.6hPa | 2.7V | 03:08:14 | 02:48:22 | 00:00:00 | |
| TFSTFS | 2026-09-05 12:39:00 | 52.34892 | 11.86974 | 37° | 15km/h | 27135m | -28.1m/s | -48.5°C | 0.6% | 19.6hPa | 2.6V | 00:00:00 | 00:00:00 | 00:00:00 | |
| DL1XH-15 | 2026-09-05 12:38:59 | 52.34881 | 11.86966 | 27° | 18km/h | 27221m | -27.5m/s | -48.6°C | 3% | 19.3hPa | 2.6V | 03:08:13 | 02:48:19 | 00:00:00 | |
| DM0DOS-11 | 2026-09-05 12:38:58 | 52.34864 | 11.86955 | 21° | 20km/h | 27335m | -28.1m/s | -48.9°C | 3.1% | 19hPa | 2.6V | 03:08:17 | 02:48:15 | 00:00:00 | |
| DO3MHA-11 | 2026-09-05 12:38:58 | 52.34885 | 11.86969 | 21° | 13km/h | 27193m | -29.0m/s | -48.5°C | 2.9% | 19.4hPa | 2.6V | 00:00:00 | 02:48:20 | 00:00:00 | |
| DL1NUX | 2026-09-05 12:38:57 | 52.34873 | 11.86960 | 21° | 18km/h | 27278m | -29.6m/s | -48.9°C | 3.1% | 19.2hPa | 2.7V | 03:08:15 | 02:48:17 | 00:00:00 | |
| DL1XH1-15 | 2026-09-05 12:38:57 | 52.34856 | 11.86949 | 19° | 18km/h | 27391m | -28.4m/s | -48.9°C | 3.1% | 18.8hPa | 2.7V | 03:08:19 | 02:48:13 | 00:00:00 | |
| DF8AY | 2026-09-05 12:38:53 | 52.34845 | 11.86938 | 50° | 18km/h | 27473m | -26.5m/s | -48.6°C | 0% | 18.6hPa | 2.6V | 03:09:05 | 02:48:10 | 00:00:00 | |
| AA1-15 | 2026-09-05 12:38:51 | 52.34856 | 11.86949 | 20° | 18km/h | 27391m | -28.4m/s | -48.9°C | 0% | 18.8hPa | 2.7V | 03:09:05 | 02:48:13 | 00:00:00 | |
| DL1ZP-14 | 2026-09-05 12:38:51 | 52.34852 | 11.86947 | 24° | 16km/h | 27419m | -27.7m/s | -48.7°C | 0.6% | 18.8hPa | 2.7V | 00:00:00 | 00:00:00 | 00:00:00 | |
| DD8BA-10 | 2026-09-05 12:38:50 | 52.34851 | 11.86947 | 25° | 24km/h | 27419m | -27.6m/s | -48.7°C | 3.1% | 18.7hPa | 2.7V | 00:00:00 | 00:00:00 | 00:00:00 | |
| DL1XH-15 | 2026-09-05 12:38:49 | 52.34843 | 11.86932 | 70° | 16km/h | 27500m | -27.1m/s | -48.5°C | 3.1% | 18.5hPa | 2.6V | 03:08:23 | 02:48:09 | 00:00:00 | |
| HSKMA3-T | 2026-09-05 12:38:49 | 52.34848 | 11.86943 | 44° | 16km/h | 27446m | -28m/s | -48.6°C | 0% | 18.7hPa | 2.7V | 03:09:05 | 02:48:11 | 00:00:00 | |
| EDDB2-12 | 2026-09-05 12:38:47 | 52.34842 | 11.86925 | 79° | 20km/h | 27525m | -25.6m/s | -48.3°C | 0.5% | 18.5hPa | 2.7V | 00:00:00 | 00:00:00 | 00:00:00 | |
| DL1XH1-15 | 2026-09-05 12:38:46 | 52.34843 | 11.86870 | 94° | 29km/h | 27657m | -28.6m/s | -47.5°C | 2.8% | 18.1hPa | 2.7V | 03:08:29 | 02:48:03 | 00:00:00 | |
| DF8AY | 2026-09-05 12:38:42 | 52.34842 | 11.86882 | 95° | 31km/h | 27629m | -27.7m/s | -47.5°C | 0% | 18.2hPa | 2.6V | 03:09:05 | 02:48:04 | 00:00:00 | |
| AA1-15 | 2026-09-05 12:38:40 | 52.34843 | 11.86858 | 94° | 26km/h | 27686m | -29.6m/s | -47.5°C | 0% | 18hPa | 2.7V | 03:09:05 | 02:48:02 | 00:00:00 | |
| DL1XH-15 | 2026-09-05 12:38:39 | 52.34845 | 11.86830 | 94° | 18km/h | 27773m | -29.6m/s | -46.9°C | 2.7% | 17.8hPa | 2.6V | 03:08:33 | 02:47:59 | 00:00:00 | |
| HSKMA3-T | 2026-09-05 12:38:39 | 52.34844 | 11.86839 | 94° | 22km/h | 27744m | -28.8m/s | -47.1°C | 0% | 17.9hPa | 2.6V | 03:09:05 | 02:48:00 | 00:00:00 | |
| DB0NH | 2026-09-05 12:38:38 | 52.34844 | 11.86839 | 95° | 18km/h | 27744m | -28.7m/s | -47.1°C | 2.8% | 17.8hPa | 2.6V | 00:00:00 | 02:48:00 | 00:00:00 | |
| DL1XH1-15 | 2026-09-05 12:38:36 | 52.34853 | 11.86787 | 112° | 24km/h | 27944m | -29.3m/s | -47.1°C | 2.8% | 17.4hPa | 2.7V | 03:08:39 | 02:47:53 | 00:00:00 | |
| DF8AY | 2026-09-05 12:38:32 | 52.34865 | 11.86750 | 120° | 26km/h | 28060m | -31.3m/s | -47°C | 0% | 17hPa | 2.6V | 03:09:05 | 02:47:49 | 00:00:00 | |
| DJ8HS-15 | 2026-09-05 12:38:32 | 52.34851 | 11.86795 | 114° | 20km/h | 27916m | -28.7m/s | -46.9°C | 2.7% | 17.4hPa | 2.7V | 00:00:00 | 02:47:54 | 00:00:00 | |
| DL1NUX | 2026-09-05 12:38:30 | 52.34872 | 11.86732 | 130° | 22km/h | 28121m | -31.3m/s | -46.9°C | 2.7% | 16.9hPa | 2.7V | 03:08:45 | 02:47:47 | 00:00:00 | |
| DJ2DS-15 | 2026-09-05 12:38:30 | 52.34858 | 11.86768 | 120° | 24km/h | 28002m | -29.2m/s | -47.1°C | 0.5% | 17.2hPa | 2.6V | 00:00:00 | 00:00:00 | 00:00:00 | |
| DL1XH-15 | 2026-09-05 12:38:29 | 52.34865 | 11.86750 | 119° | 26km/h | 28060m | -31.3m/s | -47°C | 2.7% | 17hPa | 2.6V | 03:08:43 | 02:47:49 | 00:00:00 | |
| AA1-15 | 2026-09-05 12:38:29 | 52.34858 | 11.86768 | 120° | 24km/h | 28001m | -29.2m/s | -47.1°C | 0% | 17.2hPa | 2.7V | 03:09:05 | 02:47:51 | 00:00:00 | |
| HSKMA3-T | 2026-09-05 12:38:28 | 52.34861 | 11.86759 | 120° | 26km/h | 28030m | -28.6m/s | -47.1°C | 0% | 17.1hPa | 2.6V | 03:09:05 | 02:47:50 | 00:00:00 | |
| DC4HF-4 | 2026-09-05 12:38:28 | 52.34865 | 11.86750 | 119° | 26km/h | 28060m | -31.3m/s | -47.0°C | 0.5% | 17.0hPa | 2.7V | 00:00:00 | 00:00:00 | 00:00:00 | |
| DO2SHX-10 | 2026-09-05 12:38:27 | 52.34865 | 11.86750 | 120° | 26km/h | 28060m | -31.2m/s | -47.0°C | 2.7% | 17.0hPa | 2.7V | 00:00:00 | 02:47:49 | 00:00:00 | |
| DL1XH1-15 | 2026-09-05 12:38:26 | 52.34886 | 11.86709 | 141° | 16km/h | 28246m | -31.1m/s | -46.6°C | 2.7% | 16.6hPa | 2.7V | 03:08:49 | 02:47:43 | 00:00:00 | |
| DL4XJ-10 | 2026-09-05 12:38:26 | 52.34868 | 11.86740 | 122° | 15km/h | 28092m | -30.1m/s | -47.1°C | 0% | 0hPa | 2.7V | 00:00:00 | 00:00:00 | 00:00:00 | |
| DL4BBY-15 | 2026-09-05 12:38:25 | 52.34872 | 11.86732 | 131° | 15km/h | 28121m | -31.3m/s | -47.0°C | 0% | 0hPa | 2.7V | 00:00:00 | 00:00:00 | 00:00:00 | |
| SMARD9-10 | 2026-09-05 12:38:24 | 52.34876 | 11.86725 | 133° | 20km/h | 28153m | -30.9m/s | -46.6°C | 0.5% | 16.8hPa | 2.7V | 00:00:00 | 00:00:00 | 00:00:00 | |
| NBG1-10 | 2026-09-05 12:38:23 | 52.34879 | 11.86719 | 136° | 13km/h | 28183m | -31.4m/s | -46.5°C | 2.6% | 16.7hPa | 2.7V | 00:00:00 | 02:47:45 | 00:00:00 | |
| EDDB2-11 | 2026-09-05 12:38:22 | 52.34886 | 11.86709 | 141° | 15km/h | 28246m | -31.2m/s | -46.7°C | 0.5% | 16.6hPa | 2.7V | 00:00:00 | 00:00:00 | 00:00:00 | |
| S3001 | 2026-09-05 12:38:21 | 52.34889 | 11.86705 | 146° | 16km/h | 28276m | -30.8m/s | -46.7°C | 0.5% | 16.5hPa | 2.7V | 00:00:00 | 00:00:00 | 00:00:00 | |
| DL1NUX | 2026-09-05 12:38:20 | 52.34907 | 11.86687 | 146° | 13km/h | 28431m | -30.5m/s | -47°C | 2.7% | 16.1hPa | 2.7V | 03:08:55 | 02:47:37 | 00:00:00 | |
| DL1XH-15 | 2026-09-05 12:38:20 | 52.34900 | 11.86693 | 155° | 16km/h | 28369m | -31.3m/s | -46.9°C | 2.7% | 16.3hPa | 2.6V | 03:08:53 | 02:47:39 | 00:00:00 | |
| AA1-15 | 2026-09-05 12:38:19 | 52.34893 | 11.86701 | 143° | 16km/h | 28307m | -32.3m/s | -46.7°C | 0% | 16.4hPa | 2.7V | 03:09:05 | 02:47:41 | 00:00:00 | |
| DF8AY | 2026-09-05 12:38:18 | 52.34897 | 11.86696 | 144° | 18km/h | 28338m | -31.5m/s | -46.9°C | 0% | 16.4hPa | 2.6V | 03:09:05 | 02:47:40 | 00:00:00 | |
| HSKMA3-T | 2026-09-05 12:38:17 | 52.34900 | 11.86693 | 155° | 16km/h | 28369m | -31.3m/s | -46.9°C | 0% | 16.3hPa | 2.6V | 03:09:05 | 02:47:39 | 00:00:00 | |
| DB0UT-7 | 2026-09-05 12:38:17 | 52.34900 | 11.86693 | 156° | 11km/h | 28370m | -31.2m/s | -46.8°C | 2.7% | 16.2hPa | 2.7V | 03:08:00 | 02:47:39 | 00:00:00 | |
| DL1XH1-15 | 2026-09-05 12:38:16 | 52.34916 | 11.86674 | 123° | 11km/h | 28551m | -28.9m/s | -46.8°C | 2.7% | 15.8hPa | 2.7V | 03:08:59 | 02:47:33 | 00:00:00 | |
| EDDB2-12 | 2026-09-05 12:38:16 | 52.34907 | 11.86687 | 146° | 11km/h | 28431m | -30.5m/s | -47.0°C | 0.5% | 16.1hPa | 2.6V | 00:00:00 | 00:00:00 | 00:00:00 | |
| DO2SHX-10 | 2026-09-05 12:38:15 | 52.34907 | 11.86687 | 147° | 13km/h | 28431m | -30.4m/s | -46.9°C | 2.7% | 16.1hPa | 2.6V | 00:00:00 | 02:47:37 | 00:00:00 | |
| DF7ER-10 | 2026-09-05 12:38:14 | 52.34909 | 11.86684 | 144° | 13km/h | 28461m | -29.8m/s | -47.0°C | 0.5% | 16.0hPa | 2.6V | 03:09:00 | 00:00:00 | 00:00:00 | |
| DF8AY-15 | 2026-09-05 12:38:13 | 52.34912 | 11.86681 | 137° | 11km/h | 28491m | -30.5m/s | -46.9°C | 2.7% | 15.9hPa | 2.6V | 00:00:00 | 02:47:35 | 00:00:00 | |
| DO2SHX-10 | 2026-09-05 12:38:12 | 52.34914 | 11.86677 | 130° | 11km/h | 28522m | -30.8m/s | -46.8°C | 2.7% | 15.8hPa | 2.6V | 00:00:00 | 02:47:34 | 00:00:00 | |
| DB0DAN | 2026-09-05 12:38:10 | 52.34917 | 11.86670 | 113° | 9km/h | 28578m | -27.1m/s | -46.7°C | 0.5% | 15.73hPa | 2.7V | 00:00:00 | 00:00:00 | 00:00:00 | |
| DL1NUX | 2026-09-05 12:38:10 | 52.34920 | 11.86649 | 90° | 11km/h | 28722m | -31.3m/s | -46.4°C | 2.7% | 15.4hPa | 2.7V | 03:09:05 | 02:47:27 | 00:00:00 | |
| DD8BA-10 | 2026-09-05 12:38:10 | 52.34917 | 11.86670 | 114° | 13km/h | 28579m | -27.1m/s | -46.7°C | 2.8% | 15.7hPa | 2.6V | 00:00:00 | 00:00:00 | 00:00:00 | |
| DL1XH-15 | 2026-09-05 12:38:09 | 52.34919 | 11.86659 | 98° | 11km/h | 28663m | -29.2m/s | -46.6°C | 2.7% | 15.5hPa | 2.6V | 03:09:03 | 02:47:29 | 00:00:00 | |
| DL1XH-west | 2026-09-05 12:38:08 | 52.34919 | 11.86663 | 104° | 11km/h | 28634m | -28.5m/s | -46.6°C | 0% | 15.6hPa | 2.6V | 03:09:05 | 02:47:30 | 00:00:00 | |
| DF8AY | 2026-09-05 12:38:07 | 52.34920 | 11.86659 | 99° | 11km/h | 28663m | -29.2m/s | -46.6°C | 0% | 15.6hPa | 2.6V | 03:09:05 | 02:47:29 | 00:00:00 | |
| DM0DOS-11 | 2026-09-05 12:38:06 | 52.34919 | 11.86639 | 79° | 11km/h | 28783m | -30.4m/s | -46.1°C | 2.6% | 15.3hPa | 2.6V | 03:09:07 | 02:47:25 | 00:00:00 | |
| HSKMA3-T | 2026-09-05 12:38:06 | 52.34920 | 11.86654 | 90° | 13km/h | 28692m | -30.1m/s | -46.5°C | 0% | 15.5hPa | 2.7V | 03:09:05 | 02:47:28 | 00:00:00 | |
| DO2SHX-10 | 2026-09-05 12:38:06 | 52.34920 | 11.86654 | 91° | 13km/h | 28692m | -30.1m/s | -46.4°C | 2.7% | 15.5hPa | 2.6V | 03:09:00 | 02:47:28 | 00:00:00 | |
| DB0ND-19 | 2026-09-05 12:38:05 | 52.34920 | 11.86649 | 90° | 11km/h | 28722m | -31.3m/s | -46.4°C | 0.5% | 15.4hPa | 2.6V | 00:00:00 | 00:00:00 | 00:00:00 | |
| DO3MHA-11 | 2026-09-05 12:38:04 | 52.34919 | 11.86644 | 75° | 13km/h | 28753m | -30.8m/s | -46.2°C | 2.6% | 15.3hPa | 2.6V | 00:00:00 | 02:47:26 | 00:00:00 | |
| DO2SHX-10 | 2026-09-05 12:38:03 | 52.34919 | 11.86640 | 80° | 13km/h | 28783m | -30.4m/s | -46.0°C | 2.6% | 15.2hPa | 2.6V | 00:00:00 | 02:47:25 | 00:00:00 | |
| DL1XH-15 | 2026-09-05 12:38:02 | 52.34912 | 11.86611 | 70° | 13km/h | 28971m | -31.3m/s | -46°C | 2.6% | 14.9hPa | 2.6V | 03:09:13 | 02:47:19 | 00:00:00 | |
| DL1LOL-11 | 2026-09-05 12:38:01 | 52.34918 | 11.86634 | 72° | 13km/h | 28814m | -31.3m/s | -45.9°C | 0.5% | 15.2hPa | 2.7V | 00:00:00 | 00:00:00 | 00:00:00 | |
| DL1NUX | 2026-09-05 12:38:00 | 52.34911 | 11.86602 | 82° | 9km/h | 29034m | -31.4m/s | -45.9°C | 2.5% | 14.7hPa | 2.7V | 03:09:15 | 02:47:17 | 00:00:00 | |
| AA1-15 | 2026-09-05 12:37:57 | 52.34912 | 11.86611 | 70° | 13km/h | 28971m | -31.3m/s | -46°C | 0% | 14.9hPa | 2.6V | 03:09:56 | 02:47:19 | 00:00:00 | |
| HSKMA3-T | 2026-09-05 12:37:56 | 52.34911 | 11.86606 | 83° | 11km/h | 29002m | -32.2m/s | -45.9°C | 0% | 14.8hPa | 2.7V | 03:09:56 | 02:47:18 | 00:00:00 | |
| DL1XH1-15 | 2026-09-05 12:37:56 | 52.34909 | 11.86586 | 62° | 5km/h | 29176m | -28m/s | -46.2°C | 2.8% | 14.4hPa | 2.7V | 03:09:20 | 02:47:12 | 00:00:00 | |
| DM0DOS-11 | 2026-09-05 12:37:56 | 52.34910 | 11.86595 | 80° | 11km/h | 29092m | -28.3m/s | -46°C | 2.6% | 14.6hPa | 2.6V | 03:09:17 | 02:47:15 | 00:00:00 | |
| SMARD9-15 | 2026-09-05 12:37:53 | 52.34910 | 11.86591 | 80° | 7km/h | 29120m | -29.4m/s | -46.1°C | 0.5% | 14.5hPa | 2.7V | 00:00:00 | 00:00:00 | 00:00:00 | |
| DJ8HS-15 | 2026-09-05 12:37:52 | 52.34910 | 11.86591 | 81° | 13km/h | 29121m | -29.4m/s | -46.0°C | 2.7% | 14.5hPa | 2.7V | 03:09:00 | 02:47:14 | 00:00:00 | |
| DL1NUX | 2026-09-05 12:37:51 | 52.34900 | 11.86565 | 72° | 13km/h | 29358m | -32.9m/s | -46°C | 2.7% | 14hPa | 2.7V | 03:09:26 | 02:47:06 | 00:00:00 | |
| DL2RXE-15 | 2026-09-05 12:37:50 | 52.34908 | 11.86584 | 56° | 9km/h | 29205m | -29.4m/s | -46.2°C | 0.5% | 14.3hPa | 2.6V | 00:00:00 | 00:00:00 | 00:00:00 | |
| DL1XH-15 | 2026-09-05 12:37:49 | 52.34904 | 11.86578 | 40° | 9km/h | 29265m | -30.2m/s | -46.1°C | 2.8% | 14.2hPa | 2.6V | 03:09:23 | 02:47:09 | 00:00:00 | |
| DL1ZP-14 | 2026-09-05 12:37:49 | 52.34906 | 11.86581 | 45° | 9km/h | 29235m | -31.4m/s | -46.1°C | 0.5% | 14.3hPa | 2.7V | 00:00:00 | 00:00:00 | 00:00:00 | |
| DM0DOS-11 | 2026-09-05 12:37:48 | 52.34899 | 11.86559 | 80° | 15km/h | 29391m | -32.5m/s | -45.8°C | 2.7% | 14hPa | 2.7V | 03:09:27 | 02:47:05 | 00:00:00 | |
| AA1-15 | 2026-09-05 12:37:46 | 52.34901 | 11.86570 | 60° | 13km/h | 29326m | -32.4m/s | -46.1°C | 0% | 14.1hPa | 2.6V | 03:09:56 | 02:47:07 | 00:00:00 | |
| HSKMA3-T | 2026-09-05 12:37:46 | 52.34900 | 11.86565 | 73° | 13km/h | 29358m | -32.9m/s | -46°C | 0% | 14hPa | 2.7V | 03:09:56 | 02:47:06 | 00:00:00 | |
| DL1XH1-15 | 2026-09-05 12:37:45 | 52.34903 | 11.86541 | 128° | 18km/h | 29486m | -32.1m/s | -45.4°C | 2.6% | 13.8hPa | 2.6V | 03:09:30 | 02:47:02 | 00:00:00 | |
| DO3MHA-11 | 2026-09-05 12:37:45 | 52.34900 | 11.86565 | 73° | 16km/h | 29359m | -32.9m/s | -46.0°C | 2.7% | 14.0hPa | 2.7V | 00:00:00 | 02:47:06 | 00:00:00 | |
| TFSTFS | 2026-09-05 12:37:44 | 52.34900 | 11.86565 | 74° | 13km/h | 29359m | -32.9m/s | -46.0°C | 0.5% | 14.0hPa | 2.7V | 00:00:00 | 00:00:00 | 00:00:00 | |
| DF7ER-10 | 2026-09-05 12:37:43 | 52.34899 | 11.86559 | 81° | 15km/h | 29391m | -32.5m/s | -45.8°C | 0.5% | 14.0hPa | 2.7V | 03:09:00 | 00:00:00 | 00:00:00 | |
| DO2SHX-10 | 2026-09-05 12:37:42 | 52.34899 | 11.86553 | 95° | 16km/h | 29423m | -31.7m/s | -45.7°C | 2.7% | 13.8hPa | 2.7V | 03:09:00 | 02:47:04 | 00:00:00 | |
| DD8BA-10 | 2026-09-05 12:37:40 | 52.34903 | 11.86541 | 129° | 16km/h | 29487m | -32.0m/s | -45.4°C | 2.6% | 13.7hPa | 2.7V | 03:09:00 | 00:00:00 | 00:00:00 | |
| DL1XH-15 | 2026-09-05 12:37:39 | 52.34914 | 11.86526 | 147° | 18km/h | 29579m | -31.5m/s | -45.1°C | 2.5% | 13.6hPa | 2.7V | 03:09:33 | 02:46:59 | 00:00:00 | |
| DO2SHX-10 | 2026-09-05 12:37:39 | 52.34906 | 11.86536 | 144° | 18km/h | 29517m | -31.2m/s | -45.1°C | 2.5% | 13.7hPa | 2.7V | 00:00:00 | 02:47:01 | 00:00:00 | |
| DB0NH | 2026-09-05 12:37:38 | 52.34910 | 11.86531 | 140° | 18km/h | 29549m | -31.0m/s | -45.1°C | 2.5% | 13.6hPa | 2.7V | 00:00:00 | 02:47:00 | 00:00:00 | |
| DM0DOS-11 | 2026-09-05 12:37:37 | 52.34929 | 11.86511 | 145° | 13km/h | 29705m | -32m/s | -43.8°C | 2.2% | 13.3hPa | 2.7V | 03:09:37 | 02:46:55 | 00:00:00 | |
| DF8AY | 2026-09-05 12:37:35 | 52.34929 | 11.86511 | 145° | 13km/h | 29705m | -32m/s | -43.8°C | 0% | 13.3hPa | 2.7V | 03:09:56 | 02:46:55 | 00:00:00 | |
| DL1NUX | 2026-09-05 12:37:35 | 52.34925 | 11.86514 | 143° | 16km/h | 29674m | -30.4m/s | -44°C | 2.3% | 13.4hPa | 2.6V | 03:09:36 | 02:46:56 | 00:00:00 | |
| AA1-15 | 2026-09-05 12:37:34 | 52.34926 | 11.86514 | 143° | 16km/h | 29674m | -30.4m/s | -44°C | 0% | 13.4hPa | 2.6V | 03:09:56 | 02:46:56 | 00:00:00 | |
| SONCRA | 2026-09-05 12:37:34 | 52.34929 | 11.86511 | 145° | 11km/h | 29705m | -32.0m/s | -43.8°C | 0.4% | 13.3hPa | 2.6V | 00:00:00 | 00:00:00 | 00:00:00 | |
| DO2SHX-10 | 2026-09-05 12:37:33 | 52.34929 | 11.86510 | 146° | 13km/h | 29705m | -31.9m/s | -43.8°C | 2.2% | 13.3hPa | 2.6V | 00:00:00 | 02:46:55 | 00:00:00 | |
| DJ8HS-15 | 2026-09-05 12:37:32 | 52.34931 | 11.86507 | 142° | 22km/h | 29737m | -32.2m/s | -43.7°C | 2.2% | 13.2hPa | 2.6V | 00:00:00 | 02:46:54 | 00:00:00 | |
| DO2SHX-10 | 2026-09-05 12:37:30 | 52.34934 | 11.86498 | 114° | 15km/h | 29801m | -33.9m/s | -43.9°C | 2.3% | 13.1hPa | 2.6V | 03:09:00 | 02:46:52 | 00:00:00 | |
| DL1NUX | 2026-09-05 12:37:29 | 52.34938 | 11.86455 | 110° | 22km/h | 29996m | -31.2m/s | -44.8°C | 2.5% | 12.8hPa | 2.6V | 03:09:46 | 02:46:46 | 00:00:00 | |
| DL1XH-15 | 2026-09-05 12:37:28 | 52.34935 | 11.86480 | 94° | 18km/h | 29899m | -31.1m/s | -44.3°C | 2.3% | 12.9hPa | 2.7V | 03:09:43 | 02:46:49 | 00:00:00 | |
| HSKMA3-T | 2026-09-05 12:37:25 | 52.34937 | 11.86463 | 102° | 22km/h | 29965m | -32.9m/s | -44.6°C | 0% | 12.8hPa | 2.6V | 03:09:56 | 02:46:47 | 00:00:00 | |
| DM0DOS-11 | 2026-09-05 12:37:25 | 52.34940 | 11.86446 | 113° | 22km/h | 30026m | -28.9m/s | -44.9°C | 2.5% | 12.7hPa | 2.7V | 03:09:47 | 02:46:45 | 00:00:00 | |
| AA1-15 | 2026-09-05 12:37:23 | 52.34940 | 11.86446 | 113° | 22km/h | 30026m | -28.9m/s | -44.9°C | 0% | 12.7hPa | 2.7V | 03:09:56 | 02:46:45 | 00:00:00 | |
| DF7ER-10 | 2026-09-05 12:37:22 | 52.34943 | 11.86437 | 125° | 29km/h | 30055m | -29.5m/s | -44.8°C | 0.5% | 12.6hPa | 2.6V | 03:09:00 | 00:00:00 | 00:00:00 | |
| DO2SHX-10 | 2026-09-05 12:37:21 | 52.34948 | 11.86427 | 124° | 31km/h | 30084m | -30.4m/s | -44.7°C | 2.4% | 12.5hPa | 2.6V | 00:00:00 | 02:46:43 | 00:00:00 | |
| TFSTFS | 2026-09-05 12:37:20 | 52.34952 | 11.86417 | 127° | 29km/h | 30114m | -29.2m/s | -44.7°C | 0.4% | 12.5hPa | 2.6V | 00:00:00 | 00:00:00 | 00:00:00 | |
| DL1NUX | 2026-09-05 12:37:19 | 52.34981 | 11.86374 | 151° | 18km/h | 30304m | -33m/s | -44.3°C | 2.4% | 12.2hPa | 2.6V | 03:09:56 | 02:46:36 | 00:00:00 | |
| S3001 | 2026-09-05 12:37:19 | 52.34962 | 11.86398 | 134° | 29km/h | 30174m | -32.0m/s | -44.7°C | 0.4% | 12.4hPa | 2.7V | 00:00:00 | 00:00:00 | 00:00:00 | |
| DO2SHX-10 | 2026-09-05 12:37:18 | 52.34962 | 11.86398 | 135° | 26km/h | 30174m | -31.9m/s | -44.6°C | 2.4% | 12.3hPa | 2.7V | 03:09:00 | 02:46:40 | 00:00:00 | |
| DM0DOS-11 | 2026-09-05 12:37:17 | 52.34985 | 11.86370 | 149° | 15km/h | 30336m | -32.8m/s | -44.4°C | 2.3% | 12.1hPa | 2.7V | 03:09:57 | 02:46:35 | 00:00:00 | |
| DF8AY | 2026-09-05 12:37:14 | 52.34981 | 11.86374 | 152° | 18km/h | 30304m | -33m/s | -44.3°C | 0% | 12.2hPa | 2.6V | 03:09:56 | 02:46:36 | 00:00:00 | |
| AA1-15 | 2026-09-05 12:37:12 | 52.34988 | 11.86368 | 158° | 13km/h | 30369m | -32.4m/s | -44.4°C | 0% | 12.1hPa | 2.7V | 03:10:47 | 02:46:34 | 00:00:00 | |
| DC6BW-12 | 2026-09-05 12:37:12 | 52.34988 | 11.86368 | 159° | 13km/h | 30370m | -32.4m/s | -44.4°C | 0.4% | 12.1hPa | 2.6V | 03:10:00 | 00:00:00 | 00:00:00 | |
| DF7ER-10 | 2026-09-05 12:37:11 | 52.34991 | 11.86366 | 161° | 13km/h | 30401m | -30.6m/s | -44.5°C | 0.4% | 12.0hPa | 2.6V | 03:10:00 | 00:00:00 | 00:00:00 | |
| DD8BA-10 | 2026-09-05 12:37:10 | 52.34993 | 11.86365 | 148° | 7km/h | 30431m | -31.1m/s | -44.5°C | 2.4% | 11.9hPa | 2.6V | 00:00:00 | 00:00:00 | 00:00:00 | |
| DL1NUX | 2026-09-05 12:37:09 | 52.34996 | 11.86359 | 14° | 5km/h | 30633m | -33.4m/s | -45°C | 2.5% | 11.6hPa | 2.6V | 03:10:06 | 02:46:26 | 00:00:00 | |
| DO2SHX-10 | 2026-09-05 12:37:09 | 52.34995 | 11.86363 | 137° | 5km/h | 30464m | -33.1m/s | -44.5°C | 2.4% | 11.8hPa | 2.6V | 00:00:00 | 02:46:31 | 00:00:00 | |
| DB0NH | 2026-09-05 12:37:08 | 52.34996 | 11.86362 | 156° | 18km/h | 30496m | -33.0m/s | -44.6°C | 2.4% | 11.8hPa | 2.7V | 00:00:00 | 02:46:30 | 00:00:00 | |
| DO2SHX-10 | 2026-09-05 12:37:06 | 52.34997 | 11.86360 | 119° | 4km/h | 30566m | -34.8m/s | -44.7°C | 2.4% | 11.7hPa | 2.7V | 03:10:00 | 02:46:28 | 00:00:00 | |
| DL1XH1-15 | 2026-09-05 12:37:05 | 52.34982 | 11.86361 | 6° | 20km/h | 30768m | -34.8m/s | -45.4°C | 2.7% | 11.4hPa | 2.7V | 03:10:10 | 02:46:22 | 00:00:00 | |
| HSKMA3-T | 2026-09-05 12:37:04 | 52.34996 | 11.86359 | 14° | 5km/h | 30633m | -33.4m/s | -45°C | 0% | 11.6hPa | 2.6V | 03:10:47 | 02:46:26 | 00:00:00 | |
| DM0DOS-11 | 2026-09-05 12:37:04 | 52.34994 | 11.86360 | 342° | 11km/h | 30666m | -32.7m/s | -45°C | 2.6% | 11.6hPa | 2.7V | 03:10:07 | 02:46:25 | 00:00:00 | |
| DO3MHA-11 | 2026-09-05 12:37:04 | 52.34996 | 11.86359 | 15° | 18km/h | 30633m | -33.3m/s | -44.9°C | 2.5% | 11.5hPa | 2.6V | 00:00:00 | 02:46:26 | 00:00:00 | |
| DL1XH-15 | 2026-09-05 12:37:03 | 52.34967 | 11.86354 | 26° | 24km/h | 30870m | -33.9m/s | -45.3°C | 2.7% | 11.2hPa | 2.6V | 03:10:13 | 02:46:19 | 00:00:00 | |
| AA1-15 | 2026-09-05 12:37:02 | 52.34991 | 11.86361 | 356° | 15km/h | 30700m | -35.4m/s | -45.1°C | 0% | 11.5hPa | 2.7V | 03:10:47 | 02:46:24 | 00:00:00 | |
| DL1XH-west | 2026-09-05 12:37:01 | 52.34987 | 11.86361 | 358° | 18km/h | 30734m | -32.9m/s | -45.2°C | 0% | 11.4hPa | 2.7V | 03:10:47 | 02:46:23 | 00:00:00 | |
| TFSTFS | 2026-09-05 12:37:01 | 52.34987 | 11.86361 | 359° | 18km/h | 30734m | -32.9m/s | -45.2°C | 0.5% | 11.4hPa | 2.7V | 03:10:00 | 00:00:00 | 00:00:00 | |
| DO2SHX-10 | 2026-09-05 12:37:00 | 52.34982 | 11.86361 | 7° | 22km/h | 30768m | -34.7m/s | -45.3°C | 2.7% | 11.3hPa | 2.7V | 00:00:00 | 02:46:22 | 00:00:00 | |
| DL1NUX | 2026-09-05 12:36:59 | 52.34954 | 11.86337 | 54° | 26km/h | 30971m | -33.2m/s | -44.3°C | 2.5% | 11hPa | 2.7V | 03:10:16 | 02:46:16 | 00:00:00 | |
| GOEST3-10 | 2026-09-05 12:36:58 | 52.34972 | 11.86358 | 19° | 22km/h | 30837m | -34.4m/s | -45.4°C | 2.7% | 11.2hPa | 2.7V | 00:00:00 | 00:00:00 | 00:00:00 | |
| DM0DOS-11 | 2026-09-05 12:36:57 | 52.34951 | 11.86328 | 60° | 26km/h | 31005m | -33.9m/s | -44.1°C | 2.5% | 11hPa | 2.7V | 03:10:17 | 02:46:15 | 00:00:00 | |
| BUE01 | 2026-09-05 12:36:57 | 52.34962 | 11.86350 | 36° | 20km/h | 30904m | -34.6m/s | -45.0°C | 0.4% | 11.1hPa | 2.7V | 00:00:00 | 00:00:00 | 00:00:00 | |
| DL1XH1-15 | 2026-09-05 12:36:55 | 52.34944 | 11.86300 | 72° | 24km/h | 31109m | -33.4m/s | -44°C | 2.4% | 10.8hPa | 2.7V | 03:10:20 | 02:46:12 | 00:00:00 | |
| HSKMA3-T | 2026-09-05 12:36:54 | 52.34954 | 11.86337 | 55° | 26km/h | 30971m | -33.3m/s | -44.3°C | 0% | 11.1hPa | 2.7V | 03:10:47 | 02:46:16 | 00:00:00 | |
| DO2SHX-10 | 2026-09-05 12:36:54 | 52.34954 | 11.86337 | 55° | 26km/h | 30972m | -33.2m/s | -44.2°C | 2.5% | 11.0hPa | 2.7V | 03:10:00 | 02:46:16 | 00:00:00 | |
| DF8AY-15 | 2026-09-05 12:36:53 | 52.34951 | 11.86328 | 61° | 22km/h | 31005m | -33.8m/s | -44.0°C | 2.5% | 10.9hPa | 2.7V | 00:00:00 | 02:46:15 | 00:00:00 | |
| DL1XH-15 | 2026-09-05 12:36:52 | 52.34940 | 11.86273 | 80° | 24km/h | 31210m | -34.1m/s | -43.9°C | 2.4% | 10.7hPa | 2.6V | 03:10:23 | 02:46:09 | 00:00:00 | |
| DF8AY | 2026-09-05 12:36:51 | 52.34946 | 11.86310 | 70° | 27km/h | 31075m | -35.2m/s | -43.9°C | 0% | 10.9hPa | 2.6V | 03:10:47 | 02:46:13 | 00:00:00 | |
| DL1XH-west | 2026-09-05 12:36:50 | 52.34944 | 11.86300 | 72° | 24km/h | 31109m | -33.4m/s | -44°C | 0% | 10.8hPa | 2.7V | 03:10:47 | 02:46:12 | 00:00:00 | |
| S3001 | 2026-09-05 12:36:48 | 52.34940 | 11.86273 | 80° | 22km/h | 31210m | -34.1m/s | -43.9°C | 0.4% | 10.7hPa | 2.6V | 00:00:00 | 00:00:00 | 00:00:00 | |
| SONDE2-11 | 2026-09-05 12:36:47 | 52.34940 | 11.86273 | 80° | 22km/h | 31210m | -34.1m/s | -43.9°C | 0.4% | 10.7hPa | 2.6V | 00:00:00 | 00:00:00 | 00:00:00 | |
| DL1ZP-14 | 2026-09-05 12:36:46 | 52.34940 | 11.86263 | 84° | 22km/h | 31244m | -34.5m/s | -43.9°C | 0.4% | 10.6hPa | 2.6V | 00:00:00 | 00:00:00 | 00:00:00 | |
| DL1XH1-15 | 2026-09-05 12:36:45 | 52.34934 | 11.86209 | 79° | 20km/h | 31447m | -34.2m/s | -43°C | 2.3% | 10.3hPa | 2.7V | 03:10:30 | 02:46:02 | 00:00:00 | |
| DO2SHX-10 | 2026-09-05 12:36:45 | 52.34939 | 11.86254 | 86° | 22km/h | 31279m | -35.9m/s | -43.7°C | 2.4% | 10.5hPa | 2.7V | 00:00:00 | 02:46:07 | 00:00:00 | |
| DM0DOS-11 | 2026-09-05 12:36:44 | 52.34938 | 11.86236 | 78° | 22km/h | 31348m | -33.5m/s | -43.3°C | 2.3% | 10.4hPa | 2.7V | 03:10:27 | 02:46:05 | 00:00:00 | |
| HSKMA3-T | 2026-09-05 12:36:43 | 52.34938 | 11.86236 | 78° | 22km/h | 31348m | -33.5m/s | -43.3°C | 0% | 10.4hPa | 2.7V | 03:10:47 | 02:46:05 | 00:00:00 | |
| DL1XH-west | 2026-09-05 12:36:40 | 52.34933 | 11.86201 | 71° | 22km/h | 31480m | -32.8m/s | -43°C | 0% | 10.2hPa | 2.7V | 03:10:47 | 02:46:01 | 00:00:00 | |
| AA1-15 | 2026-09-05 12:36:40 | 52.34934 | 11.86209 | 80° | 20km/h | 31447m | -34.2m/s | -43°C | 0% | 10.3hPa | 2.7V | 03:10:47 | 02:46:02 | 00:00:00 | |
| DD8BA-10 | 2026-09-05 12:36:40 | 52.34934 | 11.86209 | 80° | 18km/h | 31447m | -34.1m/s | -43.0°C | 2.3% | 10.2hPa | 2.7V | 00:00:00 | 00:00:00 | 00:00:00 | |
| DO2SHX-10 | 2026-09-05 12:36:39 | 52.34933 | 11.86201 | 71° | 20km/h | 31480m | -32.8m/s | -43.0°C | 2.3% | 10.1hPa | 2.7V | 00:00:00 | 02:46:01 | 00:00:00 | |
| DB0NH | 2026-09-05 12:36:38 | 52.34931 | 11.86193 | 79° | 16km/h | 31513m | -33.9m/s | -43.0°C | 2.3% | 10.2hPa | 2.7V | 00:00:00 | 02:46:00 | 00:00:00 | |
| DO2SHX-10 | 2026-09-05 12:36:36 | 52.34930 | 11.86178 | 96° | 16km/h | 31580m | -32.0m/s | -42.9°C | 2.3% | 10.0hPa | 2.7V | 00:00:00 | 02:45:58 | 00:00:00 | |
| DL1XH1-15 | 2026-09-05 12:36:35 | 52.34937 | 11.86139 | 106° | 18km/h | 31780m | -34.4m/s | -42.6°C | 2.3% | 9.8hPa | 2.7V | 03:10:40 | 02:45:52 | 00:00:00 | |
| DO3MHA-11 | 2026-09-05 12:36:34 | 52.34931 | 11.86165 | 107° | 15km/h | 31646m | -32.6m/s | -42.7°C | 2.3% | 9.9hPa | 2.6V | 03:10:00 | 02:45:56 | 00:00:00 | |
| DF8AY-15 | 2026-09-05 12:36:33 | 52.34932 | 11.86158 | 107° | 13km/h | 31679m | -33.5m/s | -42.7°C | 2.3% | 9.9hPa | 2.6V | 03:10:00 | 02:45:55 | 00:00:00 | |
| DL1XH-15 | 2026-09-05 12:36:32 | 52.34941 | 11.86120 | 123° | 15km/h | 31881m | -35.1m/s | -42.4°C | 2.3% | 9.6hPa | 2.6V | 03:10:43 | 02:45:49 | 00:00:00 | |
| HSKMA3-T | 2026-09-05 12:36:32 | 52.34934 | 11.86152 | 108° | 15km/h | 31713m | -34.2m/s | -42.8°C | 0% | 9.9hPa | 2.6V | 03:10:47 | 02:45:54 | 00:00:00 | |
| AA1-15 | 2026-09-05 12:36:30 | 52.34936 | 11.86139 | 106° | 18km/h | 31780m | -34.4m/s | -42.6°C | 0% | 9.8hPa | 2.7V | 03:10:47 | 02:45:52 | 00:00:00 | |
| DL1XH-west | 2026-09-05 12:36:29 | 52.34939 | 11.86125 | 117° | 16km/h | 31848m | -33m/s | -42.6°C | 0% | 9.7hPa | 2.7V | 03:10:47 | 02:45:50 | 00:00:00 | |
| DF8AY | 2026-09-05 12:36:29 | 52.34938 | 11.86132 | 109° | 18km/h | 31814m | -34.1m/s | -42.6°C | 0% | 9.7hPa | 2.7V | 03:10:47 | 02:45:51 | 00:00:00 | |
| DL1NUX | 2026-09-05 12:36:29 | 52.34946 | 11.86112 | 139° | 4km/h | 31987m | -35.9m/s | -42.4°C | 2.3% | 9.5hPa | 2.7V | 03:10:46 | 02:45:46 | 00:00:00 | |
| MECKS9 | 2026-09-05 12:36:29 | 52.34938 | 11.86132 | 110° | 18km/h | 31815m | -34.1m/s | -42.6°C | 0% | 9.7hPa | 2.7V | 00:00:00 | 00:00:00 | 00:00:00 | |
| GOEST3-10 | 2026-09-05 12:36:28 | 52.34939 | 11.86125 | 117° | 11km/h | 31849m | -33.0m/s | -42.5°C | 2.3% | 9.6hPa | 2.7V | 03:10:00 | 00:00:00 | 00:00:00 | |
| DO2SHX-10 | 2026-09-05 12:36:27 | 52.34941 | 11.86119 | 124° | 11km/h | 31882m | -35.1m/s | -42.4°C | 2.3% | 9.6hPa | 2.7V | 00:00:00 | 02:45:49 | 00:00:00 | |
| DL1XH1-15 | 2026-09-05 12:36:25 | 52.34948 | 11.86114 | 355° | 5km/h | 32132m | -35.3m/s | -42°C | 2.2% | 9.3hPa | 2.7V | 03:10:50 | 02:45:42 | 00:00:00 | |
| DO2SHX-10 | 2026-09-05 12:36:24 | 52.34946 | 11.86112 | 140° | 4km/h | 31988m | -35.9m/s | -42.4°C | 2.3% | 9.5hPa | 2.7V | 00:00:00 | 02:45:46 | 00:00:00 | |
| DL1CLM-18 | 2026-09-05 12:36:23 | 52.34947 | 11.86112 | 205° | 7km/h | 32024m | -37.0m/s | -42.3°C | 0.4% | 9.4hPa | 2.6V | 03:10:00 | 00:00:00 | 00:00:00 | |
| DL1XH-15 | 2026-09-05 12:36:22 | 52.34939 | 11.86112 | 17° | 18km/h | 32238m | -36.2m/s | -41.8°C | 2.2% | 9.1hPa | 2.6V | 03:10:53 | 02:45:39 | 00:00:00 | |
| HSKMA3-T | 2026-09-05 12:36:21 | 52.34948 | 11.86113 | 282° | 4km/h | 32097m | -36.3m/s | -42.1°C | 0% | 9.3hPa | 2.6V | 03:11:38 | 02:45:43 | 00:00:00 | |
| AA1-15 | 2026-09-05 12:36:20 | 52.34948 | 11.86114 | 356° | 5km/h | 32132m | -35.3m/s | -42°C | 0% | 9.3hPa | 2.7V | 03:11:38 | 02:45:42 | 00:00:00 | |
| DF8AY | 2026-09-05 12:36:18 | 52.34943 | 11.86114 | 19° | 15km/h | 32202m | -36.5m/s | -41.9°C | 0% | 9.2hPa | 2.7V | 03:11:38 | 02:45:40 | 00:00:00 | |
| DL1XH-west | 2026-09-05 12:36:18 | 52.34939 | 11.86112 | 18° | 18km/h | 32238m | -36.2m/s | -41.8°C | 0% | 9.1hPa | 2.6V | 03:11:38 | 02:45:39 | 00:00:00 | |
| DM0DOS-11 | 2026-09-05 12:36:17 | 52.34917 | 11.86096 | 27° | 24km/h | 32383m | -35.7m/s | -41.8°C | 2.2% | 8.9hPa | 2.7V | 03:10:57 | 02:45:35 | 00:00:00 | |
| DB0UT-7 | 2026-09-05 12:36:17 | 52.34939 | 11.86112 | 18° | 29km/h | 32239m | -36.2m/s | -41.8°C | 2.2% | 9.1hPa | 2.6V | 03:10:00 | 02:45:39 | 00:00:00 | |
| SONDE2-11 | 2026-09-05 12:36:16 | 52.34934 | 11.86109 | 23° | 22km/h | 32274m | -36.2m/s | -41.8°C | 0.4% | 9.1hPa | 2.7V | 00:00:00 | 00:00:00 | 00:00:00 | |
| DL1XH1-15 | 2026-09-05 12:36:15 | 52.34902 | 11.86081 | 42° | 20km/h | 32487m | -35.5m/s | -41.7°C | 2.3% | 8.8hPa | 2.7V | 03:11:00 | 02:45:32 | 00:00:00 | |
| DO2SHX-10 | 2026-09-05 12:36:15 | 52.34929 | 11.86105 | 22° | 26km/h | 32311m | -36.5m/s | -41.7°C | 2.2% | 9.0hPa | 2.7V | 00:00:00 | 02:45:37 | 00:00:00 | |
| DO3MHA-11 | 2026-09-05 12:36:13 | 52.34917 | 11.86096 | 28° | 24km/h | 32383m | -35.7m/s | -41.7°C | 2.2% | 8.9hPa | 2.7V | 00:00:00 | 02:45:35 | 00:00:00 | |
| DL1XH-15 | 2026-09-05 12:36:12 | 52.34892 | 11.86060 | 62° | 24km/h | 32595m | -35.9m/s | -41.4°C | 2.2% | 8.7hPa | 2.6V | 03:11:03 | 02:45:29 | 00:00:00 | |
| DO2SHX-10 | 2026-09-05 12:36:12 | 52.34912 | 11.86091 | 31° | 24km/h | 32419m | -33.8m/s | -41.7°C | 2.3% | 8.8hPa | 2.7V | 00:00:00 | 02:45:34 | 00:00:00 | |
| DB0DAN | 2026-09-05 12:36:10 | 52.34902 | 11.86081 | 42° | 20km/h | 32487m | -35.5m/s | -41.7°C | 0.4% | 8.83hPa | 2.7V | 00:00:00 | 00:00:00 | 00:00:00 | |
| HSKMA3-T | 2026-09-05 12:36:10 | 52.34902 | 11.86081 | 42° | 20km/h | 32487m | -35.5m/s | -41.7°C | 0% | 8.8hPa | 2.7V | 03:11:38 | 02:45:32 | 00:00:00 | |
| AA1-15 | 2026-09-05 12:36:09 | 52.34898 | 11.86075 | 47° | 20km/h | 32522m | -36.5m/s | -41.5°C | 0% | 8.8hPa | 2.7V | 03:11:38 | 02:45:31 | 00:00:00 | |
| DF8AY | 2026-09-05 12:36:07 | 52.34892 | 11.86060 | 62° | 24km/h | 32595m | -35.9m/s | -41.4°C | 0% | 8.7hPa | 2.6V | 03:11:38 | 02:45:29 | 00:00:00 | |
| DL1CLM-18 | 2026-09-05 12:36:07 | 52.34892 | 11.86060 | 63° | 24km/h | 32596m | -35.9m/s | -41.4°C | 0.4% | 8.7hPa | 2.6V | 00:00:00 | 00:00:00 | 00:00:00 | |
| DO2SHX-10 | 2026-09-05 12:36:06 | 52.34889 | 11.86051 | 67° | 29km/h | 32632m | -37.5m/s | -41.3°C | 2.2% | 8.6hPa | 2.6V | 03:11:00 | 02:45:28 | 00:00:00 | |
| DM0DOS-11 | 2026-09-05 12:36:05 | 52.34880 | 11.86018 | 63° | 31km/h | 32740m | -36.2m/s | -41.2°C | 2.2% | 8.5hPa | 2.7V | 03:11:07 | 02:45:25 | 00:00:00 | |
| DL1XH1-15 | 2026-09-05 12:36:05 | 52.34868 | 11.85987 | 52° | 27km/h | 32855m | -41.9m/s | -40.7°C | 2.1% | 8.3hPa | 2.7V | 03:11:10 | 02:45:22 | 00:00:00 | |
| DO2SHX-10 | 2026-09-05 12:36:03 | 52.34880 | 11.86018 | 64° | 29km/h | 32740m | -36.1m/s | -41.2°C | 2.2% | 8.4hPa | 2.6V | 00:00:00 | 02:45:25 | 00:00:00 | |
| DL1XH-15 | 2026-09-05 12:36:02 | 52.34855 | 11.85962 | 50° | 26km/h | 32979m | -39.2m/s | -40.7°C | 2.2% | 8.2hPa | 2.6V | 03:11:13 | 02:45:19 | 00:00:00 | |
| GOEST3-10 | 2026-09-05 12:36:02 | 52.34876 | 11.86007 | 61° | 27km/h | 32776m | -36.0m/s | -41.0°C | 2.2% | 8.4hPa | 2.7V | 00:00:00 | 02:45:24 | 00:00:00 | |
| DB0ND-19 | 2026-09-05 12:36:01 | 52.34872 | 11.85996 | 59° | 27km/h | 32814m | -40.8m/s | -40.9°C | 0.3% | 8.4hPa | 2.7V | 00:00:00 | 00:00:00 | 00:00:00 | |
| DD8BA-10 | 2026-09-05 12:36:00 | 52.34868 | 11.85987 | 53° | 33km/h | 32855m | -41.8m/s | -40.7°C | 2.1% | 8.3hPa | 2.7V | 00:00:00 | 00:00:00 | 00:00:00 | |
| HSKMA3-T | 2026-09-05 12:36:00 | 52.34868 | 11.85987 | 53° | 27km/h | 32855m | -41.9m/s | -40.7°C | 0% | 8.3hPa | 2.7V | 03:11:38 | 02:45:22 | 00:00:00 | |
| DF7ER-10 | 2026-09-05 12:35:59 | 52.34864 | 11.85978 | 50° | 27km/h | 32898m | -42.7m/s | -40.6°C | 0.4% | 8.3hPa | 2.7V | 03:11:00 | 00:00:00 | 00:00:00 | |
| DM0DOS-11 | 2026-09-05 12:35:58 | 52.34834 | 11.85920 | 55° | 38km/h | 33133m | -38.5m/s | -40.3°C | 2.2% | 8hPa | 2.7V | 03:11:17 | 02:45:15 | 00:00:00 | |
| AA1-15 | 2026-09-05 12:35:58 | 52.34859 | 11.85970 | 48° | 26km/h | 32939m | -40.8m/s | -40.7°C | 0% | 8.3hPa | 2.7V | 03:11:38 | 02:45:20 | 00:00:00 | |
| DL1XH-west | 2026-09-05 12:35:56 | 52.34850 | 11.85953 | 44° | 31km/h | 33018m | -39.2m/s | -40.7°C | 0% | 8.1hPa | 2.6V | 03:11:38 | 02:45:18 | 00:00:00 | |
| OE5DRO-10 | 2026-09-05 12:35:55 | 52.34845 | 11.85944 | 51° | 38km/h | 33057m | -38.2m/s | -40.6°C | 2.3% | 8.0hPa | 2.6V | 00:00:00 | 00:00:00 | 00:00:00 | |
| DO2SHX-10 | 2026-09-05 12:35:54 | 52.34839 | 11.85933 | 54° | 38km/h | 33095m | -38.8m/s | -40.4°C | 2.2% | 8.0hPa | 2.6V | 03:11:00 | 02:45:16 | 00:00:00 | |
| TFSTFS | 2026-09-05 12:35:53 | 52.34834 | 11.85920 | 56° | 40km/h | 33134m | -38.5m/s | -40.3°C | 0.3% | 8.0hPa | 2.6V | 03:11:00 | 00:00:00 | 00:00:00 | |
| DL1XH-15 | 2026-09-05 12:35:52 | 52.34807 | 11.85834 | 71° | 38km/h | 33368m | -39.4m/s | -39.6°C | 2.1% | 7.8hPa | 2.6V | 03:11:23 | 02:45:09 | 00:00:00 | |
| HSKMA3-T | 2026-09-05 12:35:49 | 52.34815 | 11.85863 | 65° | 40km/h | 33289m | -40.1m/s | -39.6°C | 0% | 7.8hPa | 2.7V | 03:11:38 | 02:45:11 | 00:00:00 | |
| DL1NUX | 2026-09-05 12:35:49 | 52.34797 | 11.85783 | 74° | 49km/h | 33477m | -35.5m/s | -38.7°C | 2% | 7.6hPa | 2.7V | 03:11:26 | 02:45:06 | 00:00:00 | |
| AA1-15 | 2026-09-05 12:35:48 | 52.34811 | 11.85848 | 67° | 38km/h | 33329m | -39.5m/s | -39.6°C | 0% | 7.8hPa | 2.7V | 03:11:38 | 02:45:10 | 00:00:00 | |
| DF8AY | 2026-09-05 12:35:46 | 52.34804 | 11.85818 | 71° | 42km/h | 33406m | -37m/s | -39.5°C | 0% | 7.7hPa | 2.6V | 03:11:38 | 02:45:08 | 00:00:00 | |
| DL1XH-west | 2026-09-05 12:35:45 | 52.34801 | 11.85801 | 74° | 44km/h | 33442m | -35.8m/s | -39.1°C | 0% | 7.6hPa | 2.7V | 03:11:38 | 02:45:07 | 00:00:00 | |
| SONDE2-11 | 2026-09-05 12:35:45 | 52.34797 | 11.85783 | 74° | 47km/h | 33478m | -35.5m/s | -38.7°C | 0.3% | 7.6hPa | 2.7V | 00:00:00 | 00:00:00 | 00:00:00 | |
| DL1ZP-14 | 2026-09-05 12:35:44 | 52.34797 | 11.85783 | 74° | 47km/h | 33478m | -35.5m/s | -38.7°C | 0.3% | 7.6hPa | 2.7V | 00:00:00 | 00:00:00 | 00:00:00 | |
| DO3MHA-11 | 2026-09-05 12:35:43 | 52.34795 | 11.85762 | 79° | 35km/h | 33513m | -34.4m/s | -38.3°C | 1.9% | 7.5hPa | 2.7V | 00:00:00 | 02:45:05 | 00:00:00 | |
| DL1XH-15 | 2026-09-05 12:35:42 | 52.34788 | 11.85650 | 91° | 26km/h | 33701m | -28.3m/s | -37.2°C | 1.8% | 7.3hPa | 2.6V | 03:11:33 | 02:44:59 | 00:00:00 | |
| DO2SHX-10 | 2026-09-05 12:35:42 | 52.34792 | 11.85740 | 81° | 51km/h | 33546m | -32.5m/s | -38.0°C | 1.9% | 7.5hPa | 2.7V | 03:11:00 | 02:45:04 | 00:00:00 | |
| DB0DAN | 2026-09-05 12:35:40 | 52.34789 | 11.85698 | 84° | 47km/h | 33609m | -31.8m/s | -37.8°C | 0.3% | 7.44hPa | 2.7V | 00:00:00 | 00:00:00 | 00:00:00 | |
| AA1-15 | 2026-09-05 12:35:38 | 52.34788 | 11.85663 | 90° | 35km/h | 33672m | -30.4m/s | -37.5°C | 0% | 7.4hPa | 2.7V | 03:11:38 | 02:45:00 | 00:00:00 | |
| DL1NUX | 2026-09-05 12:35:38 | 52.34789 | 11.85629 | 88° | 9km/h | 33786m | -27.4m/s | -36.9°C | 1.8% | 7.2hPa | 2.7V | 03:11:36 | 02:44:56 | 00:00:00 | |
| DL1XH-west | 2026-09-05 12:35:35 | 52.34789 | 11.85634 | 95° | 11km/h | 33758m | -28.9m/s | -36.9°C | 0% | 7.3hPa | 2.7V | 03:11:38 | 02:44:57 | 00:00:00 | |
| DF8AY | 2026-09-05 12:35:34 | 52.34788 | 11.85629 | 89° | 9km/h | 33786m | -27.4m/s | -36.9°C | 0% | 7.2hPa | 2.7V | 03:11:38 | 02:44:56 | 00:00:00 | |
| DF8AY-15 | 2026-09-05 12:35:33 | 52.34788 | 11.85623 | 75° | 44km/h | 33814m | -28.3m/s | -36.8°C | 1.8% | 7.2hPa | 2.6V | 00:00:00 | 02:44:55 | 00:00:00 | |
| DL1XH-15 | 2026-09-05 12:35:32 | 52.34770 | 11.85474 | 78° | 88km/h | 33953m | -26m/s | -36.4°C | 1.8% | 7hPa | 2.6V | 03:11:43 | 02:44:49 | 00:00:00 | |
| AA1-15 | 2026-09-05 12:35:27 | 52.34770 | 11.85474 | 79° | 88km/h | 33953m | -26m/s | -36.4°C | 0% | 7hPa | 2.6V | 03:12:29 | 02:44:49 | 00:00:00 | |
| DO2SHX-10 | 2026-09-05 12:35:27 | 52.34770 | 11.85474 | 79° | 64km/h | 33953m | -25.9m/s | -36.4°C | 1.8% | 7.0hPa | 2.7V | 00:00:00 | 02:44:49 | 00:00:00 | |
| DL1NUX | 2026-09-05 12:35:25 | 52.34765 | 11.85404 | 88° | 42km/h | 34086m | -43.8m/s | -36.3°C | 1.8% | 6.9hPa | 2.7V | 03:11:46 | 02:44:46 | 00:00:00 | |
| DL1XH1-15 | 2026-09-05 12:35:25 | 52.34762 | 11.85334 | 52° | 40km/h | 34191m | -9m/s | -36.1°C | 1.8% | 6.8hPa | 2.7V | 03:11:50 | 02:44:42 | 00:00:00 | |
| DL1XH-west | 2026-09-05 12:35:24 | 52.34765 | 11.85404 | 88° | 42km/h | 34086m | -43.8m/s | -36.3°C | 0% | 7hPa | 2.7V | 03:12:29 | 02:44:46 | 00:00:00 | |
| DF8AY | 2026-09-05 12:35:23 | 52.34765 | 11.85385 | 88° | 42km/h | 34125m | -35.6m/s | -36.4°C | 0% | 6.9hPa | 2.7V | 03:12:29 | 02:44:45 | 00:00:00 | |
| HSKMA3-T | 2026-09-05 12:35:17 | 52.34762 | 11.85303 | 107° | 29km/h | 34192m | 7m/s | -36.4°C | 0% | 6.8hPa | 2.6V | 03:12:29 | 02:44:39 | 00:00:00 | |
| AA1-15 | 2026-09-05 12:35:16 | 52.34765 | 11.85292 | 125° | 26km/h | 34185m | 6.9m/s | -36.4°C | 0% | 6.8hPa | 2.6V | 03:12:29 | 02:44:38 | 00:00:00 | |
| DL1XH1-15 | 2026-09-05 12:35:15 | 52.34788 | 11.85192 | 88° | 73km/h | 34156m | 7.1m/s | -36.6°C | 1.8% | 6.8hPa | 2.7V | 03:12:00 | 02:44:32 | 00:00:00 | |
| DL1XH-west | 2026-09-05 12:35:14 | 52.34775 | 11.85274 | 129° | 35km/h | 34176m | 2.7m/s | -36.4°C | 0% | 6.8hPa | 2.7V | 03:12:29 | 02:44:36 | 00:00:00 | |
| DF8AY | 2026-09-05 12:35:13 | 52.34780 | 11.85261 | 117° | 42km/h | 34173m | 2.9m/s | -36.4°C | 0% | 6.8hPa | 2.7V | 03:12:29 | 02:44:35 | 00:00:00 | |
| HSKMA3-T | 2026-09-05 12:35:07 | 52.34777 | 11.85098 | 71° | 73km/h | 34141m | 3.6m/s | -36.6°C | 0% | 6.8hPa | 2.6V | 03:12:29 | 02:44:29 | 00:00:00 | |
| AA1-15 | 2026-09-05 12:35:06 | 52.34771 | 11.85072 | 68° | 60km/h | 34137m | 4.8m/s | -36.6°C | 0% | 6.8hPa | 2.6V | 03:12:29 | 02:44:28 | 00:00:00 | |
| DO2SHX-10 | 2026-09-05 12:35:06 | 52.34771 | 11.85072 | 68° | 46km/h | 34137m | 4.7m/s | -36.6°C | 1.8% | 6.8hPa | 2.7V | 03:12:00 | 02:44:28 | 00:00:00 | |
| DL1XH1-15 | 2026-09-05 12:35:05 | 52.34776 | 11.84991 | 124° | 49km/h | 34107m | 4.6m/s | -36.6°C | 1.8% | 6.9hPa | 2.7V | 03:12:10 | 02:44:22 | 00:00:00 | |
| DL1NUX | 2026-09-05 12:35:05 | 52.34762 | 11.85026 | 100° | 24km/h | 34120m | 5.6m/s | -36.6°C | 1.8% | 6.9hPa | 2.7V | 03:12:07 | 02:44:25 | 00:00:00 | |
| DL1XH-west | 2026-09-05 12:35:03 | 52.34762 | 11.85026 | 100° | 24km/h | 34120m | 5.6m/s | -36.6°C | 0% | 6.9hPa | 2.7V | 03:12:29 | 02:44:25 | 00:00:00 | |
| DF8AY | 2026-09-05 12:35:02 | 52.34769 | 11.85006 | 130° | 38km/h | 34111m | 3.6m/s | -36.6°C | 0% | 6.9hPa | 2.6V | 03:12:29 | 02:44:23 | 00:00:00 | |
| HSKMA3-T | 2026-09-05 12:34:57 | 52.34792 | 11.84916 | 97° | 80km/h | 34091m | 5.4m/s | -36.9°C | 0% | 6.9hPa | 2.6V | 03:12:29 | 02:44:19 | 00:00:00 | |
| AA1-15 | 2026-09-05 12:34:56 | 52.34793 | 11.84883 | 87° | 84km/h | 34086m | 4.5m/s | -36.9°C | 0% | 6.9hPa | 2.6V | 03:12:29 | 02:44:18 | 00:00:00 | |
| DB0DAN | 2026-09-05 12:34:55 | 52.34790 | 11.84849 | 79° | 78km/h | 34081m | 4.4m/s | -36.9°C | 0.2% | 6.92hPa | 2.7V | 00:00:00 | 00:00:00 | 00:00:00 | |
| DM0DOS-11 | 2026-09-05 12:34:55 | 52.34779 | 11.84792 | 64° | 62km/h | 34071m | 5.9m/s | -36.7°C | 1.9% | 6.9hPa | 2.7V | 03:12:17 | 02:44:15 | 00:00:00 | |
| DL1XH1-15 | 2026-09-05 12:34:55 | 52.34762 | 11.84747 | 61° | 24km/h | 34053m | 5.3m/s | -36.7°C | 1.9% | 6.9hPa | 2.7V | 03:12:20 | 02:44:12 | 00:00:00 | |
| DL1XH-west | 2026-09-05 12:34:52 | 52.34772 | 11.84772 | 57° | 49km/h | 34065m | 6m/s | -36.7°C | 0% | 6.9hPa | 2.6V | 03:12:29 | 02:44:14 | 00:00:00 | |
| DF8AY | 2026-09-05 12:34:51 | 52.34766 | 11.84757 | 53° | 35km/h | 34059m | 5.8m/s | -36.8°C | 0% | 6.9hPa | 2.6V | 03:12:29 | 02:44:13 | 00:00:00 | |
| AA1-15 | 2026-09-05 12:34:46 | 52.34774 | 11.84679 | 109° | 62km/h | 34026m | 5.8m/s | -36.6°C | 0% | 7hPa | 2.7V | 03:12:29 | 02:44:07 | 00:00:00 | |
| DM0DOS-11 | 2026-09-05 12:34:45 | 52.34782 | 11.84626 | 97° | 69km/h | 34017m | 4.2m/s | -36.8°C | 1.9% | 7hPa | 2.7V | 03:12:27 | 02:44:05 | 00:00:00 | |
| DO2SHX-10 | 2026-09-05 12:34:45 | 52.34774 | 11.84679 | 109° | 68km/h | 34027m | 5.8m/s | -36.6°C | 1.9% | 6.9hPa | 2.7V | 00:00:00 | 02:44:07 | 00:00:00 | |
| DF7ER-10 | 2026-09-05 12:34:44 | 52.34779 | 11.84654 | 104° | 69km/h | 34021m | 5.0m/s | -36.8°C | 0.2% | 7.0hPa | 2.6V | 03:12:00 | 00:00:00 | 00:00:00 | |
| SONDE2-11 | 2026-09-05 12:34:43 | 52.34783 | 11.84598 | 91° | 66km/h | 34013m | 4.0m/s | -36.7°C | 0.3% | 7.0hPa | 2.6V | 00:00:00 | 00:00:00 | 00:00:00 | |
| DL1XH-15 | 2026-09-05 12:34:42 | 52.34770 | 11.84510 | 59° | 26km/h | 33985m | 4.8m/s | -36.9°C | 1.9% | 7hPa | 2.6V | 03:12:33 | 02:43:59 | 00:00:00 | |
| DL1XH-west | 2026-09-05 12:34:41 | 52.34783 | 11.84572 | 85° | 58km/h | 34007m | 5.2m/s | -36.8°C | 0% | 7hPa | 2.6V | 03:12:29 | 02:44:03 | 00:00:00 | |
| HSKMA3-T | 2026-09-05 12:34:35 | 52.34766 | 11.84490 | 81° | 29km/h | 33975m | 5.4m/s | -36.9°C | 0% | 7hPa | 2.7V | 03:13:20 | 02:43:57 | 00:00:00 | |
| GOEST3-10 | 2026-09-05 12:34:35 | 52.34766 | 11.84490 | 82° | 42km/h | 33975m | 5.3m/s | -36.8°C | 1.9% | 7.0hPa | 2.7V | 00:00:00 | 00:00:00 | 00:00:00 | |
| DL1NUX | 2026-09-05 12:34:34 | 52.34766 | 11.84460 | 93° | 44km/h | 33963m | 5.8m/s | -37°C | 1.9% | 7hPa | 2.7V | 03:12:37 | 02:43:55 | 00:00:00 | |
| DF7ER-10 | 2026-09-05 12:34:33 | 52.34766 | 11.84460 | 95° | 44km/h | 33964m | 5.8m/s | -37.0°C | 0.3% | 7.0hPa | 2.6V | 03:13:00 | 00:00:00 | 00:00:00 | |
| DL1XH-15 | 2026-09-05 12:34:32 | 52.34769 | 11.84347 | 80° | 31km/h | 33931m | 5.6m/s | -37°C | 1.9% | 7.1hPa | 2.6V | 03:12:43 | 02:43:49 | 00:00:00 | |
| DL1XH-west | 2026-09-05 12:34:31 | 52.34768 | 11.84420 | 96° | 53km/h | 33953m | 4.6m/s | -37°C | 0% | 7hPa | 2.6V | 03:13:20 | 02:43:53 | 00:00:00 | |
| PG1ADW-2 | 2026-09-05 12:34:31 | 52.34768 | 11.84420 | 96° | 35km/h | 33953m | 4.5m/s | -37.0°C | 1.9% | 7.0hPa | 2.7V | 00:00:00 | 00:00:00 | 00:00:00 | |
| DO2SHX-10 | 2026-09-05 12:34:30 | 52.34769 | 11.84398 | 96° | 46km/h | 33948m | 4.9m/s | -37.0°C | 1.9% | 7.0hPa | 2.7V | 03:12:00 | 02:43:52 | 00:00:00 | |
| DB0ND-19 | 2026-09-05 12:34:28 | 52.34770 | 11.84361 | 87° | 38km/h | 33937m | 5.9m/s | -36.9°C | 0.3% | 7.1hPa | 2.7V | 00:00:00 | 00:00:00 | 00:00:00 | |
| DC6BW-12 | 2026-09-05 12:34:27 | 52.34769 | 11.84347 | 82° | 31km/h | 33931m | 5.6m/s | -37.0°C | 0.3% | 7.1hPa | 2.7V | 03:13:00 | 00:00:00 | 00:00:00 | |
| DM0DOS-11 | 2026-09-05 12:34:25 | 52.34759 | 11.84307 | 67° | 27km/h | 33909m | 5.3m/s | -37°C | 1.9% | 7.1hPa | 2.7V | 03:12:47 | 02:43:45 | 00:00:00 | |
| HSKMA3-T | 2026-09-05 12:34:25 | 52.34765 | 11.84325 | 64° | 24km/h | 33920m | 5.3m/s | -36.9°C | 0% | 7.1hPa | 2.7V | 03:13:20 | 02:43:47 | 00:00:00 | |
| AA1-15 | 2026-09-05 12:34:25 | 52.34762 | 11.84316 | 62° | 26km/h | 33914m | 4.9m/s | -36.9°C | 0% | 7.1hPa | 2.7V | 03:13:20 | 02:43:46 | 00:00:00 | |
| DL1CLM-18 | 2026-09-05 12:34:24 | 52.34762 | 11.84316 | 63° | 26km/h | 33915m | 4.9m/s | -36.9°C | 0.2% | 7.1hPa | 2.6V | 00:00:00 | 00:00:00 | 00:00:00 | |
| DL1XH-15 | 2026-09-05 12:34:22 | 52.34748 | 11.84212 | 82° | 37km/h | 33877m | 5m/s | -37°C | 1.9% | 7.1hPa | 2.6V | 03:12:53 | 02:43:39 | 00:00:00 | |
| DL1XH-west | 2026-09-05 12:34:20 | 52.34752 | 11.84264 | 81° | 44km/h | 33891m | 5.8m/s | -37°C | 0% | 7.1hPa | 2.7V | 03:13:20 | 02:43:42 | 00:00:00 | |
| DF8AY | 2026-09-05 12:34:15 | 52.34746 | 11.84188 | 78° | 24km/h | 33864m | 6.6m/s | -36.9°C | 0% | 7.1hPa | 2.7V | 03:13:20 | 02:43:37 | 00:00:00 | |
| DM0DOS-11 | 2026-09-05 12:34:15 | 52.34742 | 11.84171 | 68° | 20km/h | 33853m | 4.4m/s | -37°C | 1.9% | 7.1hPa | 2.7V | 03:12:57 | 02:43:35 | 00:00:00 | |
| DL1XH1-15 | 2026-09-05 12:34:15 | 52.34735 | 11.84138 | 76° | 40km/h | 33838m | 6.7m/s | -37°C | 1.9% | 7.2hPa | 2.7V | 03:13:00 | 02:43:32 | 00:00:00 | |
| AA1-15 | 2026-09-05 12:34:14 | 52.34744 | 11.84179 | 70° | 20km/h | 33859m | 5.6m/s | -36.9°C | 0% | 7.2hPa | 2.7V | 03:13:20 | 02:43:36 | 00:00:00 | |
| EDDB2-11 | 2026-09-05 12:34:13 | 52.34742 | 11.84171 | 68° | 18km/h | 33854m | 4.4m/s | -37.0°C | 0.2% | 7.1hPa | 2.6V | 00:00:00 | 00:00:00 | 00:00:00 | |
| DL1XH-15 | 2026-09-05 12:34:12 | 52.34730 | 11.84078 | 84° | 53km/h | 33820m | 4.4m/s | -37°C | 1.9% | 7.2hPa | 2.6V | 03:13:03 | 02:43:29 | 00:00:00 | |
| DL1XH-west | 2026-09-05 12:34:10 | 52.34736 | 11.84138 | 77° | 40km/h | 33838m | 6.7m/s | -37°C | 0% | 7.2hPa | 2.7V | 03:13:20 | 02:43:32 | 00:00:00 | |
| DO2SHX-10 | 2026-09-05 12:34:09 | 52.34733 | 11.84120 | 80° | 51km/h | 33832m | 6.4m/s | -37.0°C | 1.8% | 7.1hPa | 2.7V | 00:00:00 | 02:43:31 | 00:00:00 | |
| DL1CLM-18 | 2026-09-05 12:34:08 | 52.34733 | 11.84120 | 80° | 47km/h | 33832m | 6.4m/s | -37.0°C | 0.2% | 7.2hPa | 2.7V | 00:00:00 | 00:00:00 | 00:00:00 | |
| DD8BA-10 | 2026-09-05 12:34:07 | 52.34730 | 11.84078 | 85° | 33km/h | 33820m | 4.4m/s | -37.0°C | 1.9% | 7.1hPa | 2.7V | 00:00:00 | 00:00:00 | 00:00:00 | |
| DL1NUX | 2026-09-05 12:34:06 | 52.34729 | 11.84013 | 89° | 24km/h | 33797m | 6m/s | -37°C | 1.9% | 7.2hPa | 2.7V | 03:13:07 | 02:43:25 | 00:00:00 | |
| DF8AY | 2026-09-05 12:34:05 | 52.34729 | 11.84039 | 89° | 42km/h | 33810m | 6.1m/s | -37°C | 0% | 7.2hPa | 2.7V | 03:13:20 | 02:43:27 | 00:00:00 | |
| HSKMA3-T | 2026-09-05 12:34:04 | 52.34729 | 11.84024 | 91° | 33km/h | 33804m | 6.7m/s | -37°C | 0% | 7.2hPa | 2.7V | 03:13:20 | 02:43:26 | 00:00:00 | |
| AA1-15 | 2026-09-05 12:34:03 | 52.34729 | 11.84013 | 90° | 24km/h | 33797m | 6m/s | -37°C | 0% | 7.2hPa | 2.7V | 03:13:20 | 02:43:25 | 00:00:00 | |
| DO2SHX-10 | 2026-09-05 12:34:03 | 52.34729 | 11.84012 | 90° | 22km/h | 33798m | 5.9m/s | -37.0°C | 1.9% | 7.1hPa | 2.6V | 00:00:00 | 02:43:25 | 00:00:00 | |
| DL1XH-15 | 2026-09-05 12:34:02 | 52.34721 | 11.83946 | 73° | 42km/h | 33764m | 5.4m/s | -37.2°C | 1.9% | 7.2hPa | 2.6V | 03:13:13 | 02:43:19 | 00:00:00 | |
| DL1XH-west | 2026-09-05 12:33:59 | 52.34726 | 11.83975 | 76° | 31km/h | 33775m | 6.3m/s | -37.1°C | 0% | 7.2hPa | 2.7V | 03:13:20 | 02:43:21 | 00:00:00 | |
| DL1NUX | 2026-09-05 12:33:58 | 52.34707 | 11.83878 | 71° | 42km/h | 33740m | 5.8m/s | -37.4°C | 1.9% | 7.3hPa | 2.7V | 03:13:17 | 02:43:15 | 00:00:00 | |
| DB0ND-19 | 2026-09-05 12:33:57 | 52.34721 | 11.83946 | 73° | 40km/h | 33764m | 5.4m/s | -37.2°C | 0.2% | 7.3hPa | 2.7V | 00:00:00 | 00:00:00 | 00:00:00 | |
| HTAHTA | 2026-09-05 12:33:56 | 52.34711 | 11.83894 | 71° | 42km/h | 33746m | 6.5m/s | -37.5°C | 0.3% | 7.2hPa | 2.7V | 00:00:00 | 00:00:00 | 00:00:00 | |
| DB0DAN | 2026-09-05 12:33:55 | 52.34714 | 11.83911 | 72° | 44km/h | 33752m | 6.5m/s | -37.5°C | 0.2% | 7.27hPa | 2.7V | 00:00:00 | 00:00:00 | 00:00:00 | |
| DF8AY | 2026-09-05 12:33:55 | 52.34714 | 11.83911 | 72° | 46km/h | 33752m | 6.5m/s | -37.5°C | 0% | 7.3hPa | 2.7V | 03:13:20 | 02:43:17 | 00:00:00 | |
| DL1XH1-15 | 2026-09-05 12:33:55 | 52.34701 | 11.83830 | 84° | 40km/h | 33723m | 5.8m/s | -37.6°C | 1.9% | 7.3hPa | 2.7V | 03:13:20 | 02:43:12 | 00:00:00 | |
| HSKMA3-T | 2026-09-05 12:33:53 | 52.34707 | 11.83878 | 71° | 42km/h | 33740m | 5.8m/s | -37.4°C | 0% | 7.3hPa | 2.7V | 03:13:20 | 02:43:15 | 00:00:00 | |
| DF8AY-15 | 2026-09-05 12:33:53 | 52.34707 | 11.83878 | 72° | 42km/h | 33740m | 5.8m/s | -37.4°C | 1.9% | 7.2hPa | 2.7V | 03:13:00 | 02:43:15 | 00:00:00 | |
| DL1XH-15 | 2026-09-05 12:33:52 | 52.34701 | 11.83774 | 93° | 49km/h | 33704m | 5.8m/s | -37.8°C | 1.9% | 7.3hPa | 2.6V | 03:13:23 | 02:43:09 | 00:00:00 | |
| DL1XH-west | 2026-09-05 12:33:49 | 52.34700 | 11.83812 | 90° | 44km/h | 33717m | 6.4m/s | -37.6°C | 0% | 7.3hPa | 2.7V | 03:14:11 | 02:43:11 | 00:00:00 | |
| DO2SHX-10 | 2026-09-05 12:33:48 | 52.34700 | 11.83793 | 92° | 47km/h | 33711m | 6.8m/s | -37.7°C | 1.9% | 7.2hPa | 2.7V | 00:00:00 | 02:43:10 | 00:00:00 | |
| DB0UT-7 | 2026-09-05 12:33:47 | 52.34701 | 11.83773 | 94° | 40km/h | 33704m | 5.8m/s | -37.8°C | 1.9% | 7.2hPa | 2.7V | 00:00:00 | 00:00:00 | 00:00:00 | |
| DC6BW-12 | 2026-09-05 12:33:46 | 52.34701 | 11.83754 | 95° | 46km/h | 33699m | 5.0m/s | -37.8°C | 0.3% | 7.3hPa | 2.7V | 03:14:00 | 00:00:00 | 00:00:00 | |
| DL1XH1-15 | 2026-09-05 12:33:45 | 52.34696 | 11.83678 | 67° | 31km/h | 33663m | 4.8m/s | -37.9°C | 1.9% | 7.3hPa | 2.7V | 03:13:30 | 02:43:02 | 00:00:00 | |
| DF8AY | 2026-09-05 12:33:44 | 52.34702 | 11.83721 | 91° | 35km/h | 33688m | 6.7m/s | -37.9°C | 0% | 7.3hPa | 2.7V | 03:14:11 | 02:43:06 | 00:00:00 | |
| AA1-15 | 2026-09-05 12:33:43 | 52.34702 | 11.83708 | 84° | 27km/h | 33681m | 7.3m/s | -37.9°C | 0% | 7.3hPa | 2.7V | 03:14:11 | 02:43:05 | 00:00:00 | |
| HSKMA3-T | 2026-09-05 12:33:42 | 52.34701 | 11.83698 | 74° | 24km/h | 33674m | 6.3m/s | -38°C | 0% | 7.3hPa | 2.6V | 03:14:11 | 02:43:04 | 00:00:00 | |
| DO2SHX-10 | 2026-09-05 12:33:42 | 52.34701 | 11.83698 | 74° | 27km/h | 33675m | 6.3m/s | -37.9°C | 2.0% | 7.3hPa | 2.6V | 03:13:00 | 02:43:04 | 00:00:00 | |
| DB0DAN | 2026-09-05 12:33:40 | 52.34696 | 11.83678 | 68° | 29km/h | 33663m | 4.8m/s | -37.9°C | 0.3% | 7.36hPa | 2.7V | 00:00:00 | 00:00:00 | 00:00:00 | |
| DL1XH-west | 2026-09-05 12:33:38 | 52.34690 | 11.83648 | 75° | 46km/h | 33651m | 7.4m/s | -38.1°C | 0% | 7.3hPa | 2.7V | 03:14:11 | 02:43:00 | 00:00:00 | |
| DO2SHX-10 | 2026-09-05 12:33:36 | 52.34685 | 11.83606 | 83° | 55km/h | 33638m | 5.9m/s | -37.9°C | 1.9% | 7.3hPa | 2.7V | 00:00:00 | 02:42:58 | 00:00:00 | |
| DL1XH1-15 | 2026-09-05 12:33:35 | 52.34682 | 11.83504 | 78° | 20km/h | 33602m | 5.5m/s | -38°C | 1.9% | 7.4hPa | 2.7V | 03:13:40 | 02:42:52 | 00:00:00 | |
| AA1-15 | 2026-09-05 12:33:32 | 52.34682 | 11.83525 | 91° | 33km/h | 33614m | 6.7m/s | -38°C | 0% | 7.4hPa | 2.6V | 03:14:11 | 02:42:54 | 00:00:00 | |
| DL1XH-west | 2026-09-05 12:33:27 | 52.34674 | 11.83476 | 63° | 35km/h | 33584m | 6.5m/s | -38.1°C | 0% | 7.4hPa | 2.6V | 03:14:11 | 02:42:49 | 00:00:00 | |
| DO2SHX-10 | 2026-09-05 12:33:27 | 52.34674 | 11.83475 | 64° | 44km/h | 33585m | 6.4m/s | -38.0°C | 2.0% | 7.4hPa | 2.7V | 00:00:00 | 02:42:49 | 00:00:00 | |
| DD8BA-10 | 2026-09-05 12:33:26 | 52.34670 | 11.83461 | 64° | 47km/h | 33578m | 6.6m/s | -38.0°C | 1.9% | 7.4hPa | 2.7V | 00:00:00 | 00:00:00 | 00:00:00 | |
| DM0DOS-11 | 2026-09-05 12:33:25 | 52.34655 | 11.83404 | 71° | 53km/h | 33559m | 6.6m/s | -38.3°C | 1.9% | 7.5hPa | 2.7V | 03:13:47 | 02:42:45 | 00:00:00 | |
| DL1XH1-15 | 2026-09-05 12:33:25 | 52.34646 | 11.83345 | 82° | 46km/h | 33540m | 5.8m/s | -38.3°C | 2% | 7.5hPa | 2.7V | 03:13:50 | 02:42:42 | 00:00:00 | |
| AA1-15 | 2026-09-05 12:33:21 | 52.34648 | 11.83364 | 78° | 47km/h | 33546m | 6.1m/s | -38.3°C | 0% | 7.5hPa | 2.6V | 03:14:11 | 02:42:43 | 00:00:00 | |
| DF8AY | 2026-09-05 12:33:19 | 52.34645 | 11.83327 | 85° | 46km/h | 33535m | 6.2m/s | -38.4°C | 0% | 7.5hPa | 2.7V | 03:14:11 | 02:42:41 | 00:00:00 | |
| DO2SHX-10 | 2026-09-05 12:33:18 | 52.34644 | 11.83308 | 86° | 46km/h | 33529m | 7.0m/s | -38.5°C | 2.0% | 7.4hPa | 2.6V | 03:13:00 | 02:42:40 | 00:00:00 | |
| DB0UT-7 | 2026-09-05 12:33:17 | 52.34643 | 11.83289 | 84° | 49km/h | 33522m | 6.3m/s | -38.6°C | 2.0% | 7.5hPa | 2.6V | 00:00:00 | 02:42:39 | 00:00:00 | |
| DL1XH-west | 2026-09-05 12:33:17 | 52.34643 | 11.83289 | 84° | 46km/h | 33522m | 6.4m/s | -38.6°C | 0% | 7.5hPa | 2.6V | 03:14:11 | 02:42:39 | 00:00:00 | |
| DM0DOS-11 | 2026-09-05 12:33:15 | 52.34629 | 11.83226 | 52° | 38km/h | 33496m | 7.4m/s | -38.8°C | 2% | 7.5hPa | 2.7V | 03:13:57 | 02:42:35 | 00:00:00 | |
| DL1XH1-15 | 2026-09-05 12:33:15 | 52.34607 | 11.83185 | 52° | 51km/h | 33479m | 4.8m/s | -39°C | 2% | 7.6hPa | 2.7V | 03:14:00 | 02:42:32 | 00:00:00 | |
| DF8AY-15 | 2026-09-05 12:33:13 | 52.34629 | 11.83226 | 53° | 53km/h | 33497m | 7.4m/s | -38.8°C | 2.0% | 7.5hPa | 2.6V | 00:00:00 | 02:42:35 | 00:00:00 | |
| DL1XH-15 | 2026-09-05 12:33:12 | 52.34586 | 11.83120 | 71° | 69km/h | 33459m | 7.6m/s | -39.3°C | 2% | 7.6hPa | 2.6V | 03:14:03 | 02:42:29 | 00:00:00 | |
| AA1-15 | 2026-09-05 12:33:11 | 52.34615 | 11.83200 | 47° | 46km/h | 33484m | 4.9m/s | -38.9°C | 0% | 7.5hPa | 2.6V | 03:14:11 | 02:42:33 | 00:00:00 | |
| DF8AY | 2026-09-05 12:33:08 | 52.34592 | 11.83145 | 65° | 64km/h | 33467m | 7.6m/s | -39.2°C | 0% | 7.5hPa | 2.7V | 03:14:11 | 02:42:30 | 00:00:00 | |
| DL1XH-west | 2026-09-05 12:33:06 | 52.34582 | 11.83092 | 78° | 69km/h | 33452m | 6.2m/s | -39.3°C | 0% | 7.6hPa | 2.6V | 03:14:11 | 02:42:28 | 00:00:00 | |
| DO2SHX-10 | 2026-09-05 12:33:06 | 52.34582 | 11.83092 | 78° | 64km/h | 33452m | 6.1m/s | -39.3°C | 2.0% | 7.5hPa | 2.6V | 03:14:00 | 02:42:28 | 00:00:00 | |
| DC6BW-12 | 2026-09-05 12:33:05 | 52.34579 | 11.83065 | 83° | 66km/h | 33447m | 4.9m/s | -39.3°C | 0.3% | 7.6hPa | 2.7V | 03:14:00 | 00:00:00 | 00:00:00 | |
| DO2SHX-10 | 2026-09-05 12:33:03 | 52.34576 | 11.83019 | 89° | 35km/h | 33437m | 6.6m/s | -39.5°C | 2.1% | 7.5hPa | 2.7V | 00:00:00 | 02:42:25 | 00:00:00 | |
| DL1XH-15 | 2026-09-05 12:33:02 | 52.34555 | 11.82949 | 52° | 53km/h | 33399m | 6.8m/s | -40°C | 2.1% | 7.6hPa | 2.7V | 03:14:13 | 02:42:19 | 00:00:00 | |
| HSKMA3-T | 2026-09-05 12:33:01 | 52.34575 | 11.82991 | 77° | 24km/h | 33421m | 7.2m/s | -39.6°C | 0% | 7.6hPa | 2.6V | 03:14:11 | 02:42:23 | 00:00:00 | |
| AA1-15 | 2026-09-05 12:33:00 | 52.34573 | 11.82982 | 55° | 22km/h | 33415m | 5.4m/s | -39.6°C | 0% | 7.6hPa | 2.7V | 03:14:11 | 02:42:22 | 00:00:00 | |
| DF8AY | 2026-09-05 12:32:59 | 52.34562 | 11.82964 | 49° | 40km/h | 33405m | 5.4m/s | -39.8°C | 0% | 7.6hPa | 2.7V | 03:15:02 | 02:42:20 | 00:00:00 | |
| DF7ER-10 | 2026-09-05 12:32:58 | 52.34562 | 11.82964 | 50° | 40km/h | 33405m | 5.4m/s | -39.8°C | 0.3% | 7.6hPa | 2.7V | 03:15:00 | 00:00:00 | 00:00:00 | |
| DO2SHX-10 | 2026-09-05 12:32:57 | 52.34555 | 11.82949 | 53° | 64km/h | 33400m | 6.8m/s | -39.9°C | 2.1% | 7.6hPa | 2.7V | 00:00:00 | 02:42:19 | 00:00:00 | |
| DD8BA-10 | 2026-09-05 12:32:56 | 52.34547 | 11.82929 | 59° | 58km/h | 33392m | 7.5m/s | -39.9°C | 2.2% | 7.6hPa | 2.6V | 03:14:00 | 00:00:00 | 00:00:00 | |
| DL1XH1-15 | 2026-09-05 12:32:55 | 52.34512 | 11.82769 | 74° | 40km/h | 33356m | 7.2m/s | -39.7°C | 2.2% | 7.7hPa | 2.6V | 03:14:20 | 02:42:12 | 00:00:00 | |
| DL1XH-west | 2026-09-05 12:32:55 | 52.34538 | 11.82903 | 65° | 75km/h | 33384m | 7.3m/s | -39.9°C | 0% | 7.7hPa | 2.6V | 03:15:02 | 02:42:17 | 00:00:00 | |
| DL1NUX | 2026-09-05 12:32:54 | 52.34524 | 11.82843 | 73° | 78km/h | 33373m | 4.8m/s | -39.7°C | 2.1% | 7.7hPa | 2.7V | 03:14:17 | 02:42:15 | 00:00:00 | |
| AA1-15 | 2026-09-05 12:32:50 | 52.34512 | 11.82769 | 74° | 40km/h | 33356m | 7.2m/s | -39.7°C | 0% | 7.7hPa | 2.6V | 03:15:02 | 02:42:12 | 00:00:00 | |
| GOEST3-10 | 2026-09-05 12:32:50 | 52.34512 | 11.82769 | 75° | 26km/h | 33356m | 7.2m/s | -39.7°C | 2.2% | 7.6hPa | 2.6V | 00:00:00 | 02:42:12 | 00:00:00 | |
| DL1XH-15 | 2026-09-05 12:32:49 | 52.34502 | 11.82747 | 11° | 18km/h | 33333m | 6.2m/s | -39.5°C | 2.1% | 7.7hPa | 2.7V | 03:14:23 | 02:42:09 | 00:00:00 | |
| DL1NUX | 2026-09-05 12:32:48 | 52.34476 | 11.82721 | 49° | 49km/h | 33308m | 7.2m/s | -39.3°C | 2.1% | 7.7hPa | 2.7V | 03:14:27 | 02:42:05 | 00:00:00 | |
| DF8AY | 2026-09-05 12:32:47 | 52.34502 | 11.82747 | 11° | 18km/h | 33333m | 6.2m/s | -39.5°C | 0% | 7.7hPa | 2.7V | 03:15:02 | 02:42:09 | 00:00:00 | |
| DL1XH-west | 2026-09-05 12:32:44 | 52.34483 | 11.82733 | 40° | 38km/h | 33315m | 6.6m/s | -39.5°C | 0% | 7.7hPa | 2.6V | 03:15:02 | 02:42:06 | 00:00:00 | |
| OE5DRO-10 | 2026-09-05 12:32:44 | 52.34483 | 11.82733 | 40° | 42km/h | 33315m | 6.5m/s | -39.4°C | 2.1% | 7.7hPa | 2.7V | 00:00:00 | 00:00:00 | 00:00:00 | |
| DC6BW-12 | 2026-09-05 12:32:43 | 52.34483 | 11.82733 | 41° | 38km/h | 33315m | 6.6m/s | -39.5°C | 0.3% | 7.7hPa | 2.7V | 03:15:00 | 00:00:00 | 00:00:00 | |
| DL1XH-15 | 2026-09-05 12:32:42 | 52.34439 | 11.82603 | 62° | 35km/h | 33268m | 6.8m/s | -39.5°C | 2.1% | 7.8hPa | 2.7V | 03:14:33 | 02:41:59 | 00:00:00 | |
| AA1-15 | 2026-09-05 12:32:39 | 52.34449 | 11.82638 | 68° | 55km/h | 33281m | 6.4m/s | -39.4°C | 0% | 7.8hPa | 2.6V | 03:15:02 | 02:42:01 | 00:00:00 | |
| DF8AY | 2026-09-05 12:32:36 | 52.34431 | 11.82586 | 32° | 22km/h | 33254m | 6.6m/s | -39.5°C | 0% | 7.8hPa | 2.6V | 03:15:02 | 02:41:57 | 00:00:00 | |
| DO2SHX-10 | 2026-09-05 12:32:36 | 52.34436 | 11.82592 | 54° | 24km/h | 33261m | 7.1m/s | -39.5°C | 2.1% | 7.7hPa | 2.6V | 00:00:00 | 02:41:58 | 00:00:00 | |
| DL1XH1-15 | 2026-09-05 12:32:35 | 52.34394 | 11.82558 | 39° | 49km/h | 33222m | 7.5m/s | -39.6°C | 2.1% | 7.8hPa | 2.6V | 03:14:40 | 02:41:52 | 00:00:00 | |
| DL1XH-west | 2026-09-05 12:32:33 | 52.34420 | 11.82580 | 14° | 29km/h | 33242m | 5.2m/s | -39.5°C | 0% | 7.8hPa | 2.7V | 03:15:02 | 02:41:55 | 00:00:00 | |
| AA1-15 | 2026-09-05 12:32:28 | 52.34377 | 11.82527 | 55° | 53km/h | 33209m | 5.4m/s | -39.9°C | 0% | 7.9hPa | 2.7V | 03:15:02 | 02:41:50 | 00:00:00 | |
| DL1XH-15 | 2026-09-05 12:32:28 | 52.34370 | 11.82509 | 59° | 49km/h | 33204m | 4.9m/s | -40.1°C | 2.2% | 7.8hPa | 2.7V | 03:14:43 | 02:41:49 | 00:00:00 | |
| DO3MHA-11 | 2026-09-05 12:32:28 | 52.34377 | 11.82527 | 55° | 26km/h | 33209m | 5.4m/s | -39.9°C | 2.1% | 7.8hPa | 2.7V | 03:14:00 | 02:41:50 | 00:00:00 | |
| DO2SHX-10 | 2026-09-05 12:32:27 | 52.34369 | 11.82509 | 60° | 38km/h | 33204m | 4.8m/s | -40.0°C | 2.2% | 7.8hPa | 2.7V | 00:00:00 | 02:41:49 | 00:00:00 | |
| DB0DAN | 2026-09-05 12:32:25 | 52.34361 | 11.82481 | 66° | 26km/h | 33192m | 7.3m/s | -40.1°C | 0.4% | 7.87hPa | 2.7V | 00:00:00 | 00:00:00 | 00:00:00 | |
| DL1XH1-15 | 2026-09-05 12:32:25 | 52.34349 | 11.82478 | 342° | 18km/h | 33159m | 4.9m/s | -40.1°C | 2.2% | 7.9hPa | 2.7V | 03:14:50 | 02:41:42 | 00:00:00 | |
| DF8AY | 2026-09-05 12:32:24 | 52.34358 | 11.82473 | 61° | 15km/h | 33184m | 7.8m/s | -40.1°C | 0% | 7.9hPa | 2.6V | 03:15:02 | 02:41:46 | 00:00:00 | |
| DL1XH-west | 2026-09-05 12:32:22 | 52.34355 | 11.82471 | 317° | 9km/h | 33170m | 6.3m/s | -40.1°C | 0% | 7.9hPa | 2.6V | 03:15:02 | 02:41:44 | 00:00:00 | |
| AA1-15 | 2026-09-05 12:32:18 | 52.34337 | 11.82476 | 22° | 31km/h | 33147m | 6.7m/s | -40.2°C | 0% | 7.9hPa | 2.6V | 03:15:02 | 02:41:40 | 00:00:00 | |
| HSKMA3-T | 2026-09-05 12:32:17 | 52.34330 | 11.82469 | 34° | 37km/h | 33140m | 7.3m/s | -40.1°C | 0% | 7.9hPa | 2.6V | 03:15:02 | 02:41:39 | 00:00:00 | |
| DB0UT-7 | 2026-09-05 12:32:17 | 52.34330 | 11.82469 | 35° | 31km/h | 33141m | 7.3m/s | -40.1°C | 2.2% | 7.9hPa | 2.7V | 03:14:00 | 02:41:39 | 00:00:00 | |
| DL1XH1-15 | 2026-09-05 12:32:15 | 52.34283 | 11.82400 | 16° | 24km/h | 33096m | 6.7m/s | -40.3°C | 2.2% | 8hPa | 2.7V | 03:15:00 | 02:41:32 | 00:00:00 | |
| DF8AY | 2026-09-05 12:32:13 | 52.34301 | 11.82421 | 46° | 38km/h | 33115m | 5.6m/s | -40.1°C | 0% | 8hPa | 2.6V | 03:15:02 | 02:41:35 | 00:00:00 | |
| DF8AY-15 | 2026-09-05 12:32:13 | 52.34301 | 11.82421 | 46° | 29km/h | 33115m | 5.5m/s | -40.0°C | 2.2% | 7.9hPa | 2.6V | 00:00:00 | 02:41:35 | 00:00:00 | |
| DJ8HS-15 | 2026-09-05 12:32:12 | 52.34295 | 11.82411 | 40° | 29km/h | 33110m | 5.9m/s | -40.1°C | 2.2% | 7.9hPa | 2.6V | 00:00:00 | 02:41:34 | 00:00:00 | |
| DL1XH-west | 2026-09-05 12:32:12 | 52.34295 | 11.82411 | 39° | 31km/h | 33109m | 5.9m/s | -40.2°C | 0% | 8hPa | 2.6V | 03:15:02 | 02:41:34 | 00:00:00 | |
| SMARD9-15 | 2026-09-05 12:32:11 | 52.34289 | 11.82405 | 27° | 27km/h | 33103m | 6.7m/s | -40.2°C | 0.3% | 8.0hPa | 2.7V | 00:00:00 | 00:00:00 | 00:00:00 | |
| GOEST3-10 | 2026-09-05 12:32:10 | 52.34283 | 11.82400 | 17° | 18km/h | 33097m | 6.6m/s | -40.2°C | 2.2% | 7.9hPa | 2.7V | 00:00:00 | 02:41:32 | 00:00:00 | |
| SO1NDE-10 | 2026-09-05 12:32:09 | 52.34277 | 11.82398 | 10° | 29km/h | 33090m | 5.9m/s | -40.1°C | 2.2% | 7.9hPa | 2.7V | 00:00:00 | 02:41:31 | 00:00:00 | |
| DL1XH-15 | 2026-09-05 12:32:08 | 52.34269 | 11.82395 | 26° | 15km/h | 33078m | 6.2m/s | -40.2°C | 2.2% | 8hPa | 2.6V | 03:15:03 | 02:41:29 | 00:00:00 | |
| AA1-15 | 2026-09-05 12:32:07 | 52.34268 | 11.82395 | 26° | 15km/h | 33078m | 6.2m/s | -40.2°C | 0% | 8hPa | 2.6V | 03:15:53 | 02:41:29 | 00:00:00 | |
| HSKMA3-T | 2026-09-05 12:32:06 | 52.34266 | 11.82391 | 56° | 15km/h | 33071m | 7m/s | -40.2°C | 0% | 8hPa | 2.7V | 03:15:53 | 02:41:28 | 00:00:00 | |
| DM0DOS-11 | 2026-09-05 12:32:05 | 52.34263 | 11.82365 | 84° | 29km/h | 33052m | 4.9m/s | -40.2°C | 2.2% | 8hPa | 2.6V | 03:15:07 | 02:41:25 | 00:00:00 | |
| DF8AY | 2026-09-05 12:32:02 | 52.34227 | 11.82312 | 13° | 40km/h | 33015m | 5m/s | -40.3°C | 0% | 8.1hPa | 2.6V | 03:15:53 | 02:41:19 | 00:00:00 | |
| DL1XH-west | 2026-09-05 12:32:01 | 52.34259 | 11.82341 | 59° | 31km/h | 33042m | 5.5m/s | -40.2°C | 0% | 8hPa | 2.7V | 03:15:53 | 02:41:23 | 00:00:00 | |
| AA1-15 | 2026-09-05 12:31:56 | 52.34218 | 11.82308 | 17° | 37km/h | 33010m | 4.7m/s | -40.3°C | 0% | 8.1hPa | 2.6V | 03:15:53 | 02:41:18 | 00:00:00 | |
| HARRO8 | 2026-09-05 12:31:56 | 52.34210 | 11.82303 | 29° | 31km/h | 33005m | 5.4m/s | 0°C | -1.0% | -1.0hPa | 2.6V | 00:00:00 | 00:00:00 | 00:00:00 | |
| DB0DAN | 2026-09-05 12:31:55 | 52.34210 | 11.82303 | 29° | 31km/h | 33005m | 5.4m/s | -40.4°C | 0.3% | 8.1hPa | 2.6V | 00:00:00 | 00:00:00 | 00:00:00 | |
| HSKMA3-T | 2026-09-05 12:31:55 | 52.34210 | 11.82303 | 29° | 31km/h | 33005m | 5.4m/s | -40.4°C | 0% | 8.1hPa | 2.6V | 03:15:53 | 02:41:17 | 00:00:00 | |
| DM0DOS-11 | 2026-09-05 12:31:55 | 52.34200 | 11.82285 | 65° | 31km/h | 32992m | 6.8m/s | -40.3°C | 2.2% | 8.1hPa | 2.7V | 03:15:17 | 02:41:15 | 00:00:00 | |
| DL1XH1-15 | 2026-09-05 12:31:55 | 52.34194 | 11.82244 | 80° | 33km/h | 32974m | 5.7m/s | -40.2°C | 2.2% | 8.1hPa | 2.6V | 03:15:20 | 02:41:12 | 00:00:00 | |
| DF8AY | 2026-09-05 12:31:52 | 52.34197 | 11.82272 | 78° | 35km/h | 32986m | 6.3m/s | -40.3°C | 0% | 8.1hPa | 2.7V | 03:15:53 | 02:41:14 | 00:00:00 | |
| DL1XH-west | 2026-09-05 12:31:50 | 52.34194 | 11.82244 | 80° | 33km/h | 32974m | 5.7m/s | -40.2°C | 0% | 8.1hPa | 2.6V | 03:15:53 | 02:41:12 | 00:00:00 | |
| AA1-15 | 2026-09-05 12:31:46 | 52.34182 | 11.82211 | 21° | 20km/h | 32949m | 6.3m/s | -40.3°C | 0% | 8.2hPa | 2.6V | 03:15:53 | 02:41:08 | 00:00:00 | |
| DM0DOS-11 | 2026-09-05 12:31:45 | 52.34166 | 11.82200 | 32° | 27km/h | 32932m | 6.1m/s | -40.3°C | 2.2% | 8.2hPa | 2.7V | 03:15:27 | 02:41:05 | 00:00:00 | |
| DL1XH1-15 | 2026-09-05 12:31:45 | 52.34148 | 11.82166 | 58° | 47km/h | 32912m | 6.1m/s | -40.1°C | 2.2% | 8.2hPa | 2.6V | 03:15:30 | 02:41:02 | 00:00:00 | |
| HSKMA3-T | 2026-09-05 12:31:44 | 52.34172 | 11.82205 | 20° | 24km/h | 32938m | 5.8m/s | -40.3°C | 0% | 8.2hPa | 2.7V | 03:15:53 | 02:41:06 | 00:00:00 | |
| DF8AY | 2026-09-05 12:31:41 | 52.34154 | 11.82181 | 55° | 40km/h | 32919m | 6.7m/s | -40.1°C | 0% | 8.2hPa | 2.6V | 03:15:53 | 02:41:03 | 00:00:00 | |
| DL1XH-west | 2026-09-05 12:31:40 | 52.34148 | 11.82166 | 59° | 47km/h | 32912m | 6.1m/s | -40.1°C | 0% | 8.2hPa | 2.6V | 03:15:53 | 02:41:02 | 00:00:00 | |
| AA1-15 | 2026-09-05 12:31:35 | 52.34113 | 11.82090 | 38° | 37km/h | 32882m | 5.8m/s | -40°C | 0% | 8.2hPa | 2.6V | 03:15:53 | 02:40:57 | 00:00:00 | |
| DM0DOS-11 | 2026-09-05 12:31:35 | 52.34100 | 11.82075 | 37° | 27km/h | 32871m | 5.8m/s | -40.2°C | 2.2% | 8.2hPa | 2.6V | 03:15:37 | 02:40:55 | 00:00:00 | |
| DL1XH1-15 | 2026-09-05 12:31:35 | 52.34090 | 11.82051 | 73° | 26km/h | 32852m | 6.2m/s | -39.9°C | 2.2% | 8.3hPa | 2.7V | 03:15:40 | 02:40:52 | 00:00:00 | |
| HSKMA3-T | 2026-09-05 12:31:33 | 52.34100 | 11.82075 | 38° | 27km/h | 32871m | 5.8m/s | -40.2°C | 0% | 8.2hPa | 2.6V | 03:15:53 | 02:40:55 | 00:00:00 | |
| DF8AY | 2026-09-05 12:31:31 | 52.34092 | 11.82060 | 63° | 24km/h | 32858m | 6.7m/s | -40°C | 0% | 8.3hPa | 2.7V | 03:15:53 | 02:40:53 | 00:00:00 | |
| DL1XH-west | 2026-09-05 12:31:30 | 52.34090 | 11.82051 | 74° | 26km/h | 32852m | 6.2m/s | -39.9°C | 0% | 8.3hPa | 2.7V | 03:15:53 | 02:40:52 | 00:00:00 | |
| DL1XH-15 | 2026-09-05 12:31:29 | 52.34083 | 11.82018 | 62° | 29km/h | 32835m | 5.7m/s | -40.2°C | 2.2% | 8.3hPa | 2.7V | 03:15:43 | 02:40:49 | 00:00:00 | |
| DO2SHX-10 | 2026-09-05 12:31:29 | 52.34088 | 11.82040 | 75° | 29km/h | 32846m | 5.3m/s | -39.9°C | 2.2% | 8.2hPa | 2.6V | 03:15:00 | 02:40:51 | 00:00:00 | |
| SP3WXH-11 | 2026-09-05 12:31:28 | 52.34083 | 11.82018 | 62° | 29km/h | 32836m | 5.7m/s | -40.2°C | 0.3% | 8.3hPa | 2.6V | 00:00:00 | 00:00:00 | 00:00:00 | |
| DM0DOS-11 | 2026-09-05 12:31:27 | 52.34060 | 11.81984 | 30° | 35km/h | 32811m | 4.6m/s | -40.3°C | 2.2% | 8.3hPa | 2.6V | 03:15:47 | 02:40:45 | 00:00:00 | |
| AA1-15 | 2026-09-05 12:31:25 | 52.34074 | 11.81999 | 40° | 31km/h | 32822m | 6.6m/s | -40.3°C | 0% | 8.3hPa | 2.7V | 03:15:53 | 02:40:47 | 00:00:00 | |
| HSKMA3-T | 2026-09-05 12:31:23 | 52.34060 | 11.81984 | 31° | 35km/h | 32811m | 4.6m/s | -40.3°C | 0% | 8.3hPa | 2.6V | 03:15:53 | 02:40:45 | 00:00:00 | |
| DL1XH1-15 | 2026-09-05 12:31:23 | 52.34042 | 11.81958 | 59° | 29km/h | 32794m | 6.9m/s | -40.7°C | 2.2% | 8.3hPa | 2.7V | 03:15:50 | 02:40:42 | 00:00:00 | |
| DF8AY | 2026-09-05 12:31:21 | 52.34046 | 11.81968 | 44° | 31km/h | 32800m | 6.7m/s | -40.6°C | 0% | 8.3hPa | 2.7V | 03:15:53 | 02:40:43 | 00:00:00 | |
| DL1XH-west | 2026-09-05 12:31:19 | 52.34038 | 11.81947 | 71° | 29km/h | 32787m | 6.3m/s | -40.8°C | 0% | 8.4hPa | 2.7V | 03:15:53 | 02:40:41 | 00:00:00 | |
| DC6BW-12 | 2026-09-05 12:31:19 | 52.34038 | 11.81947 | 72° | 29km/h | 32788m | 6.3m/s | -40.8°C | 0.4% | 8.4hPa | 2.7V | 00:00:00 | 00:00:00 | 00:00:00 | |
| DO3MHA-11 | 2026-09-05 12:31:18 | 52.34036 | 11.81936 | 80° | 22km/h | 32782m | 5.5m/s | -40.8°C | 2.3% | 8.3hPa | 2.7V | 00:00:00 | 02:40:40 | 00:00:00 | |
| DJ2DS-15 | 2026-09-05 12:31:17 | 52.34035 | 11.81917 | 77° | 18km/h | 32770m | 6.6m/s | -40.6°C | 0.3% | 8.4hPa | 2.7V | 00:00:00 | 00:00:00 | 00:00:00 | |
| DC4HF-4 | 2026-09-05 12:31:15 | 52.34031 | 11.81905 | 50° | 15km/h | 32757m | 5.6m/s | -40.5°C | 0.3% | 8.4hPa | 2.7V | 00:00:00 | 00:00:00 | 00:00:00 | |
| DL1XH1-15 | 2026-09-05 12:31:14 | 52.34020 | 11.81878 | 66° | 26km/h | 32734m | 6.2m/s | -40.8°C | 2.2% | 8.4hPa | 2.7V | 03:16:00 | 02:40:32 | 00:00:00 | |
| HSKMA3-T | 2026-09-05 12:31:13 | 52.34026 | 11.81894 | 51° | 20km/h | 32746m | 5.5m/s | -40.6°C | 0% | 8.4hPa | 2.6V | 03:16:44 | 02:40:34 | 00:00:00 | |
| DJ8HS-15 | 2026-09-05 12:31:12 | 52.34025 | 11.81894 | 52° | 24km/h | 32747m | 5.4m/s | -40.6°C | 2.2% | 8.3hPa | 2.6V | 03:15:00 | 02:40:34 | 00:00:00 | |
| DB0DAN | 2026-09-05 12:31:10 | 52.34020 | 11.81878 | 67° | 26km/h | 32734m | 6.2m/s | -40.8°C | 0.3% | 8.42hPa | 2.7V | 00:00:00 | 00:00:00 | 00:00:00 | |
| DF8AY | 2026-09-05 12:31:10 | 52.34020 | 11.81878 | 67° | 26km/h | 32734m | 6.2m/s | -40.8°C | 0% | 8.4hPa | 2.7V | 03:16:44 | 02:40:32 | 00:00:00 | |
| DL1XH-west | 2026-09-05 12:31:08 | 52.34015 | 11.81857 | 71° | 27km/h | 32723m | 5.1m/s | -41°C | 0% | 8.4hPa | 2.7V | 03:16:44 | 02:40:30 | 00:00:00 | |
| DO2SHX-10 | 2026-09-05 12:31:08 | 52.34015 | 11.81856 | 71° | 26km/h | 32723m | 5.1m/s | -41.0°C | 2.3% | 8.4hPa | 2.7V | 00:00:00 | 02:40:30 | 00:00:00 | |
| S3001 | 2026-09-05 12:31:06 | 52.34007 | 11.81831 | 44° | 16km/h | 32705m | 6.2m/s | -41.0°C | 0.4% | 8.4hPa | 2.6V | 00:00:00 | 00:00:00 | 00:00:00 | |
| DL1XH1-15 | 2026-09-05 12:31:05 | 52.33995 | 11.81808 | 78° | 20km/h | 32677m | 6.4m/s | -40.8°C | 2.4% | 8.5hPa | 2.6V | 03:16:10 | 02:40:22 | 00:00:00 | |
| DO2SHX-10 | 2026-09-05 12:31:05 | 52.34007 | 11.81831 | 45° | 15km/h | 32705m | 6.2m/s | -40.9°C | 2.4% | 8.4hPa | 2.7V | 03:16:00 | 02:40:27 | 00:00:00 | |
| DM0DOS-11 | 2026-09-05 12:31:04 | 52.34001 | 11.81824 | 33° | 13km/h | 32693m | 5m/s | -40.8°C | 2.4% | 8.4hPa | 2.7V | 03:16:07 | 02:40:25 | 00:00:00 | |
| AA1-15 | 2026-09-05 12:31:02 | 52.33999 | 11.81821 | 50° | 13km/h | 32689m | 4.9m/s | -40.7°C | 0% | 8.5hPa | 2.7V | 03:16:44 | 02:40:24 | 00:00:00 | |
| DL1XH-15 | 2026-09-05 12:31:02 | 52.33990 | 11.81778 | 61° | 29km/h | 32660m | 5.6m/s | -40.8°C | 2.4% | 8.5hPa | 2.7V | 03:16:13 | 02:40:19 | 00:00:00 | |
| HSKMA3-T | 2026-09-05 12:31:01 | 52.33997 | 11.81816 | 69° | 16km/h | 32683m | 6.4m/s | -40.7°C | 0% | 8.5hPa | 2.7V | 03:16:44 | 02:40:23 | 00:00:00 | |
| DF8AY | 2026-09-05 12:30:59 | 52.33967 | 11.81748 | 27° | 31km/h | 32638m | 4.8m/s | -40.6°C | 0% | 8.5hPa | 2.6V | 03:16:44 | 02:40:15 | 00:00:00 | |
| DO2SHX-10 | 2026-09-05 12:30:59 | 52.33994 | 11.81799 | 80° | 27km/h | 32671m | 5.2m/s | -40.7°C | 2.4% | 8.5hPa | 2.6V | 00:00:00 | 02:40:21 | 00:00:00 | |
| DO3MHA-11 | 2026-09-05 12:30:58 | 52.33993 | 11.81788 | 72° | 27km/h | 32666m | 4.9m/s | -40.8°C | 2.4% | 8.5hPa | 2.6V | 00:00:00 | 02:40:20 | 00:00:00 | |
| DM0DOS-11 | 2026-09-05 12:30:57 | 52.33967 | 11.81748 | 26° | 31km/h | 32638m | 4.8m/s | -40.6°C | 2.3% | 8.5hPa | 2.6V | 03:16:17 | 02:40:15 | 00:00:00 | |
| DL1XH-west | 2026-09-05 12:30:57 | 52.33990 | 11.81778 | 61° | 29km/h | 32661m | 5.6m/s | -40.8°C | 0% | 8.5hPa | 2.7V | 03:16:44 | 02:40:19 | 00:00:00 | |
| SP3WXH-11 | 2026-09-05 12:30:57 | 52.33986 | 11.81768 | 49° | 29km/h | 32654m | 6.9m/s | -40.6°C | 0.4% | 8.5hPa | 2.7V | 00:00:00 | 00:00:00 | 00:00:00 | |
| DO2SHX-10 | 2026-09-05 12:30:56 | 52.33986 | 11.81768 | 50° | 29km/h | 32654m | 6.8m/s | -40.6°C | 2.4% | 8.5hPa | 2.7V | 00:00:00 | 02:40:18 | 00:00:00 | |
| GOEST3-10 | 2026-09-05 12:30:55 | 52.33980 | 11.81760 | 37° | 29km/h | 32648m | 6.0m/s | -40.5°C | 2.3% | 8.5hPa | 2.7V | 00:00:00 | 00:00:00 | 00:00:00 | |
| DD8BA-10 | 2026-09-05 12:30:54 | 52.33974 | 11.81753 | 29° | 24km/h | 32643m | 4.8m/s | -40.5°C | 2.4% | 8.5hPa | 2.7V | 03:16:00 | 00:00:00 | 00:00:00 | |
| DO2SHX-10 | 2026-09-05 12:30:53 | 52.33967 | 11.81747 | 27° | 27km/h | 32638m | 4.8m/s | -40.5°C | 2.3% | 8.5hPa | 2.7V | 03:16:00 | 02:40:15 | 00:00:00 | |
| DL1XH1-15 | 2026-09-05 12:30:52 | 52.33951 | 11.81728 | 53° | 24km/h | 32621m | 6.2m/s | -40.7°C | 2.3% | 8.6hPa | 2.7V | 03:16:20 | 02:40:12 | 00:00:00 | |
| AA1-15 | 2026-09-05 12:30:51 | 52.33955 | 11.81735 | 39° | 26km/h | 32627m | 6.3m/s | -40.7°C | 0% | 8.6hPa | 2.7V | 03:16:44 | 02:40:13 | 00:00:00 | |
| HSKMA3-T | 2026-09-05 12:30:50 | 52.33951 | 11.81728 | 53° | 24km/h | 32621m | 6.2m/s | -40.7°C | 0% | 8.6hPa | 2.7V | 03:16:44 | 02:40:12 | 00:00:00 | |
| HTAHTA | 2026-09-05 12:30:50 | 52.33948 | 11.81720 | 62° | 22km/h | 32615m | 5.6m/s | -40.7°C | -1.0% | -1.0hPa | 2.6V | 00:00:00 | 00:00:00 | 00:00:00 | |
| DL1XH-15 | 2026-09-05 12:30:49 | 52.33944 | 11.81705 | 65° | 16km/h | 32605m | 4.2m/s | -40.7°C | 2.3% | 8.6hPa | 2.6V | 03:16:23 | 02:40:09 | 00:00:00 | |
| DF8AY | 2026-09-05 12:30:46 | 52.33942 | 11.81699 | 53° | 13km/h | 32600m | 5.4m/s | -40.8°C | 0% | 8.6hPa | 2.7V | 03:16:44 | 02:40:08 | 00:00:00 | |
| GOEST3-10 | 2026-09-05 12:30:45 | 52.33939 | 11.81696 | 24° | 18km/h | 32594m | 6.6m/s | -40.8°C | 2.3% | 8.5hPa | 2.6V | 03:16:00 | 00:00:00 | 00:00:00 | |
| DL1XH1-15 | 2026-09-05 12:30:44 | 52.33915 | 11.81689 | 33° | 26km/h | 32565m | 6.2m/s | -40.7°C | 2.3% | 8.6hPa | 2.6V | 03:16:30 | 02:40:02 | 00:00:00 | |
| DM0DOS-11 | 2026-09-05 12:30:44 | 52.33931 | 11.81695 | 356° | 20km/h | 32581m | 5.6m/s | -40.9°C | 2.4% | 8.6hPa | 2.7V | 03:16:27 | 02:40:05 | 00:00:00 | |
| DO2SHX-10 | 2026-09-05 12:30:44 | 52.33935 | 11.81695 | 2° | 18km/h | 32588m | 6.7m/s | -40.8°C | 2.3% | 8.6hPa | 2.7V | 00:00:00 | 02:40:06 | 00:00:00 | |
| OE5DRO-10 | 2026-09-05 12:30:43 | 52.33931 | 11.81695 | 357° | 24km/h | 32582m | 5.6m/s | -40.8°C | 2.4% | 8.6hPa | 2.7V | 03:16:00 | 00:00:00 | 00:00:00 | |
| DL1XH-15 | 2026-09-05 12:30:42 | 52.33898 | 11.81663 | 44° | 35km/h | 32548m | 5.9m/s | -40.8°C | 2.3% | 8.7hPa | 2.7V | 03:16:33 | 02:39:59 | 00:00:00 | |
| AA1-15 | 2026-09-05 12:30:40 | 52.33915 | 11.81689 | 34° | 26km/h | 32565m | 6.2m/s | -40.7°C | 0% | 8.7hPa | 2.6V | 03:16:44 | 02:40:02 | 00:00:00 | |
| HSKMA3-T | 2026-09-05 12:30:39 | 52.33910 | 11.81682 | 43° | 29km/h | 32559m | 5.6m/s | -40.7°C | 0% | 8.7hPa | 2.7V | 03:16:44 | 02:40:01 | 00:00:00 | |
| DC4HF-4 | 2026-09-05 12:30:39 | 52.33904 | 11.81673 | 46° | 31km/h | 32554m | 5.0m/s | -40.7°C | 0.3% | 8.7hPa | 2.7V | 00:00:00 | 00:00:00 | 00:00:00 | |
| DL1NUX | 2026-09-05 12:30:38 | 52.33875 | 11.81634 | 37° | 20km/h | 32525m | 5.6m/s | -40.9°C | 2.3% | 8.7hPa | 2.7V | 03:16:37 | 02:39:55 | 00:00:00 | |
| DL1XH-west | 2026-09-05 12:30:36 | 52.33892 | 11.81654 | 40° | 33km/h | 32542m | 6.3m/s | -40.8°C | 0% | 8.7hPa | 2.6V | 03:16:44 | 02:39:58 | 00:00:00 | |
| DF8AY | 2026-09-05 12:30:35 | 52.33886 | 11.81646 | 35° | 31km/h | 32536m | 5.9m/s | -40.9°C | 0% | 8.7hPa | 2.6V | 03:16:44 | 02:39:57 | 00:00:00 | |
| DO2SHX-10 | 2026-09-05 12:30:35 | 52.33886 | 11.81646 | 35° | 26km/h | 32536m | 5.8m/s | -40.8°C | 2.3% | 8.6hPa | 2.7V | 00:00:00 | 02:39:57 | 00:00:00 | |
| DL1ZP-14 | 2026-09-05 12:30:34 | 52.33875 | 11.81634 | 37° | 18km/h | 32525m | 5.6m/s | -40.9°C | 0.4% | 8.7hPa | 2.7V | 00:00:00 | 00:00:00 | 00:00:00 | |
| DF8AY-15 | 2026-09-05 12:30:33 | 52.33875 | 11.81634 | 38° | 26km/h | 32526m | 5.5m/s | -40.9°C | 2.3% | 8.6hPa | 2.6V | 00:00:00 | 02:39:55 | 00:00:00 | |
| DL1XH1-15 | 2026-09-05 12:30:32 | 52.33868 | 11.81623 | 39° | 7km/h | 32507m | 4.9m/s | -40.9°C | 2.3% | 8.7hPa | 2.6V | 03:16:40 | 02:39:52 | 00:00:00 | |
| DO2SHX-10 | 2026-09-05 12:30:32 | 52.33871 | 11.81629 | 46° | 11km/h | 32519m | 6.9m/s | -40.9°C | 2.3% | 8.6hPa | 2.7V | 00:00:00 | 02:39:54 | 00:00:00 | |
| GOEST3-10 | 2026-09-05 12:30:30 | 52.33868 | 11.81623 | 40° | 16km/h | 32507m | 4.9m/s | -40.9°C | 2.3% | 8.6hPa | 2.7V | 00:00:00 | 02:39:52 | 00:00:00 | |
| DL1XH-15 | 2026-09-05 12:30:29 | 52.33858 | 11.81622 | 356° | 22km/h | 32491m | 5.9m/s | -41°C | 2.3% | 8.8hPa | 2.7V | 03:16:43 | 02:39:49 | 00:00:00 | |
| HSKMA3-T | 2026-09-05 12:30:29 | 52.33866 | 11.81621 | 10° | 9km/h | 32502m | 4.7m/s | -40.9°C | 0% | 8.7hPa | 2.6V | 03:16:44 | 02:39:51 | 00:00:00 | |
| NBG1-10 | 2026-09-05 12:30:29 | 52.33863 | 11.81621 | 357° | 24km/h | 32497m | 5.6m/s | -40.9°C | 2.3% | 8.7hPa | 2.7V | 00:00:00 | 02:39:50 | 00:00:00 | |
| DO3MHA-11 | 2026-09-05 12:30:28 | 52.33863 | 11.81621 | 357° | 33km/h | 32497m | 5.6m/s | -40.9°C | 2.3% | 8.7hPa | 2.7V | 03:16:00 | 02:39:50 | 00:00:00 | |
| DB0DAN | 2026-09-05 12:30:25 | 52.33844 | 11.81620 | 12° | 33km/h | 32481m | 4.6m/s | -41°C | 0.3% | 8.73hPa | 2.7V | 00:00:00 | 00:00:00 | 00:00:00 | |
| DF8AY | 2026-09-05 12:30:25 | 52.33844 | 11.81620 | 12° | 35km/h | 32481m | 4.6m/s | -41°C | 0% | 8.7hPa | 2.7V | 03:18:26 | 02:39:47 | 00:00:00 | |
| GOEST3-10 | 2026-09-05 12:30:25 | 52.33844 | 11.81619 | 13° | 38km/h | 32481m | 4.6m/s | -40.9°C | 2.3% | 8.7hPa | 2.6V | 03:16:00 | 00:00:00 | 00:00:00 | |
| DD8BA-10 | 2026-09-05 12:30:24 | 52.33835 | 11.81615 | 23° | 33km/h | 32476m | 4.9m/s | -40.9°C | 2.3% | 8.7hPa | 2.6V | 00:00:00 | 00:00:00 | 00:00:00 | |
| DO2SHX-10 | 2026-09-05 12:30:23 | 52.33827 | 11.81607 | 33° | 40km/h | 32470m | 6.3m/s | -41.0°C | 2.3% | 8.7hPa | 2.6V | 00:00:00 | 02:39:45 | 00:00:00 | |
| DL1XH-15 | 2026-09-05 12:30:22 | 52.33780 | 11.81551 | 337° | 29km/h | 32425m | 5.6m/s | -41°C | 2.3% | 8.8hPa | 2.7V | 03:16:55 | 02:39:37 | 00:00:00 | |
| HSKMA3-T | 2026-09-05 12:30:18 | 52.33797 | 11.81552 | 41° | 24km/h | 32444m | 4.9m/s | -41.3°C | 0% | 8.8hPa | 2.6V | 03:17:35 | 02:39:40 | 00:00:00 | |
| DL1XH-west | 2026-09-05 12:30:16 | 52.33780 | 11.81551 | 338° | 29km/h | 32425m | 5.6m/s | -41°C | 0% | 8.8hPa | 2.7V | 03:17:35 | 02:39:37 | 00:00:00 | |
| DO2SHX-10 | 2026-09-05 12:30:14 | 52.33773 | 11.81556 | 339° | 33km/h | 32420m | 3.8m/s | -40.9°C | 2.3% | 8.7hPa | 2.7V | 00:00:00 | 02:39:36 | 00:00:00 | |
| DF8AY-15 | 2026-09-05 12:30:13 | 52.33765 | 11.81560 | 348° | 27km/h | 32416m | 4.0m/s | -40.9°C | 2.3% | 8.8hPa | 2.7V | 00:00:00 | 02:39:35 | 00:00:00 | |
| DJ8HS-15 | 2026-09-05 12:30:12 | 52.33757 | 11.81561 | 3° | 27km/h | 32411m | 5.7m/s | -40.9°C | 2.3% | 8.8hPa | 2.7V | 00:00:00 | 02:39:34 | 00:00:00 | |
| DB0DAN | 2026-09-05 12:30:10 | 52.33742 | 11.81551 | 37° | 35km/h | 32398m | 6.2m/s | -41°C | 0.3% | 8.84hPa | 2.6V | 00:00:00 | 00:00:00 | 00:00:00 | |
| GOEST3-10 | 2026-09-05 12:30:10 | 52.33742 | 11.81551 | 37° | 40km/h | 32399m | 6.1m/s | -40.9°C | 2.2% | 8.8hPa | 2.7V | 00:00:00 | 02:39:32 | 00:00:00 | |
| DL1XH-15 | 2026-09-05 12:30:09 | 52.33719 | 11.81516 | 42° | 40km/h | 32382m | 5.6m/s | -41.3°C | 2.3% | 8.8hPa | 2.7V | 03:17:03 | 02:39:29 | 00:00:00 | |
| HSKMA3-T | 2026-09-05 12:30:07 | 52.33719 | 11.81516 | 42° | 40km/h | 32382m | 5.6m/s | -41.3°C | 0% | 8.8hPa | 2.7V | 03:17:35 | 02:39:29 | 00:00:00 | |
| SMARD9-15 | 2026-09-05 12:30:07 | 52.33712 | 11.81507 | 34° | 35km/h | 32377m | 5.0m/s | -41.2°C | 0.4% | 8.9hPa | 2.7V | 00:00:00 | 00:00:00 | 00:00:00 | |
| DM0DOS-11 | 2026-09-05 12:30:06 | 52.33694 | 11.81498 | 348° | 18km/h | 32360m | 6.1m/s | -41.2°C | 2.3% | 8.9hPa | 2.7V | 03:17:07 | 02:39:25 | 00:00:00 | |
| DL1XH1-15 | 2026-09-05 12:30:05 | 52.33684 | 11.81506 | 331° | 11km/h | 32343m | 5.2m/s | -41.1°C | 2.3% | 8.9hPa | 2.7V | 03:17:10 | 02:39:22 | 00:00:00 | |
| DL1XH-west | 2026-09-05 12:30:05 | 52.33705 | 11.81500 | 23° | 29km/h | 32372m | 5.2m/s | -41.1°C | 0% | 8.9hPa | 2.6V | 03:17:35 | 02:39:27 | 00:00:00 | |
| DF8AY | 2026-09-05 12:30:04 | 52.33699 | 11.81498 | 6° | 22km/h | 32366m | 5.5m/s | -41.2°C | 0% | 8.9hPa | 2.6V | 03:18:26 | 02:39:26 | 00:00:00 | |
| DD8BA-10 | 2026-09-05 12:30:04 | 52.33699 | 11.81497 | 6° | 22km/h | 32367m | 5.4m/s | -41.1°C | 2.2% | 8.8hPa | 2.6V | 00:00:00 | 00:00:00 | 00:00:00 | |
| DB0NH | 2026-09-05 12:30:03 | 52.33693 | 11.81498 | 349° | 20km/h | 32361m | 6.0m/s | -41.2°C | 2.3% | 8.8hPa | 2.6V | 03:17:00 | 02:39:25 | 00:00:00 | |
| DL1XH-15 | 2026-09-05 12:30:02 | 52.33672 | 11.81506 | 6° | 22km/h | 32328m | 5.4m/s | -41.2°C | 2.2% | 8.9hPa | 2.6V | 03:17:13 | 02:39:19 | 00:00:00 | |
| HSKMA3-T | 2026-09-05 12:29:57 | 52.33672 | 11.81506 | 7° | 22km/h | 32328m | 5.4m/s | -41.2°C | 0% | 8.9hPa | 2.6V | 03:17:35 | 02:39:19 | 00:00:00 | |
| DM0DOS-11 | 2026-09-05 12:29:56 | 52.33640 | 11.81499 | 12° | 37km/h | 32305m | 4.5m/s | -41.3°C | 2.3% | 9hPa | 2.7V | 03:17:17 | 02:39:15 | 00:00:00 | |
| DB0DAN | 2026-09-05 12:29:55 | 52.33658 | 11.81504 | 6° | 33km/h | 32316m | 6.3m/s | -41.2°C | 0.3% | 8.97hPa | 2.7V | 00:00:00 | 00:00:00 | 00:00:00 | |
| DL1XH1-15 | 2026-09-05 12:29:55 | 52.33621 | 11.81485 | 45° | 16km/h | 32290m | 5.4m/s | -41.3°C | 2.3% | 9hPa | 2.6V | 03:17:20 | 02:39:12 | 00:00:00 | |
| DL1XH-west | 2026-09-05 12:29:54 | 52.33649 | 11.81502 | 8° | 37km/h | 32310m | 5.1m/s | -41.2°C | 0% | 8.9hPa | 2.7V | 03:17:35 | 02:39:16 | 00:00:00 | |
| DF8AY | 2026-09-05 12:29:53 | 52.33640 | 11.81499 | 12° | 37km/h | 32305m | 4.5m/s | -41.3°C | 0% | 9hPa | 2.7V | 03:18:26 | 02:39:15 | 00:00:00 | |
| HSKMA3-T | 2026-09-05 12:29:46 | 52.33621 | 11.81486 | 260° | 16km/h | 32267m | 6.7m/s | -41.3°C | 0% | 9hPa | 2.6V | 03:17:35 | 02:39:08 | 00:00:00 | |
| DL1XH1-15 | 2026-09-05 12:29:45 | 52.33607 | 11.81511 | 36° | 26km/h | 32234m | 6.6m/s | -41.5°C | 2.2% | 9.1hPa | 2.6V | 03:17:30 | 02:39:02 | 00:00:00 | |
| DB0UT-7 | 2026-09-05 12:29:45 | 52.33621 | 11.81493 | 272° | 20km/h | 32261m | 5.1m/s | -41.2°C | 2.2% | 9.0hPa | 2.7V | 00:00:00 | 00:00:00 | 00:00:00 | |
| DM0DOS-11 | 2026-09-05 12:29:44 | 52.33619 | 11.81510 | 304° | 18km/h | 32252m | 4m/s | -41.4°C | 2.2% | 9.1hPa | 2.7V | 03:17:27 | 02:39:05 | 00:00:00 | |
| DL1XH-west | 2026-09-05 12:29:43 | 52.33618 | 11.81510 | 304° | 18km/h | 32252m | 4m/s | -41.4°C | 0% | 9.1hPa | 2.7V | 03:17:35 | 02:39:05 | 00:00:00 | |
| DF8AY | 2026-09-05 12:29:42 | 52.33615 | 11.81514 | 333° | 15km/h | 32247m | 6.4m/s | -41.4°C | 0% | 9hPa | 2.7V | 03:18:26 | 02:39:04 | 00:00:00 | |
| DO2SHX-10 | 2026-09-05 12:29:41 | 52.33611 | 11.81514 | 14° | 26km/h | 32241m | 7.2m/s | -41.4°C | 2.3% | 9.0hPa | 2.7V | 03:17:00 | 02:39:03 | 00:00:00 | |
| DL1CLM-18 | 2026-09-05 12:29:40 | 52.33611 | 11.81514 | 15° | 18km/h | 32241m | 7.3m/s | -41.4°C | 0.4% | 9.1hPa | 2.7V | 00:00:00 | 00:00:00 | 00:00:00 | |
| DL1XH-15 | 2026-09-05 12:29:39 | 52.33591 | 11.81486 | 40° | 26km/h | 32219m | 3.7m/s | -41.6°C | 2.3% | 9.1hPa | 2.7V | 03:17:33 | 02:38:59 | 00:00:00 | |
| SO1NDE-10 | 2026-09-05 12:29:39 | 52.33601 | 11.81503 | 46° | 18km/h | 32228m | 5.2m/s | -41.6°C | 2.2% | 9.0hPa | 2.6V | 00:00:00 | 02:39:01 | 00:00:00 | |
| DO2SHX-10 | 2026-09-05 12:29:38 | 52.33596 | 11.81494 | 46° | 26km/h | 32223m | 4.0m/s | -41.7°C | 2.3% | 9.0hPa | 2.6V | 00:00:00 | 02:39:00 | 00:00:00 | |
| DL1NUX | 2026-09-05 12:29:37 | 52.33580 | 11.81492 | 264° | 22km/h | 32197m | 6m/s | -41.6°C | 2.2% | 9.1hPa | 2.6V | 03:17:37 | 02:38:55 | 00:00:00 | |
| HSKMA3-T | 2026-09-05 12:29:36 | 52.33586 | 11.81481 | 25° | 18km/h | 32215m | 5.2m/s | -41.6°C | 0% | 9.1hPa | 2.7V | 03:17:35 | 02:38:58 | 00:00:00 | |
| SMARD9-15 | 2026-09-05 12:29:36 | 52.33582 | 11.81480 | 343° | 13km/h | 32209m | 6.2m/s | -41.6°C | 0.4% | 9.1hPa | 2.7V | 00:00:00 | 00:00:00 | 00:00:00 | |
| DL1XH1-15 | 2026-09-05 12:29:35 | 52.33589 | 11.81520 | 217° | 26km/h | 32180m | 6m/s | -41.6°C | 2.2% | 9.1hPa | 2.7V | 03:17:40 | 02:38:52 | 00:00:00 | |
| DL1XH-west | 2026-09-05 12:29:33 | 52.33580 | 11.81492 | 264° | 22km/h | 32197m | 6m/s | -41.7°C | 0% | 9.1hPa | 2.6V | 03:18:26 | 02:38:55 | 00:00:00 | |
| DF8AY | 2026-09-05 12:29:31 | 52.33584 | 11.81512 | 234° | 27km/h | 32186m | 5.6m/s | -41.7°C | 0% | 9.1hPa | 2.6V | 03:18:26 | 02:38:53 | 00:00:00 | |
| DO2SHX-10 | 2026-09-05 12:29:29 | 52.33595 | 11.81524 | 196° | 18km/h | 32174m | 5.3m/s | -41.6°C | 2.2% | 9.1hPa | 2.7V | 03:17:00 | 02:38:51 | 00:00:00 | |
| DL1XH-15 | 2026-09-05 12:29:28 | 52.33603 | 11.81523 | 139° | 15km/h | 32165m | 4.8m/s | -41.9°C | 2.2% | 9.1hPa | 2.7V | 03:17:43 | 02:38:49 | 00:00:00 | |
| AA1-15 | 2026-09-05 12:29:26 | 52.33604 | 11.81514 | 56° | 15km/h | 32152m | 7.2m/s | -42.1°C | 0% | 9.2hPa | 2.6V | 03:18:26 | 02:38:47 | 00:00:00 | |
| DM0DOS-11 | 2026-09-05 12:29:26 | 52.33596 | 11.81505 | 23° | 22km/h | 32140m | 5.2m/s | -42.3°C | 2.3% | 9.2hPa | 2.7V | 03:17:47 | 02:38:45 | 00:00:00 | |
| HSKMA3-T | 2026-09-05 12:29:26 | 52.33605 | 11.81518 | 100° | 11km/h | 32159m | 6.5m/s | -42°C | 0% | 9.2hPa | 2.6V | 03:18:26 | 02:38:48 | 00:00:00 | |
| DL1XH-west | 2026-09-05 12:29:23 | 52.33596 | 11.81505 | 23° | 22km/h | 32140m | 5.2m/s | -42.3°C | 0% | 9.2hPa | 2.7V | 03:18:26 | 02:38:45 | 00:00:00 | |
| DL1XH1-15 | 2026-09-05 12:29:21 | 52.33584 | 11.81497 | 30° | 7km/h | 32125m | 5.8m/s | -42°C | 2.3% | 9.2hPa | 2.6V | 03:17:50 | 02:38:42 | 00:00:00 | |
| DF8AY | 2026-09-05 12:29:20 | 52.33585 | 11.81495 | 181° | 11km/h | 32113m | 5.8m/s | -42.1°C | 0% | 9.2hPa | 2.7V | 03:18:26 | 02:38:40 | 00:00:00 | |
| DO2SHX-10 | 2026-09-05 12:29:20 | 52.33584 | 11.81497 | 31° | 7km/h | 32125m | 5.8m/s | -42.0°C | 2.3% | 9.1hPa | 2.6V | 00:00:00 | 02:38:42 | 00:00:00 | |
| DL1XH-15 | 2026-09-05 12:29:19 | 52.33589 | 11.81496 | 193° | 16km/h | 32107m | 5.7m/s | -42.1°C | 2.3% | 9.2hPa | 2.7V | 03:17:53 | 02:38:39 | 00:00:00 | |
| GOEST3-10 | 2026-09-05 12:29:19 | 52.33583 | 11.81496 | 138° | 15km/h | 32119m | 5.8m/s | -41.9°C | 2.3% | 9.2hPa | 2.6V | 00:00:00 | 02:38:41 | 00:00:00 | |
| OE5DRO-10 | 2026-09-05 12:29:18 | 52.33585 | 11.81495 | 182° | 16km/h | 32113m | 5.7m/s | -42.0°C | 2.3% | 9.2hPa | 2.7V | 03:17:00 | 00:00:00 | 00:00:00 | |
| DO2SHX-10 | 2026-09-05 12:29:17 | 52.33589 | 11.81496 | 194° | 20km/h | 32108m | 5.7m/s | -42.1°C | 2.3% | 9.2hPa | 2.6V | 03:17:00 | 02:38:39 | 00:00:00 | |
| DM0DOS-11 | 2026-09-05 12:29:16 | 52.33605 | 11.81515 | 240° | 16km/h | 32084m | 4.8m/s | -42.5°C | 2.3% | 9.3hPa | 2.6V | 03:17:57 | 02:38:35 | 00:00:00 | |
| HSKMA3-T | 2026-09-05 12:29:16 | 52.33593 | 11.81499 | 203° | 22km/h | 32102m | 5.8m/s | -42.2°C | 0% | 9.2hPa | 2.7V | 03:18:26 | 02:38:38 | 00:00:00 | |
| AA1-15 | 2026-09-05 12:29:15 | 52.33598 | 11.81503 | 215° | 22km/h | 32096m | 6.2m/s | -42.3°C | 0% | 9.3hPa | 2.7V | 03:18:26 | 02:38:37 | 00:00:00 | |
| DL1XH-west | 2026-09-05 12:29:12 | 52.33606 | 11.81520 | 251° | 9km/h | 32079m | 4.6m/s | -42.5°C | 0% | 9.3hPa | 2.6V | 03:18:26 | 02:38:34 | 00:00:00 | |
| DB0DAN | 2026-09-05 12:29:10 | 52.33606 | 11.81520 | 87° | 7km/h | 32068m | 6.6m/s | -42.5°C | 0.4% | 9.3hPa | 2.7V | 00:00:00 | 00:00:00 | 00:00:00 | |
| DF8AY | 2026-09-05 12:29:10 | 52.33606 | 11.81520 | 87° | 7km/h | 32068m | 6.6m/s | -42.5°C | 0% | 9.3hPa | 2.7V | 03:18:26 | 02:38:32 | 00:00:00 | |
| SO1NDE-10 | 2026-09-05 12:29:09 | 52.33606 | 11.81515 | 93° | 20km/h | 32062m | 7.4m/s | -42.4°C | 2.4% | 9.3hPa | 2.7V | 03:18:00 | 02:38:31 | 00:00:00 | |
| DO2SHX-10 | 2026-09-05 12:29:08 | 52.33607 | 11.81506 | 97° | 27km/h | 32055m | 6.7m/s | -42.3°C | 2.4% | 9.3hPa | 2.7V | 00:00:00 | 02:38:30 | 00:00:00 | |
| DL1NUX | 2026-09-05 12:29:07 | 52.33612 | 11.81465 | 148° | 5km/h | 32026m | 6m/s | -42.5°C | 2.4% | 9.3hPa | 2.7V | 03:18:07 | 02:38:25 | 00:00:00 | |
| HSKMA3-T | 2026-09-05 12:29:05 | 52.33610 | 11.81475 | 103° | 20km/h | 32038m | 5.6m/s | -42.3°C | 0% | 9.3hPa | 2.6V | 03:18:26 | 02:38:27 | 00:00:00 | |
| DL1XH-west | 2026-09-05 12:29:02 | 52.33614 | 11.81465 | 201° | 9km/h | 32020m | 6.1m/s | -42.6°C | 0% | 9.3hPa | 2.7V | 03:18:26 | 02:38:24 | 00:00:00 | |
| DF8AY | 2026-09-05 12:28:59 | 52.33626 | 11.81472 | 188° | 22km/h | 32001m | 5.3m/s | -42.4°C | 0% | 9.4hPa | 2.6V | 03:18:26 | 02:38:21 | 00:00:00 | |
| EDDB2-12 | 2026-09-05 12:28:57 | 52.33636 | 11.81469 | 153° | 18km/h | 31992m | 4.7m/s | -42.4°C | 0.4% | 9.4hPa | 2.6V | 00:00:00 | 00:00:00 | 00:00:00 | |
| DM0DOS-11 | 2026-09-05 12:28:56 | 52.33640 | 11.81442 | 78° | 22km/h | 31968m | 4.9m/s | -42.4°C | 2.4% | 9.4hPa | 2.6V | 03:18:17 | 02:38:15 | 00:00:00 | |
| HSKMA3-T | 2026-09-05 12:28:55 | 52.33641 | 11.81458 | 103° | 18km/h | 31980m | 7m/s | -42.4°C | 0% | 9.4hPa | 2.7V | 03:18:26 | 02:38:17 | 00:00:00 | |
| DB0DAN | 2026-09-05 12:28:55 | 52.33641 | 11.81458 | 103° | 16km/h | 31980m | 7m/s | -42.4°C | 0.4% | 9.38hPa | 2.7V | 00:00:00 | 00:00:00 | 00:00:00 | |
| DL1XH1-15 | 2026-09-05 12:28:55 | 52.33641 | 11.81413 | 118° | 26km/h | 31953m | 6.6m/s | -42.4°C | 2.4% | 9.4hPa | 2.7V | 03:18:20 | 02:38:12 | 00:00:00 | |
| AA1-15 | 2026-09-05 12:28:54 | 52.33641 | 11.81451 | 83° | 20km/h | 31974m | 6.4m/s | -42.3°C | 0% | 9.4hPa | 2.7V | 03:18:26 | 02:38:16 | 00:00:00 | |
| DL1XH-west | 2026-09-05 12:28:51 | 52.33640 | 11.81423 | 100° | 24km/h | 31959m | 4.6m/s | -42.6°C | 0% | 9.5hPa | 2.6V | 03:18:26 | 02:38:13 | 00:00:00 | |
| DF8AY | 2026-09-05 12:28:48 | 52.33653 | 11.81397 | 149° | 35km/h | 31940m | 6.4m/s | -42.4°C | 0% | 9.4hPa | 2.7V | 03:18:26 | 02:38:10 | 00:00:00 | |
| DB0ND-19 | 2026-09-05 12:28:47 | 52.33679 | 11.81376 | 40° | 11km/h | 31905m | 6.1m/s | -42.5°C | 0.4% | 9.5hPa | 2.7V | 00:00:00 | 00:00:00 | 00:00:00 | |
| DL1XH1-15 | 2026-09-05 12:28:45 | 52.33673 | 11.81366 | 59° | 20km/h | 31893m | 5.9m/s | -42.6°C | 2.4% | 9.5hPa | 2.7V | 03:18:30 | 02:38:02 | 00:00:00 | |
| HSKMA3-T | 2026-09-05 12:28:44 | 52.33679 | 11.81381 | 160° | 11km/h | 31918m | 6.7m/s | -42.4°C | 0% | 9.5hPa | 2.6V | 03:18:26 | 02:38:06 | 00:00:00 | |
| AA1-15 | 2026-09-05 12:28:43 | 52.33680 | 11.81379 | 84° | 5km/h | 31911m | 6.8m/s | -42.4°C | 0% | 9.5hPa | 2.7V | 03:19:17 | 02:38:05 | 00:00:00 | |
| DL1XH-west | 2026-09-05 12:28:41 | 52.33676 | 11.81372 | 44° | 18km/h | 31899m | 5.6m/s | -42.7°C | 0% | 9.6hPa | 2.7V | 03:19:17 | 02:38:03 | 00:00:00 | |
| DF8AY | 2026-09-05 12:28:38 | 52.33672 | 11.81348 | 103° | 26km/h | 31881m | 6.3m/s | -42.6°C | 0% | 9.5hPa | 2.6V | 03:19:17 | 02:38:00 | 00:00:00 | |
| DO2SHX-10 | 2026-09-05 12:28:38 | 52.33672 | 11.81348 | 103° | 29km/h | 31881m | 6.2m/s | -42.6°C | 2.4% | 9.5hPa | 2.6V | 00:00:00 | 02:38:00 | 00:00:00 | |
| DL1CLM-18 | 2026-09-05 12:28:37 | 52.33675 | 11.81337 | 121° | 29km/h | 31875m | 5.8m/s | -42.7°C | 0.4% | 9.6hPa | 2.6V | 03:19:00 | 00:00:00 | 00:00:00 | |
| DL1XH1-15 | 2026-09-05 12:28:35 | 52.33704 | 11.81306 | 183° | 2km/h | 31833m | 5.4m/s | -42.6°C | 2.4% | 9.6hPa | 2.6V | 03:18:40 | 02:37:52 | 00:00:00 | |
| DO2SHX-10 | 2026-09-05 12:28:35 | 52.33685 | 11.81319 | 145° | 26km/h | 31864m | 5.3m/s | -42.4°C | 2.4% | 9.5hPa | 2.7V | 00:00:00 | 02:37:57 | 00:00:00 | |
| DL1NUX | 2026-09-05 12:28:34 | 52.33697 | 11.81308 | 159° | 20km/h | 31852m | 6.7m/s | -42.5°C | 2.4% | 9.6hPa | 2.7V | 03:18:37 | 02:37:55 | 00:00:00 | |
| AA1-15 | 2026-09-05 12:28:33 | 52.33697 | 11.81308 | 160° | 20km/h | 31852m | 6.7m/s | -42.5°C | 0% | 9.6hPa | 2.7V | 03:19:17 | 02:37:55 | 00:00:00 | |
| DL1XH-west | 2026-09-05 12:28:31 | 52.33703 | 11.81306 | 180° | 5km/h | 31838m | 5.9m/s | -42.7°C | 0% | 9.6hPa | 2.6V | 03:19:17 | 02:37:53 | 00:00:00 | |
| DF8AY | 2026-09-05 12:28:27 | 52.33707 | 11.81301 | 126° | 13km/h | 31816m | 6.7m/s | -42.7°C | 0% | 9.7hPa | 2.7V | 03:19:17 | 02:37:49 | 00:00:00 | |
| EDDB2-12 | 2026-09-05 12:28:26 | 52.33713 | 11.81290 | 130° | 22km/h | 31803m | 6.1m/s | -42.7°C | 0.4% | 9.7hPa | 2.7V | 00:00:00 | 00:00:00 | 00:00:00 | |
| DL1XH1-15 | 2026-09-05 12:28:25 | 52.33728 | 11.81260 | 127° | 15km/h | 31772m | 5.9m/s | -42.9°C | 2.5% | 9.7hPa | 2.7V | 03:18:50 | 02:37:42 | 00:00:00 | |
| DL1NUX | 2026-09-05 12:28:24 | 52.33720 | 11.81276 | 130° | 20km/h | 31791m | 6.5m/s | -42.7°C | 2.5% | 9.7hPa | 2.6V | 03:18:47 | 02:37:45 | 00:00:00 | |
| HSKMA3-T | 2026-09-05 12:28:23 | 52.33723 | 11.81270 | 128° | 16km/h | 31784m | 6.6m/s | -42.8°C | 0% | 9.7hPa | 2.7V | 03:19:17 | 02:37:44 | 00:00:00 | |
| DL1XH-west | 2026-09-05 12:28:21 | 52.33726 | 11.81265 | 127° | 15km/h | 31778m | 6m/s | -42.8°C | 0% | 9.7hPa | 2.7V | 03:19:17 | 02:37:43 | 00:00:00 | |
| DF8AY | 2026-09-05 12:28:16 | 52.33737 | 11.81235 | 108° | 20km/h | 31747m | 5.1m/s | -42.7°C | 0% | 9.7hPa | 2.6V | 03:19:17 | 02:37:38 | 00:00:00 | |
| DB0ND-19 | 2026-09-05 12:28:16 | 52.33738 | 11.81228 | 93° | 18km/h | 31741m | 6.1m/s | -42.8°C | 0.4% | 9.8hPa | 2.7V | 00:00:00 | 00:00:00 | 00:00:00 | |
| DB0UT-7 | 2026-09-05 12:28:15 | 52.33738 | 11.81227 | 94° | 20km/h | 31741m | 6.1m/s | -42.7°C | 2.4% | 9.7hPa | 2.7V | 03:18:00 | 02:37:37 | 00:00:00 | |
| DL1NUX | 2026-09-05 12:28:14 | 52.33736 | 11.81212 | 67° | 20km/h | 31727m | 7m/s | -42.9°C | 2.5% | 9.8hPa | 2.7V | 03:18:57 | 02:37:35 | 00:00:00 | |
| HSKMA3-T | 2026-09-05 12:28:11 | 52.33733 | 11.81196 | 79° | 22km/h | 31715m | 5.8m/s | -42.8°C | 0% | 9.8hPa | 2.6V | 03:19:17 | 02:37:33 | 00:00:00 | |
| DL1XH-west | 2026-09-05 12:28:11 | 52.33733 | 11.81187 | 94° | 24km/h | 31708m | 7.3m/s | -42.9°C | 0% | 9.8hPa | 2.6V | 03:19:17 | 02:37:32 | 00:00:00 | |
| DB0DAN | 2026-09-05 12:28:10 | 52.33733 | 11.81187 | 94° | 22km/h | 31708m | 7.3m/s | -42.9°C | 0.4% | 9.78hPa | 2.6V | 00:00:00 | 00:00:00 | 00:00:00 | |
| DF8AY | 2026-09-05 12:28:05 | 52.33746 | 11.81140 | 114° | 20km/h | 31676m | 7.2m/s | -42.7°C | 0% | 9.9hPa | 2.7V | 03:19:17 | 02:37:27 | 00:00:00 | |
| DO2SHX-10 | 2026-09-05 12:28:05 | 52.33746 | 11.81140 | 114° | 16km/h | 31676m | 7.1m/s | -42.6°C | 2.4% | 9.8hPa | 2.6V | 03:19:00 | 02:37:27 | 00:00:00 | |
| DM0DOS-11 | 2026-09-05 12:28:04 | 52.33747 | 11.81127 | 89° | 15km/h | 31663m | 5.7m/s | -42.7°C | 2.4% | 9.8hPa | 2.6V | 03:19:07 | 02:37:25 | 00:00:00 | |
| HSKMA3-T | 2026-09-05 12:28:01 | 52.33747 | 11.81114 | 88° | 18km/h | 31651m | 6.9m/s | -42.8°C | 0% | 9.9hPa | 2.7V | 03:19:17 | 02:37:23 | 00:00:00 | |
| DL1XH-west | 2026-09-05 12:28:00 | 52.33747 | 11.81106 | 93° | 20km/h | 31644m | 7.1m/s | -42.9°C | 0% | 9.9hPa | 2.7V | 03:19:17 | 02:37:22 | 00:00:00 | |
| DF7ER-10 | 2026-09-05 12:28:00 | 52.33747 | 11.81106 | 94° | 20km/h | 31644m | 7.1m/s | -42.9°C | 0.4% | 9.9hPa | 2.6V | 03:19:00 | 00:00:00 | 00:00:00 | |
| DL1XH-15 | 2026-09-05 12:27:59 | 52.33749 | 11.81080 | 91° | 22km/h | 31625m | 6.1m/s | -43.1°C | 2.4% | 9.9hPa | 2.6V | 03:19:13 | 02:37:19 | 00:00:00 | |
| DO2SHX-10 | 2026-09-05 12:27:59 | 52.33747 | 11.81097 | 96° | 22km/h | 31637m | 6.8m/s | -42.9°C | 2.4% | 9.9hPa | 2.7V | 00:00:00 | 02:37:21 | 00:00:00 | |
| TFSTFS | 2026-09-05 12:27:58 | 52.33748 | 11.81088 | 97° | 22km/h | 31631m | 6.2m/s | -43.1°C | 0.4% | 9.9hPa | 2.7V | 00:00:00 | 00:00:00 | 00:00:00 | |
| GOEST3-10 | 2026-09-05 12:27:57 | 52.33749 | 11.81080 | 92° | 18km/h | 31625m | 6.1m/s | -43.1°C | 2.4% | 9.9hPa | 2.7V | 00:00:00 | 02:37:19 | 00:00:00 | |
| DL1NUX | 2026-09-05 12:27:55 | 52.33743 | 11.81052 | 60° | 16km/h | 31598m | 5.6m/s | -42.8°C | 2.4% | 9.9hPa | 2.7V | 03:19:17 | 02:37:15 | 00:00:00 | |
| DF8AY | 2026-09-05 12:27:54 | 52.33745 | 11.81058 | 58° | 16km/h | 31604m | 6.5m/s | -42.9°C | 0% | 9.9hPa | 2.7V | 03:19:17 | 02:37:16 | 00:00:00 | |
| DL1XH1-15 | 2026-09-05 12:27:54 | 52.33741 | 11.81030 | 106° | 22km/h | 31578m | 7.4m/s | -42.9°C | 2.4% | 10hPa | 2.6V | 03:19:20 | 02:37:12 | 00:00:00 | |
| DD8BA-10 | 2026-09-05 12:27:54 | 52.33745 | 11.81058 | 59° | 20km/h | 31605m | 6.5m/s | -42.9°C | 2.4% | 9.9hPa | 2.7V | 00:00:00 | 00:00:00 | 00:00:00 | |
| DF8AY-15 | 2026-09-05 12:27:53 | 52.33743 | 11.81052 | 61° | 20km/h | 31599m | 5.6m/s | -42.8°C | 2.4% | 9.9hPa | 2.7V | 00:00:00 | 02:37:15 | 00:00:00 | |
| DL1XH-15 | 2026-09-05 12:27:52 | 52.33749 | 11.81003 | 116° | 22km/h | 31560m | 6m/s | -42.9°C | 2.3% | 10hPa | 2.7V | 03:19:23 | 02:37:09 | 00:00:00 | |
| HSKMA3-T | 2026-09-05 12:27:51 | 52.33741 | 11.81038 | 89° | 20km/h | 31586m | 7.6m/s | -42.9°C | 0% | 10hPa | 2.7V | 03:20:08 | 02:37:13 | 00:00:00 | |
| DL1XH-west | 2026-09-05 12:27:50 | 52.33741 | 11.81030 | 107° | 22km/h | 31578m | 7.4m/s | -42.9°C | 0% | 10hPa | 2.6V | 03:20:08 | 02:37:12 | 00:00:00 | |
| DO2SHX-10 | 2026-09-05 12:27:50 | 52.33741 | 11.81030 | 107° | 24km/h | 31579m | 7.4m/s | -42.9°C | 2.4% | 9.9hPa | 2.6V | 00:00:00 | 02:37:12 | 00:00:00 | |
| DF7ER-10 | 2026-09-05 12:27:49 | 52.33744 | 11.81021 | 116° | 26km/h | 31572m | 6.2m/s | -42.9°C | 0.4% | 10.0hPa | 2.6V | 03:20:00 | 00:00:00 | 00:00:00 | |
| DO2SHX-10 | 2026-09-05 12:27:47 | 52.33749 | 11.81003 | 117° | 18km/h | 31560m | 6.0m/s | -42.9°C | 2.3% | 10.0hPa | 2.6V | 00:00:00 | 02:37:09 | 00:00:00 | |
| MECKS9 | 2026-09-05 12:27:46 | 52.33749 | 11.81003 | 118° | 22km/h | 31560m | 6.1m/s | -42.9°C | 0% | 10.0hPa | 2.6V | 00:00:00 | 00:00:00 | 00:00:00 | |
| DM0DOS-11 | 2026-09-05 12:27:45 | 52.33750 | 11.80979 | 65° | 15km/h | 31532m | 6.3m/s | -43°C | 2.3% | 10.1hPa | 2.6V | 03:19:27 | 02:37:05 | 00:00:00 | |
| DB0ND-19 | 2026-09-05 12:27:45 | 52.33752 | 11.80984 | 73° | 11km/h | 31539m | 6.5m/s | -42.9°C | -1.0% | 10.1hPa | 2.7V | 00:00:00 | 00:00:00 | 00:00:00 | |
| DL1XH1-15 | 2026-09-05 12:27:44 | 52.33746 | 11.80955 | 78° | 26km/h | 31513m | 5.5m/s | -43.2°C | 2.4% | 10.1hPa | 2.7V | 03:19:30 | 02:37:02 | 00:00:00 | |
| DF8AY | 2026-09-05 12:27:44 | 52.33752 | 11.80984 | 74° | 13km/h | 31539m | 6.5m/s | -42.9°C | 0% | 10.1hPa | 2.7V | 03:20:08 | 02:37:06 | 00:00:00 | |
| DD8BA-10 | 2026-09-05 12:27:44 | 52.33751 | 11.80984 | 74° | 22km/h | 31539m | 6.5m/s | -42.9°C | 2.4% | 10.0hPa | 2.7V | 00:00:00 | 00:00:00 | 00:00:00 | |
| OE5DRO-10 | 2026-09-05 12:27:43 | 52.33750 | 11.80979 | 66° | 20km/h | 31533m | 6.3m/s | -42.9°C | 2.3% | 10.0hPa | 2.7V | 00:00:00 | 00:00:00 | 00:00:00 | |
| DL1CLM-18 | 2026-09-05 12:27:42 | 52.33749 | 11.80972 | 73° | 18km/h | 31526m | 7.2m/s | -43.0°C | 0.4% | 10.1hPa | 2.7V | 00:00:00 | 00:00:00 | 00:00:00 | |
| SMARD9-10 | 2026-09-05 12:27:41 | 52.33749 | 11.80972 | 73° | 18km/h | 31526m | 7.2m/s | -43.0°C | 0.4% | 10.1hPa | 2.7V | 03:20:00 | 00:00:00 | 00:00:00 | |
| DB0DAN | 2026-09-05 12:27:40 | 52.33746 | 11.80955 | 79° | 24km/h | 31513m | 5.5m/s | -43.2°C | 0.4% | 10.07hPa | 2.7V | 00:00:00 | 00:00:00 | 00:00:00 | |
| HSKMA3-T | 2026-09-05 12:27:40 | 52.33746 | 11.80955 | 79° | 26km/h | 31513m | 5.5m/s | -43.2°C | 0% | 10.1hPa | 2.7V | 03:20:08 | 02:37:02 | 00:00:00 | |
| DL1XH-west | 2026-09-05 12:27:39 | 52.33745 | 11.80944 | 79° | 27km/h | 31507m | 5.5m/s | -43.3°C | 0% | 10.1hPa | 2.7V | 03:20:08 | 02:37:01 | 00:00:00 | |
| DL1XH-15 | 2026-09-05 12:27:39 | 52.33742 | 11.80922 | 74° | 27km/h | 31494m | 7.3m/s | -43.1°C | 2.4% | 10.1hPa | 2.7V | 03:19:33 | 02:36:59 | 00:00:00 | |
| DF8AY | 2026-09-05 12:27:33 | 52.33741 | 11.80889 | 120° | 20km/h | 31469m | 6.8m/s | -43°C | 0% | 10.2hPa | 2.7V | 03:20:08 | 02:36:55 | 00:00:00 | |
| DB0NH | 2026-09-05 12:27:33 | 52.33740 | 11.80888 | 121° | 22km/h | 31469m | 6.8m/s | -42.9°C | 2.4% | 10.1hPa | 2.6V | 00:00:00 | 02:36:55 | 00:00:00 | |
| DL1XH-15 | 2026-09-05 12:27:32 | 52.33764 | 11.80857 | 98° | 5km/h | 31429m | 7.7m/s | -43°C | 2.4% | 10.2hPa | 2.6V | 03:19:43 | 02:36:49 | 00:00:00 | |
| DL1XH1-15 | 2026-09-05 12:27:32 | 52.33754 | 11.80869 | 146° | 26km/h | 31448m | 5.4m/s | -42.9°C | 2.4% | 10.2hPa | 2.7V | 03:19:40 | 02:36:52 | 00:00:00 | |
| HSKMA3-T | 2026-09-05 12:27:30 | 52.33754 | 11.80869 | 147° | 26km/h | 31448m | 5.4m/s | -42.9°C | 0% | 10.2hPa | 2.7V | 03:20:08 | 02:36:52 | 00:00:00 | |
| AA1-15 | 2026-09-05 12:27:30 | 52.33759 | 11.80864 | 148° | 20km/h | 31443m | 5m/s | -42.9°C | 0% | 10.2hPa | 2.6V | 03:20:08 | 02:36:51 | 00:00:00 | |
| DL1XH-west | 2026-09-05 12:27:28 | 52.33763 | 11.80860 | 141° | 13km/h | 31437m | 7m/s | -43°C | 0% | 10.2hPa | 2.6V | 03:20:08 | 02:36:50 | 00:00:00 | |
| GOEST3-10 | 2026-09-05 12:27:27 | 52.33764 | 11.80857 | 99° | 16km/h | 31430m | 7.6m/s | -42.9°C | 2.4% | 10.2hPa | 2.7V | 00:00:00 | 02:36:49 | 00:00:00 | |
| DB0DAN | 2026-09-05 12:27:25 | 52.33760 | 11.80851 | 34° | 16km/h | 31416m | 5.8m/s | -43.1°C | 0.4% | 10.23hPa | 2.7V | 00:00:00 | 00:00:00 | 00:00:00 | |
| DL1XH1-15 | 2026-09-05 12:27:25 | 52.33751 | 11.80801 | 103° | 35km/h | 31383m | 6.1m/s | -42.9°C | 2.4% | 10.3hPa | 2.6V | 03:19:50 | 02:36:42 | 00:00:00 | |
| DF8AY | 2026-09-05 12:27:23 | 52.33752 | 11.80838 | 60° | 26km/h | 31404m | 6.8m/s | -43°C | 0% | 10.2hPa | 2.7V | 03:20:08 | 02:36:45 | 00:00:00 | |
| HSKMA3-T | 2026-09-05 12:27:19 | 52.33753 | 11.80788 | 111° | 33km/h | 31377m | 6.2m/s | -43°C | 0% | 10.3hPa | 2.7V | 03:20:08 | 02:36:41 | 00:00:00 | |
| DL1XH-15 | 2026-09-05 12:27:19 | 52.33759 | 11.80768 | 119° | 22km/h | 31363m | 6.9m/s | -43.1°C | 2.3% | 10.3hPa | 2.7V | 03:19:53 | 02:36:39 | 00:00:00 | |
| AA1-15 | 2026-09-05 12:27:18 | 52.33756 | 11.80777 | 115° | 27km/h | 31370m | 7.1m/s | -43.1°C | 0% | 10.3hPa | 2.7V | 03:20:08 | 02:36:40 | 00:00:00 | |
| DL1XH-west | 2026-09-05 12:27:17 | 52.33759 | 11.80768 | 119° | 22km/h | 31364m | 6.9m/s | -43.1°C | 0% | 10.3hPa | 2.7V | 03:20:08 | 02:36:39 | 00:00:00 | |
| DO2SHX-10 | 2026-09-05 12:27:17 | 52.33759 | 11.80768 | 120° | 16km/h | 31364m | 6.8m/s | -43.1°C | 2.3% | 10.3hPa | 2.6V | 03:19:00 | 02:36:39 | 00:00:00 | |
| DM0DOS-11 | 2026-09-05 12:27:15 | 52.33764 | 11.80747 | 93° | 13km/h | 31339m | 6.6m/s | -43.6°C | 2.4% | 10.3hPa | 2.6V | 03:19:57 | 02:36:35 | 00:00:00 | |
| DL1XH1-15 | 2026-09-05 12:27:15 | 52.33762 | 11.80723 | 71° | 24km/h | 31319m | 5.7m/s | -44°C | 2.5% | 10.4hPa | 2.7V | 03:20:00 | 02:36:32 | 00:00:00 | |
| DF8AY | 2026-09-05 12:27:13 | 52.33764 | 11.80740 | 84° | 18km/h | 31332m | 6.8m/s | -43.7°C | 0% | 10.4hPa | 2.7V | 03:20:08 | 02:36:34 | 00:00:00 | |
| DL1XH-15 | 2026-09-05 12:27:12 | 52.33755 | 11.80699 | 59° | 20km/h | 31299m | 6.2m/s | -43.9°C | 2.5% | 10.4hPa | 2.6V | 03:20:03 | 02:36:29 | 00:00:00 | |
| DJ8HS-15 | 2026-09-05 12:27:12 | 52.33764 | 11.80740 | 85° | 22km/h | 31332m | 6.8m/s | -43.7°C | 2.4% | 10.3hPa | 2.7V | 03:19:00 | 02:36:34 | 00:00:00 | |
| DB0DAN | 2026-09-05 12:27:10 | 52.33762 | 11.80723 | 71° | 22km/h | 31319m | 5.7m/s | -44°C | 0.4% | 10.4hPa | 2.7V | 00:00:00 | 00:00:00 | 00:00:00 | |
| HSKMA3-T | 2026-09-05 12:27:09 | 52.33760 | 11.80714 | 66° | 24km/h | 31313m | 7m/s | -44°C | 0% | 10.4hPa | 2.7V | 03:20:08 | 02:36:31 | 00:00:00 | |
| SO1NDE-10 | 2026-09-05 12:27:09 | 52.33760 | 11.80714 | 66° | 22km/h | 31314m | 7.0m/s | -44.0°C | 2.5% | 10.3hPa | 2.7V | 03:20:00 | 02:36:31 | 00:00:00 | |
| DL1NUX | 2026-09-05 12:27:08 | 52.33751 | 11.80662 | 101° | 29km/h | 31274m | 7.3m/s | -43.9°C | 2.5% | 10.4hPa | 2.7V | 03:20:07 | 02:36:25 | 00:00:00 | |
| DL1XH-west | 2026-09-05 12:27:07 | 52.33755 | 11.80699 | 60° | 20km/h | 31299m | 6.2m/s | -43.9°C | 0% | 10.4hPa | 2.6V | 03:20:08 | 02:36:29 | 00:00:00 | |
| DO3MHA-11 | 2026-09-05 12:27:07 | 52.33755 | 11.80699 | 60° | 22km/h | 31300m | 6.2m/s | -43.9°C | 2.5% | 10.4hPa | 2.6V | 03:20:00 | 02:36:29 | 00:00:00 | |
| DF7ER-10 | 2026-09-05 12:27:06 | 52.33755 | 11.80699 | 61° | 20km/h | 31300m | 6.2m/s | -43.9°C | 0.5% | 10.4hPa | 2.6V | 03:20:00 | 00:00:00 | 00:00:00 | |
| DL1XH1-15 | 2026-09-05 12:27:05 | 52.33758 | 11.80630 | 112° | 22km/h | 31255m | 6.5m/s | -44°C | 2.5% | 10.5hPa | 2.6V | 03:20:10 | 02:36:22 | 00:00:00 | |
| DF8AY | 2026-09-05 12:27:00 | 52.33758 | 11.80630 | 113° | 22km/h | 31255m | 6.5m/s | -44.1°C | 0% | 10.5hPa | 2.6V | 03:20:59 | 02:36:22 | 00:00:00 | |
| DL1XH-15 | 2026-09-05 12:26:59 | 52.33760 | 11.80612 | 73° | 13km/h | 31236m | 5.4m/s | -43.9°C | 2.4% | 10.5hPa | 2.7V | 03:20:13 | 02:36:19 | 00:00:00 | |
| HSKMA3-T | 2026-09-05 12:26:59 | 52.33760 | 11.80623 | 109° | 16km/h | 31248m | 7.2m/s | -44°C | 0% | 10.5hPa | 2.6V | 03:20:59 | 02:36:21 | 00:00:00 | |
| EDDB2-11 | 2026-09-05 12:26:58 | 52.33761 | 11.80617 | 92° | 11km/h | 31242m | 6.1m/s | -43.9°C | 0.4% | 10.5hPa | 2.7V | 00:00:00 | 00:00:00 | 00:00:00 | |
| DO3MHA-11 | 2026-09-05 12:26:57 | 52.33760 | 11.80612 | 74° | 26km/h | 31237m | 5.4m/s | -43.8°C | 2.4% | 10.5hPa | 2.7V | 00:00:00 | 02:36:19 | 00:00:00 | |
| DO2SHX-10 | 2026-09-05 12:26:56 | 52.33759 | 11.80607 | 68° | 24km/h | 31231m | 5.8m/s | -43.9°C | 2.4% | 10.5hPa | 2.7V | 00:00:00 | 02:36:18 | 00:00:00 | |
| DL1XH-west | 2026-09-05 12:26:56 | 52.33759 | 11.80607 | 68° | 16km/h | 31231m | 5.8m/s | -43.9°C | 0% | 10.5hPa | 2.7V | 03:20:59 | 02:36:18 | 00:00:00 | |
| DL1XH1-15 | 2026-09-05 12:26:55 | 52.33750 | 11.80534 | 89° | 29km/h | 31193m | 7.2m/s | -44.2°C | 2.5% | 10.6hPa | 2.7V | 03:20:20 | 02:36:12 | 00:00:00 | |
| DL1NUX | 2026-09-05 12:26:55 | 52.33753 | 11.80576 | 77° | 35km/h | 31211m | 6.5m/s | -44.3°C | 2.5% | 10.6hPa | 2.6V | 03:20:17 | 02:36:15 | 00:00:00 | |
| EDDB2-12 | 2026-09-05 12:26:53 | 52.33752 | 11.80561 | 82° | 37km/h | 31205m | 5.4m/s | -44.2°C | 0.4% | 10.6hPa | 2.6V | 00:00:00 | 00:00:00 | 00:00:00 | |
| TFSTFS | 2026-09-05 12:26:52 | 52.33752 | 11.80561 | 83° | 37km/h | 31205m | 5.4m/s | -44.2°C | 0.4% | 10.6hPa | 2.6V | 03:20:00 | 00:00:00 | 00:00:00 | |
| DO2SHX-10 | 2026-09-05 12:26:50 | 52.33750 | 11.80534 | 90° | 24km/h | 31194m | 7.2m/s | -44.2°C | 2.5% | 10.5hPa | 2.6V | 00:00:00 | 02:36:12 | 00:00:00 | |
| DL1XH-15 | 2026-09-05 12:26:49 | 52.33752 | 11.80508 | 106° | 16km/h | 31173m | 6.6m/s | -43.9°C | 2.5% | 10.6hPa | 2.6V | 03:20:23 | 02:36:09 | 00:00:00 | |
| HSKMA3-T | 2026-09-05 12:26:49 | 52.33751 | 11.80523 | 95° | 24km/h | 31186m | 7.3m/s | -44.1°C | 0% | 10.6hPa | 2.7V | 03:20:59 | 02:36:11 | 00:00:00 | |
| DL1XH-west | 2026-09-05 12:26:46 | 52.33753 | 11.80502 | 103° | 16km/h | 31166m | 7.4m/s | -43.9°C | 0% | 10.7hPa | 2.6V | 03:20:59 | 02:36:08 | 00:00:00 | |
| DL1NUX | 2026-09-05 12:26:45 | 52.33754 | 11.80484 | 73° | 13km/h | 31147m | 6.2m/s | -44.1°C | 2.5% | 10.7hPa | 2.7V | 03:20:27 | 02:36:05 | 00:00:00 | |
| DB0UT-7 | 2026-09-05 12:26:45 | 52.33754 | 11.80495 | 99° | 20km/h | 31159m | 6.2m/s | -43.9°C | 2.5% | 10.6hPa | 2.7V | 00:00:00 | 00:00:00 | 00:00:00 | |
| DO2SHX-10 | 2026-09-05 12:26:44 | 52.33754 | 11.80489 | 87° | 13km/h | 31154m | 5.5m/s | -44.0°C | 2.5% | 10.6hPa | 2.7V | 00:00:00 | 02:36:06 | 00:00:00 | |
| GOEST3-10 | 2026-09-05 12:26:42 | 52.33752 | 11.80479 | 62° | 16km/h | 31141m | 7.4m/s | -44.1°C | 2.5% | 10.6hPa | 2.7V | 03:20:00 | 00:00:00 | 00:00:00 | |
| DO2SHX-10 | 2026-09-05 12:26:41 | 52.33750 | 11.80475 | 48° | 16km/h | 31134m | 6.9m/s | -43.9°C | 2.5% | 10.6hPa | 2.7V | 03:20:00 | 02:36:03 | 00:00:00 | |
| DL1XH-15 | 2026-09-05 12:26:39 | 52.33740 | 11.80445 | 68° | 31km/h | 31109m | 7.6m/s | -44.1°C | 2.5% | 10.7hPa | 2.7V | 03:20:33 | 02:35:59 | 00:00:00 | |
| DF8AY | 2026-09-05 12:26:39 | 52.33745 | 11.80464 | 59° | 20km/h | 31122m | 5.6m/s | -43.9°C | 0% | 10.7hPa | 2.6V | 03:20:59 | 02:36:01 | 00:00:00 | |
| HSKMA3-T | 2026-09-05 12:26:38 | 52.33743 | 11.80456 | 63° | 26km/h | 31116m | 6.5m/s | -44°C | 0% | 10.7hPa | 2.6V | 03:20:59 | 02:36:00 | 00:00:00 | |
| AA1-15 | 2026-09-05 12:26:36 | 52.33737 | 11.80432 | 75° | 37km/h | 31102m | 6.3m/s | -44.2°C | 0% | 10.7hPa | 2.7V | 03:20:59 | 02:35:58 | 00:00:00 | |
| DL1XH-west | 2026-09-05 12:26:35 | 52.33735 | 11.80418 | 77° | 35km/h | 31097m | 4.6m/s | -44.3°C | 0% | 10.7hPa | 2.7V | 03:20:59 | 02:35:57 | 00:00:00 | |
| TFSTFS | 2026-09-05 12:26:34 | 52.33733 | 11.80405 | 78° | 29km/h | 31093m | 3.8m/s | -44.3°C | 0.5% | 10.8hPa | 2.7V | 03:20:00 | 00:00:00 | 00:00:00 | |
| DD8BA-10 | 2026-09-05 12:26:33 | 52.33731 | 11.80395 | 72° | 20km/h | 31088m | 5.7m/s | -44.1°C | 2.6% | 10.7hPa | 2.7V | 00:00:00 | 00:00:00 | 00:00:00 | |
| DL1XH1-15 | 2026-09-05 12:26:32 | 52.33725 | 11.80388 | 331° | 15km/h | 31066m | 6.2m/s | -43.7°C | 2.5% | 10.8hPa | 2.7V | 03:20:40 | 02:35:52 | 00:00:00 | |
| DF8AY | 2026-09-05 12:26:29 | 52.33721 | 11.80391 | 333° | 18km/h | 31061m | 5.3m/s | -43.8°C | 0% | 10.8hPa | 2.7V | 03:20:59 | 02:35:51 | 00:00:00 | |
| DL1XH-15 | 2026-09-05 12:26:29 | 52.33712 | 11.80394 | 12° | 18km/h | 31049m | 6.8m/s | -43.8°C | 2.5% | 10.8hPa | 2.7V | 03:20:43 | 02:35:49 | 00:00:00 | |
| HSKMA3-T | 2026-09-05 12:26:28 | 52.33717 | 11.80394 | 347° | 16km/h | 31055m | 6.3m/s | -43.8°C | 0% | 10.8hPa | 2.7V | 03:20:59 | 02:35:50 | 00:00:00 | |
| DO3MHA-11 | 2026-09-05 12:26:27 | 52.33712 | 11.80394 | 13° | 18km/h | 31049m | 6.8m/s | -43.8°C | 2.5% | 10.8hPa | 2.7V | 03:20:00 | 02:35:49 | 00:00:00 | |
| DO2SHX-10 | 2026-09-05 12:26:26 | 52.33708 | 11.80390 | 37° | 26km/h | 31043m | 6.3m/s | -43.8°C | 2.5% | 10.8hPa | 2.7V | 00:00:00 | 02:35:48 | 00:00:00 | |
| DL1XH1-15 | 2026-09-05 12:26:25 | 52.33688 | 11.80341 | 49° | 18km/h | 31005m | 5.4m/s | -44.2°C | 2.5% | 10.9hPa | 2.7V | 03:20:50 | 02:35:42 | 00:00:00 | |
| DL1NUX | 2026-09-05 12:26:25 | 52.33697 | 11.80365 | 62° | 27km/h | 31024m | 6.7m/s | -44.1°C | 2.4% | 10.8hPa | 2.7V | 03:20:47 | 02:35:45 | 00:00:00 | |
| AA1-15 | 2026-09-05 12:26:25 | 52.33704 | 11.80384 | 53° | 26km/h | 31036m | 5.9m/s | -43.9°C | 0% | 10.8hPa | 2.6V | 03:20:59 | 02:35:47 | 00:00:00 | |
| DL1XH-west | 2026-09-05 12:26:24 | 52.33700 | 11.80375 | 60° | 27km/h | 31030m | 5.9m/s | -44°C | 0% | 10.9hPa | 2.6V | 03:20:59 | 02:35:46 | 00:00:00 | |
| MECKS9 | 2026-09-05 12:26:23 | 52.33697 | 11.80365 | 63° | 27km/h | 31024m | 6.7m/s | -44.1°C | 0% | 0hPa | 2.7V | 00:00:00 | 00:00:00 | 00:00:00 | |
| EDDB2-12 | 2026-09-05 12:26:22 | 52.33691 | 11.80348 | 56° | 20km/h | 31011m | 5.9m/s | -44.3°C | 0.4% | 10.9hPa | 2.7V | 00:00:00 | 00:00:00 | 00:00:00 | |
| DO2SHX-10 | 2026-09-05 12:26:20 | 52.33688 | 11.80341 | 50° | 16km/h | 31006m | 5.4m/s | -44.1°C | 2.5% | 10.8hPa | 2.7V | 00:00:00 | 02:35:42 | 00:00:00 | |
| DL1XH-15 | 2026-09-05 12:26:19 | 52.33680 | 11.80328 | 28° | 13km/h | 30987m | 6m/s | -44.2°C | 2.4% | 10.9hPa | 2.6V | 03:20:53 | 02:35:39 | 00:00:00 | |
| DF8AY | 2026-09-05 12:26:18 | 52.33682 | 11.80332 | 42° | 15km/h | 30994m | 6.6m/s | -44.1°C | 0% | 10.9hPa | 2.6V | 03:20:59 | 02:35:40 | 00:00:00 | |
| DL1NUX | 2026-09-05 12:26:18 | 52.33664 | 11.80333 | 328° | 24km/h | 30962m | 7m/s | -44.7°C | 2.5% | 10.9hPa | 2.7V | 03:20:57 | 02:35:35 | 00:00:00 | |
| HSKMA3-T | 2026-09-05 12:26:17 | 52.33679 | 11.80328 | 28° | 13km/h | 30987m | 6m/s | -44.2°C | 0% | 10.9hPa | 2.6V | 03:20:59 | 02:35:39 | 00:00:00 | |
| AA1-15 | 2026-09-05 12:26:15 | 52.33672 | 11.80327 | 348° | 16km/h | 30976m | 5.7m/s | -44.5°C | 0% | 10.9hPa | 2.7V | 03:20:59 | 02:35:37 | 00:00:00 | |
| DL1XH-west | 2026-09-05 12:26:13 | 52.33663 | 11.80333 | 329° | 24km/h | 30962m | 7.1m/s | -44.7°C | 0% | 11hPa | 2.7V | 03:20:59 | 02:35:35 | 00:00:00 | |
| MECKS9 | 2026-09-05 12:26:13 | 52.33664 | 11.80333 | 330° | 24km/h | 30963m | 7.1m/s | 0°C | 0% | 0hPa | 2.6V | 00:00:00 | 00:00:00 | 00:00:00 | |
| DO3MHA-11 | 2026-09-05 12:26:12 | 52.33658 | 11.80338 | 333° | 26km/h | 30956m | 5.0m/s | -44.7°C | 2.5% | 10.9hPa | 2.6V | 00:00:00 | 02:35:34 | 00:00:00 | |
| DO2SHX-10 | 2026-09-05 12:26:11 | 52.33652 | 11.80342 | 345° | 26km/h | 30952m | 4.1m/s | -44.8°C | 2.5% | 10.9hPa | 2.6V | 00:00:00 | 02:35:33 | 00:00:00 | |
| TFSTFS | 2026-09-05 12:26:10 | 52.33645 | 11.80343 | 5° | 26km/h | 30947m | 5.2m/s | -45.1°C | 0.5% | 11.0hPa | 2.7V | 03:21:00 | 00:00:00 | 00:00:00 | |
| DL1XH-15 | 2026-09-05 12:26:09 | 52.33626 | 11.80326 | 44° | 35km/h | 30927m | 5.6m/s | -45.2°C | 2.7% | 11hPa | 2.7V | 03:21:03 | 02:35:29 | 00:00:00 | |
| HSKMA3-T | 2026-09-05 12:26:06 | 52.33620 | 11.80316 | 42° | 33km/h | 30922m | 4.2m/s | -45.1°C | 0% | 11hPa | 2.7V | 03:21:50 | 02:35:28 | 00:00:00 | |
| DL1XH1-15 | 2026-09-05 12:26:05 | 52.33596 | 11.80327 | 287° | 26km/h | 30885m | 6.2m/s | -45°C | 2.6% | 11.1hPa | 2.7V | 03:21:10 | 02:35:22 | 00:00:00 | |
| AA1-15 | 2026-09-05 12:26:05 | 52.33614 | 11.80308 | 35° | 27km/h | 30917m | 5.1m/s | -45°C | 0% | 11hPa | 2.6V | 03:21:50 | 02:35:27 | 00:00:00 | |
| DL1NUX | 2026-09-05 12:26:05 | 52.33604 | 11.80304 | 335° | 18km/h | 30905m | 6.6m/s | -45.1°C | 2.6% | 11.1hPa | 2.6V | 03:21:07 | 02:35:25 | 00:00:00 | |
| DL1XH-west | 2026-09-05 12:26:02 | 52.33601 | 11.80309 | 305° | 22km/h | 30898m | 6.7m/s | -45.2°C | 0% | 11.1hPa | 2.7V | 03:21:50 | 02:35:24 | 00:00:00 | |
| HSKMA3-T | 2026-09-05 12:25:56 | 52.33586 | 11.80349 | 359° | 18km/h | 30863m | 5.9m/s | -45.3°C | 0% | 11.1hPa | 2.6V | 03:21:50 | 02:35:18 | 00:00:00 | |
| DL1NUX | 2026-09-05 12:25:56 | 52.33568 | 11.80345 | 10° | 26km/h | 30843m | 5.4m/s | -45.4°C | 2.8% | 11.1hPa | 2.7V | 03:21:17 | 02:35:15 | 00:00:00 | |
| AA1-15 | 2026-09-05 12:25:54 | 52.33574 | 11.80347 | 11° | 26km/h | 30849m | 6.8m/s | -45.4°C | 0% | 11.1hPa | 2.7V | 03:21:50 | 02:35:16 | 00:00:00 | |
| DL1ZP-14 | 2026-09-05 12:25:54 | 52.33568 | 11.80345 | 10° | 26km/h | 30844m | 5.4m/s | -45.4°C | 0.5% | 11.1hPa | 2.7V | 00:00:00 | 00:00:00 | 00:00:00 | |
| DF8AY-15 | 2026-09-05 12:25:53 | 52.33568 | 11.80345 | 11° | 15km/h | 30844m | 5.4m/s | -45.4°C | 2.8% | 11.1hPa | 2.7V | 03:21:00 | 02:35:15 | 00:00:00 | |
| DL1XH1-15 | 2026-09-05 12:25:52 | 52.33554 | 11.80339 | 26° | 9km/h | 30828m | 6.6m/s | -45.3°C | 2.8% | 11.2hPa | 2.7V | 03:21:20 | 02:35:12 | 00:00:00 | |
| DL1XH-west | 2026-09-05 12:25:52 | 52.33562 | 11.80343 | 12° | 22km/h | 30839m | 4.5m/s | -45.5°C | 0% | 11.1hPa | 2.6V | 03:21:50 | 02:35:14 | 00:00:00 | |
| HSKMA3-T | 2026-09-05 12:25:46 | 52.33556 | 11.80343 | 261° | 15km/h | 30803m | 6.1m/s | -45.3°C | 0% | 11.2hPa | 2.6V | 03:21:50 | 02:35:08 | 00:00:00 | |
| DL1XH1-15 | 2026-09-05 12:25:45 | 52.33538 | 11.80382 | 359° | 15km/h | 30768m | 6.7m/s | -45.1°C | 2.7% | 11.3hPa | 2.6V | 03:21:30 | 02:35:02 | 00:00:00 | |
| DL1NUX | 2026-09-05 12:25:45 | 52.33551 | 11.80368 | 306° | 27km/h | 30785m | 4.8m/s | -45.2°C | 2.7% | 11.3hPa | 2.7V | 03:21:27 | 02:35:05 | 00:00:00 | |
| AA1-15 | 2026-09-05 12:25:43 | 52.33551 | 11.80368 | 307° | 27km/h | 30785m | 4.8m/s | -45.2°C | 0% | 11.3hPa | 2.7V | 03:21:50 | 02:35:05 | 00:00:00 | |
| DL1XH-west | 2026-09-05 12:25:41 | 52.33542 | 11.80380 | 333° | 20km/h | 30774m | 6.4m/s | -45.2°C | 0% | 11.3hPa | 2.6V | 03:21:50 | 02:35:03 | 00:00:00 | |
| DB0DAN | 2026-09-05 12:25:40 | 52.33538 | 11.80382 | 359° | 15km/h | 30768m | 6.7m/s | -45.1°C | 0.5% | 11.3hPa | 2.6V | 00:00:00 | 00:00:00 | 00:00:00 | |
| DD8BA-10 | 2026-09-05 12:25:40 | 52.33538 | 11.80382 | 360° | 11km/h | 30768m | 6.7m/s | -45.0°C | 2.7% | 11.2hPa | 2.6V | 00:00:00 | 00:00:00 | 00:00:00 | |
| DL1XH-15 | 2026-09-05 12:25:39 | 52.33531 | 11.80372 | 68° | 13km/h | 30749m | 6.1m/s | -45°C | 2.7% | 11.3hPa | 2.7V | 03:21:33 | 02:34:59 | 00:00:00 | |
| DF8AY | 2026-09-05 12:25:36 | 52.33530 | 11.80368 | 67° | 7km/h | 30743m | 6.3m/s | -45.1°C | 0% | 11.3hPa | 2.7V | 03:22:41 | 02:34:58 | 00:00:00 | |
| DL1NUX | 2026-09-05 12:25:35 | 52.33530 | 11.80371 | 243° | 11km/h | 30726m | 5.4m/s | -44.9°C | 2.7% | 11.3hPa | 2.6V | 03:21:37 | 02:34:55 | 00:00:00 | |
| HSKMA3-T | 2026-09-05 12:25:35 | 52.33529 | 11.80367 | 44° | 2km/h | 30737m | 5.5m/s | -45.1°C | 0% | 11.3hPa | 2.6V | 03:21:50 | 02:34:57 | 00:00:00 | |
| AA1-15 | 2026-09-05 12:25:33 | 52.33530 | 11.80371 | 244° | 11km/h | 30726m | 5.4m/s | -44.9°C | 0% | 11.3hPa | 2.6V | 03:21:50 | 02:34:55 | 00:00:00 | |
| DL1XH-west | 2026-09-05 12:25:31 | 52.33534 | 11.80380 | 234° | 15km/h | 30713m | 6.6m/s | -44.8°C | 0% | 11.4hPa | 2.7V | 03:21:50 | 02:34:53 | 00:00:00 | |
| DD8BA-10 | 2026-09-05 12:25:30 | 52.33536 | 11.80385 | 243° | 15km/h | 30708m | 5.3m/s | -44.7°C | 2.6% | 11.3hPa | 2.7V | 03:21:00 | 00:00:00 | 00:00:00 | |
| DO2SHX-10 | 2026-09-05 12:25:29 | 52.33537 | 11.80390 | 262° | 15km/h | 30703m | 5.3m/s | -44.7°C | 2.7% | 11.3hPa | 2.7V | 03:21:00 | 02:34:51 | 00:00:00 | |
| DB0DAN | 2026-09-05 12:25:25 | 52.33527 | 11.80408 | 348° | 16km/h | 30679m | 4.4m/s | -44.5°C | 0.4% | 11.43hPa | 2.7V | 00:00:00 | 00:00:00 | 00:00:00 | |
| DL1NUX | 2026-09-05 12:25:25 | 52.33521 | 11.80407 | 46° | 9km/h | 30669m | 6.3m/s | -44.7°C | 2.6% | 11.4hPa | 2.7V | 03:21:47 | 02:34:45 | 00:00:00 | |
| HSKMA3-T | 2026-09-05 12:25:25 | 52.33527 | 11.80408 | 348° | 18km/h | 30679m | 4.4m/s | -44.5°C | 0% | 11.4hPa | 2.7V | 03:21:50 | 02:34:47 | 00:00:00 | |
| SONDE2-11 | 2026-09-05 12:25:24 | 52.33521 | 11.80407 | 46° | 9km/h | 30670m | 6.3m/s | -44.7°C | 0.5% | 11.4hPa | 2.6V | 00:00:00 | 00:00:00 | 00:00:00 | |
| DL1XH1-15 | 2026-09-05 12:25:23 | 52.33528 | 11.80397 | 169° | 22km/h | 30651m | 4.8m/s | -44.6°C | 2.6% | 11.5hPa | 2.6V | 03:21:50 | 02:34:42 | 00:00:00 | |
| AA1-15 | 2026-09-05 12:25:22 | 52.33521 | 11.80404 | 115° | 11km/h | 30663m | 6.6m/s | -44.7°C | 0% | 11.4hPa | 2.7V | 03:21:50 | 02:34:44 | 00:00:00 | |
| DL1XH-west | 2026-09-05 12:25:20 | 52.33528 | 11.80397 | 169° | 22km/h | 30651m | 4.9m/s | -44.6°C | 0% | 11.5hPa | 2.6V | 03:21:50 | 02:34:42 | 00:00:00 | |
| EDDB2-12 | 2026-09-05 12:25:20 | 52.33533 | 11.80397 | 184° | 22km/h | 30646m | 5.1m/s | -44.6°C | 0.5% | 11.5hPa | 2.6V | 00:00:00 | 00:00:00 | 00:00:00 | |
| DO3MHA-11 | 2026-09-05 12:25:19 | 52.33533 | 11.80397 | 185° | 16km/h | 30646m | 5.0m/s | -44.5°C | 2.6% | 11.4hPa | 2.6V | 00:00:00 | 02:34:41 | 00:00:00 | |
| DL1NUX | 2026-09-05 12:25:18 | 52.33536 | 11.80426 | 336° | 16km/h | 30611m | 4.9m/s | -44.6°C | 2.7% | 11.6hPa | 2.6V | 03:21:57 | 02:34:35 | 00:00:00 | |
| DO2SHX-10 | 2026-09-05 12:25:17 | 52.33542 | 11.80403 | 232° | 16km/h | 30635m | 6.6m/s | -44.6°C | 2.7% | 11.5hPa | 2.7V | 03:21:00 | 02:34:39 | 00:00:00 | |
| DL2RXE-15 | 2026-09-05 12:25:16 | 52.33544 | 11.80410 | 265° | 16km/h | 30628m | 6.6m/s | -44.6°C | 0.5% | 11.5hPa | 2.7V | 00:00:00 | 00:00:00 | 00:00:00 | |
| DL1XH1-15 | 2026-09-05 12:25:15 | 52.33530 | 11.80424 | 115° | 9km/h | 30594m | 6m/s | -44.5°C | 2.7% | 11.6hPa | 2.7V | 03:22:00 | 02:34:32 | 00:00:00 | |
| HSKMA3-T | 2026-09-05 12:25:14 | 52.33540 | 11.80422 | 320° | 20km/h | 30616m | 4.8m/s | -44.6°C | 0% | 11.6hPa | 2.6V | 03:22:41 | 02:34:36 | 00:00:00 | |
| DO2SHX-10 | 2026-09-05 12:25:14 | 52.33540 | 11.80422 | 320° | 16km/h | 30617m | 4.8m/s | -44.6°C | 2.7% | 11.5hPa | 2.6V | 00:00:00 | 02:34:36 | 00:00:00 | |
| DF8AY-15 | 2026-09-05 12:25:13 | 52.33536 | 11.80426 | 337° | 11km/h | 30612m | 4.9m/s | -44.6°C | 2.7% | 11.5hPa | 2.6V | 00:00:00 | 02:34:35 | 00:00:00 | |
| DL1XH-15 | 2026-09-05 12:25:12 | 52.33540 | 11.80417 | 174° | 16km/h | 30578m | 5.5m/s | -44.5°C | 2.7% | 11.6hPa | 2.6V | 03:22:03 | 02:34:29 | 00:00:00 | |
| AA1-15 | 2026-09-05 12:25:11 | 52.33531 | 11.80427 | 41° | 7km/h | 30600m | 5.9m/s | -44.4°C | 0% | 11.6hPa | 2.7V | 03:22:41 | 02:34:33 | 00:00:00 | |
| DL1XH-west | 2026-09-05 12:25:10 | 52.33530 | 11.80424 | 116° | 9km/h | 30594m | 6m/s | -44.5°C | 0% | 11.6hPa | 2.7V | 03:22:41 | 02:34:32 | 00:00:00 | |
| DD8BA-10 | 2026-09-05 12:25:10 | 52.33530 | 11.80424 | 116° | 11km/h | 30595m | 5.9m/s | -44.4°C | 2.7% | 11.5hPa | 2.7V | 00:00:00 | 00:00:00 | 00:00:00 | |
| DO3MHA-11 | 2026-09-05 12:25:09 | 52.33532 | 11.80421 | 145° | 11km/h | 30589m | 5.5m/s | -44.4°C | 2.7% | 11.5hPa | 2.6V | 00:00:00 | 02:34:31 | 00:00:00 | |
| DO2SHX-10 | 2026-09-05 12:25:08 | 52.33536 | 11.80418 | 161° | 16km/h | 30583m | 5.2m/s | -44.5°C | 2.7% | 11.5hPa | 2.6V | 00:00:00 | 02:34:30 | 00:00:00 | |
| DL4XJ-10 | 2026-09-05 12:25:06 | 52.33543 | 11.80417 | 184° | 11km/h | 30572m | 5.9m/s | -44.4°C | 0% | 0hPa | 2.7V | 00:00:00 | 00:00:00 | 00:00:00 | |
| DL1XH1-15 | 2026-09-05 12:25:05 | 52.33554 | 11.80425 | 213° | 9km/h | 30537m | 6.4m/s | -44.2°C | 2.6% | 11.7hPa | 2.7V | 03:22:10 | 02:34:22 | 00:00:00 | |
| DO2SHX-10 | 2026-09-05 12:25:05 | 52.33546 | 11.80417 | 196° | 7km/h | 30566m | 5.7m/s | -44.1°C | 2.6% | 11.6hPa | 2.6V | 03:22:00 | 02:34:27 | 00:00:00 | |
| DM0DOS-11 | 2026-09-05 12:25:04 | 52.33550 | 11.80420 | 221° | 5km/h | 30555m | 5.6m/s | -44.1°C | 2.6% | 11.6hPa | 2.6V | 03:22:07 | 02:34:25 | 00:00:00 | |
| HSKMA3-T | 2026-09-05 12:25:03 | 52.33550 | 11.80420 | 221° | 5km/h | 30555m | 5.6m/s | -44.1°C | 0% | 11.6hPa | 2.6V | 03:22:41 | 02:34:25 | 00:00:00 | |
| AA1-15 | 2026-09-05 12:25:01 | 52.33552 | 11.80423 | 213° | 7km/h | 30543m | 6.2m/s | -44.2°C | 0% | 11.7hPa | 2.7V | 03:22:41 | 02:34:23 | 00:00:00 | |
| DL1XH-west | 2026-09-05 12:24:59 | 52.33557 | 11.80427 | 207° | 13km/h | 30531m | 6m/s | -44.3°C | 0% | 11.7hPa | 2.7V | 03:22:41 | 02:34:21 | 00:00:00 | |
| SMARD9-15 | 2026-09-05 12:24:56 | 52.33566 | 11.80436 | 213° | 11km/h | 30515m | 5.2m/s | -44.4°C | 0.5% | 11.7hPa | 2.7V | 00:00:00 | 00:00:00 | 00:00:00 | |
| DB0DAN | 2026-09-05 12:24:55 | 52.33567 | 11.80438 | 228° | 7km/h | 30509m | 6.7m/s | -44.4°C | 0.5% | 11.74hPa | 2.7V | 00:00:00 | 00:00:00 | 00:00:00 | |
| DL1NUX | 2026-09-05 12:24:55 | 52.33569 | 11.80443 | 240° | 5km/h | 30497m | 5.1m/s | -44.1°C | 2.6% | 11.7hPa | 2.7V | 03:22:17 | 02:34:15 | 00:00:00 | |
| EDDB2-11 | 2026-09-05 12:24:54 | 52.33568 | 11.80441 | 247° | 4km/h | 30503m | 6.0m/s | -44.2°C | 0.5% | 11.7hPa | 2.6V | 00:00:00 | 00:00:00 | 00:00:00 | |
| DL1XH1-15 | 2026-09-05 12:24:53 | 52.33576 | 11.80447 | 191° | 18km/h | 30480m | 6.7m/s | -44.1°C | 2.6% | 11.8hPa | 2.6V | 03:22:20 | 02:34:12 | 00:00:00 | |
| DF8AY | 2026-09-05 12:24:53 | 52.33570 | 11.80444 | 217° | 7km/h | 30492m | 5.1m/s | -44.1°C | 0% | 11.7hPa | 2.7V | 03:22:41 | 02:34:14 | 00:00:00 | |
| DL1XH-15 | 2026-09-05 12:24:53 | 52.33593 | 11.80451 | 183° | 22km/h | 30463m | 5.5m/s | -44°C | 2.5% | 11.8hPa | 2.7V | 03:22:23 | 02:34:09 | 00:00:00 | |
| AA1-15 | 2026-09-05 12:24:50 | 52.33576 | 11.80448 | 192° | 18km/h | 30480m | 6.7m/s | -44.1°C | 0% | 11.8hPa | 2.6V | 03:22:41 | 02:34:12 | 00:00:00 | |
| DL1XH-west | 2026-09-05 12:24:49 | 52.33581 | 11.80449 | 189° | 24km/h | 30474m | 5.7m/s | -44°C | 0% | 11.8hPa | 2.6V | 03:22:41 | 02:34:11 | 00:00:00 | |
| EDDB2-12 | 2026-09-05 12:24:49 | 52.33587 | 11.80450 | 186° | 24km/h | 30469m | 5.0m/s | -44.0°C | 0.4% | 11.8hPa | 2.7V | 00:00:00 | 00:00:00 | 00:00:00 | |
| DO2SHX-10 | 2026-09-05 12:24:47 | 52.33593 | 11.80451 | 184° | 16km/h | 30464m | 5.4m/s | -43.9°C | 2.5% | 11.8hPa | 2.7V | 00:00:00 | 02:34:09 | 00:00:00 | |
| GOEST3-10 | 2026-09-05 12:24:46 | 52.33597 | 11.80451 | 181° | 11km/h | 30458m | 6.5m/s | -43.9°C | 2.5% | 11.7hPa | 2.7V | 00:00:00 | 02:34:08 | 00:00:00 | |
| DL1XH1-15 | 2026-09-05 12:24:45 | 52.33615 | 11.80448 | 174° | 18km/h | 30422m | 5.6m/s | -44.2°C | 2.5% | 11.9hPa | 2.7V | 03:22:30 | 02:34:02 | 00:00:00 | |
| SP3WXH-11 | 2026-09-05 12:24:44 | 52.33603 | 11.80451 | 167° | 7km/h | 30446m | 5.2m/s | -44.0°C | 0.5% | 11.8hPa | 2.6V | 00:00:00 | 00:00:00 | 00:00:00 | |
| HSKMA3-T | 2026-09-05 12:24:42 | 52.33608 | 11.80449 | 174° | 11km/h | 30435m | 6.7m/s | -44.1°C | 0% | 11.8hPa | 2.6V | 03:22:41 | 02:34:04 | 00:00:00 | |
| DF8AY | 2026-09-05 12:24:41 | 52.33611 | 11.80449 | 176° | 15km/h | 30428m | 6.6m/s | -44.2°C | 0% | 11.9hPa | 2.7V | 03:22:41 | 02:34:03 | 00:00:00 | |
| DB0DAN | 2026-09-05 12:24:40 | 52.33615 | 11.80448 | 174° | 16km/h | 30422m | 5.6m/s | -44.2°C | 0.4% | 11.88hPa | 2.7V | 00:00:00 | 00:00:00 | 00:00:00 | |
| AA1-15 | 2026-09-05 12:24:39 | 52.33619 | 11.80447 | 169° | 18km/h | 30417m | 5.4m/s | -44.2°C | 0% | 11.9hPa | 2.7V | 03:22:41 | 02:34:01 | 00:00:00 | |
| DL1XH-west | 2026-09-05 12:24:38 | 52.33624 | 11.80445 | 163° | 18km/h | 30411m | 6.6m/s | -44.2°C | 0% | 11.9hPa | 2.7V | 03:22:41 | 02:34:00 | 00:00:00 | |
| DO2SHX-10 | 2026-09-05 12:24:38 | 52.33624 | 11.80445 | 164° | 18km/h | 30411m | 6.6m/s | -44.1°C | 2.5% | 11.8hPa | 2.6V | 00:00:00 | 02:34:00 | 00:00:00 | |
| SONCRA | 2026-09-05 12:24:37 | 52.33628 | 11.80443 | 157° | 16km/h | 30405m | 6.5m/s | -44.1°C | 0.5% | 11.9hPa | 2.6V | 00:00:00 | 00:00:00 | 00:00:00 | |
| DL1LOL-11 | 2026-09-05 12:24:36 | 52.33632 | 11.80440 | 160° | 18km/h | 30399m | 5.4m/s | -44.0°C | 0.4% | 11.9hPa | 2.6V | 03:22:00 | 00:00:00 | 00:00:00 | |
| DL1XH1-15 | 2026-09-05 12:24:35 | 52.33669 | 11.80427 | 161° | 22km/h | 30364m | 6.1m/s | -44.1°C | 2.4% | 12hPa | 2.6V | 03:22:40 | 02:33:52 | 00:00:00 | |
| HSKMA3-T | 2026-09-05 12:24:32 | 52.33656 | 11.80431 | 172° | 29km/h | 30375m | 5.3m/s | -44°C | 0% | 11.9hPa | 2.7V | 03:22:41 | 02:33:54 | 00:00:00 | |
| DF8AY | 2026-09-05 12:24:30 | 52.33669 | 11.80427 | 162° | 22km/h | 30364m | 6.1m/s | -44.2°C | 0% | 12hPa | 2.6V | 03:22:41 | 02:33:52 | 00:00:00 | |
| AA1-15 | 2026-09-05 12:24:28 | 52.33676 | 11.80420 | 140° | 13km/h | 30351m | 6.2m/s | -44.3°C | 0% | 12hPa | 2.6V | 03:23:32 | 02:33:50 | 00:00:00 | |
| DL1XH-west | 2026-09-05 12:24:27 | 52.33679 | 11.80416 | 135° | 13km/h | 30346m | 5.2m/s | -44.3°C | 0% | 12hPa | 2.7V | 03:23:32 | 02:33:49 | 00:00:00 | |
| DO2SHX-10 | 2026-09-05 12:24:26 | 52.33681 | 11.80413 | 144° | 16km/h | 30340m | 5.8m/s | -44.2°C | 2.5% | 11.9hPa | 2.7V | 00:00:00 | 02:33:48 | 00:00:00 | |
| DL1XH1-15 | 2026-09-05 12:24:25 | 52.33711 | 11.80388 | 139° | 29km/h | 30306m | 6.4m/s | -44.2°C | 2.5% | 12.1hPa | 2.7V | 03:22:50 | 02:33:42 | 00:00:00 | |
| HSKMA3-T | 2026-09-05 12:24:21 | 52.33705 | 11.80395 | 146° | 27km/h | 30312m | 6.6m/s | -44.2°C | 0% | 12.1hPa | 2.7V | 03:23:32 | 02:33:43 | 00:00:00 | |
| DF8AY | 2026-09-05 12:24:19 | 52.33723 | 11.80371 | 139° | 33km/h | 30295m | 4.9m/s | -44.1°C | 0% | 12.1hPa | 2.6V | 03:23:32 | 02:33:40 | 00:00:00 | |
| DL1XH-15 | 2026-09-05 12:24:19 | 52.33729 | 11.80362 | 143° | 33km/h | 30289m | 6.3m/s | -44.2°C | 2.4% | 12.1hPa | 2.7V | 03:22:53 | 02:33:39 | 00:00:00 | |
| DL1XH-west | 2026-09-05 12:24:17 | 52.33729 | 11.80362 | 143° | 33km/h | 30289m | 6.3m/s | -44.2°C | 0% | 12.1hPa | 2.7V | 03:23:32 | 02:33:39 | 00:00:00 | |
| DO2SHX-10 | 2026-09-05 12:24:17 | 52.33729 | 11.80362 | 144° | 35km/h | 30290m | 6.2m/s | -44.1°C | 2.4% | 12.0hPa | 2.7V | 03:22:00 | 02:33:39 | 00:00:00 | |
| GOEST3-10 | 2026-09-05 12:24:16 | 52.33736 | 11.80354 | 150° | 33km/h | 30283m | 6.4m/s | -44.2°C | 2.4% | 12.1hPa | 2.7V | 00:00:00 | 02:33:38 | 00:00:00 | |
| DL1XH1-15 | 2026-09-05 12:24:15 | 52.33771 | 11.80307 | 113° | 26km/h | 30248m | 4.6m/s | -44.6°C | 2.6% | 12.2hPa | 2.6V | 03:23:00 | 02:33:32 | 00:00:00 | |
| HSKMA3-T | 2026-09-05 12:24:11 | 52.33768 | 11.80316 | 119° | 26km/h | 30254m | 6m/s | -44.6°C | 0% | 12.2hPa | 2.7V | 03:23:32 | 02:33:33 | 00:00:00 | |
| DO2SHX-10 | 2026-09-05 12:24:11 | 52.33768 | 11.80316 | 120° | 26km/h | 30254m | 6.0m/s | -44.5°C | 2.5% | 12.1hPa | 2.6V | 00:00:00 | 02:33:33 | 00:00:00 | |
| DD8BA-10 | 2026-09-05 12:24:10 | 52.33771 | 11.80307 | 114° | 27km/h | 30249m | 4.6m/s | -44.6°C | 2.6% | 12.2hPa | 2.6V | 03:23:00 | 00:00:00 | 00:00:00 | |
| DL1XH-15 | 2026-09-05 12:24:09 | 52.33780 | 11.80281 | 139° | 26km/h | 30232m | 6.8m/s | -44.7°C | 2.6% | 12.2hPa | 2.7V | 03:23:03 | 02:33:29 | 00:00:00 | |
| AA1-15 | 2026-09-05 12:24:07 | 52.33780 | 11.80281 | 139° | 26km/h | 30232m | 6.8m/s | -44.7°C | 0% | 12.2hPa | 2.7V | 03:23:32 | 02:33:29 | 00:00:00 | |
| DL1XH-west | 2026-09-05 12:24:06 | 52.33786 | 11.80274 | 148° | 27km/h | 30225m | 6.2m/s | -44.7°C | 0% | 12.2hPa | 2.7V | 03:23:32 | 02:33:28 | 00:00:00 | |
| GOEST3-10 | 2026-09-05 12:24:06 | 52.33786 | 11.80274 | 148° | 29km/h | 30226m | 6.2m/s | -44.6°C | 2.7% | 12.2hPa | 2.6V | 00:00:00 | 02:33:28 | 00:00:00 | |
| DL1NUX | 2026-09-05 12:24:05 | 52.33805 | 11.80254 | 139° | 31km/h | 30209m | 5.9m/s | -44.6°C | 2.7% | 12.3hPa | 2.6V | 03:23:07 | 02:33:25 | 00:00:00 | |
| DL1XH1-15 | 2026-09-05 12:24:05 | 52.33817 | 11.80224 | 111° | 29km/h | 30190m | 5.4m/s | -44.5°C | 2.7% | 12.3hPa | 2.7V | 03:23:10 | 02:33:22 | 00:00:00 | |
| HSKMA3-T | 2026-09-05 12:24:00 | 52.33817 | 11.80224 | 112° | 29km/h | 30190m | 5.4m/s | -44.5°C | 0% | 12.3hPa | 2.7V | 03:23:32 | 02:33:22 | 00:00:00 | |
| DD8BA-10 | 2026-09-05 12:24:00 | 52.33817 | 11.80224 | 112° | 27km/h | 30191m | 5.3m/s | -44.4°C | 2.7% | 12.2hPa | 2.6V | 00:00:00 | 00:00:00 | 00:00:00 | |
| DL1XH-15 | 2026-09-05 12:23:59 | 52.33825 | 11.80195 | 127° | 24km/h | 30173m | 6.2m/s | -44.6°C | 2.7% | 12.3hPa | 2.6V | 03:23:13 | 02:33:19 | 00:00:00 | |
| DF8AY | 2026-09-05 12:23:57 | 52.33825 | 11.80195 | 127° | 24km/h | 30173m | 6.2m/s | -44.6°C | 0% | 12.3hPa | 2.6V | 03:23:32 | 02:33:19 | 00:00:00 | |
| DL1XH-west | 2026-09-05 12:23:56 | 52.33829 | 11.80187 | 138° | 26km/h | 30168m | 5.8m/s | -44.6°C | 0% | 12.3hPa | 2.6V | 03:23:32 | 02:33:18 | 00:00:00 | |
| DB0DAN | 2026-09-05 12:23:55 | 52.33834 | 11.80180 | 140° | 26km/h | 30162m | 5.3m/s | -44.6°C | 0.4% | 12.35hPa | 2.7V | 00:00:00 | 00:00:00 | 00:00:00 | |
| DL1XH1-15 | 2026-09-05 12:23:55 | 52.33855 | 11.80135 | 114° | 24km/h | 30132m | 5.3m/s | -44.8°C | 2.7% | 12.4hPa | 2.6V | 03:23:20 | 02:33:12 | 00:00:00 | |
| DL1NUX | 2026-09-05 12:23:55 | 52.33844 | 11.80165 | 129° | 29km/h | 30150m | 7.1m/s | -44.6°C | 2.6% | 12.3hPa | 2.7V | 03:23:17 | 02:33:15 | 00:00:00 | |
| HSKMA3-T | 2026-09-05 12:23:51 | 52.33855 | 11.80135 | 115° | 24km/h | 30132m | 5.4m/s | -44.8°C | 0% | 12.4hPa | 2.6V | 03:23:32 | 02:33:12 | 00:00:00 | |
| DO2SHX-10 | 2026-09-05 12:23:50 | 52.33855 | 11.80135 | 115° | 22km/h | 30133m | 5.3m/s | -44.7°C | 2.7% | 12.4hPa | 2.7V | 00:00:00 | 02:33:12 | 00:00:00 | |
| DL1XH-15 | 2026-09-05 12:23:49 | 52.33862 | 11.80115 | 123° | 15km/h | 30114m | 5.4m/s | -44.6°C | 2.6% | 12.4hPa | 2.7V | 03:23:23 | 02:33:09 | 00:00:00 | |
| DF8AY | 2026-09-05 12:23:47 | 52.33864 | 11.80109 | 113° | 15km/h | 30108m | 5m/s | -44.6°C | 0% | 12.4hPa | 2.7V | 03:23:32 | 02:33:08 | 00:00:00 | |
| DF7ER-10 | 2026-09-05 12:23:47 | 52.33862 | 11.80114 | 125° | 15km/h | 30114m | 5.4m/s | -44.6°C | 0.5% | 12.4hPa | 2.7V | 03:23:00 | 00:00:00 | 00:00:00 | |
| GOEST3-10 | 2026-09-05 12:23:46 | 52.33864 | 11.80109 | 113° | 18km/h | 30109m | 4.9m/s | -44.6°C | 2.6% | 12.4hPa | 2.7V | 00:00:00 | 02:33:08 | 00:00:00 | |
| DL1NUX | 2026-09-05 12:23:45 | 52.33865 | 11.80088 | 86° | 22km/h | 30090m | 5.6m/s | -44.9°C | 2.6% | 12.5hPa | 2.7V | 03:23:27 | 02:33:05 | 00:00:00 | |
| DL1XH-west | 2026-09-05 12:23:45 | 52.33865 | 11.80104 | 97° | 15km/h | 30103m | 6.6m/s | -44.7°C | 0% | 12.5hPa | 2.6V | 03:23:32 | 02:33:07 | 00:00:00 | |
| DF8AY | 2026-09-05 12:23:41 | 52.33889 | 11.80024 | 129° | 35km/h | 30049m | 6.4m/s | -44.8°C | 0% | 12.6hPa | 2.6V | 03:24:23 | 02:32:58 | 00:00:00 | |
| DB0DAN | 2026-09-05 12:23:40 | 52.33868 | 11.80061 | 122° | 24km/h | 30072m | 6.8m/s | -44.9°C | 0.5% | 12.52hPa | 2.6V | 00:00:00 | 00:00:00 | 00:00:00 | |
| HSKMA3-T | 2026-09-05 12:23:39 | 52.33872 | 11.80052 | 135° | 27km/h | 30066m | 6.4m/s | -44.9°C | 0% | 12.5hPa | 2.6V | 03:23:32 | 02:33:01 | 00:00:00 | |
| DL1XH-15 | 2026-09-05 12:23:39 | 52.33884 | 11.80035 | 135° | 33km/h | 30054m | 5.5m/s | -44.8°C | 2.6% | 12.6hPa | 2.7V | 03:23:33 | 02:32:59 | 00:00:00 | |
| DL1XH-west | 2026-09-05 12:23:35 | 52.33894 | 11.80013 | 120° | 35km/h | 30043m | 5.8m/s | -44.8°C | 0% | 12.6hPa | 2.6V | 03:24:23 | 02:32:57 | 00:00:00 | |
| DL1NUX | 2026-09-05 12:23:35 | 52.33900 | 11.79989 | 104° | 27km/h | 30032m | 5.2m/s | -44.9°C | 2.6% | 12.6hPa | 2.7V | 03:23:37 | 02:32:55 | 00:00:00 | |
| DO2SHX-10 | 2026-09-05 12:23:35 | 52.33894 | 11.80013 | 121° | 31km/h | 30043m | 5.8m/s | -44.8°C | 2.7% | 12.5hPa | 2.7V | 00:00:00 | 02:32:57 | 00:00:00 | |
| DC6BW-12 | 2026-09-05 12:23:34 | 52.33898 | 11.80000 | 113° | 33km/h | 30037m | 5.1m/s | -44.8°C | 0.5% | 12.6hPa | 2.7V | 00:00:00 | 00:00:00 | 00:00:00 | |
| DF8AY-15 | 2026-09-05 12:23:33 | 52.33900 | 11.79989 | 105° | 18km/h | 30033m | 5.2m/s | -44.8°C | 2.6% | 12.5hPa | 2.7V | 00:00:00 | 02:32:55 | 00:00:00 | |
| DB0NH | 2026-09-05 12:23:32 | 52.33901 | 11.79979 | 98° | 16km/h | 30027m | 6.2m/s | -44.8°C | 2.6% | 12.6hPa | 2.7V | 00:00:00 | 02:32:54 | 00:00:00 | |
| GOEST3-10 | 2026-09-05 12:23:31 | 52.33901 | 11.79971 | 91° | 13km/h | 30020m | 7.0m/s | -44.9°C | 2.6% | 12.5hPa | 2.6V | 00:00:00 | 00:00:00 | 00:00:00 | |
| BUE01 | 2026-09-05 12:23:30 | 52.33900 | 11.79962 | 46° | 9km/h | 30008m | 5.7m/s | -44.8°C | 0.5% | 12.6hPa | 2.7V | 00:00:00 | 00:00:00 | 00:00:00 | |
| DL1XH-15 | 2026-09-05 12:23:29 | 52.33895 | 11.79955 | 45° | 16km/h | 29995m | 6.9m/s | -44.6°C | 2.6% | 12.7hPa | 2.7V | 03:23:43 | 02:32:49 | 00:00:00 | |
| HSKMA3-T | 2026-09-05 12:23:29 | 52.33900 | 11.79962 | 46° | 9km/h | 30008m | 5.7m/s | -44.8°C | 0% | 12.6hPa | 2.7V | 03:24:23 | 02:32:51 | 00:00:00 | |
| DD8BA-10 | 2026-09-05 12:23:29 | 52.33900 | 11.79962 | 47° | 18km/h | 30008m | 5.7m/s | -44.7°C | 2.6% | 12.6hPa | 2.6V | 03:23:00 | 00:00:00 | 00:00:00 | |
| DJ2DS-15 | 2026-09-05 12:23:28 | 52.33895 | 11.79955 | 45° | 15km/h | 29996m | 6.9m/s | -44.6°C | 0.5% | 12.7hPa | 2.6V | 00:00:00 | 00:00:00 | 00:00:00 | |
| DB0DAN | 2026-09-05 12:23:25 | 52.33891 | 11.79942 | 77° | 20km/h | 29983m | 5.3m/s | -44.7°C | 0.5% | 12.65hPa | 2.6V | 00:00:00 | 00:00:00 | 00:00:00 | |
| AA1-15 | 2026-09-05 12:23:25 | 52.33891 | 11.79942 | 77° | 20km/h | 29983m | 5.3m/s | -44.7°C | 0% | 12.7hPa | 2.6V | 03:24:23 | 02:32:47 | 00:00:00 | |
| DL1XH-west | 2026-09-05 12:23:24 | 52.33890 | 11.79933 | 94° | 22km/h | 29978m | 5.5m/s | -44.8°C | 0% | 12.7hPa | 2.6V | 03:24:23 | 02:32:46 | 00:00:00 | |
| AP2371 | 2026-09-05 12:23:24 | 52.33890 | 11.79933 | 95° | 22km/h | 29979m | 5.5m/s | -44.8°C | 0% | 0hPa | 2.7V | 00:00:00 | 00:00:00 | 00:00:00 | |
| DO2SHX-10 | 2026-09-05 12:23:23 | 52.33891 | 11.79924 | 110° | 22km/h | 29972m | 7.3m/s | -44.6°C | 2.5% | 12.6hPa | 2.7V | 00:00:00 | 02:32:45 | 00:00:00 | |
| GOEST3-10 | 2026-09-05 12:23:21 | 52.33898 | 11.79911 | 150° | 16km/h | 29959m | 6.3m/s | -44.4°C | 2.5% | 12.7hPa | 2.7V | 03:23:00 | 00:00:00 | 00:00:00 | |
| DO2SHX-10 | 2026-09-05 12:23:20 | 52.33902 | 11.79906 | 138° | 15km/h | 29953m | 4.4m/s | -44.4°C | 2.5% | 12.7hPa | 2.7V | 00:00:00 | 02:32:42 | 00:00:00 | |
| DL1XH-15 | 2026-09-05 12:23:19 | 52.33905 | 11.79891 | 62° | 15km/h | 29934m | 6.4m/s | -44.6°C | 2.5% | 12.8hPa | 2.6V | 03:23:53 | 02:32:39 | 00:00:00 | |
| HSKMA3-T | 2026-09-05 12:23:18 | 52.33906 | 11.79896 | 96° | 13km/h | 29941m | 6.9m/s | -44.6°C | 0% | 12.8hPa | 2.6V | 03:24:23 | 02:32:40 | 00:00:00 | |
| DF8AY | 2026-09-05 12:23:15 | 52.33899 | 11.79882 | 24° | 18km/h | 29922m | 5.6m/s | -44.6°C | 0% | 12.8hPa | 2.7V | 03:24:23 | 02:32:37 | 00:00:00 | |
| DL1XH-west | 2026-09-05 12:23:14 | 52.33895 | 11.79880 | 13° | 16km/h | 29916m | 6.7m/s | -44.7°C | 0% | 12.8hPa | 2.7V | 03:24:23 | 02:32:36 | 00:00:00 | |
| DO2SHX-10 | 2026-09-05 12:23:14 | 52.33895 | 11.79880 | 14° | 11km/h | 29916m | 6.7m/s | -44.6°C | 2.6% | 12.8hPa | 2.7V | 00:00:00 | 02:32:36 | 00:00:00 | |
| DL1XH-15 | 2026-09-05 12:23:13 | 52.33902 | 11.79856 | 127° | 27km/h | 29874m | 5.7m/s | -44.3°C | 2.5% | 12.9hPa | 2.7V | 03:24:03 | 02:32:29 | 00:00:00 | |
| DJ8HS-15 | 2026-09-05 12:23:12 | 52.33890 | 11.79879 | 6° | 13km/h | 29905m | 4.9m/s | -44.4°C | 2.5% | 12.8hPa | 2.6V | 03:23:00 | 02:32:34 | 00:00:00 | |
| DB0DAN | 2026-09-05 12:23:10 | 52.33892 | 11.79876 | 136° | 11km/h | 29894m | 6.1m/s | -44.4°C | 0.5% | 12.86hPa | 2.6V | 00:00:00 | 00:00:00 | 00:00:00 | |
| HSKMA3-T | 2026-09-05 12:23:07 | 52.33902 | 11.79856 | 128° | 27km/h | 29874m | 5.7m/s | -44.3°C | 0% | 12.9hPa | 2.7V | 03:24:23 | 02:32:29 | 00:00:00 | |
| DF8AY | 2026-09-05 12:23:05 | 52.33911 | 11.79840 | 142° | 24km/h | 29863m | 6.5m/s | -44.2°C | 0% | 12.9hPa | 2.6V | 03:24:23 | 02:32:27 | 00:00:00 | |
| DO2SHX-10 | 2026-09-05 12:23:05 | 52.33911 | 11.79840 | 142° | 18km/h | 29863m | 6.4m/s | -44.2°C | 2.5% | 12.9hPa | 2.7V | 03:24:00 | 02:32:27 | 00:00:00 | |
| DM0DOS-11 | 2026-09-05 12:23:04 | 52.33920 | 11.79833 | 174° | 13km/h | 29849m | 6.3m/s | -44.2°C | 2.5% | 12.9hPa | 2.7V | 03:24:07 | 02:32:25 | 00:00:00 | |
| DL1XH-west | 2026-09-05 12:23:04 | 52.33916 | 11.79835 | 154° | 18km/h | 29856m | 7.1m/s | -44.2°C | 0% | 12.9hPa | 2.7V | 03:24:23 | 02:32:26 | 00:00:00 | |
| DO2SHX-10 | 2026-09-05 12:23:02 | 52.33922 | 11.79833 | 191° | 4km/h | 29844m | 5.7m/s | -44.2°C | 2.4% | 12.9hPa | 2.7V | 00:00:00 | 02:32:24 | 00:00:00 | |
| GOEST3-10 | 2026-09-05 12:23:01 | 52.33923 | 11.79834 | 199° | 5km/h | 29837m | 6.7m/s | -44.2°C | 2.4% | 12.9hPa | 2.6V | 03:24:00 | 00:00:00 | 00:00:00 | |
| DL1XH-15 | 2026-09-05 12:22:59 | 52.33925 | 11.79828 | 141° | 9km/h | 29812m | 6.8m/s | -44°C | 2.4% | 13hPa | 2.7V | 03:24:13 | 02:32:19 | 00:00:00 | |
| HSKMA3-T | 2026-09-05 12:22:57 | 52.33925 | 11.79828 | 141° | 9km/h | 29812m | 6.8m/s | -44°C | 0% | 13hPa | 2.7V | 03:24:23 | 02:32:19 | 00:00:00 | |
| DO2SHX-10 | 2026-09-05 12:22:56 | 52.33928 | 11.79826 | 154° | 20km/h | 29806m | 6.7m/s | -44.0°C | 2.3% | 13.0hPa | 2.7V | 00:00:00 | 02:32:18 | 00:00:00 | |
| DL1XH1-15 | 2026-09-05 12:22:55 | 52.33957 | 11.79785 | 132° | 24km/h | 29770m | 5.1m/s | -44.3°C | 2.3% | 13.1hPa | 2.7V | 03:24:20 | 02:32:12 | 00:00:00 | |
| DL1NUX | 2026-09-05 12:22:55 | 52.33942 | 11.79811 | 138° | 29km/h | 29788m | 7.2m/s | -44.2°C | 2.3% | 13.1hPa | 2.6V | 03:24:17 | 02:32:15 | 00:00:00 | |
| AA1-15 | 2026-09-05 12:22:54 | 52.33937 | 11.79818 | 145° | 26km/h | 29795m | 5.3m/s | -44.1°C | 0% | 13.1hPa | 2.6V | 03:24:23 | 02:32:16 | 00:00:00 | |
| DL1XH-west | 2026-09-05 12:22:53 | 52.33942 | 11.79811 | 139° | 29km/h | 29788m | 7.2m/s | -44.2°C | 0% | 13.1hPa | 2.6V | 03:24:23 | 02:32:15 | 00:00:00 | |
| DO2SHX-10 | 2026-09-05 12:22:53 | 52.33942 | 11.79810 | 139° | 29km/h | 29789m | 7.1m/s | -44.2°C | 2.3% | 13.0hPa | 2.6V | 03:24:00 | 02:32:15 | 00:00:00 | |
| DL1XH-15 | 2026-09-05 12:22:52 | 52.33968 | 11.79775 | 192° | 5km/h | 29747m | 4.7m/s | -45.2°C | 2.5% | 13.1hPa | 2.6V | 03:24:24 | 02:32:08 | 00:00:00 | |
| DJ2DS-15 | 2026-09-05 12:22:52 | 52.33953 | 11.79793 | 130° | 27km/h | 29776m | 5.2m/s | -44.2°C | 0.4% | 13.1hPa | 2.7V | 00:00:00 | 00:00:00 | 00:00:00 | |
| DC4HF-4 | 2026-09-05 12:22:50 | 52.33961 | 11.79779 | 141° | 16km/h | 29764m | 7.3m/s | -44.6°C | 0.4% | 13.1hPa | 2.7V | 00:00:00 | 00:00:00 | 00:00:00 | |
| DO3MHA-11 | 2026-09-05 12:22:49 | 52.33961 | 11.79779 | 142° | 16km/h | 29765m | 7.2m/s | -44.5°C | 2.4% | 13.1hPa | 2.7V | 00:00:00 | 02:32:11 | 00:00:00 | |
| DD8BA-10 | 2026-09-05 12:22:48 | 52.33964 | 11.79776 | 160° | 15km/h | 29758m | 6.5m/s | -44.8°C | 2.4% | 13.1hPa | 2.6V | 03:24:00 | 00:00:00 | 00:00:00 | |
| OE5DRO-10 | 2026-09-05 12:22:47 | 52.33968 | 11.79775 | 193° | 15km/h | 29747m | 4.7m/s | 0°C | 0% | 0hPa | 2.6V | 00:00:00 | 00:00:00 | 00:00:00 | |
| HSKMA3-T | 2026-09-05 12:22:47 | 52.33968 | 11.79775 | 192° | 5km/h | 29747m | 4.7m/s | -45.2°C | 0% | 13.1hPa | 2.6V | 03:25:14 | 02:32:08 | 00:00:00 | |
| DB0UT-7 | 2026-09-05 12:22:45 | 52.33969 | 11.79775 | 159° | 15km/h | 29741m | 6.2m/s | -45.3°C | 2.5% | 13.1hPa | 2.6V | 00:00:00 | 00:00:00 | 00:00:00 | |
| DM0DOS-11 | 2026-09-05 12:22:44 | 52.33972 | 11.79770 | 120° | 15km/h | 29728m | 5.8m/s | -45.8°C | 2.7% | 13.2hPa | 2.7V | 03:24:27 | 02:32:05 | 00:00:00 | |
| DF8AY | 2026-09-05 12:22:44 | 52.33970 | 11.79774 | 123° | 7km/h | 29735m | 6.5m/s | -45.6°C | 0% | 13.2hPa | 2.7V | 03:25:14 | 02:32:06 | 00:00:00 | |
| DO2SHX-10 | 2026-09-05 12:22:44 | 52.33970 | 11.79773 | 123° | 15km/h | 29735m | 6.4m/s | -45.5°C | 2.6% | 13.1hPa | 2.7V | 00:00:00 | 02:32:06 | 00:00:00 | |
| DL4XJ-10 | 2026-09-05 12:22:43 | 52.33971 | 11.79770 | 121° | 16km/h | 29729m | 5.7m/s | -45.9°C | 0% | 0hPa | 2.6V | 00:00:00 | 00:00:00 | 00:00:00 | |
| DL1XH-west | 2026-09-05 12:22:43 | 52.33972 | 11.79770 | 120° | 15km/h | 29729m | 5.8m/s | -45.8°C | 0% | 13.2hPa | 2.7V | 03:25:14 | 02:32:05 | 00:00:00 | |
| DL1XH1-15 | 2026-09-05 12:22:42 | 52.33981 | 11.79751 | 139° | 24km/h | 29710m | 6.2m/s | -46°C | 2.7% | 13.2hPa | 2.6V | 03:24:30 | 02:32:02 | 00:00:00 | |
| DB0DAN | 2026-09-05 12:22:40 | 52.33981 | 11.79751 | 139° | 24km/h | 29710m | 6.2m/s | -46°C | 0.5% | 13.19hPa | 2.6V | 00:00:00 | 00:00:00 | 00:00:00 | |
| SP3WXH-11 | 2026-09-05 12:22:40 | 52.33981 | 11.79751 | 139° | 24km/h | 29711m | 6.2m/s | -46.0°C | 0.5% | 13.2hPa | 2.7V | 00:00:00 | 00:00:00 | 00:00:00 | |
| DL1XH-15 | 2026-09-05 12:22:39 | 52.33995 | 11.79733 | 137° | 22km/h | 29694m | 5m/s | -46°C | 2.7% | 13.2hPa | 2.7V | 03:24:33 | 02:31:59 | 00:00:00 | |
| HSKMA3-T | 2026-09-05 12:22:35 | 52.34002 | 11.79717 | 116° | 24km/h | 29682m | 6.7m/s | -46°C | 0% | 13.2hPa | 2.6V | 03:25:14 | 02:31:57 | 00:00:00 | |
| DL1XH1-15 | 2026-09-05 12:22:35 | 52.34014 | 11.79678 | 143° | 15km/h | 29652m | 6.5m/s | -46.1°C | 2.7% | 13.3hPa | 2.7V | 03:24:40 | 02:31:52 | 00:00:00 | |
| DL1NUX | 2026-09-05 12:22:35 | 52.34007 | 11.79698 | 109° | 26km/h | 29670m | 4.7m/s | -46°C | 2.7% | 13.3hPa | 2.7V | 03:24:37 | 02:31:55 | 00:00:00 | |
| DF8AY | 2026-09-05 12:22:33 | 52.34017 | 11.79675 | 153° | 13km/h | 29645m | 5.3m/s | -46°C | 0% | 13.3hPa | 2.6V | 03:25:14 | 02:31:51 | 00:00:00 | |
| AA1-15 | 2026-09-05 12:22:33 | 52.34007 | 11.79698 | 109° | 26km/h | 29670m | 4.7m/s | -46°C | 0% | 13.3hPa | 2.7V | 03:25:14 | 02:31:55 | 00:00:00 | |
| DL1XH-west | 2026-09-05 12:22:32 | 52.34009 | 11.79689 | 114° | 22km/h | 29665m | 6.1m/s | -46.1°C | 0% | 13.3hPa | 2.7V | 03:25:14 | 02:31:54 | 00:00:00 | |
| HSKMA3-T | 2026-09-05 12:22:25 | 52.34024 | 11.79659 | 96° | 15km/h | 29621m | 5.6m/s | -46°C | 0% | 13.4hPa | 2.7V | 03:25:14 | 02:31:47 | 00:00:00 | |
| DM0DOS-11 | 2026-09-05 12:22:24 | 52.34024 | 11.79647 | 85° | 13km/h | 29611m | 5.1m/s | -46°C | 2.7% | 13.4hPa | 2.6V | 03:24:47 | 02:31:45 | 00:00:00 | |
| DF8AY | 2026-09-05 12:22:23 | 52.34024 | 11.79647 | 86° | 15km/h | 29611m | 5.1m/s | -46°C | 0% | 13.4hPa | 2.6V | 03:25:14 | 02:31:45 | 00:00:00 | |
| AA1-15 | 2026-09-05 12:22:22 | 52.34024 | 11.79642 | 86° | 9km/h | 29605m | 6.5m/s | -46.2°C | 0% | 13.4hPa | 2.6V | 03:25:14 | 02:31:44 | 00:00:00 | |
| GOEST3-10 | 2026-09-05 12:22:21 | 52.34024 | 11.79639 | 84° | 4km/h | 29599m | 6.7m/s | -46.2°C | 2.8% | 13.4hPa | 2.6V | 03:24:00 | 00:00:00 | 00:00:00 | |
| DO2SHX-10 | 2026-09-05 12:22:20 | 52.34024 | 11.79638 | 141° | 2km/h | 29592m | 5.6m/s | -46.1°C | 2.7% | 13.4hPa | 2.6V | 00:00:00 | 02:31:42 | 00:00:00 | |
| AM1SDL-15 | 2026-09-05 12:22:19 | 52.34024 | 11.79638 | 289° | 13km/h | 29587m | 4.9m/s | -46.2°C | 2.7% | 13.4hPa | 2.6V | 03:24:00 | 02:31:41 | 00:00:00 | |
| S3001 | 2026-09-05 12:22:18 | 52.34023 | 11.79636 | 65° | 7km/h | 29577m | 5.9m/s | -46.4°C | 0.5% | 13.5hPa | 2.6V | 00:00:00 | 00:00:00 | 00:00:00 | |
| DO3MHA-11 | 2026-09-05 12:22:17 | 52.34023 | 11.79636 | 66° | 13km/h | 29577m | 5.8m/s | -46.3°C | 2.8% | 13.4hPa | 2.6V | 03:24:00 | 02:31:39 | 00:00:00 | |
| DL1XH1-15 | 2026-09-05 12:22:16 | 52.34023 | 11.79586 | 109° | 9km/h | 29533m | 5.5m/s | -46.4°C | 2.7% | 13.6hPa | 2.6V | 03:25:00 | 02:31:32 | 00:00:00 | |
| HSKMA3-T | 2026-09-05 12:22:16 | 52.34021 | 11.79625 | 78° | 20km/h | 29563m | 6.3m/s | -46.3°C | 0% | 13.5hPa | 2.7V | 03:25:14 | 02:31:37 | 00:00:00 | |
| DB0UT-7 | 2026-09-05 12:22:15 | 52.34021 | 11.79625 | 79° | 13km/h | 29564m | 6.3m/s | -46.3°C | 2.7% | 13.5hPa | 2.7V | 03:24:00 | 02:31:37 | 00:00:00 | |
| DM0DOS-11 | 2026-09-05 12:22:14 | 52.34020 | 11.79606 | 94° | 22km/h | 29552m | 6.2m/s | -46.5°C | 2.8% | 13.5hPa | 2.7V | 03:24:57 | 02:31:35 | 00:00:00 | |
| DF8AY | 2026-09-05 12:22:12 | 52.34021 | 11.79598 | 103° | 20km/h | 29545m | 7.1m/s | -46.3°C | 0% | 13.5hPa | 2.7V | 03:25:14 | 02:31:34 | 00:00:00 | |
| AA1-15 | 2026-09-05 12:22:11 | 52.34022 | 11.79591 | 110° | 15km/h | 29539m | 6m/s | -46.3°C | 0% | 13.6hPa | 2.6V | 03:25:14 | 02:31:33 | 00:00:00 | |
| DB0DAN | 2026-09-05 12:22:10 | 52.34023 | 11.79586 | 110° | 9km/h | 29533m | 5.5m/s | -46.4°C | 0.5% | 13.56hPa | 2.6V | 00:00:00 | 00:00:00 | 00:00:00 | |
| SO1NDE-10 | 2026-09-05 12:22:09 | 52.34023 | 11.79583 | 81° | 13km/h | 29527m | 6.9m/s | -46.4°C | 2.8% | 13.5hPa | 2.7V | 00:00:00 | 02:31:31 | 00:00:00 | |
| DO2SHX-10 | 2026-09-05 12:22:08 | 52.34022 | 11.79581 | 25° | 9km/h | 29520m | 6.7m/s | -46.3°C | 2.7% | 13.5hPa | 2.7V | 00:00:00 | 02:31:30 | 00:00:00 | |
| DO3MHA-11 | 2026-09-05 12:22:07 | 52.34020 | 11.79581 | 350° | 16km/h | 29514m | 5.6m/s | -46.3°C | 2.7% | 13.5hPa | 2.6V | 00:00:00 | 02:31:29 | 00:00:00 | |
| GOEST3-10 | 2026-09-05 12:22:06 | 52.34018 | 11.79583 | 334° | 7km/h | 29508m | 5.9m/s | -46.3°C | 2.7% | 13.6hPa | 2.6V | 00:00:00 | 02:31:28 | 00:00:00 | |
| DL1NUX | 2026-09-05 12:22:05 | 52.34013 | 11.79589 | 7° | 2km/h | 29490m | 4.7m/s | -46.4°C | 2.7% | 13.7hPa | 2.6V | 03:25:07 | 02:31:25 | 00:00:00 | |
| HSKMA3-T | 2026-09-05 12:22:04 | 52.34014 | 11.79588 | 305° | 7km/h | 29495m | 5.7m/s | -46.5°C | 0% | 13.7hPa | 2.6V | 03:25:14 | 02:31:26 | 00:00:00 | |
| DF8AY | 2026-09-05 12:22:02 | 52.34013 | 11.79588 | 92° | 7km/h | 29485m | 5.6m/s | -46.5°C | 0% | 13.7hPa | 2.6V | 03:25:14 | 02:31:24 | 00:00:00 | |
| DL1XH-15 | 2026-09-05 12:22:02 | 52.34019 | 11.79542 | 116° | 27km/h | 29453m | 6.3m/s | -46.6°C | 2.7% | 13.7hPa | 2.6V | 03:25:13 | 02:31:19 | 00:00:00 | |
| DO2SHX-10 | 2026-09-05 12:22:02 | 52.34013 | 11.79588 | 93° | 16km/h | 29485m | 5.6m/s | -46.4°C | 2.7% | 13.6hPa | 2.7V | 00:00:00 | 02:31:24 | 00:00:00 | |
| DL1XH1-15 | 2026-09-05 12:22:01 | 52.34014 | 11.79575 | 95° | 24km/h | 29471m | 6.7m/s | -46.4°C | 2.7% | 13.7hPa | 2.7V | 03:25:10 | 02:31:22 | 00:00:00 | |
| DL1XH-west | 2026-09-05 12:22:01 | 52.34013 | 11.79583 | 93° | 16km/h | 29478m | 7.7m/s | 0°C | 0% | 0hPa | 2.7V | 03:25:14 | 02:31:23 | 00:00:00 | |
| GOEST3-10 | 2026-09-05 12:22:01 | 52.34013 | 11.79583 | 94° | 26km/h | 29478m | 7.7m/s | -46.5°C | 2.8% | 13.6hPa | 2.7V | 03:25:00 | 00:00:00 | 00:00:00 | |
| AP2371 | 2026-09-05 12:22:00 | 52.34014 | 11.79575 | 96° | 24km/h | 29471m | 6.7m/s | -46.4°C | 0% | 0hPa | 2.7V | 00:00:00 | 00:00:00 | 00:00:00 | |
| TFSTFS | 2026-09-05 12:21:59 | 52.34014 | 11.79564 | 102° | 29km/h | 29465m | 5.5m/s | -46.4°C | 0.5% | 13.7hPa | 2.7V | 00:00:00 | 00:00:00 | 00:00:00 | |
| DO3MHA-11 | 2026-09-05 12:21:57 | 52.34019 | 11.79542 | 117° | 13km/h | 29454m | 6.3m/s | -46.5°C | 2.7% | 13.7hPa | 2.7V | 00:00:00 | 02:31:19 | 00:00:00 | |
| DO2SHX-10 | 2026-09-05 12:21:56 | 52.34022 | 11.79534 | 130° | 15km/h | 29448m | 5.6m/s | -46.4°C | 2.7% | 13.7hPa | 2.7V | 00:00:00 | 02:31:18 | 00:00:00 | |
| DL1XH1-15 | 2026-09-05 12:21:55 | 52.34022 | 11.79530 | 346° | 15km/h | 29412m | 5.1m/s | -46.4°C | 2.7% | 13.8hPa | 2.7V | 03:25:20 | 02:31:12 | 00:00:00 | |
| DL1NUX | 2026-09-05 12:21:55 | 52.34028 | 11.79526 | 223° | 2km/h | 29431m | 7m/s | -46.5°C | 2.7% | 13.8hPa | 2.6V | 03:25:17 | 02:31:15 | 00:00:00 | |
| HSKMA3-T | 2026-09-05 12:21:53 | 52.34028 | 11.79526 | 223° | 2km/h | 29431m | 7m/s | -46.5°C | 0% | 13.8hPa | 2.6V | 03:26:05 | 02:31:15 | 00:00:00 | |
| DL1XH-west | 2026-09-05 12:21:51 | 52.34025 | 11.79529 | 343° | 13km/h | 29418m | 5.8m/s | 0°C | 0% | 0hPa | 2.6V | 18:12:15 | 02:31:13 | 00:00:00 | |
| SMARD9-15 | 2026-09-05 12:21:50 | 52.34022 | 11.79530 | 346° | 15km/h | 29412m | 5.1m/s | -46.4°C | 0.5% | 13.8hPa | 2.7V | 00:00:00 | 00:00:00 | 00:00:00 | |
| EDDB2-11 | 2026-09-05 12:21:48 | 52.34015 | 11.79533 | 343° | 9km/h | 29402m | 5.7m/s | -46.6°C | 0.5% | 13.8hPa | 2.7V | 00:00:00 | 00:00:00 | 00:00:00 | |
| DO3MHA-11 | 2026-09-05 12:21:47 | 52.34013 | 11.79534 | 324° | 13km/h | 29396m | 6.3m/s | -46.6°C | 2.7% | 13.8hPa | 2.7V | 00:00:00 | 02:31:09 | 00:00:00 | |
| DD8BA-10 | 2026-09-05 12:21:46 | 52.34013 | 11.79535 | 197° | 13km/h | 29390m | 6.0m/s | -46.4°C | 2.7% | 13.8hPa | 2.6V | 00:00:00 | 00:00:00 | 00:00:00 | |
| DL1XH1-15 | 2026-09-05 12:21:45 | 52.34020 | 11.79500 | 84° | 20km/h | 29355m | 4.2m/s | -46.6°C | 2.7% | 13.9hPa | 2.6V | 03:25:30 | 02:31:02 | 00:00:00 | |
| DL1NUX | 2026-09-05 12:21:45 | 52.34018 | 11.79526 | 116° | 18km/h | 29372m | 6.6m/s | -46.7°C | 2.7% | 13.9hPa | 2.7V | 03:25:27 | 02:31:05 | 00:00:00 | |
| HSKMA3-T | 2026-09-05 12:21:42 | 52.34019 | 11.79518 | 102° | 22km/h | 29366m | 6.9m/s | -46.7°C | 0% | 13.9hPa | 2.7V | 03:26:05 | 02:31:04 | 00:00:00 | |
| AA1-15 | 2026-09-05 12:21:40 | 52.34019 | 11.79494 | 81° | 13km/h | 29350m | 5.7m/s | -46.5°C | 0% | 13.9hPa | 2.6V | 03:26:05 | 02:31:01 | 00:00:00 | |
| DL1XH-west | 2026-09-05 12:21:40 | 52.34020 | 11.79500 | 85° | 20km/h | 29355m | 4.2m/s | 0°C | 0% | 0hPa | 2.6V | 18:12:15 | 02:31:02 | 00:00:00 | |
| DL1XH-15 | 2026-09-05 12:21:40 | 52.34019 | 11.79490 | 274° | 5km/h | 29336m | 6.6m/s | -46.5°C | 2.7% | 14hPa | 2.7V | 03:25:33 | 02:30:59 | 00:00:00 | |
| DJ2DS-15 | 2026-09-05 12:21:40 | 52.34019 | 11.79494 | 80° | 13km/h | 29350m | 5.7m/s | -46.5°C | 0.5% | 13.9hPa | 2.6V | 00:00:00 | 00:00:00 | 00:00:00 | |
| SO1NDE-10 | 2026-09-05 12:21:39 | 52.34019 | 11.79494 | 81° | 11km/h | 29350m | 5.7m/s | -46.4°C | 2.7% | 13.9hPa | 2.6V | 00:00:00 | 02:31:01 | 00:00:00 | |
| DC4HF-4 | 2026-09-05 12:21:38 | 52.34019 | 11.79490 | 274° | 4km/h | 29337m | 6.6m/s | -46.5°C | 0.5% | 14.0hPa | 2.7V | 00:00:00 | 00:00:00 | 00:00:00 | |
| DO3MHA-11 | 2026-09-05 12:21:37 | 52.34019 | 11.79490 | 275° | 9km/h | 29337m | 6.5m/s | -46.4°C | 2.7% | 14.0hPa | 2.7V | 03:25:00 | 02:30:59 | 00:00:00 | |
| DD8BA-10 | 2026-09-05 12:21:36 | 52.34018 | 11.79493 | 270° | 11km/h | 29331m | 5.6m/s | -46.4°C | 2.7% | 13.9hPa | 2.7V | 00:00:00 | 00:00:00 | 00:00:00 | |
| DL1XH1-15 | 2026-09-05 12:21:35 | 52.34012 | 11.79505 | 58° | 11km/h | 29297m | 5.7m/s | -46.5°C | 2.7% | 14.1hPa | 2.7V | 03:25:40 | 02:30:52 | 00:00:00 | |
| DO2SHX-10 | 2026-09-05 12:21:35 | 52.34018 | 11.79499 | 274° | 11km/h | 29325m | 5.0m/s | -46.4°C | 2.7% | 13.9hPa | 2.6V | 00:00:00 | 02:30:57 | 00:00:00 | |
| DM0DOS-11 | 2026-09-05 12:21:34 | 52.34017 | 11.79508 | 307° | 9km/h | 29314m | 6.2m/s | -46.3°C | 2.7% | 14hPa | 2.6V | 03:25:37 | 02:30:55 | 00:00:00 | |
| DF8AY-15 | 2026-09-05 12:21:33 | 52.34017 | 11.79508 | 308° | 9km/h | 29315m | 6.2m/s | -46.3°C | 2.7% | 14.0hPa | 2.6V | 00:00:00 | 02:30:55 | 00:00:00 | |
| DL1XH-15 | 2026-09-05 12:21:32 | 52.34012 | 11.79494 | 137° | 9km/h | 29278m | 5.9m/s | -46.5°C | 2.8% | 14.1hPa | 2.6V | 03:25:43 | 02:30:49 | 00:00:00 | |
| HSKMA3-T | 2026-09-05 12:21:31 | 52.34013 | 11.79508 | 41° | 9km/h | 29303m | 5.5m/s | -46.4°C | 0% | 14hPa | 2.7V | 03:26:05 | 02:30:53 | 00:00:00 | |
| DF8AY | 2026-09-05 12:21:30 | 52.34012 | 11.79505 | 59° | 11km/h | 29297m | 5.7m/s | -46.5°C | 0% | 14.1hPa | 2.7V | 03:26:05 | 02:30:52 | 00:00:00 | |
| AA1-15 | 2026-09-05 12:21:29 | 52.34011 | 11.79497 | 109° | 9km/h | 29285m | 6.3m/s | -46.6°C | 0% | 14.1hPa | 2.6V | 03:26:05 | 02:30:50 | 00:00:00 | |
| DO2SHX-10 | 2026-09-05 12:21:29 | 52.34011 | 11.79501 | 78° | 9km/h | 29292m | 6.5m/s | -46.5°C | 2.7% | 14.0hPa | 2.7V | 03:25:00 | 02:30:51 | 00:00:00 | |
| DC6BW-12 | 2026-09-05 12:21:28 | 52.34011 | 11.79497 | 110° | 9km/h | 29285m | 6.3m/s | -46.6°C | 0.6% | 14.1hPa | 2.7V | 00:00:00 | 00:00:00 | 00:00:00 | |
| DO3MHA-11 | 2026-09-05 12:21:27 | 52.34012 | 11.79494 | 138° | 9km/h | 29279m | 5.9m/s | -46.5°C | 2.8% | 14.1hPa | 2.7V | 00:00:00 | 02:30:49 | 00:00:00 | |
| DD8BA-10 | 2026-09-05 12:21:26 | 52.34014 | 11.79492 | 153° | 7km/h | 29273m | 5.1m/s | -46.5°C | 2.8% | 14.1hPa | 2.7V | 03:25:00 | 00:00:00 | 00:00:00 | |
| DL1NUX | 2026-09-05 12:21:25 | 52.34021 | 11.79483 | 121° | 11km/h | 29255m | 6.7m/s | -46.4°C | 2.9% | 14.2hPa | 2.7V | 03:25:47 | 02:30:45 | 00:00:00 | |
| DL1XH1-15 | 2026-09-05 12:21:24 | 52.34021 | 11.79474 | 41° | 4km/h | 29237m | 7.1m/s | -46.1°C | 2.8% | 14.2hPa | 2.7V | 03:25:50 | 02:30:42 | 00:00:00 | |
| HSKMA3-T | 2026-09-05 12:21:20 | 52.34021 | 11.79474 | 42° | 4km/h | 29237m | 7.1m/s | -46.1°C | 0% | 14.2hPa | 2.7V | 03:26:05 | 02:30:42 | 00:00:00 | |
| DF8AY | 2026-09-05 12:21:19 | 52.34021 | 11.79474 | 342° | 4km/h | 29231m | 6.6m/s | -46°C | 0% | 14.2hPa | 2.7V | 03:26:05 | 02:30:41 | 00:00:00 | |
| DL1XH-15 | 2026-09-05 12:21:19 | 52.34018 | 11.79475 | 13° | 5km/h | 29220m | 5m/s | -46°C | 2.7% | 14.2hPa | 2.6V | 03:25:53 | 02:30:39 | 00:00:00 | |
| AA1-15 | 2026-09-05 12:21:19 | 52.34020 | 11.79475 | 333° | 5km/h | 29225m | 5.4m/s | -46°C | 0% | 14.2hPa | 2.7V | 03:26:05 | 02:30:40 | 00:00:00 | |
| DO2SHX-10 | 2026-09-05 12:21:17 | 52.34018 | 11.79475 | 14° | 7km/h | 29220m | 5.0m/s | -46.0°C | 2.7% | 14.2hPa | 2.6V | 03:25:00 | 02:30:39 | 00:00:00 | |
| S3001 | 2026-09-05 12:21:16 | 52.34017 | 11.79470 | 78° | 11km/h | 29207m | 6.6m/s | -46.1°C | 0.5% | 14.3hPa | 2.6V | 00:00:00 | 00:00:00 | 00:00:00 | |
| DL4XJ-10 | 2026-09-05 12:21:15 | 52.34017 | 11.79470 | 79° | 13km/h | 29207m | 6.5m/s | -46.2°C | 0% | 0hPa | 2.6V | 00:00:00 | 00:00:00 | 00:00:00 | |
| DL1XH1-15 | 2026-09-05 12:21:14 | 52.34023 | 11.79441 | 131° | 13km/h | 29177m | 5.3m/s | -46.2°C | 2.8% | 14.3hPa | 2.6V | 03:26:00 | 02:30:32 | 00:00:00 | |
| DO2SHX-10 | 2026-09-05 12:21:14 | 52.34016 | 11.79464 | 94° | 16km/h | 29202m | 5.4m/s | -46.0°C | 2.7% | 14.2hPa | 2.7V | 00:00:00 | 02:30:36 | 00:00:00 | |
| DF8AY-15 | 2026-09-05 12:21:13 | 52.34017 | 11.79457 | 105° | 11km/h | 29196m | 5.7m/s | -46.1°C | 2.7% | 14.2hPa | 2.7V | 00:00:00 | 02:30:35 | 00:00:00 | |
| DL1XH-15 | 2026-09-05 12:21:12 | 52.34026 | 11.79431 | 84° | 9km/h | 29159m | 6.1m/s | -45.9°C | 2.7% | 14.3hPa | 2.7V | 03:26:03 | 02:30:29 | 00:00:00 | |
| HSKMA3-T | 2026-09-05 12:21:10 | 52.34023 | 11.79441 | 131° | 13km/h | 29177m | 5.4m/s | -46.2°C | 0% | 14.3hPa | 2.6V | 03:26:05 | 02:30:32 | 00:00:00 | |
| DL1XH-west | 2026-09-05 12:21:08 | 52.34025 | 11.79434 | 111° | 9km/h | 29165m | 6.8m/s | -46°C | 0% | 14.3hPa | 2.6V | 03:26:05 | 02:30:30 | 00:00:00 | |
| DC6BW-12 | 2026-09-05 12:21:08 | 52.34025 | 11.79434 | 112° | 9km/h | 29166m | 6.8m/s | -46.0°C | 0.5% | 14.3hPa | 2.7V | 00:00:00 | 00:00:00 | 00:00:00 | |
| DO3MHA-11 | 2026-09-05 12:21:07 | 52.34026 | 11.79430 | 85° | 7km/h | 29159m | 6.1m/s | -45.8°C | 2.7% | 14.3hPa | 2.7V | 00:00:00 | 02:30:29 | 00:00:00 | |
| DD8BA-10 | 2026-09-05 12:21:06 | 52.34025 | 11.79427 | 58° | 9km/h | 29154m | 5.6m/s | -45.8°C | 2.6% | 14.3hPa | 2.7V | 00:00:00 | 00:00:00 | 00:00:00 | |
| DO2SHX-10 | 2026-09-05 12:21:05 | 52.34024 | 11.79426 | 27° | 5km/h | 29148m | 6.1m/s | -45.9°C | 2.7% | 14.3hPa | 2.7V | 03:26:00 | 02:30:27 | 00:00:00 | |
| DL1XH1-15 | 2026-09-05 12:21:04 | 52.34021 | 11.79426 | 97° | 7km/h | 29119m | 7.2m/s | -45.8°C | 2.6% | 14.5hPa | 2.7V | 03:26:10 | 02:30:22 | 00:00:00 | |
| HSKMA3-T | 2026-09-05 12:20:59 | 52.34021 | 11.79421 | 99° | 15km/h | 29112m | 6.4m/s | -45.8°C | 0% | 14.5hPa | 2.6V | 03:26:56 | 02:30:21 | 00:00:00 | |
| DL1XH-15 | 2026-09-05 12:20:59 | 52.34023 | 11.79407 | 108° | 18km/h | 29101m | 5m/s | -45.9°C | 2.6% | 14.5hPa | 2.6V | 03:26:13 | 02:30:19 | 00:00:00 | |
| DF8AY | 2026-09-05 12:20:58 | 52.34022 | 11.79414 | 102° | 18km/h | 29106m | 5m/s | -45.8°C | 0% | 14.5hPa | 2.6V | 03:26:56 | 02:30:20 | 00:00:00 | |
| AA1-15 | 2026-09-05 12:20:58 | 52.34023 | 11.79407 | 109° | 18km/h | 29101m | 5m/s | -45.9°C | 0% | 14.5hPa | 2.6V | 03:26:56 | 02:30:19 | 00:00:00 | |
| DO3MHA-11 | 2026-09-05 12:20:57 | 52.34023 | 11.79406 | 109° | 9km/h | 29101m | 5.0m/s | -45.8°C | 2.6% | 14.4hPa | 2.7V | 03:26:00 | 02:30:19 | 00:00:00 | |
| DO2SHX-10 | 2026-09-05 12:20:56 | 52.34025 | 11.79400 | 119° | 11km/h | 29096m | 5.9m/s | -45.9°C | 2.6% | 14.4hPa | 2.7V | 00:00:00 | 02:30:18 | 00:00:00 | |
| GOEST3-10 | 2026-09-05 12:20:55 | 52.34027 | 11.79396 | 136° | 5km/h | 29090m | 6.7m/s | -45.8°C | 2.6% | 14.4hPa | 2.6V | 00:00:00 | 02:30:17 | 00:00:00 | |
| DL1XH1-15 | 2026-09-05 12:20:54 | 52.34027 | 11.79397 | 20° | 9km/h | 29059m | 6.2m/s | -45.9°C | 2.6% | 14.6hPa | 2.6V | 03:26:20 | 02:30:12 | 00:00:00 | |
| DO2SHX-10 | 2026-09-05 12:20:53 | 52.34029 | 11.79395 | 242° | 5km/h | 29078m | 5.4m/s | -45.8°C | 2.6% | 14.5hPa | 2.7V | 03:26:00 | 02:30:15 | 00:00:00 | |
| DL1XH-15 | 2026-09-05 12:20:52 | 52.34020 | 11.79388 | 45° | 11km/h | 29043m | 6.1m/s | -45.9°C | 2.6% | 14.6hPa | 2.7V | 03:26:23 | 02:30:09 | 00:00:00 | |
| HSKMA3-T | 2026-09-05 12:20:49 | 52.34024 | 11.79395 | 36° | 13km/h | 29054m | 5.3m/s | -46°C | 0% | 14.6hPa | 2.7V | 03:26:56 | 02:30:11 | 00:00:00 | |
| DL1XH-west | 2026-09-05 12:20:47 | 52.34020 | 11.79388 | 45° | 11km/h | 29043m | 6.1m/s | -45.9°C | 0% | 14.6hPa | 2.7V | 03:26:56 | 02:30:09 | 00:00:00 | |
| AA1-15 | 2026-09-05 12:20:47 | 52.34018 | 11.79385 | 51° | 7km/h | 29037m | 6.4m/s | -45.7°C | 0% | 14.6hPa | 2.6V | 03:26:56 | 02:30:08 | 00:00:00 | |
| EDDB2-11 | 2026-09-05 12:20:46 | 52.34017 | 11.79383 | 73° | 5km/h | 29032m | 5.5m/s | -45.7°C | 0.5% | 14.6hPa | 2.7V | 00:00:00 | 00:00:00 | 00:00:00 | |
| S3001 | 2026-09-05 12:20:45 | 52.34017 | 11.79381 | 102° | 5km/h | 29026m | 5.3m/s | -45.7°C | 0.5% | 14.7hPa | 2.7V | 00:00:00 | 00:00:00 | 00:00:00 | |
| DM0DOS-11 | 2026-09-05 12:20:44 | 52.34018 | 11.79377 | 101° | 11km/h | 29020m | 6.2m/s | -45.8°C | 2.6% | 14.7hPa | 2.7V | 03:26:27 | 02:30:05 | 00:00:00 | |
| TFSTFS | 2026-09-05 12:20:44 | 52.34017 | 11.79380 | 103° | 7km/h | 29026m | 5.3m/s | -45.7°C | 0.5% | 14.7hPa | 2.7V | 00:00:00 | 00:00:00 | 00:00:00 | |
| DL1ZP-14 | 2026-09-05 12:20:43 | 52.34018 | 11.79377 | 101° | 9km/h | 29020m | 6.2m/s | -45.8°C | 0.5% | 14.7hPa | 2.7V | 00:00:00 | 00:00:00 | 00:00:00 | |
| DL1XH1-15 | 2026-09-05 12:20:41 | 52.34019 | 11.79360 | 89° | 13km/h | 29002m | 4.8m/s | -45.9°C | 2.6% | 14.7hPa | 2.6V | 03:26:30 | 02:30:02 | 00:00:00 | |
| DB0DAN | 2026-09-05 12:20:40 | 52.34019 | 11.79360 | 90° | 13km/h | 29002m | 4.8m/s | -45.9°C | 0.5% | 14.7hPa | 2.6V | 00:00:00 | 00:00:00 | 00:00:00 | |
| HSKMA3-T | 2026-09-05 12:20:39 | 52.34019 | 11.79356 | 82° | 9km/h | 28997m | 6m/s | -45.8°C | 0% | 14.7hPa | 2.6V | 03:26:56 | 02:30:01 | 00:00:00 | |
| DL1XH-15 | 2026-09-05 12:20:39 | 52.34017 | 11.79353 | 352° | 5km/h | 28984m | 5.9m/s | -45.9°C | 2.6% | 14.7hPa | 2.7V | 03:26:33 | 02:29:59 | 00:00:00 | |
| DL1XH-west | 2026-09-05 12:20:37 | 52.34017 | 11.79353 | 352° | 7km/h | 28984m | 5.9m/s | -45.9°C | 0% | 14.7hPa | 2.7V | 03:26:56 | 02:29:59 | 00:00:00 | |
| DF8AY | 2026-09-05 12:20:36 | 52.34015 | 11.79353 | 350° | 9km/h | 28979m | 5.7m/s | -46°C | 0% | 14.8hPa | 2.7V | 03:26:56 | 02:29:58 | 00:00:00 | |
| DL1XH1-15 | 2026-09-05 12:20:36 | 52.34001 | 11.79337 | 91° | 9km/h | 28944m | 6.7m/s | -45.7°C | 2.6% | 14.8hPa | 2.7V | 03:26:40 | 02:29:52 | 00:00:00 | |
| SMARD9-10 | 2026-09-05 12:20:35 | 52.34012 | 11.79353 | 4° | 11km/h | 28973m | 6.4m/s | -46.0°C | 0.5% | 14.8hPa | 2.6V | 00:00:00 | 00:00:00 | 00:00:00 | |
| DF8AY-15 | 2026-09-05 12:20:33 | 52.34006 | 11.79349 | 35° | 13km/h | 28961m | 4.9m/s | -45.9°C | 2.7% | 14.7hPa | 2.6V | 03:26:00 | 02:29:55 | 00:00:00 | |
| DL1XH-15 | 2026-09-05 12:20:32 | 52.34006 | 11.79325 | 125° | 16km/h | 28927m | 6m/s | -45.8°C | 2.6% | 14.9hPa | 2.6V | 03:26:43 | 02:29:49 | 00:00:00 | |
| HSKMA3-T | 2026-09-05 12:20:28 | 52.34004 | 11.79330 | 132° | 15km/h | 28933m | 4.9m/s | -45.7°C | 0% | 14.9hPa | 2.6V | 03:26:56 | 02:29:50 | 00:00:00 | |
| DF8AY | 2026-09-05 12:20:26 | 52.34008 | 11.79319 | 117° | 18km/h | 28921m | 6.7m/s | -45.9°C | 0% | 14.9hPa | 2.7V | 03:26:56 | 02:29:48 | 00:00:00 | |
| AA1-15 | 2026-09-05 12:20:26 | 52.34010 | 11.79311 | 108° | 20km/h | 28915m | 5.5m/s | -46°C | 0% | 14.9hPa | 2.7V | 03:26:56 | 02:29:47 | 00:00:00 | |
| DB0DAN | 2026-09-05 12:20:25 | 52.34010 | 11.79311 | 108° | 18km/h | 28915m | 5.5m/s | -46°C | 0.5% | 14.88hPa | 2.7V | 00:00:00 | 00:00:00 | 00:00:00 | |
| DL1NUX | 2026-09-05 12:20:25 | 52.34012 | 11.79299 | 102° | 13km/h | 28904m | 5.9m/s | -45.9°C | 2.7% | 14.9hPa | 2.6V | 03:26:47 | 02:29:45 | 00:00:00 | |
| GOEST3-10 | 2026-09-05 12:20:25 | 52.34010 | 11.79311 | 108° | 11km/h | 28915m | 5.4m/s | -45.9°C | 2.7% | 14.8hPa | 2.7V | 00:00:00 | 02:29:47 | 00:00:00 | |
| DO2SHX-10 | 2026-09-05 12:20:23 | 52.34012 | 11.79299 | 103° | 7km/h | 28904m | 5.9m/s | -45.8°C | 2.7% | 14.9hPa | 2.7V | 00:00:00 | 02:29:45 | 00:00:00 | |
| DO2SHX-10 | 2026-09-05 12:20:20 | 52.34012 | 11.79292 | 38° | 5km/h | 28888m | 4.1m/s | -45.6°C | 2.7% | 14.9hPa | 2.7V | 00:00:00 | 02:29:42 | 00:00:00 | |
| DL1XH-15 | 2026-09-05 12:20:19 | 52.34009 | 11.79283 | 68° | 15km/h | 28871m | 5.9m/s | -45.6°C | 2.6% | 15hPa | 2.7V | 03:26:53 | 02:29:39 | 00:00:00 | |
| HSKMA3-T | 2026-09-05 12:20:17 | 52.34009 | 11.79283 | 68° | 15km/h | 28871m | 5.9m/s | -45.6°C | 0% | 15hPa | 2.7V | 03:26:56 | 02:29:39 | 00:00:00 | |
| DF8AY | 2026-09-05 12:20:16 | 52.34018 | 11.79241 | 134° | 26km/h | 28832m | 6.4m/s | -45.7°C | 0% | 15.1hPa | 2.6V | 03:27:47 | 02:29:32 | 00:00:00 | |
| AA1-15 | 2026-09-05 12:20:16 | 52.34007 | 11.79271 | 83° | 16km/h | 28860m | 5.5m/s | -45.8°C | 0% | 15hPa | 2.6V | 03:26:56 | 02:29:37 | 00:00:00 | |
| DL1XH1-15 | 2026-09-05 12:20:15 | 52.34018 | 11.79241 | 133° | 26km/h | 28832m | 6.4m/s | -45.7°C | 2.7% | 15.1hPa | 2.6V | 03:27:00 | 02:29:32 | 00:00:00 | |
| DL1NUX | 2026-09-05 12:20:15 | 52.34008 | 11.79259 | 118° | 15km/h | 28848m | 5.4m/s | -45.9°C | 2.6% | 15hPa | 2.7V | 03:26:57 | 02:29:35 | 00:00:00 | |
| EDDB2-11 | 2026-09-05 12:20:15 | 52.34007 | 11.79264 | 98° | 13km/h | 28854m | 6.1m/s | -45.8°C | 0.5% | 15.0hPa | 2.7V | 00:00:00 | 00:00:00 | 00:00:00 | |
| S3001 | 2026-09-05 12:20:14 | 52.34008 | 11.79259 | 118° | 13km/h | 28848m | 5.4m/s | -45.9°C | 0.5% | 15.0hPa | 2.7V | 00:00:00 | 00:00:00 | 00:00:00 | |
| DB0UT-7 | 2026-09-05 12:20:13 | 52.34008 | 11.79259 | 119° | 13km/h | 28848m | 5.3m/s | -45.8°C | 2.6% | 15.0hPa | 2.7V | 03:26:00 | 02:29:35 | 00:00:00 | |
| DL1XH-15 | 2026-09-05 12:20:12 | 52.34029 | 11.79216 | 119° | 20km/h | 28816m | 4.7m/s | -45.5°C | 2.6% | 15.1hPa | 2.7V | 03:27:03 | 02:29:29 | 00:00:00 | |
| DL1ZP-14 | 2026-09-05 12:20:12 | 52.34010 | 11.79254 | 132° | 16km/h | 28843m | 4.6m/s | -45.9°C | 0.5% | 15.1hPa | 2.7V | 00:00:00 | 00:00:00 | 00:00:00 | |
| DB0DAN | 2026-09-05 12:20:10 | 52.34018 | 11.79241 | 134° | 24km/h | 28832m | 6.4m/s | -45.7°C | 0.5% | 15.06hPa | 2.6V | 00:00:00 | 00:00:00 | 00:00:00 | |
| HSKMA3-T | 2026-09-05 12:20:06 | 52.34031 | 11.79210 | 120° | 13km/h | 28810m | 6.4m/s | -45.5°C | 0% | 15.1hPa | 2.7V | 03:27:47 | 02:29:28 | 00:00:00 | |
| DD8BA-10 | 2026-09-05 12:20:06 | 52.34031 | 11.79210 | 120° | 9km/h | 28811m | 6.4m/s | -45.5°C | 2.6% | 15.1hPa | 2.7V | 03:27:00 | 00:00:00 | 00:00:00 | |
| DL1XH1-15 | 2026-09-05 12:20:05 | 52.34024 | 11.79204 | 37° | 11km/h | 28775m | 4.2m/s | -45.6°C | 2.7% | 15.2hPa | 2.7V | 03:27:10 | 02:29:22 | 00:00:00 | |
| DL1NUX | 2026-09-05 12:20:05 | 52.34031 | 11.79206 | 344° | 7km/h | 28792m | 5.1m/s | -45.6°C | 2.6% | 15.2hPa | 2.6V | 03:27:07 | 02:29:25 | 00:00:00 | |
| DL1XH-west | 2026-09-05 12:20:04 | 52.34032 | 11.79206 | 350° | 2km/h | 28797m | 5.7m/s | -45.6°C | 0% | 15.2hPa | 2.6V | 03:27:47 | 02:29:26 | 00:00:00 | |
| TFSTFS | 2026-09-05 12:20:04 | 52.34032 | 11.79206 | 351° | 2km/h | 28798m | 5.7m/s | -45.6°C | 0.5% | 15.2hPa | 2.7V | 03:27:00 | 00:00:00 | 00:00:00 | |
| DO2SHX-10 | 2026-09-05 12:20:02 | 52.34029 | 11.79207 | 358° | 11km/h | 28786m | 6.4m/s | -45.6°C | 2.6% | 15.1hPa | 2.7V | 00:00:00 | 02:29:24 | 00:00:00 | |
| AM1SDL-15 | 2026-09-05 12:20:01 | 52.34027 | 11.79206 | 19° | 13km/h | 28780m | 5.7m/s | -45.6°C | 2.7% | 15.1hPa | 2.6V | 00:00:00 | 02:29:23 | 00:00:00 | |
| DL1XH-15 | 2026-09-05 12:19:59 | 52.34023 | 11.79196 | 123° | 7km/h | 28760m | 6.3m/s | -45.5°C | 2.7% | 15.2hPa | 2.6V | 03:27:13 | 02:29:19 | 00:00:00 | |
| DF8AY | 2026-09-05 12:19:59 | 52.34023 | 11.79201 | 60° | 9km/h | 28771m | 4.3m/s | -45.5°C | 0% | 15.2hPa | 2.7V | 03:27:47 | 02:29:21 | 00:00:00 | |
| HSKMA3-T | 2026-09-05 12:19:56 | 52.34024 | 11.79193 | 147° | 9km/h | 28754m | 5.3m/s | -45.5°C | 0% | 15.2hPa | 2.6V | 03:27:47 | 02:29:18 | 00:00:00 | |
| DO2SHX-10 | 2026-09-05 12:19:56 | 52.34024 | 11.79193 | 147° | 13km/h | 28754m | 5.2m/s | -45.4°C | 2.7% | 15.2hPa | 2.7V | 00:00:00 | 02:29:18 | 00:00:00 | |
| DL1XH1-15 | 2026-09-05 12:19:55 | 52.34036 | 11.79159 | 100° | 20km/h | 28722m | 4.4m/s | -45.8°C | 2.7% | 15.3hPa | 2.7V | 03:27:20 | 02:29:12 | 00:00:00 | |
| DL1XH-west | 2026-09-05 12:19:54 | 52.34032 | 11.79182 | 121° | 16km/h | 28738m | 6.1m/s | -45.7°C | 0% | 15.2hPa | 2.7V | 03:27:47 | 02:29:15 | 00:00:00 | |
| DF8AY | 2026-09-05 12:19:48 | 52.34038 | 11.79147 | 127° | 11km/h | 28712m | 5.6m/s | -45.7°C | 0% | 15.3hPa | 2.7V | 03:27:47 | 02:29:10 | 00:00:00 | |
| HSKMA3-T | 2026-09-05 12:19:45 | 52.34044 | 11.79148 | 240° | 9km/h | 28696m | 4.2m/s | -45.8°C | 0% | 15.4hPa | 2.6V | 03:27:47 | 02:29:07 | 00:00:00 | |
| DL1XH1-15 | 2026-09-05 12:19:44 | 52.34037 | 11.79154 | 25° | 11km/h | 28670m | 4.9m/s | -45.9°C | 2.7% | 15.4hPa | 2.6V | 03:27:30 | 02:29:02 | 00:00:00 | |
| AA1-15 | 2026-09-05 12:19:43 | 52.34044 | 11.79154 | 306° | 7km/h | 28686m | 6.2m/s | -45.6°C | 0% | 15.4hPa | 2.7V | 03:27:47 | 02:29:05 | 00:00:00 | |
| TFSTFS | 2026-09-05 12:19:43 | 52.34044 | 11.79154 | 307° | 7km/h | 28686m | 6.2m/s | -45.6°C | 0.5% | 15.4hPa | 2.7V | 03:27:00 | 00:00:00 | 00:00:00 | |
| DL1XH-west | 2026-09-05 12:19:42 | 52.34042 | 11.79155 | 354° | 9km/h | 28680m | 5.4m/s | -45.6°C | 0% | 15.4hPa | 2.7V | 03:27:47 | 02:29:04 | 00:00:00 | |
| SONDE2-11 | 2026-09-05 12:19:42 | 52.34042 | 11.79155 | 353° | 9km/h | 28680m | 5.4m/s | -45.6°C | 0.5% | 15.4hPa | 2.7V | 00:00:00 | 00:00:00 | 00:00:00 | |
| DO2SHX-10 | 2026-09-05 12:19:41 | 52.34040 | 11.79155 | 8° | 9km/h | 28675m | 4.9m/s | -45.6°C | 2.6% | 15.4hPa | 2.7V | 03:27:00 | 02:29:03 | 00:00:00 | |
| DL1XH-15 | 2026-09-05 12:19:39 | 52.34035 | 11.79147 | 134° | 7km/h | 28653m | 5.5m/s | -45.8°C | 2.7% | 15.5hPa | 2.7V | 03:27:33 | 02:28:59 | 00:00:00 | |
| DF8AY | 2026-09-05 12:19:37 | 52.34036 | 11.79147 | 134° | 7km/h | 28653m | 5.5m/s | -45.8°C | 0% | 15.5hPa | 2.7V | 03:27:47 | 02:28:59 | 00:00:00 | |
| HSKMA3-T | 2026-09-05 12:19:35 | 52.34039 | 11.79143 | 156° | 9km/h | 28642m | 6.4m/s | -46°C | 0% | 15.5hPa | 2.7V | 03:27:47 | 02:28:57 | 00:00:00 | |
| AA1-15 | 2026-09-05 12:19:33 | 52.34044 | 11.79139 | 150° | 13km/h | 28632m | 4.2m/s | -45.8°C | 0% | 15.5hPa | 2.6V | 03:27:47 | 02:28:55 | 00:00:00 | |
| DL1XH-west | 2026-09-05 12:19:32 | 52.34050 | 11.79132 | 145° | 20km/h | 28620m | 7.2m/s | -46°C | 0% | 15.6hPa | 2.7V | 03:27:47 | 02:28:53 | 00:00:00 | |
| DF8AY | 2026-09-05 12:19:27 | 52.34063 | 11.79109 | 109° | 13km/h | 28598m | 6.6m/s | -46°C | 0% | 15.6hPa | 2.6V | 03:27:47 | 02:28:49 | 00:00:00 | |
| DB0DAN | 2026-09-05 12:19:25 | 52.34064 | 11.79099 | 101° | 11km/h | 28587m | 5m/s | -46.1°C | 0.5% | 15.64hPa | 2.7V | 00:00:00 | 00:00:00 | 00:00:00 | |
| HSKMA3-T | 2026-09-05 12:19:25 | 52.34064 | 11.79099 | 102° | 13km/h | 28587m | 5m/s | -46.1°C | 0% | 15.6hPa | 2.7V | 03:27:47 | 02:28:47 | 00:00:00 | |
| DM0DOS-11 | 2026-09-05 12:19:25 | 52.34067 | 11.79089 | 128° | 16km/h | 28576m | 6.1m/s | -46°C | 2.7% | 15.7hPa | 2.6V | 03:27:47 | 02:28:45 | 00:00:00 | |
| DL1XH1-15 | 2026-09-05 12:19:25 | 52.34078 | 11.79073 | 147° | 18km/h | 28559m | 6.2m/s | -45.9°C | 2.7% | 15.7hPa | 2.7V | 03:27:50 | 02:28:42 | 00:00:00 | |
| AA1-15 | 2026-09-05 12:19:23 | 52.34070 | 11.79083 | 137° | 20km/h | 28570m | 4.8m/s | -46.1°C | 0% | 15.7hPa | 2.6V | 03:28:38 | 02:28:44 | 00:00:00 | |
| DL1XH-west | 2026-09-05 12:19:20 | 52.34078 | 11.79073 | 148° | 18km/h | 28560m | 6.2m/s | -45.9°C | 0% | 15.7hPa | 2.7V | 03:28:38 | 02:28:42 | 00:00:00 | |
| DO2SHX-10 | 2026-09-05 12:19:20 | 52.34078 | 11.79073 | 148° | 16km/h | 28560m | 6.1m/s | -45.9°C | 2.7% | 15.7hPa | 2.6V | 00:00:00 | 02:28:42 | 00:00:00 | |
| DL1XH-15 | 2026-09-05 12:19:19 | 52.34088 | 11.79064 | 150° | 11km/h | 28543m | 4.2m/s | -45.9°C | 2.7% | 15.8hPa | 2.6V | 03:27:53 | 02:28:39 | 00:00:00 | |
| DF8AY | 2026-09-05 12:19:17 | 52.34088 | 11.79064 | 150° | 11km/h | 28543m | 4.2m/s | -45.9°C | 0% | 15.8hPa | 2.6V | 03:28:38 | 02:28:39 | 00:00:00 | |
| DO2SHX-10 | 2026-09-05 12:19:17 | 52.34088 | 11.79064 | 151° | 15km/h | 28543m | 4.2m/s | -45.9°C | 2.7% | 15.7hPa | 2.6V | 03:27:00 | 02:28:39 | 00:00:00 | |
| DD8BA-10 | 2026-09-05 12:19:16 | 52.34090 | 11.79062 | 151° | 18km/h | 28538m | 4.7m/s | -45.8°C | 2.7% | 15.7hPa | 2.7V | 00:00:00 | 00:00:00 | 00:00:00 | |
| DL1NUX | 2026-09-05 12:19:15 | 52.34102 | 11.79049 | 144° | 24km/h | 28521m | 5.3m/s | -45.8°C | 2.7% | 15.8hPa | 2.7V | 03:27:57 | 02:28:35 | 00:00:00 | |
| HSKMA3-T | 2026-09-05 12:19:14 | 52.34098 | 11.79054 | 145° | 22km/h | 28527m | 6.1m/s | -45.9°C | 0% | 15.8hPa | 2.7V | 03:28:38 | 02:28:36 | 00:00:00 | |
| AA1-15 | 2026-09-05 12:19:12 | 52.34111 | 11.79038 | 146° | 18km/h | 28512m | 5.7m/s | -45.9°C | 0% | 15.8hPa | 2.6V | 03:28:38 | 02:28:33 | 00:00:00 | |
| DO3MHA-11 | 2026-09-05 12:19:12 | 52.34107 | 11.79043 | 145° | 16km/h | 28517m | 4.1m/s | -45.7°C | 2.7% | 15.8hPa | 2.7V | 00:00:00 | 02:28:34 | 00:00:00 | |
| DL1XH-15 | 2026-09-05 12:19:11 | 52.34122 | 11.79025 | 136° | 15km/h | 28489m | 6.6m/s | -46.1°C | 2.7% | 15.9hPa | 2.7V | 03:28:03 | 02:28:29 | 00:00:00 | |
| DL1XH-west | 2026-09-05 12:19:10 | 52.34115 | 11.79034 | 147° | 15km/h | 28506m | 6.8m/s | -46°C | 0% | 15.8hPa | 2.6V | 03:28:38 | 02:28:32 | 00:00:00 | |
| DF8AY | 2026-09-05 12:19:06 | 52.34126 | 11.79020 | 134° | 20km/h | 28483m | 6m/s | -46.2°C | 0% | 15.9hPa | 2.7V | 03:28:38 | 02:28:28 | 00:00:00 | |
| DD8BA-10 | 2026-09-05 12:19:06 | 52.34125 | 11.79020 | 134° | 20km/h | 28483m | 5.9m/s | -46.1°C | 2.7% | 15.8hPa | 2.7V | 00:00:00 | 00:00:00 | 00:00:00 | |
| DO2SHX-10 | 2026-09-05 12:19:05 | 52.34129 | 11.79014 | 132° | 20km/h | 28477m | 4.7m/s | -46.0°C | 2.7% | 15.8hPa | 2.7V | 03:28:00 | 02:28:27 | 00:00:00 | |
| DM0DOS-11 | 2026-09-05 12:19:04 | 52.34135 | 11.79001 | 124° | 16km/h | 28466m | 6.9m/s | -46.2°C | 2.7% | 15.9hPa | 2.7V | 03:28:07 | 02:28:25 | 00:00:00 | |
| HSKMA3-T | 2026-09-05 12:19:03 | 52.34135 | 11.79001 | 124° | 16km/h | 28466m | 6.9m/s | -46.2°C | 0% | 15.9hPa | 2.7V | 03:28:38 | 02:28:25 | 00:00:00 | |
| AA1-15 | 2026-09-05 12:19:01 | 52.34142 | 11.78985 | 131° | 18km/h | 28449m | 5.9m/s | -46.2°C | 0% | 16hPa | 2.6V | 03:28:38 | 02:28:22 | 00:00:00 | |
| DL1XH-west | 2026-09-05 12:18:59 | 52.34146 | 11.78979 | 135° | 22km/h | 28442m | 6.2m/s | -46.3°C | 0% | 16hPa | 2.6V | 03:28:38 | 02:28:21 | 00:00:00 | |
| DC6BW-12 | 2026-09-05 12:18:59 | 52.34146 | 11.78979 | 136° | 22km/h | 28443m | 6.2m/s | -46.3°C | 0.6% | 16.0hPa | 2.7V | 03:28:00 | 00:00:00 | 00:00:00 | |
| TFSTFS | 2026-09-05 12:18:57 | 52.34150 | 11.78972 | 140° | 24km/h | 28437m | 4.7m/s | -46.4°C | 0.5% | 16.0hPa | 2.7V | 00:00:00 | 00:00:00 | 00:00:00 | |
| DB0DAN | 2026-09-05 12:18:55 | 52.34163 | 11.78957 | 153° | 15km/h | 28420m | 5.9m/s | -46.4°C | 0.6% | 16.05hPa | 2.7V | 00:00:00 | 00:00:00 | 00:00:00 | |
| DF8AY | 2026-09-05 12:18:54 | 52.34166 | 11.78955 | 158° | 13km/h | 28415m | 4.9m/s | -46.5°C | 0% | 16.1hPa | 2.6V | 03:28:38 | 02:28:16 | 00:00:00 | |
| HSKMA3-T | 2026-09-05 12:18:53 | 52.34172 | 11.78951 | 153° | 15km/h | 28404m | 6.6m/s | -46.4°C | 0% | 16.1hPa | 2.7V | 03:28:38 | 02:28:14 | 00:00:00 | |
| DL1XH-15 | 2026-09-05 12:18:53 | 52.34188 | 11.78933 | 139° | 9km/h | 28376m | 6m/s | -46.3°C | 2.8% | 16.1hPa | 2.6V | 03:28:23 | 02:28:09 | 00:00:00 | |
| AA1-15 | 2026-09-05 12:18:50 | 52.34180 | 11.78943 | 145° | 18km/h | 28392m | 5m/s | -46.4°C | 0% | 16.1hPa | 2.7V | 03:28:38 | 02:28:12 | 00:00:00 | |
| DL1XH-west | 2026-09-05 12:18:48 | 52.34186 | 11.78935 | 145° | 13km/h | 28382m | 6m/s | -46.3°C | 0% | 16.1hPa | 2.6V | 03:28:38 | 02:28:10 | 00:00:00 | |
| DF8AY | 2026-09-05 12:18:44 | 52.34191 | 11.78925 | 110° | 11km/h | 28361m | 5.9m/s | -46.2°C | 0% | 16.2hPa | 2.7V | 03:28:38 | 02:28:06 | 00:00:00 | |
| HSKMA3-T | 2026-09-05 12:18:41 | 52.34197 | 11.78907 | 130° | 20km/h | 28344m | 4.7m/s | -46.3°C | 0% | 16.2hPa | 2.6V | 03:28:38 | 02:28:03 | 00:00:00 | |
| DB0DAN | 2026-09-05 12:18:40 | 52.34201 | 11.78901 | 138° | 18km/h | 28338m | 5.3m/s | -46.2°C | 0.5% | 16.24hPa | 2.6V | 00:00:00 | 00:00:00 | 00:00:00 | |
| AA1-15 | 2026-09-05 12:18:39 | 52.34204 | 11.78897 | 152° | 16km/h | 28333m | 6.4m/s | -46.2°C | 0% | 16.2hPa | 2.7V | 03:28:38 | 02:28:01 | 00:00:00 | |
| DL1XH-15 | 2026-09-05 12:18:39 | 52.34212 | 11.78893 | 168° | 16km/h | 28322m | 4.9m/s | -46.2°C | 2.8% | 16.3hPa | 2.7V | 03:28:33 | 02:27:59 | 00:00:00 | |
| DL1XH-west | 2026-09-05 12:18:37 | 52.34212 | 11.78893 | 169° | 16km/h | 28322m | 4.9m/s | -46.2°C | 0% | 16.3hPa | 2.7V | 03:28:38 | 02:27:59 | 00:00:00 | |
| TFSTFS | 2026-09-05 12:18:36 | 52.34216 | 11.78891 | 165° | 20km/h | 28317m | 5.7m/s | -46.3°C | 0.6% | 16.3hPa | 2.6V | 00:00:00 | 00:00:00 | 00:00:00 | |
| DL1XH1-15 | 2026-09-05 12:18:35 | 52.34242 | 11.78862 | 135° | 16km/h | 28281m | 4.9m/s | -45.9°C | 2.7% | 16.4hPa | 2.6V | 03:28:40 | 02:27:52 | 00:00:00 | |
| DF8AY | 2026-09-05 12:18:34 | 52.34226 | 11.78884 | 149° | 24km/h | 28304m | 5.6m/s | -46.2°C | 0% | 16.3hPa | 2.7V | 03:28:38 | 02:27:56 | 00:00:00 | |
| DM0DOS-11 | 2026-09-05 12:18:34 | 52.34231 | 11.78878 | 141° | 24km/h | 28299m | 4.9m/s | -46°C | 2.8% | 16.3hPa | 2.7V | 03:28:37 | 02:27:55 | 00:00:00 | |
| DF8AY-15 | 2026-09-05 12:18:33 | 52.34231 | 11.78878 | 142° | 22km/h | 28299m | 4.9m/s | -46.0°C | 2.8% | 16.3hPa | 2.7V | 00:00:00 | 02:27:55 | 00:00:00 | |
| DL1XH-15 | 2026-09-05 12:18:32 | 52.34254 | 11.78845 | 140° | 26km/h | 28264m | 6.7m/s | -45.9°C | 2.7% | 16.4hPa | 2.7V | 03:28:43 | 02:27:49 | 00:00:00 | |
| HSKMA3-T | 2026-09-05 12:18:30 | 52.34242 | 11.78862 | 135° | 16km/h | 28281m | 4.9m/s | -45.9°C | 0% | 16.4hPa | 2.6V | 03:29:29 | 02:27:52 | 00:00:00 | |
| AA1-15 | 2026-09-05 12:18:29 | 52.34246 | 11.78857 | 137° | 18km/h | 28277m | 4.6m/s | -45.9°C | 0% | 16.4hPa | 2.6V | 03:29:29 | 02:27:51 | 00:00:00 | |
| DL1XH-west | 2026-09-05 12:18:27 | 52.34254 | 11.78845 | 141° | 26km/h | 28264m | 6.7m/s | -45.9°C | 0% | 16.4hPa | 2.7V | 03:29:29 | 02:27:49 | 00:00:00 | |
| DD8BA-10 | 2026-09-05 12:18:26 | 52.34259 | 11.78838 | 143° | 24km/h | 28259m | 5.2m/s | -45.8°C | 2.6% | 16.4hPa | 2.6V | 00:00:00 | 00:00:00 | 00:00:00 | |
| DL1XH1-15 | 2026-09-05 12:18:25 | 52.34283 | 11.78801 | 114° | 20km/h | 28225m | 5.6m/s | -46°C | 2.6% | 16.5hPa | 2.6V | 03:28:50 | 02:27:42 | 00:00:00 | |
| DL1NUX | 2026-09-05 12:18:25 | 52.34275 | 11.78818 | 142° | 20km/h | 28242m | 6.6m/s | -46°C | 2.6% | 16.5hPa | 2.7V | 03:28:47 | 02:27:45 | 00:00:00 | |
| DF8AY | 2026-09-05 12:18:24 | 52.34271 | 11.78824 | 144° | 26km/h | 28248m | 5.9m/s | -45.9°C | 0% | 16.5hPa | 2.6V | 03:29:29 | 02:27:46 | 00:00:00 | |
| DO2SHX-10 | 2026-09-05 12:18:23 | 52.34275 | 11.78818 | 143° | 18km/h | 28242m | 6.6m/s | -45.9°C | 2.6% | 16.4hPa | 2.7V | 00:00:00 | 02:27:45 | 00:00:00 | |
| DF7ER-10 | 2026-09-05 12:18:21 | 52.34281 | 11.78808 | 122° | 16km/h | 28231m | 5.3m/s | -46.1°C | 0.6% | 16.5hPa | 2.7V | 03:29:00 | 00:00:00 | 00:00:00 | |
| DO2SHX-10 | 2026-09-05 12:18:20 | 52.34283 | 11.78801 | 115° | 24km/h | 28225m | 5.6m/s | -46.0°C | 2.6% | 16.5hPa | 2.7V | 00:00:00 | 02:27:42 | 00:00:00 | |
| DL1XH-15 | 2026-09-05 12:18:19 | 52.34290 | 11.78773 | 111° | 27km/h | 28207m | 4.8m/s | -46°C | 2.6% | 16.6hPa | 2.7V | 03:28:53 | 02:27:39 | 00:00:00 | |
| AA1-15 | 2026-09-05 12:18:19 | 52.34285 | 11.78793 | 112° | 24km/h | 28218m | 6.8m/s | -45.9°C | 0% | 16.5hPa | 2.6V | 03:29:29 | 02:27:41 | 00:00:00 | |
| DL1XH-west | 2026-09-05 12:18:16 | 52.34293 | 11.78763 | 115° | 26km/h | 28202m | 5.5m/s | -46.1°C | 0% | 16.6hPa | 2.7V | 03:29:29 | 02:27:38 | 00:00:00 | |
| DF8AY | 2026-09-05 12:18:13 | 52.34301 | 11.78742 | 140° | 18km/h | 28184m | 5.1m/s | -46.2°C | 0% | 16.6hPa | 2.6V | 03:29:29 | 02:27:35 | 00:00:00 | |
| DF8AY-15 | 2026-09-05 12:18:13 | 52.34301 | 11.78742 | 141° | 26km/h | 28184m | 5.0m/s | -46.2°C | 2.7% | 16.6hPa | 2.6V | 00:00:00 | 02:27:35 | 00:00:00 | |
| DL1XH-15 | 2026-09-05 12:18:12 | 52.34325 | 11.78704 | 119° | 20km/h | 28150m | 6.2m/s | -46.5°C | 2.7% | 16.7hPa | 2.6V | 03:29:03 | 02:27:29 | 00:00:00 | |
| DB0DAN | 2026-09-05 12:18:10 | 52.34314 | 11.78726 | 139° | 24km/h | 28167m | 5.6m/s | -46.2°C | 0.5% | 16.66hPa | 2.7V | 00:00:00 | 00:00:00 | 00:00:00 | |
| AA1-15 | 2026-09-05 12:18:09 | 52.34318 | 11.78719 | 133° | 24km/h | 28162m | 4.6m/s | -46.3°C | 0% | 16.7hPa | 2.6V | 03:29:29 | 02:27:31 | 00:00:00 | |
| HSKMA3-T | 2026-09-05 12:18:08 | 52.34322 | 11.78712 | 127° | 22km/h | 28156m | 6.1m/s | -46.4°C | 0% | 16.7hPa | 2.6V | 03:29:29 | 02:27:30 | 00:00:00 | |
| DL1XH-west | 2026-09-05 12:18:05 | 52.34329 | 11.78688 | 105° | 24km/h | 28139m | 5.1m/s | -46.4°C | 0% | 16.7hPa | 2.7V | 03:29:29 | 02:27:27 | 00:00:00 | |
| DF8AY | 2026-09-05 12:18:03 | 52.34333 | 11.78666 | 110° | 33km/h | 28127m | 7.1m/s | -46.5°C | 0% | 16.8hPa | 2.7V | 03:29:29 | 02:27:25 | 00:00:00 | |
| DL1XH1-15 | 2026-09-05 12:18:02 | 52.34343 | 11.78628 | 117° | 31km/h | 28109m | 6.6m/s | -46.8°C | 2.8% | 16.8hPa | 2.6V | 03:29:10 | 02:27:22 | 00:00:00 | |
| DO2SHX-10 | 2026-09-05 12:18:02 | 52.34336 | 11.78653 | 113° | 35km/h | 28121m | 5.6m/s | -46.6°C | 2.7% | 16.8hPa | 2.7V | 00:00:00 | 02:27:24 | 00:00:00 | |
| SP3WXH-11 | 2026-09-05 12:18:01 | 52.34343 | 11.78628 | 117° | 31km/h | 28110m | 6.6m/s | -46.8°C | 0.6% | 16.8hPa | 2.7V | 00:00:00 | 00:00:00 | 00:00:00 | |
| DL1XH-15 | 2026-09-05 12:17:59 | 52.34354 | 11.78598 | 121° | 26km/h | 28091m | 5.2m/s | -46.8°C | 2.8% | 16.8hPa | 2.7V | 03:29:13 | 02:27:19 | 00:00:00 | |
| AA1-15 | 2026-09-05 12:17:58 | 52.34350 | 11.78607 | 121° | 26km/h | 28097m | 5.5m/s | -46.7°C | 0% | 16.8hPa | 2.7V | 03:29:29 | 02:27:20 | 00:00:00 | |
| HSKMA3-T | 2026-09-05 12:17:57 | 52.34354 | 11.78598 | 121° | 26km/h | 28091m | 5.2m/s | -46.8°C | 0% | 16.8hPa | 2.7V | 03:29:29 | 02:27:19 | 00:00:00 | |
| DB0DAN | 2026-09-05 12:17:55 | 52.34361 | 11.78578 | 119° | 29km/h | 28078m | 6.3m/s | -47°C | 0.6% | 16.88hPa | 2.6V | 00:00:00 | 00:00:00 | 00:00:00 | |
| DL1XH-west | 2026-09-05 12:17:54 | 52.34365 | 11.78567 | 117° | 29km/h | 28073m | 5.5m/s | -47°C | 0% | 16.9hPa | 2.7V | 03:29:29 | 02:27:16 | 00:00:00 | |
| GOEST3-10 | 2026-09-05 12:17:54 | 52.34364 | 11.78567 | 117° | 24km/h | 28073m | 5.5m/s | -46.9°C | 2.9% | 16.9hPa | 2.7V | 00:00:00 | 02:27:16 | 00:00:00 | |
| DC6BW-12 | 2026-09-05 12:17:53 | 52.34367 | 11.78556 | 113° | 27km/h | 28068m | 5.8m/s | -46.9°C | 0.6% | 16.9hPa | 2.7V | 00:00:00 | 00:00:00 | 00:00:00 | |
| DL1XH-15 | 2026-09-05 12:17:52 | 52.34376 | 11.78503 | 109° | 27km/h | 28032m | 6.8m/s | -46.8°C | 2.9% | 17hPa | 2.7V | 03:29:23 | 02:27:09 | 00:00:00 | |
| DL1XH1-15 | 2026-09-05 12:17:52 | 52.34372 | 11.78530 | 99° | 18km/h | 28049m | 4.4m/s | -46.6°C | 2.9% | 17hPa | 2.6V | 03:29:20 | 02:27:12 | 00:00:00 | |
| AA1-15 | 2026-09-05 12:17:48 | 52.34374 | 11.78514 | 106° | 24km/h | 28039m | 6.5m/s | -46.7°C | 0% | 17hPa | 2.7V | 03:29:29 | 02:27:10 | 00:00:00 | |
| HSKMA3-T | 2026-09-05 12:17:47 | 52.34376 | 11.78503 | 110° | 29km/h | 28032m | 6.8m/s | -46.8°C | 0% | 17hPa | 2.7V | 03:29:29 | 02:27:09 | 00:00:00 | |
| DL2RXE-15 | 2026-09-05 12:17:47 | 52.34376 | 11.78503 | 111° | 29km/h | 28033m | 6.8m/s | -46.8°C | 0.6% | 17.0hPa | 2.7V | 00:00:00 | 00:00:00 | 00:00:00 | |
| DD8BA-10 | 2026-09-05 12:17:46 | 52.34379 | 11.78492 | 112° | 26km/h | 28026m | 5.8m/s | -46.8°C | 2.9% | 17.0hPa | 2.7V | 00:00:00 | 00:00:00 | 00:00:00 | |
| DL1NUX | 2026-09-05 12:17:45 | 52.34387 | 11.78456 | 107° | 26km/h | 28009m | 6.9m/s | -46.8°C | 3% | 17hPa | 2.7V | 03:29:27 | 02:27:05 | 00:00:00 | |
| DL1XH-west | 2026-09-05 12:17:43 | 52.34387 | 11.78456 | 108° | 26km/h | 28009m | 6.9m/s | -46.8°C | 0% | 17hPa | 2.7V | 03:29:29 | 02:27:05 | 00:00:00 | |
| DB0UT-7 | 2026-09-05 12:17:43 | 52.34387 | 11.78456 | 108° | 20km/h | 28009m | 6.9m/s | -46.8°C | 3.0% | 17.0hPa | 2.6V | 00:00:00 | 00:00:00 | 00:00:00 | |
| DL1XH1-15 | 2026-09-05 12:17:42 | 52.34390 | 11.78431 | 94° | 18km/h | 27992m | 5.4m/s | -46.6°C | 2.9% | 17.1hPa | 2.6V | 03:29:30 | 02:27:02 | 00:00:00 | |
| DB0DAN | 2026-09-05 12:17:40 | 52.34390 | 11.78431 | 95° | 18km/h | 27992m | 5.4m/s | -46.6°C | 0.6% | 17.09hPa | 2.6V | 00:00:00 | 00:00:00 | 00:00:00 | |
| EDDB2-11 | 2026-09-05 12:17:40 | 52.34390 | 11.78423 | 95° | 20km/h | 27986m | 6.1m/s | -46.6°C | 0.6% | 17.1hPa | 2.7V | 00:00:00 | 00:00:00 | 00:00:00 | |
| DL1XH-15 | 2026-09-05 12:17:39 | 52.34392 | 11.78404 | 101° | 24km/h | 27974m | 5.3m/s | -46.6°C | 2.8% | 17.1hPa | 2.7V | 03:29:33 | 02:26:59 | 00:00:00 | |
| AA1-15 | 2026-09-05 12:17:37 | 52.34392 | 11.78404 | 101° | 24km/h | 27974m | 5.3m/s | -46.6°C | 0% | 17.1hPa | 2.7V | 03:30:20 | 02:26:59 | 00:00:00 | |
| HSKMA3-T | 2026-09-05 12:17:36 | 52.34393 | 11.78395 | 104° | 22km/h | 27969m | 5m/s | -46.7°C | 0% | 17.1hPa | 2.7V | 03:30:20 | 02:26:58 | 00:00:00 | |
| DF8AY | 2026-09-05 12:17:36 | 52.34404 | 11.78345 | 104° | 27km/h | 27927m | 5.6m/s | -46.7°C | 0% | 17.3hPa | 2.6V | 03:32:53 | 02:26:51 | 00:00:00 | |
| DD8BA-10 | 2026-09-05 12:17:36 | 52.34393 | 11.78395 | 105° | 20km/h | 27969m | 4.9m/s | -46.6°C | 2.8% | 17.1hPa | 2.7V | 00:00:00 | 00:00:00 | 00:00:00 | |
| DL1NUX | 2026-09-05 12:17:35 | 52.34398 | 11.78374 | 114° | 13km/h | 27951m | 5.5m/s | -46.8°C | 2.8% | 17.2hPa | 2.6V | 03:29:37 | 02:26:55 | 00:00:00 | |
| DL1XH-west | 2026-09-05 12:17:33 | 52.34399 | 11.78369 | 115° | 15km/h | 27946m | 5.1m/s | -46.8°C | 0% | 17.2hPa | 2.7V | 03:30:20 | 02:26:54 | 00:00:00 | |
| AA1-15 | 2026-09-05 12:17:26 | 52.34409 | 11.78315 | 109° | 22km/h | 27910m | 7m/s | -46.6°C | 0% | 17.3hPa | 2.7V | 03:30:20 | 02:26:48 | 00:00:00 | |
| DB0DAN | 2026-09-05 12:17:25 | 52.34410 | 11.78307 | 113° | 16km/h | 27904m | 5.9m/s | -46.5°C | 0.6% | 17.33hPa | 2.7V | 00:00:00 | 00:00:00 | 00:00:00 | |
| HSKMA3-T | 2026-09-05 12:17:25 | 52.34410 | 11.78307 | 113° | 18km/h | 27904m | 5.9m/s | -46.5°C | 0% | 17.3hPa | 2.7V | 03:30:20 | 02:26:47 | 00:00:00 | |
| DC4HF-4 | 2026-09-05 12:17:25 | 52.34410 | 11.78307 | 112° | 16km/h | 27904m | 5.9m/s | -46.5°C | 0.6% | 17.3hPa | 2.6V | 00:00:00 | 00:00:00 | 00:00:00 | |
| DM0DOS-11 | 2026-09-05 12:17:24 | 52.34414 | 11.78295 | 115° | 16km/h | 27893m | 5.5m/s | -46.5°C | 2.8% | 17.4hPa | 2.6V | 03:29:47 | 02:26:45 | 00:00:00 | |
| DF8AY | 2026-09-05 12:17:23 | 52.34414 | 11.78295 | 116° | 16km/h | 27893m | 5.5m/s | -46.5°C | 0% | 17.4hPa | 2.6V | 03:32:53 | 02:26:45 | 00:00:00 | |
| DL1XH-west | 2026-09-05 12:17:23 | 52.34416 | 11.78288 | 114° | 20km/h | 27886m | 6.6m/s | -46.4°C | 0% | 17.4hPa | 2.6V | 03:30:20 | 02:26:44 | 00:00:00 | |
| DO2SHX-10 | 2026-09-05 12:17:20 | 52.34420 | 11.78270 | 109° | 26km/h | 27874m | 5.7m/s | -46.4°C | 2.8% | 17.3hPa | 2.7V | 00:00:00 | 02:26:42 | 00:00:00 | |
| DL1XH-15 | 2026-09-05 12:17:19 | 52.34425 | 11.78241 | 104° | 20km/h | 27857m | 6.6m/s | -46.5°C | 2.7% | 17.5hPa | 2.6V | 03:29:53 | 02:26:39 | 00:00:00 | |
| AA1-15 | 2026-09-05 12:17:16 | 52.34427 | 11.78234 | 107° | 18km/h | 27851m | 5.6m/s | -46.5°C | 0% | 17.5hPa | 2.6V | 03:30:20 | 02:26:38 | 00:00:00 | |
| HSKMA3-T | 2026-09-05 12:17:14 | 52.34429 | 11.78219 | 102° | 22km/h | 27840m | 6m/s | -46.5°C | 0% | 17.5hPa | 2.7V | 03:30:20 | 02:26:36 | 00:00:00 | |
| DM0DOS-11 | 2026-09-05 12:17:14 | 52.34430 | 11.78209 | 100° | 26km/h | 27833m | 6.7m/s | -46.5°C | 2.6% | 17.5hPa | 2.7V | 03:29:57 | 02:26:35 | 00:00:00 | |
| DF8AY | 2026-09-05 12:17:13 | 52.34430 | 11.78209 | 100° | 26km/h | 27834m | 6.7m/s | -46.5°C | 0% | 17.5hPa | 2.7V | 03:32:53 | 02:26:35 | 00:00:00 | |
| DL1XH-west | 2026-09-05 12:17:11 | 52.34432 | 11.78185 | 98° | 31km/h | 27822m | 4.8m/s | -46.7°C | 0% | 17.5hPa | 2.6V | 03:30:20 | 02:26:33 | 00:00:00 | |
| DB0DAN | 2026-09-05 12:17:10 | 52.34433 | 11.78172 | 97° | 29km/h | 27817m | 5m/s | -46.7°C | 0.5% | 17.55hPa | 2.7V | 00:00:00 | 00:00:00 | 00:00:00 | |
| AA1-15 | 2026-09-05 12:17:05 | 52.34429 | 11.78125 | 59° | 26km/h | 27787m | 7.1m/s | -46.7°C | 0% | 17.6hPa | 2.6V | 03:30:20 | 02:26:27 | 00:00:00 | |
| DO2SHX-10 | 2026-09-05 12:17:05 | 52.34429 | 11.78125 | 59° | 27km/h | 27787m | 7.1m/s | -46.6°C | 2.7% | 17.6hPa | 2.7V | 03:30:00 | 02:26:27 | 00:00:00 | |
| DM0DOS-11 | 2026-09-05 12:17:04 | 52.34422 | 11.78106 | 61° | 27km/h | 27775m | 5m/s | -46.5°C | 2.7% | 17.7hPa | 2.7V | 03:30:07 | 02:26:25 | 00:00:00 | |
| HSKMA3-T | 2026-09-05 12:17:04 | 52.34425 | 11.78116 | 57° | 29km/h | 27780m | 6m/s | -46.7°C | 0% | 17.7hPa | 2.7V | 03:30:20 | 02:26:26 | 00:00:00 | |
| DF8AY | 2026-09-05 12:17:02 | 52.34419 | 11.78096 | 68° | 26km/h | 27769m | 6.3m/s | -46.5°C | 0% | 17.7hPa | 2.7V | 03:32:53 | 02:26:24 | 00:00:00 | |
| DL1XH-west | 2026-09-05 12:17:00 | 52.34418 | 11.78077 | 102° | 24km/h | 27757m | 5.4m/s | -46.6°C | 0% | 17.7hPa | 2.6V | 03:30:20 | 02:26:22 | 00:00:00 | |
| DL1XH-15 | 2026-09-05 12:16:59 | 52.34424 | 11.78044 | 106° | 33km/h | 27739m | 6.8m/s | -46.8°C | 2.7% | 17.8hPa | 2.7V | 03:30:13 | 02:26:19 | 00:00:00 | |
| SP3WXH-11 | 2026-09-05 12:16:59 | 52.34422 | 11.78056 | 109° | 29km/h | 27746m | 6.8m/s | -46.8°C | 0.5% | 17.8hPa | 2.6V | 00:00:00 | 00:00:00 | 00:00:00 | |
| DF7ER-10 | 2026-09-05 12:16:56 | 52.34424 | 11.78044 | 107° | 33km/h | 27739m | 6.8m/s | -46.8°C | 0.6% | 17.8hPa | 2.6V | 03:30:00 | 00:00:00 | 00:00:00 | |
| DB0DAN | 2026-09-05 12:16:55 | 52.34428 | 11.78019 | 100° | 27km/h | 27728m | 5.2m/s | -47°C | 0.5% | 17.82hPa | 2.6V | 00:00:00 | 00:00:00 | 00:00:00 | |
| DL1XH1-15 | 2026-09-05 12:16:55 | 52.34426 | 11.77970 | 70° | 29km/h | 27697m | 6.9m/s | -47.4°C | 2.7% | 17.9hPa | 2.6V | 03:30:20 | 02:26:12 | 00:00:00 | |
| HSKMA3-T | 2026-09-05 12:16:54 | 52.34429 | 11.78007 | 98° | 26km/h | 27722m | 6.8m/s | -47.1°C | 0% | 17.8hPa | 2.6V | 03:30:20 | 02:26:16 | 00:00:00 | |
| DF8AY | 2026-09-05 12:16:51 | 52.34428 | 11.77980 | 72° | 24km/h | 27703m | 6.3m/s | -47.4°C | 0% | 17.9hPa | 2.7V | 03:32:53 | 02:26:13 | 00:00:00 | |
| DJ8HS-15 | 2026-09-05 12:16:51 | 52.34428 | 11.77980 | 73° | 29km/h | 27704m | 6.3m/s | -47.3°C | 2.7% | 17.8hPa | 2.7V | 00:00:00 | 02:26:13 | 00:00:00 | |
| DO2SHX-10 | 2026-09-05 12:16:50 | 52.34425 | 11.77969 | 71° | 31km/h | 27697m | 6.9m/s | -47.3°C | 2.7% | 17.9hPa | 2.7V | 00:00:00 | 02:26:12 | 00:00:00 | |
| DL1XH-15 | 2026-09-05 12:16:49 | 52.34419 | 11.77931 | 80° | 33km/h | 27680m | 5.3m/s | -47.2°C | 2.7% | 17.9hPa | 2.7V | 03:30:23 | 02:26:09 | 00:00:00 | |
| DL1XH-west | 2026-09-05 12:16:49 | 52.34421 | 11.77944 | 75° | 35km/h | 27685m | 4.9m/s | -47.2°C | 0% | 17.9hPa | 2.7V | 03:31:11 | 02:26:10 | 00:00:00 | |
| AA1-15 | 2026-09-05 12:16:44 | 52.34420 | 11.77895 | 106° | 29km/h | 27662m | 5.6m/s | -47.3°C | 0% | 18hPa | 2.6V | 03:31:11 | 02:26:06 | 00:00:00 | |
| DM0DOS-11 | 2026-09-05 12:16:44 | 52.34422 | 11.77883 | 108° | 31km/h | 27656m | 5.4m/s | -47.3°C | 2.7% | 18hPa | 2.6V | 03:30:27 | 02:26:05 | 00:00:00 | |
| HSKMA3-T | 2026-09-05 12:16:44 | 52.34422 | 11.77883 | 109° | 31km/h | 27656m | 5.4m/s | -47.3°C | 0% | 18hPa | 2.6V | 03:31:11 | 02:26:05 | 00:00:00 | |
| DB0UT-7 | 2026-09-05 12:16:44 | 52.34422 | 11.77883 | 109° | 24km/h | 27656m | 5.3m/s | -47.3°C | 2.7% | 17.9hPa | 2.6V | 00:00:00 | 00:00:00 | 00:00:00 | |
| DL1XH1-15 | 2026-09-05 12:16:43 | 52.34427 | 11.77844 | 91° | 33km/h | 27638m | 5m/s | -47.5°C | 2.7% | 18.1hPa | 2.7V | 03:30:30 | 02:26:02 | 00:00:00 | |
| DF8AY | 2026-09-05 12:16:41 | 52.34422 | 11.77794 | 75° | 22km/h | 27609m | 5.7m/s | -47.7°C | 0% | 18.1hPa | 2.7V | 03:32:53 | 02:25:57 | 00:00:00 | |
| DB0DAN | 2026-09-05 12:16:40 | 52.34427 | 11.77844 | 91° | 31km/h | 27638m | 5m/s | -47.5°C | 0.6% | 18.06hPa | 2.7V | 00:00:00 | 00:00:00 | 00:00:00 | |
| DL1XH-15 | 2026-09-05 12:16:40 | 52.34425 | 11.77810 | 76° | 22km/h | 27620m | 6.5m/s | -47.4°C | 2.6% | 18.1hPa | 2.7V | 03:30:33 | 02:25:59 | 00:00:00 | |
| DL1XH-west | 2026-09-05 12:16:37 | 52.34425 | 11.77810 | 77° | 22km/h | 27620m | 6.5m/s | -47.4°C | 0% | 18.1hPa | 2.7V | 03:31:11 | 02:25:59 | 00:00:00 | |
| TFSTFS | 2026-09-05 12:16:37 | 52.34425 | 11.77810 | 78° | 22km/h | 27621m | 6.5m/s | -47.4°C | 0.5% | 18.1hPa | 2.7V | 00:00:00 | 00:00:00 | 00:00:00 | |
| SONDE2-11 | 2026-09-05 12:16:36 | 52.34422 | 11.77794 | 75° | 20km/h | 27609m | 5.7m/s | -47.7°C | 0.5% | 18.1hPa | 2.7V | 00:00:00 | 00:00:00 | 00:00:00 | |
| DD8BA-10 | 2026-09-05 12:16:35 | 52.34422 | 11.77794 | 76° | 22km/h | 27609m | 5.7m/s | -47.7°C | 2.7% | 18.1hPa | 2.7V | 00:00:00 | 00:00:00 | 00:00:00 | |
| DM0DOS-11 | 2026-09-05 12:16:34 | 52.34420 | 11.77774 | 83° | 27km/h | 27597m | 5.5m/s | -48.2°C | 2.8% | 18.1hPa | 2.6V | 03:30:37 | 02:25:55 | 00:00:00 | |
| AA1-15 | 2026-09-05 12:16:33 | 52.34420 | 11.77774 | 83° | 27km/h | 27597m | 5.5m/s | -48.2°C | 0% | 18.1hPa | 2.6V | 03:31:11 | 02:25:55 | 00:00:00 | |
| HSKMA3-T | 2026-09-05 12:16:32 | 52.34419 | 11.77763 | 91° | 27km/h | 27591m | 4.8m/s | -48.2°C | 0% | 18.2hPa | 2.6V | 03:31:11 | 02:25:54 | 00:00:00 | |
| DO2SHX-10 | 2026-09-05 12:16:32 | 52.34419 | 11.77762 | 91° | 24km/h | 27591m | 4.8m/s | -48.2°C | 2.8% | 18.1hPa | 2.7V | 00:00:00 | 02:25:54 | 00:00:00 | |
| DL1XH1-15 | 2026-09-05 12:16:31 | 52.34421 | 11.77743 | 103° | 20km/h | 27578m | 6.9m/s | -48.2°C | 2.9% | 18.2hPa | 2.7V | 03:30:40 | 02:25:52 | 00:00:00 | |
| DF8AY | 2026-09-05 12:16:30 | 52.34421 | 11.77743 | 104° | 20km/h | 27579m | 6.9m/s | -48.2°C | 0% | 18.2hPa | 2.7V | 03:32:53 | 02:25:52 | 00:00:00 | |
| DL4BBY-15 | 2026-09-05 12:16:29 | 52.34422 | 11.77735 | 106° | 20km/h | 27573m | 5.3m/s | -48.4°C | 0% | 0hPa | 2.7V | 00:00:00 | 00:00:00 | 00:00:00 | |
| GOEST3-10 | 2026-09-05 12:16:28 | 52.34421 | 11.77712 | 65° | 20km/h | 27555m | 5.6m/s | -48.4°C | 2.9% | 18.2hPa | 2.7V | 00:00:00 | 00:00:00 | 00:00:00 | |
| DL1XH-west | 2026-09-05 12:16:28 | 52.34422 | 11.77713 | 65° | 20km/h | 27555m | 5.6m/s | -48.5°C | 0% | 18.3hPa | 2.7V | 03:31:11 | 02:25:48 | 00:00:00 | |
| DO2SHX-10 | 2026-09-05 12:16:27 | 52.34421 | 11.77712 | 65° | 20km/h | 27555m | 5.6m/s | -48.4°C | 2.9% | 18.2hPa | 2.7V | 00:00:00 | 02:25:48 | 00:00:00 | |
| DF7ER-10 | 2026-09-05 12:16:26 | 52.34421 | 11.77712 | 66° | 20km/h | 27555m | 5.6m/s | -48.5°C | 0.6% | 18.3hPa | 2.7V | 03:31:00 | 00:00:00 | 00:00:00 | |
| DL1XH1-15 | 2026-09-05 12:16:25 | 52.34396 | 11.77694 | 24° | 18km/h | 27521m | 5.5m/s | -48.7°C | 3.1% | 18.4hPa | 2.7V | 03:30:50 | 02:25:42 | 00:00:00 | |
| DO3MHA-11 | 2026-09-05 12:16:25 | 52.34419 | 11.77706 | 46° | 18km/h | 27550m | 5.2m/s | -48.6°C | 3.0% | 18.3hPa | 2.6V | 00:00:00 | 02:25:47 | 00:00:00 | |
| DM0DOS-11 | 2026-09-05 12:16:24 | 52.34410 | 11.77698 | 14° | 20km/h | 27537m | 7.2m/s | -48.9°C | 3% | 18.3hPa | 2.6V | 03:30:47 | 02:25:45 | 00:00:00 | |
| HSKMA3-T | 2026-09-05 12:16:22 | 52.34405 | 11.77697 | 5° | 20km/h | 27531m | 5m/s | -48.7°C | 0% | 18.3hPa | 2.6V | 03:31:11 | 02:25:44 | 00:00:00 | |
| DF8AY | 2026-09-05 12:16:19 | 52.34392 | 11.77689 | 43° | 20km/h | 27515m | 6.7m/s | -48.7°C | 0% | 18.4hPa | 2.7V | 03:32:53 | 02:25:41 | 00:00:00 | |
| DL1XH-15 | 2026-09-05 12:16:19 | 52.34387 | 11.77673 | 76° | 26km/h | 27503m | 5.4m/s | -48.7°C | 3% | 18.4hPa | 2.6V | 03:30:53 | 02:25:39 | 00:00:00 | |
| DL1XH-west | 2026-09-05 12:16:15 | 52.34386 | 11.77653 | 90° | 24km/h | 27492m | 6.2m/s | -48.7°C | 0% | 18.4hPa | 2.7V | 03:31:11 | 02:25:37 | 00:00:00 | |
| DL1NUX | 2026-09-05 12:16:15 | 52.34385 | 11.77637 | 79° | 15km/h | 27481m | 4.7m/s | -48.7°C | 3% | 18.5hPa | 2.7V | 03:30:57 | 02:25:35 | 00:00:00 | |
| HSKMA3-T | 2026-09-05 12:16:12 | 52.34384 | 11.77632 | 59° | 15km/h | 27477m | 4.4m/s | -48.7°C | 0% | 18.5hPa | 2.6V | 03:31:11 | 02:25:34 | 00:00:00 | |
| AA1-15 | 2026-09-05 12:16:11 | 52.34382 | 11.77627 | 47° | 18km/h | 27471m | 5.9m/s | -48.8°C | 0% | 18.5hPa | 2.6V | 03:31:11 | 02:25:33 | 00:00:00 | |
| DL1LOL-11 | 2026-09-05 12:16:11 | 52.34381 | 11.77627 | 48° | 18km/h | 27472m | 5.9m/s | -48.8°C | 0.6% | 18.5hPa | 2.7V | 00:00:00 | 00:00:00 | 00:00:00 | |
| MECKS9 | 2026-09-05 12:16:10 | 52.34378 | 11.77621 | 40° | 22km/h | 27465m | 6.8m/s | 0°C | 0% | 0hPa | 2.7V | 00:00:00 | 00:00:00 | 00:00:00 | |
| DL1XH-15 | 2026-09-05 12:16:09 | 52.34362 | 11.77605 | 25° | 22km/h | 27447m | 6.5m/s | -48.9°C | 2.9% | 18.6hPa | 2.7V | 03:31:03 | 02:25:29 | 00:00:00 | |
| DF8AY | 2026-09-05 12:16:08 | 52.34367 | 11.77609 | 29° | 26km/h | 27453m | 5.1m/s | -49.1°C | 0% | 18.6hPa | 2.7V | 03:32:53 | 02:25:30 | 00:00:00 | |
| DL1XH-west | 2026-09-05 12:16:05 | 52.34354 | 11.77599 | 25° | 15km/h | 27435m | 5.3m/s | -49°C | 0% | 18.6hPa | 2.6V | 03:31:11 | 02:25:27 | 00:00:00 | |
| HSKMA3-T | 2026-09-05 12:16:02 | 52.34345 | 11.77587 | 55° | 16km/h | 27417m | 5.4m/s | -49.3°C | 0% | 18.6hPa | 2.7V | 03:31:11 | 02:25:24 | 00:00:00 | |
| AA1-15 | 2026-09-05 12:16:00 | 52.34341 | 11.77577 | 53° | 13km/h | 27406m | 6.2m/s | -49.4°C | 0% | 18.7hPa | 2.6V | 03:31:11 | 02:25:22 | 00:00:00 | |
| DF8AY | 2026-09-05 12:15:57 | 52.34308 | 11.77568 | 356° | 29km/h | 27366m | 5.7m/s | -49.4°C | 0.1% | 18.8hPa | 2.7V | 03:32:53 | 02:25:15 | 00:00:00 | |
| SP3WXH-11 | 2026-09-05 12:15:57 | 52.34329 | 11.77571 | 8° | 22km/h | 27383m | 6.9m/s | -49.5°C | 0.7% | 18.8hPa | 2.7V | 00:00:00 | 00:00:00 | 00:00:00 | |
| DO2SHX-10 | 2026-09-05 12:15:56 | 52.34329 | 11.77571 | 9° | 27km/h | 27383m | 6.8m/s | -49.4°C | 3.3% | 18.7hPa | 2.7V | 00:00:00 | 02:25:18 | 00:00:00 | |
| DL1NUX | 2026-09-05 12:15:55 | 52.34308 | 11.77568 | 356° | 29km/h | 27366m | 5.7m/s | -49.4°C | 3.4% | 18.8hPa | 2.7V | 03:31:17 | 02:25:15 | 00:00:00 | |
| DL1XH-west | 2026-09-05 12:15:55 | 52.34316 | 11.77568 | 2° | 29km/h | 27371m | 4.6m/s | -49.5°C | 0% | 18.8hPa | 2.6V | 03:32:02 | 02:25:16 | 00:00:00 | |
| HSKMA3-T | 2026-09-05 12:15:52 | 52.34302 | 11.77570 | 346° | 24km/h | 27360m | 7m/s | -49.2°C | 0.1% | 18.8hPa | 2.7V | 03:32:02 | 02:25:14 | 00:00:00 | |
| AA1-15 | 2026-09-05 12:15:49 | 52.34290 | 11.77577 | 343° | 9km/h | 27342m | 7m/s | -49°C | 0% | 18.9hPa | 2.6V | 03:32:02 | 02:25:11 | 00:00:00 | |
| DF8AY | 2026-09-05 12:15:47 | 52.34287 | 11.77576 | 59° | 4km/h | 27329m | 5.4m/s | -48.9°C | 0% | 18.9hPa | 2.7V | 03:32:53 | 02:25:09 | 00:00:00 | |
| DO2SHX-10 | 2026-09-05 12:15:47 | 52.34287 | 11.77576 | 59° | 4km/h | 27329m | 5.3m/s | -48.8°C | 3.3% | 18.9hPa | 2.6V | 00:00:00 | 02:25:09 | 00:00:00 | |
| DL1NUX | 2026-09-05 12:15:45 | 52.34286 | 11.77573 | 358° | 5km/h | 27306m | 4.7m/s | -48.6°C | 3.2% | 19hPa | 2.6V | 03:31:27 | 02:25:05 | 00:00:00 | |
| DL1XH-west | 2026-09-05 12:15:44 | 52.34287 | 11.77573 | 358° | 2km/h | 27311m | 5.2m/s | -48.7°C | 0% | 18.9hPa | 2.6V | 03:32:02 | 02:25:06 | 00:00:00 | |
| HSKMA3-T | 2026-09-05 12:15:41 | 52.34279 | 11.77572 | 9° | 20km/h | 27294m | 7.4m/s | -48.6°C | 0% | 19hPa | 2.7V | 03:32:02 | 02:25:03 | 00:00:00 | |
| DB0DAN | 2026-09-05 12:15:40 | 52.34273 | 11.77570 | 11° | 26km/h | 27288m | 6m/s | -48.5°C | 0.7% | 19.01hPa | 2.7V | 00:00:00 | 00:00:00 | 00:00:00 | |
| DL1XH-15 | 2026-09-05 12:15:40 | 52.34252 | 11.77565 | 4° | 24km/h | 27272m | 6m/s | -48.7°C | 3.1% | 19.1hPa | 2.6V | 03:31:33 | 02:24:59 | 00:00:00 | |
| AA1-15 | 2026-09-05 12:15:38 | 52.34259 | 11.77566 | 8° | 29km/h | 27277m | 4.7m/s | -48.7°C | 0% | 19.1hPa | 2.6V | 03:32:02 | 02:25:00 | 00:00:00 | |
| DF8AY | 2026-09-05 12:15:36 | 52.34245 | 11.77565 | 357° | 7km/h | 27261m | 5.5m/s | -48.7°C | 0% | 19.1hPa | 2.7V | 03:32:53 | 02:24:57 | 00:00:00 | |
| DL1XH-west | 2026-09-05 12:15:34 | 52.34243 | 11.77565 | 33° | 2km/h | 27255m | 5.2m/s | -48.6°C | 0% | 19.1hPa | 2.7V | 03:32:02 | 02:24:56 | 00:00:00 | |
| HSKMA3-T | 2026-09-05 12:15:31 | 52.34242 | 11.77558 | 61° | 9km/h | 27238m | 5m/s | -48.5°C | 0% | 19.2hPa | 2.7V | 03:32:02 | 02:24:53 | 00:00:00 | |
| DC6BW-12 | 2026-09-05 12:15:30 | 52.34242 | 11.77558 | 62° | 9km/h | 27239m | 5.0m/s | -48.5°C | 0.7% | 19.2hPa | 2.7V | 00:00:00 | 00:00:00 | 00:00:00 | |
| DL1XH-15 | 2026-09-05 12:15:29 | 52.34230 | 11.77552 | 1° | 18km/h | 27216m | 5.1m/s | -48.4°C | 3% | 19.2hPa | 2.7V | 03:31:43 | 02:24:49 | 00:00:00 | |
| AA1-15 | 2026-09-05 12:15:28 | 52.34235 | 11.77552 | 0° | 15km/h | 27221m | 5.9m/s | -48.5°C | 0% | 19.2hPa | 2.6V | 03:32:02 | 02:24:50 | 00:00:00 | |
| DF8AY | 2026-09-05 12:15:26 | 52.34225 | 11.77551 | 12° | 22km/h | 27210m | 5.2m/s | -48.4°C | 0% | 19.2hPa | 2.7V | 03:32:53 | 02:24:48 | 00:00:00 | |
| DB0DAN | 2026-09-05 12:15:25 | 52.34220 | 11.77548 | 23° | 22km/h | 27204m | 7m/s | -48.4°C | 0.6% | 19.25hPa | 2.7V | 00:00:00 | 00:00:00 | 00:00:00 | |
| DL1NUX | 2026-09-05 12:15:25 | 52.34210 | 11.77537 | 46° | 24km/h | 27192m | 5m/s | -48.3°C | 2.9% | 19.3hPa | 2.6V | 03:31:47 | 02:24:45 | 00:00:00 | |
| DL1XH-west | 2026-09-05 12:15:24 | 52.34215 | 11.77543 | 37° | 26km/h | 27198m | 6.3m/s | -48.5°C | 0% | 19.3hPa | 2.6V | 03:32:02 | 02:24:46 | 00:00:00 | |
| DO3MHA-11 | 2026-09-05 12:15:24 | 52.34215 | 11.77543 | 37° | 18km/h | 27198m | 6.2m/s | -48.4°C | 3.0% | 19.2hPa | 2.7V | 00:00:00 | 02:24:46 | 00:00:00 | |
| DL1XH1-15 | 2026-09-05 12:15:23 | 52.34202 | 11.77518 | 68° | 11km/h | 27174m | 5.7m/s | -48.4°C | 3% | 19.4hPa | 2.7V | 03:31:50 | 02:24:42 | 00:00:00 | |
| DO2SHX-10 | 2026-09-05 12:15:23 | 52.34210 | 11.77537 | 47° | 20km/h | 27192m | 5.0m/s | -48.2°C | 2.9% | 19.2hPa | 2.6V | 00:00:00 | 02:24:45 | 00:00:00 | |
| DL1XH-15 | 2026-09-05 12:15:22 | 52.34200 | 11.77499 | 74° | 15km/h | 27152m | 6m/s | -48.3°C | 2.9% | 19.4hPa | 2.7V | 03:31:54 | 02:24:38 | 00:00:00 | |
| HSKMA3-T | 2026-09-05 12:15:21 | 52.34202 | 11.77518 | 69° | 11km/h | 27174m | 5.7m/s | -48.4°C | 0% | 19.4hPa | 2.7V | 03:32:02 | 02:24:42 | 00:00:00 | |
| AA1-15 | 2026-09-05 12:15:17 | 52.34201 | 11.77505 | 85° | 13km/h | 27158m | 6.4m/s | -48.3°C | 0% | 19.4hPa | 2.6V | 03:32:02 | 02:24:39 | 00:00:00 | |
| DF8AY | 2026-09-05 12:15:17 | 52.34200 | 11.77499 | 75° | 15km/h | 27152m | 6m/s | -48.3°C | 0% | 19.4hPa | 2.7V | 03:32:53 | 02:24:38 | 00:00:00 | |
| MECKS9 | 2026-09-05 12:15:16 | 52.34200 | 11.77499 | 76° | 15km/h | 27152m | 6.0m/s | 0°C | 0% | 0hPa | 2.7V | 03:32:00 | 00:00:00 | 00:00:00 | |
| DL1XH1-15 | 2026-09-05 12:15:15 | 52.34181 | 11.77470 | 39° | 22km/h | 27117m | 5.4m/s | -48.3°C | 2.9% | 19.5hPa | 2.7V | 03:32:00 | 02:24:32 | 00:00:00 | |
| DD8BA-10 | 2026-09-05 12:15:15 | 52.34199 | 11.77492 | 64° | 22km/h | 27146m | 5.3m/s | -48.2°C | 2.9% | 19.4hPa | 2.6V | 00:00:00 | 00:00:00 | 00:00:00 | |
| DM0DOS-11 | 2026-09-05 12:15:14 | 52.34193 | 11.77482 | 35° | 16km/h | 27134m | 6.4m/s | -48.3°C | 2.9% | 19.5hPa | 2.6V | 03:31:57 | 02:24:35 | 00:00:00 | |
| DL1XH-west | 2026-09-05 12:15:14 | 52.34197 | 11.77487 | 50° | 16km/h | 27140m | 6.3m/s | -48.2°C | 0% | 19.5hPa | 2.7V | 03:32:02 | 02:24:36 | 00:00:00 | |
| DO2SHX-10 | 2026-09-05 12:15:14 | 52.34197 | 11.77487 | 50° | 18km/h | 27141m | 6.3m/s | -48.2°C | 2.9% | 19.4hPa | 2.7V | 00:00:00 | 02:24:36 | 00:00:00 | |
| BUE01 | 2026-09-05 12:15:13 | 52.34190 | 11.77478 | 26° | 18km/h | 27128m | 5.7m/s | -48.4°C | 0.6% | 19.5hPa | 2.7V | 00:00:00 | 00:00:00 | 00:00:00 | |
| DL4XJ-10 | 2026-09-05 12:15:12 | 52.34189 | 11.77478 | 27° | 18km/h | 27129m | 5.7m/s | -48.5°C | 0% | 0hPa | 2.7V | 00:00:00 | 00:00:00 | 00:00:00 | |
| DF7ER-10 | 2026-09-05 12:15:11 | 52.34190 | 11.77478 | 27° | 18km/h | 27128m | 5.7m/s | -48.4°C | 0.6% | 19.5hPa | 2.7V | 03:32:00 | 00:00:00 | 00:00:00 | |
| DB0DAN | 2026-09-05 12:15:10 | 52.34181 | 11.77470 | 39° | 20km/h | 27117m | 5.4m/s | -48.3°C | 0.6% | 19.51hPa | 2.7V | 00:00:00 | 00:00:00 | 00:00:00 | |
| HSKMA3-T | 2026-09-05 12:15:09 | 52.34177 | 11.77463 | 53° | 24km/h | 27111m | 6.9m/s | -48.4°C | 0% | 19.6hPa | 2.7V | 03:32:02 | 02:24:31 | 00:00:00 | |
| DL1XH-15 | 2026-09-05 12:15:09 | 52.34172 | 11.77444 | 76° | 27km/h | 27099m | 5m/s | -48.4°C | 3% | 19.6hPa | 2.6V | 03:32:03 | 02:24:29 | 00:00:00 | |
| AA1-15 | 2026-09-05 12:15:06 | 52.34170 | 11.77434 | 82° | 24km/h | 27093m | 6.3m/s | -48.5°C | 0% | 19.6hPa | 2.6V | 03:32:53 | 02:24:28 | 00:00:00 | |
| DF8AY | 2026-09-05 12:15:06 | 52.34168 | 11.77378 | 44° | 15km/h | 27045m | 7.7m/s | -48.3°C | 0% | 19.7hPa | 2.7V | 03:32:53 | 02:24:20 | 00:00:00 | |
| DL1NUX | 2026-09-05 12:15:05 | 52.34171 | 11.77411 | 98° | 16km/h | 27075m | 5.1m/s | -48.4°C | 3% | 19.6hPa | 2.7V | 03:32:07 | 02:24:25 | 00:00:00 | |
| MECKS9 | 2026-09-05 12:15:05 | 52.34170 | 11.77425 | 89° | 20km/h | 27087m | 6.8m/s | 0°C | 0% | 0hPa | 2.6V | 00:00:00 | 00:00:00 | 00:00:00 | |
| DL1XH1-15 | 2026-09-05 12:15:04 | 52.34171 | 11.77389 | 80° | 16km/h | 27057m | 5m/s | -48.3°C | 3% | 19.7hPa | 2.6V | 03:32:10 | 02:24:22 | 00:00:00 | |
| DL1XH-west | 2026-09-05 12:15:03 | 52.34170 | 11.77411 | 99° | 16km/h | 27075m | 5.1m/s | -48.4°C | 0% | 19.6hPa | 2.7V | 03:32:53 | 02:24:25 | 00:00:00 | |
| HSKMA3-T | 2026-09-05 12:14:59 | 52.34170 | 11.77383 | 61° | 16km/h | 27052m | 6m/s | -48.3°C | 0% | 19.7hPa | 2.7V | 03:32:53 | 02:24:21 | 00:00:00 | |
| GOEST3-10 | 2026-09-05 12:14:59 | 52.34170 | 11.77383 | 62° | 16km/h | 27052m | 6.0m/s | -48.3°C | 3.0% | 19.7hPa | 2.7V | 00:00:00 | 02:24:21 | 00:00:00 | |
| DL1XH-15 | 2026-09-05 12:14:58 | 52.34165 | 11.77374 | 30° | 16km/h | 27038m | 5.8m/s | -48.2°C | 3% | 19.8hPa | 2.7V | 03:32:13 | 02:24:19 | 00:00:00 | |
| AA1-15 | 2026-09-05 12:14:56 | 52.34161 | 11.77371 | 32° | 16km/h | 27032m | 4.6m/s | -48.2°C | 0% | 19.8hPa | 2.6V | 03:32:53 | 02:24:18 | 00:00:00 | |
| DB0DAN | 2026-09-05 12:14:55 | 52.34158 | 11.77367 | 41° | 16km/h | 27027m | 6.4m/s | -48.3°C | 0.6% | 19.81hPa | 2.6V | 00:00:00 | 00:00:00 | 00:00:00 | |
| DF8AY | 2026-09-05 12:14:55 | 52.34158 | 11.77367 | 41° | 16km/h | 27027m | 6.4m/s | -48.3°C | 0% | 19.8hPa | 2.6V | 03:32:53 | 02:24:17 | 00:00:00 | |
| DL1NUX | 2026-09-05 12:14:55 | 52.34153 | 11.77355 | 68° | 18km/h | 27015m | 4.7m/s | -48.2°C | 3% | 19.8hPa | 2.7V | 03:32:17 | 02:24:15 | 00:00:00 | |
| GOEST3-10 | 2026-09-05 12:14:54 | 52.34155 | 11.77362 | 58° | 16km/h | 27021m | 6.2m/s | -48.1°C | 2.9% | 19.8hPa | 2.7V | 03:32:00 | 00:00:00 | 00:00:00 | |
| DF8AY-15 | 2026-09-05 12:14:53 | 52.34153 | 11.77355 | 69° | 15km/h | 27015m | 4.6m/s | -48.2°C | 3.0% | 19.8hPa | 2.7V | 00:00:00 | 02:24:15 | 00:00:00 | |
| DL1XH-west | 2026-09-05 12:14:53 | 52.34153 | 11.77355 | 69° | 18km/h | 27015m | 4.7m/s | -48.2°C | 0% | 19.9hPa | 2.7V | 03:32:53 | 02:24:15 | 00:00:00 | |
| DL1XH1-15 | 2026-09-05 12:14:52 | 52.34151 | 11.77337 | 89° | 13km/h | 26997m | 5.9m/s | -48.2°C | 2.9% | 19.9hPa | 2.6V | 03:32:20 | 02:24:12 | 00:00:00 | |
| HSKMA3-T | 2026-09-05 12:14:48 | 52.34152 | 11.77326 | 107° | 15km/h | 26985m | 6.8m/s | -48.1°C | 0% | 19.9hPa | 2.7V | 03:32:53 | 02:24:10 | 00:00:00 | |
| DL1XH-15 | 2026-09-05 12:14:48 | 52.34153 | 11.77319 | 108° | 16km/h | 26979m | 6m/s | -48.1°C | 2.9% | 19.9hPa | 2.7V | 03:32:23 | 02:24:09 | 00:00:00 | |
| AA1-15 | 2026-09-05 12:14:45 | 52.34154 | 11.77309 | 83° | 9km/h | 26969m | 4.8m/s | -48°C | 0% | 20hPa | 2.6V | 03:32:53 | 02:24:07 | 00:00:00 | |
| DF8AY | 2026-09-05 12:14:43 | 52.34151 | 11.77305 | 360° | 11km/h | 26957m | 6m/s | -48°C | 0% | 20hPa | 2.7V | 03:32:53 | 02:24:05 | 00:00:00 | |
| DL1XH-west | 2026-09-05 12:14:42 | 52.34147 | 11.77305 | 357° | 16km/h | 26951m | 4.8m/s | -47.9°C | 0% | 20hPa | 2.7V | 03:32:53 | 02:24:04 | 00:00:00 | |
| DB0DAN | 2026-09-05 12:14:40 | 52.34138 | 11.77304 | 16° | 18km/h | 26941m | 6.7m/s | -47.9°C | 0.6% | 20.04hPa | 2.6V | 00:00:00 | 00:00:00 | 00:00:00 | |
| HSKMA3-T | 2026-09-05 12:14:38 | 52.34130 | 11.77295 | 50° | 20km/h | 26928m | 5.1m/s | -47.9°C | 0% | 20.1hPa | 2.7V | 03:32:53 | 02:24:00 | 00:00:00 | |
| DL1XH-15 | 2026-09-05 12:14:38 | 52.34127 | 11.77288 | 55° | 20km/h | 26924m | 5m/s | -47.7°C | 2.8% | 20.1hPa | 2.7V | 03:32:33 | 02:23:59 | 00:00:00 | |
| DO2SHX-10 | 2026-09-05 12:14:38 | 52.34130 | 11.77295 | 50° | 18km/h | 26929m | 5.1m/s | -47.8°C | 2.9% | 20.0hPa | 2.7V | 00:00:00 | 02:24:00 | 00:00:00 | |
| DO3MHA-11 | 2026-09-05 12:14:37 | 52.34127 | 11.77288 | 56° | 9km/h | 26924m | 4.9m/s | -47.7°C | 2.8% | 20.0hPa | 2.7V | 00:00:00 | 02:23:59 | 00:00:00 | |
| DL1NUX | 2026-09-05 12:14:35 | 52.34119 | 11.77274 | 7° | 5km/h | 26901m | 5.2m/s | -47.7°C | 2.8% | 20.2hPa | 2.7V | 03:32:37 | 02:23:55 | 00:00:00 | |
| AA1-15 | 2026-09-05 12:14:35 | 52.34122 | 11.77278 | 51° | 11km/h | 26913m | 5.9m/s | -47.8°C | 0% | 20.1hPa | 2.6V | 03:32:53 | 02:23:57 | 00:00:00 | |
| DF8AY | 2026-09-05 12:14:33 | 52.34119 | 11.77274 | 7° | 7km/h | 26901m | 5.2m/s | -47.7°C | 0% | 20.2hPa | 2.7V | 03:32:53 | 02:23:55 | 00:00:00 | |
| DL1XH-west | 2026-09-05 12:14:32 | 52.34117 | 11.77274 | 356° | 5km/h | 26896m | 5.8m/s | -47.8°C | 0% | 20.2hPa | 2.7V | 03:32:53 | 02:23:54 | 00:00:00 | |
| HSKMA3-T | 2026-09-05 12:14:27 | 52.34114 | 11.77275 | 304° | 7km/h | 26867m | 6.8m/s | -48°C | 0% | 20.3hPa | 2.7V | 03:32:53 | 02:23:49 | 00:00:00 | |
| DO3MHA-11 | 2026-09-05 12:14:27 | 52.34114 | 11.77275 | 305° | 9km/h | 26867m | 6.7m/s | -47.9°C | 3.0% | 20.2hPa | 2.7V | 00:00:00 | 02:23:49 | 00:00:00 | |
| DB0DAN | 2026-09-05 12:14:25 | 52.34111 | 11.77282 | 308° | 11km/h | 26854m | 5.3m/s | -47.8°C | 0.6% | 20.31hPa | 2.6V | 00:00:00 | 00:00:00 | 00:00:00 | |
| DL1XH1-15 | 2026-09-05 12:14:25 | 52.34103 | 11.77279 | 87° | 7km/h | 26827m | 4m/s | -47.8°C | 2.9% | 20.4hPa | 2.7V | 03:32:50 | 02:23:42 | 00:00:00 | |
| DL1NUX | 2026-09-05 12:14:25 | 52.34107 | 11.77287 | 355° | 9km/h | 26843m | 6.7m/s | -47.9°C | 2.9% | 20.4hPa | 2.6V | 03:32:47 | 02:23:45 | 00:00:00 | |
| AA1-15 | 2026-09-05 12:14:24 | 52.34109 | 11.77285 | 325° | 11km/h | 26849m | 5m/s | -47.9°C | 0% | 20.3hPa | 2.6V | 03:32:53 | 02:23:46 | 00:00:00 | |
| DL1XH-west | 2026-09-05 12:14:22 | 52.34105 | 11.77286 | 34° | 9km/h | 26837m | 6.3m/s | -47.8°C | 0% | 20.4hPa | 2.7V | 03:32:53 | 02:23:44 | 00:00:00 | |
| DL4BBY-15 | 2026-09-05 12:14:21 | 52.34103 | 11.77283 | 65° | 11km/h | 26832m | 4.5m/s | -47.9°C | 0% | 0hPa | 2.7V | 00:00:00 | 00:00:00 | 00:00:00 | |
| DO2SHX-10 | 2026-09-05 12:14:20 | 52.34103 | 11.77280 | 88° | 7km/h | 26827m | 3.9m/s | -47.8°C | 2.9% | 20.4hPa | 2.7V | 00:00:00 | 02:23:42 | 00:00:00 | |
| GOEST3-10 | 2026-09-05 12:14:19 | 52.34103 | 11.77277 | 127° | 13km/h | 26822m | 5.8m/s | -47.8°C | 2.9% | 20.4hPa | 2.7V | 00:00:00 | 02:23:41 | 00:00:00 | |
| DL1XH-15 | 2026-09-05 12:14:18 | 52.34106 | 11.77279 | 216° | 13km/h | 26809m | 5.9m/s | -47.8°C | 2.8% | 20.5hPa | 2.7V | 03:32:53 | 02:23:39 | 00:00:00 | |
| HSKMA3-T | 2026-09-05 12:14:17 | 52.34110 | 11.77283 | 223° | 18km/h | 26804m | 5.5m/s | -47.8°C | 0% | 20.5hPa | 2.7V | 03:33:44 | 02:23:38 | 00:00:00 | |
| DO2SHX-10 | 2026-09-05 12:14:17 | 52.34106 | 11.77279 | 217° | 16km/h | 26810m | 5.9m/s | -47.7°C | 2.8% | 20.4hPa | 2.6V | 03:32:00 | 02:23:39 | 00:00:00 | |
| SONCRA | 2026-09-05 12:14:16 | 52.34110 | 11.77283 | 222° | 16km/h | 26804m | 5.5m/s | -47.8°C | 0.6% | 20.5hPa | 2.6V | 00:00:00 | 00:00:00 | 00:00:00 | |
| DL1NUX | 2026-09-05 12:14:15 | 52.34117 | 11.77296 | 239° | 7km/h | 26786m | 5.9m/s | -47.8°C | 2.8% | 20.5hPa | 2.6V | 03:32:57 | 02:23:35 | 00:00:00 | |
| AA1-15 | 2026-09-05 12:14:14 | 52.34115 | 11.77292 | 229° | 13km/h | 26793m | 6.4m/s | -47.8°C | 0% | 20.5hPa | 2.6V | 03:33:44 | 02:23:36 | 00:00:00 | |
| DO2SHX-10 | 2026-09-05 12:14:14 | 52.34115 | 11.77292 | 230° | 7km/h | 26793m | 6.4m/s | -47.8°C | 2.8% | 20.5hPa | 2.7V | 00:00:00 | 02:23:36 | 00:00:00 | |
| DF8AY-15 | 2026-09-05 12:14:13 | 52.34117 | 11.77295 | 240° | 9km/h | 26787m | 5.9m/s | -47.8°C | 2.8% | 20.5hPa | 2.7V | 00:00:00 | 02:23:35 | 00:00:00 | |
| DL1XH-15 | 2026-09-05 12:14:12 | 52.34104 | 11.77296 | 55° | 7km/h | 26746m | 6.8m/s | -47.6°C | 2.9% | 20.7hPa | 2.7V | 03:33:04 | 02:23:28 | 00:00:00 | |
| DL1XH-west | 2026-09-05 12:14:11 | 52.34116 | 11.77298 | 358° | 7km/h | 26775m | 6.2m/s | -47.7°C | 0% | 20.6hPa | 2.7V | 03:33:44 | 02:23:33 | 00:00:00 | |
| DB0DAN | 2026-09-05 12:14:10 | 52.34113 | 11.77298 | 355° | 9km/h | 26768m | 6.9m/s | -47.7°C | 0.6% | 20.6hPa | 2.7V | 00:00:00 | 00:00:00 | 00:00:00 | |
| HSKMA3-T | 2026-09-05 12:14:06 | 52.34103 | 11.77293 | 88° | 11km/h | 26739m | 7.2m/s | -47.5°C | 0% | 20.7hPa | 2.7V | 03:33:44 | 02:23:27 | 00:00:00 | |
| DL1XH1-15 | 2026-09-05 12:14:05 | 52.34110 | 11.77283 | 219° | 5km/h | 26708m | 5.1m/s | -47.6°C | 2.9% | 20.8hPa | 2.7V | 03:33:10 | 02:23:22 | 00:00:00 | |
| DL1NUX | 2026-09-05 12:14:05 | 52.34105 | 11.77285 | 124° | 11km/h | 26726m | 5.5m/s | -47.5°C | 2.9% | 20.7hPa | 2.6V | 03:33:07 | 02:23:25 | 00:00:00 | |
| AA1-15 | 2026-09-05 12:14:03 | 52.34105 | 11.77285 | 125° | 11km/h | 26726m | 5.5m/s | -47.5°C | 0% | 20.7hPa | 2.6V | 03:33:44 | 02:23:25 | 00:00:00 | |
| DL1XH-west | 2026-09-05 12:14:00 | 52.34110 | 11.77282 | 219° | 5km/h | 26708m | 5.1m/s | -47.6°C | 0% | 20.8hPa | 2.7V | 03:33:44 | 02:23:22 | 00:00:00 | |
| DO2SHX-10 | 2026-09-05 12:13:59 | 52.34110 | 11.77284 | 274° | 5km/h | 26704m | 5.8m/s | -47.7°C | 2.8% | 20.7hPa | 2.6V | 00:00:00 | 02:23:21 | 00:00:00 | |
| DL1XH-15 | 2026-09-05 12:13:58 | 52.34108 | 11.77283 | 25° | 11km/h | 26690m | 6.6m/s | -47.9°C | 2.8% | 20.8hPa | 2.6V | 03:33:13 | 02:23:19 | 00:00:00 | |
| EDDB2-12 | 2026-09-05 12:13:56 | 52.34104 | 11.77280 | 24° | 15km/h | 26684m | 5.5m/s | -47.9°C | 0.6% | 20.9hPa | 2.7V | 00:00:00 | 00:00:00 | 00:00:00 | |
| DB0DAN | 2026-09-05 12:13:55 | 52.34101 | 11.77277 | 22° | 16km/h | 26678m | 6.7m/s | -47.9°C | 0.6% | 20.86hPa | 2.7V | 00:00:00 | 00:00:00 | 00:00:00 | |
| DL1XH1-15 | 2026-09-05 12:13:55 | 52.34083 | 11.77259 | 61° | 18km/h | 26647m | 6.2m/s | -47.8°C | 2.9% | 20.9hPa | 2.7V | 03:33:20 | 02:23:12 | 00:00:00 | |
| DL1NUX | 2026-09-05 12:13:55 | 52.34093 | 11.77273 | 22° | 16km/h | 26665m | 5m/s | -48°C | 2.8% | 20.9hPa | 2.6V | 03:33:17 | 02:23:15 | 00:00:00 | |
| HSKMA3-T | 2026-09-05 12:13:54 | 52.34097 | 11.77275 | 19° | 16km/h | 26671m | 6.6m/s | -48°C | 0% | 20.9hPa | 2.7V | 03:33:44 | 02:23:16 | 00:00:00 | |
| AA1-15 | 2026-09-05 12:13:53 | 52.34093 | 11.77273 | 23° | 16km/h | 26665m | 5m/s | -48°C | 0% | 20.9hPa | 2.6V | 03:33:44 | 02:23:15 | 00:00:00 | |
| DF8AY-15 | 2026-09-05 12:13:53 | 52.34092 | 11.77273 | 23° | 11km/h | 26666m | 4.9m/s | -48.0°C | 2.8% | 20.9hPa | 2.6V | 03:33:00 | 02:23:15 | 00:00:00 | |
| DL4XJ-10 | 2026-09-05 12:13:52 | 52.34089 | 11.77269 | 35° | 11km/h | 26660m | 5.1m/s | -48.1°C | 0% | 0hPa | 2.6V | 00:00:00 | 00:00:00 | 00:00:00 | |
| DL1XH-15 | 2026-09-05 12:13:51 | 52.34081 | 11.77240 | 113° | 11km/h | 26629m | 7.1m/s | -47.6°C | 2.9% | 21hPa | 2.6V | 03:33:23 | 02:23:09 | 00:00:00 | |
| DL1XH-west | 2026-09-05 12:13:49 | 52.34081 | 11.77252 | 77° | 16km/h | 26642m | 5.1m/s | -47.7°C | 0% | 21hPa | 2.7V | 03:33:44 | 02:23:11 | 00:00:00 | |
| GOEST3-10 | 2026-09-05 12:13:48 | 52.34081 | 11.77245 | 93° | 11km/h | 26636m | 6.3m/s | -47.6°C | 2.9% | 20.9hPa | 2.7V | 00:00:00 | 02:23:10 | 00:00:00 | |
| DO2SHX-10 | 2026-09-05 12:13:47 | 52.34081 | 11.77240 | 114° | 9km/h | 26630m | 7.1m/s | -47.5°C | 2.9% | 21.0hPa | 2.7V | 00:00:00 | 02:23:09 | 00:00:00 | |
| DL1NUX | 2026-09-05 12:13:45 | 52.34087 | 11.77228 | 98° | 7km/h | 26604m | 6m/s | -47.5°C | 2.8% | 21.1hPa | 2.7V | 03:33:27 | 02:23:05 | 00:00:00 | |
| HSKMA3-T | 2026-09-05 12:13:43 | 52.34087 | 11.77228 | 98° | 7km/h | 26604m | 6m/s | -47.5°C | 0% | 21.1hPa | 2.7V | 03:33:44 | 02:23:05 | 00:00:00 | |
| DF8AY | 2026-09-05 12:13:42 | 52.34087 | 11.77225 | 68° | 7km/h | 26598m | 4.7m/s | -47.6°C | 0% | 21.1hPa | 2.6V | 03:33:44 | 02:23:04 | 00:00:00 | |
| DL1XH1-15 | 2026-09-05 12:13:42 | 52.34084 | 11.77222 | 11° | 5km/h | 26587m | 7.1m/s | -47.8°C | 2.9% | 21.1hPa | 2.7V | 03:33:30 | 02:23:02 | 00:00:00 | |
| DB0DAN | 2026-09-05 12:13:40 | 52.34084 | 11.77222 | 11° | 5km/h | 26587m | 7.1m/s | -47.8°C | 0.6% | 21.14hPa | 2.7V | 00:00:00 | 00:00:00 | 00:00:00 | |
| DL1XH-west | 2026-09-05 12:13:39 | 52.34083 | 11.77222 | 349° | 5km/h | 26580m | 6.4m/s | -47.8°C | 0% | 21.2hPa | 2.7V | 03:33:44 | 02:23:01 | 00:00:00 | |
| SO1NDE-10 | 2026-09-05 12:13:39 | 52.34083 | 11.77222 | 349° | 9km/h | 26580m | 6.3m/s | -47.7°C | 2.9% | 21.1hPa | 2.7V | 00:00:00 | 02:23:01 | 00:00:00 | |
| DO2SHX-10 | 2026-09-05 12:13:38 | 52.34081 | 11.77222 | 2° | 5km/h | 26575m | 4.7m/s | -47.8°C | 2.9% | 21.2hPa | 2.7V | 00:00:00 | 02:23:00 | 00:00:00 | |
| DL1XH1-15 | 2026-09-05 12:13:35 | 52.34095 | 11.77211 | 191° | 13km/h | 26526m | 6.5m/s | -47.8°C | 2.9% | 21.4hPa | 2.7V | 03:33:40 | 02:22:52 | 00:00:00 | |
| HSKMA3-T | 2026-09-05 12:13:33 | 52.34084 | 11.77210 | 162° | 13km/h | 26545m | 7.2m/s | -47.7°C | 0% | 21.3hPa | 2.6V | 03:33:44 | 02:22:55 | 00:00:00 | |
| DF8AY | 2026-09-05 12:13:32 | 52.34088 | 11.77209 | 183° | 15km/h | 26538m | 6.4m/s | -47.7°C | 0% | 21.3hPa | 2.6V | 03:33:44 | 02:22:54 | 00:00:00 | |
| DL4XJ-10 | 2026-09-05 12:13:32 | 52.34087 | 11.77209 | 184° | 11km/h | 26538m | 6.4m/s | -47.8°C | 0% | 0hPa | 2.7V | 00:00:00 | 00:00:00 | 00:00:00 | |
| DJ8HS-15 | 2026-09-05 12:13:31 | 52.34091 | 11.77210 | 192° | 11km/h | 26532m | 5.0m/s | -47.7°C | 2.8% | 21.3hPa | 2.7V | 00:00:00 | 02:22:53 | 00:00:00 | |
| S3001 | 2026-09-05 12:13:30 | 52.34098 | 11.77212 | 190° | 11km/h | 26520m | 6.7m/s | -47.8°C | 0.6% | 21.4hPa | 2.7V | 00:00:00 | 00:00:00 | 00:00:00 | |
| DO2SHX-10 | 2026-09-05 12:13:29 | 52.34098 | 11.77212 | 191° | 7km/h | 26520m | 6.7m/s | -47.7°C | 2.9% | 21.3hPa | 2.7V | 03:33:00 | 02:22:51 | 00:00:00 | |
| DO3MHA-11 | 2026-09-05 12:13:28 | 52.34100 | 11.77213 | 200° | 7km/h | 26514m | 5.1m/s | -47.6°C | 2.9% | 21.3hPa | 2.7V | 03:33:00 | 02:22:50 | 00:00:00 | |
| DL1XH-west | 2026-09-05 12:13:28 | 52.34100 | 11.77213 | 200° | 7km/h | 26513m | 5.2m/s | -47.7°C | 0% | 21.4hPa | 2.7V | 03:33:44 | 02:22:50 | 00:00:00 | |
| DL2RXE-15 | 2026-09-05 12:13:27 | 52.34100 | 11.77213 | 201° | 7km/h | 26514m | 5.2m/s | -47.7°C | 0.6% | 21.4hPa | 2.7V | 00:00:00 | 00:00:00 | 00:00:00 | |
| DB0DAN | 2026-09-05 12:13:25 | 52.34102 | 11.77220 | 261° | 9km/h | 26495m | 5.9m/s | -47.4°C | 0.6% | 21.44hPa | 2.7V | 00:00:00 | 00:00:00 | 00:00:00 | |
| DL1XH1-15 | 2026-09-05 12:13:25 | 52.34109 | 11.77219 | 150° | 16km/h | 26466m | 5.5m/s | -47.5°C | 2.8% | 21.6hPa | 2.6V | 03:33:50 | 02:22:42 | 00:00:00 | |
| DL1NUX | 2026-09-05 12:13:25 | 52.34103 | 11.77225 | 213° | 4km/h | 26484m | 6.7m/s | -47.5°C | 2.8% | 21.5hPa | 2.7V | 03:33:47 | 02:22:45 | 00:00:00 | |
| HSKMA3-T | 2026-09-05 12:13:22 | 52.34104 | 11.77225 | 143° | 7km/h | 26478m | 6.9m/s | -47.5°C | 0% | 21.5hPa | 2.6V | 03:34:35 | 02:22:44 | 00:00:00 | |
| DF8AY | 2026-09-05 12:13:21 | 52.34107 | 11.77223 | 142° | 13km/h | 26472m | 5.4m/s | -47.5°C | 0% | 21.5hPa | 2.6V | 03:34:35 | 02:22:43 | 00:00:00 | |
| DL1XH-west | 2026-09-05 12:13:17 | 52.34122 | 11.77213 | 170° | 16km/h | 26448m | 5m/s | -47.5°C | 0% | 21.6hPa | 2.7V | 03:34:35 | 02:22:39 | 00:00:00 | |
| DO2SHX-10 | 2026-09-05 12:13:17 | 52.34122 | 11.77213 | 171° | 13km/h | 26448m | 5.0m/s | -47.4°C | 2.8% | 21.5hPa | 2.7V | 03:33:00 | 02:22:39 | 00:00:00 | |
| DL1XH1-15 | 2026-09-05 12:13:15 | 52.34131 | 11.77203 | 115° | 2km/h | 26406m | 4.9m/s | -47.6°C | 2.8% | 21.8hPa | 2.7V | 03:34:00 | 02:22:32 | 00:00:00 | |
| DL1NUX | 2026-09-05 12:13:15 | 52.34131 | 11.77205 | 96° | 5km/h | 26424m | 5.9m/s | -47.7°C | 2.9% | 21.7hPa | 2.7V | 03:33:57 | 02:22:35 | 00:00:00 | |
| AA1-15 | 2026-09-05 12:13:11 | 52.34131 | 11.77204 | 115° | 0km/h | 26411m | 5.6m/s | -47.6°C | 0% | 21.8hPa | 2.6V | 03:34:35 | 02:22:33 | 00:00:00 | |
| DB0DAN | 2026-09-05 12:13:10 | 52.34131 | 11.77203 | 116° | 2km/h | 26406m | 4.9m/s | -47.6°C | 0.6% | 21.75hPa | 2.7V | 00:00:00 | 00:00:00 | 00:00:00 | |
| SO1NDE-10 | 2026-09-05 12:13:09 | 52.34131 | 11.77201 | 97° | 13km/h | 26401m | 6.3m/s | -47.6°C | 2.8% | 21.7hPa | 2.7V | 03:34:00 | 02:22:31 | 00:00:00 | |
| DM0DOS-11 | 2026-09-05 12:13:08 | 52.34143 | 11.77177 | 162° | 16km/h | 26364m | 5.4m/s | -47.6°C | 2.8% | 21.9hPa | 2.7V | 03:34:07 | 02:22:25 | 00:00:00 | |
| DL1XH-west | 2026-09-05 12:13:06 | 52.34134 | 11.77188 | 122° | 15km/h | 26383m | 4.6m/s | -47.7°C | 0% | 21.8hPa | 2.6V | 03:34:35 | 02:22:28 | 00:00:00 | |
| HSKMA3-T | 2026-09-05 12:13:01 | 52.34151 | 11.77173 | 152° | 15km/h | 26352m | 6.7m/s | -47.8°C | 0% | 21.9hPa | 2.6V | 03:34:35 | 02:22:23 | 00:00:00 | |
| DL1XH-15 | 2026-09-05 12:13:01 | 52.34161 | 11.77162 | 163° | 9km/h | 26328m | 6.6m/s | -47.9°C | 2.9% | 22hPa | 2.7V | 03:34:13 | 02:22:19 | 00:00:00 | |
| AA1-15 | 2026-09-05 12:13:00 | 52.34154 | 11.77170 | 140° | 13km/h | 26346m | 5.3m/s | -47.8°C | 0% | 21.9hPa | 2.6V | 03:34:35 | 02:22:22 | 00:00:00 | |
| S3001 | 2026-09-05 12:12:59 | 52.34158 | 11.77164 | 148° | 9km/h | 26335m | 6.5m/s | -47.9°C | 0.6% | 21.9hPa | 2.7V | 00:00:00 | 00:00:00 | 00:00:00 | |
| SONDE2-11 | 2026-09-05 12:12:58 | 52.34158 | 11.77164 | 148° | 9km/h | 26335m | 6.5m/s | -47.9°C | 0.6% | 21.9hPa | 2.7V | 00:00:00 | 00:00:00 | 00:00:00 | |
| DM0DOS-11 | 2026-09-05 12:12:57 | 52.34168 | 11.77153 | 114° | 13km/h | 26304m | 6.5m/s | -47.6°C | 2.9% | 22.1hPa | 2.7V | 03:34:17 | 02:22:15 | 00:00:00 | |
| GOEST3-10 | 2026-09-05 12:12:57 | 52.34160 | 11.77162 | 164° | 11km/h | 26329m | 6.6m/s | -47.8°C | 2.9% | 21.9hPa | 2.6V | 00:00:00 | 02:22:19 | 00:00:00 | |
| DB0DAN | 2026-09-05 12:12:55 | 52.34165 | 11.77160 | 150° | 7km/h | 26317m | 5.4m/s | -47.8°C | 0.6% | 22.06hPa | 2.6V | 00:00:00 | 00:00:00 | 00:00:00 | |
| DL1XH-west | 2026-09-05 12:12:55 | 52.34165 | 11.77160 | 151° | 9km/h | 26317m | 5.4m/s | -47.8°C | 0% | 22.1hPa | 2.6V | 03:34:35 | 02:22:17 | 00:00:00 | |
| DL1XH1-15 | 2026-09-05 12:12:55 | 52.34174 | 11.77137 | 134° | 16km/h | 26287m | 6.6m/s | -47.6°C | 2.9% | 22.1hPa | 2.6V | 03:34:20 | 02:22:12 | 00:00:00 | |
| DF8AY | 2026-09-05 12:12:54 | 52.34177 | 11.77133 | 152° | 16km/h | 26280m | 6.2m/s | -47.6°C | 0% | 22.2hPa | 2.6V | 03:34:35 | 02:22:11 | 00:00:00 | |
| HSKMA3-T | 2026-09-05 12:12:51 | 52.34171 | 11.77142 | 120° | 16km/h | 26293m | 5.4m/s | -47.6°C | 0% | 22.1hPa | 2.7V | 03:34:35 | 02:22:13 | 00:00:00 | |
| AA1-15 | 2026-09-05 12:12:50 | 52.34174 | 11.77137 | 134° | 16km/h | 26287m | 6.6m/s | -47.6°C | 0% | 22.1hPa | 2.6V | 03:34:35 | 02:22:12 | 00:00:00 | |
| DO2SHX-10 | 2026-09-05 12:12:50 | 52.34174 | 11.77137 | 135° | 16km/h | 26287m | 6.5m/s | -47.6°C | 2.9% | 22.1hPa | 2.6V | 00:00:00 | 02:22:12 | 00:00:00 | |
| DL1XH-15 | 2026-09-05 12:12:49 | 52.34186 | 11.77128 | 160° | 18km/h | 26269m | 4.9m/s | -47.6°C | 2.9% | 22.2hPa | 2.7V | 03:34:23 | 02:22:09 | 00:00:00 | |
| DM0DOS-11 | 2026-09-05 12:12:47 | 52.34198 | 11.77113 | 117° | 11km/h | 26247m | 5.2m/s | -47.6°C | 2.8% | 22.3hPa | 2.7V | 03:34:27 | 02:22:05 | 00:00:00 | |
| DO2SHX-10 | 2026-09-05 12:12:47 | 52.34186 | 11.77127 | 161° | 16km/h | 26270m | 4.8m/s | -47.6°C | 2.9% | 22.2hPa | 2.6V | 00:00:00 | 02:22:09 | 00:00:00 | |
| DC6BW-12 | 2026-09-05 12:12:46 | 52.34186 | 11.77127 | 162° | 18km/h | 26270m | 4.9m/s | -47.6°C | 0% | 0hPa | 2.6V | 03:34:00 | 00:00:00 | 00:00:00 | |
| DL1XH1-15 | 2026-09-05 12:12:45 | 52.34200 | 11.77110 | 247° | 4km/h | 26229m | 5.8m/s | -47.7°C | 2.9% | 22.3hPa | 2.6V | 03:34:30 | 02:22:02 | 00:00:00 | |
| DL1XH-west | 2026-09-05 12:12:44 | 52.34196 | 11.77117 | 126° | 13km/h | 26252m | 5.2m/s | -47.6°C | 0% | 22.3hPa | 2.7V | 03:34:35 | 02:22:06 | 00:00:00 | |
| DF8AY | 2026-09-05 12:12:43 | 52.34200 | 11.77113 | 275° | 2km/h | 26217m | 6m/s | -47.5°C | 0% | 22.4hPa | 2.7V | 03:34:35 | 02:22:00 | 00:00:00 | |
| DB0UT-7 | 2026-09-05 12:12:43 | 52.34197 | 11.77113 | 118° | 13km/h | 26247m | 5.2m/s | -47.6°C | 2.8% | 22.3hPa | 2.6V | 00:00:00 | 00:00:00 | 00:00:00 | |
| GOEST3-10 | 2026-09-05 12:12:42 | 52.34199 | 11.77110 | 128° | 4km/h | 26241m | 5.9m/s | -47.6°C | 2.8% | 22.2hPa | 2.6V | 00:00:00 | 00:00:00 | 00:00:00 | |
| DB0DAN | 2026-09-05 12:12:40 | 52.34200 | 11.77110 | 247° | 4km/h | 26229m | 5.8m/s | -47.7°C | 0.6% | 22.35hPa | 2.6V | 00:00:00 | 00:00:00 | 00:00:00 | |
| AA1-15 | 2026-09-05 12:12:40 | 52.34200 | 11.77110 | 248° | 4km/h | 26229m | 5.8m/s | -47.7°C | 0% | 22.4hPa | 2.6V | 03:34:35 | 02:22:02 | 00:00:00 | |
| SO1NDE-10 | 2026-09-05 12:12:39 | 52.34200 | 11.77112 | 258° | 13km/h | 26223m | 5.4m/s | -47.5°C | 2.9% | 22.3hPa | 2.6V | 00:00:00 | 02:22:01 | 00:00:00 | |
| DL1XH-15 | 2026-09-05 12:12:38 | 52.34200 | 11.77113 | 71° | 4km/h | 26211m | 6.2m/s | -47.5°C | 2.8% | 22.4hPa | 2.7V | 03:34:33 | 02:21:59 | 00:00:00 | |
| DO2SHX-10 | 2026-09-05 12:12:38 | 52.34200 | 11.77113 | 276° | 5km/h | 26218m | 6.0m/s | -47.4°C | 2.8% | 22.3hPa | 2.7V | 00:00:00 | 02:22:00 | 00:00:00 | |
| DM0DOS-11 | 2026-09-05 12:12:37 | 52.34205 | 11.77094 | 131° | 18km/h | 26189m | 6.8m/s | -47.4°C | 2.9% | 22.5hPa | 2.7V | 03:34:37 | 02:21:55 | 00:00:00 | |
| GOEST3-10 | 2026-09-05 12:12:37 | 52.34200 | 11.77112 | 72° | 13km/h | 26212m | 6.1m/s | -47.4°C | 2.8% | 22.3hPa | 2.7V | 00:00:00 | 02:21:59 | 00:00:00 | |
| AP2371 | 2026-09-05 12:12:36 | 52.34200 | 11.77110 | 95° | 9km/h | 26206m | 5.5m/s | 0°C | 0% | 0hPa | 2.6V | 00:00:00 | 00:00:00 | 00:00:00 | |
| DL1XH1-15 | 2026-09-05 12:12:35 | 52.34215 | 11.77077 | 123° | 18km/h | 26172m | 6.8m/s | -47.5°C | 2.9% | 22.5hPa | 2.6V | 03:34:40 | 02:21:52 | 00:00:00 | |
| DL1XH-west | 2026-09-05 12:12:33 | 52.34205 | 11.77094 | 132° | 18km/h | 26189m | 6.8m/s | -47.4°C | 0% | 22.5hPa | 2.7V | 03:35:26 | 02:21:55 | 00:00:00 | |
| AA1-15 | 2026-09-05 12:12:30 | 52.34215 | 11.77077 | 124° | 18km/h | 26172m | 6.8m/s | -47.5°C | 0% | 22.5hPa | 2.6V | 03:35:26 | 02:21:52 | 00:00:00 | |
| DL4XJ-10 | 2026-09-05 12:12:30 | 52.34215 | 11.77077 | 124° | 15km/h | 26172m | 6.7m/s | -47.7°C | 0% | 0hPa | 2.7V | 00:00:00 | 00:00:00 | 00:00:00 | |
| DL1XH-15 | 2026-09-05 12:12:29 | 52.34218 | 11.77061 | 97° | 9km/h | 26153m | 6m/s | -47.4°C | 2.9% | 22.6hPa | 2.7V | 03:34:43 | 02:21:49 | 00:00:00 | |
| DF8AY | 2026-09-05 12:12:28 | 52.34218 | 11.77065 | 97° | 13km/h | 26159m | 5.1m/s | -47.4°C | 0% | 22.6hPa | 2.7V | 03:35:26 | 02:21:50 | 00:00:00 | |
| S3001 | 2026-09-05 12:12:28 | 52.34218 | 11.77061 | 97° | 7km/h | 26154m | 6.0m/s | -47.4°C | 0.6% | 22.6hPa | 2.7V | 00:00:00 | 00:00:00 | 00:00:00 | |
| DM0DOS-11 | 2026-09-05 12:12:27 | 52.34221 | 11.77049 | 110° | 11km/h | 26129m | 7.2m/s | -47.5°C | 2.9% | 22.7hPa | 2.7V | 03:34:47 | 02:21:45 | 00:00:00 | |
| GOEST3-10 | 2026-09-05 12:12:27 | 52.34218 | 11.77061 | 98° | 9km/h | 26154m | 5.9m/s | -47.4°C | 2.9% | 22.5hPa | 2.6V | 00:00:00 | 02:21:49 | 00:00:00 | |
| DB0DAN | 2026-09-05 12:12:25 | 52.34219 | 11.77055 | 128° | 5km/h | 26141m | 5.6m/s | -47.5°C | 0.6% | 22.64hPa | 2.6V | 00:00:00 | 00:00:00 | 00:00:00 | |
| DL1XH1-15 | 2026-09-05 12:12:25 | 52.34226 | 11.77030 | 119° | 20km/h | 26111m | 5.6m/s | -47.3°C | 2.9% | 22.8hPa | 2.6V | 03:34:50 | 02:21:42 | 00:00:00 | |
| DL1XH-west | 2026-09-05 12:12:23 | 52.34221 | 11.77049 | 111° | 11km/h | 26129m | 7.2m/s | -47.5°C | 0% | 22.7hPa | 2.7V | 03:35:26 | 02:21:45 | 00:00:00 | |
| HSKMA3-T | 2026-09-05 12:12:19 | 52.34229 | 11.77023 | 128° | 22km/h | 26105m | 6.8m/s | -47.3°C | 0% | 22.8hPa | 2.6V | 03:35:26 | 02:21:41 | 00:00:00 | |
| AM1SDL-15 | 2026-09-05 12:12:18 | 52.34232 | 11.77016 | 133° | 13km/h | 26099m | 5.8m/s | -47.2°C | 2.9% | 22.7hPa | 2.7V | 00:00:00 | 02:21:40 | 00:00:00 | |
| DF8AY | 2026-09-05 12:12:17 | 52.34280 | 11.76916 | 126° | 9km/h | 25963m | 4.6m/s | -47.6°C | 0% | 23.3hPa | 2.7V | 03:35:26 | 02:21:17 | 00:00:00 | |
| DL1XH-west | 2026-09-05 12:12:12 | 52.34240 | 11.76984 | 95° | 7km/h | 26064m | 6.5m/s | -47.3°C | 0% | 22.9hPa | 2.7V | 03:35:26 | 02:21:34 | 00:00:00 | |
| DF7ER-10 | 2026-09-05 12:12:12 | 52.34240 | 11.76984 | 96° | 7km/h | 26064m | 6.5m/s | -47.3°C | 0.6% | 22.9hPa | 2.7V | 03:35:00 | 00:00:00 | 00:00:00 | |
| DB0DAN | 2026-09-05 12:12:10 | 52.34242 | 11.76980 | 147° | 7km/h | 26052m | 5.6m/s | -47.4°C | 0.6% | 22.95hPa | 2.7V | 00:00:00 | 00:00:00 | 00:00:00 | |
| HSKMA3-T | 2026-09-05 12:12:08 | 52.34246 | 11.76975 | 135° | 13km/h | 26040m | 6.8m/s | -47.6°C | 0% | 23hPa | 2.6V | 03:35:26 | 02:21:30 | 00:00:00 | |
| DL1XH-15 | 2026-09-05 12:12:08 | 52.34248 | 11.76970 | 128° | 15km/h | 26034m | 6.2m/s | -47.6°C | 2.7% | 23hPa | 2.7V | 03:35:03 | 02:21:29 | 00:00:00 | |
| DF8AY | 2026-09-05 12:12:06 | 52.34281 | 11.76913 | 121° | 9km/h | 25959m | 4.7m/s | -47.6°C | 0% | 23.3hPa | 2.6V | 03:35:26 | 02:21:16 | 00:00:00 | |
| DL1XH1-15 | 2026-09-05 12:12:05 | 52.34275 | 11.76937 | 127° | 16km/h | 25993m | 6.9m/s | -47.6°C | 2.8% | 23.1hPa | 2.6V | 03:35:10 | 02:21:22 | 00:00:00 | |
| DL1XH-west | 2026-09-05 12:12:01 | 52.34272 | 11.76942 | 143° | 18km/h | 25999m | 5.9m/s | -47.6°C | 0% | 23.2hPa | 2.7V | 03:35:26 | 02:21:23 | 00:00:00 | |
| HSKMA3-T | 2026-09-05 12:11:58 | 52.34277 | 11.76927 | 102° | 13km/h | 25981m | 5.5m/s | -47.5°C | 0% | 23.2hPa | 2.6V | 03:35:26 | 02:21:20 | 00:00:00 | |
| DL1XH-15 | 2026-09-05 12:11:58 | 52.34278 | 11.76922 | 105° | 9km/h | 25974m | 6.7m/s | -47.5°C | 2.8% | 23.2hPa | 2.7V | 03:35:13 | 02:21:19 | 00:00:00 | |
| AA1-15 | 2026-09-05 12:11:57 | 52.34278 | 11.76922 | 106° | 9km/h | 25974m | 6.7m/s | -47.5°C | 0% | 23.2hPa | 2.7V | 03:35:26 | 02:21:19 | 00:00:00 | |
| S3001 | 2026-09-05 12:11:57 | 52.34279 | 11.76919 | 115° | 7km/h | 25968m | 5.8m/s | -47.5°C | 0.6% | 23.2hPa | 2.7V | 00:00:00 | 00:00:00 | 00:00:00 | |
| SONDE2-11 | 2026-09-05 12:11:56 | 52.34279 | 11.76919 | 115° | 7km/h | 25968m | 5.8m/s | -47.5°C | 0.6% | 23.2hPa | 2.7V | 00:00:00 | 00:00:00 | 00:00:00 | |
| DB0DAN | 2026-09-05 12:11:55 | 52.34280 | 11.76916 | 126° | 7km/h | 25963m | 4.6m/s | -47.6°C | 0.6% | 23.26hPa | 2.7V | 00:00:00 | 00:00:00 | 00:00:00 | |
| DL1ZP-14 | 2026-09-05 12:11:55 | 52.34281 | 11.76913 | 120° | 9km/h | 25959m | 4.7m/s | -47.6°C | 0.6% | 23.3hPa | 2.6V | 00:00:00 | 00:00:00 | 00:00:00 | |
| DL1XH1-15 | 2026-09-05 12:11:54 | 52.34285 | 11.76890 | 109° | 18km/h | 25936m | 4.8m/s | -47.6°C | 2.8% | 23.4hPa | 2.6V | 03:35:20 | 02:21:12 | 00:00:00 | |
| DO2SHX-10 | 2026-09-05 12:11:53 | 52.34282 | 11.76909 | 111° | 15km/h | 25953m | 6.3m/s | -47.6°C | 2.7% | 23.2hPa | 2.7V | 03:35:00 | 02:21:15 | 00:00:00 | |
| GOEST3-10 | 2026-09-05 12:11:52 | 52.34283 | 11.76903 | 103° | 16km/h | 25947m | 6.5m/s | -47.7°C | 2.8% | 23.2hPa | 2.7V | 03:35:00 | 00:00:00 | 00:00:00 | |
| DF7ER-10 | 2026-09-05 12:11:51 | 52.34284 | 11.76897 | 104° | 18km/h | 25941m | 5.4m/s | -47.6°C | 0.7% | 23.3hPa | 2.7V | 03:35:00 | 00:00:00 | 00:00:00 | |
| DL1XH-15 | 2026-09-05 12:11:50 | 52.34293 | 11.76874 | 147° | 15km/h | 25918m | 5.7m/s | -47.8°C | 2.9% | 23.4hPa | 2.7V | 03:35:23 | 02:21:09 | 00:00:00 | |
| DL1XH-west | 2026-09-05 12:11:50 | 52.34285 | 11.76889 | 110° | 18km/h | 25936m | 4.8m/s | -47.6°C | 0% | 23.4hPa | 2.6V | 03:35:26 | 02:21:12 | 00:00:00 | |
| HSKMA3-T | 2026-09-05 12:11:48 | 52.34290 | 11.76878 | 135° | 16km/h | 25924m | 6.4m/s | -47.8°C | 0% | 23.4hPa | 2.7V | 03:35:26 | 02:21:10 | 00:00:00 | |
| AA1-15 | 2026-09-05 12:11:47 | 52.34293 | 11.76874 | 147° | 15km/h | 25918m | 5.7m/s | -47.8°C | 0% | 23.4hPa | 2.7V | 03:35:26 | 02:21:09 | 00:00:00 | |
| DO2SHX-10 | 2026-09-05 12:11:47 | 52.34293 | 11.76873 | 148° | 13km/h | 25918m | 5.6m/s | -47.8°C | 2.9% | 23.4hPa | 2.7V | 00:00:00 | 02:21:09 | 00:00:00 | |
| DL1NUX | 2026-09-05 12:11:46 | 52.34299 | 11.76860 | 90° | 13km/h | 25895m | 5.7m/s | -48°C | 2.9% | 23.5hPa | 2.6V | 03:35:27 | 02:21:05 | 00:00:00 | |
| DL1XH1-15 | 2026-09-05 12:11:45 | 52.34299 | 11.76844 | 100° | 11km/h | 25878m | 6.2m/s | -48.3°C | 2.8% | 23.5hPa | 2.7V | 03:35:30 | 02:21:02 | 00:00:00 | |
| DF8AY | 2026-09-05 12:11:43 | 52.34300 | 11.76860 | 90° | 13km/h | 25895m | 5.7m/s | -48°C | 0% | 23.5hPa | 2.6V | 03:36:17 | 02:21:05 | 00:00:00 | |
| DB0UT-7 | 2026-09-05 12:11:43 | 52.34299 | 11.76860 | 91° | 15km/h | 25896m | 5.6m/s | -48.0°C | 2.9% | 23.5hPa | 2.7V | 00:00:00 | 00:00:00 | 00:00:00 | |
| DC6BW-12 | 2026-09-05 12:11:42 | 52.34299 | 11.76860 | 91° | 13km/h | 25896m | 5.7m/s | 0°C | 0% | 0hPa | 2.7V | 00:00:00 | 00:00:00 | 00:00:00 | |
| DB0DAN | 2026-09-05 12:11:40 | 52.34299 | 11.76844 | 100° | 11km/h | 25878m | 6.2m/s | -48.3°C | 0.6% | 23.55hPa | 2.7V | 00:00:00 | 00:00:00 | 00:00:00 | |
| DL1XH-west | 2026-09-05 12:11:39 | 52.34301 | 11.76835 | 105° | 11km/h | 25867m | 4.9m/s | -48.5°C | 0% | 23.6hPa | 2.6V | 03:36:17 | 02:21:00 | 00:00:00 | |
| DL1XH-15 | 2026-09-05 12:11:39 | 52.34301 | 11.76830 | 96° | 13km/h | 25861m | 6.7m/s | -48.6°C | 2.9% | 23.6hPa | 2.7V | 03:35:33 | 02:20:59 | 00:00:00 | |
| HSKMA3-T | 2026-09-05 12:11:37 | 52.34301 | 11.76830 | 97° | 13km/h | 25861m | 6.7m/s | -48.6°C | 0% | 23.6hPa | 2.7V | 03:36:17 | 02:20:59 | 00:00:00 | |
| AA1-15 | 2026-09-05 12:11:37 | 52.34302 | 11.76824 | 91° | 16km/h | 25855m | 6m/s | -48.6°C | 0% | 23.6hPa | 2.7V | 03:36:17 | 02:20:58 | 00:00:00 | |
| DL1NUX | 2026-09-05 12:11:36 | 52.34304 | 11.76804 | 112° | 16km/h | 25838m | 6.9m/s | -48.4°C | 3% | 23.7hPa | 2.7V | 03:35:37 | 02:20:55 | 00:00:00 | |
| DF8AY | 2026-09-05 12:11:32 | 52.34306 | 11.76798 | 121° | 16km/h | 25831m | 6.1m/s | -48.4°C | 0% | 23.7hPa | 2.7V | 03:36:17 | 02:20:54 | 00:00:00 | |
| DL1XH1-15 | 2026-09-05 12:11:32 | 52.34310 | 11.76785 | 114° | 20km/h | 25820m | 6.1m/s | -48.6°C | 2.9% | 23.7hPa | 2.6V | 03:35:40 | 02:20:52 | 00:00:00 | |
| DL1XH-west | 2026-09-05 12:11:30 | 52.34312 | 11.76777 | 106° | 20km/h | 25814m | 6.6m/s | -48.7°C | 0% | 23.8hPa | 2.6V | 03:36:17 | 02:20:51 | 00:00:00 | |
| HSKMA3-T | 2026-09-05 12:11:26 | 52.34314 | 11.76756 | 104° | 11km/h | 25797m | 6.5m/s | -48.7°C | 0% | 23.8hPa | 2.7V | 03:36:17 | 02:20:48 | 00:00:00 | |
| DL1NUX | 2026-09-05 12:11:26 | 52.34317 | 11.76751 | 170° | 4km/h | 25779m | 6m/s | -49°C | 3% | 23.9hPa | 2.6V | 03:35:47 | 02:20:45 | 00:00:00 | |
| AA1-15 | 2026-09-05 12:11:25 | 52.34315 | 11.76753 | 128° | 7km/h | 25791m | 6.6m/s | -48.9°C | 0% | 23.8hPa | 2.7V | 03:36:17 | 02:20:47 | 00:00:00 | |
| DD8BA-10 | 2026-09-05 12:11:25 | 52.34315 | 11.76753 | 128° | 9km/h | 25791m | 6.6m/s | -48.8°C | 2.9% | 23.8hPa | 2.6V | 03:35:00 | 00:00:00 | 00:00:00 | |
| DL1ZP-14 | 2026-09-05 12:11:24 | 52.34317 | 11.76751 | 170° | 4km/h | 25779m | 6.0m/s | -49.0°C | 0.7% | 23.9hPa | 2.6V | 00:00:00 | 00:00:00 | 00:00:00 | |
| DO2SHX-10 | 2026-09-05 12:11:23 | 52.34317 | 11.76751 | 171° | 5km/h | 25779m | 5.9m/s | -48.9°C | 3.0% | 23.8hPa | 2.7V | 00:00:00 | 02:20:45 | 00:00:00 | |
| DL1XH-15 | 2026-09-05 12:11:22 | 52.34327 | 11.76736 | 125° | 15km/h | 25745m | 4.5m/s | -48.9°C | 3% | 24hPa | 2.7V | 03:35:53 | 02:20:39 | 00:00:00 | |
| DF8AY | 2026-09-05 12:11:22 | 52.34318 | 11.76751 | 150° | 5km/h | 25773m | 6.4m/s | -48.9°C | 0% | 23.9hPa | 2.7V | 03:36:17 | 02:20:44 | 00:00:00 | |
| DL1XH-west | 2026-09-05 12:11:19 | 52.34323 | 11.76743 | 137° | 11km/h | 25756m | 6.4m/s | -49°C | 0% | 24hPa | 2.6V | 03:36:17 | 02:20:41 | 00:00:00 | |
| HSKMA3-T | 2026-09-05 12:11:16 | 52.34329 | 11.76730 | 114° | 18km/h | 25740m | 5.3m/s | -48.9°C | 0% | 24hPa | 2.7V | 03:36:17 | 02:20:38 | 00:00:00 | |
| AA1-15 | 2026-09-05 12:11:15 | 52.34331 | 11.76722 | 105° | 22km/h | 25734m | 7.1m/s | -48.9°C | 0% | 24.1hPa | 2.6V | 03:36:17 | 02:20:37 | 00:00:00 | |
| DD8BA-10 | 2026-09-05 12:11:15 | 52.34331 | 11.76722 | 106° | 16km/h | 25734m | 7.0m/s | -48.8°C | 3.0% | 24.0hPa | 2.6V | 00:00:00 | 00:00:00 | 00:00:00 | |
| DM0DOS-11 | 2026-09-05 12:11:14 | 52.34333 | 11.76701 | 99° | 27km/h | 25722m | 4.6m/s | -48.9°C | 2.9% | 24.1hPa | 2.6V | 03:35:57 | 02:20:35 | 00:00:00 | |
| DO2SHX-10 | 2026-09-05 12:11:14 | 52.34332 | 11.76712 | 99° | 27km/h | 25728m | 6.2m/s | -48.9°C | 3.0% | 24.0hPa | 2.7V | 00:00:00 | 02:20:36 | 00:00:00 | |
| DB0UT-7 | 2026-09-05 12:11:13 | 52.34333 | 11.76701 | 100° | 20km/h | 25722m | 4.6m/s | -48.9°C | 2.9% | 24.1hPa | 2.7V | 00:00:00 | 02:20:35 | 00:00:00 | |
| DL1XH-15 | 2026-09-05 12:11:12 | 52.34343 | 11.76670 | 145° | 4km/h | 25689m | 6.4m/s | -49.2°C | 3% | 24.2hPa | 2.7V | 03:36:03 | 02:20:29 | 00:00:00 | |
| DF8AY | 2026-09-05 12:11:11 | 52.34336 | 11.76682 | 110° | 20km/h | 25712m | 6.3m/s | -49.1°C | 0% | 24.1hPa | 2.7V | 03:36:17 | 02:20:33 | 00:00:00 | |
| DL1XH-west | 2026-09-05 12:11:09 | 52.34340 | 11.76672 | 143° | 9km/h | 25700m | 5.4m/s | -49.2°C | 0% | 24.2hPa | 2.6V | 03:36:17 | 02:20:31 | 00:00:00 | |
| HSKMA3-T | 2026-09-05 12:11:06 | 52.34343 | 11.76668 | 116° | 5km/h | 25683m | 5.4m/s | -49.2°C | 0% | 24.3hPa | 2.7V | 03:36:17 | 02:20:28 | 00:00:00 | |
| AA1-15 | 2026-09-05 12:11:04 | 52.34345 | 11.76663 | 119° | 9km/h | 25672m | 5.1m/s | -49.3°C | 0% | 24.3hPa | 2.6V | 03:36:17 | 02:20:26 | 00:00:00 | |
| DF8AY | 2026-09-05 12:11:00 | 52.34352 | 11.76639 | 107° | 26km/h | 25651m | 6.5m/s | -49.2°C | 0% | 24.4hPa | 2.6V | 03:36:17 | 02:20:22 | 00:00:00 | |
| DL1XH-15 | 2026-09-05 12:11:00 | 52.34357 | 11.76600 | 100° | 35km/h | 25634m | 4.1m/s | -49.6°C | 3% | 24.5hPa | 2.7V | 03:36:13 | 02:20:19 | 00:00:00 | |
| DL1XH-west | 2026-09-05 12:10:58 | 52.34355 | 11.76614 | 98° | 35km/h | 25638m | 4.9m/s | -49.4°C | 0% | 24.4hPa | 2.6V | 03:36:17 | 02:20:20 | 00:00:00 | |
| SMARD9-15 | 2026-09-05 12:10:58 | 52.34359 | 11.76587 | 107° | 33km/h | 25629m | 5.4m/s | -49.7°C | 0.6% | 24.5hPa | 2.6V | 00:00:00 | 00:00:00 | 00:00:00 | |
| GOEST3-10 | 2026-09-05 12:10:57 | 52.34357 | 11.76600 | 101° | 29km/h | 25634m | 4.0m/s | -49.5°C | 3.0% | 24.4hPa | 2.6V | 00:00:00 | 02:20:19 | 00:00:00 | |
| DL1NUX | 2026-09-05 12:10:56 | 52.34371 | 11.76559 | 141° | 24km/h | 25611m | 5.6m/s | -49.8°C | 3.1% | 24.5hPa | 2.6V | 03:36:17 | 02:20:15 | 00:00:00 | |
| DB0DAN | 2026-09-05 12:10:55 | 52.34362 | 11.76575 | 119° | 29km/h | 25623m | 6.5m/s | -49.8°C | 0.7% | 24.48hPa | 2.7V | 00:00:00 | 00:00:00 | 00:00:00 | |
| HSKMA3-T | 2026-09-05 12:10:55 | 52.34362 | 11.76575 | 119° | 29km/h | 25623m | 6.5m/s | -49.8°C | 0% | 24.5hPa | 2.7V | 03:36:17 | 02:20:17 | 00:00:00 | |
| DL1XH1-15 | 2026-09-05 12:10:55 | 52.34382 | 11.76543 | 125° | 16km/h | 25595m | 5.2m/s | -49.8°C | 3.1% | 24.6hPa | 2.6V | 03:36:20 | 02:20:12 | 00:00:00 | |
| AA1-15 | 2026-09-05 12:10:54 | 52.34366 | 11.76566 | 132° | 26km/h | 25617m | 5.6m/s | -49.8°C | 0% | 24.5hPa | 2.6V | 03:36:17 | 02:20:16 | 00:00:00 | |
| DF8AY | 2026-09-05 12:10:50 | 52.34382 | 11.76543 | 126° | 16km/h | 25595m | 5.2m/s | -49.8°C | 0% | 24.6hPa | 2.6V | 03:37:08 | 02:20:12 | 00:00:00 | |
| DO2SHX-10 | 2026-09-05 12:10:50 | 52.34382 | 11.76543 | 126° | 16km/h | 25595m | 5.1m/s | -49.7°C | 3.1% | 24.6hPa | 2.7V | 00:00:00 | 02:20:12 | 00:00:00 | |
| DL1LOL-11 | 2026-09-05 12:10:49 | 52.34382 | 11.76543 | 127° | 16km/h | 25595m | 5.2m/s | -49.8°C | 0.7% | 24.6hPa | 2.7V | 00:00:00 | 00:00:00 | 00:00:00 | |
| DL1XH-15 | 2026-09-05 12:10:48 | 52.34388 | 11.76525 | 117° | 18km/h | 25578m | 5.9m/s | -49.8°C | 3.2% | 24.7hPa | 2.7V | 03:36:23 | 02:20:09 | 00:00:00 | |
| DL1XH-west | 2026-09-05 12:10:47 | 52.34388 | 11.76525 | 117° | 18km/h | 25579m | 5.9m/s | -49.8°C | 0% | 24.7hPa | 2.7V | 03:37:08 | 02:20:09 | 00:00:00 | |
| DO2SHX-10 | 2026-09-05 12:10:47 | 52.34388 | 11.76525 | 118° | 18km/h | 25579m | 5.8m/s | -49.7°C | 3.2% | 24.6hPa | 2.6V | 00:00:00 | 02:20:09 | 00:00:00 | |
| DL1NUX | 2026-09-05 12:10:46 | 52.34394 | 11.76494 | 93° | 22km/h | 25557m | 6.7m/s | -49.8°C | 3.2% | 24.7hPa | 2.6V | 03:36:27 | 02:20:05 | 00:00:00 | |
| DL1XH1-15 | 2026-09-05 12:10:45 | 52.34394 | 11.76469 | 98° | 18km/h | 25541m | 5.2m/s | -49.9°C | 3.1% | 24.8hPa | 2.7V | 03:36:30 | 02:20:02 | 00:00:00 | |
| HSKMA3-T | 2026-09-05 12:10:44 | 52.34394 | 11.76503 | 101° | 22km/h | 25564m | 5m/s | -49.9°C | 0% | 24.7hPa | 2.6V | 03:37:08 | 02:20:06 | 00:00:00 | |
| DO2SHX-10 | 2026-09-05 12:10:44 | 52.34394 | 11.76503 | 102° | 22km/h | 25564m | 5.0m/s | -49.8°C | 3.2% | 24.7hPa | 2.6V | 00:00:00 | 02:20:06 | 00:00:00 | |
| DB0UT-7 | 2026-09-05 12:10:43 | 52.34394 | 11.76494 | 94° | 18km/h | 25558m | 6.6m/s | -49.7°C | 3.2% | 24.7hPa | 2.6V | 00:00:00 | 00:00:00 | 00:00:00 | |
| DL1XH-15 | 2026-09-05 12:10:42 | 52.34401 | 11.76453 | 140° | 15km/h | 25524m | 5.2m/s | -49.8°C | 3.2% | 24.9hPa | 2.7V | 03:36:33 | 02:19:59 | 00:00:00 | |
| DF8AY | 2026-09-05 12:10:39 | 52.34396 | 11.76463 | 118° | 16km/h | 25535m | 6.5m/s | -49.9°C | 0% | 24.8hPa | 2.6V | 03:37:08 | 02:20:01 | 00:00:00 | |
| SONCRA | 2026-09-05 12:10:39 | 52.34398 | 11.76457 | 133° | 15km/h | 25529m | 5.3m/s | -49.9°C | 0.7% | 24.8hPa | 2.7V | 00:00:00 | 00:00:00 | 00:00:00 | |
| DO2SHX-10 | 2026-09-05 12:10:38 | 52.34398 | 11.76457 | 134° | 15km/h | 25529m | 5.3m/s | -49.9°C | 3.2% | 24.8hPa | 2.7V | 00:00:00 | 02:20:00 | 00:00:00 | |
| GOEST3-10 | 2026-09-05 12:10:37 | 52.34401 | 11.76453 | 141° | 15km/h | 25524m | 5.1m/s | -49.8°C | 3.2% | 24.8hPa | 2.7V | 00:00:00 | 02:19:59 | 00:00:00 | |
| DF7ER-10 | 2026-09-05 12:10:36 | 52.34401 | 11.76453 | 141° | 15km/h | 25524m | 5.2m/s | -49.8°C | 0.7% | 24.9hPa | 2.6V | 03:37:00 | 00:00:00 | 00:00:00 | |
| DL1XH-west | 2026-09-05 12:10:36 | 52.34404 | 11.76449 | 136° | 15km/h | 25518m | 5.9m/s | -49.8°C | 0% | 24.9hPa | 2.7V | 03:37:08 | 02:19:58 | 00:00:00 | |
| DL1XH1-15 | 2026-09-05 12:10:35 | 52.34403 | 11.76414 | 81° | 20km/h | 25486m | 5.1m/s | -49.7°C | 3.1% | 25hPa | 2.6V | 03:36:40 | 02:19:52 | 00:00:00 | |
| HSKMA3-T | 2026-09-05 12:10:33 | 52.34406 | 11.76434 | 76° | 15km/h | 25503m | 4.6m/s | -49.8°C | 0% | 24.9hPa | 2.7V | 03:37:08 | 02:19:55 | 00:00:00 | |
| DF8AY | 2026-09-05 12:10:28 | 52.34402 | 11.76394 | 79° | 26km/h | 25476m | 6.6m/s | -49.8°C | 0% | 25hPa | 2.6V | 03:37:08 | 02:19:50 | 00:00:00 | |
| DL1XH-west | 2026-09-05 12:10:26 | 52.34398 | 11.76372 | 75° | 27km/h | 25465m | 4.2m/s | -49.7°C | 0% | 25.1hPa | 2.7V | 03:37:08 | 02:19:48 | 00:00:00 | |
| DL1NUX | 2026-09-05 12:10:26 | 52.34397 | 11.76348 | 101° | 11km/h | 25449m | 5.8m/s | -49.8°C | 3.1% | 25.1hPa | 2.6V | 03:36:47 | 02:19:45 | 00:00:00 | |
| DB0DAN | 2026-09-05 12:10:25 | 52.34397 | 11.76362 | 82° | 22km/h | 25460m | 4.6m/s | -49.7°C | 0.7% | 25.11hPa | 2.7V | 00:00:00 | 00:00:00 | 00:00:00 | |
| DL1XH1-15 | 2026-09-05 12:10:25 | 52.34396 | 11.76344 | 4° | 7km/h | 25432m | 5.4m/s | -49.7°C | 3.2% | 25.2hPa | 2.6V | 03:36:50 | 02:19:42 | 00:00:00 | |
| HSKMA3-T | 2026-09-05 12:10:23 | 52.34397 | 11.76348 | 101° | 11km/h | 25449m | 5.8m/s | -49.8°C | 0% | 25.1hPa | 2.6V | 03:37:08 | 02:19:45 | 00:00:00 | |
| AA1-15 | 2026-09-05 12:10:23 | 52.34397 | 11.76345 | 100° | 4km/h | 25443m | 5.7m/s | -49.8°C | 0% | 25.2hPa | 2.7V | 03:37:08 | 02:19:44 | 00:00:00 | |
| DF8AY | 2026-09-05 12:10:17 | 52.34389 | 11.76337 | 54° | 15km/h | 25418m | 5.9m/s | -49.7°C | 0% | 25.3hPa | 2.7V | 03:37:08 | 02:19:39 | 00:00:00 | |
| DO2SHX-10 | 2026-09-05 12:10:17 | 52.34389 | 11.76337 | 54° | 20km/h | 25418m | 5.9m/s | -49.6°C | 3.2% | 25.2hPa | 2.7V | 03:36:00 | 02:19:39 | 00:00:00 | |
| DL1NUX | 2026-09-05 12:10:16 | 52.34378 | 11.76299 | 61° | 35km/h | 25395m | 5.9m/s | -49.6°C | 3.1% | 25.4hPa | 2.6V | 03:36:57 | 02:19:35 | 00:00:00 | |
| DL1XH-west | 2026-09-05 12:10:16 | 52.34387 | 11.76331 | 66° | 20km/h | 25412m | 5m/s | -49.6°C | 0% | 25.3hPa | 2.7V | 03:37:08 | 02:19:38 | 00:00:00 | |
| DL1XH1-15 | 2026-09-05 12:10:15 | 52.34367 | 11.76264 | 70° | 26km/h | 25379m | 5.9m/s | -49.5°C | 3.1% | 25.4hPa | 2.7V | 03:37:00 | 02:19:32 | 00:00:00 | |
| HSKMA3-T | 2026-09-05 12:10:12 | 52.34373 | 11.76286 | 62° | 35km/h | 25390m | 4.9m/s | -49.4°C | 0% | 25.4hPa | 2.7V | 03:37:08 | 02:19:34 | 00:00:00 | |
| AA1-15 | 2026-09-05 12:10:11 | 52.34370 | 11.76274 | 66° | 31km/h | 25384m | 5.4m/s | -49.5°C | 0% | 25.4hPa | 2.7V | 03:37:08 | 02:19:33 | 00:00:00 | |
| DB0DAN | 2026-09-05 12:10:10 | 52.34367 | 11.76264 | 70° | 24km/h | 25379m | 5.9m/s | -49.5°C | 0.7% | 25.42hPa | 2.7V | 00:00:00 | 00:00:00 | 00:00:00 | |
| DL1XH-15 | 2026-09-05 12:10:10 | 52.34362 | 11.76244 | 46° | 13km/h | 25364m | 5.3m/s | -49.3°C | 3.1% | 25.4hPa | 2.7V | 03:37:03 | 02:19:29 | 00:00:00 | |
| DL1XH-west | 2026-09-05 12:10:06 | 52.34359 | 11.76241 | 28° | 15km/h | 25358m | 6.3m/s | -49.3°C | 0% | 25.5hPa | 2.7V | 03:37:08 | 02:19:28 | 00:00:00 | |
| DM0DOS-11 | 2026-09-05 12:10:05 | 52.34345 | 11.76229 | 35° | 26km/h | 25344m | 5.1m/s | -49.3°C | 3% | 25.6hPa | 2.6V | 03:37:07 | 02:19:25 | 00:00:00 | |
| AA1-15 | 2026-09-05 12:10:01 | 52.34337 | 11.76212 | 61° | 29km/h | 25332m | 6m/s | -49.4°C | 0% | 25.6hPa | 2.7V | 03:37:59 | 02:19:23 | 00:00:00 | |
| DL1XH-15 | 2026-09-05 12:10:00 | 52.34325 | 11.76162 | 62° | 33km/h | 25312m | 6.1m/s | -49.4°C | 3.1% | 25.7hPa | 2.6V | 03:37:13 | 02:19:19 | 00:00:00 | |
| DF8AY | 2026-09-05 12:09:56 | 52.34321 | 11.76150 | 54° | 31km/h | 25306m | 5.6m/s | -49.5°C | 0% | 25.7hPa | 2.6V | 03:37:59 | 02:19:18 | 00:00:00 | |
| DL1NUX | 2026-09-05 12:09:56 | 52.34307 | 11.76126 | 44° | 20km/h | 25289m | 5.7m/s | -49.3°C | 3% | 25.8hPa | 2.7V | 03:37:17 | 02:19:15 | 00:00:00 | |
| DL1XH-west | 2026-09-05 12:09:55 | 52.34316 | 11.76141 | 49° | 27km/h | 25301m | 5.1m/s | -49.5°C | 0% | 25.7hPa | 2.7V | 03:37:59 | 02:19:17 | 00:00:00 | |
| DL1XH1-15 | 2026-09-05 12:09:55 | 52.34295 | 11.76113 | 24° | 22km/h | 25272m | 6m/s | -49.5°C | 3% | 25.8hPa | 2.7V | 03:37:20 | 02:19:12 | 00:00:00 | |
| HSKMA3-T | 2026-09-05 12:09:50 | 52.34295 | 11.76113 | 25° | 22km/h | 25272m | 6m/s | -49.5°C | 0% | 25.8hPa | 2.7V | 03:37:59 | 02:19:12 | 00:00:00 | |
| DL1XH-15 | 2026-09-05 12:09:50 | 52.34280 | 11.76095 | 53° | 26km/h | 25258m | 6.5m/s | -49.5°C | 3% | 25.9hPa | 2.6V | 03:37:23 | 02:19:09 | 00:00:00 | |
| DF8AY | 2026-09-05 12:09:46 | 52.34277 | 11.76085 | 65° | 27km/h | 25252m | 5.8m/s | -49.6°C | 0% | 25.9hPa | 2.6V | 03:37:59 | 02:19:08 | 00:00:00 | |
| DL1NUX | 2026-09-05 12:09:46 | 52.34267 | 11.76049 | 64° | 35km/h | 25235m | 6.2m/s | -49.9°C | 3.1% | 26hPa | 2.7V | 03:37:27 | 02:19:05 | 00:00:00 | |
| DL1XH-west | 2026-09-05 12:09:44 | 52.34271 | 11.76062 | 68° | 33km/h | 25241m | 6.1m/s | -49.8°C | 0% | 25.9hPa | 2.7V | 03:37:59 | 02:19:06 | 00:00:00 | |
| HSKMA3-T | 2026-09-05 12:09:39 | 52.34253 | 11.76002 | 60° | 26km/h | 25214m | 4.3m/s | -49.7°C | 0% | 26.1hPa | 2.6V | 03:37:59 | 02:19:01 | 00:00:00 | |
| SO1NDE-10 | 2026-09-05 12:09:39 | 52.34253 | 11.76002 | 61° | 16km/h | 25214m | 4.2m/s | -49.6°C | 3.1% | 26.0hPa | 2.6V | 00:00:00 | 02:19:01 | 00:00:00 | |
| DL1XH-15 | 2026-09-05 12:09:38 | 52.34245 | 11.75987 | 37° | 24km/h | 25204m | 6.7m/s | -49.8°C | 3.1% | 26.1hPa | 2.7V | 03:37:33 | 02:18:59 | 00:00:00 | |
| DF8AY | 2026-09-05 12:09:36 | 52.34235 | 11.75979 | 23° | 22km/h | 25192m | 5m/s | -49.8°C | 0% | 26.2hPa | 2.7V | 03:37:59 | 02:18:57 | 00:00:00 | |
| DL1XH-west | 2026-09-05 12:09:33 | 52.34226 | 11.75971 | 37° | 18km/h | 25181m | 5.3m/s | -50°C | 0% | 26.2hPa | 2.6V | 03:37:59 | 02:18:55 | 00:00:00 | |
| AA1-15 | 2026-09-05 12:09:29 | 52.34213 | 11.75951 | 43° | 22km/h | 25161m | 4.9m/s | -50°C | 0% | 26.3hPa | 2.7V | 03:37:59 | 02:18:51 | 00:00:00 | |
| HSKMA3-T | 2026-09-05 12:09:28 | 52.34209 | 11.75944 | 50° | 22km/h | 25156m | 4.5m/s | -49.9°C | 0% | 26.3hPa | 2.6V | 03:37:59 | 02:18:50 | 00:00:00 | |
| GOEST3-10 | 2026-09-05 12:09:27 | 52.34206 | 11.75937 | 59° | 22km/h | 25151m | 5.7m/s | -49.9°C | 3.2% | 26.3hPa | 2.7V | 00:00:00 | 02:18:49 | 00:00:00 | |
| DO2SHX-10 | 2026-09-05 12:09:26 | 52.34203 | 11.75928 | 66° | 22km/h | 25146m | 5.7m/s | -50.0°C | 3.2% | 26.3hPa | 2.7V | 00:00:00 | 02:18:48 | 00:00:00 | |
| DL1XH1-15 | 2026-09-05 12:09:25 | 52.34185 | 11.75896 | 7° | 13km/h | 25115m | 4.9m/s | -49.8°C | 3.1% | 26.4hPa | 2.7V | 03:37:50 | 02:18:42 | 00:00:00 | |
| DF8AY | 2026-09-05 12:09:24 | 52.34198 | 11.75911 | 62° | 22km/h | 25136m | 4.5m/s | -49.9°C | 0% | 26.4hPa | 2.7V | 03:37:59 | 02:18:46 | 00:00:00 | |
| DL1XH-west | 2026-09-05 12:09:22 | 52.34192 | 11.75900 | 29° | 18km/h | 25125m | 5m/s | -49.9°C | 0% | 26.4hPa | 2.6V | 03:37:59 | 02:18:44 | 00:00:00 | |
| AA1-15 | 2026-09-05 12:09:18 | 52.34179 | 11.75893 | 46° | 5km/h | 25101m | 4.2m/s | -49.7°C | 0% | 26.5hPa | 2.6V | 03:37:59 | 02:18:39 | 00:00:00 | |
| DL1XH-15 | 2026-09-05 12:09:18 | 52.34179 | 11.75893 | 45° | 5km/h | 25101m | 4.2m/s | -49.7°C | 3.1% | 26.5hPa | 2.6V | 03:37:53 | 02:18:39 | 00:00:00 | |
| DF8AY | 2026-09-05 12:09:14 | 52.34174 | 11.75887 | 35° | 9km/h | 25085m | 4.6m/s | -49.5°C | 0% | 26.6hPa | 2.7V | 03:37:59 | 02:18:36 | 00:00:00 | |
| DO2SHX-10 | 2026-09-05 12:09:14 | 52.34174 | 11.75886 | 35° | 7km/h | 25086m | 4.5m/s | -49.5°C | 3.1% | 26.5hPa | 2.7V | 00:00:00 | 02:18:36 | 00:00:00 | |
| DF8AY-15 | 2026-09-05 12:09:13 | 52.34172 | 11.75884 | 47° | 7km/h | 25081m | 4.4m/s | -49.5°C | 3.2% | 26.6hPa | 2.6V | 00:00:00 | 02:18:35 | 00:00:00 | |
| DL1XH1-15 | 2026-09-05 12:09:12 | 52.34172 | 11.75879 | 147° | 5km/h | 25065m | 4.3m/s | -49.7°C | 3.1% | 26.7hPa | 2.6V | 03:38:00 | 02:18:32 | 00:00:00 | |
| DL1XH-west | 2026-09-05 12:09:11 | 52.34171 | 11.75880 | 124° | 5km/h | 25070m | 5.7m/s | -49.7°C | 0% | 26.7hPa | 2.6V | 03:37:59 | 02:18:33 | 00:00:00 | |
| DF7ER-10 | 2026-09-05 12:09:11 | 52.34171 | 11.75880 | 125° | 5km/h | 25070m | 5.7m/s | -49.7°C | 0.7% | 26.7hPa | 2.7V | 03:37:00 | 00:00:00 | 00:00:00 | |
| DL1XH-15 | 2026-09-05 12:09:10 | 52.34172 | 11.75876 | 19° | 7km/h | 25050m | 5.6m/s | -49.9°C | 3.1% | 26.7hPa | 2.7V | 03:38:03 | 02:18:29 | 00:00:00 | |
| AA1-15 | 2026-09-05 12:09:08 | 52.34173 | 11.75876 | 19° | 7km/h | 25050m | 5.6m/s | -49.9°C | 0% | 26.7hPa | 2.7V | 03:38:50 | 02:18:29 | 00:00:00 | |
| HSKMA3-T | 2026-09-05 12:09:06 | 52.34170 | 11.75875 | 20° | 13km/h | 25045m | 5.1m/s | -50°C | 0% | 26.8hPa | 2.7V | 03:38:50 | 02:18:28 | 00:00:00 | |
| DM0DOS-11 | 2026-09-05 12:09:06 | 52.34161 | 11.75867 | 44° | 11km/h | 25029m | 5.4m/s | -50°C | 3.2% | 26.8hPa | 2.7V | 03:38:07 | 02:18:25 | 00:00:00 | |
| DL1XH1-15 | 2026-09-05 12:09:06 | 52.34159 | 11.75859 | 102° | 2km/h | 25015m | 4.3m/s | -49.7°C | 3.1% | 26.9hPa | 2.6V | 03:38:10 | 02:18:22 | 00:00:00 | |
| DF8AY | 2026-09-05 12:09:03 | 52.34161 | 11.75867 | 44° | 11km/h | 25029m | 5.4m/s | -50°C | 0% | 26.9hPa | 2.7V | 03:38:50 | 02:18:25 | 00:00:00 | |
| DL1XH-west | 2026-09-05 12:09:00 | 52.34159 | 11.75859 | 102° | 2km/h | 25015m | 4.3m/s | -49.7°C | 0% | 26.9hPa | 2.6V | 03:38:50 | 02:18:22 | 00:00:00 | |
| DC4HF-4 | 2026-09-05 12:09:00 | 52.34159 | 11.75858 | 354° | 0km/h | 25009m | 6.1m/s | -49.8°C | 0.7% | 26.9hPa | 2.7V | 00:00:00 | 00:00:00 | 00:00:00 | |
| DL1XH-15 | 2026-09-05 12:08:59 | 52.34159 | 11.75861 | 257° | 5km/h | 24999m | 4.8m/s | -49.9°C | 3.1% | 26.9hPa | 2.7V | 03:38:13 | 02:18:19 | 00:00:00 | |
| AA1-15 | 2026-09-05 12:08:57 | 52.34159 | 11.75861 | 258° | 5km/h | 24999m | 4.9m/s | -49.9°C | 0% | 26.9hPa | 2.7V | 03:38:50 | 02:18:19 | 00:00:00 | |
| HSKMA3-T | 2026-09-05 12:08:56 | 52.34160 | 11.75863 | 239° | 5km/h | 24993m | 6.9m/s | -50°C | 0% | 27hPa | 2.7V | 03:38:50 | 02:18:18 | 00:00:00 | |
| DM0DOS-11 | 2026-09-05 12:08:56 | 52.34163 | 11.75870 | 255° | 7km/h | 24977m | 6m/s | -50.1°C | 3.2% | 27hPa | 2.6V | 03:38:17 | 02:18:15 | 00:00:00 | |
| DB0DAN | 2026-09-05 12:08:55 | 52.34161 | 11.75865 | 224° | 7km/h | 24987m | 5.4m/s | -50.1°C | 0.7% | 26.99hPa | 2.7V | 00:00:00 | 00:00:00 | 00:00:00 | |
| DL1XH1-15 | 2026-09-05 12:08:55 | 52.34161 | 11.75875 | 302° | 0km/h | 24962m | 5.2m/s | -50.1°C | 3.2% | 27.1hPa | 2.7V | 03:38:20 | 02:18:12 | 00:00:00 | |
| DF8AY | 2026-09-05 12:08:53 | 52.34162 | 11.75870 | 256° | 7km/h | 24977m | 6m/s | -50.1°C | 0% | 27hPa | 2.6V | 03:38:50 | 02:18:15 | 00:00:00 | |
| DL1XH-west | 2026-09-05 12:08:50 | 52.34162 | 11.75875 | 302° | 0km/h | 24962m | 5.2m/s | -50.1°C | 0% | 27.1hPa | 2.7V | 03:38:50 | 02:18:12 | 00:00:00 | |
| SONDE2-11 | 2026-09-05 12:08:50 | 52.34162 | 11.75874 | 135° | 4km/h | 24956m | 6.8m/s | -50.2°C | 0.7% | 27.1hPa | 2.7V | 00:00:00 | 00:00:00 | 00:00:00 | |
| DL1ZP-14 | 2026-09-05 12:08:49 | 52.34163 | 11.75872 | 134° | 7km/h | 24950m | 5.1m/s | -50.3°C | 0.7% | 27.1hPa | 2.7V | 00:00:00 | 00:00:00 | 00:00:00 | |
| DL1XH-15 | 2026-09-05 12:08:48 | 52.34164 | 11.75870 | 133° | 9km/h | 24945m | 4.8m/s | -50.3°C | 3.2% | 27.1hPa | 2.6V | 03:38:23 | 02:18:09 | 00:00:00 | |
| DO2SHX-10 | 2026-09-05 12:08:47 | 52.34164 | 11.75870 | 134° | 7km/h | 24945m | 4.8m/s | -50.3°C | 3.2% | 27.1hPa | 2.6V | 00:00:00 | 02:18:09 | 00:00:00 | |
| DM0DOS-11 | 2026-09-05 12:08:46 | 52.34169 | 11.75863 | 164° | 7km/h | 24924m | 6.2m/s | -50.2°C | 3.3% | 27.3hPa | 2.7V | 03:38:27 | 02:18:05 | 00:00:00 | |
| HSKMA3-T | 2026-09-05 12:08:46 | 52.34166 | 11.75867 | 129° | 7km/h | 24939m | 6m/s | -50.4°C | 0% | 27.2hPa | 2.6V | 03:38:50 | 02:18:08 | 00:00:00 | |
| EDDB2-12 | 2026-09-05 12:08:46 | 52.34167 | 11.75865 | 135° | 5km/h | 24934m | 5.0m/s | -50.3°C | 0.7% | 27.2hPa | 2.7V | 00:00:00 | 00:00:00 | 00:00:00 | |
| DF8AY | 2026-09-05 12:08:42 | 52.34171 | 11.75862 | 168° | 9km/h | 24918m | 5.3m/s | -50.2°C | 0% | 27.3hPa | 2.7V | 03:38:50 | 02:18:04 | 00:00:00 | |
| DB0DAN | 2026-09-05 12:08:40 | 52.34175 | 11.75861 | 177° | 5km/h | 24910m | 4.1m/s | -50.2°C | 0.7% | 27.34hPa | 2.6V | 00:00:00 | 00:00:00 | 00:00:00 | |
| DL1XH-west | 2026-09-05 12:08:39 | 52.34176 | 11.75861 | 255° | 2km/h | 24905m | 6.2m/s | -50.2°C | 0% | 27.3hPa | 2.6V | 03:38:50 | 02:18:01 | 00:00:00 | |
| SO1NDE-10 | 2026-09-05 12:08:39 | 52.34175 | 11.75861 | 256° | 9km/h | 24905m | 6.2m/s | -50.2°C | 3.2% | 27.3hPa | 2.7V | 00:00:00 | 02:18:01 | 00:00:00 | |
| DL1XH-15 | 2026-09-05 12:08:38 | 52.34173 | 11.75862 | 359° | 9km/h | 24893m | 5.3m/s | -50°C | 3.1% | 27.4hPa | 2.7V | 03:38:33 | 02:17:59 | 00:00:00 | |
| HSKMA3-T | 2026-09-05 12:08:36 | 52.34171 | 11.75861 | 23° | 9km/h | 24888m | 5m/s | -50°C | 0% | 27.4hPa | 2.7V | 03:38:50 | 02:17:58 | 00:00:00 | |
| AA1-15 | 2026-09-05 12:08:35 | 52.34169 | 11.75859 | 56° | 9km/h | 24883m | 5.6m/s | -50.1°C | 0% | 27.4hPa | 2.6V | 03:38:50 | 02:17:57 | 00:00:00 | |
| DF8AY | 2026-09-05 12:08:32 | 52.34171 | 11.75848 | 131° | 11km/h | 24867m | 4.4m/s | -50.2°C | 0% | 27.5hPa | 2.7V | 03:38:50 | 02:17:54 | 00:00:00 | |
| DL1XH-west | 2026-09-05 12:08:28 | 52.34174 | 11.75842 | 35° | 4km/h | 24847m | 4m/s | -50°C | 0% | 27.6hPa | 2.6V | 03:38:50 | 02:17:50 | 00:00:00 | |
| DM0DOS-11 | 2026-09-05 12:08:26 | 52.34167 | 11.75828 | 45° | 13km/h | 24819m | 6.5m/s | -49.9°C | 3.1% | 27.7hPa | 2.6V | 03:38:47 | 02:17:45 | 00:00:00 | |
| DB0DAN | 2026-09-05 12:08:25 | 52.34171 | 11.75835 | 62° | 9km/h | 24830m | 5.5m/s | -49.9°C | 0.7% | 27.64hPa | 2.7V | 00:00:00 | 00:00:00 | 00:00:00 | |
| HSKMA3-T | 2026-09-05 12:08:25 | 52.34171 | 11.75835 | 62° | 11km/h | 24831m | 5.5m/s | -49.9°C | 0% | 27.6hPa | 2.7V | 03:38:50 | 02:17:47 | 00:00:00 | |
| DL1XH1-15 | 2026-09-05 12:08:25 | 52.34161 | 11.75816 | 63° | 11km/h | 24804m | 5.3m/s | -50°C | 3.2% | 27.7hPa | 2.7V | 03:38:50 | 02:17:42 | 00:00:00 | |
| AA1-15 | 2026-09-05 12:08:24 | 52.34170 | 11.75831 | 53° | 13km/h | 24825m | 5.3m/s | -49.9°C | 0% | 27.7hPa | 2.6V | 03:38:50 | 02:17:46 | 00:00:00 | |
| DF8AY | 2026-09-05 12:08:22 | 52.34165 | 11.75824 | 39° | 15km/h | 24813m | 5.2m/s | -49.9°C | 0% | 27.7hPa | 2.6V | 03:38:50 | 02:17:44 | 00:00:00 | |
| DL4BBY-15 | 2026-09-05 12:08:22 | 52.34165 | 11.75824 | 39° | 20km/h | 24814m | 5.2m/s | -50.1°C | 0% | 0hPa | 2.7V | 00:00:00 | 00:00:00 | 00:00:00 | |
| EDDB2-11 | 2026-09-05 12:08:21 | 52.34161 | 11.75816 | 63° | 11km/h | 24804m | 5.3m/s | -50.1°C | 0.7% | 27.7hPa | 2.7V | 00:00:00 | 00:00:00 | 00:00:00 | |
| DO2SHX-10 | 2026-09-05 12:08:20 | 52.34161 | 11.75816 | 64° | 11km/h | 24804m | 5.2m/s | -50.0°C | 3.2% | 27.7hPa | 2.7V | 00:00:00 | 02:17:42 | 00:00:00 | |
| S3001 | 2026-09-05 12:08:19 | 52.34160 | 11.75812 | 93° | 11km/h | 24798m | 6.4m/s | -50.1°C | 0.7% | 27.8hPa | 2.6V | 00:00:00 | 00:00:00 | 00:00:00 | |
| DL1XH-15 | 2026-09-05 12:08:18 | 52.34163 | 11.75803 | 124° | 11km/h | 24786m | 5.3m/s | -50.1°C | 3.2% | 27.8hPa | 2.6V | 03:38:53 | 02:17:39 | 00:00:00 | |
| DL1XH-west | 2026-09-05 12:08:17 | 52.34163 | 11.75803 | 124° | 11km/h | 24786m | 5.3m/s | -50.1°C | 0% | 27.8hPa | 2.6V | 03:39:41 | 02:17:39 | 00:00:00 | |
| DO2SHX-10 | 2026-09-05 12:08:17 | 52.34163 | 11.75803 | 125° | 9km/h | 24787m | 5.3m/s | -50.0°C | 3.2% | 27.8hPa | 2.6V | 03:38:00 | 02:17:39 | 00:00:00 | |
| DM0DOS-11 | 2026-09-05 12:08:16 | 52.34161 | 11.75791 | 40° | 13km/h | 24766m | 4.7m/s | -50.1°C | 3.2% | 27.9hPa | 2.6V | 03:38:57 | 02:17:35 | 00:00:00 | |
| HSKMA3-T | 2026-09-05 12:08:15 | 52.34164 | 11.75796 | 80° | 5km/h | 24775m | 5.6m/s | -50.1°C | 0% | 27.9hPa | 2.7V | 03:39:41 | 02:17:37 | 00:00:00 | |
| AA1-15 | 2026-09-05 12:08:14 | 52.34164 | 11.75794 | 43° | 9km/h | 24770m | 4.2m/s | -50.1°C | 0% | 27.9hPa | 2.7V | 03:39:41 | 02:17:36 | 00:00:00 | |
| DO2SHX-10 | 2026-09-05 12:08:14 | 52.34164 | 11.75794 | 43° | 13km/h | 24770m | 4.1m/s | -50.0°C | 3.2% | 27.8hPa | 2.6V | 00:00:00 | 02:17:36 | 00:00:00 | |
| DF8AY-15 | 2026-09-05 12:08:13 | 52.34161 | 11.75791 | 41° | 24km/h | 24766m | 4.7m/s | -50.1°C | 3.2% | 27.9hPa | 2.6V | 00:00:00 | 02:17:35 | 00:00:00 | |
| DL1XH-15 | 2026-09-05 12:08:12 | 52.34132 | 11.75757 | 44° | 22km/h | 24727m | 5.2m/s | -50.5°C | 3.2% | 28.1hPa | 2.6V | 03:39:04 | 02:17:28 | 00:00:00 | |
| DF8AY | 2026-09-05 12:08:11 | 52.34155 | 11.75783 | 40° | 18km/h | 24754m | 5.3m/s | -50.4°C | 0% | 28hPa | 2.6V | 03:39:41 | 02:17:33 | 00:00:00 | |
| TFSTFS | 2026-09-05 12:08:11 | 52.34156 | 11.75783 | 41° | 18km/h | 24755m | 5.3m/s | -50.4°C | 0.7% | 28.0hPa | 2.7V | 03:39:00 | 00:00:00 | 00:00:00 | |
| DL4XJ-10 | 2026-09-05 12:08:09 | 52.34147 | 11.75772 | 31° | 20km/h | 24744m | 6.6m/s | -50.8°C | 0% | 0hPa | 2.7V | 00:00:00 | 00:00:00 | 00:00:00 | |
| DO2SHX-10 | 2026-09-05 12:08:08 | 52.34142 | 11.75768 | 29° | 24km/h | 24738m | 5.8m/s | -50.6°C | 3.2% | 28.0hPa | 2.7V | 00:00:00 | 02:17:30 | 00:00:00 | |
| DM0DOS-11 | 2026-09-05 12:08:07 | 52.34125 | 11.75731 | 78° | 26km/h | 24710m | 4.4m/s | -50.5°C | 3.2% | 28.1hPa | 2.7V | 03:39:07 | 02:17:25 | 00:00:00 | |
| DL1XH-west | 2026-09-05 12:08:07 | 52.34132 | 11.75757 | 45° | 22km/h | 24728m | 5.2m/s | -50.6°C | 0% | 28.1hPa | 2.6V | 03:39:41 | 02:17:28 | 00:00:00 | |
| HSKMA3-T | 2026-09-05 12:08:05 | 52.34129 | 11.75750 | 60° | 22km/h | 24721m | 6.7m/s | -50.5°C | 0% | 28.1hPa | 2.6V | 03:39:41 | 02:17:27 | 00:00:00 | |
| DL1XH1-15 | 2026-09-05 12:08:05 | 52.34119 | 11.75703 | 50° | 24km/h | 24694m | 5.7m/s | -50.5°C | 3.3% | 28.2hPa | 2.6V | 03:39:10 | 02:17:22 | 00:00:00 | |
| AA1-15 | 2026-09-05 12:08:04 | 52.34125 | 11.75731 | 79° | 26km/h | 24710m | 4.4m/s | -50.5°C | 0% | 28.1hPa | 2.7V | 03:39:41 | 02:17:25 | 00:00:00 | |
| DF8AY | 2026-09-05 12:08:00 | 52.34118 | 11.75703 | 51° | 24km/h | 24694m | 5.7m/s | -50.5°C | 0% | 28.2hPa | 2.6V | 03:39:41 | 02:17:22 | 00:00:00 | |
| DO2SHX-10 | 2026-09-05 12:07:59 | 52.34114 | 11.75696 | 40° | 27km/h | 24689m | 4.7m/s | -50.3°C | 3.3% | 28.2hPa | 2.6V | 00:00:00 | 02:17:21 | 00:00:00 | |
| DL1XH-15 | 2026-09-05 12:07:58 | 52.34098 | 11.75675 | 39° | 27km/h | 24672m | 5.2m/s | -50.2°C | 3.3% | 28.3hPa | 2.6V | 03:39:14 | 02:17:18 | 00:00:00 | |
| BUE01 | 2026-09-05 12:07:58 | 52.34104 | 11.75682 | 39° | 27km/h | 24678m | 6.0m/s | -50.3°C | 0.7% | 28.3hPa | 2.7V | 00:00:00 | 00:00:00 | 00:00:00 | |
| GOEST3-10 | 2026-09-05 12:07:57 | 52.34104 | 11.75682 | 40° | 26km/h | 24678m | 6.0m/s | -50.2°C | 3.3% | 28.2hPa | 2.7V | 00:00:00 | 00:00:00 | 00:00:00 | |
| DM0DOS-11 | 2026-09-05 12:07:56 | 52.34082 | 11.75659 | 18° | 22km/h | 24655m | 5.9m/s | -50.2°C | 3.2% | 28.4hPa | 2.7V | 03:39:17 | 02:17:15 | 00:00:00 | |
| DL1XH-west | 2026-09-05 12:07:56 | 52.34099 | 11.75675 | 39° | 27km/h | 24672m | 5.2m/s | -50.2°C | 0% | 28.3hPa | 2.6V | 03:39:41 | 02:17:18 | 00:00:00 | |
| DO2SHX-10 | 2026-09-05 12:07:56 | 52.34099 | 11.75675 | 40° | 26km/h | 24673m | 5.2m/s | -50.2°C | 3.3% | 28.3hPa | 2.6V | 00:00:00 | 02:17:18 | 00:00:00 | |
| DL1XH1-15 | 2026-09-05 12:07:55 | 52.34069 | 11.75650 | 38° | 16km/h | 24639m | 6.6m/s | -50.4°C | 3.2% | 28.5hPa | 2.6V | 03:39:20 | 02:17:12 | 00:00:00 | |
| HSKMA3-T | 2026-09-05 12:07:54 | 52.34088 | 11.75663 | 27° | 24km/h | 24661m | 6.5m/s | -50.3°C | 0% | 28.4hPa | 2.6V | 03:39:41 | 02:17:16 | 00:00:00 | |
| AA1-15 | 2026-09-05 12:07:52 | 52.34077 | 11.75656 | 18° | 20km/h | 24650m | 4.4m/s | -50.2°C | 0% | 28.4hPa | 2.7V | 03:39:41 | 02:17:14 | 00:00:00 | |
| DF8AY | 2026-09-05 12:07:50 | 52.34069 | 11.75650 | 39° | 16km/h | 24639m | 6.6m/s | -50.4°C | 0% | 28.5hPa | 2.6V | 03:39:41 | 02:17:12 | 00:00:00 | |
| EDDB2-11 | 2026-09-05 12:07:50 | 52.34066 | 11.75645 | 59° | 16km/h | 24633m | 5.6m/s | -50.4°C | 0.7% | 28.5hPa | 2.6V | 00:00:00 | 00:00:00 | 00:00:00 | |
| DC4HF-4 | 2026-09-05 12:07:48 | 52.34062 | 11.75632 | 59° | 15km/h | 24622m | 5.8m/s | -50.3°C | 0.8% | 28.5hPa | 2.6V | 00:00:00 | 00:00:00 | 00:00:00 | |
| DO2SHX-10 | 2026-09-05 12:07:47 | 52.34062 | 11.75632 | 60° | 16km/h | 24622m | 5.7m/s | -50.2°C | 3.3% | 28.5hPa | 2.6V | 00:00:00 | 02:17:09 | 00:00:00 | |
| DM0DOS-11 | 2026-09-05 12:07:46 | 52.34049 | 11.75617 | 23° | 22km/h | 24600m | 5.9m/s | -50.3°C | 3.3% | 28.6hPa | 2.6V | 03:39:27 | 02:17:05 | 00:00:00 | |
| DL1XH-west | 2026-09-05 12:07:45 | 52.34057 | 11.75623 | 31° | 16km/h | 24610m | 5.1m/s | -50.4°C | 0% | 28.6hPa | 2.7V | 03:39:41 | 02:17:07 | 00:00:00 | |
| DL1XH1-15 | 2026-09-05 12:07:45 | 52.34032 | 11.75603 | 25° | 26km/h | 24584m | 4.6m/s | -50.4°C | 3.3% | 28.7hPa | 2.7V | 03:39:30 | 02:17:02 | 00:00:00 | |
| HSKMA3-T | 2026-09-05 12:07:43 | 52.34049 | 11.75617 | 24° | 22km/h | 24600m | 5.9m/s | -50.3°C | 0% | 28.7hPa | 2.6V | 03:39:41 | 02:17:05 | 00:00:00 | |
| AA1-15 | 2026-09-05 12:07:42 | 52.34044 | 11.75613 | 27° | 24km/h | 24594m | 5.9m/s | -50.4°C | 0% | 28.7hPa | 2.7V | 03:39:41 | 02:17:04 | 00:00:00 | |
| GOEST3-10 | 2026-09-05 12:07:42 | 52.34043 | 11.75613 | 28° | 24km/h | 24594m | 5.9m/s | -50.3°C | 3.3% | 28.6hPa | 2.6V | 00:00:00 | 02:17:04 | 00:00:00 | |
| DO2SHX-10 | 2026-09-05 12:07:41 | 52.34038 | 11.75608 | 30° | 26km/h | 24589m | 5.4m/s | -50.4°C | 3.3% | 28.6hPa | 2.6V | 03:39:00 | 02:17:03 | 00:00:00 | |
| SP3WXH-11 | 2026-09-05 12:07:40 | 52.34032 | 11.75603 | 25° | 26km/h | 24584m | 4.6m/s | -50.4°C | 0.8% | 28.7hPa | 2.6V | 00:00:00 | 00:00:00 | 00:00:00 | |
| SO1NDE-10 | 2026-09-05 12:07:39 | 52.34027 | 11.75599 | 19° | 9km/h | 24579m | 4.9m/s | -50.3°C | 3.2% | 28.7hPa | 2.6V | 00:00:00 | 02:17:01 | 00:00:00 | |
| DO2SHX-10 | 2026-09-05 12:07:38 | 52.34021 | 11.75597 | 9° | 20km/h | 24574m | 6.2m/s | -50.3°C | 3.2% | 28.7hPa | 2.6V | 00:00:00 | 02:17:00 | 00:00:00 | |
| DM0DOS-11 | 2026-09-05 12:07:37 | 52.34003 | 11.75594 | 49° | 5km/h | 24546m | 5.1m/s | -50.2°C | 3.2% | 28.9hPa | 2.6V | 03:39:37 | 02:16:55 | 00:00:00 | |
| DL1XH1-15 | 2026-09-05 12:07:36 | 52.34002 | 11.75591 | 66° | 2km/h | 24528m | 5.2m/s | -50°C | 3.2% | 29hPa | 2.7V | 03:39:40 | 02:16:52 | 00:00:00 | |
| DL1XH-west | 2026-09-05 12:07:35 | 52.34003 | 11.75592 | 66° | 4km/h | 24540m | 5.6m/s | -50.1°C | 0% | 28.9hPa | 2.6V | 03:39:41 | 02:16:54 | 00:00:00 | |
| AA1-15 | 2026-09-05 12:07:32 | 52.34002 | 11.75591 | 66° | 2km/h | 24528m | 5.3m/s | -50°C | 0% | 29hPa | 2.7V | 03:39:41 | 02:16:52 | 00:00:00 | |
| DL1XH-15 | 2026-09-05 12:07:32 | 52.33998 | 11.75579 | 53° | 15km/h | 24506m | 5m/s | -50°C | 3.1% | 29.1hPa | 2.6V | 03:39:44 | 02:16:48 | 00:00:00 | |
| DJ8HS-15 | 2026-09-05 12:07:31 | 52.34003 | 11.75591 | 78° | 7km/h | 24534m | 6.7m/s | 0°C | 0% | 0hPa | 2.7V | 00:00:00 | 02:16:53 | 00:00:00 | |
| DO2SHX-10 | 2026-09-05 12:07:29 | 52.34002 | 11.75589 | 64° | 7km/h | 24523m | 4.5m/s | -50.0°C | 3.2% | 29.0hPa | 2.7V | 03:39:00 | 02:16:51 | 00:00:00 | |
| BUE01 | 2026-09-05 12:07:27 | 52.33999 | 11.75579 | 53° | 13km/h | 24506m | 5.0m/s | -50.0°C | 0.7% | 29.1hPa | 2.7V | 00:00:00 | 00:00:00 | 00:00:00 | |
| DM0DOS-11 | 2026-09-05 12:07:26 | 52.33990 | 11.75570 | 5° | 13km/h | 24488m | 5.7m/s | -50°C | 3.1% | 29.1hPa | 2.7V | 03:39:47 | 02:16:45 | 00:00:00 | |
| DF8AY | 2026-09-05 12:07:26 | 52.33999 | 11.75579 | 54° | 15km/h | 24506m | 5m/s | -50°C | 0% | 29.1hPa | 2.6V | 03:40:32 | 02:16:48 | 00:00:00 | |
| DB0DAN | 2026-09-05 12:07:25 | 52.33996 | 11.75574 | 42° | 13km/h | 24500m | 6.1m/s | -50.1°C | 0.7% | 29.06hPa | 2.7V | 00:00:00 | 00:00:00 | 00:00:00 | |
| DL1XH1-15 | 2026-09-05 12:07:25 | 52.33984 | 11.75569 | 21° | 5km/h | 24471m | 5.6m/s | -50.3°C | 3.2% | 29.2hPa | 2.6V | 03:39:50 | 02:16:42 | 00:00:00 | |
| HSKMA3-T | 2026-09-05 12:07:22 | 52.33987 | 11.75570 | 1° | 11km/h | 24483m | 5.2m/s | -50.1°C | 0% | 29.1hPa | 2.6V | 03:40:32 | 02:16:44 | 00:00:00 | |
| DL1XH-west | 2026-09-05 12:07:21 | 52.33985 | 11.75570 | 7° | 7km/h | 24477m | 6.2m/s | -50.2°C | 0% | 29.2hPa | 2.6V | 03:40:32 | 02:16:43 | 00:00:00 | |
| AA1-15 | 2026-09-05 12:07:20 | 52.33983 | 11.75569 | 21° | 5km/h | 24471m | 5.6m/s | -50.3°C | 0% | 29.2hPa | 2.6V | 03:40:32 | 02:16:42 | 00:00:00 | |
| DO2SHX-10 | 2026-09-05 12:07:20 | 52.33983 | 11.75569 | 22° | 4km/h | 24471m | 5.6m/s | -50.3°C | 3.2% | 29.2hPa | 2.7V | 00:00:00 | 02:16:42 | 00:00:00 | |
| EDDB2-11 | 2026-09-05 12:07:19 | 52.33982 | 11.75568 | 345° | 0km/h | 24461m | 5.8m/s | -50.4°C | 0.7% | 29.3hPa | 2.7V | 00:00:00 | 00:00:00 | 00:00:00 | |
| SONDE2-11 | 2026-09-05 12:07:17 | 52.33981 | 11.75569 | 251° | 2km/h | 24450m | 4.6m/s | -50.5°C | 0.7% | 29.3hPa | 2.7V | 00:00:00 | 00:00:00 | 00:00:00 | |
| DM0DOS-11 | 2026-09-05 12:07:16 | 52.33982 | 11.75565 | 101° | 11km/h | 24432m | 5.9m/s | -50.3°C | 3.3% | 29.4hPa | 2.7V | 03:39:57 | 02:16:35 | 00:00:00 | |
| DF8AY | 2026-09-05 12:07:16 | 52.33981 | 11.75569 | 251° | 2km/h | 24450m | 4.6m/s | -50.5°C | 0% | 29.3hPa | 2.6V | 03:40:32 | 02:16:38 | 00:00:00 | |
| DL1XH1-15 | 2026-09-05 12:07:15 | 52.33985 | 11.75552 | 123° | 7km/h | 24416m | 6m/s | -50.4°C | 3.3% | 29.5hPa | 2.6V | 03:40:00 | 02:16:32 | 00:00:00 | |
| HSKMA3-T | 2026-09-05 12:07:11 | 52.33984 | 11.75556 | 109° | 11km/h | 24422m | 6.3m/s | -50.3°C | 0% | 29.4hPa | 2.7V | 03:40:32 | 02:16:33 | 00:00:00 | |
| AA1-15 | 2026-09-05 12:07:09 | 52.33986 | 11.75550 | 138° | 7km/h | 24410m | 5.1m/s | -50.5°C | 0% | 29.5hPa | 2.6V | 03:40:32 | 02:16:31 | 00:00:00 | |
| SO1NDE-10 | 2026-09-05 12:07:09 | 52.33986 | 11.75550 | 139° | 9km/h | 24411m | 5.0m/s | -50.4°C | 3.3% | 29.4hPa | 2.7V | 03:40:00 | 02:16:31 | 00:00:00 | |
| DO2SHX-10 | 2026-09-05 12:07:08 | 52.33988 | 11.75548 | 141° | 9km/h | 24405m | 5.4m/s | -50.4°C | 3.3% | 29.4hPa | 2.7V | 00:00:00 | 02:16:30 | 00:00:00 | |
| GOEST3-10 | 2026-09-05 12:07:07 | 52.33989 | 11.75545 | 139° | 9km/h | 24400m | 6.2m/s | -50.3°C | 3.2% | 29.5hPa | 2.6V | 03:40:00 | 00:00:00 | 00:00:00 | |
| DL4XJ-10 | 2026-09-05 12:07:06 | 52.33991 | 11.75543 | 144° | 7km/h | 24393m | 4.8m/s | -50.4°C | 0% | 0hPa | 2.6V | 00:00:00 | 00:00:00 | 00:00:00 | |
| DL1XH1-15 | 2026-09-05 12:07:05 | 52.34003 | 11.75553 | 246° | 5km/h | 24361m | 4.5m/s | -50.3°C | 3.2% | 29.7hPa | 2.6V | 03:40:10 | 02:16:22 | 00:00:00 | |
| HSKMA3-T | 2026-09-05 12:07:01 | 52.34002 | 11.75550 | 243° | 11km/h | 24366m | 4.3m/s | -50.4°C | 0% | 29.7hPa | 2.6V | 03:40:32 | 02:16:23 | 00:00:00 | |
| DL1XH-west | 2026-09-05 12:07:00 | 52.34003 | 11.75553 | 246° | 5km/h | 24361m | 4.5m/s | -50.3°C | 0% | 29.7hPa | 2.6V | 03:40:32 | 02:16:22 | 00:00:00 | |
| AA1-15 | 2026-09-05 12:06:58 | 52.34003 | 11.75553 | 77° | 5km/h | 24350m | 5.8m/s | -50.1°C | 0% | 29.8hPa | 2.7V | 03:40:32 | 02:16:20 | 00:00:00 | |
| BUE01 | 2026-09-05 12:06:56 | 52.34000 | 11.75543 | 58° | 7km/h | 24335m | 5.6m/s | -50.2°C | 0.7% | 29.8hPa | 2.6V | 00:00:00 | 00:00:00 | 00:00:00 | |
| DB0DAN | 2026-09-05 12:06:55 | 52.34000 | 11.75543 | 59° | 7km/h | 24334m | 5.6m/s | -50.2°C | 0.7% | 29.82hPa | 2.6V | 00:00:00 | 00:00:00 | 00:00:00 | |
| DM0DOS-11 | 2026-09-05 12:06:55 | 52.33999 | 11.75541 | 243° | 0km/h | 24323m | 5.2m/s | -50.2°C | 3.1% | 29.9hPa | 2.7V | 03:40:17 | 02:16:15 | 00:00:00 | |
| DL1XH1-15 | 2026-09-05 12:06:55 | 52.34003 | 11.75543 | 196° | 11km/h | 24306m | 5.1m/s | -50.3°C | 3.2% | 29.9hPa | 2.6V | 03:40:20 | 02:16:12 | 00:00:00 | |
| HSKMA3-T | 2026-09-05 12:06:51 | 52.34001 | 11.75542 | 192° | 7km/h | 24312m | 6.8m/s | -50.3°C | 0% | 29.9hPa | 2.6V | 03:40:32 | 02:16:13 | 00:00:00 | |
| DL1XH-west | 2026-09-05 12:06:50 | 52.34003 | 11.75543 | 197° | 11km/h | 24306m | 5.1m/s | -50.3°C | 0% | 29.9hPa | 2.6V | 03:40:32 | 02:16:12 | 00:00:00 | |
| AA1-15 | 2026-09-05 12:06:47 | 52.34011 | 11.75553 | 240° | 15km/h | 24289m | 5.8m/s | -50.4°C | 0% | 30.1hPa | 2.7V | 03:40:32 | 02:16:09 | 00:00:00 | |
| DO2SHX-10 | 2026-09-05 12:06:47 | 52.34011 | 11.75553 | 240° | 13km/h | 24290m | 5.8m/s | -50.3°C | 3.3% | 30.0hPa | 2.7V | 00:00:00 | 02:16:09 | 00:00:00 | |
| DL1LOL-11 | 2026-09-05 12:06:46 | 52.34013 | 11.75558 | 255° | 13km/h | 24284m | 4.7m/s | -50.4°C | 0.7% | 30.1hPa | 2.7V | 00:00:00 | 00:00:00 | 00:00:00 | |
| DM0DOS-11 | 2026-09-05 12:06:45 | 52.34012 | 11.75566 | 7° | 5km/h | 24267m | 6m/s | -50.9°C | 3.2% | 30.1hPa | 2.7V | 03:40:27 | 02:16:05 | 00:00:00 | |
| DL1XH1-15 | 2026-09-05 12:06:45 | 52.34008 | 11.75563 | 4° | 4km/h | 24249m | 4.8m/s | -50.9°C | 3.3% | 30.2hPa | 2.6V | 03:40:30 | 02:16:02 | 00:00:00 | |
| DD8BA-10 | 2026-09-05 12:06:45 | 52.34013 | 11.75562 | 270° | 7km/h | 24279m | 5.3m/s | -50.5°C | 3.2% | 30.0hPa | 2.6V | 03:40:00 | 00:00:00 | 00:00:00 | |
| DO2SHX-10 | 2026-09-05 12:06:44 | 52.34013 | 11.75565 | 296° | 5km/h | 24273m | 6.4m/s | -50.7°C | 3.2% | 30.0hPa | 2.6V | 00:00:00 | 02:16:06 | 00:00:00 | |
| DB0UT-7 | 2026-09-05 12:06:43 | 52.34012 | 11.75566 | 8° | 13km/h | 24267m | 5.9m/s | -50.8°C | 3.2% | 30.1hPa | 2.6V | 00:00:00 | 00:00:00 | 00:00:00 | |
| DL4XJ-10 | 2026-09-05 12:06:42 | 52.34011 | 11.75565 | 28° | 9km/h | 24261m | 6.0m/s | -51.0°C | 0% | 0hPa | 2.6V | 00:00:00 | 00:00:00 | 00:00:00 | |
| DB0DAN | 2026-09-05 12:06:40 | 52.34008 | 11.75563 | 4° | 4km/h | 24249m | 4.8m/s | -50.9°C | 0.7% | 30.21hPa | 2.6V | 00:00:00 | 00:00:00 | 00:00:00 | |
| DL1XH-west | 2026-09-05 12:06:40 | 52.34008 | 11.75563 | 4° | 4km/h | 24249m | 4.8m/s | -50.9°C | 0% | 30.2hPa | 2.6V | 03:40:32 | 02:16:02 | 00:00:00 | |
| SO1NDE-10 | 2026-09-05 12:06:39 | 52.34008 | 11.75564 | 237° | 15km/h | 24245m | 4.2m/s | -50.7°C | 3.3% | 30.2hPa | 2.6V | 00:00:00 | 02:16:01 | 00:00:00 | |
| DL1XH-15 | 2026-09-05 12:06:38 | 52.34014 | 11.75566 | 192° | 15km/h | 24227m | 5.7m/s | -50.8°C | 3.3% | 30.3hPa | 2.7V | 03:40:34 | 02:15:58 | 00:00:00 | |
| AA1-15 | 2026-09-05 12:06:36 | 52.34014 | 11.75566 | 193° | 16km/h | 24227m | 5.7m/s | -50.8°C | 0% | 30.3hPa | 2.7V | 03:41:23 | 02:15:58 | 00:00:00 | |
| DC4HF-4 | 2026-09-05 12:06:36 | 52.34018 | 11.75569 | 203° | 16km/h | 24222m | 4.6m/s | -50.7°C | 0.8% | 30.3hPa | 2.6V | 00:00:00 | 00:00:00 | 00:00:00 | |
| DM0DOS-11 | 2026-09-05 12:06:35 | 52.34025 | 11.75577 | 233° | 18km/h | 24211m | 6.7m/s | -50.6°C | 3.3% | 30.4hPa | 2.6V | 03:40:37 | 02:15:55 | 00:00:00 | |
| DL1XH1-15 | 2026-09-05 12:06:35 | 52.34028 | 11.75595 | 268° | 11km/h | 24195m | 5.4m/s | -50.7°C | 3.3% | 30.4hPa | 2.7V | 03:40:40 | 02:15:52 | 00:00:00 | |
| DD8BA-10 | 2026-09-05 12:06:35 | 52.34018 | 11.75569 | 204° | 13km/h | 24222m | 4.6m/s | -50.7°C | 3.3% | 30.3hPa | 2.7V | 00:00:00 | 00:00:00 | 00:00:00 | |
| AM1SDL-15 | 2026-09-05 12:06:34 | 52.34022 | 11.75572 | 216° | 16km/h | 24217m | 5.3m/s | -50.6°C | 3.3% | 30.3hPa | 2.6V | 00:00:00 | 02:15:56 | 00:00:00 | |
| GOEST3-10 | 2026-09-05 12:06:33 | 52.34027 | 11.75584 | 252° | 11km/h | 24205m | 5.2m/s | -50.6°C | 3.3% | 30.3hPa | 2.7V | 00:00:00 | 02:15:54 | 00:00:00 | |
| DO2SHX-10 | 2026-09-05 12:06:32 | 52.34027 | 11.75584 | 252° | 15km/h | 24205m | 5.2m/s | -50.6°C | 3.3% | 30.3hPa | 2.7V | 00:00:00 | 02:15:54 | 00:00:00 | |
| DL1XH-15 | 2026-09-05 12:06:31 | 52.34034 | 11.75595 | 166° | 13km/h | 24174m | 5.3m/s | -50.7°C | 3.3% | 30.5hPa | 2.7V | 03:40:44 | 02:15:48 | 00:00:00 | |
| DL1XH-west | 2026-09-05 12:06:30 | 52.34028 | 11.75595 | 269° | 11km/h | 24195m | 5.4m/s | -50.7°C | 0% | 30.4hPa | 2.7V | 03:41:23 | 02:15:52 | 00:00:00 | |
| DF8AY | 2026-09-05 12:06:29 | 52.34028 | 11.75598 | 254° | 4km/h | 24190m | 6m/s | -50.6°C | 0% | 30.5hPa | 2.6V | 03:41:23 | 02:15:51 | 00:00:00 | |
| AA1-15 | 2026-09-05 12:06:26 | 52.34034 | 11.75595 | 167° | 13km/h | 24174m | 5.3m/s | -50.8°C | 0% | 30.5hPa | 2.7V | 03:41:23 | 02:15:48 | 00:00:00 | |
| DB0DAN | 2026-09-05 12:06:25 | 52.34038 | 11.75595 | 181° | 16km/h | 24169m | 6.4m/s | -50.7°C | 0.7% | 30.59hPa | 2.7V | 00:00:00 | 00:00:00 | 00:00:00 | |
| DL1XH1-15 | 2026-09-05 12:06:25 | 52.34063 | 11.75606 | 190° | 18km/h | 24141m | 6.1m/s | -50.7°C | 3.3% | 30.7hPa | 2.7V | 03:40:50 | 02:15:42 | 00:00:00 | |
| DL1XH-west | 2026-09-05 12:06:19 | 52.34067 | 11.75607 | 190° | 16km/h | 24135m | 5.4m/s | -50.7°C | 0% | 30.8hPa | 2.7V | 03:41:23 | 02:15:41 | 00:00:00 | |
| DL1XH-15 | 2026-09-05 12:06:18 | 52.34078 | 11.75614 | 211° | 16km/h | 24119m | 6m/s | -50.7°C | 3.3% | 30.8hPa | 2.6V | 03:40:54 | 02:15:38 | 00:00:00 | |
| AA1-15 | 2026-09-05 12:06:16 | 52.34078 | 11.75614 | 212° | 16km/h | 24119m | 6m/s | -50.7°C | 0% | 30.8hPa | 2.6V | 03:41:23 | 02:15:38 | 00:00:00 | |
| SONDE2-11 | 2026-09-05 12:06:15 | 52.34084 | 11.75620 | 205° | 11km/h | 24108m | 5.2m/s | -50.7°C | 0.8% | 30.9hPa | 2.7V | 00:00:00 | 00:00:00 | 00:00:00 | |
| DO2SHX-10 | 2026-09-05 12:06:14 | 52.34084 | 11.75620 | 206° | 11km/h | 24108m | 5.2m/s | -50.6°C | 3.3% | 30.8hPa | 2.7V | 00:00:00 | 02:15:36 | 00:00:00 | |
| DF8AY-15 | 2026-09-05 12:06:13 | 52.34087 | 11.75621 | 185° | 15km/h | 24103m | 6.4m/s | -50.7°C | 3.3% | 30.8hPa | 2.6V | 00:00:00 | 02:15:35 | 00:00:00 | |
| GOEST3-10 | 2026-09-05 12:06:12 | 52.34089 | 11.75621 | 156° | 13km/h | 24096m | 5.5m/s | -50.7°C | 3.3% | 30.9hPa | 2.6V | 00:00:00 | 02:15:34 | 00:00:00 | |
| DL1XH-15 | 2026-09-05 12:06:11 | 52.34109 | 11.75616 | 182° | 16km/h | 24064m | 6.2m/s | -50.5°C | 3.2% | 31.1hPa | 2.6V | 03:41:04 | 02:15:28 | 00:00:00 | |
| HSKMA3-T | 2026-09-05 12:06:08 | 52.34101 | 11.75615 | 182° | 16km/h | 24073m | 4.9m/s | -50.5°C | 0.1% | 31.1hPa | 2.6V | 03:41:23 | 02:15:30 | 00:00:00 | |
| DL1XH-west | 2026-09-05 12:06:07 | 52.34106 | 11.75615 | 185° | 16km/h | 24069m | 4.3m/s | -50.5°C | 0% | 31.1hPa | 2.6V | 03:41:23 | 02:15:29 | 00:00:00 | |
| AA1-15 | 2026-09-05 12:06:05 | 52.34113 | 11.75616 | 178° | 15km/h | 24058m | 6m/s | -50.5°C | 0% | 31.1hPa | 2.7V | 03:41:23 | 02:15:27 | 00:00:00 | |
| DL1XH1-15 | 2026-09-05 12:06:05 | 52.34137 | 11.75616 | 175° | 18km/h | 24029m | 5.4m/s | -50.3°C | 3.2% | 31.2hPa | 2.6V | 03:41:10 | 02:15:22 | 00:00:00 | |
| DD8BA-10 | 2026-09-05 12:06:05 | 52.34113 | 11.75616 | 178° | 16km/h | 24058m | 5.9m/s | -50.4°C | 3.2% | 31.1hPa | 2.7V | 03:41:00 | 00:00:00 | 00:00:00 | |
| TFSTFS | 2026-09-05 12:06:03 | 52.34117 | 11.75615 | 179° | 16km/h | 24052m | 5.1m/s | -50.4°C | 0.7% | 31.1hPa | 2.6V | 00:00:00 | 00:00:00 | 00:00:00 | |
| DO2SHX-10 | 2026-09-05 12:06:02 | 52.34126 | 11.75616 | 184° | 20km/h | 24040m | 6.4m/s | -50.4°C | 3.3% | 31.2hPa | 2.6V | 00:00:00 | 02:15:24 | 00:00:00 | |
| DC4HF-4 | 2026-09-05 12:06:00 | 52.34140 | 11.75615 | 165° | 13km/h | 24023m | 6.4m/s | -50.4°C | 0.8% | 31.3hPa | 2.6V | 00:00:00 | 00:00:00 | 00:00:00 | |
| DO2SHX-10 | 2026-09-05 12:05:59 | 52.34140 | 11.75615 | 166° | 13km/h | 24023m | 6.4m/s | -50.3°C | 3.3% | 31.2hPa | 2.6V | 00:00:00 | 02:15:21 | 00:00:00 | |
| DL1XH-15 | 2026-09-05 12:05:58 | 52.34150 | 11.75610 | 172° | 13km/h | 24007m | 6.6m/s | -50.4°C | 3.2% | 31.4hPa | 2.6V | 03:41:14 | 02:15:18 | 00:00:00 | |
| HSKMA3-T | 2026-09-05 12:05:58 | 52.34144 | 11.75613 | 159° | 13km/h | 24017m | 4.9m/s | -50.3°C | 0% | 31.3hPa | 2.7V | 03:41:23 | 02:15:20 | 00:00:00 | |
| DL1XH-west | 2026-09-05 12:05:57 | 52.34147 | 11.75611 | 162° | 11km/h | 24013m | 4.7m/s | -50.3°C | 0% | 31.3hPa | 2.7V | 03:41:23 | 02:15:19 | 00:00:00 | |
| GOEST3-10 | 2026-09-05 12:05:57 | 52.34147 | 11.75611 | 162° | 13km/h | 24013m | 4.6m/s | -50.3°C | 3.2% | 31.3hPa | 2.6V | 00:00:00 | 00:00:00 | 00:00:00 | |
| DO2SHX-10 | 2026-09-05 12:05:56 | 52.34149 | 11.75610 | 173° | 13km/h | 24007m | 6.5m/s | -50.3°C | 3.2% | 31.3hPa | 2.6V | 00:00:00 | 02:15:18 | 00:00:00 | |
| DL1XH1-15 | 2026-09-05 12:05:55 | 52.34167 | 11.75611 | 183° | 13km/h | 23973m | 6.1m/s | -50.2°C | 3.2% | 31.5hPa | 2.6V | 03:41:20 | 02:15:12 | 00:00:00 | |
| AA1-15 | 2026-09-05 12:05:54 | 52.34156 | 11.75610 | 185° | 13km/h | 23996m | 4.7m/s | -50.3°C | 0% | 31.4hPa | 2.7V | 03:41:23 | 02:15:16 | 00:00:00 | |
| BUE01 | 2026-09-05 12:05:54 | 52.34159 | 11.75611 | 184° | 9km/h | 23990m | 6.8m/s | -50.3°C | 0.7% | 31.4hPa | 2.7V | 00:00:00 | 00:00:00 | 00:00:00 | |
| DO2SHX-10 | 2026-09-05 12:05:53 | 52.34159 | 11.75611 | 185° | 9km/h | 23991m | 6.7m/s | -50.3°C | 3.2% | 31.4hPa | 2.7V | 03:41:00 | 02:15:15 | 00:00:00 | |
| GOEST3-10 | 2026-09-05 12:05:52 | 52.34162 | 11.75611 | 180° | 15km/h | 23984m | 5.8m/s | -50.2°C | 3.2% | 31.4hPa | 2.7V | 00:00:00 | 02:15:14 | 00:00:00 | |
| DL1XH-15 | 2026-09-05 12:05:51 | 52.34183 | 11.75612 | 168° | 15km/h | 23951m | 6.5m/s | -50.3°C | 3.2% | 31.6hPa | 2.7V | 03:41:24 | 02:15:08 | 00:00:00 | |
| DF8AY | 2026-09-05 12:05:48 | 52.34175 | 11.75613 | 184° | 18km/h | 23962m | 4.6m/s | -50.2°C | 0% | 31.6hPa | 2.7V | 03:41:23 | 02:15:10 | 00:00:00 | |
| HSKMA3-T | 2026-09-05 12:05:47 | 52.34179 | 11.75613 | 177° | 16km/h | 23957m | 5.7m/s | -50.3°C | 0% | 31.6hPa | 2.7V | 03:41:23 | 02:15:09 | 00:00:00 | |
| DL1XH-west | 2026-09-05 12:05:47 | 52.34186 | 11.75610 | 160° | 13km/h | 23946m | 4.4m/s | -50.4°C | 0% | 31.6hPa | 2.6V | 03:42:14 | 02:15:07 | 00:00:00 | |
| DL1XH1-15 | 2026-09-05 12:05:46 | 52.34202 | 11.75604 | 166° | 7km/h | 23919m | 6.7m/s | -50.4°C | 3.2% | 31.8hPa | 2.7V | 03:41:30 | 02:15:02 | 00:00:00 | |
| AA1-15 | 2026-09-05 12:05:43 | 52.34193 | 11.75607 | 167° | 15km/h | 23935m | 6.3m/s | -50.4°C | 0% | 31.7hPa | 2.6V | 03:42:14 | 02:15:05 | 00:00:00 | |
| DB0UT-7 | 2026-09-05 12:05:43 | 52.34193 | 11.75607 | 167° | 9km/h | 23935m | 6.2m/s | -50.4°C | 3.2% | 31.7hPa | 2.7V | 00:00:00 | 00:00:00 | 00:00:00 | |
| GOEST3-10 | 2026-09-05 12:05:42 | 52.34197 | 11.75606 | 172° | 9km/h | 23930m | 4.5m/s | -50.4°C | 3.2% | 31.7hPa | 2.7V | 00:00:00 | 02:15:04 | 00:00:00 | |
| DB0DAN | 2026-09-05 12:05:40 | 52.34202 | 11.75604 | 167° | 7km/h | 23919m | 6.7m/s | -50.4°C | 0.8% | 31.77hPa | 2.7V | 00:00:00 | 00:00:00 | 00:00:00 | |
| DF8AY | 2026-09-05 12:05:38 | 52.34205 | 11.75604 | 182° | 5km/h | 23907m | 5.3m/s | -50.5°C | 0% | 31.8hPa | 2.6V | 03:42:14 | 02:15:00 | 00:00:00 | |
| DL1XH-15 | 2026-09-05 12:05:38 | 52.34209 | 11.75605 | 193° | 13km/h | 23896m | 5.3m/s | -50.3°C | 3.3% | 31.9hPa | 2.7V | 03:41:34 | 02:14:58 | 00:00:00 | |
| HSKMA3-T | 2026-09-05 12:05:37 | 52.34206 | 11.75604 | 191° | 9km/h | 23902m | 6.3m/s | -50.4°C | 0% | 31.9hPa | 2.7V | 03:42:14 | 02:14:59 | 00:00:00 | |
| DL1XH-west | 2026-09-05 12:05:36 | 52.34209 | 11.75605 | 194° | 13km/h | 23896m | 5.4m/s | -50.3°C | 0% | 31.9hPa | 2.7V | 03:42:14 | 02:14:58 | 00:00:00 | |
| AA1-15 | 2026-09-05 12:05:32 | 52.34219 | 11.75608 | 196° | 7km/h | 23874m | 5m/s | -50.3°C | 0% | 32hPa | 2.7V | 03:42:14 | 02:14:54 | 00:00:00 | |
| DO2SHX-10 | 2026-09-05 12:05:32 | 52.34219 | 11.75608 | 196° | 9km/h | 23875m | 4.9m/s | -50.3°C | 3.2% | 32.0hPa | 2.7V | 00:00:00 | 02:14:54 | 00:00:00 | |
| DL1XH-15 | 2026-09-05 12:05:31 | 52.34234 | 11.75614 | 156° | 7km/h | 23837m | 4.6m/s | -50.2°C | 3.1% | 32.2hPa | 2.7V | 03:41:45 | 02:14:47 | 00:00:00 | |
| DF8AY | 2026-09-05 12:05:28 | 52.34228 | 11.75614 | 195° | 11km/h | 23853m | 4.2m/s | -50.3°C | 0% | 32.1hPa | 2.6V | 03:42:14 | 02:14:50 | 00:00:00 | |
| HSKMA3-T | 2026-09-05 12:05:27 | 52.34230 | 11.75615 | 185° | 7km/h | 23848m | 6.2m/s | -50.4°C | 0% | 32.1hPa | 2.7V | 03:42:14 | 02:14:49 | 00:00:00 | |
| DL1XH-west | 2026-09-05 12:05:26 | 52.34234 | 11.75614 | 157° | 7km/h | 23837m | 4.6m/s | -50.2°C | 0% | 32.2hPa | 2.7V | 03:42:14 | 02:14:47 | 00:00:00 | |
| DM0DOS-11 | 2026-09-05 12:05:26 | 52.34238 | 11.75612 | 174° | 13km/h | 23827m | 6m/s | -50.4°C | 3.2% | 32.2hPa | 2.6V | 03:41:47 | 02:14:45 | 00:00:00 | |
| DL1XH1-15 | 2026-09-05 12:05:25 | 52.34250 | 11.75615 | 196° | 16km/h | 23810m | 5m/s | -50.2°C | 3.2% | 32.3hPa | 2.7V | 03:41:50 | 02:14:42 | 00:00:00 | |
| DB0DAN | 2026-09-05 12:05:25 | 52.34234 | 11.75614 | 157° | 7km/h | 23837m | 4.6m/s | -50.2°C | 0.7% | 32.18hPa | 2.7V | 00:00:00 | 00:00:00 | 00:00:00 | |
| AA1-15 | 2026-09-05 12:05:22 | 52.34242 | 11.75612 | 185° | 16km/h | 23820m | 5.2m/s | -50.4°C | 0% | 32.3hPa | 2.6V | 03:42:14 | 02:14:44 | 00:00:00 | |
| DO3MHA-11 | 2026-09-05 12:05:21 | 52.34246 | 11.75613 | 192° | 11km/h | 23816m | 4.7m/s | -50.3°C | 3.3% | 32.3hPa | 2.7V | 03:41:00 | 02:14:43 | 00:00:00 | |
| DO2SHX-10 | 2026-09-05 12:05:20 | 52.34250 | 11.75614 | 197° | 13km/h | 23811m | 5.0m/s | -50.2°C | 3.2% | 32.3hPa | 2.7V | 00:00:00 | 02:14:42 | 00:00:00 | |
| DL1XH-15 | 2026-09-05 12:05:18 | 52.34259 | 11.75620 | 203° | 5km/h | 23791m | 4.7m/s | -50.2°C | 3.3% | 32.4hPa | 2.7V | 03:41:54 | 02:14:38 | 00:00:00 | |
| DF8AY | 2026-09-05 12:05:17 | 52.34258 | 11.75619 | 205° | 5km/h | 23795m | 4.4m/s | -50.2°C | 0% | 32.4hPa | 2.6V | 03:42:14 | 02:14:39 | 00:00:00 | |
| HSKMA3-T | 2026-09-05 12:05:16 | 52.34261 | 11.75621 | 207° | 7km/h | 23786m | 5.8m/s | -50.3°C | 0% | 32.4hPa | 2.7V | 03:42:14 | 02:14:37 | 00:00:00 | |
| DL1XH-west | 2026-09-05 12:05:15 | 52.34263 | 11.75623 | 216° | 11km/h | 23780m | 5m/s | -50.3°C | 0% | 32.5hPa | 2.6V | 03:42:14 | 02:14:36 | 00:00:00 | |
| DM0DOS-11 | 2026-09-05 12:05:15 | 52.34265 | 11.75626 | 224° | 13km/h | 23775m | 4.4m/s | -50.3°C | 3.2% | 32.5hPa | 2.6V | 03:41:57 | 02:14:35 | 00:00:00 | |
| AA1-15 | 2026-09-05 12:05:11 | 52.34268 | 11.75635 | 251° | 11km/h | 23764m | 6.3m/s | -50.4°C | 0% | 32.6hPa | 2.7V | 03:42:14 | 02:14:33 | 00:00:00 | |
| DO2SHX-10 | 2026-09-05 12:05:11 | 52.34268 | 11.75635 | 251° | 13km/h | 23764m | 6.3m/s | -50.3°C | 3.1% | 32.5hPa | 2.7V | 00:00:00 | 02:14:33 | 00:00:00 | |
| SO1NDE-10 | 2026-09-05 12:05:09 | 52.34271 | 11.75645 | 241° | 16km/h | 23753m | 5.6m/s | -50.3°C | 3.2% | 32.5hPa | 2.6V | 03:42:00 | 02:14:31 | 00:00:00 | |
| DL1NUX | 2026-09-05 12:05:08 | 52.34288 | 11.75669 | 207° | 11km/h | 23722m | 4.4m/s | -50.3°C | 3.3% | 32.8hPa | 2.6V | 03:42:07 | 02:14:25 | 00:00:00 | |
| DF8AY | 2026-09-05 12:05:06 | 52.34280 | 11.75660 | 216° | 16km/h | 23737m | 4.1m/s | -50.4°C | 0% | 32.7hPa | 2.7V | 03:42:14 | 02:14:28 | 00:00:00 | |
| HSKMA3-T | 2026-09-05 12:05:05 | 52.34283 | 11.75664 | 218° | 15km/h | 23732m | 6.4m/s | -50.4°C | 0% | 32.7hPa | 2.7V | 03:42:14 | 02:14:27 | 00:00:00 | |
| DL1XH1-15 | 2026-09-05 12:05:05 | 52.34299 | 11.75675 | 190° | 16km/h | 23704m | 5.2m/s | -50.5°C | 3.4% | 32.9hPa | 2.7V | 03:42:10 | 02:14:22 | 00:00:00 | |
| DL1XH-west | 2026-09-05 12:05:04 | 52.34288 | 11.75669 | 208° | 11km/h | 23722m | 4.4m/s | -50.3°C | 0% | 32.8hPa | 2.6V | 03:42:14 | 02:14:25 | 00:00:00 | |
| AA1-15 | 2026-09-05 12:05:01 | 52.34295 | 11.75673 | 195° | 16km/h | 23710m | 6.2m/s | -50.5°C | 0.1% | 32.8hPa | 2.6V | 03:42:14 | 02:14:23 | 00:00:00 | |
| DO3MHA-11 | 2026-09-05 12:05:01 | 52.34295 | 11.75673 | 195° | 18km/h | 23710m | 6.1m/s | -50.5°C | 3.4% | 32.8hPa | 2.6V | 00:00:00 | 02:14:23 | 00:00:00 | |
| DL4XJ-10 | 2026-09-05 12:05:00 | 52.34299 | 11.75675 | 191° | 16km/h | 23705m | 5.2m/s | -50.7°C | 0% | 0hPa | 2.6V | 00:00:00 | 00:00:00 | 00:00:00 | |
| DO2SHX-10 | 2026-09-05 12:04:59 | 52.34302 | 11.75676 | 193° | 13km/h | 23699m | 5.6m/s | -50.4°C | 3.3% | 32.8hPa | 2.6V | 00:00:00 | 02:14:21 | 00:00:00 | |
| DL1XH-15 | 2026-09-05 12:04:58 | 52.34312 | 11.75680 | 188° | 15km/h | 23684m | 4m/s | -50.4°C | 3.2% | 33hPa | 2.6V | 03:42:14 | 02:14:18 | 00:00:00 | |
| DF8AY | 2026-09-05 12:04:56 | 52.34312 | 11.75680 | 189° | 15km/h | 23684m | 4m/s | -50.4°C | 0% | 33hPa | 2.6V | 03:42:14 | 02:14:18 | 00:00:00 | |
| DO2SHX-10 | 2026-09-05 12:04:56 | 52.34312 | 11.75680 | 189° | 18km/h | 23684m | 4.0m/s | -50.3°C | 3.2% | 32.9hPa | 2.6V | 00:00:00 | 02:14:18 | 00:00:00 | |
| DM0DOS-11 | 2026-09-05 12:04:55 | 52.34328 | 11.75683 | 187° | 26km/h | 23668m | 4.6m/s | -50.2°C | 3.2% | 33hPa | 2.6V | 03:42:17 | 02:14:15 | 00:00:00 | |
| DL1XH1-15 | 2026-09-05 12:04:55 | 52.34346 | 11.75689 | 194° | 22km/h | 23652m | 5.5m/s | -50.2°C | 3.2% | 33.1hPa | 2.7V | 03:42:20 | 02:14:12 | 00:00:00 | |
| HSKMA3-T | 2026-09-05 12:04:54 | 52.34322 | 11.75682 | 186° | 24km/h | 23673m | 5.8m/s | -50.4°C | 0% | 33hPa | 2.7V | 03:43:05 | 02:14:16 | 00:00:00 | |
| DL1XH-west | 2026-09-05 12:04:53 | 52.34328 | 11.75683 | 188° | 26km/h | 23668m | 4.6m/s | -50.2°C | 0% | 33hPa | 2.6V | 03:43:05 | 02:14:15 | 00:00:00 | |
| BUE01 | 2026-09-05 12:04:52 | 52.34340 | 11.75687 | 193° | 22km/h | 23658m | 6.1m/s | -50.2°C | 0.7% | 33.1hPa | 2.6V | 00:00:00 | 00:00:00 | 00:00:00 | |
| DL1XH-15 | 2026-09-05 12:04:51 | 52.34365 | 11.75690 | 161° | 20km/h | 23631m | 4.7m/s | -50.1°C | 3.2% | 33.2hPa | 2.6V | 03:42:24 | 02:14:08 | 00:00:00 | |
| AA1-15 | 2026-09-05 12:04:50 | 52.34346 | 11.75689 | 194° | 22km/h | 23652m | 5.5m/s | -50.3°C | 0% | 33.1hPa | 2.7V | 03:43:05 | 02:14:12 | 00:00:00 | |
| DF8AY | 2026-09-05 12:04:46 | 52.34365 | 11.75690 | 162° | 20km/h | 23631m | 4.7m/s | -50.1°C | 0% | 33.2hPa | 2.6V | 03:43:05 | 02:14:08 | 00:00:00 | |
| SMARD9-15 | 2026-09-05 12:04:46 | 52.34370 | 11.75687 | 150° | 15km/h | 23626m | 4.4m/s | -50.2°C | 0.7% | 33.3hPa | 2.7V | 00:00:00 | 00:00:00 | 00:00:00 | |
| DM0DOS-11 | 2026-09-05 12:04:45 | 52.34375 | 11.75681 | 135° | 9km/h | 23615m | 5.9m/s | -50°C | 3.1% | 33.3hPa | 2.7V | 03:42:27 | 02:14:05 | 00:00:00 | |
| DB0NH | 2026-09-05 12:04:45 | 52.34369 | 11.75687 | 151° | 20km/h | 23627m | 4.4m/s | -50.1°C | 3.2% | 33.2hPa | 2.6V | 00:00:00 | 02:14:07 | 00:00:00 | |
| DL1XH1-15 | 2026-09-05 12:04:44 | 52.34381 | 11.75672 | 151° | 16km/h | 23599m | 5.9m/s | -50.1°C | 3.1% | 33.4hPa | 2.6V | 03:42:30 | 02:14:02 | 00:00:00 | |
| DL1XH-west | 2026-09-05 12:04:43 | 52.34377 | 11.75678 | 132° | 9km/h | 23610m | 4.5m/s | -50°C | 0% | 33.3hPa | 2.6V | 03:43:05 | 02:14:04 | 00:00:00 | |
| DJ8HS-15 | 2026-09-05 12:04:43 | 52.34375 | 11.75680 | 136° | 20km/h | 23615m | 5.9m/s | 0°C | 0% | 0hPa | 2.6V | 00:00:00 | 02:14:05 | 00:00:00 | |
| GOEST3-10 | 2026-09-05 12:04:42 | 52.34377 | 11.75678 | 132° | 16km/h | 23610m | 4.5m/s | -50.0°C | 3.1% | 33.3hPa | 2.6V | 00:00:00 | 02:14:04 | 00:00:00 | |
| DB0DAN | 2026-09-05 12:04:40 | 52.34381 | 11.75672 | 151° | 15km/h | 23599m | 5.9m/s | -50.1°C | 0.7% | 33.38hPa | 2.6V | 00:00:00 | 00:00:00 | 00:00:00 | |
| AA1-15 | 2026-09-05 12:04:39 | 52.34386 | 11.75669 | 162° | 22km/h | 23594m | 5.2m/s | -50.1°C | 0% | 33.4hPa | 2.7V | 03:43:05 | 02:14:01 | 00:00:00 | |
| DF8AY | 2026-09-05 12:04:35 | 52.34409 | 11.75664 | 177° | 22km/h | 23573m | 4.8m/s | -50°C | 0% | 33.5hPa | 2.6V | 03:43:05 | 02:13:57 | 00:00:00 | |
| DL1XH1-15 | 2026-09-05 12:04:35 | 52.34435 | 11.75645 | 137° | 26km/h | 23547m | 4.5m/s | -50°C | 3.1% | 33.7hPa | 2.7V | 03:42:40 | 02:13:52 | 00:00:00 | |
| DL1XH-west | 2026-09-05 12:04:33 | 52.34419 | 11.75661 | 162° | 22km/h | 23564m | 5m/s | -49.9°C | 0% | 33.5hPa | 2.7V | 03:43:05 | 02:13:55 | 00:00:00 | |
| HSKMA3-T | 2026-09-05 12:04:31 | 52.34430 | 11.75652 | 142° | 26km/h | 23553m | 5.7m/s | -50°C | 0% | 33.6hPa | 2.6V | 03:43:05 | 02:13:53 | 00:00:00 | |
| AA1-15 | 2026-09-05 12:04:28 | 52.34443 | 11.75632 | 139° | 18km/h | 23537m | 6.6m/s | -50.2°C | 0% | 33.7hPa | 2.7V | 03:43:05 | 02:13:50 | 00:00:00 | |
| DF8AY | 2026-09-05 12:04:25 | 52.34453 | 11.75621 | 145° | 16km/h | 23520m | 6.2m/s | -50.4°C | 0% | 33.8hPa | 2.6V | 03:43:05 | 02:13:47 | 00:00:00 | |
| DL1XH-west | 2026-09-05 12:04:23 | 52.34460 | 11.75613 | 155° | 20km/h | 23510m | 4.1m/s | -50.5°C | 0% | 33.8hPa | 2.7V | 03:43:05 | 02:13:45 | 00:00:00 | |
| HSKMA3-T | 2026-09-05 12:04:20 | 52.34475 | 11.75603 | 152° | 22km/h | 23493m | 4.6m/s | -50.8°C | 0% | 33.9hPa | 2.6V | 03:43:05 | 02:13:42 | 00:00:00 | |
| DO2SHX-10 | 2026-09-05 12:04:20 | 52.34475 | 11.75603 | 153° | 26km/h | 23494m | 4.5m/s | -50.7°C | 3.3% | 33.9hPa | 2.7V | 00:00:00 | 02:13:42 | 00:00:00 | |
| DL4XJ-10 | 2026-09-05 12:04:19 | 52.34480 | 11.75598 | 144° | 24km/h | 23488m | 6.0m/s | -51.0°C | 0% | 0hPa | 2.7V | 00:00:00 | 00:00:00 | 00:00:00 | |
| DL1XH-15 | 2026-09-05 12:04:18 | 52.34494 | 11.75571 | 121° | 27km/h | 23471m | 5.6m/s | -50.8°C | 3.3% | 34hPa | 2.7V | 03:42:54 | 02:13:38 | 00:00:00 | |
| DL1NUX | 2026-09-05 12:04:18 | 52.34502 | 11.75544 | 103° | 22km/h | 23454m | 5.5m/s | -50.9°C | 3.3% | 34.1hPa | 2.7V | 03:42:57 | 02:13:35 | 00:00:00 | |
| AA1-15 | 2026-09-05 12:04:17 | 52.34490 | 11.75581 | 127° | 31km/h | 23476m | 5.1m/s | -50.9°C | 0% | 34hPa | 2.7V | 03:43:05 | 02:13:39 | 00:00:00 | |
| DF8AY | 2026-09-05 12:04:15 | 52.34498 | 11.75562 | 117° | 24km/h | 23465m | 6.1m/s | -50.8°C | 0% | 34.1hPa | 2.6V | 03:43:05 | 02:13:37 | 00:00:00 | |
| DL1XH-west | 2026-09-05 12:04:12 | 52.34503 | 11.75535 | 102° | 24km/h | 23448m | 6.6m/s | -50.7°C | 0% | 34.2hPa | 2.7V | 03:43:05 | 02:13:34 | 00:00:00 | |
| GOEST3-10 | 2026-09-05 12:04:12 | 52.34503 | 11.75535 | 103° | 18km/h | 23449m | 6.5m/s | -50.7°C | 3.3% | 34.1hPa | 2.6V | 00:00:00 | 02:13:34 | 00:00:00 | |
| DL1XH-15 | 2026-09-05 12:04:11 | 52.34509 | 11.75493 | 114° | 18km/h | 23416m | 6.7m/s | -50.8°C | 3.3% | 34.4hPa | 2.6V | 03:43:04 | 02:13:28 | 00:00:00 | |
| DB0DAN | 2026-09-05 12:04:10 | 52.34505 | 11.75517 | 97° | 18km/h | 23438m | 4.7m/s | -50.8°C | 0.8% | 34.21hPa | 2.6V | 00:00:00 | 00:00:00 | 00:00:00 | |
| HSKMA3-T | 2026-09-05 12:04:10 | 52.34505 | 11.75517 | 97° | 18km/h | 23438m | 4.7m/s | -50.8°C | 0% | 34.2hPa | 2.6V | 03:43:05 | 02:13:32 | 00:00:00 | |
| DF8AY | 2026-09-05 12:04:09 | 52.34514 | 11.75477 | 125° | 26km/h | 23404m | 4.6m/s | -50.8°C | 0% | 34.4hPa | 2.6V | 03:43:56 | 02:13:26 | 00:00:00 | |
| AA1-15 | 2026-09-05 12:04:07 | 52.34507 | 11.75500 | 109° | 15km/h | 23421m | 4.6m/s | -50.7°C | 0% | 34.3hPa | 2.7V | 03:43:05 | 02:13:29 | 00:00:00 | |
| GOEST3-10 | 2026-09-05 12:04:07 | 52.34507 | 11.75499 | 110° | 22km/h | 23421m | 4.5m/s | -50.7°C | 3.3% | 34.3hPa | 2.7V | 03:43:00 | 00:00:00 | 00:00:00 | |
| EDDB2-12 | 2026-09-05 12:04:06 | 52.34508 | 11.75493 | 114° | 18km/h | 23416m | 6.7m/s | -50.8°C | 0.8% | 34.4hPa | 2.7V | 00:00:00 | 00:00:00 | 00:00:00 | |
| DM0DOS-11 | 2026-09-05 12:04:05 | 52.34518 | 11.75469 | 130° | 26km/h | 23399m | 6.3m/s | -50.9°C | 3.3% | 34.4hPa | 2.7V | 03:43:07 | 02:13:25 | 00:00:00 | |
| DL1XH1-15 | 2026-09-05 12:04:05 | 52.34531 | 11.75446 | 131° | 26km/h | 23383m | 5.7m/s | -50.9°C | 3.3% | 34.5hPa | 2.6V | 03:43:10 | 02:13:22 | 00:00:00 | |
| DL1XH-west | 2026-09-05 12:04:02 | 52.34522 | 11.75461 | 135° | 26km/h | 23393m | 5.7m/s | -50.8°C | 0% | 34.5hPa | 2.7V | 03:43:56 | 02:13:24 | 00:00:00 | |
| HSKMA3-T | 2026-09-05 12:03:59 | 52.34536 | 11.75438 | 128° | 26km/h | 23377m | 5.8m/s | -50.8°C | 0% | 34.5hPa | 2.6V | 03:43:56 | 02:13:21 | 00:00:00 | |
| AA1-15 | 2026-09-05 12:03:56 | 52.34545 | 11.75416 | 131° | 16km/h | 23360m | 5.9m/s | -50.9°C | 0% | 34.6hPa | 2.7V | 03:43:56 | 02:13:18 | 00:00:00 | |
| DO2SHX-10 | 2026-09-05 12:03:56 | 52.34545 | 11.75416 | 131° | 16km/h | 23360m | 5.8m/s | -50.9°C | 3.3% | 34.6hPa | 2.6V | 00:00:00 | 02:13:18 | 00:00:00 | |
| DM0DOS-11 | 2026-09-05 12:03:55 | 52.34555 | 11.75402 | 138° | 20km/h | 23345m | 5.8m/s | -51°C | 3.3% | 34.7hPa | 2.6V | 03:43:17 | 02:13:15 | 00:00:00 | |
| DF8AY | 2026-09-05 12:03:55 | 52.34552 | 11.75407 | 141° | 16km/h | 23350m | 4.3m/s | -50.9°C | 0% | 34.7hPa | 2.6V | 03:43:56 | 02:13:16 | 00:00:00 | |
| HTAHTA | 2026-09-05 12:03:55 | 52.34555 | 11.75402 | 138° | 20km/h | 23345m | 5.8m/s | -51.0°C | 0.8% | 34.7hPa | 2.6V | 00:00:00 | 00:00:00 | 00:00:00 | |
| DL1XH1-15 | 2026-09-05 12:03:54 | 52.34570 | 11.75381 | 138° | 27km/h | 23328m | 4.8m/s | -51°C | 3.3% | 34.8hPa | 2.6V | 03:43:20 | 02:13:12 | 00:00:00 | |
| DL1XH-west | 2026-09-05 12:03:52 | 52.34564 | 11.75388 | 136° | 27km/h | 23333m | 5.2m/s | -50.9°C | 0% | 34.8hPa | 2.7V | 03:43:56 | 02:13:13 | 00:00:00 | |
| DL1XH-15 | 2026-09-05 12:03:51 | 52.34590 | 11.75359 | 146° | 22km/h | 23307m | 5.6m/s | -51.2°C | 3.4% | 34.9hPa | 2.7V | 03:43:24 | 02:13:08 | 00:00:00 | |
| HSKMA3-T | 2026-09-05 12:03:49 | 52.34575 | 11.75374 | 144° | 26km/h | 23322m | 6.2m/s | -51.1°C | 0% | 34.8hPa | 2.6V | 03:43:56 | 02:13:11 | 00:00:00 | |
| AA1-15 | 2026-09-05 12:03:46 | 52.34590 | 11.75359 | 147° | 22km/h | 23307m | 5.6m/s | -51.2°C | 0.1% | 34.9hPa | 2.7V | 03:43:56 | 02:13:08 | 00:00:00 | |
| DF8AY | 2026-09-05 12:03:43 | 52.34604 | 11.75337 | 130° | 27km/h | 23290m | 4.7m/s | -51.1°C | 0.1% | 35hPa | 2.6V | 03:43:56 | 02:13:05 | 00:00:00 | |
| DL1XH1-15 | 2026-09-05 12:03:43 | 52.34618 | 11.75314 | 142° | 24km/h | 23274m | 5.9m/s | -51°C | 3.4% | 35.1hPa | 2.7V | 03:43:30 | 02:13:02 | 00:00:00 | |
| DL1XH-west | 2026-09-05 12:03:41 | 52.34618 | 11.75314 | 142° | 24km/h | 23275m | 5.9m/s | -51.1°C | 0.1% | 35.1hPa | 2.7V | 03:43:56 | 02:13:02 | 00:00:00 | |
| S3001 | 2026-09-05 12:03:40 | 52.34623 | 11.75307 | 145° | 26km/h | 23269m | 4.9m/s | -51.0°C | 0.8% | 35.1hPa | 2.7V | 00:00:00 | 00:00:00 | 00:00:00 | |
| AM1SDL-15 | 2026-09-05 12:03:39 | 52.34629 | 11.75301 | 145° | 31km/h | 23264m | 5.8m/s | -50.9°C | 3.3% | 35.1hPa | 2.7V | 03:43:00 | 02:13:00 | 00:00:00 | |
| DL1XH-15 | 2026-09-05 12:03:38 | 52.34642 | 11.75282 | 133° | 37km/h | 23251m | 4.8m/s | -50.8°C | 3.3% | 35.2hPa | 2.7V | 03:43:34 | 02:12:58 | 00:00:00 | |
| HSKMA3-T | 2026-09-05 12:03:38 | 52.34629 | 11.75301 | 144° | 31km/h | 23264m | 5.8m/s | -51°C | 0% | 35.1hPa | 2.6V | 03:43:56 | 02:13:00 | 00:00:00 | |
| DL1NUX | 2026-09-05 12:03:38 | 52.34658 | 11.75251 | 118° | 27km/h | 23235m | 5.3m/s | -50.8°C | 3.3% | 35.3hPa | 2.6V | 03:43:37 | 02:12:55 | 00:00:00 | |
| AA1-15 | 2026-09-05 12:03:35 | 52.34648 | 11.75272 | 132° | 35km/h | 23246m | 4.8m/s | -50.8°C | 0% | 35.2hPa | 2.7V | 03:43:56 | 02:12:57 | 00:00:00 | |
| DF8AY | 2026-09-05 12:03:33 | 52.34658 | 11.75251 | 118° | 27km/h | 23235m | 5.3m/s | -50.8°C | 0% | 35.3hPa | 2.6V | 03:43:56 | 02:12:55 | 00:00:00 | |
| DF8AY-15 | 2026-09-05 12:03:33 | 52.34658 | 11.75251 | 119° | 27km/h | 23236m | 5.2m/s | -50.7°C | 3.3% | 35.2hPa | 2.7V | 00:00:00 | 02:12:55 | 00:00:00 | |
| DO9LL-15 | 2026-09-05 12:03:32 | 52.34660 | 11.75241 | 108° | 26km/h | 23231m | 4.4m/s | -50.7°C | 3.3% | 35.3hPa | 2.7V | 03:43:00 | 02:12:54 | 00:00:00 | |
| DL1XH-15 | 2026-09-05 12:03:31 | 52.34666 | 11.75175 | 111° | 20km/h | 23197m | 5.3m/s | -50.5°C | 3.2% | 35.5hPa | 2.7V | 03:43:44 | 02:12:48 | 00:00:00 | |
| DL1XH-west | 2026-09-05 12:03:30 | 52.34664 | 11.75205 | 95° | 29km/h | 23213m | 5m/s | -50.7°C | 0% | 35.4hPa | 2.6V | 03:43:56 | 02:12:51 | 00:00:00 | |
| HSKMA3-T | 2026-09-05 12:03:27 | 52.34665 | 11.75184 | 100° | 22km/h | 23203m | 6.2m/s | -50.6°C | 0% | 35.5hPa | 2.7V | 03:43:56 | 02:12:49 | 00:00:00 | |
| GOEST3-10 | 2026-09-05 12:03:27 | 52.34665 | 11.75184 | 100° | 24km/h | 23203m | 6.2m/s | -50.5°C | 3.2% | 35.4hPa | 2.6V | 03:43:00 | 00:00:00 | 00:00:00 | |
| DO2SHX-10 | 2026-09-05 12:03:26 | 52.34666 | 11.75175 | 112° | 22km/h | 23197m | 5.3m/s | -50.5°C | 3.2% | 35.4hPa | 2.6V | 00:00:00 | 02:12:48 | 00:00:00 | |
| DM0DOS-11 | 2026-09-05 12:03:25 | 52.34677 | 11.75152 | 132° | 29km/h | 23180m | 5.8m/s | -50.6°C | 3.3% | 35.6hPa | 2.6V | 03:43:47 | 02:12:45 | 00:00:00 | |
| AA1-15 | 2026-09-05 12:03:25 | 52.34669 | 11.75168 | 123° | 22km/h | 23192m | 4.9m/s | -50.5°C | 0% | 35.5hPa | 2.7V | 03:43:56 | 02:12:47 | 00:00:00 | |
| SONCRA | 2026-09-05 12:03:24 | 52.34677 | 11.75152 | 132° | 29km/h | 23180m | 5.8m/s | -50.6°C | 0.8% | 35.6hPa | 2.7V | 00:00:00 | 00:00:00 | 00:00:00 | |
| DL1XH1-15 | 2026-09-05 12:03:23 | 52.34692 | 11.75123 | 127° | 29km/h | 23164m | 5.9m/s | -50.7°C | 3.2% | 35.7hPa | 2.7V | 03:43:50 | 02:12:42 | 00:00:00 | |
| DF8AY | 2026-09-05 12:03:22 | 52.34682 | 11.75142 | 132° | 33km/h | 23175m | 4.8m/s | -50.6°C | 0.1% | 35.6hPa | 2.6V | 03:43:56 | 02:12:44 | 00:00:00 | |
| DL1XH-west | 2026-09-05 12:03:19 | 52.34696 | 11.75113 | 117° | 26km/h | 23159m | 5.6m/s | -50.8°C | 0% | 35.7hPa | 2.7V | 03:43:56 | 02:12:41 | 00:00:00 | |
| HSKMA3-T | 2026-09-05 12:03:16 | 52.34699 | 11.75079 | 87° | 33km/h | 23142m | 6.1m/s | -50.9°C | 0% | 35.8hPa | 2.6V | 03:43:56 | 02:12:38 | 00:00:00 | |
| AA1-15 | 2026-09-05 12:03:14 | 52.34696 | 11.75052 | 74° | 31km/h | 23132m | 5.6m/s | -50.8°C | 0% | 35.9hPa | 2.7V | 03:43:56 | 02:12:36 | 00:00:00 | |
| DO2SHX-10 | 2026-09-05 12:03:14 | 52.34696 | 11.75052 | 75° | 29km/h | 23132m | 5.5m/s | -50.7°C | 3.1% | 35.8hPa | 2.7V | 00:00:00 | 02:12:36 | 00:00:00 | |
| DL1XH1-15 | 2026-09-05 12:03:13 | 52.34689 | 11.75009 | 86° | 26km/h | 23108m | 6.4m/s | -50.6°C | 3.2% | 36hPa | 2.7V | 03:44:00 | 02:12:32 | 00:00:00 | |
| DF8AY | 2026-09-05 12:03:11 | 52.34689 | 11.75019 | 75° | 26km/h | 23114m | 5.5m/s | -50.6°C | 0% | 36hPa | 2.6V | 03:44:47 | 02:12:33 | 00:00:00 | |
| DL1XH-west | 2026-09-05 12:03:09 | 52.34690 | 11.74988 | 104° | 26km/h | 23097m | 4.7m/s | -50.7°C | 0% | 36hPa | 2.6V | 03:44:47 | 02:12:30 | 00:00:00 | |
| HSKMA3-T | 2026-09-05 12:03:06 | 52.34693 | 11.74969 | 105° | 20km/h | 23086m | 5.5m/s | -50.9°C | 0.1% | 36.1hPa | 2.7V | 03:44:47 | 02:12:28 | 00:00:00 | |
| AA1-15 | 2026-09-05 12:03:03 | 52.34693 | 11.74947 | 77° | 22km/h | 23071m | 5.8m/s | -51.4°C | 0.1% | 36.2hPa | 2.6V | 03:45:38 | 02:12:25 | 00:00:00 | |
| DF8AY | 2026-09-05 12:03:00 | 52.34685 | 11.74915 | 64° | 29km/h | 23054m | 5.6m/s | -51.6°C | 0.1% | 36.3hPa | 2.7V | 03:44:47 | 02:12:22 | 00:00:00 | |
| DL1XH-west | 2026-09-05 12:02:58 | 52.34676 | 11.74887 | 61° | 26km/h | 23037m | 5.1m/s | -51.5°C | 0% | 36.4hPa | 2.6V | 03:44:47 | 02:12:19 | 00:00:00 | |
| DL1XH-15 | 2026-09-05 12:02:58 | 52.34673 | 11.74878 | 64° | 26km/h | 23031m | 6.5m/s | -51.4°C | 3.4% | 36.4hPa | 2.6V | 03:44:14 | 02:12:18 | 00:00:00 | |
| GOEST3-10 | 2026-09-05 12:02:57 | 52.34676 | 11.74887 | 61° | 24km/h | 23037m | 5.0m/s | -51.4°C | 3.3% | 36.3hPa | 2.6V | 00:00:00 | 00:00:00 | 00:00:00 | |
| DB0DAN | 2026-09-05 12:02:55 | 52.34670 | 11.74868 | 69° | 24km/h | 23026m | 4.9m/s | -51.4°C | 0.8% | 36.46hPa | 2.6V | 00:00:00 | 00:00:00 | 00:00:00 | |
| HSKMA3-T | 2026-09-05 12:02:55 | 52.34670 | 11.74868 | 69° | 26km/h | 23026m | 4.9m/s | -51.4°C | 0% | 36.5hPa | 2.6V | 03:44:47 | 02:12:17 | 00:00:00 | |
| DD8BA-10 | 2026-09-05 12:02:54 | 52.34668 | 11.74859 | 73° | 16km/h | 23021m | 4.1m/s | -51.3°C | 3.4% | 36.4hPa | 2.6V | 00:00:00 | 00:00:00 | 00:00:00 | |
| DL1XH1-15 | 2026-09-05 12:02:53 | 52.34665 | 11.74835 | 77° | 11km/h | 22999m | 5m/s | -51.2°C | 3.5% | 36.6hPa | 2.6V | 03:44:20 | 02:12:12 | 00:00:00 | |
| AA1-15 | 2026-09-05 12:02:52 | 52.34666 | 11.74844 | 76° | 13km/h | 23010m | 6.3m/s | -51.3°C | 0.2% | 36.5hPa | 2.7V | 03:45:38 | 02:12:14 | 00:00:00 | |
| GOEST3-10 | 2026-09-05 12:02:52 | 52.34666 | 11.74844 | 77° | 13km/h | 23010m | 6.2m/s | -51.3°C | 3.5% | 36.5hPa | 2.6V | 00:00:00 | 02:12:14 | 00:00:00 | |
| DL1XH-15 | 2026-09-05 12:02:51 | 52.34658 | 11.74811 | 56° | 18km/h | 22977m | 5.5m/s | -51.4°C | 3.4% | 36.7hPa | 2.6V | 03:44:24 | 02:12:08 | 00:00:00 | |
| DF8AY | 2026-09-05 12:02:50 | 52.34665 | 11.74835 | 77° | 11km/h | 22999m | 5m/s | -51.3°C | 0.1% | 36.6hPa | 2.6V | 03:44:47 | 02:12:12 | 00:00:00 | |
| DL1XH-west | 2026-09-05 12:02:47 | 52.34661 | 11.74818 | 66° | 18km/h | 22982m | 4.8m/s | -51.4°C | 0.1% | 36.7hPa | 2.6V | 03:44:47 | 02:12:09 | 00:00:00 | |
| HSKMA3-T | 2026-09-05 12:02:44 | 52.34653 | 11.74800 | 44° | 16km/h | 22965m | 5m/s | -51.4°C | 0.1% | 36.8hPa | 2.7V | 03:44:47 | 02:12:06 | 00:00:00 | |
| DO2SHX-10 | 2026-09-05 12:02:44 | 52.34653 | 11.74800 | 45° | 18km/h | 22965m | 5.0m/s | -51.3°C | 3.4% | 36.8hPa | 2.6V | 00:00:00 | 02:12:06 | 00:00:00 | |
| DL1XH1-15 | 2026-09-05 12:02:43 | 52.34642 | 11.74774 | 72° | 18km/h | 22944m | 5.4m/s | -51.3°C | 3.4% | 36.9hPa | 2.6V | 03:44:30 | 02:12:02 | 00:00:00 | |
| AA1-15 | 2026-09-05 12:02:42 | 52.34647 | 11.74789 | 56° | 20km/h | 22955m | 6m/s | -51.3°C | 0.1% | 36.9hPa | 2.6V | 03:45:38 | 02:12:04 | 00:00:00 | |
| DF8AY | 2026-09-05 12:02:39 | 52.34641 | 11.74768 | 81° | 15km/h | 22938m | 6.3m/s | -51.1°C | 0.1% | 36.9hPa | 2.7V | 03:44:47 | 02:12:01 | 00:00:00 | |
| SO1NDE-10 | 2026-09-05 12:02:39 | 52.34641 | 11.74768 | 82° | 13km/h | 22938m | 6.2m/s | -51.1°C | 3.4% | 36.9hPa | 2.6V | 00:00:00 | 02:12:01 | 00:00:00 | |
| DL1XH-15 | 2026-09-05 12:02:38 | 52.34642 | 11.74758 | 118° | 7km/h | 22921m | 5m/s | -50.8°C | 3.4% | 37hPa | 2.6V | 03:44:34 | 02:11:58 | 00:00:00 | |
| DM0DOS-11 | 2026-09-05 12:02:38 | 52.34643 | 11.74748 | 75° | 9km/h | 22905m | 4.2m/s | -50.9°C | 3.3% | 37.1hPa | 2.7V | 03:44:37 | 02:11:55 | 00:00:00 | |
| DL1XH-west | 2026-09-05 12:02:37 | 52.34642 | 11.74761 | 115° | 5km/h | 22926m | 4.8m/s | -50.9°C | 0.1% | 37hPa | 2.7V | 03:44:47 | 02:11:59 | 00:00:00 | |
| HSKMA3-T | 2026-09-05 12:02:34 | 52.34643 | 11.74748 | 75° | 9km/h | 22905m | 4.2m/s | -50.9°C | 0% | 37.1hPa | 2.7V | 03:44:47 | 02:11:55 | 00:00:00 | |
| DL1XH1-15 | 2026-09-05 12:02:33 | 52.34640 | 11.74739 | 51° | 7km/h | 22889m | 5.3m/s | -51°C | 3.3% | 37.2hPa | 2.6V | 03:44:40 | 02:11:52 | 00:00:00 | |
| AA1-15 | 2026-09-05 12:02:31 | 52.34641 | 11.74741 | 48° | 7km/h | 22895m | 6.1m/s | -51°C | 0% | 37.2hPa | 2.7V | 03:45:38 | 02:11:53 | 00:00:00 | |
| DF8AY | 2026-09-05 12:02:29 | 52.34639 | 11.74736 | 65° | 9km/h | 22883m | 5.6m/s | -50.9°C | 0.1% | 37.3hPa | 2.6V | 03:44:47 | 02:11:51 | 00:00:00 | |
| DL1XH-west | 2026-09-05 12:02:27 | 52.34638 | 11.74726 | 97° | 15km/h | 22872m | 4.8m/s | -50.7°C | 0% | 37.3hPa | 2.7V | 03:44:47 | 02:11:49 | 00:00:00 | |
| GOEST3-10 | 2026-09-05 12:02:27 | 52.34638 | 11.74726 | 97° | 15km/h | 22872m | 4.8m/s | -50.7°C | 3.3% | 37.3hPa | 2.7V | 03:44:00 | 00:00:00 | 00:00:00 | |
| DO2SHX-10 | 2026-09-05 12:02:26 | 52.34639 | 11.74720 | 106° | 15km/h | 22868m | 5.3m/s | -50.7°C | 3.2% | 37.3hPa | 2.7V | 00:00:00 | 02:11:48 | 00:00:00 | |
| DM0DOS-11 | 2026-09-05 12:02:25 | 52.34643 | 11.74705 | 119° | 15km/h | 22851m | 4.4m/s | -51°C | 3.3% | 37.4hPa | 2.7V | 03:44:47 | 02:11:45 | 00:00:00 | |
| HSKMA3-T | 2026-09-05 12:02:23 | 52.34643 | 11.74705 | 120° | 15km/h | 22851m | 4.4m/s | -51°C | 0% | 37.5hPa | 2.7V | 03:44:47 | 02:11:45 | 00:00:00 | |
| DL1XH1-15 | 2026-09-05 12:02:23 | 52.34649 | 11.74684 | 111° | 20km/h | 22833m | 4.8m/s | -50.8°C | 3.4% | 37.6hPa | 2.6V | 03:44:50 | 02:11:42 | 00:00:00 | |
| AA1-15 | 2026-09-05 12:02:21 | 52.34647 | 11.74692 | 116° | 20km/h | 22839m | 6.7m/s | -50.9°C | 0.1% | 37.5hPa | 2.6V | 03:45:38 | 02:11:43 | 00:00:00 | |
| DF8AY | 2026-09-05 12:02:19 | 52.34652 | 11.74671 | 104° | 15km/h | 22823m | 6.6m/s | -50.9°C | 0.1% | 37.6hPa | 2.7V | 03:45:38 | 02:11:40 | 00:00:00 | |
| DL1XH-15 | 2026-09-05 12:02:18 | 52.34653 | 11.74661 | 96° | 11km/h | 22811m | 5.2m/s | -50.9°C | 3.3% | 37.7hPa | 2.7V | 03:44:54 | 02:11:38 | 00:00:00 | |
| DL1XH-west | 2026-09-05 12:02:16 | 52.34653 | 11.74661 | 96° | 11km/h | 22811m | 5.2m/s | -50.9°C | 0% | 37.7hPa | 2.7V | 03:45:38 | 02:11:38 | 00:00:00 | |
| TFSTFS | 2026-09-05 12:02:15 | 52.34653 | 11.74656 | 96° | 13km/h | 22806m | 6.2m/s | -51.0°C | 0.8% | 37.7hPa | 2.7V | 00:00:00 | 00:00:00 | 00:00:00 | |
| DO2SHX-10 | 2026-09-05 12:02:14 | 52.34653 | 11.74650 | 96° | 16km/h | 22800m | 5.3m/s | -50.9°C | 3.3% | 37.7hPa | 2.7V | 00:00:00 | 02:11:36 | 00:00:00 | |
| DL1XH1-15 | 2026-09-05 12:02:13 | 52.34657 | 11.74624 | 112° | 18km/h | 22779m | 4.5m/s | -50.9°C | 3.3% | 37.9hPa | 2.7V | 03:45:00 | 02:11:32 | 00:00:00 | |
| HSKMA3-T | 2026-09-05 12:02:12 | 52.34655 | 11.74636 | 102° | 16km/h | 22790m | 5.9m/s | -51°C | 0% | 37.8hPa | 2.7V | 03:45:38 | 02:11:34 | 00:00:00 | |
| DL1LOL-11 | 2026-09-05 12:02:12 | 52.34655 | 11.74636 | 103° | 16km/h | 22790m | 5.9m/s | -51.0°C | 0.8% | 37.8hPa | 2.7V | 03:45:00 | 00:00:00 | 00:00:00 | |
| DL1XH-15 | 2026-09-05 12:02:11 | 52.34669 | 11.74588 | 119° | 29km/h | 22758m | 4.3m/s | -51°C | 3.3% | 38hPa | 2.7V | 03:45:04 | 02:11:28 | 00:00:00 | |
| AA1-15 | 2026-09-05 12:02:10 | 52.34657 | 11.74624 | 112° | 18km/h | 22779m | 4.5m/s | -50.9°C | 0% | 37.9hPa | 2.7V | 03:45:38 | 02:11:32 | 00:00:00 | |
| DF8AY | 2026-09-05 12:02:08 | 52.34662 | 11.74608 | 119° | 26km/h | 22769m | 6.6m/s | -50.9°C | 0% | 37.9hPa | 2.6V | 03:45:38 | 02:11:30 | 00:00:00 | |
| DL1XH-west | 2026-09-05 12:02:05 | 52.34673 | 11.74578 | 123° | 26km/h | 22752m | 5.8m/s | -51°C | 0% | 38hPa | 2.6V | 03:45:38 | 02:11:27 | 00:00:00 | |
| DO2SHX-10 | 2026-09-05 12:02:05 | 52.34673 | 11.74578 | 123° | 22km/h | 22753m | 5.7m/s | -51.0°C | 3.3% | 38.0hPa | 2.6V | 03:45:00 | 02:11:27 | 00:00:00 | |
| DL1ZP-14 | 2026-09-05 12:02:04 | 52.34676 | 11.74570 | 121° | 20km/h | 22747m | 5.3m/s | -51.0°C | 0.8% | 38.0hPa | 2.6V | 00:00:00 | 00:00:00 | 00:00:00 | |
| DL1XH1-15 | 2026-09-05 12:02:03 | 52.34684 | 11.74544 | 111° | 18km/h | 22726m | 5.2m/s | -50.9°C | 3.3% | 38.2hPa | 2.6V | 03:45:10 | 02:11:22 | 00:00:00 | |
| HSKMA3-T | 2026-09-05 12:02:01 | 52.34682 | 11.74551 | 116° | 16km/h | 22731m | 6.2m/s | -50.9°C | 0% | 38.1hPa | 2.7V | 03:45:38 | 02:11:23 | 00:00:00 | |
| AA1-15 | 2026-09-05 12:01:59 | 52.34686 | 11.74537 | 105° | 20km/h | 22721m | 4.4m/s | -51°C | 0% | 38.2hPa | 2.6V | 03:45:38 | 02:11:21 | 00:00:00 | |
| DF8AY | 2026-09-05 12:01:57 | 52.34687 | 11.74522 | 88° | 16km/h | 22710m | 6.3m/s | -51.3°C | 0% | 38.2hPa | 2.7V | 03:45:38 | 02:11:19 | 00:00:00 | |
| DL1XH-west | 2026-09-05 12:01:55 | 52.34686 | 11.74510 | 85° | 15km/h | 22699m | 4.7m/s | -51.3°C | 0% | 38.3hPa | 2.7V | 03:45:38 | 02:11:17 | 00:00:00 | |
| HSKMA3-T | 2026-09-05 12:01:51 | 52.34691 | 11.74477 | 118° | 27km/h | 22679m | 5m/s | -51.4°C | 0.1% | 38.5hPa | 2.7V | 03:45:38 | 02:11:13 | 00:00:00 | |
| DF8AY | 2026-09-05 12:01:47 | 52.34703 | 11.74442 | 98° | 18km/h | 22658m | 4.2m/s | -51.5°C | 0.1% | 38.6hPa | 2.6V | 03:45:38 | 02:11:09 | 00:00:00 | |
| DL1XH-west | 2026-09-05 12:01:45 | 52.34701 | 11.74424 | 75° | 26km/h | 22648m | 6.1m/s | -51.5°C | 0.1% | 38.6hPa | 2.7V | 03:45:38 | 02:11:07 | 00:00:00 | |
| DO2SHX-10 | 2026-09-05 12:01:44 | 52.34699 | 11.74413 | 72° | 31km/h | 22642m | 5.4m/s | -51.5°C | 3.3% | 38.6hPa | 2.6V | 00:00:00 | 02:11:06 | 00:00:00 | |
| DL1XH1-15 | 2026-09-05 12:01:43 | 52.34689 | 11.74367 | 77° | 24km/h | 22621m | 4.6m/s | -51.3°C | 3.2% | 38.8hPa | 2.7V | 03:45:30 | 02:11:02 | 00:00:00 | |
| GOEST3-10 | 2026-09-05 12:01:42 | 52.34693 | 11.74389 | 69° | 26km/h | 22632m | 5.4m/s | -51.3°C | 3.3% | 38.7hPa | 2.7V | 00:00:00 | 02:11:04 | 00:00:00 | |
| DB0DAN | 2026-09-05 12:01:40 | 52.34689 | 11.74367 | 78° | 22km/h | 22621m | 4.6m/s | -51.3°C | 0.8% | 38.79hPa | 2.7V | 00:00:00 | 00:00:00 | 00:00:00 | |
| HSKMA3-T | 2026-09-05 12:01:40 | 52.34689 | 11.74367 | 78° | 24km/h | 22621m | 4.6m/s | -51.3°C | 0% | 38.8hPa | 2.7V | 03:45:38 | 02:11:02 | 00:00:00 | |
| SO1NDE-10 | 2026-09-05 12:01:39 | 52.34688 | 11.74357 | 90° | 24km/h | 22617m | 4.1m/s | -51.4°C | 3.3% | 38.8hPa | 2.7V | 00:00:00 | 02:11:01 | 00:00:00 | |
| DL1XH-15 | 2026-09-05 12:01:38 | 52.34692 | 11.74329 | 107° | 24km/h | 22601m | 4.7m/s | -51.5°C | 3.3% | 38.9hPa | 2.7V | 03:45:34 | 02:10:58 | 00:00:00 | |
| AA1-15 | 2026-09-05 12:01:37 | 52.34690 | 11.74339 | 106° | 24km/h | 22606m | 6m/s | -51.6°C | 0% | 38.9hPa | 2.6V | 03:45:38 | 02:10:59 | 00:00:00 | |
| DF8AY | 2026-09-05 12:01:36 | 52.34692 | 11.74329 | 107° | 24km/h | 22601m | 4.7m/s | -51.5°C | 0% | 38.9hPa | 2.7V | 03:45:38 | 02:10:58 | 00:00:00 | |
| DL1XH1-15 | 2026-09-05 12:01:35 | 52.34679 | 11.74288 | 40° | 29km/h | 22569m | 6.2m/s | -51.9°C | 3.3% | 39.1hPa | 2.7V | 03:45:40 | 02:10:52 | 00:00:00 | |
| DO2SHX-10 | 2026-09-05 12:01:35 | 52.34693 | 11.74321 | 100° | 18km/h | 22597m | 4.3m/s | -51.4°C | 3.3% | 38.9hPa | 2.7V | 00:00:00 | 02:10:57 | 00:00:00 | |
| DM0DOS-11 | 2026-09-05 12:01:34 | 52.34692 | 11.74306 | 58° | 16km/h | 22585m | 5.8m/s | -51.6°C | 3.3% | 39hPa | 2.6V | 03:45:37 | 02:10:55 | 00:00:00 | |
| DL1XH-west | 2026-09-05 12:01:34 | 52.34693 | 11.74313 | 86° | 16km/h | 22591m | 6.4m/s | -51.6°C | 0.1% | 39hPa | 2.7V | 03:45:38 | 02:10:56 | 00:00:00 | |
| TFSTFS | 2026-09-05 12:01:33 | 52.34692 | 11.74306 | 59° | 16km/h | 22585m | 5.8m/s | -51.7°C | 0.8% | 39.0hPa | 2.6V | 00:00:00 | 00:00:00 | 00:00:00 | |
| DO2SHX-10 | 2026-09-05 12:01:32 | 52.34689 | 11.74301 | 40° | 26km/h | 22580m | 4.8m/s | -51.6°C | 3.3% | 39.0hPa | 2.6V | 00:00:00 | 02:10:54 | 00:00:00 | |
| DL1XH-15 | 2026-09-05 12:01:31 | 52.34664 | 11.74251 | 77° | 22km/h | 22549m | 5.5m/s | -52.1°C | 3.4% | 39.2hPa | 2.6V | 03:45:44 | 02:10:48 | 00:00:00 | |
| HSKMA3-T | 2026-09-05 12:01:30 | 52.34679 | 11.74288 | 41° | 29km/h | 22569m | 6.2m/s | -51.9°C | 0% | 39.1hPa | 2.7V | 03:46:29 | 02:10:52 | 00:00:00 | |
| AA1-15 | 2026-09-05 12:01:27 | 52.34666 | 11.74260 | 65° | 26km/h | 22555m | 5.3m/s | -52°C | 0.1% | 39.2hPa | 2.6V | 03:46:29 | 02:10:49 | 00:00:00 | |
| DF8AY | 2026-09-05 12:01:26 | 52.34664 | 11.74251 | 77° | 22km/h | 22549m | 5.6m/s | -52.1°C | 0.1% | 39.2hPa | 2.6V | 03:47:20 | 02:10:48 | 00:00:00 | |
| DB0DAN | 2026-09-05 12:01:25 | 52.34664 | 11.74243 | 91° | 16km/h | 22544m | 5.4m/s | -52.1°C | 0.8% | 39.27hPa | 2.7V | 00:00:00 | 00:00:00 | 00:00:00 | |
| DM0DOS-11 | 2026-09-05 12:01:24 | 52.34666 | 11.74228 | 109° | 20km/h | 22534m | 5.8m/s | -52.1°C | 3.4% | 39.3hPa | 2.6V | 03:45:47 | 02:10:45 | 00:00:00 | |
| DL1XH1-15 | 2026-09-05 12:01:24 | 52.34671 | 11.74204 | 101° | 18km/h | 22517m | 5.1m/s | -52.3°C | 3.4% | 39.4hPa | 2.7V | 03:45:50 | 02:10:42 | 00:00:00 | |
| DL1XH-west | 2026-09-05 12:01:23 | 52.34666 | 11.74228 | 109° | 20km/h | 22534m | 5.8m/s | -52.1°C | 0.1% | 39.3hPa | 2.6V | 03:46:29 | 02:10:45 | 00:00:00 | |
| HSKMA3-T | 2026-09-05 12:01:19 | 52.34670 | 11.74191 | 69° | 16km/h | 22506m | 5m/s | -52.4°C | 0.2% | 39.5hPa | 2.6V | 03:46:29 | 02:10:40 | 00:00:00 | |
| DL1XH-15 | 2026-09-05 12:01:19 | 52.34665 | 11.74177 | 55° | 27km/h | 22495m | 6.4m/s | -52.5°C | 3.5% | 39.6hPa | 2.6V | 03:45:54 | 02:10:38 | 00:00:00 | |
| AA1-15 | 2026-09-05 12:01:16 | 52.34665 | 11.74177 | 55° | 27km/h | 22495m | 6.4m/s | -52.5°C | 0.1% | 39.6hPa | 2.6V | 03:46:29 | 02:10:38 | 00:00:00 | |
| DF8AY | 2026-09-05 12:01:15 | 52.34661 | 11.74167 | 54° | 31km/h | 22489m | 5.4m/s | -52.6°C | 0.2% | 39.6hPa | 2.7V | 03:47:20 | 02:10:37 | 00:00:00 | |
| DL1XH-west | 2026-09-05 12:01:12 | 52.34647 | 11.74135 | 61° | 29km/h | 22473m | 4.5m/s | -52.7°C | 0.1% | 39.7hPa | 2.6V | 03:46:29 | 02:10:34 | 00:00:00 | |
| GOEST3-10 | 2026-09-05 12:01:12 | 52.34647 | 11.74135 | 62° | 29km/h | 22473m | 4.5m/s | -52.6°C | 3.5% | 39.6hPa | 2.6V | 00:00:00 | 02:10:34 | 00:00:00 | |
| TFSTFS | 2026-09-05 12:01:11 | 52.34647 | 11.74135 | 62° | 29km/h | 22473m | 4.5m/s | -52.7°C | 0.9% | 39.7hPa | 2.6V | 03:46:00 | 00:00:00 | 00:00:00 | |
| DB0DAN | 2026-09-05 12:01:10 | 52.34643 | 11.74113 | 84° | 27km/h | 22463m | 6.3m/s | -53°C | 0.9% | 39.75hPa | 2.6V | 00:00:00 | 00:00:00 | 00:00:00 | |
| HSKMA3-T | 2026-09-05 12:01:08 | 52.34644 | 11.74088 | 100° | 29km/h | 22451m | 5.2m/s | -53.2°C | 0.4% | 39.8hPa | 2.7V | 03:46:29 | 02:10:30 | 00:00:00 | |
| AA1-15 | 2026-09-05 12:01:06 | 52.34646 | 11.74068 | 95° | 20km/h | 22440m | 5.5m/s | -53.2°C | 0.4% | 39.9hPa | 2.6V | 03:46:29 | 02:10:28 | 00:00:00 | |
| DF8AY | 2026-09-05 12:01:05 | 52.34645 | 11.74060 | 76° | 18km/h | 22435m | 4.8m/s | -53.3°C | 0.3% | 39.9hPa | 2.6V | 03:47:20 | 02:10:27 | 00:00:00 | |
| DL1XH-west | 2026-09-05 12:01:01 | 52.34632 | 11.74028 | 47° | 29km/h | 22415m | 4.1m/s | -53.2°C | 0.2% | 40hPa | 2.6V | 03:46:29 | 02:10:23 | 00:00:00 | |
| HSKMA3-T | 2026-09-05 12:00:58 | 52.34613 | 11.73999 | 53° | 20km/h | 22395m | 4.7m/s | -52.9°C | 0.2% | 40.2hPa | 2.6V | 03:46:29 | 02:10:19 | 00:00:00 | |
| GOEST3-10 | 2026-09-05 12:00:57 | 52.34613 | 11.73999 | 53° | 20km/h | 22395m | 4.7m/s | -52.9°C | 3.6% | 40.1hPa | 2.6V | 00:00:00 | 00:00:00 | 00:00:00 | |
| DF7ER-10 | 2026-09-05 12:00:56 | 52.34613 | 11.73999 | 54° | 20km/h | 22395m | 4.7m/s | -52.9°C | 0.9% | 40.2hPa | 2.6V | 03:46:00 | 00:00:00 | 00:00:00 | |
| DB0DAN | 2026-09-05 12:00:55 | 52.34609 | 11.73984 | 81° | 20km/h | 22383m | 5.4m/s | -52.7°C | 0.9% | 40.26hPa | 2.6V | 00:00:00 | 00:00:00 | 00:00:00 | |
| AA1-15 | 2026-09-05 12:00:55 | 52.34609 | 11.73984 | 81° | 20km/h | 22383m | 5.4m/s | -52.7°C | 0.2% | 40.3hPa | 2.6V | 03:46:29 | 02:10:17 | 00:00:00 | |
| DM0DOS-11 | 2026-09-05 12:00:54 | 52.34610 | 11.73968 | 104° | 20km/h | 22373m | 5.5m/s | -52.6°C | 3.6% | 40.3hPa | 2.7V | 03:46:17 | 02:10:15 | 00:00:00 | |
| DF8AY | 2026-09-05 12:00:54 | 52.34609 | 11.73976 | 95° | 20km/h | 22378m | 4.9m/s | -52.6°C | 0.2% | 40.3hPa | 2.7V | 03:47:20 | 02:10:16 | 00:00:00 | |
| DL1XH-west | 2026-09-05 12:00:50 | 52.34614 | 11.73949 | 102° | 15km/h | 22357m | 3.9m/s | -52.4°C | 0.2% | 40.4hPa | 2.6V | 03:46:29 | 02:10:12 | 00:00:00 | |
| HSKMA3-T | 2026-09-05 12:00:47 | 52.34614 | 11.73925 | 82° | 26km/h | 22341m | 5m/s | -52.3°C | 0.2% | 40.5hPa | 2.7V | 03:46:29 | 02:10:09 | 00:00:00 | |
| AA1-15 | 2026-09-05 12:00:45 | 52.34611 | 11.73905 | 74° | 24km/h | 22331m | 5.5m/s | -52.4°C | 0.2% | 40.5hPa | 2.6V | 03:46:29 | 02:10:07 | 00:00:00 | |
| DF8AY | 2026-09-05 12:00:44 | 52.34610 | 11.73896 | 71° | 20km/h | 22326m | 5.7m/s | -52.4°C | 0.1% | 40.6hPa | 2.6V | 03:47:20 | 02:10:06 | 00:00:00 | |
| DM0DOS-11 | 2026-09-05 12:00:44 | 52.34608 | 11.73888 | 71° | 16km/h | 22321m | 4.5m/s | -52.3°C | 3.5% | 40.6hPa | 2.7V | 03:46:27 | 02:10:05 | 00:00:00 | |
| DO2SHX-10 | 2026-09-05 12:00:44 | 52.34610 | 11.73896 | 72° | 18km/h | 22326m | 5.6m/s | -52.3°C | 3.5% | 40.5hPa | 2.6V | 00:00:00 | 02:10:06 | 00:00:00 | |
| DL1XH1-15 | 2026-09-05 12:00:43 | 52.34606 | 11.73867 | 87° | 20km/h | 22306m | 5.7m/s | -52.5°C | 3.6% | 40.7hPa | 2.6V | 03:46:30 | 02:10:02 | 00:00:00 | |
| DL1XH-west | 2026-09-05 12:00:40 | 52.34606 | 11.73867 | 88° | 20km/h | 22306m | 5.7m/s | -52.5°C | 0.2% | 40.7hPa | 2.6V | 03:47:20 | 02:10:02 | 00:00:00 | |
| DL1LOL-11 | 2026-09-05 12:00:40 | 52.34606 | 11.73867 | 89° | 20km/h | 22306m | 5.7m/s | -52.5°C | 0.9% | 40.7hPa | 2.6V | 00:00:00 | 00:00:00 | 00:00:00 | |
| DL1XH-15 | 2026-09-05 12:00:38 | 52.34606 | 11.73831 | 88° | 20km/h | 22285m | 5.2m/s | -52.6°C | 3.6% | 40.9hPa | 2.6V | 03:46:34 | 02:09:58 | 00:00:00 | |
| HSKMA3-T | 2026-09-05 12:00:37 | 52.34606 | 11.73830 | 89° | 20km/h | 22285m | 5.2m/s | -52.6°C | 0.2% | 40.9hPa | 2.6V | 03:47:20 | 02:09:58 | 00:00:00 | |
| AA1-15 | 2026-09-05 12:00:34 | 52.34606 | 11.73814 | 92° | 22km/h | 22275m | 4.7m/s | -52.7°C | 0.2% | 40.9hPa | 2.6V | 03:47:20 | 02:09:56 | 00:00:00 | |
| DF8AY | 2026-09-05 12:00:33 | 52.34606 | 11.73805 | 95° | 24km/h | 22270m | 6.6m/s | -52.6°C | 0.1% | 41hPa | 2.7V | 03:47:20 | 02:09:55 | 00:00:00 | |
| DO2SHX-10 | 2026-09-05 12:00:32 | 52.34607 | 11.73795 | 100° | 26km/h | 22264m | 5.4m/s | -52.6°C | 3.6% | 40.9hPa | 2.7V | 00:00:00 | 02:09:54 | 00:00:00 | |
| DL1XH-15 | 2026-09-05 12:00:31 | 52.34622 | 11.73742 | 117° | 26km/h | 22232m | 5.7m/s | -52.5°C | 3.6% | 41.2hPa | 2.7V | 03:46:44 | 02:09:48 | 00:00:00 | |
| DL1XH-west | 2026-09-05 12:00:30 | 52.34611 | 11.73774 | 112° | 24km/h | 22253m | 6.1m/s | -52.6°C | 0.2% | 41.1hPa | 2.6V | 03:47:20 | 02:09:52 | 00:00:00 | |
| HSKMA3-T | 2026-09-05 12:00:26 | 52.34625 | 11.73733 | 115° | 27km/h | 22227m | 4.5m/s | -52.5°C | 0.2% | 41.2hPa | 2.7V | 03:47:20 | 02:09:47 | 00:00:00 | |
| DL4BBY-15 | 2026-09-05 12:00:24 | 52.34627 | 11.73722 | 113° | 24km/h | 22223m | 3.7m/s | -52.7°C | 0% | 0hPa | 2.6V | 00:00:00 | 00:00:00 | 00:00:00 | |
| DL1XH1-15 | 2026-09-05 12:00:23 | 52.34636 | 11.73686 | 108° | 22km/h | 22201m | 4.6m/s | -52.6°C | 3.6% | 41.4hPa | 2.6V | 03:46:50 | 02:09:42 | 00:00:00 | |
| DF8AY | 2026-09-05 12:00:23 | 52.34630 | 11.73712 | 111° | 26km/h | 22218m | 5.7m/s | -52.5°C | 0.2% | 41.3hPa | 2.6V | 03:47:20 | 02:09:45 | 00:00:00 | |
| DL1XH-west | 2026-09-05 12:00:19 | 52.34642 | 11.73657 | 108° | 26km/h | 22185m | 4.6m/s | -52.6°C | 0.1% | 41.5hPa | 2.7V | 03:47:20 | 02:09:39 | 00:00:00 | |
| DL1XH-15 | 2026-09-05 12:00:19 | 52.34644 | 11.73647 | 105° | 24km/h | 22180m | 5.5m/s | -52.6°C | 3.6% | 41.5hPa | 2.7V | 03:46:54 | 02:09:38 | 00:00:00 | |
| HSKMA3-T | 2026-09-05 12:00:14 | 52.34647 | 11.73630 | 103° | 18km/h | 22169m | 4.6m/s | -52.6°C | 0.2% | 41.6hPa | 2.6V | 03:47:20 | 02:09:36 | 00:00:00 | |
| DO2SHX-10 | 2026-09-05 12:00:14 | 52.34647 | 11.73630 | 103° | 20km/h | 22170m | 4.5m/s | -52.6°C | 3.6% | 41.6hPa | 2.6V | 00:00:00 | 02:09:36 | 00:00:00 | |
| DL1XH1-15 | 2026-09-05 12:00:13 | 52.34651 | 11.73597 | 98° | 22km/h | 22147m | 5m/s | -52.6°C | 3.6% | 41.7hPa | 2.7V | 03:47:00 | 02:09:32 | 00:00:00 | |
| DF8AY | 2026-09-05 12:00:12 | 52.34649 | 11.73615 | 103° | 22km/h | 22158m | 6.3m/s | -52.6°C | 0.2% | 41.6hPa | 2.7V | 03:47:20 | 02:09:34 | 00:00:00 | |
| GOEST3-10 | 2026-09-05 12:00:12 | 52.34649 | 11.73615 | 104° | 22km/h | 22158m | 6.2m/s | -52.5°C | 3.6% | 41.6hPa | 2.7V | 00:00:00 | 02:09:34 | 00:00:00 | |
| DD8BA-10 | 2026-09-05 12:00:11 | 52.34650 | 11.73606 | 102° | 26km/h | 22152m | 4.7m/s | -52.5°C | 3.6% | 41.7hPa | 2.7V | 00:00:00 | 00:00:00 | 00:00:00 | |
| DO3MHA-11 | 2026-09-05 12:00:10 | 52.34651 | 11.73597 | 99° | 26km/h | 22147m | 5.0m/s | -52.6°C | 3.6% | 41.7hPa | 2.7V | 00:00:00 | 02:09:32 | 00:00:00 | |
| DL1XH-15 | 2026-09-05 12:00:08 | 52.34650 | 11.73558 | 86° | 29km/h | 22126m | 6.7m/s | -52.5°C | 3.6% | 41.9hPa | 2.7V | 03:47:04 | 02:09:28 | 00:00:00 | |
| DL1XH-west | 2026-09-05 12:00:07 | 52.34651 | 11.73569 | 86° | 26km/h | 22132m | 4.8m/s | -52.6°C | 0.2% | 41.8hPa | 2.6V | 03:47:20 | 02:09:29 | 00:00:00 | |
| GOEST3-10 | 2026-09-05 12:00:07 | 52.34651 | 11.73569 | 86° | 27km/h | 22132m | 4.8m/s | -52.5°C | 3.6% | 41.8hPa | 2.7V | 03:47:00 | 00:00:00 | 00:00:00 | |
| DO2SHX-10 | 2026-09-05 12:00:05 | 52.34650 | 11.73546 | 92° | 27km/h | 22120m | 4.6m/s | -52.3°C | 3.6% | 41.9hPa | 2.7V | 03:47:00 | 02:09:27 | 00:00:00 | |
| DM0DOS-11 | 2026-09-05 12:00:04 | 52.34651 | 11.73523 | 94° | 26km/h | 22109m | 6.3m/s | -52.5°C | 3.6% | 42hPa | 2.6V | 03:47:07 | 02:09:25 | 00:00:00 | |
| HSKMA3-T | 2026-09-05 12:00:03 | 52.34651 | 11.73523 | 95° | 26km/h | 22109m | 6.3m/s | -52.5°C | 0.2% | 42hPa | 2.6V | 03:47:20 | 02:09:25 | 00:00:00 | |
| DL1XH1-15 | 2026-09-05 12:00:03 | 52.34655 | 11.73493 | 105° | 27km/h | 22093m | 5.9m/s | -52.4°C | 3.6% | 42.1hPa | 2.7V | 03:47:10 | 02:09:22 | 00:00:00 | |
| DF8AY | 2026-09-05 12:00:02 | 52.34652 | 11.73513 | 102° | 24km/h | 22103m | 5.1m/s | -52.4°C | 0.2% | 42hPa | 2.6V | 03:47:20 | 02:09:24 | 00:00:00 | |
| DO2SHX-10 | 2026-09-05 12:00:02 | 52.34652 | 11.73513 | 103° | 26km/h | 22104m | 5.0m/s | -52.4°C | 3.6% | 42.0hPa | 2.7V | 00:00:00 | 02:09:24 | 00:00:00 | |
| DD8BA-10 | 2026-09-05 12:00:01 | 52.34653 | 11.73503 | 106° | 26km/h | 22099m | 5.2m/s | -52.3°C | 3.6% | 42.0hPa | 2.7V | 03:47:00 | 00:00:00 | 00:00:00 | |
| DB0UT-7 | 2026-09-05 12:00:00 | 52.34655 | 11.73492 | 106° | 22km/h | 22093m | 5.8m/s | -52.3°C | 3.6% | 42.0hPa | 2.6V | 00:00:00 | 00:00:00 | 00:00:00 | |
| DO2SHX-10 | 2026-09-05 11:59:59 | 52.34657 | 11.73482 | 104° | 26km/h | 22088m | 4.1m/s | -52.3°C | 3.6% | 42.1hPa | 2.6V | 00:00:00 | 02:09:21 | 00:00:00 | |
| DL1NUX | 2026-09-05 11:59:58 | 52.34655 | 11.73423 | 78° | 27km/h | 22055m | 5.2m/s | -52.2°C | 3.4% | 42.4hPa | 2.6V | 03:47:17 | 02:09:15 | 00:00:00 | |
| DL1XH-west | 2026-09-05 11:59:57 | 52.34659 | 11.73462 | 93° | 22km/h | 22078m | 6.5m/s | -52.3°C | 0.2% | 42.2hPa | 2.7V | 03:47:20 | 02:09:19 | 00:00:00 | |
| DF8AY | 2026-09-05 11:59:56 | 52.34652 | 11.73401 | 80° | 27km/h | 22046m | 6m/s | -52.4°C | 0.2% | 42.4hPa | 2.7V | 03:47:20 | 02:09:13 | 00:00:00 | |
| DO2SHX-10 | 2026-09-05 11:59:56 | 52.34659 | 11.73453 | 82° | 24km/h | 22072m | 5.0m/s | -52.3°C | 3.5% | 42.2hPa | 2.7V | 00:00:00 | 02:09:18 | 00:00:00 | |
| TFSTFS | 2026-09-05 11:59:54 | 52.34656 | 11.73434 | 77° | 26km/h | 22061m | 6.4m/s | -52.3°C | 0.9% | 42.3hPa | 2.7V | 00:00:00 | 00:00:00 | 00:00:00 | |
| DL1XH1-15 | 2026-09-05 11:59:53 | 52.34651 | 11.73390 | 81° | 26km/h | 22040m | 5.2m/s | -52.2°C | 3.5% | 42.4hPa | 2.7V | 03:47:20 | 02:09:12 | 00:00:00 | |
| AA1-15 | 2026-09-05 11:59:52 | 52.34653 | 11.73412 | 78° | 27km/h | 22051m | 4.3m/s | -52.3°C | 0.2% | 42.4hPa | 2.6V | 03:47:20 | 02:09:14 | 00:00:00 | |
| DD8BA-10 | 2026-09-05 11:59:51 | 52.34652 | 11.73401 | 80° | 24km/h | 22046m | 5.9m/s | -52.3°C | 3.5% | 42.3hPa | 2.7V | 00:00:00 | 00:00:00 | 00:00:00 | |
| DO2SHX-10 | 2026-09-05 11:59:50 | 52.34651 | 11.73390 | 82° | 26km/h | 22040m | 5.2m/s | -52.2°C | 3.5% | 42.4hPa | 2.7V | 00:00:00 | 02:09:12 | 00:00:00 | |
| DL1NUX | 2026-09-05 11:59:48 | 52.34658 | 11.73320 | 103° | 18km/h | 22003m | 4.5m/s | -52.5°C | 3.6% | 42.7hPa | 2.7V | 03:47:27 | 02:09:05 | 00:00:00 | |
| DL1XH-west | 2026-09-05 11:59:46 | 52.34653 | 11.73347 | 104° | 27km/h | 22019m | 4.3m/s | -52.4°C | 0.2% | 42.6hPa | 2.6V | 03:48:11 | 02:09:08 | 00:00:00 | |
| DO3MHA-11 | 2026-09-05 11:59:46 | 52.34653 | 11.73347 | 105° | 18km/h | 22020m | 4.3m/s | -52.3°C | 3.6% | 42.5hPa | 2.7V | 00:00:00 | 02:09:08 | 00:00:00 | |
| DB0NH | 2026-09-05 11:59:45 | 52.34655 | 11.73336 | 107° | 15km/h | 22014m | 6.3m/s | -52.4°C | 3.6% | 42.6hPa | 2.7V | 00:00:00 | 02:09:07 | 00:00:00 | |
| DO2SHX-10 | 2026-09-05 11:59:44 | 52.34657 | 11.73328 | 107° | 20km/h | 22008m | 5.7m/s | -52.4°C | 3.7% | 42.6hPa | 2.7V | 00:00:00 | 02:09:06 | 00:00:00 | |
| DL1XH1-15 | 2026-09-05 11:59:43 | 52.34661 | 11.73297 | 94° | 18km/h | 21986m | 3.9m/s | -52.7°C | 3.7% | 42.8hPa | 2.7V | 03:47:30 | 02:09:02 | 00:00:00 | |
| HSKMA3-T | 2026-09-05 11:59:42 | 52.34659 | 11.73313 | 102° | 18km/h | 21997m | 6.1m/s | -52.7°C | 0.2% | 42.7hPa | 2.6V | 03:48:11 | 02:09:04 | 00:00:00 | |
| AA1-15 | 2026-09-05 11:59:41 | 52.34660 | 11.73305 | 100° | 20km/h | 21991m | 6m/s | -52.7°C | 0.2% | 42.7hPa | 2.6V | 03:48:11 | 02:09:03 | 00:00:00 | |
| DB0DAN | 2026-09-05 11:59:40 | 52.34661 | 11.73297 | 95° | 18km/h | 21986m | 3.9m/s | -52.7°C | 0.9% | 42.8hPa | 2.7V | 00:00:00 | 00:00:00 | 00:00:00 | |
| DF8AY | 2026-09-05 11:59:40 | 52.34661 | 11.73297 | 95° | 18km/h | 21986m | 3.9m/s | -52.7°C | 0.3% | 42.8hPa | 2.7V | 03:48:11 | 02:09:02 | 00:00:00 | |
| DL1XH-west | 2026-09-05 11:59:35 | 52.34661 | 11.73266 | 93° | 16km/h | 21959m | 5.9m/s | -52.5°C | 0.2% | 43hPa | 2.7V | 03:48:11 | 02:08:57 | 00:00:00 | |
| DO2SHX-10 | 2026-09-05 11:59:35 | 52.34661 | 11.73266 | 93° | 16km/h | 21959m | 5.9m/s | -52.5°C | 3.6% | 42.9hPa | 2.6V | 00:00:00 | 02:08:57 | 00:00:00 | |
| Es werden nur die letzten 3500 von 7266 Frames angezeigt. GPX/KML und Diagramme bleiben verfügbar. | |||||||||||||||